<?xml version='1.0' encoding='UTF-8'?><gpx version="1.1" creator="JPX - https://github.com/jenetics/jpx" xmlns="http://www.topografix.com/GPX/1/1"><trk><trkseg><trkpt lat="45.7633832" lon="11.7165819"><ele>111.0</ele><time>2026-04-06T04:39:05.824Z</time></trkpt><trkpt lat="45.7633433" lon="11.71667"><ele>111.0</ele><time>2026-04-06T04:39:31.561Z</time></trkpt><trkpt lat="45.7633099" lon="11.7167491"><ele>111.0</ele><time>2026-04-06T04:39:35.537Z</time></trkpt><trkpt lat="45.7632708" lon="11.7168261"><ele>111.0</ele><time>2026-04-06T04:39:41.54Z</time></trkpt><trkpt lat="45.7633452" lon="11.7168631"><ele>111.0</ele><time>2026-04-06T04:44:01.586Z</time></trkpt><trkpt lat="45.7634338" lon="11.7168788"><ele>111.0</ele><time>2026-04-06T04:44:03.581Z</time></trkpt><trkpt lat="45.7635133" lon="11.7168879"><ele>110.85714285714285</ele><time>2026-04-06T04:44:04.579Z</time></trkpt><trkpt lat="45.7636011" lon="11.7168787"><ele>110.71428571428572</ele><time>2026-04-06T04:44:05.583Z</time></trkpt><trkpt lat="45.7636679" lon="11.7169179"><ele>110.57142857142857</ele><time>2026-04-06T04:44:06.585Z</time></trkpt><trkpt lat="45.7637234" lon="11.716968"><ele>110.42857142857142</ele><time>2026-04-06T04:44:07.596Z</time></trkpt><trkpt lat="45.7637659" lon="11.7170492"><ele>110.28571428571428</ele><time>2026-04-06T04:44:08.589Z</time></trkpt><trkpt lat="45.7637949" lon="11.7171433"><ele>110.14285714285714</ele><time>2026-04-06T04:44:09.58Z</time></trkpt><trkpt lat="45.7638093" lon="11.7172524"><ele>110.0</ele><time>2026-04-06T04:44:10.589Z</time></trkpt><trkpt lat="45.7638548" lon="11.7173391"><ele>110.0</ele><time>2026-04-06T04:44:11.574Z</time></trkpt><trkpt lat="45.7639874" lon="11.7173811"><ele>110.0</ele><time>2026-04-06T04:44:14.58Z</time></trkpt><trkpt lat="45.7640618" lon="11.7173813"><ele>110.0</ele><time>2026-04-06T04:44:15.58Z</time></trkpt><trkpt lat="45.7641476" lon="11.717393"><ele>110.0</ele><time>2026-04-06T04:44:16.59Z</time></trkpt><trkpt lat="45.7642358" lon="11.7174533"><ele>110.0</ele><time>2026-04-06T04:44:17.577Z</time></trkpt><trkpt lat="45.7643491" lon="11.7175476"><ele>110.25</ele><time>2026-04-06T04:44:18.581Z</time></trkpt><trkpt lat="45.7644379" lon="11.7176711"><ele>110.5</ele><time>2026-04-06T04:44:19.582Z</time></trkpt><trkpt lat="45.7644978" lon="11.7178165"><ele>110.75</ele><time>2026-04-06T04:44:20.579Z</time></trkpt><trkpt lat="45.7645547" lon="11.7179648"><ele>111.0</ele><time>2026-04-06T04:44:21.581Z</time></trkpt><trkpt lat="45.7646116" lon="11.7181069"><ele>111.0</ele><time>2026-04-06T04:44:22.576Z</time></trkpt><trkpt lat="45.764662" lon="11.7182421"><ele>111.0</ele><time>2026-04-06T04:44:23.733Z</time></trkpt><trkpt lat="45.7647662" lon="11.7183628"><ele>111.0</ele><time>2026-04-06T04:44:24.892Z</time></trkpt><trkpt lat="45.7649523" lon="11.7185953"><ele>111.0</ele><time>2026-04-06T04:44:26.622Z</time></trkpt><trkpt lat="45.7650362" lon="11.7187122"><ele>111.0</ele><time>2026-04-06T04:44:27.571Z</time></trkpt><trkpt lat="45.7651173" lon="11.7188408"><ele>111.0</ele><time>2026-04-06T04:44:28.58Z</time></trkpt><trkpt lat="45.7651889" lon="11.718982"><ele>111.0</ele><time>2026-04-06T04:44:29.588Z</time></trkpt><trkpt lat="45.7652619" lon="11.7191172"><ele>111.75</ele><time>2026-04-06T04:44:30.607Z</time></trkpt><trkpt lat="45.7653343" lon="11.7192601"><ele>112.5</ele><time>2026-04-06T04:44:31.584Z</time></trkpt><trkpt lat="45.7654153" lon="11.7194114"><ele>113.25</ele><time>2026-04-06T04:44:32.584Z</time></trkpt><trkpt lat="45.7655017" lon="11.7195704"><ele>114.0</ele><time>2026-04-06T04:44:33.587Z</time></trkpt><trkpt lat="45.7656304" lon="11.7197376"><ele>114.0</ele><time>2026-04-06T04:44:34.589Z</time></trkpt><trkpt lat="45.7657061" lon="11.7199034"><ele>114.0</ele><time>2026-04-06T04:44:35.587Z</time></trkpt><trkpt lat="45.7657523" lon="11.7201031"><ele>114.0</ele><time>2026-04-06T04:44:36.589Z</time></trkpt><trkpt lat="45.7658187" lon="11.720259"><ele>114.0</ele><time>2026-04-06T04:44:37.582Z</time></trkpt><trkpt lat="45.765874" lon="11.7203971"><ele>114.0</ele><time>2026-04-06T04:44:38.588Z</time></trkpt><trkpt lat="45.76593" lon="11.7205425"><ele>114.0</ele><time>2026-04-06T04:44:39.585Z</time></trkpt><trkpt lat="45.7660121" lon="11.7206974"><ele>114.0</ele><time>2026-04-06T04:44:40.586Z</time></trkpt><trkpt lat="45.7661048" lon="11.7208833"><ele>114.0</ele><time>2026-04-06T04:44:41.588Z</time></trkpt><trkpt lat="45.7661769" lon="11.7210514"><ele>114.5</ele><time>2026-04-06T04:44:42.59Z</time></trkpt><trkpt lat="45.766206" lon="11.7212334"><ele>115.0</ele><time>2026-04-06T04:44:43.591Z</time></trkpt><trkpt lat="45.7662868" lon="11.7213828"><ele>115.5</ele><time>2026-04-06T04:44:44.587Z</time></trkpt><trkpt lat="45.7663374" lon="11.7215506"><ele>116.0</ele><time>2026-04-06T04:44:45.593Z</time></trkpt><trkpt lat="45.7663968" lon="11.7217146"><ele>116.0</ele><time>2026-04-06T04:44:46.585Z</time></trkpt><trkpt lat="45.7664975" lon="11.7218717"><ele>116.0</ele><time>2026-04-06T04:44:47.581Z</time></trkpt><trkpt lat="45.7666009" lon="11.7220298"><ele>116.0</ele><time>2026-04-06T04:44:48.585Z</time></trkpt><trkpt lat="45.766713" lon="11.7222054"><ele>116.0</ele><time>2026-04-06T04:44:49.574Z</time></trkpt><trkpt lat="45.7667857" lon="11.7223779"><ele>116.0</ele><time>2026-04-06T04:44:50.58Z</time></trkpt><trkpt lat="45.766902" lon="11.7225242"><ele>116.0</ele><time>2026-04-06T04:44:51.577Z</time></trkpt><trkpt lat="45.7669828" lon="11.7226642"><ele>116.0</ele><time>2026-04-06T04:44:52.585Z</time></trkpt><trkpt lat="45.7670417" lon="11.7228291"><ele>116.0</ele><time>2026-04-06T04:44:53.584Z</time></trkpt><trkpt lat="45.7671327" lon="11.7230041"><ele>116.0</ele><time>2026-04-06T04:44:54.583Z</time></trkpt><trkpt lat="45.7671831" lon="11.7231822"><ele>116.0</ele><time>2026-04-06T04:44:55.58Z</time></trkpt><trkpt lat="45.7672222" lon="11.7233326"><ele>116.0</ele><time>2026-04-06T04:44:56.582Z</time></trkpt><trkpt lat="45.7672559" lon="11.7234502"><ele>115.99999999999999</ele><time>2026-04-06T04:44:57.582Z</time></trkpt><trkpt lat="45.7672751" lon="11.7235648"><ele>116.0</ele><time>2026-04-06T04:44:58.584Z</time></trkpt><trkpt lat="45.7672845" lon="11.7236646"><ele>116.0</ele><time>2026-04-06T04:44:59.587Z</time></trkpt><trkpt lat="45.7672858" lon="11.723773"><ele>116.0</ele><time>2026-04-06T04:45:01.576Z</time></trkpt><trkpt lat="45.7673069" lon="11.7235945"><ele>115.99999999999999</ele><time>2026-04-06T04:45:03.578Z</time></trkpt><trkpt lat="45.767335" lon="11.7234864"><ele>116.0</ele><time>2026-04-06T04:45:04.581Z</time></trkpt><trkpt lat="45.7673397" lon="11.7233671"><ele>116.0</ele><time>2026-04-06T04:45:05.581Z</time></trkpt><trkpt lat="45.7673082" lon="11.723243"><ele>116.0</ele><time>2026-04-06T04:45:06.582Z</time></trkpt><trkpt lat="45.7672443" lon="11.7231037"><ele>116.0</ele><time>2026-04-06T04:45:07.581Z</time></trkpt><trkpt lat="45.7672139" lon="11.7229661"><ele>116.0</ele><time>2026-04-06T04:45:08.572Z</time></trkpt><trkpt lat="45.7671918" lon="11.7228061"><ele>116.0</ele><time>2026-04-06T04:45:09.571Z</time></trkpt><trkpt lat="45.7671713" lon="11.7226509"><ele>116.5</ele><time>2026-04-06T04:45:10.576Z</time></trkpt><trkpt lat="45.7671592" lon="11.7225071"><ele>117.0</ele><time>2026-04-06T04:45:11.572Z</time></trkpt><trkpt lat="45.7671434" lon="11.7223525"><ele>117.5</ele><time>2026-04-06T04:45:12.574Z</time></trkpt><trkpt lat="45.7671323" lon="11.7221938"><ele>118.0</ele><time>2026-04-06T04:45:13.582Z</time></trkpt><trkpt lat="45.7671733" lon="11.7220025"><ele>118.0</ele><time>2026-04-06T04:45:14.573Z</time></trkpt><trkpt lat="45.7672214" lon="11.7218747"><ele>118.00000000000001</ele><time>2026-04-06T04:45:15.577Z</time></trkpt><trkpt lat="45.7672718" lon="11.7217396"><ele>118.00000000000001</ele><time>2026-04-06T04:45:16.576Z</time></trkpt><trkpt lat="45.7673118" lon="11.7216127"><ele>118.0</ele><time>2026-04-06T04:45:17.574Z</time></trkpt><trkpt lat="45.7673656" lon="11.7215025"><ele>118.0</ele><time>2026-04-06T04:45:18.569Z</time></trkpt><trkpt lat="45.7674267" lon="11.7214048"><ele>118.0</ele><time>2026-04-06T04:45:19.576Z</time></trkpt><trkpt lat="45.7675443" lon="11.7213139"><ele>118.0</ele><time>2026-04-06T04:45:20.574Z</time></trkpt><trkpt lat="45.767681" lon="11.7212597"><ele>118.0</ele><time>2026-04-06T04:45:21.581Z</time></trkpt><trkpt lat="45.7678165" lon="11.7212267"><ele>118.0</ele><time>2026-04-06T04:45:22.578Z</time></trkpt><trkpt lat="45.7679543" lon="11.7211658"><ele>119.25</ele><time>2026-04-06T04:45:23.575Z</time></trkpt><trkpt lat="45.7680952" lon="11.7211062"><ele>120.5</ele><time>2026-04-06T04:45:24.584Z</time></trkpt><trkpt lat="45.7682269" lon="11.7210667"><ele>121.75</ele><time>2026-04-06T04:45:25.58Z</time></trkpt><trkpt lat="45.768342" lon="11.721013"><ele>123.0</ele><time>2026-04-06T04:45:26.58Z</time></trkpt><trkpt lat="45.7684404" lon="11.7209296"><ele>123.75</ele><time>2026-04-06T04:45:27.571Z</time></trkpt><trkpt lat="45.7685661" lon="11.7208534"><ele>124.5</ele><time>2026-04-06T04:45:28.582Z</time></trkpt><trkpt lat="45.7686819" lon="11.7207244"><ele>125.25</ele><time>2026-04-06T04:45:29.578Z</time></trkpt><trkpt lat="45.7688095" lon="11.7206512"><ele>126.0</ele><time>2026-04-06T04:45:30.589Z</time></trkpt><trkpt lat="45.7689261" lon="11.7205468"><ele>126.0</ele><time>2026-04-06T04:45:31.583Z</time></trkpt><trkpt lat="45.769051" lon="11.7204222"><ele>126.0</ele><time>2026-04-06T04:45:32.579Z</time></trkpt><trkpt lat="45.7691903" lon="11.7202715"><ele>126.0</ele><time>2026-04-06T04:45:33.585Z</time></trkpt><trkpt lat="45.7693282" lon="11.7201085"><ele>127.33333333333334</ele><time>2026-04-06T04:45:34.589Z</time></trkpt><trkpt lat="45.7694682" lon="11.7199473"><ele>128.66666666666669</ele><time>2026-04-06T04:45:35.585Z</time></trkpt><trkpt lat="45.7695937" lon="11.7198232"><ele>130.0</ele><time>2026-04-06T04:45:36.61Z</time></trkpt><trkpt lat="45.7697174" lon="11.7196827"><ele>130.0</ele><time>2026-04-06T04:45:37.587Z</time></trkpt><trkpt lat="45.7698466" lon="11.7195068"><ele>130.0</ele><time>2026-04-06T04:45:38.585Z</time></trkpt><trkpt lat="45.7699653" lon="11.7193223"><ele>130.0</ele><time>2026-04-06T04:45:39.582Z</time></trkpt><trkpt lat="45.7700723" lon="11.7191969"><ele>130.5</ele><time>2026-04-06T04:45:40.575Z</time></trkpt><trkpt lat="45.770206" lon="11.7190844"><ele>131.0</ele><time>2026-04-06T04:45:41.572Z</time></trkpt><trkpt lat="45.7703287" lon="11.7189842"><ele>131.5</ele><time>2026-04-06T04:45:42.573Z</time></trkpt><trkpt lat="45.7704724" lon="11.7189371"><ele>132.0</ele><time>2026-04-06T04:45:43.577Z</time></trkpt><trkpt lat="45.7706007" lon="11.7188085"><ele>132.0</ele><time>2026-04-06T04:45:44.574Z</time></trkpt><trkpt lat="45.7707528" lon="11.7186855"><ele>132.0</ele><time>2026-04-06T04:45:45.607Z</time></trkpt><trkpt lat="45.7708851" lon="11.7185498"><ele>132.0</ele><time>2026-04-06T04:45:46.575Z</time></trkpt><trkpt lat="45.7710395" lon="11.7184496"><ele>132.0</ele><time>2026-04-06T04:45:47.579Z</time></trkpt><trkpt lat="45.7711481" lon="11.71831"><ele>132.0</ele><time>2026-04-06T04:45:48.575Z</time></trkpt><trkpt lat="45.7712797" lon="11.7181728"><ele>132.0</ele><time>2026-04-06T04:45:49.575Z</time></trkpt><trkpt lat="45.7714655" lon="11.7179946"><ele>132.0</ele><time>2026-04-06T04:45:50.576Z</time></trkpt><trkpt lat="45.7716529" lon="11.7178417"><ele>132.0</ele><time>2026-04-06T04:45:51.584Z</time></trkpt><trkpt lat="45.7718206" lon="11.717679"><ele>132.0</ele><time>2026-04-06T04:45:52.579Z</time></trkpt><trkpt lat="45.7719556" lon="11.7175189"><ele>132.33333333333334</ele><time>2026-04-06T04:45:53.661Z</time></trkpt><trkpt lat="45.7720898" lon="11.7173423"><ele>132.66666666666669</ele><time>2026-04-06T04:45:54.576Z</time></trkpt><trkpt lat="45.7722199" lon="11.7171529"><ele>133.0</ele><time>2026-04-06T04:45:55.58Z</time></trkpt><trkpt lat="45.7723626" lon="11.7169913"><ele>133.5</ele><time>2026-04-06T04:45:56.651Z</time></trkpt><trkpt lat="45.7725327" lon="11.7167933"><ele>134.0</ele><time>2026-04-06T04:45:57.736Z</time></trkpt><trkpt lat="45.7728643" lon="11.716564"><ele>134.0</ele><time>2026-04-06T04:45:59.592Z</time></trkpt><trkpt lat="45.7730662" lon="11.7164348"><ele>134.0</ele><time>2026-04-06T04:46:00.576Z</time></trkpt><trkpt lat="45.7732448" lon="11.7163511"><ele>134.0</ele><time>2026-04-06T04:46:01.572Z</time></trkpt><trkpt lat="45.7734135" lon="11.71625"><ele>136.0</ele><time>2026-04-06T04:46:02.73Z</time></trkpt><trkpt lat="45.7737239" lon="11.7159881"><ele>138.0</ele><time>2026-04-06T04:46:04.741Z</time></trkpt><trkpt lat="45.7738872" lon="11.7158479"><ele>138.0</ele><time>2026-04-06T04:46:05.64Z</time></trkpt><trkpt lat="45.7740719" lon="11.7157462"><ele>138.0</ele><time>2026-04-06T04:46:06.572Z</time></trkpt><trkpt lat="45.7742532" lon="11.7156241"><ele>138.0</ele><time>2026-04-06T04:46:07.578Z</time></trkpt><trkpt lat="45.7744447" lon="11.7155252"><ele>139.0</ele><time>2026-04-06T04:46:08.578Z</time></trkpt><trkpt lat="45.7746482" lon="11.7154809"><ele>140.0</ele><time>2026-04-06T04:46:09.586Z</time></trkpt><trkpt lat="45.774802" lon="11.7154558"><ele>141.0</ele><time>2026-04-06T04:46:10.596Z</time></trkpt><trkpt lat="45.7749578" lon="11.7154121"><ele>141.0</ele><time>2026-04-06T04:46:11.578Z</time></trkpt><trkpt lat="45.7750928" lon="11.7153828"><ele>141.0</ele><time>2026-04-06T04:46:12.572Z</time></trkpt><trkpt lat="45.7752077" lon="11.7152922"><ele>141.0</ele><time>2026-04-06T04:46:13.577Z</time></trkpt><trkpt lat="45.7753299" lon="11.7151508"><ele>141.0</ele><time>2026-04-06T04:46:14.574Z</time></trkpt><trkpt lat="45.7754165" lon="11.7149226"><ele>141.25</ele><time>2026-04-06T04:46:15.576Z</time></trkpt><trkpt lat="45.7754746" lon="11.7147206"><ele>141.5</ele><time>2026-04-06T04:46:16.569Z</time></trkpt><trkpt lat="45.775538" lon="11.7145491"><ele>141.75</ele><time>2026-04-06T04:46:17.576Z</time></trkpt><trkpt lat="45.7755675" lon="11.7143427"><ele>142.0</ele><time>2026-04-06T04:46:18.577Z</time></trkpt><trkpt lat="45.7755999" lon="11.7141542"><ele>141.5</ele><time>2026-04-06T04:46:19.574Z</time></trkpt><trkpt lat="45.7756551" lon="11.7139631"><ele>141.0</ele><time>2026-04-06T04:46:20.573Z</time></trkpt><trkpt lat="45.7757583" lon="11.7138032"><ele>140.5</ele><time>2026-04-06T04:46:21.568Z</time></trkpt><trkpt lat="45.7758712" lon="11.713664"><ele>140.0</ele><time>2026-04-06T04:46:22.569Z</time></trkpt><trkpt lat="45.7759783" lon="11.7135557"><ele>140.5</ele><time>2026-04-06T04:46:23.575Z</time></trkpt><trkpt lat="45.7760975" lon="11.7135004"><ele>141.0</ele><time>2026-04-06T04:46:24.572Z</time></trkpt><trkpt lat="45.7761972" lon="11.7134869"><ele>141.5</ele><time>2026-04-06T04:46:25.571Z</time></trkpt><trkpt lat="45.7763023" lon="11.7134999"><ele>142.0</ele><time>2026-04-06T04:46:26.576Z</time></trkpt><trkpt lat="45.7764265" lon="11.713478"><ele>142.0</ele><time>2026-04-06T04:46:27.575Z</time></trkpt><trkpt lat="45.776548" lon="11.7134884"><ele>142.0</ele><time>2026-04-06T04:46:28.596Z</time></trkpt><trkpt lat="45.7766458" lon="11.7133945"><ele>142.0</ele><time>2026-04-06T04:46:29.58Z</time></trkpt><trkpt lat="45.7767159" lon="11.713295"><ele>142.0</ele><time>2026-04-06T04:46:30.571Z</time></trkpt><trkpt lat="45.7768017" lon="11.7131888"><ele>145.33333333333334</ele><time>2026-04-06T04:46:31.57Z</time></trkpt><trkpt lat="45.7768806" lon="11.7130181"><ele>148.66666666666666</ele><time>2026-04-06T04:46:32.563Z</time></trkpt><trkpt lat="45.776958" lon="11.7128382"><ele>152.0</ele><time>2026-04-06T04:46:33.572Z</time></trkpt><trkpt lat="45.7770621" lon="11.7126607"><ele>152.0</ele><time>2026-04-06T04:46:34.567Z</time></trkpt><trkpt lat="45.7771762" lon="11.7125227"><ele>152.0</ele><time>2026-04-06T04:46:35.576Z</time></trkpt><trkpt lat="45.7773005" lon="11.7124109"><ele>152.0</ele><time>2026-04-06T04:46:36.573Z</time></trkpt><trkpt lat="45.7773927" lon="11.7123499"><ele>152.0</ele><time>2026-04-06T04:46:37.577Z</time></trkpt><trkpt lat="45.7775076" lon="11.7122427"><ele>152.0</ele><time>2026-04-06T04:46:38.572Z</time></trkpt><trkpt lat="45.7776281" lon="11.712101"><ele>152.0</ele><time>2026-04-06T04:46:39.576Z</time></trkpt><trkpt lat="45.7777232" lon="11.7119281"><ele>152.0</ele><time>2026-04-06T04:46:40.583Z</time></trkpt><trkpt lat="45.7778094" lon="11.7117319"><ele>150.33333333333331</ele><time>2026-04-06T04:46:41.577Z</time></trkpt><trkpt lat="45.7778292" lon="11.7114794"><ele>148.66666666666666</ele><time>2026-04-06T04:46:42.576Z</time></trkpt><trkpt lat="45.777888" lon="11.7112541"><ele>147.0</ele><time>2026-04-06T04:46:43.578Z</time></trkpt><trkpt lat="45.7779066" lon="11.7110062"><ele>146.33333333333334</ele><time>2026-04-06T04:46:44.576Z</time></trkpt><trkpt lat="45.7779679" lon="11.7107751"><ele>145.66666666666669</ele><time>2026-04-06T04:46:45.574Z</time></trkpt><trkpt lat="45.7779949" lon="11.7105335"><ele>145.0</ele><time>2026-04-06T04:46:46.577Z</time></trkpt><trkpt lat="45.7780109" lon="11.7103202"><ele>145.66666666666669</ele><time>2026-04-06T04:46:47.563Z</time></trkpt><trkpt lat="45.778002" lon="11.7100816"><ele>146.33333333333334</ele><time>2026-04-06T04:46:48.548Z</time></trkpt><trkpt lat="45.777941" lon="11.7098001"><ele>147.0</ele><time>2026-04-06T04:46:49.563Z</time></trkpt><trkpt lat="45.7778385" lon="11.7094856"><ele>149.5</ele><time>2026-04-06T04:46:50.57Z</time></trkpt><trkpt lat="45.7777259" lon="11.7091724"><ele>152.0</ele><time>2026-04-06T04:46:51.571Z</time></trkpt><trkpt lat="45.7776581" lon="11.7088719"><ele>156.66666666666666</ele><time>2026-04-06T04:46:52.573Z</time></trkpt><trkpt lat="45.7776188" lon="11.7086201"><ele>161.33333333333334</ele><time>2026-04-06T04:46:53.572Z</time></trkpt><trkpt lat="45.7776077" lon="11.7083511"><ele>166.0</ele><time>2026-04-06T04:46:54.573Z</time></trkpt><trkpt lat="45.7776123" lon="11.7081005"><ele>166.0</ele><time>2026-04-06T04:46:55.578Z</time></trkpt><trkpt lat="45.7775924" lon="11.7078211"><ele>166.0</ele><time>2026-04-06T04:46:56.58Z</time></trkpt><trkpt lat="45.7776019" lon="11.7075612"><ele>166.0</ele><time>2026-04-06T04:46:57.58Z</time></trkpt><trkpt lat="45.7776751" lon="11.7073137"><ele>163.0</ele><time>2026-04-06T04:46:58.588Z</time></trkpt><trkpt lat="45.7777001" lon="11.7070366"><ele>160.0</ele><time>2026-04-06T04:46:59.579Z</time></trkpt><trkpt lat="45.7777805" lon="11.7067589"><ele>157.0</ele><time>2026-04-06T04:47:00.581Z</time></trkpt><trkpt lat="45.7779056" lon="11.7064814"><ele>157.0</ele><time>2026-04-06T04:47:01.582Z</time></trkpt><trkpt lat="45.7780416" lon="11.7062317"><ele>157.0</ele><time>2026-04-06T04:47:02.581Z</time></trkpt><trkpt lat="45.7781847" lon="11.7059646"><ele>157.33333333333334</ele><time>2026-04-06T04:47:03.585Z</time></trkpt><trkpt lat="45.7782549" lon="11.7056755"><ele>157.66666666666666</ele><time>2026-04-06T04:47:04.584Z</time></trkpt><trkpt lat="45.7783509" lon="11.7054496"><ele>158.0</ele><time>2026-04-06T04:47:05.572Z</time></trkpt><trkpt lat="45.7784167" lon="11.705212"><ele>159.0</ele><time>2026-04-06T04:47:06.578Z</time></trkpt><trkpt lat="45.7784735" lon="11.7049366"><ele>160.0</ele><time>2026-04-06T04:47:07.572Z</time></trkpt><trkpt lat="45.7784522" lon="11.7047304"><ele>161.0</ele><time>2026-04-06T04:47:08.567Z</time></trkpt><trkpt lat="45.7784201" lon="11.7045455"><ele>162.0</ele><time>2026-04-06T04:47:09.563Z</time></trkpt><trkpt lat="45.7784112" lon="11.7043723"><ele>163.0</ele><time>2026-04-06T04:47:10.568Z</time></trkpt><trkpt lat="45.778428" lon="11.7042094"><ele>164.0</ele><time>2026-04-06T04:47:11.58Z</time></trkpt><trkpt lat="45.7784926" lon="11.7040579"><ele>165.0</ele><time>2026-04-06T04:47:12.575Z</time></trkpt><trkpt lat="45.7786007" lon="11.7039099"><ele>171.33333333333334</ele><time>2026-04-06T04:47:13.574Z</time></trkpt><trkpt lat="45.7787303" lon="11.7037784"><ele>177.66666666666669</ele><time>2026-04-06T04:47:14.573Z</time></trkpt><trkpt lat="45.7788777" lon="11.7036408"><ele>184.0</ele><time>2026-04-06T04:47:15.577Z</time></trkpt><trkpt lat="45.779004" lon="11.7034841"><ele>184.0</ele><time>2026-04-06T04:47:16.573Z</time></trkpt><trkpt lat="45.7791238" lon="11.7033331"><ele>184.0</ele><time>2026-04-06T04:47:17.575Z</time></trkpt><trkpt lat="45.7792664" lon="11.7032599"><ele>184.0</ele><time>2026-04-06T04:47:18.573Z</time></trkpt><trkpt lat="45.7794429" lon="11.7032001"><ele>188.0</ele><time>2026-04-06T04:47:19.576Z</time></trkpt><trkpt lat="45.7796037" lon="11.703144"><ele>192.0</ele><time>2026-04-06T04:47:20.569Z</time></trkpt><trkpt lat="45.779779" lon="11.7030908"><ele>196.0</ele><time>2026-04-06T04:47:21.578Z</time></trkpt><trkpt lat="45.7799515" lon="11.7030385"><ele>196.0</ele><time>2026-04-06T04:47:22.556Z</time></trkpt><trkpt lat="45.7801264" lon="11.7030084"><ele>196.0</ele><time>2026-04-06T04:47:23.573Z</time></trkpt><trkpt lat="45.780304" lon="11.7029862"><ele>196.0</ele><time>2026-04-06T04:47:24.579Z</time></trkpt><trkpt lat="45.7804874" lon="11.7029792"><ele>201.0</ele><time>2026-04-06T04:47:25.578Z</time></trkpt><trkpt lat="45.7806746" lon="11.7029676"><ele>206.0</ele><time>2026-04-06T04:47:26.575Z</time></trkpt><trkpt lat="45.7808511" lon="11.7029353"><ele>211.0</ele><time>2026-04-06T04:47:27.579Z</time></trkpt><trkpt lat="45.7810348" lon="11.7028545"><ele>212.33333333333331</ele><time>2026-04-06T04:47:28.581Z</time></trkpt><trkpt lat="45.7812124" lon="11.7027819"><ele>213.66666666666669</ele><time>2026-04-06T04:47:29.575Z</time></trkpt><trkpt lat="45.7813888" lon="11.7026924"><ele>215.0</ele><time>2026-04-06T04:47:30.573Z</time></trkpt><trkpt lat="45.7815433" lon="11.702606"><ele>215.0</ele><time>2026-04-06T04:47:31.574Z</time></trkpt><trkpt lat="45.7816969" lon="11.7025145"><ele>215.0</ele><time>2026-04-06T04:47:32.556Z</time></trkpt><trkpt lat="45.7818536" lon="11.7024637"><ele>215.0</ele><time>2026-04-06T04:47:33.563Z</time></trkpt><trkpt lat="45.7820169" lon="11.7023879"><ele>218.0</ele><time>2026-04-06T04:47:34.571Z</time></trkpt><trkpt lat="45.7821806" lon="11.702393"><ele>221.0</ele><time>2026-04-06T04:47:35.574Z</time></trkpt><trkpt lat="45.7823332" lon="11.702373"><ele>224.0</ele><time>2026-04-06T04:47:36.552Z</time></trkpt><trkpt lat="45.7824931" lon="11.7023824"><ele>224.0</ele><time>2026-04-06T04:47:37.55Z</time></trkpt><trkpt lat="45.7825909" lon="11.7024553"><ele>223.99999999999997</ele><time>2026-04-06T04:47:38.544Z</time></trkpt><trkpt lat="45.78264" lon="11.7025444"><ele>223.99999999999997</ele><time>2026-04-06T04:47:39.562Z</time></trkpt><trkpt lat="45.7826869" lon="11.7026775"><ele>224.0</ele><time>2026-04-06T04:47:40.553Z</time></trkpt><trkpt lat="45.7827404" lon="11.7028051"><ele>224.0</ele><time>2026-04-06T04:47:41.567Z</time></trkpt><trkpt lat="45.7828123" lon="11.7028953"><ele>230.75</ele><time>2026-04-06T04:47:42.572Z</time></trkpt><trkpt lat="45.7829156" lon="11.7030151"><ele>237.5</ele><time>2026-04-06T04:47:43.574Z</time></trkpt><trkpt lat="45.7830305" lon="11.7031268"><ele>244.25</ele><time>2026-04-06T04:47:44.573Z</time></trkpt><trkpt lat="45.783111" lon="11.7032191"><ele>251.0</ele><time>2026-04-06T04:47:45.574Z</time></trkpt><trkpt lat="45.7831992" lon="11.703321"><ele>251.0</ele><time>2026-04-06T04:47:46.572Z</time></trkpt><trkpt lat="45.7832865" lon="11.7034153"><ele>251.00000000000003</ele><time>2026-04-06T04:47:47.568Z</time></trkpt><trkpt lat="45.7833754" lon="11.7034825"><ele>251.00000000000003</ele><time>2026-04-06T04:47:48.571Z</time></trkpt><trkpt lat="45.7834656" lon="11.7035699"><ele>251.0</ele><time>2026-04-06T04:47:49.578Z</time></trkpt><trkpt lat="45.7835411" lon="11.7036604"><ele>251.0</ele><time>2026-04-06T04:47:50.565Z</time></trkpt><trkpt lat="45.7836099" lon="11.7037251"><ele>260.5</ele><time>2026-04-06T04:47:52.544Z</time></trkpt><trkpt lat="45.7837042" lon="11.7036833"><ele>270.0</ele><time>2026-04-06T04:47:54.547Z</time></trkpt><trkpt lat="45.7837723" lon="11.7036542"><ele>279.5</ele><time>2026-04-06T04:47:55.545Z</time></trkpt><trkpt lat="45.7837748" lon="11.7035272"><ele>289.0</ele><time>2026-04-06T04:47:56.585Z</time></trkpt><trkpt lat="45.7837418" lon="11.7032279"><ele>289.3333333333333</ele><time>2026-04-06T04:47:57.567Z</time></trkpt><trkpt lat="45.7836856" lon="11.7029442"><ele>289.6666666666667</ele><time>2026-04-06T04:47:58.58Z</time></trkpt><trkpt lat="45.7835826" lon="11.702633"><ele>290.0</ele><time>2026-04-06T04:47:59.578Z</time></trkpt><trkpt lat="45.7834774" lon="11.7022952"><ele>267.5</ele><time>2026-04-06T04:48:00.614Z</time></trkpt><trkpt lat="45.7833419" lon="11.7019525"><ele>245.0</ele><time>2026-04-06T04:48:01.575Z</time></trkpt><trkpt lat="45.7832412" lon="11.7016553"><ele>245.0</ele><time>2026-04-06T04:48:02.603Z</time></trkpt><trkpt lat="45.7831144" lon="11.701231"><ele>245.0</ele><time>2026-04-06T04:48:03.567Z</time></trkpt><trkpt lat="45.7830017" lon="11.7008752"><ele>252.5</ele><time>2026-04-06T04:48:04.582Z</time></trkpt><trkpt lat="45.782884" lon="11.7005603"><ele>260.0</ele><time>2026-04-06T04:48:05.574Z</time></trkpt><trkpt lat="45.7827978" lon="11.7002827"><ele>266.0</ele><time>2026-04-06T04:48:06.596Z</time></trkpt><trkpt lat="45.7826961" lon="11.7000188"><ele>272.0</ele><time>2026-04-06T04:48:07.571Z</time></trkpt><trkpt lat="45.782503" lon="11.6998115"><ele>264.0</ele><time>2026-04-06T04:48:08.574Z</time></trkpt><trkpt lat="45.7824378" lon="11.6996598"><ele>256.0</ele><time>2026-04-06T04:48:09.577Z</time></trkpt><trkpt lat="45.7823161" lon="11.6996043"><ele>248.0</ele><time>2026-04-06T04:48:10.578Z</time></trkpt><trkpt lat="45.7821885" lon="11.6995546"><ele>240.0</ele><time>2026-04-06T04:48:11.572Z</time></trkpt><trkpt lat="45.7820727" lon="11.6994513"><ele>243.75</ele><time>2026-04-06T04:48:12.567Z</time></trkpt><trkpt lat="45.7819638" lon="11.699353"><ele>247.5</ele><time>2026-04-06T04:48:13.575Z</time></trkpt><trkpt lat="45.7818697" lon="11.6992217"><ele>251.25</ele><time>2026-04-06T04:48:14.581Z</time></trkpt><trkpt lat="45.781939" lon="11.6990848"><ele>255.0</ele><time>2026-04-06T04:48:16.581Z</time></trkpt><trkpt lat="45.7820445" lon="11.6990001"><ele>255.0</ele><time>2026-04-06T04:48:17.575Z</time></trkpt><trkpt lat="45.7821463" lon="11.6988997"><ele>255.0</ele><time>2026-04-06T04:48:18.603Z</time></trkpt><trkpt lat="45.7822438" lon="11.6987854"><ele>255.0</ele><time>2026-04-06T04:48:19.574Z</time></trkpt><trkpt lat="45.7823294" lon="11.698659"><ele>255.0</ele><time>2026-04-06T04:48:20.587Z</time></trkpt><trkpt lat="45.7824447" lon="11.6985801"><ele>253.5</ele><time>2026-04-06T04:48:21.605Z</time></trkpt><trkpt lat="45.7825306" lon="11.6984871"><ele>252.0</ele><time>2026-04-06T04:48:22.612Z</time></trkpt><trkpt lat="45.7826615" lon="11.698417"><ele>250.5</ele><time>2026-04-06T04:48:23.604Z</time></trkpt><trkpt lat="45.7827874" lon="11.6983507"><ele>249.0</ele><time>2026-04-06T04:48:24.585Z</time></trkpt><trkpt lat="45.7829091" lon="11.6982751"><ele>258.0</ele><time>2026-04-06T04:48:25.577Z</time></trkpt><trkpt lat="45.7830152" lon="11.698193"><ele>267.0</ele><time>2026-04-06T04:48:26.581Z</time></trkpt><trkpt lat="45.7830957" lon="11.6980832"><ele>276.0</ele><time>2026-04-06T04:48:27.598Z</time></trkpt><trkpt lat="45.7831769" lon="11.6979806"><ele>285.0</ele><time>2026-04-06T04:48:28.577Z</time></trkpt><trkpt lat="45.7832698" lon="11.6978858"><ele>285.0</ele><time>2026-04-06T04:48:29.563Z</time></trkpt><trkpt lat="45.783366" lon="11.6977552"><ele>285.0</ele><time>2026-04-06T04:48:30.573Z</time></trkpt><trkpt lat="45.7834146" lon="11.6976019"><ele>285.0</ele><time>2026-04-06T04:48:31.594Z</time></trkpt><trkpt lat="45.7834108" lon="11.6973636"><ele>285.0</ele><time>2026-04-06T04:48:32.581Z</time></trkpt><trkpt lat="45.7833927" lon="11.6971518"><ele>283.75</ele><time>2026-04-06T04:48:33.581Z</time></trkpt><trkpt lat="45.7834463" lon="11.6969963"><ele>282.5</ele><time>2026-04-06T04:48:34.581Z</time></trkpt><trkpt lat="45.7835065" lon="11.696837"><ele>281.25</ele><time>2026-04-06T04:48:35.57Z</time></trkpt><trkpt lat="45.7835589" lon="11.6966785"><ele>280.0</ele><time>2026-04-06T04:48:36.555Z</time></trkpt><trkpt lat="45.7836199" lon="11.6965219"><ele>286.25</ele><time>2026-04-06T04:48:37.55Z</time></trkpt><trkpt lat="45.7836779" lon="11.6963635"><ele>292.5</ele><time>2026-04-06T04:48:38.565Z</time></trkpt><trkpt lat="45.7837157" lon="11.6961908"><ele>298.75</ele><time>2026-04-06T04:48:39.57Z</time></trkpt><trkpt lat="45.7837378" lon="11.696013"><ele>305.0</ele><time>2026-04-06T04:48:40.597Z</time></trkpt><trkpt lat="45.7837697" lon="11.695841"><ele>305.0</ele><time>2026-04-06T04:48:41.571Z</time></trkpt><trkpt lat="45.7838008" lon="11.6956854"><ele>305.0</ele><time>2026-04-06T04:48:42.579Z</time></trkpt><trkpt lat="45.7838232" lon="11.6955417"><ele>305.0</ele><time>2026-04-06T04:48:43.572Z</time></trkpt><trkpt lat="45.7838541" lon="11.6954268"><ele>305.0</ele><time>2026-04-06T04:48:44.582Z</time></trkpt><trkpt lat="45.783894" lon="11.6953431"><ele>305.0</ele><time>2026-04-06T04:48:45.573Z</time></trkpt><trkpt lat="45.7838042" lon="11.6953086"><ele>305.0</ele><time>2026-04-06T04:48:51.577Z</time></trkpt><trkpt lat="45.7837596" lon="11.6953768"><ele>305.0</ele><time>2026-04-06T04:48:52.571Z</time></trkpt><trkpt lat="45.7837043" lon="11.6954673"><ele>305.0</ele><time>2026-04-06T04:48:53.572Z</time></trkpt><trkpt lat="45.7836375" lon="11.6955928"><ele>305.0</ele><time>2026-04-06T04:48:54.598Z</time></trkpt><trkpt lat="45.7835718" lon="11.6957409"><ele>305.0</ele><time>2026-04-06T04:48:55.613Z</time></trkpt><trkpt lat="45.7835028" lon="11.6959148"><ele>292.0</ele><time>2026-04-06T04:48:56.599Z</time></trkpt><trkpt lat="45.7834071" lon="11.6960826"><ele>279.0</ele><time>2026-04-06T04:48:57.571Z</time></trkpt><trkpt lat="45.7833218" lon="11.6963323"><ele>266.0</ele><time>2026-04-06T04:48:58.571Z</time></trkpt><trkpt lat="45.7832609" lon="11.6965343"><ele>266.0</ele><time>2026-04-06T04:48:59.559Z</time></trkpt><trkpt lat="45.7831727" lon="11.6967272"><ele>266.0</ele><time>2026-04-06T04:49:00.564Z</time></trkpt><trkpt lat="45.783079" lon="11.6969184"><ele>266.0</ele><time>2026-04-06T04:49:01.575Z</time></trkpt><trkpt lat="45.7829754" lon="11.697151"><ele>270.6666666666667</ele><time>2026-04-06T04:49:02.574Z</time></trkpt><trkpt lat="45.7828583" lon="11.6973414"><ele>275.3333333333333</ele><time>2026-04-06T04:49:03.593Z</time></trkpt><trkpt lat="45.7827656" lon="11.6975088"><ele>280.0</ele><time>2026-04-06T04:49:04.572Z</time></trkpt><trkpt lat="45.782703" lon="11.6976833"><ele>273.8</ele><time>2026-04-06T04:49:05.576Z</time></trkpt><trkpt lat="45.7826545" lon="11.6978619"><ele>267.6</ele><time>2026-04-06T04:49:06.573Z</time></trkpt><trkpt lat="45.7826732" lon="11.6979989"><ele>261.4</ele><time>2026-04-06T04:49:07.574Z</time></trkpt><trkpt lat="45.7826638" lon="11.6981014"><ele>255.2</ele><time>2026-04-06T04:49:08.572Z</time></trkpt><trkpt lat="45.782664" lon="11.6982165"><ele>249.0</ele><time>2026-04-06T04:49:09.558Z</time></trkpt><trkpt lat="45.7826717" lon="11.6983124"><ele>254.14285714285714</ele><time>2026-04-06T04:49:10.569Z</time></trkpt><trkpt lat="45.7827411" lon="11.6982945"><ele>259.2857142857143</ele><time>2026-04-06T04:50:42.586Z</time></trkpt><trkpt lat="45.7828066" lon="11.6983201"><ele>264.42857142857144</ele><time>2026-04-06T04:51:04.58Z</time></trkpt><trkpt lat="45.7828778" lon="11.6984026"><ele>269.57142857142856</ele><time>2026-04-06T04:51:28.572Z</time></trkpt><trkpt lat="45.7829255" lon="11.6983406"><ele>274.7142857142857</ele><time>2026-04-06T04:53:12.586Z</time></trkpt><trkpt lat="45.7829358" lon="11.6982437"><ele>279.85714285714283</ele><time>2026-04-06T04:53:53.584Z</time></trkpt><trkpt lat="45.7829237" lon="11.6981319"><ele>285.0</ele><time>2026-04-06T04:53:55.586Z</time></trkpt><trkpt lat="45.7828813" lon="11.6980377"><ele>285.0</ele><time>2026-04-06T04:53:56.58Z</time></trkpt><trkpt lat="45.7828779" lon="11.6979353"><ele>285.0</ele><time>2026-04-06T04:53:57.571Z</time></trkpt><trkpt lat="45.782875" lon="11.6978322"><ele>285.0</ele><time>2026-04-06T04:53:58.586Z</time></trkpt><trkpt lat="45.7828392" lon="11.6977528"><ele>285.0</ele><time>2026-04-06T04:53:59.587Z</time></trkpt><trkpt lat="45.7828298" lon="11.6976474"><ele>285.0</ele><time>2026-04-06T04:54:00.583Z</time></trkpt><trkpt lat="45.7828233" lon="11.6974765"><ele>285.0</ele><time>2026-04-06T04:54:02.588Z</time></trkpt><trkpt lat="45.7828234" lon="11.6973157"><ele>284.0</ele><time>2026-04-06T04:54:04.586Z</time></trkpt><trkpt lat="45.7828287" lon="11.6971424"><ele>283.0</ele><time>2026-04-06T04:54:06.604Z</time></trkpt><trkpt lat="45.7828565" lon="11.6970489"><ele>282.0</ele><time>2026-04-06T04:54:07.615Z</time></trkpt><trkpt lat="45.7829046" lon="11.6969011"><ele>281.0</ele><time>2026-04-06T04:54:09.588Z</time></trkpt><trkpt lat="45.7829537" lon="11.6967735"><ele>280.0</ele><time>2026-04-06T04:54:11.576Z</time></trkpt><trkpt lat="45.7830012" lon="11.6966165"><ele>277.2</ele><time>2026-04-06T04:54:13.587Z</time></trkpt><trkpt lat="45.783034" lon="11.6964701"><ele>274.4</ele><time>2026-04-06T04:54:15.578Z</time></trkpt><trkpt lat="45.7830352" lon="11.6963045"><ele>271.6</ele><time>2026-04-06T04:54:17.574Z</time></trkpt><trkpt lat="45.7830447" lon="11.6961452"><ele>268.8</ele><time>2026-04-06T04:54:19.57Z</time></trkpt><trkpt lat="45.7830643" lon="11.6960587"><ele>266.0</ele><time>2026-04-06T04:54:20.666Z</time></trkpt><trkpt lat="45.783097" lon="11.6959274"><ele>262.8</ele><time>2026-04-06T04:54:22.743Z</time></trkpt><trkpt lat="45.7831143" lon="11.6957937"><ele>259.6</ele><time>2026-04-06T04:54:24.747Z</time></trkpt><trkpt lat="45.7831646" lon="11.6956569"><ele>256.4</ele><time>2026-04-06T04:54:26.614Z</time></trkpt><trkpt lat="45.7832224" lon="11.6955108"><ele>253.2</ele><time>2026-04-06T04:54:28.576Z</time></trkpt><trkpt lat="45.7832704" lon="11.6953804"><ele>250.0</ele><time>2026-04-06T04:54:30.732Z</time></trkpt><trkpt lat="45.7833207" lon="11.6952394"><ele>247.0</ele><time>2026-04-06T04:54:32.577Z</time></trkpt><trkpt lat="45.7834063" lon="11.6951584"><ele>244.0</ele><time>2026-04-06T04:54:34.575Z</time></trkpt><trkpt lat="45.7835032" lon="11.6950031"><ele>241.0</ele><time>2026-04-06T04:54:37.742Z</time></trkpt><trkpt lat="45.7835622" lon="11.6949206"><ele>238.0</ele><time>2026-04-06T04:54:39.574Z</time></trkpt><trkpt lat="45.7835944" lon="11.6948075"><ele>235.0</ele><time>2026-04-06T04:54:41.57Z</time></trkpt><trkpt lat="45.7836234" lon="11.6946598"><ele>237.6</ele><time>2026-04-06T04:54:43.566Z</time></trkpt><trkpt lat="45.7836251" lon="11.6944998"><ele>240.2</ele><time>2026-04-06T04:54:45.579Z</time></trkpt><trkpt lat="45.7836922" lon="11.6943311"><ele>242.8</ele><time>2026-04-06T04:54:48.579Z</time></trkpt><trkpt lat="45.7837264" lon="11.6942391"><ele>245.4</ele><time>2026-04-06T04:54:50.734Z</time></trkpt><trkpt lat="45.783796" lon="11.6941094"><ele>248.0</ele><time>2026-04-06T04:54:53.575Z</time></trkpt><trkpt lat="45.7838426" lon="11.6939969"><ele>248.0</ele><time>2026-04-06T04:54:55.569Z</time></trkpt><trkpt lat="45.7838771" lon="11.6938855"><ele>248.0</ele><time>2026-04-06T04:54:57.573Z</time></trkpt><trkpt lat="45.7839799" lon="11.6937554"><ele>248.0</ele><time>2026-04-06T04:55:00.74Z</time></trkpt><trkpt lat="45.7840557" lon="11.69365"><ele>248.0</ele><time>2026-04-06T04:55:02.739Z</time></trkpt><trkpt lat="45.784107" lon="11.6935891"><ele>248.0</ele><time>2026-04-06T04:55:03.735Z</time></trkpt><trkpt lat="45.7841985" lon="11.693475"><ele>248.4</ele><time>2026-04-06T04:55:05.732Z</time></trkpt><trkpt lat="45.7842867" lon="11.6933529"><ele>248.8</ele><time>2026-04-06T04:55:07.724Z</time></trkpt><trkpt lat="45.784364" lon="11.6932552"><ele>249.2</ele><time>2026-04-06T04:55:09.73Z</time></trkpt><trkpt lat="45.7844286" lon="11.6931746"><ele>249.6</ele><time>2026-04-06T04:55:11.74Z</time></trkpt><trkpt lat="45.7844878" lon="11.6931409"><ele>250.0</ele><time>2026-04-06T04:55:13.894Z</time></trkpt><trkpt lat="45.7845736" lon="11.6931647"><ele>249.99999999999997</ele><time>2026-04-06T04:55:15.575Z</time></trkpt><trkpt lat="45.7846359" lon="11.6931867"><ele>250.0</ele><time>2026-04-06T04:55:16.573Z</time></trkpt><trkpt lat="45.7847114" lon="11.6932108"><ele>250.0</ele><time>2026-04-06T04:55:17.578Z</time></trkpt><trkpt lat="45.7848219" lon="11.6932511"><ele>250.0</ele><time>2026-04-06T04:55:19.733Z</time></trkpt><trkpt lat="45.784913" lon="11.6932117"><ele>249.99999999999997</ele><time>2026-04-06T04:55:21.732Z</time></trkpt><trkpt lat="45.784975" lon="11.6931232"><ele>250.0</ele><time>2026-04-06T04:55:23.739Z</time></trkpt><trkpt lat="45.7850329" lon="11.6930245"><ele>250.0</ele><time>2026-04-06T04:55:25.577Z</time></trkpt><trkpt lat="45.7850933" lon="11.6929117"><ele>250.0</ele><time>2026-04-06T04:55:27.597Z</time></trkpt><trkpt lat="45.7851624" lon="11.6928029"><ele>250.0</ele><time>2026-04-06T04:55:29.654Z</time></trkpt><trkpt lat="45.7852133" lon="11.6926984"><ele>250.0</ele><time>2026-04-06T04:55:31.733Z</time></trkpt><trkpt lat="45.7852703" lon="11.6925379"><ele>250.0</ele><time>2026-04-06T04:55:34.578Z</time></trkpt><trkpt lat="45.7854041" lon="11.6925482"><ele>247.4</ele><time>2026-04-06T04:55:36.586Z</time></trkpt><trkpt lat="45.7855429" lon="11.6926287"><ele>244.8</ele><time>2026-04-06T04:55:37.589Z</time></trkpt><trkpt lat="45.7856368" lon="11.6926475"><ele>242.2</ele><time>2026-04-06T04:55:38.608Z</time></trkpt><trkpt lat="45.7857022" lon="11.692621"><ele>239.6</ele><time>2026-04-06T04:55:39.604Z</time></trkpt><trkpt lat="45.7857658" lon="11.6925844"><ele>237.0</ele><time>2026-04-06T04:55:40.604Z</time></trkpt><trkpt lat="45.7858677" lon="11.6924928"><ele>237.0</ele><time>2026-04-06T04:55:42.582Z</time></trkpt><trkpt lat="45.7859527" lon="11.6924475"><ele>237.0</ele><time>2026-04-06T04:55:44.596Z</time></trkpt><trkpt lat="45.786035" lon="11.6924495"><ele>237.0</ele><time>2026-04-06T04:55:47.58Z</time></trkpt><trkpt lat="45.7861013" lon="11.692484"><ele>237.0</ele><time>2026-04-06T04:55:50.582Z</time></trkpt><trkpt lat="45.7862351" lon="11.6925248"><ele>237.0</ele><time>2026-04-06T04:55:53.605Z</time></trkpt><trkpt lat="45.7863521" lon="11.6925074"><ele>238.2</ele><time>2026-04-06T04:55:56.579Z</time></trkpt><trkpt lat="45.7864047" lon="11.6923763"><ele>239.39999999999998</ele><time>2026-04-06T04:55:58.589Z</time></trkpt><trkpt lat="45.7864751" lon="11.6923005"><ele>240.60000000000002</ele><time>2026-04-06T04:55:59.596Z</time></trkpt><trkpt lat="45.7865775" lon="11.6922503"><ele>241.8</ele><time>2026-04-06T04:56:00.585Z</time></trkpt><trkpt lat="45.7866867" lon="11.69217"><ele>243.0</ele><time>2026-04-06T04:56:01.583Z</time></trkpt><trkpt lat="45.7867839" lon="11.6920741"><ele>244.16666666666666</ele><time>2026-04-06T04:56:02.593Z</time></trkpt><trkpt lat="45.7868681" lon="11.6919817"><ele>245.33333333333331</ele><time>2026-04-06T04:56:03.581Z</time></trkpt><trkpt lat="45.7869421" lon="11.6918864"><ele>246.5</ele><time>2026-04-06T04:56:04.582Z</time></trkpt><trkpt lat="45.787006" lon="11.6918036"><ele>247.66666666666666</ele><time>2026-04-06T04:56:05.582Z</time></trkpt><trkpt lat="45.7870698" lon="11.6917308"><ele>248.83333333333331</ele><time>2026-04-06T04:56:06.582Z</time></trkpt><trkpt lat="45.787121" lon="11.6916753"><ele>250.0</ele><time>2026-04-06T04:56:07.574Z</time></trkpt><trkpt lat="45.7871671" lon="11.6915297"><ele>250.49999999999997</ele><time>2026-04-06T04:56:09.578Z</time></trkpt><trkpt lat="45.7871491" lon="11.6914219"><ele>251.0</ele><time>2026-04-06T04:56:10.586Z</time></trkpt><trkpt lat="45.787128" lon="11.6913082"><ele>251.5</ele><time>2026-04-06T04:56:11.583Z</time></trkpt><trkpt lat="45.7870485" lon="11.6912032"><ele>252.0</ele><time>2026-04-06T04:56:12.584Z</time></trkpt><trkpt lat="45.7870062" lon="11.6911199"><ele>252.49999999999997</ele><time>2026-04-06T04:56:13.586Z</time></trkpt><trkpt lat="45.786951" lon="11.6910387"><ele>253.0</ele><time>2026-04-06T04:56:14.585Z</time></trkpt><trkpt lat="45.7868978" lon="11.6909544"><ele>252.83333333333331</ele><time>2026-04-06T04:56:15.582Z</time></trkpt><trkpt lat="45.7868551" lon="11.6908812"><ele>252.66666666666666</ele><time>2026-04-06T04:56:16.59Z</time></trkpt><trkpt lat="45.7868061" lon="11.6908015"><ele>252.5</ele><time>2026-04-06T04:56:17.584Z</time></trkpt><trkpt lat="45.7867455" lon="11.6907192"><ele>252.33333333333331</ele><time>2026-04-06T04:56:18.586Z</time></trkpt><trkpt lat="45.7866984" lon="11.69064"><ele>252.16666666666666</ele><time>2026-04-06T04:56:19.587Z</time></trkpt><trkpt lat="45.7866372" lon="11.690541"><ele>252.0</ele><time>2026-04-06T04:56:20.581Z</time></trkpt><trkpt lat="45.7865955" lon="11.6904465"><ele>252.0</ele><time>2026-04-06T04:56:21.577Z</time></trkpt><trkpt lat="45.7865427" lon="11.6903469"><ele>252.0</ele><time>2026-04-06T04:56:22.58Z</time></trkpt><trkpt lat="45.7864926" lon="11.690252"><ele>252.0</ele><time>2026-04-06T04:56:23.562Z</time></trkpt><trkpt lat="45.7864178" lon="11.6901482"><ele>252.0</ele><time>2026-04-06T04:56:24.549Z</time></trkpt><trkpt lat="45.7863427" lon="11.6900585"><ele>252.0</ele><time>2026-04-06T04:56:25.573Z</time></trkpt><trkpt lat="45.786256" lon="11.6899682"><ele>254.0</ele><time>2026-04-06T04:56:26.587Z</time></trkpt><trkpt lat="45.7861997" lon="11.6898925"><ele>256.0</ele><time>2026-04-06T04:56:27.583Z</time></trkpt><trkpt lat="45.7861482" lon="11.689815"><ele>258.0</ele><time>2026-04-06T04:56:28.586Z</time></trkpt><trkpt lat="45.7860932" lon="11.6897375"><ele>260.0</ele><time>2026-04-06T04:56:29.585Z</time></trkpt><trkpt lat="45.7860505" lon="11.6896549"><ele>262.0</ele><time>2026-04-06T04:56:30.585Z</time></trkpt><trkpt lat="45.7859758" lon="11.6895381"><ele>264.0</ele><time>2026-04-06T04:56:32.582Z</time></trkpt><trkpt lat="45.7860096" lon="11.6896144"><ele>265.59999999999997</ele><time>2026-04-06T04:57:05.578Z</time></trkpt><trkpt lat="45.7860944" lon="11.6897289"><ele>267.2</ele><time>2026-04-06T04:57:07.567Z</time></trkpt><trkpt lat="45.7861839" lon="11.689815"><ele>268.79999999999995</ele><time>2026-04-06T04:57:09.557Z</time></trkpt><trkpt lat="45.786293" lon="11.6898574"><ele>270.4</ele><time>2026-04-06T04:57:11.561Z</time></trkpt><trkpt lat="45.7863617" lon="11.6898969"><ele>272.0</ele><time>2026-04-06T04:57:13.572Z</time></trkpt><trkpt lat="45.786414" lon="11.6899754"><ele>272.0</ele><time>2026-04-06T04:57:15.586Z</time></trkpt><trkpt lat="45.7864773" lon="11.6900845"><ele>272.0</ele><time>2026-04-06T04:57:17.595Z</time></trkpt><trkpt lat="45.7865384" lon="11.6902182"><ele>272.0</ele><time>2026-04-06T04:57:19.578Z</time></trkpt><trkpt lat="45.7865979" lon="11.6903811"><ele>272.0</ele><time>2026-04-06T04:57:21.575Z</time></trkpt><trkpt lat="45.7866376" lon="11.6904582"><ele>272.0</ele><time>2026-04-06T04:57:22.579Z</time></trkpt><trkpt lat="45.7866795" lon="11.6905447"><ele>270.33333333333337</ele><time>2026-04-06T04:57:23.586Z</time></trkpt><trkpt lat="45.7867224" lon="11.6906278"><ele>268.6666666666667</ele><time>2026-04-06T04:57:24.579Z</time></trkpt><trkpt lat="45.7867659" lon="11.6907107"><ele>267.0</ele><time>2026-04-06T04:57:25.586Z</time></trkpt><trkpt lat="45.7868227" lon="11.6908314"><ele>265.3333333333333</ele><time>2026-04-06T04:57:27.583Z</time></trkpt><trkpt lat="45.7868685" lon="11.690965"><ele>263.66666666666663</ele><time>2026-04-06T04:57:29.593Z</time></trkpt><trkpt lat="45.7869008" lon="11.6910475"><ele>262.0</ele><time>2026-04-06T04:57:30.58Z</time></trkpt><trkpt lat="45.7869491" lon="11.6912035"><ele>260.5</ele><time>2026-04-06T04:57:32.587Z</time></trkpt><trkpt lat="45.7869799" lon="11.6912859"><ele>259.0</ele><time>2026-04-06T04:57:33.583Z</time></trkpt><trkpt lat="45.7870154" lon="11.6913882"><ele>257.5</ele><time>2026-04-06T04:57:34.583Z</time></trkpt><trkpt lat="45.7870489" lon="11.6914928"><ele>256.0</ele><time>2026-04-06T04:57:35.662Z</time></trkpt><trkpt lat="45.7870683" lon="11.6915924"><ele>254.49999999999997</ele><time>2026-04-06T04:57:36.818Z</time></trkpt><trkpt lat="45.7870661" lon="11.6917638"><ele>253.0</ele><time>2026-04-06T04:57:38.581Z</time></trkpt><trkpt lat="45.7870052" lon="11.6919209"><ele>252.49999999999997</ele><time>2026-04-06T04:57:40.585Z</time></trkpt><trkpt lat="45.7869485" lon="11.6919808"><ele>252.0</ele><time>2026-04-06T04:57:41.911Z</time></trkpt><trkpt lat="45.7868308" lon="11.692062"><ele>251.5</ele><time>2026-04-06T04:57:43.593Z</time></trkpt><trkpt lat="45.7867601" lon="11.6920942"><ele>251.0</ele><time>2026-04-06T04:57:44.597Z</time></trkpt><trkpt lat="45.7866962" lon="11.6921202"><ele>250.49999999999997</ele><time>2026-04-06T04:57:45.586Z</time></trkpt><trkpt lat="45.7866195" lon="11.6921782"><ele>250.0</ele><time>2026-04-06T04:57:46.591Z</time></trkpt><trkpt lat="45.786555" lon="11.6922365"><ele>248.83333333333331</ele><time>2026-04-06T04:57:47.579Z</time></trkpt><trkpt lat="45.7865053" lon="11.6922954"><ele>247.66666666666666</ele><time>2026-04-06T04:57:48.578Z</time></trkpt><trkpt lat="45.7864397" lon="11.692355"><ele>246.5</ele><time>2026-04-06T04:57:49.593Z</time></trkpt><trkpt lat="45.7864091" lon="11.6924343"><ele>245.33333333333331</ele><time>2026-04-06T04:57:50.575Z</time></trkpt><trkpt lat="45.7863953" lon="11.6925896"><ele>244.16666666666666</ele><time>2026-04-06T04:57:52.583Z</time></trkpt><trkpt lat="45.7864628" lon="11.69266"><ele>243.0</ele><time>2026-04-06T04:57:54.581Z</time></trkpt><trkpt lat="45.7865302" lon="11.6926706"><ele>243.0</ele><time>2026-04-06T04:57:55.581Z</time></trkpt><trkpt lat="45.7866079" lon="11.6926708"><ele>243.0</ele><time>2026-04-06T04:57:56.598Z</time></trkpt><trkpt lat="45.7867077" lon="11.6926578"><ele>243.0</ele><time>2026-04-06T04:57:57.58Z</time></trkpt><trkpt lat="45.7868059" lon="11.69263"><ele>243.0</ele><time>2026-04-06T04:57:58.583Z</time></trkpt><trkpt lat="45.786975" lon="11.6926263"><ele>243.0</ele><time>2026-04-06T04:57:59.583Z</time></trkpt><trkpt lat="45.7871217" lon="11.6926132"><ele>244.75</ele><time>2026-04-06T04:58:00.592Z</time></trkpt><trkpt lat="45.7872409" lon="11.6926024"><ele>246.5</ele><time>2026-04-06T04:58:01.58Z</time></trkpt><trkpt lat="45.7873792" lon="11.6925861"><ele>248.25</ele><time>2026-04-06T04:58:02.587Z</time></trkpt><trkpt lat="45.787516" lon="11.6925809"><ele>250.0</ele><time>2026-04-06T04:58:03.584Z</time></trkpt><trkpt lat="45.787641" lon="11.6925785"><ele>252.75</ele><time>2026-04-06T04:58:04.582Z</time></trkpt><trkpt lat="45.7877856" lon="11.6925829"><ele>255.5</ele><time>2026-04-06T04:58:05.587Z</time></trkpt><trkpt lat="45.7879448" lon="11.6925956"><ele>258.25</ele><time>2026-04-06T04:58:06.585Z</time></trkpt><trkpt lat="45.7880761" lon="11.6926028"><ele>261.0</ele><time>2026-04-06T04:58:07.58Z</time></trkpt><trkpt lat="45.7881963" lon="11.6926219"><ele>261.0</ele><time>2026-04-06T04:58:08.588Z</time></trkpt><trkpt lat="45.7883114" lon="11.6926648"><ele>261.0</ele><time>2026-04-06T04:58:09.582Z</time></trkpt><trkpt lat="45.7884392" lon="11.6927325"><ele>261.0</ele><time>2026-04-06T04:58:10.578Z</time></trkpt><trkpt lat="45.7884901" lon="11.6927878"><ele>261.0</ele><time>2026-04-06T04:58:11.742Z</time></trkpt><trkpt lat="45.7885383" lon="11.6929163"><ele>261.0</ele><time>2026-04-06T04:58:13.595Z</time></trkpt><trkpt lat="45.7885459" lon="11.6930831"><ele>265.5</ele><time>2026-04-06T04:58:15.611Z</time></trkpt><trkpt lat="45.7885816" lon="11.6932585"><ele>270.0</ele><time>2026-04-06T04:58:17.587Z</time></trkpt><trkpt lat="45.7886057" lon="11.6933998"><ele>274.5</ele><time>2026-04-06T04:58:18.602Z</time></trkpt><trkpt lat="45.7886363" lon="11.693549"><ele>279.0</ele><time>2026-04-06T04:58:19.569Z</time></trkpt><trkpt lat="45.7886594" lon="11.6937172"><ele>279.25</ele><time>2026-04-06T04:58:20.582Z</time></trkpt><trkpt lat="45.7887086" lon="11.6939139"><ele>279.5</ele><time>2026-04-06T04:58:21.592Z</time></trkpt><trkpt lat="45.7887451" lon="11.6940989"><ele>279.75</ele><time>2026-04-06T04:58:22.584Z</time></trkpt><trkpt lat="45.7887564" lon="11.694267"><ele>280.0</ele><time>2026-04-06T04:58:23.587Z</time></trkpt><trkpt lat="45.7887142" lon="11.6943953"><ele>279.8333333333333</ele><time>2026-04-06T04:58:24.59Z</time></trkpt><trkpt lat="45.7886757" lon="11.6945105"><ele>279.66666666666663</ele><time>2026-04-06T04:58:25.583Z</time></trkpt><trkpt lat="45.7886538" lon="11.6946292"><ele>279.5</ele><time>2026-04-06T04:58:26.591Z</time></trkpt><trkpt lat="45.7886446" lon="11.6947584"><ele>279.3333333333333</ele><time>2026-04-06T04:58:27.58Z</time></trkpt><trkpt lat="45.7886467" lon="11.6948536"><ele>279.1666666666667</ele><time>2026-04-06T04:58:28.587Z</time></trkpt><trkpt lat="45.7886612" lon="11.6950086"><ele>279.0</ele><time>2026-04-06T04:58:30.587Z</time></trkpt><trkpt lat="45.7886676" lon="11.6951239"><ele>279.0</ele><time>2026-04-06T04:58:32.589Z</time></trkpt><trkpt lat="45.7887072" lon="11.6952085"><ele>279.0</ele><time>2026-04-06T04:58:34.576Z</time></trkpt><trkpt lat="45.7887672" lon="11.6951421"><ele>279.0</ele><time>2026-04-06T04:58:36.601Z</time></trkpt><trkpt lat="45.7887962" lon="11.6949827"><ele>279.0</ele><time>2026-04-06T04:58:38.589Z</time></trkpt><trkpt lat="45.7888003" lon="11.6948232"><ele>279.0</ele><time>2026-04-06T04:58:39.589Z</time></trkpt><trkpt lat="45.7888044" lon="11.6946409"><ele>279.0</ele><time>2026-04-06T04:58:40.578Z</time></trkpt><trkpt lat="45.7887985" lon="11.6944552"><ele>279.0</ele><time>2026-04-06T04:58:41.601Z</time></trkpt><trkpt lat="45.7887769" lon="11.6942355"><ele>279.0</ele><time>2026-04-06T04:58:42.579Z</time></trkpt><trkpt lat="45.7887523" lon="11.6940132"><ele>279.0</ele><time>2026-04-06T04:58:43.576Z</time></trkpt><trkpt lat="45.7887315" lon="11.6937697"><ele>279.0</ele><time>2026-04-06T04:58:44.58Z</time></trkpt><trkpt lat="45.7886736" lon="11.6935885"><ele>279.0</ele><time>2026-04-06T04:58:45.582Z</time></trkpt><trkpt lat="45.7886335" lon="11.6933829"><ele>279.0</ele><time>2026-04-06T04:58:46.583Z</time></trkpt><trkpt lat="45.788638" lon="11.6931779"><ele>279.0</ele><time>2026-04-06T04:58:47.589Z</time></trkpt><trkpt lat="45.7886302" lon="11.6930022"><ele>279.0</ele><time>2026-04-06T04:58:48.582Z</time></trkpt><trkpt lat="45.7886675" lon="11.6928051"><ele>279.0</ele><time>2026-04-06T04:58:49.581Z</time></trkpt><trkpt lat="45.7886654" lon="11.6925941"><ele>279.0</ele><time>2026-04-06T04:58:50.583Z</time></trkpt><trkpt lat="45.7886812" lon="11.6924357"><ele>279.0</ele><time>2026-04-06T04:58:51.58Z</time></trkpt><trkpt lat="45.7887029" lon="11.6923427"><ele>278.2</ele><time>2026-04-06T04:58:52.589Z</time></trkpt><trkpt lat="45.7887095" lon="11.6922133"><ele>277.4</ele><time>2026-04-06T04:58:54.585Z</time></trkpt><trkpt lat="45.7886856" lon="11.6921147"><ele>276.6</ele><time>2026-04-06T04:58:56.579Z</time></trkpt><trkpt lat="45.7887318" lon="11.6920061"><ele>275.8</ele><time>2026-04-06T04:58:58.584Z</time></trkpt><trkpt lat="45.7888316" lon="11.6918715"><ele>275.0</ele><time>2026-04-06T04:59:00.579Z</time></trkpt><trkpt lat="45.7888963" lon="11.6917637"><ele>275.0</ele><time>2026-04-06T04:59:01.588Z</time></trkpt><trkpt lat="45.788988" lon="11.6916427"><ele>275.0</ele><time>2026-04-06T04:59:02.585Z</time></trkpt><trkpt lat="45.7890829" lon="11.6915298"><ele>275.0</ele><time>2026-04-06T04:59:03.579Z</time></trkpt><trkpt lat="45.7891543" lon="11.6914006"><ele>275.0</ele><time>2026-04-06T04:59:04.577Z</time></trkpt><trkpt lat="45.7892123" lon="11.6912916"><ele>275.0</ele><time>2026-04-06T04:59:05.578Z</time></trkpt><trkpt lat="45.7892569" lon="11.6911958"><ele>275.0</ele><time>2026-04-06T04:59:06.582Z</time></trkpt><trkpt lat="45.7893153" lon="11.6911465"><ele>275.0</ele><time>2026-04-06T04:59:08.597Z</time></trkpt><trkpt lat="45.7892579" lon="11.691255"><ele>275.0</ele><time>2026-04-06T04:59:32.589Z</time></trkpt><trkpt lat="45.7869471" lon="11.6900379"><ele>275.6</ele><time>2026-04-06T05:00:33.587Z</time></trkpt><trkpt lat="45.7868775" lon="11.6900116"><ele>276.2</ele><time>2026-04-06T05:00:34.588Z</time></trkpt><trkpt lat="45.7867973" lon="11.6899677"><ele>276.8</ele><time>2026-04-06T05:00:35.593Z</time></trkpt><trkpt lat="45.7867165" lon="11.6898857"><ele>277.4</ele><time>2026-04-06T05:00:36.585Z</time></trkpt><trkpt lat="45.7866377" lon="11.6897965"><ele>278.0</ele><time>2026-04-06T05:00:37.585Z</time></trkpt><trkpt lat="45.7865384" lon="11.689702"><ele>276.5</ele><time>2026-04-06T05:00:38.581Z</time></trkpt><trkpt lat="45.7864315" lon="11.6896083"><ele>275.0</ele><time>2026-04-06T05:00:39.58Z</time></trkpt><trkpt lat="45.7863369" lon="11.6895248"><ele>273.5</ele><time>2026-04-06T05:00:40.588Z</time></trkpt><trkpt lat="45.7862324" lon="11.689439"><ele>272.0</ele><time>2026-04-06T05:00:41.57Z</time></trkpt><trkpt lat="45.7861331" lon="11.689344"><ele>274.25</ele><time>2026-04-06T05:00:42.582Z</time></trkpt><trkpt lat="45.7860443" lon="11.6892201"><ele>276.5</ele><time>2026-04-06T05:00:43.564Z</time></trkpt><trkpt lat="45.7859649" lon="11.6890764"><ele>278.75</ele><time>2026-04-06T05:00:44.574Z</time></trkpt><trkpt lat="45.7858862" lon="11.6889324"><ele>281.0</ele><time>2026-04-06T05:00:45.584Z</time></trkpt><trkpt lat="45.7858074" lon="11.6887716"><ele>281.0</ele><time>2026-04-06T05:00:46.584Z</time></trkpt><trkpt lat="45.7857258" lon="11.6886023"><ele>281.0</ele><time>2026-04-06T05:00:47.583Z</time></trkpt><trkpt lat="45.785658" lon="11.6882663"><ele>281.0</ele><time>2026-04-06T05:00:49.59Z</time></trkpt><trkpt lat="45.7856371" lon="11.6881012"><ele>283.6</ele><time>2026-04-06T05:00:50.581Z</time></trkpt><trkpt lat="45.7856176" lon="11.6879545"><ele>286.20000000000005</ele><time>2026-04-06T05:00:51.592Z</time></trkpt><trkpt lat="45.7855667" lon="11.6878401"><ele>288.79999999999995</ele><time>2026-04-06T05:00:52.584Z</time></trkpt><trkpt lat="45.7855022" lon="11.6877556"><ele>291.4</ele><time>2026-04-06T05:00:53.584Z</time></trkpt><trkpt lat="45.7854465" lon="11.6876489"><ele>294.0</ele><time>2026-04-06T05:00:55.579Z</time></trkpt><trkpt lat="45.785433" lon="11.6875321"><ele>296.0</ele><time>2026-04-06T05:00:56.587Z</time></trkpt><trkpt lat="45.7854184" lon="11.6873958"><ele>298.0</ele><time>2026-04-06T05:00:57.591Z</time></trkpt><trkpt lat="45.7854632" lon="11.6872475"><ele>300.0</ele><time>2026-04-06T05:00:58.578Z</time></trkpt><trkpt lat="45.7855109" lon="11.6870937"><ele>302.0</ele><time>2026-04-06T05:00:59.6Z</time></trkpt><trkpt lat="45.7855641" lon="11.6869304"><ele>301.4</ele><time>2026-04-06T05:01:00.591Z</time></trkpt><trkpt lat="45.7856216" lon="11.6867722"><ele>300.79999999999995</ele><time>2026-04-06T05:01:01.596Z</time></trkpt><trkpt lat="45.7856689" lon="11.6866296"><ele>300.2</ele><time>2026-04-06T05:01:02.584Z</time></trkpt><trkpt lat="45.7857028" lon="11.6864809"><ele>299.59999999999997</ele><time>2026-04-06T05:01:03.593Z</time></trkpt><trkpt lat="45.7857321" lon="11.6863525"><ele>299.0</ele><time>2026-04-06T05:01:04.585Z</time></trkpt><trkpt lat="45.7857604" lon="11.6862247"><ele>299.0</ele><time>2026-04-06T05:01:05.594Z</time></trkpt><trkpt lat="45.7857938" lon="11.6861067"><ele>299.0</ele><time>2026-04-06T05:01:06.59Z</time></trkpt><trkpt lat="45.7858397" lon="11.6859887"><ele>299.0</ele><time>2026-04-06T05:01:07.59Z</time></trkpt><trkpt lat="45.7858958" lon="11.6858659"><ele>299.0</ele><time>2026-04-06T05:01:08.594Z</time></trkpt><trkpt lat="45.7866298" lon="11.6844247"><ele>291.5</ele><time>2026-04-06T05:03:00.068Z</time></trkpt><trkpt lat="45.7867477" lon="11.6848087"><ele>284.0</ele><time>2026-04-06T05:03:03.067Z</time></trkpt><trkpt lat="45.786573" lon="11.6847771"><ele>284.0</ele><time>2026-04-06T05:03:25.581Z</time></trkpt><trkpt lat="45.7864785" lon="11.6847797"><ele>284.0</ele><time>2026-04-06T05:03:26.59Z</time></trkpt><trkpt lat="45.7863873" lon="11.684826"><ele>284.0</ele><time>2026-04-06T05:03:27.591Z</time></trkpt><trkpt lat="45.7862967" lon="11.6848967"><ele>284.0</ele><time>2026-04-06T05:03:28.585Z</time></trkpt><trkpt lat="45.7861877" lon="11.6849904"><ele>284.0</ele><time>2026-04-06T05:03:29.587Z</time></trkpt><trkpt lat="45.7860867" lon="11.6851214"><ele>283.5</ele><time>2026-04-06T05:03:30.605Z</time></trkpt><trkpt lat="45.7859894" lon="11.685248"><ele>283.0</ele><time>2026-04-06T05:03:31.572Z</time></trkpt><trkpt lat="45.7858989" lon="11.6853867"><ele>282.5</ele><time>2026-04-06T05:03:32.576Z</time></trkpt><trkpt lat="45.7858165" lon="11.6855431"><ele>282.0</ele><time>2026-04-06T05:03:33.581Z</time></trkpt><trkpt lat="45.7857386" lon="11.6857165"><ele>282.0</ele><time>2026-04-06T05:03:34.579Z</time></trkpt><trkpt lat="45.7856763" lon="11.6859681"><ele>282.0</ele><time>2026-04-06T05:03:35.592Z</time></trkpt><trkpt lat="45.7856733" lon="11.6863426"><ele>282.0</ele><time>2026-04-06T05:03:36.62Z</time></trkpt><trkpt lat="45.7856217" lon="11.6866244"><ele>286.25</ele><time>2026-04-06T05:03:37.588Z</time></trkpt><trkpt lat="45.7855374" lon="11.6868834"><ele>290.5</ele><time>2026-04-06T05:03:38.59Z</time></trkpt><trkpt lat="45.7855054" lon="11.6870054"><ele>294.75</ele><time>2026-04-06T05:03:39.587Z</time></trkpt><trkpt lat="45.7854844" lon="11.6871198"><ele>299.0</ele><time>2026-04-06T05:03:40.584Z</time></trkpt><trkpt lat="45.7854178" lon="11.6872524"><ele>299.59999999999997</ele><time>2026-04-06T05:03:41.579Z</time></trkpt><trkpt lat="45.785358" lon="11.6873854"><ele>300.2</ele><time>2026-04-06T05:03:42.587Z</time></trkpt><trkpt lat="45.7853021" lon="11.6875253"><ele>300.79999999999995</ele><time>2026-04-06T05:03:43.578Z</time></trkpt><trkpt lat="45.7852725" lon="11.6876576"><ele>301.4</ele><time>2026-04-06T05:03:44.591Z</time></trkpt><trkpt lat="45.7852839" lon="11.6877823"><ele>302.0</ele><time>2026-04-06T05:03:45.584Z</time></trkpt><trkpt lat="45.7853187" lon="11.6879003"><ele>300.4</ele><time>2026-04-06T05:03:46.585Z</time></trkpt><trkpt lat="45.7853684" lon="11.6879838"><ele>298.79999999999995</ele><time>2026-04-06T05:03:47.586Z</time></trkpt><trkpt lat="45.7854377" lon="11.6880726"><ele>297.2</ele><time>2026-04-06T05:03:48.583Z</time></trkpt><trkpt lat="45.7855195" lon="11.6881512"><ele>295.59999999999997</ele><time>2026-04-06T05:03:49.585Z</time></trkpt><trkpt lat="45.7856072" lon="11.6882705"><ele>294.0</ele><time>2026-04-06T05:03:50.587Z</time></trkpt><trkpt lat="45.7856739" lon="11.6883849"><ele>294.0</ele><time>2026-04-06T05:03:51.586Z</time></trkpt><trkpt lat="45.7857349" lon="11.6884987"><ele>294.0</ele><time>2026-04-06T05:03:52.603Z</time></trkpt><trkpt lat="45.7857919" lon="11.688609"><ele>294.0</ele><time>2026-04-06T05:03:53.587Z</time></trkpt><trkpt lat="45.7858549" lon="11.6887267"><ele>294.0</ele><time>2026-04-06T05:03:54.588Z</time></trkpt><trkpt lat="45.7859285" lon="11.6888625"><ele>294.0</ele><time>2026-04-06T05:03:55.583Z</time></trkpt><trkpt lat="45.7860165" lon="11.688995"><ele>294.2</ele><time>2026-04-06T05:03:56.593Z</time></trkpt><trkpt lat="45.786098" lon="11.6891251"><ele>294.4</ele><time>2026-04-06T05:03:57.585Z</time></trkpt><trkpt lat="45.7861717" lon="11.6892315"><ele>294.6</ele><time>2026-04-06T05:03:58.589Z</time></trkpt><trkpt lat="45.7862419" lon="11.6893465"><ele>294.8</ele><time>2026-04-06T05:03:59.581Z</time></trkpt><trkpt lat="45.7863255" lon="11.6894615"><ele>295.0</ele><time>2026-04-06T05:04:00.587Z</time></trkpt><trkpt lat="45.7864262" lon="11.689578"><ele>290.75</ele><time>2026-04-06T05:04:01.576Z</time></trkpt><trkpt lat="45.7865538" lon="11.689696"><ele>286.5</ele><time>2026-04-06T05:04:02.586Z</time></trkpt><trkpt lat="45.7866876" lon="11.6898117"><ele>282.25</ele><time>2026-04-06T05:04:03.582Z</time></trkpt><trkpt lat="45.7867941" lon="11.6899138"><ele>278.0</ele><time>2026-04-06T05:04:04.574Z</time></trkpt><trkpt lat="45.7868878" lon="11.6900006"><ele>278.0</ele><time>2026-04-06T05:04:05.582Z</time></trkpt><trkpt lat="45.7869654" lon="11.6901192"><ele>278.0</ele><time>2026-04-06T05:04:06.581Z</time></trkpt><trkpt lat="45.7870688" lon="11.6901838"><ele>278.0</ele><time>2026-04-06T05:04:07.577Z</time></trkpt><trkpt lat="45.7872168" lon="11.6901908"><ele>278.0</ele><time>2026-04-06T05:04:08.581Z</time></trkpt><trkpt lat="45.787371" lon="11.6901728"><ele>278.0</ele><time>2026-04-06T05:04:09.578Z</time></trkpt><trkpt lat="45.7874959" lon="11.6901576"><ele>278.0</ele><time>2026-04-06T05:04:10.582Z</time></trkpt><trkpt lat="45.7876027" lon="11.6901466"><ele>278.0</ele><time>2026-04-06T05:04:11.581Z</time></trkpt><trkpt lat="45.7877052" lon="11.690172"><ele>278.0</ele><time>2026-04-06T05:04:12.573Z</time></trkpt><trkpt lat="45.7878098" lon="11.6902231"><ele>278.0</ele><time>2026-04-06T05:04:13.581Z</time></trkpt><trkpt lat="45.7879042" lon="11.6903109"><ele>277.0</ele><time>2026-04-06T05:04:14.596Z</time></trkpt><trkpt lat="45.7879419" lon="11.6903865"><ele>276.0</ele><time>2026-04-06T05:04:15.585Z</time></trkpt><trkpt lat="45.7880092" lon="11.6904737"><ele>275.0</ele><time>2026-04-06T05:04:16.589Z</time></trkpt><trkpt lat="45.7880735" lon="11.6905688"><ele>274.0</ele><time>2026-04-06T05:04:17.588Z</time></trkpt><trkpt lat="45.7881795" lon="11.6906406"><ele>273.0</ele><time>2026-04-06T05:04:18.58Z</time></trkpt><trkpt lat="45.7882929" lon="11.6907041"><ele>273.0</ele><time>2026-04-06T05:04:19.587Z</time></trkpt><trkpt lat="45.7883808" lon="11.6907562"><ele>273.0</ele><time>2026-04-06T05:04:20.591Z</time></trkpt><trkpt lat="45.7884348" lon="11.6908405"><ele>273.0</ele><time>2026-04-06T05:04:21.591Z</time></trkpt><trkpt lat="45.7884466" lon="11.6909631"><ele>273.0</ele><time>2026-04-06T05:04:22.594Z</time></trkpt><trkpt lat="45.788434" lon="11.6910816"><ele>273.0</ele><time>2026-04-06T05:04:23.589Z</time></trkpt><trkpt lat="45.7883823" lon="11.6912045"><ele>273.0</ele><time>2026-04-06T05:04:24.587Z</time></trkpt><trkpt lat="45.7883257" lon="11.6913424"><ele>271.5</ele><time>2026-04-06T05:04:25.583Z</time></trkpt><trkpt lat="45.7882996" lon="11.6914929"><ele>270.0</ele><time>2026-04-06T05:04:26.576Z</time></trkpt><trkpt lat="45.788303" lon="11.691659"><ele>268.5</ele><time>2026-04-06T05:04:27.578Z</time></trkpt><trkpt lat="45.788328" lon="11.6918301"><ele>267.0</ele><time>2026-04-06T05:04:28.585Z</time></trkpt><trkpt lat="45.7884011" lon="11.6919816"><ele>268.25</ele><time>2026-04-06T05:04:29.582Z</time></trkpt><trkpt lat="45.7884772" lon="11.6921365"><ele>269.5</ele><time>2026-04-06T05:04:30.595Z</time></trkpt><trkpt lat="45.7885597" lon="11.692279"><ele>270.75</ele><time>2026-04-06T05:04:31.608Z</time></trkpt><trkpt lat="45.7886354" lon="11.6924281"><ele>272.0</ele><time>2026-04-06T05:04:32.59Z</time></trkpt><trkpt lat="45.7887029" lon="11.6925512"><ele>272.0</ele><time>2026-04-06T05:04:33.587Z</time></trkpt><trkpt lat="45.7887348" lon="11.6926585"><ele>272.0</ele><time>2026-04-06T05:04:34.589Z</time></trkpt><trkpt lat="45.7887381" lon="11.6927817"><ele>272.0</ele><time>2026-04-06T05:04:35.592Z</time></trkpt><trkpt lat="45.7887224" lon="11.6929165"><ele>272.0</ele><time>2026-04-06T05:04:36.587Z</time></trkpt><trkpt lat="45.7886817" lon="11.6930441"><ele>272.0</ele><time>2026-04-06T05:04:37.581Z</time></trkpt><trkpt lat="45.7886236" lon="11.6931743"><ele>273.4</ele><time>2026-04-06T05:04:38.592Z</time></trkpt><trkpt lat="45.7885694" lon="11.6932982"><ele>274.79999999999995</ele><time>2026-04-06T05:04:39.583Z</time></trkpt><trkpt lat="45.7885316" lon="11.693428"><ele>276.2</ele><time>2026-04-06T05:04:40.588Z</time></trkpt><trkpt lat="45.7885122" lon="11.6935742"><ele>277.59999999999997</ele><time>2026-04-06T05:04:41.582Z</time></trkpt><trkpt lat="45.7885163" lon="11.6937154"><ele>279.0</ele><time>2026-04-06T05:04:42.58Z</time></trkpt><trkpt lat="45.788548" lon="11.6938704"><ele>279.0</ele><time>2026-04-06T05:04:43.585Z</time></trkpt><trkpt lat="45.7885738" lon="11.6940369"><ele>279.0</ele><time>2026-04-06T05:04:44.583Z</time></trkpt><trkpt lat="45.7886082" lon="11.6942047"><ele>279.0</ele><time>2026-04-06T05:04:45.587Z</time></trkpt><trkpt lat="45.7886378" lon="11.6943662"><ele>279.0</ele><time>2026-04-06T05:04:46.592Z</time></trkpt><trkpt lat="45.7886546" lon="11.6945316"><ele>279.0</ele><time>2026-04-06T05:04:47.586Z</time></trkpt><trkpt lat="45.7886596" lon="11.6947039"><ele>279.0</ele><time>2026-04-06T05:04:48.586Z</time></trkpt><trkpt lat="45.788655" lon="11.6948709"><ele>279.0</ele><time>2026-04-06T05:04:49.584Z</time></trkpt><trkpt lat="45.7886439" lon="11.6950285"><ele>279.0</ele><time>2026-04-06T05:04:50.583Z</time></trkpt><trkpt lat="45.7886332" lon="11.6951707"><ele>279.0</ele><time>2026-04-06T05:04:51.58Z</time></trkpt><trkpt lat="45.7886039" lon="11.6952704"><ele>279.0</ele><time>2026-04-06T05:04:52.595Z</time></trkpt><trkpt lat="45.7885597" lon="11.6953463"><ele>279.0</ele><time>2026-04-06T05:04:53.58Z</time></trkpt><trkpt lat="45.7885087" lon="11.6954267"><ele>279.0</ele><time>2026-04-06T05:04:54.586Z</time></trkpt><trkpt lat="45.7884669" lon="11.6955229"><ele>279.0</ele><time>2026-04-06T05:04:55.589Z</time></trkpt><trkpt lat="45.788391" lon="11.6956451"><ele>279.0</ele><time>2026-04-06T05:04:56.578Z</time></trkpt><trkpt lat="45.7882673" lon="11.6957391"><ele>275.3333333333333</ele><time>2026-04-06T05:04:57.581Z</time></trkpt><trkpt lat="45.7881507" lon="11.6958726"><ele>271.66666666666663</ele><time>2026-04-06T05:04:58.574Z</time></trkpt><trkpt lat="45.7879564" lon="11.6959616"><ele>268.0</ele><time>2026-04-06T05:04:59.584Z</time></trkpt><trkpt lat="45.787706" lon="11.6959767"><ele>265.0</ele><time>2026-04-06T05:05:00.586Z</time></trkpt><trkpt lat="45.7874588" lon="11.6959859"><ele>262.0</ele><time>2026-04-06T05:05:01.582Z</time></trkpt><trkpt lat="45.7872544" lon="11.6960351"><ele>262.0</ele><time>2026-04-06T05:05:02.582Z</time></trkpt><trkpt lat="45.7871181" lon="11.6960869"><ele>262.0</ele><time>2026-04-06T05:05:03.589Z</time></trkpt><trkpt lat="45.7870217" lon="11.6960641"><ele>262.0</ele><time>2026-04-06T05:05:04.591Z</time></trkpt><trkpt lat="45.7868978" lon="11.6959978"><ele>262.0</ele><time>2026-04-06T05:05:05.586Z</time></trkpt><trkpt lat="45.7868217" lon="11.6959571"><ele>266.3333333333333</ele><time>2026-04-06T05:05:06.571Z</time></trkpt><trkpt lat="45.786752" lon="11.6958227"><ele>270.6666666666667</ele><time>2026-04-06T05:05:07.655Z</time></trkpt><trkpt lat="45.7866625" lon="11.6956301"><ele>275.0</ele><time>2026-04-06T05:05:08.575Z</time></trkpt><trkpt lat="45.7866126" lon="11.6953885"><ele>269.5</ele><time>2026-04-06T05:05:09.742Z</time></trkpt><trkpt lat="45.7864261" lon="11.6948746"><ele>264.0</ele><time>2026-04-06T05:05:11.577Z</time></trkpt><trkpt lat="45.7863355" lon="11.6946335"><ele>264.0</ele><time>2026-04-06T05:05:12.573Z</time></trkpt><trkpt lat="45.7862519" lon="11.6944382"><ele>264.0</ele><time>2026-04-06T05:05:13.574Z</time></trkpt><trkpt lat="45.7861489" lon="11.6942358"><ele>264.0</ele><time>2026-04-06T05:05:14.579Z</time></trkpt><trkpt lat="45.7860552" lon="11.6940041"><ele>263.3333333333333</ele><time>2026-04-06T05:05:15.58Z</time></trkpt><trkpt lat="45.7859254" lon="11.6937904"><ele>262.66666666666663</ele><time>2026-04-06T05:05:16.586Z</time></trkpt><trkpt lat="45.7858191" lon="11.6935923"><ele>262.0</ele><time>2026-04-06T05:05:17.572Z</time></trkpt><trkpt lat="45.7857306" lon="11.6934287"><ele>262.0</ele><time>2026-04-06T05:05:18.572Z</time></trkpt><trkpt lat="45.7856295" lon="11.6932685"><ele>262.0</ele><time>2026-04-06T05:05:19.737Z</time></trkpt><trkpt lat="45.7853939" lon="11.6931203"><ele>262.0</ele><time>2026-04-06T05:05:21.739Z</time></trkpt><trkpt lat="45.7852259" lon="11.6930389"><ele>256.0</ele><time>2026-04-06T05:05:22.74Z</time></trkpt><trkpt lat="45.7850928" lon="11.6930745"><ele>250.0</ele><time>2026-04-06T05:05:23.737Z</time></trkpt><trkpt lat="45.7847969" lon="11.6932673"><ele>250.0</ele><time>2026-04-06T05:05:25.579Z</time></trkpt><trkpt lat="45.7846822" lon="11.6934069"><ele>250.0</ele><time>2026-04-06T05:05:26.579Z</time></trkpt><trkpt lat="45.784597" lon="11.6935562"><ele>250.0</ele><time>2026-04-06T05:05:27.599Z</time></trkpt><trkpt lat="45.784527" lon="11.6937161"><ele>250.0</ele><time>2026-04-06T05:05:28.606Z</time></trkpt><trkpt lat="45.7844279" lon="11.6938732"><ele>249.33333333333331</ele><time>2026-04-06T05:05:29.574Z</time></trkpt><trkpt lat="45.7843157" lon="11.6940618"><ele>248.66666666666669</ele><time>2026-04-06T05:05:30.576Z</time></trkpt><trkpt lat="45.7842172" lon="11.6942859"><ele>248.0</ele><time>2026-04-06T05:05:31.577Z</time></trkpt><trkpt lat="45.7841175" lon="11.6945478"><ele>260.0</ele><time>2026-04-06T05:05:32.578Z</time></trkpt><trkpt lat="45.783993" lon="11.6947678"><ele>272.0</ele><time>2026-04-06T05:05:33.575Z</time></trkpt><trkpt lat="45.7838639" lon="11.6949261"><ele>284.0</ele><time>2026-04-06T05:05:34.576Z</time></trkpt><trkpt lat="45.7837081" lon="11.695083"><ele>291.0</ele><time>2026-04-06T05:05:35.575Z</time></trkpt><trkpt lat="45.7835557" lon="11.6952675"><ele>298.0</ele><time>2026-04-06T05:05:36.574Z</time></trkpt><trkpt lat="45.7834323" lon="11.6954653"><ele>305.0</ele><time>2026-04-06T05:05:37.578Z</time></trkpt><trkpt lat="45.7833672" lon="11.6957216"><ele>292.0</ele><time>2026-04-06T05:05:38.581Z</time></trkpt><trkpt lat="45.7832821" lon="11.6959651"><ele>279.0</ele><time>2026-04-06T05:05:39.592Z</time></trkpt><trkpt lat="45.7832411" lon="11.6962278"><ele>266.0</ele><time>2026-04-06T05:05:40.581Z</time></trkpt><trkpt lat="45.7831693" lon="11.6964823"><ele>266.0</ele><time>2026-04-06T05:05:41.571Z</time></trkpt><trkpt lat="45.783081" lon="11.6967275"><ele>266.0</ele><time>2026-04-06T05:05:42.575Z</time></trkpt><trkpt lat="45.7830051" lon="11.696947"><ele>266.0</ele><time>2026-04-06T05:05:43.652Z</time></trkpt><trkpt lat="45.7829223" lon="11.6971424"><ele>270.6666666666667</ele><time>2026-04-06T05:05:44.737Z</time></trkpt><trkpt lat="45.7828269" lon="11.697333"><ele>275.3333333333333</ele><time>2026-04-06T05:05:45.73Z</time></trkpt><trkpt lat="45.7827419" lon="11.6974928"><ele>280.0</ele><time>2026-04-06T05:05:46.901Z</time></trkpt><trkpt lat="45.7826657" lon="11.6978262"><ele>281.66666666666663</ele><time>2026-04-06T05:05:48.622Z</time></trkpt><trkpt lat="45.7827048" lon="11.6980574"><ele>283.3333333333333</ele><time>2026-04-06T05:05:49.578Z</time></trkpt><trkpt lat="45.7827532" lon="11.6982865"><ele>285.0</ele><time>2026-04-06T05:05:50.58Z</time></trkpt><trkpt lat="45.7827574" lon="11.6984745"><ele>284.0</ele><time>2026-04-06T05:05:51.578Z</time></trkpt><trkpt lat="45.782803" lon="11.6987052"><ele>283.0</ele><time>2026-04-06T05:05:52.585Z</time></trkpt><trkpt lat="45.7828353" lon="11.698905"><ele>282.0</ele><time>2026-04-06T05:05:53.738Z</time></trkpt><trkpt lat="45.7826202" lon="11.6989942"><ele>275.25</ele><time>2026-04-06T05:05:55.575Z</time></trkpt><trkpt lat="45.7824609" lon="11.6989597"><ele>268.5</ele><time>2026-04-06T05:05:56.583Z</time></trkpt><trkpt lat="45.7823461" lon="11.6990016"><ele>261.75</ele><time>2026-04-06T05:05:57.605Z</time></trkpt><trkpt lat="45.7822386" lon="11.6990533"><ele>255.0</ele><time>2026-04-06T05:05:58.584Z</time></trkpt><trkpt lat="45.7821563" lon="11.6991387"><ele>255.0</ele><time>2026-04-06T05:05:59.628Z</time></trkpt><trkpt lat="45.7821005" lon="11.6992282"><ele>255.0</ele><time>2026-04-06T05:06:00.583Z</time></trkpt><trkpt lat="45.7820585" lon="11.6993183"><ele>255.0</ele><time>2026-04-06T05:06:01.583Z</time></trkpt><trkpt lat="45.7820403" lon="11.6994153"><ele>255.0</ele><time>2026-04-06T05:06:02.584Z</time></trkpt><trkpt lat="45.7820768" lon="11.6995665"><ele>255.0</ele><time>2026-04-06T05:06:04.581Z</time></trkpt><trkpt lat="45.7821691" lon="11.6996375"><ele>255.0</ele><time>2026-04-06T05:06:05.585Z</time></trkpt><trkpt lat="45.7823083" lon="11.6996786"><ele>251.25</ele><time>2026-04-06T05:06:06.581Z</time></trkpt><trkpt lat="45.7824723" lon="11.6997236"><ele>247.5</ele><time>2026-04-06T05:06:07.581Z</time></trkpt><trkpt lat="45.7826137" lon="11.6997975"><ele>243.75</ele><time>2026-04-06T05:06:08.582Z</time></trkpt><trkpt lat="45.7827107" lon="11.6999008"><ele>240.0</ele><time>2026-04-06T05:06:09.582Z</time></trkpt><trkpt lat="45.782775" lon="11.7000373"><ele>245.0</ele><time>2026-04-06T05:06:10.577Z</time></trkpt><trkpt lat="45.782777" lon="11.7001911"><ele>250.0</ele><time>2026-04-06T05:06:11.581Z</time></trkpt><trkpt lat="45.7827959" lon="11.7003752"><ele>255.0</ele><time>2026-04-06T05:06:12.584Z</time></trkpt><trkpt lat="45.782828" lon="11.7005596"><ele>260.0</ele><time>2026-04-06T05:06:13.577Z</time></trkpt><trkpt lat="45.7828641" lon="11.7007355"><ele>260.0</ele><time>2026-04-06T05:06:14.582Z</time></trkpt><trkpt lat="45.7828729" lon="11.7008972"><ele>260.0</ele><time>2026-04-06T05:06:15.585Z</time></trkpt><trkpt lat="45.7828829" lon="11.701064"><ele>260.0</ele><time>2026-04-06T05:06:16.585Z</time></trkpt><trkpt lat="45.7828719" lon="11.7012253"><ele>260.0</ele><time>2026-04-06T05:06:17.588Z</time></trkpt><trkpt lat="45.7829055" lon="11.7013602"><ele>260.0</ele><time>2026-04-06T05:06:18.613Z</time></trkpt><trkpt lat="45.7829649" lon="11.7014654"><ele>257.0</ele><time>2026-04-06T05:06:19.605Z</time></trkpt><trkpt lat="45.7830098" lon="11.7015807"><ele>254.0</ele><time>2026-04-06T05:06:20.591Z</time></trkpt><trkpt lat="45.7830449" lon="11.7017238"><ele>251.0</ele><time>2026-04-06T05:06:21.589Z</time></trkpt><trkpt lat="45.7830445" lon="11.7018742"><ele>248.0</ele><time>2026-04-06T05:06:22.594Z</time></trkpt><trkpt lat="45.7830315" lon="11.7020294"><ele>245.0</ele><time>2026-04-06T05:06:23.586Z</time></trkpt><trkpt lat="45.7830165" lon="11.7021797"><ele>244.8</ele><time>2026-04-06T05:06:24.589Z</time></trkpt><trkpt lat="45.783007" lon="11.7023202"><ele>244.6</ele><time>2026-04-06T05:06:25.588Z</time></trkpt><trkpt lat="45.7829972" lon="11.7024545"><ele>244.39999999999998</ele><time>2026-04-06T05:06:26.587Z</time></trkpt><trkpt lat="45.7829852" lon="11.7025895"><ele>244.2</ele><time>2026-04-06T05:06:27.585Z</time></trkpt><trkpt lat="45.7829769" lon="11.7027226"><ele>244.0</ele><time>2026-04-06T05:06:28.582Z</time></trkpt><trkpt lat="45.782978" lon="11.7028463"><ele>245.16666666666666</ele><time>2026-04-06T05:06:29.589Z</time></trkpt><trkpt lat="45.7829823" lon="11.7029744"><ele>246.33333333333331</ele><time>2026-04-06T05:06:30.578Z</time></trkpt><trkpt lat="45.7829985" lon="11.7030873"><ele>247.5</ele><time>2026-04-06T05:06:31.581Z</time></trkpt><trkpt lat="45.7830316" lon="11.7031892"><ele>248.66666666666669</ele><time>2026-04-06T05:06:32.58Z</time></trkpt><trkpt lat="45.7830509" lon="11.703279"><ele>249.83333333333334</ele><time>2026-04-06T05:06:33.575Z</time></trkpt><trkpt lat="45.7830443" lon="11.7034237"><ele>251.0</ele><time>2026-04-06T05:06:35.563Z</time></trkpt><trkpt lat="45.7830225" lon="11.7036233"><ele>251.0</ele><time>2026-04-06T05:06:39.57Z</time></trkpt><trkpt lat="45.7829153" lon="11.7034627"><ele>251.00000000000003</ele><time>2026-04-06T05:06:45.584Z</time></trkpt><trkpt lat="45.782853" lon="11.703487"><ele>251.00000000000003</ele><time>2026-04-06T05:06:46.57Z</time></trkpt><trkpt lat="45.7827803" lon="11.7034839"><ele>251.0</ele><time>2026-04-06T05:06:47.559Z</time></trkpt><trkpt lat="45.7826921" lon="11.7035113"><ele>251.0</ele><time>2026-04-06T05:06:48.544Z</time></trkpt><trkpt lat="45.7825877" lon="11.7035672"><ele>258.33333333333337</ele><time>2026-04-06T05:06:49.545Z</time></trkpt><trkpt lat="45.782443" lon="11.7036131"><ele>265.6666666666667</ele><time>2026-04-06T05:06:50.564Z</time></trkpt><trkpt lat="45.7823006" lon="11.703694"><ele>273.0</ele><time>2026-04-06T05:06:51.576Z</time></trkpt><trkpt lat="45.7821531" lon="11.7037718"><ele>273.0</ele><time>2026-04-06T05:06:52.564Z</time></trkpt><trkpt lat="45.782008" lon="11.7038533"><ele>273.0</ele><time>2026-04-06T05:06:53.578Z</time></trkpt><trkpt lat="45.7818584" lon="11.7039102"><ele>273.0</ele><time>2026-04-06T05:06:54.559Z</time></trkpt><trkpt lat="45.7816857" lon="11.7040031"><ele>272.3333333333333</ele><time>2026-04-06T05:06:55.577Z</time></trkpt><trkpt lat="45.7815553" lon="11.7040308"><ele>271.66666666666663</ele><time>2026-04-06T05:06:56.58Z</time></trkpt><trkpt lat="45.7812824" lon="11.7039259"><ele>271.0</ele><time>2026-04-06T05:06:57.587Z</time></trkpt><trkpt lat="45.7810594" lon="11.7038743"><ele>259.3333333333333</ele><time>2026-04-06T05:06:58.583Z</time></trkpt><trkpt lat="45.7808917" lon="11.7038647"><ele>247.66666666666669</ele><time>2026-04-06T05:06:59.586Z</time></trkpt><trkpt lat="45.780729" lon="11.7039296"><ele>236.0</ele><time>2026-04-06T05:07:00.589Z</time></trkpt><trkpt lat="45.7805878" lon="11.7040021"><ele>236.0</ele><time>2026-04-06T05:07:01.581Z</time></trkpt><trkpt lat="45.7804835" lon="11.7040469"><ele>236.00000000000003</ele><time>2026-04-06T05:07:02.561Z</time></trkpt><trkpt lat="45.7803494" lon="11.7040619"><ele>236.00000000000003</ele><time>2026-04-06T05:07:03.576Z</time></trkpt><trkpt lat="45.7802747" lon="11.7040796"><ele>236.0</ele><time>2026-04-06T05:07:04.565Z</time></trkpt><trkpt lat="45.7802054" lon="11.7041131"><ele>236.0</ele><time>2026-04-06T05:07:05.568Z</time></trkpt><trkpt lat="45.7801217" lon="11.7041085"><ele>232.8</ele><time>2026-04-06T05:07:06.581Z</time></trkpt><trkpt lat="45.7800414" lon="11.7041207"><ele>229.60000000000002</ele><time>2026-04-06T05:07:07.582Z</time></trkpt><trkpt lat="45.7799307" lon="11.7040861"><ele>226.4</ele><time>2026-04-06T05:07:08.568Z</time></trkpt><trkpt lat="45.7798341" lon="11.7040763"><ele>223.2</ele><time>2026-04-06T05:07:09.578Z</time></trkpt><trkpt lat="45.7797307" lon="11.7040732"><ele>220.0</ele><time>2026-04-06T05:07:10.576Z</time></trkpt><trkpt lat="45.7794883" lon="11.7038677"><ele>212.0</ele><time>2026-04-06T05:07:11.586Z</time></trkpt><trkpt lat="45.7793414" lon="11.7037737"><ele>204.0</ele><time>2026-04-06T05:07:12.612Z</time></trkpt><trkpt lat="45.7792612" lon="11.7035287"><ele>196.0</ele><time>2026-04-06T05:07:17.585Z</time></trkpt><trkpt lat="45.7793574" lon="11.7033986"><ele>196.0</ele><time>2026-04-06T05:07:19.583Z</time></trkpt><trkpt lat="45.7794322" lon="11.7033188"><ele>196.0</ele><time>2026-04-06T05:07:20.579Z</time></trkpt><trkpt lat="45.7795278" lon="11.7032361"><ele>196.0</ele><time>2026-04-06T05:07:21.579Z</time></trkpt><trkpt lat="45.7796268" lon="11.7031486"><ele>196.0</ele><time>2026-04-06T05:07:22.582Z</time></trkpt><trkpt lat="45.7797285" lon="11.7030711"><ele>196.0</ele><time>2026-04-06T05:07:23.575Z</time></trkpt><trkpt lat="45.7798396" lon="11.7030142"><ele>196.0</ele><time>2026-04-06T05:07:24.575Z</time></trkpt><trkpt lat="45.7799278" lon="11.7029938"><ele>196.0</ele><time>2026-04-06T05:07:25.573Z</time></trkpt><trkpt lat="45.7800451" lon="11.7030278"><ele>196.0</ele><time>2026-04-06T05:07:26.569Z</time></trkpt><trkpt lat="45.7801359" lon="11.7030718"><ele>196.0</ele><time>2026-04-06T05:07:27.586Z</time></trkpt><trkpt lat="45.7802153" lon="11.7031352"><ele>196.0</ele><time>2026-04-06T05:07:28.579Z</time></trkpt><trkpt lat="45.7802683" lon="11.7032033"><ele>198.49999999999997</ele><time>2026-04-06T05:07:29.585Z</time></trkpt><trkpt lat="45.7803052" lon="11.7032956"><ele>201.0</ele><time>2026-04-06T05:07:30.58Z</time></trkpt><trkpt lat="45.7803459" lon="11.7033813"><ele>203.5</ele><time>2026-04-06T05:07:31.578Z</time></trkpt><trkpt lat="45.7804099" lon="11.7035117"><ele>206.0</ele><time>2026-04-06T05:07:33.582Z</time></trkpt><trkpt lat="45.7803916" lon="11.7036245"><ele>208.49999999999997</ele><time>2026-04-06T05:07:35.582Z</time></trkpt><trkpt lat="45.7804234" lon="11.7034959"><ele>211.0</ele><time>2026-04-06T05:07:40.598Z</time></trkpt><trkpt lat="45.7804811" lon="11.7034434"><ele>211.0</ele><time>2026-04-06T05:07:41.572Z</time></trkpt><trkpt lat="45.7805958" lon="11.7033651"><ele>211.0</ele><time>2026-04-06T05:07:43.595Z</time></trkpt><trkpt lat="45.7806714" lon="11.7033477"><ele>211.0</ele><time>2026-04-06T05:07:44.604Z</time></trkpt><trkpt lat="45.7807723" lon="11.7033455"><ele>211.0</ele><time>2026-04-06T05:07:45.581Z</time></trkpt><trkpt lat="45.7808839" lon="11.7032626"><ele>211.0</ele><time>2026-04-06T05:07:47.583Z</time></trkpt><trkpt lat="45.7807701" lon="11.7033191"><ele>211.0</ele><time>2026-04-06T05:07:58.579Z</time></trkpt><trkpt lat="45.7806726" lon="11.7034228"><ele>211.0</ele><time>2026-04-06T05:08:00.583Z</time></trkpt><trkpt lat="45.7806143" lon="11.7034691"><ele>211.0</ele><time>2026-04-06T05:08:01.582Z</time></trkpt><trkpt lat="45.7805316" lon="11.7036249"><ele>211.0</ele><time>2026-04-06T05:08:03.574Z</time></trkpt><trkpt lat="45.7804989" lon="11.7037377"><ele>211.0</ele><time>2026-04-06T05:08:04.575Z</time></trkpt><trkpt lat="45.7804598" lon="11.7038561"><ele>215.16666666666666</ele><time>2026-04-06T05:08:05.574Z</time></trkpt><trkpt lat="45.7804213" lon="11.7039596"><ele>219.33333333333331</ele><time>2026-04-06T05:08:06.573Z</time></trkpt><trkpt lat="45.7803827" lon="11.7040712"><ele>223.5</ele><time>2026-04-06T05:08:07.6Z</time></trkpt><trkpt lat="45.7803379" lon="11.7041536"><ele>227.66666666666669</ele><time>2026-04-06T05:08:08.569Z</time></trkpt><trkpt lat="45.780318" lon="11.704248"><ele>231.83333333333334</ele><time>2026-04-06T05:08:09.581Z</time></trkpt><trkpt lat="45.7803087" lon="11.7043526"><ele>236.0</ele><time>2026-04-06T05:08:10.575Z</time></trkpt><trkpt lat="45.7802945" lon="11.7045092"><ele>238.4</ele><time>2026-04-06T05:08:11.58Z</time></trkpt><trkpt lat="45.780315" lon="11.7046709"><ele>240.8</ele><time>2026-04-06T05:08:12.589Z</time></trkpt><trkpt lat="45.780308" lon="11.7048164"><ele>243.20000000000002</ele><time>2026-04-06T05:08:13.586Z</time></trkpt><trkpt lat="45.7803224" lon="11.7049383"><ele>245.60000000000002</ele><time>2026-04-06T05:08:14.589Z</time></trkpt><trkpt lat="45.7803192" lon="11.7050693"><ele>248.0</ele><time>2026-04-06T05:08:16.587Z</time></trkpt><trkpt lat="45.7803244" lon="11.7051976"><ele>248.0</ele><time>2026-04-06T05:08:19.584Z</time></trkpt><trkpt lat="45.7803471" lon="11.7051061"><ele>248.00000000000003</ele><time>2026-04-06T05:08:29.594Z</time></trkpt><trkpt lat="45.7803643" lon="11.7050074"><ele>248.0</ele><time>2026-04-06T05:08:32.591Z</time></trkpt><trkpt lat="45.7803724" lon="11.704911"><ele>248.0</ele><time>2026-04-06T05:08:34.58Z</time></trkpt><trkpt lat="45.7804124" lon="11.7047908"><ele>248.00000000000003</ele><time>2026-04-06T05:08:36.59Z</time></trkpt><trkpt lat="45.7804638" lon="11.704726"><ele>248.0</ele><time>2026-04-06T05:08:37.587Z</time></trkpt><trkpt lat="45.7805055" lon="11.7046391"><ele>248.0</ele><time>2026-04-06T05:08:38.589Z</time></trkpt><trkpt lat="45.7805439" lon="11.7045468"><ele>248.0</ele><time>2026-04-06T05:08:39.588Z</time></trkpt><trkpt lat="45.7805837" lon="11.7044594"><ele>248.0</ele><time>2026-04-06T05:08:40.584Z</time></trkpt><trkpt lat="45.7806091" lon="11.7043731"><ele>248.0</ele><time>2026-04-06T05:08:41.594Z</time></trkpt><trkpt lat="45.7806421" lon="11.7042009"><ele>248.0</ele><time>2026-04-06T05:08:43.587Z</time></trkpt><trkpt lat="45.7806672" lon="11.7040322"><ele>248.0</ele><time>2026-04-06T05:08:45.587Z</time></trkpt><trkpt lat="45.7806837" lon="11.703896"><ele>245.60000000000002</ele><time>2026-04-06T05:08:47.555Z</time></trkpt><trkpt lat="45.7806877" lon="11.7037641"><ele>243.20000000000002</ele><time>2026-04-06T05:08:49.565Z</time></trkpt><trkpt lat="45.7806978" lon="11.7036296"><ele>240.8</ele><time>2026-04-06T05:08:51.562Z</time></trkpt><trkpt lat="45.7806499" lon="11.7034614"><ele>238.4</ele><time>2026-04-06T05:08:53.587Z</time></trkpt><trkpt lat="45.780639" lon="11.703321"><ele>236.0</ele><time>2026-04-06T05:08:55.579Z</time></trkpt><trkpt lat="45.7806426" lon="11.7031922"><ele>231.83333333333334</ele><time>2026-04-06T05:08:57.569Z</time></trkpt><trkpt lat="45.7806747" lon="11.7031032"><ele>227.66666666666669</ele><time>2026-04-06T05:08:59.579Z</time></trkpt><trkpt lat="45.7807475" lon="11.7030372"><ele>223.5</ele><time>2026-04-06T05:09:02.58Z</time></trkpt><trkpt lat="45.7807357" lon="11.7031618"><ele>219.33333333333331</ele><time>2026-04-06T05:09:22.581Z</time></trkpt><trkpt lat="45.7806849" lon="11.7032679"><ele>215.16666666666666</ele><time>2026-04-06T05:09:24.576Z</time></trkpt><trkpt lat="45.7806804" lon="11.7034229"><ele>211.0</ele><time>2026-04-06T05:09:26.586Z</time></trkpt><trkpt lat="45.7806454" lon="11.7033172"><ele>210.99999999999997</ele><time>2026-04-06T05:09:55.599Z</time></trkpt><trkpt lat="45.7805969" lon="11.7033962"><ele>211.0</ele><time>2026-04-06T05:09:57.562Z</time></trkpt><trkpt lat="45.780505" lon="11.7034487"><ele>211.0</ele><time>2026-04-06T05:10:00.6Z</time></trkpt><trkpt lat="45.7804398" lon="11.7034715"><ele>211.0</ele><time>2026-04-06T05:10:02.579Z</time></trkpt><trkpt lat="45.780378" lon="11.7034019"><ele>210.99999999999997</ele><time>2026-04-06T05:10:04.583Z</time></trkpt><trkpt lat="45.7803291" lon="11.7033136"><ele>211.0</ele><time>2026-04-06T05:10:06.588Z</time></trkpt><trkpt lat="45.7801903" lon="11.7032547"><ele>207.25</ele><time>2026-04-06T05:10:12.586Z</time></trkpt><trkpt lat="45.7801243" lon="11.7032661"><ele>203.5</ele><time>2026-04-06T05:10:13.565Z</time></trkpt><trkpt lat="45.779977" lon="11.7033348"><ele>199.75</ele><time>2026-04-06T05:10:15.548Z</time></trkpt><trkpt lat="45.7798708" lon="11.7034167"><ele>196.0</ele><time>2026-04-06T05:10:16.555Z</time></trkpt><trkpt lat="45.7797418" lon="11.7035074"><ele>204.0</ele><time>2026-04-06T05:10:17.562Z</time></trkpt><trkpt lat="45.7796084" lon="11.7036399"><ele>212.0</ele><time>2026-04-06T05:10:18.573Z</time></trkpt><trkpt lat="45.7794682" lon="11.7038097"><ele>220.0</ele><time>2026-04-06T05:10:19.581Z</time></trkpt><trkpt lat="45.7793668" lon="11.7040228"><ele>211.66666666666666</ele><time>2026-04-06T05:10:20.584Z</time></trkpt><trkpt lat="45.7792524" lon="11.7041938"><ele>203.33333333333331</ele><time>2026-04-06T05:10:21.583Z</time></trkpt><trkpt lat="45.7791408" lon="11.7043701"><ele>195.0</ele><time>2026-04-06T05:10:22.581Z</time></trkpt><trkpt lat="45.7790621" lon="11.7045588"><ele>193.66666666666666</ele><time>2026-04-06T05:10:23.58Z</time></trkpt><trkpt lat="45.7789573" lon="11.7047426"><ele>192.33333333333331</ele><time>2026-04-06T05:10:24.579Z</time></trkpt><trkpt lat="45.7788747" lon="11.7049239"><ele>191.0</ele><time>2026-04-06T05:10:25.579Z</time></trkpt><trkpt lat="45.7787811" lon="11.7050791"><ele>191.0</ele><time>2026-04-06T05:10:26.578Z</time></trkpt><trkpt lat="45.7785995" lon="11.7051844"><ele>191.0</ele><time>2026-04-06T05:10:27.592Z</time></trkpt><trkpt lat="45.7785259" lon="11.7053294"><ele>191.0</ele><time>2026-04-06T05:10:28.585Z</time></trkpt><trkpt lat="45.7784994" lon="11.7055328"><ele>180.0</ele><time>2026-04-06T05:10:29.593Z</time></trkpt><trkpt lat="45.7784939" lon="11.7057268"><ele>169.0</ele><time>2026-04-06T05:10:30.582Z</time></trkpt><trkpt lat="45.7784825" lon="11.7059468"><ele>158.0</ele><time>2026-04-06T05:10:31.583Z</time></trkpt><trkpt lat="45.7783737" lon="11.7061382"><ele>157.66666666666666</ele><time>2026-04-06T05:10:32.589Z</time></trkpt><trkpt lat="45.7782397" lon="11.7063341"><ele>157.33333333333334</ele><time>2026-04-06T05:10:33.588Z</time></trkpt><trkpt lat="45.7780873" lon="11.706538"><ele>157.0</ele><time>2026-04-06T05:10:34.742Z</time></trkpt><trkpt lat="45.7778517" lon="11.7068891"><ele>156.66666666666669</ele><time>2026-04-06T05:10:36.592Z</time></trkpt><trkpt lat="45.7777197" lon="11.7070223"><ele>156.33333333333334</ele><time>2026-04-06T05:10:37.59Z</time></trkpt><trkpt lat="45.7776337" lon="11.7072137"><ele>156.0</ele><time>2026-04-06T05:10:38.607Z</time></trkpt><trkpt lat="45.7775684" lon="11.7074184"><ele>159.33333333333334</ele><time>2026-04-06T05:10:39.581Z</time></trkpt><trkpt lat="45.7775072" lon="11.7075937"><ele>162.66666666666669</ele><time>2026-04-06T05:10:40.584Z</time></trkpt><trkpt lat="45.7775087" lon="11.7078508"><ele>166.0</ele><time>2026-04-06T05:10:41.612Z</time></trkpt><trkpt lat="45.7775529" lon="11.7081284"><ele>166.0</ele><time>2026-04-06T05:10:42.609Z</time></trkpt><trkpt lat="45.777608" lon="11.7084178"><ele>166.0</ele><time>2026-04-06T05:10:43.581Z</time></trkpt><trkpt lat="45.7776692" lon="11.7087666"><ele>161.33333333333334</ele><time>2026-04-06T05:10:44.591Z</time></trkpt><trkpt lat="45.7777256" lon="11.709087"><ele>156.66666666666666</ele><time>2026-04-06T05:10:45.588Z</time></trkpt><trkpt lat="45.7777625" lon="11.7093909"><ele>152.0</ele><time>2026-04-06T05:10:46.594Z</time></trkpt><trkpt lat="45.7778109" lon="11.7096719"><ele>150.33333333333331</ele><time>2026-04-06T05:10:47.591Z</time></trkpt><trkpt lat="45.7778581" lon="11.7099605"><ele>148.66666666666666</ele><time>2026-04-06T05:10:48.59Z</time></trkpt><trkpt lat="45.7779129" lon="11.7102374"><ele>147.0</ele><time>2026-04-06T05:10:49.583Z</time></trkpt><trkpt lat="45.7779593" lon="11.7105155"><ele>147.0</ele><time>2026-04-06T05:10:50.591Z</time></trkpt><trkpt lat="45.7779875" lon="11.7107776"><ele>147.0</ele><time>2026-04-06T05:10:51.587Z</time></trkpt><trkpt lat="45.7779949" lon="11.7110284"><ele>147.0</ele><time>2026-04-06T05:10:52.602Z</time></trkpt><trkpt lat="45.7779551" lon="11.7112755"><ele>147.0</ele><time>2026-04-06T05:10:53.588Z</time></trkpt><trkpt lat="45.7778841" lon="11.7114948"><ele>147.0</ele><time>2026-04-06T05:10:54.588Z</time></trkpt><trkpt lat="45.7778514" lon="11.7116856"><ele>147.0</ele><time>2026-04-06T05:10:55.588Z</time></trkpt><trkpt lat="45.7778132" lon="11.7118842"><ele>147.0</ele><time>2026-04-06T05:10:56.585Z</time></trkpt><trkpt lat="45.7777796" lon="11.7120608"><ele>148.66666666666666</ele><time>2026-04-06T05:10:57.579Z</time></trkpt><trkpt lat="45.7777183" lon="11.7122262"><ele>150.33333333333331</ele><time>2026-04-06T05:10:58.586Z</time></trkpt><trkpt lat="45.7776101" lon="11.7123614"><ele>152.0</ele><time>2026-04-06T05:10:59.585Z</time></trkpt><trkpt lat="45.7774527" lon="11.7125152"><ele>152.0</ele><time>2026-04-06T05:11:00.575Z</time></trkpt><trkpt lat="45.7772969" lon="11.7126353"><ele>152.0</ele><time>2026-04-06T05:11:01.601Z</time></trkpt><trkpt lat="45.777193" lon="11.7127897"><ele>152.0</ele><time>2026-04-06T05:11:02.578Z</time></trkpt><trkpt lat="45.7770401" lon="11.7129086"><ele>152.66666666666666</ele><time>2026-04-06T05:11:03.578Z</time></trkpt><trkpt lat="45.7769107" lon="11.7130685"><ele>153.33333333333334</ele><time>2026-04-06T05:11:04.582Z</time></trkpt><trkpt lat="45.7767876" lon="11.713282"><ele>154.0</ele><time>2026-04-06T05:11:05.583Z</time></trkpt><trkpt lat="45.7766951" lon="11.7134887"><ele>151.0</ele><time>2026-04-06T05:11:06.594Z</time></trkpt><trkpt lat="45.7766511" lon="11.7136973"><ele>148.0</ele><time>2026-04-06T05:11:07.588Z</time></trkpt><trkpt lat="45.7765696" lon="11.7137485"><ele>145.0</ele><time>2026-04-06T05:11:08.583Z</time></trkpt><trkpt lat="45.7765073" lon="11.7137822"><ele>142.0</ele><time>2026-04-06T05:11:09.584Z</time></trkpt><trkpt lat="45.7763381" lon="11.7137318"><ele>142.0</ele><time>2026-04-06T05:11:11.589Z</time></trkpt><trkpt lat="45.7761487" lon="11.7136679"><ele>142.0</ele><time>2026-04-06T05:11:12.575Z</time></trkpt><trkpt lat="45.7759631" lon="11.7136777"><ele>142.0</ele><time>2026-04-06T05:11:13.585Z</time></trkpt><trkpt lat="45.7758025" lon="11.7137466"><ele>141.33333333333334</ele><time>2026-04-06T05:11:14.582Z</time></trkpt><trkpt lat="45.7756491" lon="11.7138543"><ele>140.66666666666666</ele><time>2026-04-06T05:11:15.589Z</time></trkpt><trkpt lat="45.7755292" lon="11.7140052"><ele>140.0</ele><time>2026-04-06T05:11:16.582Z</time></trkpt><trkpt lat="45.7754286" lon="11.7141655"><ele>140.0</ele><time>2026-04-06T05:11:17.591Z</time></trkpt><trkpt lat="45.7753656" lon="11.7143532"><ele>140.0</ele><time>2026-04-06T05:11:18.583Z</time></trkpt><trkpt lat="45.7753349" lon="11.7145783"><ele>140.0</ele><time>2026-04-06T05:11:19.58Z</time></trkpt><trkpt lat="45.7752861" lon="11.7147838"><ele>140.25</ele><time>2026-04-06T05:11:20.574Z</time></trkpt><trkpt lat="45.7752505" lon="11.7149796"><ele>140.5</ele><time>2026-04-06T05:11:21.584Z</time></trkpt><trkpt lat="45.7752206" lon="11.7151664"><ele>140.75</ele><time>2026-04-06T05:11:22.579Z</time></trkpt><trkpt lat="45.7751743" lon="11.7152864"><ele>141.0</ele><time>2026-04-06T05:11:23.581Z</time></trkpt><trkpt lat="45.7750631" lon="11.7153985"><ele>141.0</ele><time>2026-04-06T05:11:24.579Z</time></trkpt><trkpt lat="45.7749259" lon="11.7154605"><ele>141.0</ele><time>2026-04-06T05:11:25.572Z</time></trkpt><trkpt lat="45.7747544" lon="11.7154886"><ele>141.0</ele><time>2026-04-06T05:11:26.577Z</time></trkpt><trkpt lat="45.774571" lon="11.7155111"><ele>141.0</ele><time>2026-04-06T05:11:27.58Z</time></trkpt><trkpt lat="45.7743569" lon="11.7155811"><ele>141.0</ele><time>2026-04-06T05:11:28.598Z</time></trkpt><trkpt lat="45.7741531" lon="11.715679"><ele>141.0</ele><time>2026-04-06T05:11:29.6Z</time></trkpt><trkpt lat="45.7739314" lon="11.7158039"><ele>139.5</ele><time>2026-04-06T05:11:30.602Z</time></trkpt><trkpt lat="45.7736929" lon="11.7159402"><ele>138.0</ele><time>2026-04-06T05:11:31.576Z</time></trkpt><trkpt lat="45.7734605" lon="11.7160518"><ele>136.66666666666666</ele><time>2026-04-06T05:11:32.582Z</time></trkpt><trkpt lat="45.7732816" lon="11.7161957"><ele>135.33333333333331</ele><time>2026-04-06T05:11:33.58Z</time></trkpt><trkpt lat="45.773076" lon="11.71632"><ele>134.0</ele><time>2026-04-06T05:11:34.594Z</time></trkpt><trkpt lat="45.7728986" lon="11.7164352"><ele>134.0</ele><time>2026-04-06T05:11:35.586Z</time></trkpt><trkpt lat="45.7727266" lon="11.7165483"><ele>134.0</ele><time>2026-04-06T05:11:36.6Z</time></trkpt><trkpt lat="45.772583" lon="11.7166487"><ele>134.0</ele><time>2026-04-06T05:11:37.582Z</time></trkpt><trkpt lat="45.7724268" lon="11.7167947"><ele>133.66666666666666</ele><time>2026-04-06T05:11:38.629Z</time></trkpt><trkpt lat="45.7722353" lon="11.7169737"><ele>133.33333333333334</ele><time>2026-04-06T05:11:39.611Z</time></trkpt><trkpt lat="45.7720646" lon="11.7171372"><ele>133.0</ele><time>2026-04-06T05:11:40.582Z</time></trkpt><trkpt lat="45.7718894" lon="11.7172732"><ele>132.66666666666669</ele><time>2026-04-06T05:11:41.58Z</time></trkpt><trkpt lat="45.7717367" lon="11.7174275"><ele>132.33333333333334</ele><time>2026-04-06T05:11:42.579Z</time></trkpt><trkpt lat="45.7716116" lon="11.7176082"><ele>132.0</ele><time>2026-04-06T05:11:43.574Z</time></trkpt><trkpt lat="45.771494" lon="11.7177663"><ele>132.0</ele><time>2026-04-06T05:11:44.578Z</time></trkpt><trkpt lat="45.7713649" lon="11.7179469"><ele>132.0</ele><time>2026-04-06T05:11:45.58Z</time></trkpt><trkpt lat="45.771239" lon="11.718083"><ele>132.0</ele><time>2026-04-06T05:11:46.601Z</time></trkpt><trkpt lat="45.7710966" lon="11.7182271"><ele>132.0</ele><time>2026-04-06T05:11:47.574Z</time></trkpt><trkpt lat="45.7709741" lon="11.7183898"><ele>132.0</ele><time>2026-04-06T05:11:48.583Z</time></trkpt><trkpt lat="45.7708425" lon="11.718526"><ele>132.0</ele><time>2026-04-06T05:11:49.583Z</time></trkpt><trkpt lat="45.7707344" lon="11.7186596"><ele>132.0</ele><time>2026-04-06T05:11:50.581Z</time></trkpt><trkpt lat="45.7706255" lon="11.7188233"><ele>132.0</ele><time>2026-04-06T05:11:51.579Z</time></trkpt><trkpt lat="45.7705063" lon="11.7189494"><ele>132.0</ele><time>2026-04-06T05:11:52.587Z</time></trkpt><trkpt lat="45.7703587" lon="11.7190894"><ele>132.0</ele><time>2026-04-06T05:11:53.584Z</time></trkpt><trkpt lat="45.7701937" lon="11.7192338"><ele>132.0</ele><time>2026-04-06T05:11:54.583Z</time></trkpt><trkpt lat="45.7700254" lon="11.7193673"><ele>132.0</ele><time>2026-04-06T05:11:55.583Z</time></trkpt><trkpt lat="45.769874" lon="11.719467"><ele>131.33333333333334</ele><time>2026-04-06T05:11:56.585Z</time></trkpt><trkpt lat="45.7697329" lon="11.7196138"><ele>130.66666666666669</ele><time>2026-04-06T05:11:57.609Z</time></trkpt><trkpt lat="45.7695979" lon="11.7197597"><ele>130.0</ele><time>2026-04-06T05:11:58.604Z</time></trkpt><trkpt lat="45.769473" lon="11.719916"><ele>128.66666666666669</ele><time>2026-04-06T05:11:59.602Z</time></trkpt><trkpt lat="45.7693463" lon="11.7200667"><ele>127.33333333333334</ele><time>2026-04-06T05:12:00.585Z</time></trkpt><trkpt lat="45.7692087" lon="11.7202302"><ele>126.0</ele><time>2026-04-06T05:12:01.57Z</time></trkpt><trkpt lat="45.7690402" lon="11.7203674"><ele>126.0</ele><time>2026-04-06T05:12:02.581Z</time></trkpt><trkpt lat="45.7688642" lon="11.7205164"><ele>126.0</ele><time>2026-04-06T05:12:03.605Z</time></trkpt><trkpt lat="45.7687074" lon="11.7206474"><ele>126.0</ele><time>2026-04-06T05:12:04.577Z</time></trkpt><trkpt lat="45.7685621" lon="11.7207626"><ele>125.4</ele><time>2026-04-06T05:12:05.614Z</time></trkpt><trkpt lat="45.7684575" lon="11.7208626"><ele>124.8</ele><time>2026-04-06T05:12:06.607Z</time></trkpt><trkpt lat="45.7683497" lon="11.7209315"><ele>124.20000000000002</ele><time>2026-04-06T05:12:07.581Z</time></trkpt><trkpt lat="45.7682873" lon="11.7209757"><ele>123.60000000000001</ele><time>2026-04-06T05:12:08.589Z</time></trkpt><trkpt lat="45.7681971" lon="11.7209808"><ele>123.0</ele><time>2026-04-06T05:12:10.582Z</time></trkpt><trkpt lat="45.7681519" lon="11.7210546"><ele>123.0</ele><time>2026-04-06T05:12:11.612Z</time></trkpt><trkpt lat="45.7680839" lon="11.7211023"><ele>123.0</ele><time>2026-04-06T05:12:12.61Z</time></trkpt><trkpt lat="45.7680475" lon="11.7211846"><ele>123.0</ele><time>2026-04-06T05:12:13.578Z</time></trkpt><trkpt lat="45.7680464" lon="11.721324"><ele>123.0</ele><time>2026-04-06T05:12:14.585Z</time></trkpt><trkpt lat="45.7680254" lon="11.7214401"><ele>123.0</ele><time>2026-04-06T05:12:15.611Z</time></trkpt><trkpt lat="45.7679787" lon="11.7215318"><ele>123.0</ele><time>2026-04-06T05:12:16.59Z</time></trkpt><trkpt lat="45.7679612" lon="11.7216648"><ele>123.0</ele><time>2026-04-06T05:12:17.586Z</time></trkpt><trkpt lat="45.7678928" lon="11.7217557"><ele>123.0</ele><time>2026-04-06T05:12:18.586Z</time></trkpt><trkpt lat="45.7678717" lon="11.7218954"><ele>123.0</ele><time>2026-04-06T05:12:19.587Z</time></trkpt><trkpt lat="45.7678466" lon="11.722008"><ele>123.0</ele><time>2026-04-06T05:12:20.582Z</time></trkpt><trkpt lat="45.7678339" lon="11.7221222"><ele>123.0</ele><time>2026-04-06T05:12:21.615Z</time></trkpt><trkpt lat="45.7678118" lon="11.7222345"><ele>123.0</ele><time>2026-04-06T05:12:22.582Z</time></trkpt><trkpt lat="45.7678337" lon="11.7224095"><ele>122.5</ele><time>2026-04-06T05:12:23.586Z</time></trkpt><trkpt lat="45.767831" lon="11.7225821"><ele>122.0</ele><time>2026-04-06T05:12:24.579Z</time></trkpt><trkpt lat="45.7678384" lon="11.7227554"><ele>121.5</ele><time>2026-04-06T05:12:25.592Z</time></trkpt><trkpt lat="45.7678173" lon="11.7229129"><ele>121.0</ele><time>2026-04-06T05:12:26.585Z</time></trkpt><trkpt lat="45.7677904" lon="11.7230714"><ele>120.4</ele><time>2026-04-06T05:12:27.585Z</time></trkpt><trkpt lat="45.767758" lon="11.7232098"><ele>119.8</ele><time>2026-04-06T05:12:28.579Z</time></trkpt><trkpt lat="45.7676924" lon="11.7233032"><ele>119.20000000000002</ele><time>2026-04-06T05:12:29.577Z</time></trkpt><trkpt lat="45.7675974" lon="11.7233973"><ele>118.60000000000001</ele><time>2026-04-06T05:12:30.576Z</time></trkpt><trkpt lat="45.7674894" lon="11.7235003"><ele>118.0</ele><time>2026-04-06T05:12:31.576Z</time></trkpt><trkpt lat="45.7673895" lon="11.7235849"><ele>117.60000000000001</ele><time>2026-04-06T05:12:32.573Z</time></trkpt><trkpt lat="45.7672589" lon="11.7236194"><ele>117.20000000000002</ele><time>2026-04-06T05:12:33.584Z</time></trkpt><trkpt lat="45.7671741" lon="11.72369"><ele>116.8</ele><time>2026-04-06T05:12:34.578Z</time></trkpt><trkpt lat="45.7670923" lon="11.7237496"><ele>116.4</ele><time>2026-04-06T05:12:35.592Z</time></trkpt><trkpt lat="45.7670041" lon="11.7237789"><ele>116.0</ele><time>2026-04-06T05:12:36.588Z</time></trkpt><trkpt lat="45.7669587" lon="11.7239202"><ele>116.0</ele><time>2026-04-06T05:12:38.584Z</time></trkpt><trkpt lat="45.7669584" lon="11.724025"><ele>116.0</ele><time>2026-04-06T05:12:39.595Z</time></trkpt><trkpt lat="45.7669244" lon="11.7241132"><ele>116.0</ele><time>2026-04-06T05:12:40.58Z</time></trkpt><trkpt lat="45.7668989" lon="11.7242214"><ele>116.0</ele><time>2026-04-06T05:12:41.587Z</time></trkpt><trkpt lat="45.7668315" lon="11.7243217"><ele>116.0</ele><time>2026-04-06T05:12:42.581Z</time></trkpt><trkpt lat="45.7667722" lon="11.7245203"><ele>116.0</ele><time>2026-04-06T05:12:43.577Z</time></trkpt><trkpt lat="45.7666607" lon="11.7246983"><ele>116.0</ele><time>2026-04-06T05:12:44.58Z</time></trkpt><trkpt lat="45.7665427" lon="11.7249642"><ele>116.0</ele><time>2026-04-06T05:12:45.574Z</time></trkpt><trkpt lat="45.7664742" lon="11.7252905"><ele>115.0</ele><time>2026-04-06T05:12:46.578Z</time></trkpt><trkpt lat="45.766414" lon="11.7255699"><ele>114.0</ele><time>2026-04-06T05:12:47.583Z</time></trkpt><trkpt lat="45.7663464" lon="11.725805"><ele>113.0</ele><time>2026-04-06T05:12:48.579Z</time></trkpt><trkpt lat="45.7662805" lon="11.7260171"><ele>112.66666666666666</ele><time>2026-04-06T05:12:49.575Z</time></trkpt><trkpt lat="45.7662422" lon="11.7262315"><ele>112.33333333333334</ele><time>2026-04-06T05:12:50.577Z</time></trkpt><trkpt lat="45.7661644" lon="11.726439"><ele>112.0</ele><time>2026-04-06T05:12:51.577Z</time></trkpt><trkpt lat="45.766104" lon="11.7266173"><ele>112.0</ele><time>2026-04-06T05:12:52.583Z</time></trkpt><trkpt lat="45.7660587" lon="11.7267651"><ele>111.99999999999999</ele><time>2026-04-06T05:12:53.663Z</time></trkpt><trkpt lat="45.7659994" lon="11.726912"><ele>111.99999999999999</ele><time>2026-04-06T05:12:54.581Z</time></trkpt><trkpt lat="45.7659523" lon="11.7270375"><ele>112.0</ele><time>2026-04-06T05:12:55.575Z</time></trkpt><trkpt lat="45.765865" lon="11.7270979"><ele>112.0</ele><time>2026-04-06T05:12:56.749Z</time></trkpt><trkpt lat="45.7656997" lon="11.7272759"><ele>112.25</ele><time>2026-04-06T05:12:58.6Z</time></trkpt><trkpt lat="45.7656387" lon="11.7273952"><ele>112.5</ele><time>2026-04-06T05:12:59.63Z</time></trkpt><trkpt lat="45.7655713" lon="11.7275228"><ele>112.75</ele><time>2026-04-06T05:13:00.58Z</time></trkpt><trkpt lat="45.7655529" lon="11.7277064"><ele>113.0</ele><time>2026-04-06T05:13:01.574Z</time></trkpt><trkpt lat="45.7654892" lon="11.7279015"><ele>113.33333333333333</ele><time>2026-04-06T05:13:02.582Z</time></trkpt><trkpt lat="45.7654157" lon="11.7281186"><ele>113.66666666666666</ele><time>2026-04-06T05:13:03.579Z</time></trkpt><trkpt lat="45.7653124" lon="11.7283598"><ele>114.0</ele><time>2026-04-06T05:13:04.602Z</time></trkpt><trkpt lat="45.765238" lon="11.7285179"><ele>113.0</ele><time>2026-04-06T05:13:05.578Z</time></trkpt><trkpt lat="45.7651688" lon="11.728722"><ele>112.0</ele><time>2026-04-06T05:13:06.589Z</time></trkpt><trkpt lat="45.7650843" lon="11.728897"><ele>111.0</ele><time>2026-04-06T05:13:07.58Z</time></trkpt><trkpt lat="45.7650378" lon="11.7290674"><ele>110.0</ele><time>2026-04-06T05:13:08.583Z</time></trkpt><trkpt lat="45.7650048" lon="11.7292484"><ele>108.0</ele><time>2026-04-06T05:13:09.579Z</time></trkpt><trkpt lat="45.7649515" lon="11.7294157"><ele>106.0</ele><time>2026-04-06T05:13:10.59Z</time></trkpt><trkpt lat="45.7648729" lon="11.7296066"><ele>104.0</ele><time>2026-04-06T05:13:11.58Z</time></trkpt><trkpt lat="45.76475" lon="11.7298195"><ele>104.0</ele><time>2026-04-06T05:13:12.59Z</time></trkpt><trkpt lat="45.7646642" lon="11.7300431"><ele>104.0</ele><time>2026-04-06T05:13:13.585Z</time></trkpt><trkpt lat="45.7645557" lon="11.7302414"><ele>104.0</ele><time>2026-04-06T05:13:14.599Z</time></trkpt><trkpt lat="45.7644753" lon="11.7304081"><ele>105.25</ele><time>2026-04-06T05:13:15.588Z</time></trkpt><trkpt lat="45.7644202" lon="11.7306219"><ele>106.5</ele><time>2026-04-06T05:13:16.596Z</time></trkpt><trkpt lat="45.7643747" lon="11.7307776"><ele>107.75</ele><time>2026-04-06T05:13:17.586Z</time></trkpt><trkpt lat="45.7642894" lon="11.7309394"><ele>109.0</ele><time>2026-04-06T05:13:18.589Z</time></trkpt><trkpt lat="45.7640625" lon="11.7313423"><ele>110.75</ele><time>2026-04-06T05:13:20.59Z</time></trkpt><trkpt lat="45.7639655" lon="11.7315475"><ele>112.5</ele><time>2026-04-06T05:13:21.582Z</time></trkpt><trkpt lat="45.7638609" lon="11.7316657"><ele>114.25</ele><time>2026-04-06T05:13:22.615Z</time></trkpt><trkpt lat="45.7637781" lon="11.7318022"><ele>116.0</ele><time>2026-04-06T05:13:23.634Z</time></trkpt><trkpt lat="45.7636574" lon="11.7318606"><ele>116.33333333333333</ele><time>2026-04-06T05:13:24.585Z</time></trkpt><trkpt lat="45.7635179" lon="11.7319366"><ele>116.66666666666666</ele><time>2026-04-06T05:13:25.591Z</time></trkpt><trkpt lat="45.7633337" lon="11.7319405"><ele>117.0</ele><time>2026-04-06T05:13:26.577Z</time></trkpt><trkpt lat="45.7631322" lon="11.7319261"><ele>117.0</ele><time>2026-04-06T05:13:27.593Z</time></trkpt><trkpt lat="45.7629187" lon="11.7318945"><ele>117.0</ele><time>2026-04-06T05:13:28.581Z</time></trkpt><trkpt lat="45.7626994" lon="11.7318521"><ele>117.0</ele><time>2026-04-06T05:13:29.677Z</time></trkpt><trkpt lat="45.7624543" lon="11.7318483"><ele>115.5</ele><time>2026-04-06T05:13:30.589Z</time></trkpt><trkpt lat="45.7622134" lon="11.7318576"><ele>114.0</ele><time>2026-04-06T05:13:31.586Z</time></trkpt><trkpt lat="45.7619936" lon="11.7318529"><ele>112.66666666666666</ele><time>2026-04-06T05:13:32.59Z</time></trkpt><trkpt lat="45.7617946" lon="11.7318504"><ele>111.33333333333333</ele><time>2026-04-06T05:13:33.582Z</time></trkpt><trkpt lat="45.7616368" lon="11.7318348"><ele>110.0</ele><time>2026-04-06T05:13:34.582Z</time></trkpt><trkpt lat="45.7614745" lon="11.7318322"><ele>110.0</ele><time>2026-04-06T05:13:35.586Z</time></trkpt><trkpt lat="45.7613307" lon="11.7318259"><ele>110.0</ele><time>2026-04-06T05:13:36.592Z</time></trkpt><trkpt lat="45.7611991" lon="11.7318085"><ele>110.0</ele><time>2026-04-06T05:13:37.591Z</time></trkpt><trkpt lat="45.7610744" lon="11.7318254"><ele>110.0</ele><time>2026-04-06T05:13:38.581Z</time></trkpt><trkpt lat="45.7609887" lon="11.7318319"><ele>110.0</ele><time>2026-04-06T05:13:39.595Z</time></trkpt><trkpt lat="45.7608903" lon="11.731837"><ele>110.0</ele><time>2026-04-06T05:13:40.586Z</time></trkpt><trkpt lat="45.7607618" lon="11.7318313"><ele>110.0</ele><time>2026-04-06T05:13:41.583Z</time></trkpt><trkpt lat="45.7606413" lon="11.7317919"><ele>110.0</ele><time>2026-04-06T05:13:42.587Z</time></trkpt><trkpt lat="45.7605617" lon="11.731741"><ele>110.0</ele><time>2026-04-06T05:13:43.595Z</time></trkpt><trkpt lat="45.7604969" lon="11.7317304"><ele>110.0</ele><time>2026-04-06T05:13:44.59Z</time></trkpt><trkpt lat="45.760356" lon="11.731697"><ele>110.0</ele><time>2026-04-06T05:13:46.584Z</time></trkpt><trkpt lat="45.7602692" lon="11.7317101"><ele>110.0</ele><time>2026-04-06T05:13:47.607Z</time></trkpt><trkpt lat="45.7602126" lon="11.7317589"><ele>110.0</ele><time>2026-04-06T05:13:48.587Z</time></trkpt><trkpt lat="45.7602309" lon="11.7318975"><ele>110.0</ele><time>2026-04-06T05:13:50.588Z</time></trkpt><trkpt lat="45.760276" lon="11.7319873"><ele>110.5</ele><time>2026-04-06T05:13:51.58Z</time></trkpt><trkpt lat="45.7603613" lon="11.7321255"><ele>111.0</ele><time>2026-04-06T05:13:52.603Z</time></trkpt><trkpt lat="45.7604403" lon="11.7322273"><ele>111.5</ele><time>2026-04-06T05:13:53.583Z</time></trkpt><trkpt lat="45.7604637" lon="11.7323711"><ele>112.0</ele><time>2026-04-06T05:13:54.605Z</time></trkpt><trkpt lat="45.7604901" lon="11.7325526"><ele>112.25</ele><time>2026-04-06T05:13:55.587Z</time></trkpt><trkpt lat="45.760482" lon="11.7327451"><ele>112.5</ele><time>2026-04-06T05:13:56.585Z</time></trkpt><trkpt lat="45.7604659" lon="11.7329619"><ele>112.75</ele><time>2026-04-06T05:13:57.582Z</time></trkpt><trkpt lat="45.7604322" lon="11.7331709"><ele>113.0</ele><time>2026-04-06T05:13:58.578Z</time></trkpt><trkpt lat="45.7604084" lon="11.7333996"><ele>113.66666666666666</ele><time>2026-04-06T05:13:59.588Z</time></trkpt><trkpt lat="45.7603554" lon="11.7336636"><ele>114.33333333333334</ele><time>2026-04-06T05:14:00.586Z</time></trkpt><trkpt lat="45.7602947" lon="11.7338971"><ele>115.0</ele><time>2026-04-06T05:14:01.577Z</time></trkpt><trkpt lat="45.7601735" lon="11.7340642"><ele>115.0</ele><time>2026-04-06T05:14:02.577Z</time></trkpt><trkpt lat="45.7601075" lon="11.7342715"><ele>115.0</ele><time>2026-04-06T05:14:03.581Z</time></trkpt><trkpt lat="45.7600025" lon="11.7344579"><ele>115.0</ele><time>2026-04-06T05:14:04.584Z</time></trkpt><trkpt lat="45.7600386" lon="11.7347066"><ele>114.5</ele><time>2026-04-06T05:14:05.581Z</time></trkpt><trkpt lat="45.7602201" lon="11.7350027"><ele>114.0</ele><time>2026-04-06T05:14:06.672Z</time></trkpt><trkpt lat="45.7603868" lon="11.7352265"><ele>114.0</ele><time>2026-04-06T05:14:07.583Z</time></trkpt><trkpt lat="45.7604904" lon="11.7354514"><ele>114.0</ele><time>2026-04-06T05:14:08.609Z</time></trkpt><trkpt lat="45.7606066" lon="11.735704"><ele>114.0</ele><time>2026-04-06T05:14:09.585Z</time></trkpt><trkpt lat="45.7607053" lon="11.7359493"><ele>114.0</ele><time>2026-04-06T05:14:10.593Z</time></trkpt><trkpt lat="45.7608043" lon="11.7361982"><ele>114.0</ele><time>2026-04-06T05:14:11.58Z</time></trkpt><trkpt lat="45.7608941" lon="11.7364103"><ele>114.0</ele><time>2026-04-06T05:14:12.586Z</time></trkpt><trkpt lat="45.7609519" lon="11.7366411"><ele>114.0</ele><time>2026-04-06T05:14:13.582Z</time></trkpt><trkpt lat="45.7609923" lon="11.7368337"><ele>114.0</ele><time>2026-04-06T05:14:14.582Z</time></trkpt><trkpt lat="45.7610341" lon="11.7369727"><ele>114.0</ele><time>2026-04-06T05:14:15.571Z</time></trkpt><trkpt lat="45.7611182" lon="11.737119"><ele>114.0</ele><time>2026-04-06T05:14:16.587Z</time></trkpt><trkpt lat="45.7611441" lon="11.7372251"><ele>114.75</ele><time>2026-04-06T05:14:17.901Z</time></trkpt><trkpt lat="45.7611334" lon="11.7373533"><ele>115.5</ele><time>2026-04-06T05:14:18.908Z</time></trkpt><trkpt lat="45.7611401" lon="11.737482"><ele>116.25</ele><time>2026-04-06T05:14:19.904Z</time></trkpt><trkpt lat="45.7611034" lon="11.7376453"><ele>117.0</ele><time>2026-04-06T05:14:20.989Z</time></trkpt><trkpt lat="45.7609891" lon="11.7381144"><ele>117.33333333333334</ele><time>2026-04-06T05:14:22.59Z</time></trkpt><trkpt lat="45.7609316" lon="11.7383234"><ele>117.66666666666667</ele><time>2026-04-06T05:14:23.584Z</time></trkpt><trkpt lat="45.7609017" lon="11.7385547"><ele>118.0</ele><time>2026-04-06T05:14:24.6Z</time></trkpt><trkpt lat="45.7609567" lon="11.7387987"><ele>118.80000000000001</ele><time>2026-04-06T05:14:25.569Z</time></trkpt><trkpt lat="45.7609686" lon="11.7389719"><ele>119.60000000000001</ele><time>2026-04-06T05:14:26.558Z</time></trkpt><trkpt lat="45.7609571" lon="11.739106"><ele>120.39999999999999</ele><time>2026-04-06T05:14:27.567Z</time></trkpt><trkpt lat="45.7609673" lon="11.7392392"><ele>121.19999999999999</ele><time>2026-04-06T05:14:28.559Z</time></trkpt><trkpt lat="45.7609857" lon="11.7393287"><ele>122.0</ele><time>2026-04-06T05:14:29.55Z</time></trkpt><trkpt lat="45.7609069" lon="11.7393283"><ele>122.5</ele><time>2026-04-06T05:14:34.586Z</time></trkpt><trkpt lat="45.7608779" lon="11.7395229"><ele>123.0</ele><time>2026-04-06T05:14:53.565Z</time></trkpt><trkpt lat="45.7608681" lon="11.7397462"><ele>123.5</ele><time>2026-04-06T05:14:54.556Z</time></trkpt><trkpt lat="45.7608408" lon="11.7399356"><ele>124.0</ele><time>2026-04-06T05:14:55.572Z</time></trkpt><trkpt lat="45.7608289" lon="11.7401566"><ele>124.66666666666667</ele><time>2026-04-06T05:14:56.573Z</time></trkpt><trkpt lat="45.7608192" lon="11.7404117"><ele>125.33333333333334</ele><time>2026-04-06T05:14:57.578Z</time></trkpt><trkpt lat="45.7608116" lon="11.7406591"><ele>126.0</ele><time>2026-04-06T05:14:58.583Z</time></trkpt><trkpt lat="45.7607616" lon="11.7408597"><ele>126.0</ele><time>2026-04-06T05:14:59.577Z</time></trkpt><trkpt lat="45.7607612" lon="11.7409928"><ele>126.0</ele><time>2026-04-06T05:15:00.561Z</time></trkpt><trkpt lat="45.760788" lon="11.7411406"><ele>126.0</ele><time>2026-04-06T05:15:01.544Z</time></trkpt><trkpt lat="45.7608528" lon="11.7412322"><ele>126.0</ele><time>2026-04-06T05:15:02.549Z</time></trkpt><trkpt lat="45.7609357" lon="11.7412858"><ele>126.0</ele><time>2026-04-06T05:15:04.54Z</time></trkpt><trkpt lat="45.761013" lon="11.7412799"><ele>126.0</ele><time>2026-04-06T05:15:05.54Z</time></trkpt><trkpt lat="45.7612106" lon="11.7412041"><ele>126.0</ele><time>2026-04-06T05:15:06.546Z</time></trkpt><trkpt lat="45.7613998" lon="11.7410432"><ele>126.0</ele><time>2026-04-06T05:15:07.561Z</time></trkpt><trkpt lat="45.7616508" lon="11.7408767"><ele>126.5</ele><time>2026-04-06T05:15:08.563Z</time></trkpt><trkpt lat="45.7619423" lon="11.7406941"><ele>127.0</ele><time>2026-04-06T05:15:09.554Z</time></trkpt><trkpt lat="45.7622585" lon="11.7405306"><ele>127.0</ele><time>2026-04-06T05:15:10.565Z</time></trkpt><trkpt lat="45.7625434" lon="11.7403519"><ele>127.0</ele><time>2026-04-06T05:15:11.583Z</time></trkpt><trkpt lat="45.7628106" lon="11.740226"><ele>129.0</ele><time>2026-04-06T05:15:12.579Z</time></trkpt><trkpt lat="45.7630795" lon="11.7401363"><ele>131.0</ele><time>2026-04-06T05:15:13.579Z</time></trkpt><trkpt lat="45.7633084" lon="11.7400287"><ele>131.0</ele><time>2026-04-06T05:15:14.576Z</time></trkpt><trkpt lat="45.7634928" lon="11.7399143"><ele>131.0</ele><time>2026-04-06T05:15:15.571Z</time></trkpt><trkpt lat="45.763698" lon="11.7398075"><ele>131.0</ele><time>2026-04-06T05:15:16.561Z</time></trkpt><trkpt lat="45.7638845" lon="11.7396859"><ele>132.0</ele><time>2026-04-06T05:15:17.573Z</time></trkpt><trkpt lat="45.7640601" lon="11.7396205"><ele>133.0</ele><time>2026-04-06T05:15:18.577Z</time></trkpt><trkpt lat="45.7641907" lon="11.7395298"><ele>134.0</ele><time>2026-04-06T05:15:19.58Z</time></trkpt><trkpt lat="45.7643266" lon="11.7394641"><ele>133.33333333333331</ele><time>2026-04-06T05:15:20.562Z</time></trkpt><trkpt lat="45.7644856" lon="11.739371"><ele>132.66666666666666</ele><time>2026-04-06T05:15:21.593Z</time></trkpt><trkpt lat="45.7646518" lon="11.7393563"><ele>132.0</ele><time>2026-04-06T05:15:22.57Z</time></trkpt><trkpt lat="45.7647693" lon="11.7393019"><ele>132.0</ele><time>2026-04-06T05:15:23.568Z</time></trkpt><trkpt lat="45.7648461" lon="11.7392408"><ele>132.0</ele><time>2026-04-06T05:15:24.564Z</time></trkpt><trkpt lat="45.7649362" lon="11.7391691"><ele>132.0</ele><time>2026-04-06T05:15:25.567Z</time></trkpt><trkpt lat="45.7650277" lon="11.7391373"><ele>132.0</ele><time>2026-04-06T05:15:26.561Z</time></trkpt><trkpt lat="45.7650999" lon="11.7391098"><ele>132.0</ele><time>2026-04-06T05:15:27.565Z</time></trkpt><trkpt lat="45.7651821" lon="11.73909"><ele>132.0</ele><time>2026-04-06T05:15:28.574Z</time></trkpt><trkpt lat="45.765264" lon="11.7390566"><ele>132.2</ele><time>2026-04-06T05:15:29.575Z</time></trkpt><trkpt lat="45.7653486" lon="11.7390278"><ele>132.39999999999998</ele><time>2026-04-06T05:15:30.56Z</time></trkpt><trkpt lat="45.7654422" lon="11.7389876"><ele>132.60000000000002</ele><time>2026-04-06T05:15:31.576Z</time></trkpt><trkpt lat="45.765558" lon="11.73893"><ele>132.8</ele><time>2026-04-06T05:15:32.574Z</time></trkpt><trkpt lat="45.7656812" lon="11.7388455"><ele>133.0</ele><time>2026-04-06T05:15:33.574Z</time></trkpt><trkpt lat="45.7658162" lon="11.738757"><ele>133.0</ele><time>2026-04-06T05:15:34.576Z</time></trkpt><trkpt lat="45.7659818" lon="11.7386822"><ele>133.0</ele><time>2026-04-06T05:15:35.577Z</time></trkpt><trkpt lat="45.7661595" lon="11.7386196"><ele>133.0</ele><time>2026-04-06T05:15:36.578Z</time></trkpt><trkpt lat="45.7662992" lon="11.7385874"><ele>133.0</ele><time>2026-04-06T05:15:37.55Z</time></trkpt><trkpt lat="45.7664702" lon="11.738532"><ele>133.0</ele><time>2026-04-06T05:15:38.545Z</time></trkpt><trkpt lat="45.7667498" lon="11.7385607"><ele>133.5</ele><time>2026-04-06T05:15:39.723Z</time></trkpt><trkpt lat="45.7669811" lon="11.7385759"><ele>134.0</ele><time>2026-04-06T05:15:40.713Z</time></trkpt><trkpt lat="45.7672693" lon="11.7385597"><ele>133.0</ele><time>2026-04-06T05:15:41.726Z</time></trkpt><trkpt lat="45.7677741" lon="11.7385269"><ele>133.0</ele><time>2026-04-06T05:15:43.726Z</time></trkpt><trkpt lat="45.7681937" lon="11.7384551"><ele>133.0</ele><time>2026-04-06T05:15:45.565Z</time></trkpt><trkpt lat="45.7684255" lon="11.7384676"><ele>134.5</ele><time>2026-04-06T05:15:46.557Z</time></trkpt><trkpt lat="45.7686111" lon="11.7384514"><ele>136.0</ele><time>2026-04-06T05:15:47.727Z</time></trkpt><trkpt lat="45.7689385" lon="11.7384382"><ele>136.0</ele><time>2026-04-06T05:15:49.551Z</time></trkpt><trkpt lat="45.7691007" lon="11.7384263"><ele>136.0</ele><time>2026-04-06T05:15:50.547Z</time></trkpt><trkpt lat="45.7692424" lon="11.7384005"><ele>136.0</ele><time>2026-04-06T05:15:51.55Z</time></trkpt><trkpt lat="45.7694061" lon="11.738393"><ele>133.75</ele><time>2026-04-06T05:15:52.717Z</time></trkpt><trkpt lat="45.7696287" lon="11.7384102"><ele>131.5</ele><time>2026-04-06T05:15:54.552Z</time></trkpt><trkpt lat="45.7697154" lon="11.738423"><ele>129.25</ele><time>2026-04-06T05:15:55.566Z</time></trkpt><trkpt lat="45.769797" lon="11.7384437"><ele>127.0</ele><time>2026-04-06T05:15:56.558Z</time></trkpt><trkpt lat="45.7699097" lon="11.7385422"><ele>126.33333333333334</ele><time>2026-04-06T05:15:57.552Z</time></trkpt><trkpt lat="45.7700289" lon="11.7386344"><ele>125.66666666666666</ele><time>2026-04-06T05:15:58.552Z</time></trkpt><trkpt lat="45.7702017" lon="11.7388207"><ele>125.0</ele><time>2026-04-06T05:15:59.563Z</time></trkpt><trkpt lat="45.7703821" lon="11.7390191"><ele>125.0</ele><time>2026-04-06T05:16:00.571Z</time></trkpt><trkpt lat="45.7705563" lon="11.7392132"><ele>125.0</ele><time>2026-04-06T05:16:01.572Z</time></trkpt><trkpt lat="45.7707151" lon="11.7394009"><ele>125.0</ele><time>2026-04-06T05:16:02.601Z</time></trkpt><trkpt lat="45.7708706" lon="11.7395651"><ele>125.66666666666666</ele><time>2026-04-06T05:16:03.569Z</time></trkpt><trkpt lat="45.7710164" lon="11.7397491"><ele>126.33333333333334</ele><time>2026-04-06T05:16:04.573Z</time></trkpt><trkpt lat="45.7711679" lon="11.7398974"><ele>127.0</ele><time>2026-04-06T05:16:05.572Z</time></trkpt><trkpt lat="45.771316" lon="11.7400392"><ele>127.0</ele><time>2026-04-06T05:16:06.559Z</time></trkpt><trkpt lat="45.77147" lon="11.740154"><ele>127.0</ele><time>2026-04-06T05:16:07.57Z</time></trkpt><trkpt lat="45.7716547" lon="11.7402314"><ele>127.0</ele><time>2026-04-06T05:16:08.554Z</time></trkpt><trkpt lat="45.7718581" lon="11.7402765"><ele>128.66666666666669</ele><time>2026-04-06T05:16:09.594Z</time></trkpt><trkpt lat="45.7720602" lon="11.7403374"><ele>130.33333333333334</ele><time>2026-04-06T05:16:10.578Z</time></trkpt><trkpt lat="45.7722817" lon="11.7403907"><ele>132.0</ele><time>2026-04-06T05:16:11.728Z</time></trkpt><trkpt lat="45.7724875" lon="11.740447"><ele>133.0</ele><time>2026-04-06T05:16:12.715Z</time></trkpt><trkpt lat="45.7726969" lon="11.7404844"><ele>134.0</ele><time>2026-04-06T05:16:13.731Z</time></trkpt><trkpt lat="45.7731127" lon="11.7405201"><ele>134.0</ele><time>2026-04-06T05:16:15.574Z</time></trkpt><trkpt lat="45.7733054" lon="11.7405409"><ele>134.0</ele><time>2026-04-06T05:16:16.561Z</time></trkpt><trkpt lat="45.773486" lon="11.7405699"><ele>134.0</ele><time>2026-04-06T05:16:17.552Z</time></trkpt><trkpt lat="45.773658" lon="11.74062"><ele>134.0</ele><time>2026-04-06T05:16:18.554Z</time></trkpt><trkpt lat="45.7738308" lon="11.7406593"><ele>134.0</ele><time>2026-04-06T05:16:19.573Z</time></trkpt><trkpt lat="45.7739981" lon="11.7407418"><ele>134.0</ele><time>2026-04-06T05:16:20.552Z</time></trkpt><trkpt lat="45.7741984" lon="11.7408696"><ele>133.33333333333331</ele><time>2026-04-06T05:16:21.55Z</time></trkpt><trkpt lat="45.774381" lon="11.7409972"><ele>132.66666666666666</ele><time>2026-04-06T05:16:22.56Z</time></trkpt><trkpt lat="45.7745726" lon="11.74107"><ele>132.0</ele><time>2026-04-06T05:16:23.587Z</time></trkpt><trkpt lat="45.7747838" lon="11.7411222"><ele>132.5</ele><time>2026-04-06T05:16:24.583Z</time></trkpt><trkpt lat="45.775014" lon="11.7411889"><ele>133.0</ele><time>2026-04-06T05:16:25.569Z</time></trkpt><trkpt lat="45.7752316" lon="11.7412304"><ele>133.0</ele><time>2026-04-06T05:16:26.554Z</time></trkpt><trkpt lat="45.7753923" lon="11.7412443"><ele>133.0</ele><time>2026-04-06T05:16:27.566Z</time></trkpt><trkpt lat="45.7755414" lon="11.7412755"><ele>133.0</ele><time>2026-04-06T05:16:28.578Z</time></trkpt><trkpt lat="45.7757143" lon="11.7412969"><ele>130.5</ele><time>2026-04-06T05:16:29.711Z</time></trkpt><trkpt lat="45.7760261" lon="11.7416018"><ele>128.0</ele><time>2026-04-06T05:16:31.565Z</time></trkpt><trkpt lat="45.7761762" lon="11.741801"><ele>130.0</ele><time>2026-04-06T05:16:32.576Z</time></trkpt><trkpt lat="45.7763074" lon="11.7419576"><ele>132.0</ele><time>2026-04-06T05:16:33.562Z</time></trkpt><trkpt lat="45.7764495" lon="11.7420672"><ele>134.0</ele><time>2026-04-06T05:16:34.569Z</time></trkpt><trkpt lat="45.7766301" lon="11.7421409"><ele>134.0</ele><time>2026-04-06T05:16:35.585Z</time></trkpt><trkpt lat="45.7768534" lon="11.7421681"><ele>134.0</ele><time>2026-04-06T05:16:36.576Z</time></trkpt><trkpt lat="45.7770881" lon="11.742173"><ele>134.0</ele><time>2026-04-06T05:16:37.578Z</time></trkpt><trkpt lat="45.7773019" lon="11.7421844"><ele>134.0</ele><time>2026-04-06T05:16:38.565Z</time></trkpt><trkpt lat="45.7775061" lon="11.7421956"><ele>134.0</ele><time>2026-04-06T05:16:39.566Z</time></trkpt><trkpt lat="45.7776977" lon="11.7422304"><ele>134.33333333333331</ele><time>2026-04-06T05:16:40.566Z</time></trkpt><trkpt lat="45.7778474" lon="11.7421836"><ele>134.66666666666666</ele><time>2026-04-06T05:16:41.569Z</time></trkpt><trkpt lat="45.7780039" lon="11.7421411"><ele>135.0</ele><time>2026-04-06T05:16:42.556Z</time></trkpt><trkpt lat="45.7781717" lon="11.7420971"><ele>135.0</ele><time>2026-04-06T05:16:43.564Z</time></trkpt><trkpt lat="45.7783153" lon="11.7419933"><ele>135.0</ele><time>2026-04-06T05:16:44.576Z</time></trkpt><trkpt lat="45.7784512" lon="11.7418769"><ele>135.0</ele><time>2026-04-06T05:16:45.582Z</time></trkpt><trkpt lat="45.778534" lon="11.7418235"><ele>135.0</ele><time>2026-04-06T05:16:46.577Z</time></trkpt><trkpt lat="45.7786112" lon="11.7417172"><ele>135.0</ele><time>2026-04-06T05:16:47.58Z</time></trkpt><trkpt lat="45.7786864" lon="11.7416496"><ele>135.0</ele><time>2026-04-06T05:16:48.577Z</time></trkpt><trkpt lat="45.7787741" lon="11.7415514"><ele>135.0</ele><time>2026-04-06T05:16:49.578Z</time></trkpt><trkpt lat="45.7788565" lon="11.7414572"><ele>135.0</ele><time>2026-04-06T05:16:50.578Z</time></trkpt><trkpt lat="45.7789496" lon="11.7413577"><ele>135.0</ele><time>2026-04-06T05:16:51.603Z</time></trkpt><trkpt lat="45.7790567" lon="11.7412966"><ele>135.0</ele><time>2026-04-06T05:16:52.59Z</time></trkpt><trkpt lat="45.77917" lon="11.741267"><ele>135.0</ele><time>2026-04-06T05:16:53.581Z</time></trkpt><trkpt lat="45.7792526" lon="11.7412457"><ele>135.0</ele><time>2026-04-06T05:16:54.573Z</time></trkpt><trkpt lat="45.7793426" lon="11.7412875"><ele>135.0</ele><time>2026-04-06T05:16:55.58Z</time></trkpt><trkpt lat="45.7794281" lon="11.7413619"><ele>135.0</ele><time>2026-04-06T05:16:56.579Z</time></trkpt><trkpt lat="45.7794986" lon="11.7414677"><ele>135.5</ele><time>2026-04-06T05:16:57.562Z</time></trkpt><trkpt lat="45.7795528" lon="11.7416096"><ele>136.0</ele><time>2026-04-06T05:16:58.566Z</time></trkpt><trkpt lat="45.7795614" lon="11.7417555"><ele>136.5</ele><time>2026-04-06T05:16:59.558Z</time></trkpt><trkpt lat="45.7795533" lon="11.7419397"><ele>137.0</ele><time>2026-04-06T05:17:00.564Z</time></trkpt><trkpt lat="45.779545" lon="11.7421221"><ele>137.0</ele><time>2026-04-06T05:17:01.55Z</time></trkpt><trkpt lat="45.7795172" lon="11.7423559"><ele>137.0</ele><time>2026-04-06T05:17:02.57Z</time></trkpt><trkpt lat="45.7795164" lon="11.7425599"><ele>137.0</ele><time>2026-04-06T05:17:03.56Z</time></trkpt><trkpt lat="45.779566" lon="11.7428015"><ele>136.66666666666666</ele><time>2026-04-06T05:17:04.569Z</time></trkpt><trkpt lat="45.7796415" lon="11.7430311"><ele>136.33333333333334</ele><time>2026-04-06T05:17:05.553Z</time></trkpt><trkpt lat="45.7797324" lon="11.7432557"><ele>136.0</ele><time>2026-04-06T05:17:06.556Z</time></trkpt><trkpt lat="45.7798278" lon="11.7434912"><ele>136.5</ele><time>2026-04-06T05:17:07.591Z</time></trkpt><trkpt lat="45.7799863" lon="11.7437995"><ele>137.0</ele><time>2026-04-06T05:17:08.58Z</time></trkpt><trkpt lat="45.7801913" lon="11.7441367"><ele>136.5</ele><time>2026-04-06T05:17:09.583Z</time></trkpt><trkpt lat="45.7803657" lon="11.7445018"><ele>136.0</ele><time>2026-04-06T05:17:10.578Z</time></trkpt><trkpt lat="45.7805181" lon="11.7447754"><ele>136.0</ele><time>2026-04-06T05:17:11.581Z</time></trkpt><trkpt lat="45.7807148" lon="11.7451222"><ele>136.0</ele><time>2026-04-06T05:17:12.578Z</time></trkpt><trkpt lat="45.7808403" lon="11.7454176"><ele>136.0</ele><time>2026-04-06T05:17:13.574Z</time></trkpt><trkpt lat="45.7810229" lon="11.745713"><ele>136.0</ele><time>2026-04-06T05:17:14.574Z</time></trkpt><trkpt lat="45.7811412" lon="11.7459941"><ele>135.5</ele><time>2026-04-06T05:17:15.573Z</time></trkpt><trkpt lat="45.7813045" lon="11.7462654"><ele>135.0</ele><time>2026-04-06T05:17:16.561Z</time></trkpt><trkpt lat="45.7814261" lon="11.7465551"><ele>135.0</ele><time>2026-04-06T05:17:17.571Z</time></trkpt><trkpt lat="45.7815414" lon="11.7468518"><ele>135.0</ele><time>2026-04-06T05:17:18.577Z</time></trkpt><trkpt lat="45.7816844" lon="11.747081"><ele>135.66666666666666</ele><time>2026-04-06T05:17:19.58Z</time></trkpt><trkpt lat="45.7818278" lon="11.7473363"><ele>136.33333333333331</ele><time>2026-04-06T05:17:20.568Z</time></trkpt><trkpt lat="45.7819565" lon="11.7475878"><ele>137.0</ele><time>2026-04-06T05:17:21.56Z</time></trkpt><trkpt lat="45.7820885" lon="11.7478198"><ele>139.0</ele><time>2026-04-06T05:17:22.582Z</time></trkpt><trkpt lat="45.7821936" lon="11.7480362"><ele>141.0</ele><time>2026-04-06T05:17:23.728Z</time></trkpt><trkpt lat="45.7824133" lon="11.7484619"><ele>141.0</ele><time>2026-04-06T05:17:25.596Z</time></trkpt><trkpt lat="45.7825279" lon="11.7486917"><ele>141.0</ele><time>2026-04-06T05:17:26.582Z</time></trkpt><trkpt lat="45.7826938" lon="11.7489381"><ele>141.0</ele><time>2026-04-06T05:17:27.578Z</time></trkpt><trkpt lat="45.7828402" lon="11.7491918"><ele>142.0</ele><time>2026-04-06T05:17:28.583Z</time></trkpt><trkpt lat="45.7829926" lon="11.7494375"><ele>143.0</ele><time>2026-04-06T05:17:29.583Z</time></trkpt><trkpt lat="45.7831583" lon="11.7497023"><ele>143.0</ele><time>2026-04-06T05:17:30.585Z</time></trkpt><trkpt lat="45.7833372" lon="11.7499523"><ele>143.0</ele><time>2026-04-06T05:17:31.578Z</time></trkpt><trkpt lat="45.7834764" lon="11.7502217"><ele>143.0</ele><time>2026-04-06T05:17:32.584Z</time></trkpt><trkpt lat="45.7836037" lon="11.7504316"><ele>143.0</ele><time>2026-04-06T05:17:33.563Z</time></trkpt><trkpt lat="45.7837291" lon="11.7506566"><ele>143.0</ele><time>2026-04-06T05:17:34.568Z</time></trkpt><trkpt lat="45.783885" lon="11.7509413"><ele>142.5</ele><time>2026-04-06T05:17:35.58Z</time></trkpt><trkpt lat="45.7840829" lon="11.7511694"><ele>142.0</ele><time>2026-04-06T05:17:36.565Z</time></trkpt><trkpt lat="45.7842604" lon="11.7513832"><ele>141.66666666666669</ele><time>2026-04-06T05:17:37.574Z</time></trkpt><trkpt lat="45.7844373" lon="11.7515777"><ele>141.33333333333334</ele><time>2026-04-06T05:17:38.577Z</time></trkpt><trkpt lat="45.7846088" lon="11.7517816"><ele>141.0</ele><time>2026-04-06T05:17:39.565Z</time></trkpt><trkpt lat="45.7847939" lon="11.7519719"><ele>141.0</ele><time>2026-04-06T05:17:40.57Z</time></trkpt><trkpt lat="45.7849819" lon="11.7521633"><ele>141.0</ele><time>2026-04-06T05:17:41.577Z</time></trkpt><trkpt lat="45.7851793" lon="11.7523562"><ele>141.33333333333334</ele><time>2026-04-06T05:17:42.561Z</time></trkpt><trkpt lat="45.7853534" lon="11.752513"><ele>141.66666666666669</ele><time>2026-04-06T05:17:43.571Z</time></trkpt><trkpt lat="45.7855295" lon="11.7527039"><ele>142.0</ele><time>2026-04-06T05:17:44.612Z</time></trkpt><trkpt lat="45.7856848" lon="11.7528889"><ele>142.0</ele><time>2026-04-06T05:17:45.576Z</time></trkpt><trkpt lat="45.7858154" lon="11.7530704"><ele>142.0</ele><time>2026-04-06T05:17:46.583Z</time></trkpt><trkpt lat="45.7859768" lon="11.7532407"><ele>142.0</ele><time>2026-04-06T05:17:47.587Z</time></trkpt><trkpt lat="45.7861297" lon="11.7534359"><ele>144.33333333333334</ele><time>2026-04-06T05:17:48.573Z</time></trkpt><trkpt lat="45.7862883" lon="11.7536133"><ele>146.66666666666666</ele><time>2026-04-06T05:17:49.605Z</time></trkpt><trkpt lat="45.7864151" lon="11.7538159"><ele>149.0</ele><time>2026-04-06T05:17:50.62Z</time></trkpt><trkpt lat="45.7865912" lon="11.7539999"><ele>149.0</ele><time>2026-04-06T05:17:51.577Z</time></trkpt><trkpt lat="45.7867671" lon="11.7541741"><ele>149.0</ele><time>2026-04-06T05:17:52.588Z</time></trkpt><trkpt lat="45.7869221" lon="11.7543477"><ele>149.0</ele><time>2026-04-06T05:17:53.577Z</time></trkpt><trkpt lat="45.7870918" lon="11.7544718"><ele>150.0</ele><time>2026-04-06T05:17:54.581Z</time></trkpt><trkpt lat="45.7872633" lon="11.7545432"><ele>151.0</ele><time>2026-04-06T05:17:55.576Z</time></trkpt><trkpt lat="45.7874398" lon="11.7545785"><ele>152.0</ele><time>2026-04-06T05:17:56.562Z</time></trkpt><trkpt lat="45.7876159" lon="11.7546381"><ele>151.66666666666666</ele><time>2026-04-06T05:17:57.568Z</time></trkpt><trkpt lat="45.7877878" lon="11.7546926"><ele>151.33333333333334</ele><time>2026-04-06T05:17:58.564Z</time></trkpt><trkpt lat="45.7879802" lon="11.7547267"><ele>151.0</ele><time>2026-04-06T05:17:59.576Z</time></trkpt><trkpt lat="45.7881701" lon="11.7547594"><ele>151.0</ele><time>2026-04-06T05:18:00.56Z</time></trkpt><trkpt lat="45.7883496" lon="11.7548217"><ele>151.0</ele><time>2026-04-06T05:18:01.567Z</time></trkpt><trkpt lat="45.7885471" lon="11.7548566"><ele>151.0</ele><time>2026-04-06T05:18:02.564Z</time></trkpt><trkpt lat="45.7887461" lon="11.7549263"><ele>152.0</ele><time>2026-04-06T05:18:03.566Z</time></trkpt><trkpt lat="45.7889618" lon="11.7549953"><ele>153.0</ele><time>2026-04-06T05:18:04.555Z</time></trkpt><trkpt lat="45.7891721" lon="11.7550589"><ele>154.0</ele><time>2026-04-06T05:18:05.567Z</time></trkpt><trkpt lat="45.7893877" lon="11.7551322"><ele>154.33333333333334</ele><time>2026-04-06T05:18:06.563Z</time></trkpt><trkpt lat="45.789601" lon="11.7552054"><ele>154.66666666666666</ele><time>2026-04-06T05:18:07.567Z</time></trkpt><trkpt lat="45.7898113" lon="11.7552272"><ele>155.0</ele><time>2026-04-06T05:18:08.56Z</time></trkpt><trkpt lat="45.7900275" lon="11.7552385"><ele>155.5</ele><time>2026-04-06T05:18:09.568Z</time></trkpt><trkpt lat="45.7902581" lon="11.7552536"><ele>156.0</ele><time>2026-04-06T05:18:10.555Z</time></trkpt><trkpt lat="45.7904887" lon="11.7552919"><ele>156.0</ele><time>2026-04-06T05:18:11.57Z</time></trkpt><trkpt lat="45.7907248" lon="11.7553779"><ele>156.0</ele><time>2026-04-06T05:18:12.58Z</time></trkpt><trkpt lat="45.790972" lon="11.7554572"><ele>156.0</ele><time>2026-04-06T05:18:13.567Z</time></trkpt><trkpt lat="45.7912092" lon="11.7556032"><ele>156.0</ele><time>2026-04-06T05:18:14.562Z</time></trkpt><trkpt lat="45.7914219" lon="11.7557532"><ele>156.0</ele><time>2026-04-06T05:18:15.566Z</time></trkpt><trkpt lat="45.7916534" lon="11.7558749"><ele>156.0</ele><time>2026-04-06T05:18:16.567Z</time></trkpt><trkpt lat="45.7918763" lon="11.7560105"><ele>157.5</ele><time>2026-04-06T05:18:17.647Z</time></trkpt><trkpt lat="45.7921089" lon="11.7561405"><ele>159.0</ele><time>2026-04-06T05:18:18.574Z</time></trkpt><trkpt lat="45.7923656" lon="11.7562463"><ele>159.0</ele><time>2026-04-06T05:18:19.591Z</time></trkpt><trkpt lat="45.7925643" lon="11.7563606"><ele>159.0</ele><time>2026-04-06T05:18:20.564Z</time></trkpt><trkpt lat="45.7927639" lon="11.7564263"><ele>159.0</ele><time>2026-04-06T05:18:21.556Z</time></trkpt><trkpt lat="45.7929418" lon="11.7565167"><ele>159.33333333333334</ele><time>2026-04-06T05:18:22.579Z</time></trkpt><trkpt lat="45.7931358" lon="11.7566243"><ele>159.66666666666669</ele><time>2026-04-06T05:18:23.566Z</time></trkpt><trkpt lat="45.7933004" lon="11.7567271"><ele>160.0</ele><time>2026-04-06T05:18:24.572Z</time></trkpt><trkpt lat="45.7934968" lon="11.7568254"><ele>161.0</ele><time>2026-04-06T05:18:25.564Z</time></trkpt><trkpt lat="45.793658" lon="11.7569286"><ele>162.0</ele><time>2026-04-06T05:18:26.572Z</time></trkpt><trkpt lat="45.7938541" lon="11.7570118"><ele>163.0</ele><time>2026-04-06T05:18:27.559Z</time></trkpt><trkpt lat="45.7940515" lon="11.7570954"><ele>163.0</ele><time>2026-04-06T05:18:28.568Z</time></trkpt><trkpt lat="45.794212" lon="11.7571747"><ele>163.0</ele><time>2026-04-06T05:18:29.578Z</time></trkpt><trkpt lat="45.7944047" lon="11.7572781"><ele>163.0</ele><time>2026-04-06T05:18:30.565Z</time></trkpt><trkpt lat="45.7945818" lon="11.7573674"><ele>163.66666666666669</ele><time>2026-04-06T05:18:31.575Z</time></trkpt><trkpt lat="45.7947611" lon="11.7574713"><ele>164.33333333333334</ele><time>2026-04-06T05:18:32.579Z</time></trkpt><trkpt lat="45.7949669" lon="11.7575862"><ele>165.0</ele><time>2026-04-06T05:18:33.568Z</time></trkpt><trkpt lat="45.7951658" lon="11.7577036"><ele>166.0</ele><time>2026-04-06T05:18:34.571Z</time></trkpt><trkpt lat="45.7953638" lon="11.7577982"><ele>167.0</ele><time>2026-04-06T05:18:35.567Z</time></trkpt><trkpt lat="45.79556" lon="11.757887"><ele>168.0</ele><time>2026-04-06T05:18:36.57Z</time></trkpt><trkpt lat="45.7957411" lon="11.7579751"><ele>168.0</ele><time>2026-04-06T05:18:37.561Z</time></trkpt><trkpt lat="45.7959331" lon="11.7580621"><ele>168.0</ele><time>2026-04-06T05:18:38.556Z</time></trkpt><trkpt lat="45.7960935" lon="11.7581407"><ele>168.0</ele><time>2026-04-06T05:18:39.557Z</time></trkpt><trkpt lat="45.7961911" lon="11.7582537"><ele>168.25</ele><time>2026-04-06T05:18:40.555Z</time></trkpt><trkpt lat="45.7962728" lon="11.7583429"><ele>168.5</ele><time>2026-04-06T05:18:41.551Z</time></trkpt><trkpt lat="45.7963342" lon="11.7584839"><ele>168.75</ele><time>2026-04-06T05:18:42.597Z</time></trkpt><trkpt lat="45.7964141" lon="11.7586379"><ele>169.0</ele><time>2026-04-06T05:18:43.599Z</time></trkpt><trkpt lat="45.7965261" lon="11.7587924"><ele>169.66666666666669</ele><time>2026-04-06T05:18:44.559Z</time></trkpt><trkpt lat="45.7966494" lon="11.7589455"><ele>170.33333333333334</ele><time>2026-04-06T05:18:45.57Z</time></trkpt><trkpt lat="45.7967821" lon="11.7591516"><ele>171.0</ele><time>2026-04-06T05:18:46.562Z</time></trkpt><trkpt lat="45.7969188" lon="11.7593557"><ele>171.5</ele><time>2026-04-06T05:18:47.593Z</time></trkpt><trkpt lat="45.7970977" lon="11.759601"><ele>172.0</ele><time>2026-04-06T05:18:48.577Z</time></trkpt><trkpt lat="45.7972572" lon="11.7598231"><ele>172.0</ele><time>2026-04-06T05:18:49.557Z</time></trkpt><trkpt lat="45.7974125" lon="11.7600554"><ele>172.0</ele><time>2026-04-06T05:18:50.576Z</time></trkpt><trkpt lat="45.797538" lon="11.7602975"><ele>172.0</ele><time>2026-04-06T05:18:51.577Z</time></trkpt><trkpt lat="45.7976706" lon="11.7605303"><ele>173.33333333333334</ele><time>2026-04-06T05:18:52.567Z</time></trkpt><trkpt lat="45.7978168" lon="11.7607589"><ele>174.66666666666666</ele><time>2026-04-06T05:18:53.651Z</time></trkpt><trkpt lat="45.7979542" lon="11.7609746"><ele>176.0</ele><time>2026-04-06T05:18:54.681Z</time></trkpt><trkpt lat="45.7982859" lon="11.7614493"><ele>178.0</ele><time>2026-04-06T05:18:56.564Z</time></trkpt><trkpt lat="45.7984512" lon="11.7616947"><ele>180.0</ele><time>2026-04-06T05:18:57.573Z</time></trkpt><trkpt lat="45.7986048" lon="11.7619289"><ele>182.0</ele><time>2026-04-06T05:18:58.562Z</time></trkpt><trkpt lat="45.798782" lon="11.7621301"><ele>184.0</ele><time>2026-04-06T05:18:59.57Z</time></trkpt><trkpt lat="45.7989506" lon="11.7623444"><ele>184.0</ele><time>2026-04-06T05:19:00.578Z</time></trkpt><trkpt lat="45.7990938" lon="11.7625361"><ele>184.0</ele><time>2026-04-06T05:19:01.555Z</time></trkpt><trkpt lat="45.7992145" lon="11.7626946"><ele>184.0</ele><time>2026-04-06T05:19:02.728Z</time></trkpt><trkpt lat="45.7994233" lon="11.7629695"><ele>186.0</ele><time>2026-04-06T05:19:04.582Z</time></trkpt><trkpt lat="45.7995786" lon="11.7630692"><ele>188.0</ele><time>2026-04-06T05:19:05.552Z</time></trkpt><trkpt lat="45.7996925" lon="11.763155"><ele>190.0</ele><time>2026-04-06T05:19:06.575Z</time></trkpt><trkpt lat="45.7998646" lon="11.7632354"><ele>190.0</ele><time>2026-04-06T05:19:07.579Z</time></trkpt><trkpt lat="45.800056" lon="11.7632779"><ele>190.0</ele><time>2026-04-06T05:19:08.554Z</time></trkpt><trkpt lat="45.8002402" lon="11.7633575"><ele>190.0</ele><time>2026-04-06T05:19:09.547Z</time></trkpt><trkpt lat="45.8005233" lon="11.7634529"><ele>192.0</ele><time>2026-04-06T05:19:10.59Z</time></trkpt><trkpt lat="45.8007369" lon="11.7636342"><ele>194.0</ele><time>2026-04-06T05:19:11.563Z</time></trkpt><trkpt lat="45.8009773" lon="11.763689"><ele>195.0</ele><time>2026-04-06T05:19:12.573Z</time></trkpt><trkpt lat="45.801207" lon="11.7637561"><ele>196.0</ele><time>2026-04-06T05:19:13.561Z</time></trkpt><trkpt lat="45.8013954" lon="11.7638643"><ele>197.0</ele><time>2026-04-06T05:19:14.571Z</time></trkpt><trkpt lat="45.8016158" lon="11.7639608"><ele>197.0</ele><time>2026-04-06T05:19:15.556Z</time></trkpt><trkpt lat="45.8018263" lon="11.764003"><ele>197.0</ele><time>2026-04-06T05:19:16.557Z</time></trkpt><trkpt lat="45.8020786" lon="11.7640834"><ele>198.0</ele><time>2026-04-06T05:19:17.549Z</time></trkpt><trkpt lat="45.8022934" lon="11.7642271"><ele>199.0</ele><time>2026-04-06T05:19:18.564Z</time></trkpt><trkpt lat="45.8025032" lon="11.7644277"><ele>199.66666666666666</ele><time>2026-04-06T05:19:19.565Z</time></trkpt><trkpt lat="45.8026842" lon="11.7646363"><ele>200.33333333333331</ele><time>2026-04-06T05:19:20.565Z</time></trkpt><trkpt lat="45.802804" lon="11.7648808"><ele>201.0</ele><time>2026-04-06T05:19:21.567Z</time></trkpt><trkpt lat="45.8029484" lon="11.7651148"><ele>198.33333333333331</ele><time>2026-04-06T05:19:22.574Z</time></trkpt><trkpt lat="45.8030929" lon="11.7653364"><ele>195.66666666666666</ele><time>2026-04-06T05:19:23.56Z</time></trkpt><trkpt lat="45.80315" lon="11.7655247"><ele>193.0</ele><time>2026-04-06T05:19:24.554Z</time></trkpt><trkpt lat="45.8032456" lon="11.7657284"><ele>193.0</ele><time>2026-04-06T05:19:25.551Z</time></trkpt><trkpt lat="45.8032943" lon="11.7659343"><ele>193.0</ele><time>2026-04-06T05:19:26.553Z</time></trkpt><trkpt lat="45.8032729" lon="11.7661658"><ele>193.0</ele><time>2026-04-06T05:19:27.575Z</time></trkpt><trkpt lat="45.8033232" lon="11.7664368"><ele>192.33333333333331</ele><time>2026-04-06T05:19:28.563Z</time></trkpt><trkpt lat="45.8032905" lon="11.7667174"><ele>191.66666666666666</ele><time>2026-04-06T05:19:29.576Z</time></trkpt><trkpt lat="45.8033034" lon="11.7669808"><ele>191.0</ele><time>2026-04-06T05:19:30.56Z</time></trkpt><trkpt lat="45.8033123" lon="11.7672543"><ele>190.66666666666666</ele><time>2026-04-06T05:19:31.567Z</time></trkpt><trkpt lat="45.8033356" lon="11.767513"><ele>190.33333333333334</ele><time>2026-04-06T05:19:32.578Z</time></trkpt><trkpt lat="45.8033951" lon="11.7677643"><ele>190.0</ele><time>2026-04-06T05:19:33.58Z</time></trkpt><trkpt lat="45.8034784" lon="11.7679972"><ele>189.0</ele><time>2026-04-06T05:19:34.559Z</time></trkpt><trkpt lat="45.8035973" lon="11.7682931"><ele>188.0</ele><time>2026-04-06T05:19:35.568Z</time></trkpt><trkpt lat="45.8036814" lon="11.7685269"><ele>187.0</ele><time>2026-04-06T05:19:36.581Z</time></trkpt><trkpt lat="45.8037952" lon="11.7687772"><ele>186.66666666666669</ele><time>2026-04-06T05:19:37.563Z</time></trkpt><trkpt lat="45.8039055" lon="11.7690177"><ele>186.33333333333334</ele><time>2026-04-06T05:19:38.599Z</time></trkpt><trkpt lat="45.8039831" lon="11.7692981"><ele>186.0</ele><time>2026-04-06T05:19:39.599Z</time></trkpt><trkpt lat="45.8040892" lon="11.7695471"><ele>185.33333333333334</ele><time>2026-04-06T05:19:40.557Z</time></trkpt><trkpt lat="45.8041871" lon="11.7698102"><ele>184.66666666666669</ele><time>2026-04-06T05:19:41.573Z</time></trkpt><trkpt lat="45.804278" lon="11.7700195"><ele>184.0</ele><time>2026-04-06T05:19:42.577Z</time></trkpt><trkpt lat="45.8043878" lon="11.7702458"><ele>183.66666666666669</ele><time>2026-04-06T05:19:43.562Z</time></trkpt><trkpt lat="45.8044983" lon="11.770495"><ele>183.33333333333334</ele><time>2026-04-06T05:19:44.571Z</time></trkpt><trkpt lat="45.8045854" lon="11.7707218"><ele>183.0</ele><time>2026-04-06T05:19:45.574Z</time></trkpt><trkpt lat="45.804659" lon="11.7709265"><ele>182.33333333333334</ele><time>2026-04-06T05:19:46.563Z</time></trkpt><trkpt lat="45.8047358" lon="11.7711255"><ele>181.66666666666669</ele><time>2026-04-06T05:19:47.578Z</time></trkpt><trkpt lat="45.804802" lon="11.7713437"><ele>181.0</ele><time>2026-04-06T05:19:48.578Z</time></trkpt><trkpt lat="45.8048866" lon="11.7715445"><ele>181.0</ele><time>2026-04-06T05:19:49.579Z</time></trkpt><trkpt lat="45.8049907" lon="11.771725"><ele>181.0</ele><time>2026-04-06T05:19:50.576Z</time></trkpt><trkpt lat="45.8050737" lon="11.7719133"><ele>181.0</ele><time>2026-04-06T05:19:51.574Z</time></trkpt><trkpt lat="45.80514" lon="11.7720647"><ele>181.0</ele><time>2026-04-06T05:19:52.596Z</time></trkpt><trkpt lat="45.8052052" lon="11.7722652"><ele>179.75</ele><time>2026-04-06T05:19:53.579Z</time></trkpt><trkpt lat="45.8052676" lon="11.7724058"><ele>178.5</ele><time>2026-04-06T05:19:54.565Z</time></trkpt><trkpt lat="45.8053409" lon="11.7725694"><ele>177.25</ele><time>2026-04-06T05:19:55.574Z</time></trkpt><trkpt lat="45.8054407" lon="11.7727427"><ele>176.0</ele><time>2026-04-06T05:19:56.581Z</time></trkpt><trkpt lat="45.8055081" lon="11.7728996"><ele>176.0</ele><time>2026-04-06T05:19:57.58Z</time></trkpt><trkpt lat="45.8055818" lon="11.7730505"><ele>176.0</ele><time>2026-04-06T05:19:58.568Z</time></trkpt><trkpt lat="45.8056442" lon="11.7731877"><ele>176.0</ele><time>2026-04-06T05:19:59.572Z</time></trkpt><trkpt lat="45.8056887" lon="11.7733425"><ele>176.0</ele><time>2026-04-06T05:20:00.577Z</time></trkpt><trkpt lat="45.8057397" lon="11.7735339"><ele>176.0</ele><time>2026-04-06T05:20:01.575Z</time></trkpt><trkpt lat="45.8057655" lon="11.7736489"><ele>176.0</ele><time>2026-04-06T05:20:02.564Z</time></trkpt><trkpt lat="45.8058035" lon="11.7737492"><ele>176.0</ele><time>2026-04-06T05:20:03.567Z</time></trkpt><trkpt lat="45.8058434" lon="11.7738401"><ele>176.0</ele><time>2026-04-06T05:20:04.567Z</time></trkpt><trkpt lat="45.8058513" lon="11.77399"><ele>176.0</ele><time>2026-04-06T05:20:05.652Z</time></trkpt><trkpt lat="45.8059011" lon="11.7741363"><ele>176.0</ele><time>2026-04-06T05:20:06.575Z</time></trkpt><trkpt lat="45.8059309" lon="11.7742446"><ele>176.0</ele><time>2026-04-06T05:20:07.569Z</time></trkpt><trkpt lat="45.8059423" lon="11.7743347"><ele>176.0</ele><time>2026-04-06T05:20:08.569Z</time></trkpt><trkpt lat="45.8059731" lon="11.7744239"><ele>176.0</ele><time>2026-04-06T05:20:09.561Z</time></trkpt><trkpt lat="45.805999" lon="11.7745215"><ele>176.0</ele><time>2026-04-06T05:20:10.569Z</time></trkpt><trkpt lat="45.8060228" lon="11.7746101"><ele>176.0</ele><time>2026-04-06T05:20:11.57Z</time></trkpt><trkpt lat="45.8060799" lon="11.7747485"><ele>176.0</ele><time>2026-04-06T05:20:13.568Z</time></trkpt><trkpt lat="45.8061471" lon="11.7747545"><ele>176.0</ele><time>2026-04-06T05:20:14.576Z</time></trkpt><trkpt lat="45.8062347" lon="11.7747363"><ele>176.0</ele><time>2026-04-06T05:20:15.565Z</time></trkpt><trkpt lat="45.8063318" lon="11.7746626"><ele>176.0</ele><time>2026-04-06T05:20:16.569Z</time></trkpt><trkpt lat="45.8064419" lon="11.7745962"><ele>176.0</ele><time>2026-04-06T05:20:17.55Z</time></trkpt><trkpt lat="45.8065928" lon="11.7744779"><ele>176.5</ele><time>2026-04-06T05:20:18.576Z</time></trkpt><trkpt lat="45.8067934" lon="11.7743245"><ele>177.0</ele><time>2026-04-06T05:20:19.557Z</time></trkpt><trkpt lat="45.8070296" lon="11.7741897"><ele>177.0</ele><time>2026-04-06T05:20:20.571Z</time></trkpt><trkpt lat="45.8072337" lon="11.7740494"><ele>177.0</ele><time>2026-04-06T05:20:21.563Z</time></trkpt><trkpt lat="45.8074651" lon="11.7738741"><ele>177.0</ele><time>2026-04-06T05:20:22.584Z</time></trkpt><trkpt lat="45.8076586" lon="11.773703"><ele>177.0</ele><time>2026-04-06T05:20:23.554Z</time></trkpt><trkpt lat="45.8078456" lon="11.7735788"><ele>177.0</ele><time>2026-04-06T05:20:24.576Z</time></trkpt><trkpt lat="45.8080238" lon="11.7734448"><ele>178.0</ele><time>2026-04-06T05:20:25.566Z</time></trkpt><trkpt lat="45.8082341" lon="11.7733837"><ele>179.0</ele><time>2026-04-06T05:20:26.566Z</time></trkpt><trkpt lat="45.8083811" lon="11.7732705"><ele>180.0</ele><time>2026-04-06T05:20:27.58Z</time></trkpt><trkpt lat="45.8085585" lon="11.7731442"><ele>180.0</ele><time>2026-04-06T05:20:28.565Z</time></trkpt><trkpt lat="45.8087331" lon="11.7730361"><ele>180.0</ele><time>2026-04-06T05:20:29.573Z</time></trkpt><trkpt lat="45.8089293" lon="11.7729593"><ele>180.0</ele><time>2026-04-06T05:20:30.564Z</time></trkpt><trkpt lat="45.8091155" lon="11.7728665"><ele>180.0</ele><time>2026-04-06T05:20:31.56Z</time></trkpt><trkpt lat="45.809315" lon="11.7727969"><ele>180.0</ele><time>2026-04-06T05:20:32.553Z</time></trkpt><trkpt lat="45.8094796" lon="11.772752"><ele>180.0</ele><time>2026-04-06T05:20:33.571Z</time></trkpt><trkpt lat="45.8096132" lon="11.772678"><ele>180.75</ele><time>2026-04-06T05:20:34.56Z</time></trkpt><trkpt lat="45.8097986" lon="11.7726736"><ele>181.5</ele><time>2026-04-06T05:20:35.575Z</time></trkpt><trkpt lat="45.8099024" lon="11.7726446"><ele>182.25</ele><time>2026-04-06T05:20:36.559Z</time></trkpt><trkpt lat="45.8100145" lon="11.7725915"><ele>183.0</ele><time>2026-04-06T05:20:37.568Z</time></trkpt><trkpt lat="45.8101406" lon="11.7726433"><ele>184.75</ele><time>2026-04-06T05:20:38.724Z</time></trkpt><trkpt lat="45.8102534" lon="11.7727345"><ele>186.5</ele><time>2026-04-06T05:20:39.73Z</time></trkpt><trkpt lat="45.8103598" lon="11.7728141"><ele>188.25</ele><time>2026-04-06T05:20:40.887Z</time></trkpt><trkpt lat="45.8104907" lon="11.7728833"><ele>190.0</ele><time>2026-04-06T05:20:41.874Z</time></trkpt><trkpt lat="45.8108149" lon="11.7730552"><ele>194.5</ele><time>2026-04-06T05:20:43.878Z</time></trkpt><trkpt lat="45.8111498" lon="11.7732486"><ele>199.0</ele><time>2026-04-06T05:20:45.568Z</time></trkpt><trkpt lat="45.8112939" lon="11.7733435"><ele>199.0</ele><time>2026-04-06T05:20:46.57Z</time></trkpt><trkpt lat="45.8114168" lon="11.7734352"><ele>199.0</ele><time>2026-04-06T05:20:47.569Z</time></trkpt><trkpt lat="45.8115523" lon="11.7735268"><ele>199.0</ele><time>2026-04-06T05:20:48.556Z</time></trkpt><trkpt lat="45.8116843" lon="11.7735622"><ele>199.0</ele><time>2026-04-06T05:20:49.57Z</time></trkpt><trkpt lat="45.811779" lon="11.7735582"><ele>201.0</ele><time>2026-04-06T05:20:50.558Z</time></trkpt><trkpt lat="45.8119045" lon="11.7735322"><ele>203.0</ele><time>2026-04-06T05:20:51.57Z</time></trkpt><trkpt lat="45.8120172" lon="11.7734315"><ele>205.0</ele><time>2026-04-06T05:20:52.565Z</time></trkpt><trkpt lat="45.8121306" lon="11.7733143"><ele>207.0</ele><time>2026-04-06T05:20:53.557Z</time></trkpt><trkpt lat="45.8121895" lon="11.7730344"><ele>207.0</ele><time>2026-04-06T05:20:54.55Z</time></trkpt><trkpt lat="45.8123228" lon="11.7728212"><ele>207.0</ele><time>2026-04-06T05:20:55.591Z</time></trkpt><trkpt lat="45.8124488" lon="11.7726241"><ele>207.0</ele><time>2026-04-06T05:20:56.561Z</time></trkpt><trkpt lat="45.8125917" lon="11.7723946"><ele>210.66666666666669</ele><time>2026-04-06T05:20:57.564Z</time></trkpt><trkpt lat="45.8127313" lon="11.7722163"><ele>214.33333333333334</ele><time>2026-04-06T05:20:58.567Z</time></trkpt><trkpt lat="45.8127916" lon="11.7720062"><ele>218.0</ele><time>2026-04-06T05:20:59.577Z</time></trkpt><trkpt lat="45.8128546" lon="11.7718859"><ele>217.75</ele><time>2026-04-06T05:21:00.573Z</time></trkpt><trkpt lat="45.8129364" lon="11.7717182"><ele>217.5</ele><time>2026-04-06T05:21:01.578Z</time></trkpt><trkpt lat="45.8129824" lon="11.7715155"><ele>217.25</ele><time>2026-04-06T05:21:02.582Z</time></trkpt><trkpt lat="45.8130063" lon="11.7712993"><ele>217.0</ele><time>2026-04-06T05:21:03.573Z</time></trkpt><trkpt lat="45.8129898" lon="11.7710972"><ele>218.0</ele><time>2026-04-06T05:21:04.582Z</time></trkpt><trkpt lat="45.8129828" lon="11.7708708"><ele>219.0</ele><time>2026-04-06T05:21:05.581Z</time></trkpt><trkpt lat="45.8130146" lon="11.7706607"><ele>220.0</ele><time>2026-04-06T05:21:06.577Z</time></trkpt><trkpt lat="45.8130404" lon="11.7704632"><ele>221.0</ele><time>2026-04-06T05:21:07.558Z</time></trkpt><trkpt lat="45.8130799" lon="11.7702771"><ele>222.4</ele><time>2026-04-06T05:21:08.553Z</time></trkpt><trkpt lat="45.8131647" lon="11.7701652"><ele>223.8</ele><time>2026-04-06T05:21:09.56Z</time></trkpt><trkpt lat="45.813221" lon="11.770117"><ele>225.20000000000002</ele><time>2026-04-06T05:21:10.571Z</time></trkpt><trkpt lat="45.8132277" lon="11.7699952"><ele>226.60000000000002</ele><time>2026-04-06T05:21:11.596Z</time></trkpt><trkpt lat="45.8132215" lon="11.7698188"><ele>228.0</ele><time>2026-04-06T05:21:12.579Z</time></trkpt><trkpt lat="45.8131727" lon="11.7696769"><ele>228.0</ele><time>2026-04-06T05:21:13.558Z</time></trkpt><trkpt lat="45.8131637" lon="11.7694849"><ele>228.0</ele><time>2026-04-06T05:21:14.545Z</time></trkpt><trkpt lat="45.8131441" lon="11.7692835"><ele>228.0</ele><time>2026-04-06T05:21:15.539Z</time></trkpt><trkpt lat="45.8131262" lon="11.769088"><ele>228.0</ele><time>2026-04-06T05:21:16.563Z</time></trkpt><trkpt lat="45.8131082" lon="11.7688929"><ele>231.0</ele><time>2026-04-06T05:21:17.54Z</time></trkpt><trkpt lat="45.8130886" lon="11.7686954"><ele>234.0</ele><time>2026-04-06T05:21:18.542Z</time></trkpt><trkpt lat="45.8130658" lon="11.7684959"><ele>237.0</ele><time>2026-04-06T05:21:19.54Z</time></trkpt><trkpt lat="45.8130452" lon="11.7682982"><ele>240.0</ele><time>2026-04-06T05:21:20.538Z</time></trkpt><trkpt lat="45.8130024" lon="11.7680753"><ele>245.33333333333331</ele><time>2026-04-06T05:21:21.559Z</time></trkpt><trkpt lat="45.8129606" lon="11.7678535"><ele>250.66666666666666</ele><time>2026-04-06T05:21:22.559Z</time></trkpt><trkpt lat="45.8129125" lon="11.7676394"><ele>256.0</ele><time>2026-04-06T05:21:23.562Z</time></trkpt><trkpt lat="45.812874" lon="11.7673964"><ele>256.66666666666663</ele><time>2026-04-06T05:21:24.551Z</time></trkpt><trkpt lat="45.8128152" lon="11.7671715"><ele>257.3333333333333</ele><time>2026-04-06T05:21:25.546Z</time></trkpt><trkpt lat="45.8127187" lon="11.7669158"><ele>258.0</ele><time>2026-04-06T05:21:26.54Z</time></trkpt><trkpt lat="45.8126059" lon="11.7666816"><ele>258.0</ele><time>2026-04-06T05:21:27.545Z</time></trkpt><trkpt lat="45.812515" lon="11.7664964"><ele>258.0</ele><time>2026-04-06T05:21:28.546Z</time></trkpt><trkpt lat="45.8124214" lon="11.7662916"><ele>258.0</ele><time>2026-04-06T05:21:29.548Z</time></trkpt><trkpt lat="45.812328" lon="11.7661227"><ele>262.75</ele><time>2026-04-06T05:21:30.546Z</time></trkpt><trkpt lat="45.8122378" lon="11.7659651"><ele>267.5</ele><time>2026-04-06T05:21:31.538Z</time></trkpt><trkpt lat="45.812149" lon="11.7658058"><ele>272.25</ele><time>2026-04-06T05:21:32.538Z</time></trkpt><trkpt lat="45.812069" lon="11.7656534"><ele>277.0</ele><time>2026-04-06T05:21:33.539Z</time></trkpt><trkpt lat="45.8119892" lon="11.7655008"><ele>277.0</ele><time>2026-04-06T05:21:34.533Z</time></trkpt><trkpt lat="45.8119001" lon="11.7653423"><ele>277.0</ele><time>2026-04-06T05:21:35.544Z</time></trkpt><trkpt lat="45.8118359" lon="11.765157"><ele>277.0</ele><time>2026-04-06T05:21:36.541Z</time></trkpt><trkpt lat="45.8117932" lon="11.7649287"><ele>278.3333333333333</ele><time>2026-04-06T05:21:37.544Z</time></trkpt><trkpt lat="45.8117388" lon="11.7646769"><ele>279.6666666666667</ele><time>2026-04-06T05:21:38.541Z</time></trkpt><trkpt lat="45.8116881" lon="11.7644173"><ele>281.0</ele><time>2026-04-06T05:21:39.546Z</time></trkpt><trkpt lat="45.8116338" lon="11.7641666"><ele>281.0</ele><time>2026-04-06T05:21:40.54Z</time></trkpt><trkpt lat="45.8115722" lon="11.7639439"><ele>281.0</ele><time>2026-04-06T05:21:41.539Z</time></trkpt><trkpt lat="45.811512" lon="11.7637242"><ele>281.0</ele><time>2026-04-06T05:21:42.533Z</time></trkpt><trkpt lat="45.8114735" lon="11.7635558"><ele>288.6666666666667</ele><time>2026-04-06T05:21:43.549Z</time></trkpt><trkpt lat="45.8114206" lon="11.763364"><ele>296.3333333333333</ele><time>2026-04-06T05:21:44.549Z</time></trkpt><trkpt lat="45.8114319" lon="11.7632065"><ele>304.0</ele><time>2026-04-06T05:21:45.713Z</time></trkpt><trkpt lat="45.8114545" lon="11.7627783"><ele>309.0</ele><time>2026-04-06T05:21:47.711Z</time></trkpt><trkpt lat="45.811458" lon="11.7625767"><ele>314.0</ele><time>2026-04-06T05:21:48.707Z</time></trkpt><trkpt lat="45.8114582" lon="11.7623563"><ele>319.0</ele><time>2026-04-06T05:21:49.71Z</time></trkpt><trkpt lat="45.8114277" lon="11.7620612"><ele>319.0</ele><time>2026-04-06T05:21:51.548Z</time></trkpt><trkpt lat="45.8114119" lon="11.7619072"><ele>319.0</ele><time>2026-04-06T05:21:52.717Z</time></trkpt><trkpt lat="45.8113175" lon="11.7620605"><ele>319.0</ele><time>2026-04-06T05:21:57.873Z</time></trkpt><trkpt lat="45.8112905" lon="11.7621802"><ele>319.0</ele><time>2026-04-06T05:21:58.867Z</time></trkpt><trkpt lat="45.8112751" lon="11.7623327"><ele>319.0</ele><time>2026-04-06T05:21:59.868Z</time></trkpt><trkpt lat="45.8113695" lon="11.7627761"><ele>311.5</ele><time>2026-04-06T05:22:01.892Z</time></trkpt><trkpt lat="45.8114473" lon="11.7630301"><ele>304.0</ele><time>2026-04-06T05:22:02.902Z</time></trkpt><trkpt lat="45.8114932" lon="11.7634026"><ele>296.3333333333333</ele><time>2026-04-06T05:22:04.585Z</time></trkpt><trkpt lat="45.8115963" lon="11.7635861"><ele>288.6666666666667</ele><time>2026-04-06T05:22:05.576Z</time></trkpt><trkpt lat="45.8117418" lon="11.7638032"><ele>281.0</ele><time>2026-04-06T05:22:06.574Z</time></trkpt><trkpt lat="45.8118856" lon="11.7640071"><ele>287.6666666666667</ele><time>2026-04-06T05:22:07.575Z</time></trkpt><trkpt lat="45.8120522" lon="11.7642198"><ele>294.3333333333333</ele><time>2026-04-06T05:22:08.563Z</time></trkpt><trkpt lat="45.812211" lon="11.7643867"><ele>301.0</ele><time>2026-04-06T05:22:09.569Z</time></trkpt><trkpt lat="45.8123602" lon="11.7645806"><ele>301.0</ele><time>2026-04-06T05:22:10.553Z</time></trkpt><trkpt lat="45.8125253" lon="11.7647572"><ele>301.0</ele><time>2026-04-06T05:22:11.564Z</time></trkpt><trkpt lat="45.8126882" lon="11.7649118"><ele>301.0</ele><time>2026-04-06T05:22:12.569Z</time></trkpt><trkpt lat="45.8128498" lon="11.7650388"><ele>308.66666666666663</ele><time>2026-04-06T05:22:13.557Z</time></trkpt><trkpt lat="45.8130085" lon="11.7651797"><ele>316.3333333333333</ele><time>2026-04-06T05:22:14.561Z</time></trkpt><trkpt lat="45.8131213" lon="11.7653153"><ele>324.0</ele><time>2026-04-06T05:22:15.55Z</time></trkpt><trkpt lat="45.8132607" lon="11.7654357"><ele>324.0</ele><time>2026-04-06T05:22:16.631Z</time></trkpt><trkpt lat="45.8133507" lon="11.7657074"><ele>324.0</ele><time>2026-04-06T05:22:17.562Z</time></trkpt><trkpt lat="45.813437" lon="11.7658887"><ele>324.0</ele><time>2026-04-06T05:22:18.536Z</time></trkpt><trkpt lat="45.8135162" lon="11.7660867"><ele>330.6666666666667</ele><time>2026-04-06T05:22:19.54Z</time></trkpt><trkpt lat="45.8135966" lon="11.7663055"><ele>337.33333333333337</ele><time>2026-04-06T05:22:20.55Z</time></trkpt><trkpt lat="45.8136808" lon="11.7664643"><ele>344.0</ele><time>2026-04-06T05:22:21.547Z</time></trkpt><trkpt lat="45.8138181" lon="11.7665857"><ele>344.0</ele><time>2026-04-06T05:22:22.563Z</time></trkpt><trkpt lat="45.8139475" lon="11.7667166"><ele>344.0</ele><time>2026-04-06T05:22:23.541Z</time></trkpt><trkpt lat="45.8140883" lon="11.7668273"><ele>344.0</ele><time>2026-04-06T05:22:24.541Z</time></trkpt><trkpt lat="45.8142252" lon="11.7669477"><ele>354.0</ele><time>2026-04-06T05:22:25.533Z</time></trkpt><trkpt lat="45.814367" lon="11.7670286"><ele>364.0</ele><time>2026-04-06T05:22:26.535Z</time></trkpt><trkpt lat="45.8144986" lon="11.7671191"><ele>374.0</ele><time>2026-04-06T05:22:27.552Z</time></trkpt><trkpt lat="45.8146037" lon="11.7672289"><ele>384.0</ele><time>2026-04-06T05:22:28.556Z</time></trkpt><trkpt lat="45.814683" lon="11.7676026"><ele>378.0</ele><time>2026-04-06T05:22:31.55Z</time></trkpt><trkpt lat="45.8147449" lon="11.7678286"><ele>372.0</ele><time>2026-04-06T05:22:32.547Z</time></trkpt><trkpt lat="45.8148209" lon="11.7680702"><ele>366.0</ele><time>2026-04-06T05:22:33.56Z</time></trkpt><trkpt lat="45.8149099" lon="11.7683255"><ele>358.6666666666667</ele><time>2026-04-06T05:22:34.549Z</time></trkpt><trkpt lat="45.8150414" lon="11.7686021"><ele>351.33333333333337</ele><time>2026-04-06T05:22:35.545Z</time></trkpt><trkpt lat="45.8151331" lon="11.7688479"><ele>344.0</ele><time>2026-04-06T05:22:36.562Z</time></trkpt><trkpt lat="45.8152105" lon="11.7690506"><ele>354.75</ele><time>2026-04-06T05:22:37.548Z</time></trkpt><trkpt lat="45.8152585" lon="11.7692519"><ele>365.5</ele><time>2026-04-06T05:22:38.557Z</time></trkpt><trkpt lat="45.8153005" lon="11.7694226"><ele>376.25</ele><time>2026-04-06T05:22:39.554Z</time></trkpt><trkpt lat="45.8153172" lon="11.7695883"><ele>387.0</ele><time>2026-04-06T05:22:40.544Z</time></trkpt><trkpt lat="45.8153731" lon="11.7696918"><ele>387.0</ele><time>2026-04-06T05:22:41.546Z</time></trkpt><trkpt lat="45.8154862" lon="11.7697589"><ele>387.0</ele><time>2026-04-06T05:22:43.545Z</time></trkpt><trkpt lat="45.8155622" lon="11.7698036"><ele>387.0</ele><time>2026-04-06T05:22:44.561Z</time></trkpt><trkpt lat="45.8155895" lon="11.7696961"><ele>387.0</ele><time>2026-04-06T05:22:46.541Z</time></trkpt><trkpt lat="45.8155285" lon="11.7694661"><ele>396.33333333333337</ele><time>2026-04-06T05:22:48.696Z</time></trkpt><trkpt lat="45.8154835" lon="11.7692817"><ele>405.6666666666667</ele><time>2026-04-06T05:22:50.617Z</time></trkpt><trkpt lat="45.8154322" lon="11.7692036"><ele>415.0</ele><time>2026-04-06T05:22:51.941Z</time></trkpt><trkpt lat="45.8152855" lon="11.7688621"><ele>415.0</ele><time>2026-04-06T05:22:53.537Z</time></trkpt><trkpt lat="45.8152632" lon="11.7686777"><ele>415.0</ele><time>2026-04-06T05:22:54.693Z</time></trkpt><trkpt lat="45.815237" lon="11.7684888"><ele>415.0</ele><time>2026-04-06T05:22:55.709Z</time></trkpt><trkpt lat="45.8152215" lon="11.7683264"><ele>415.0</ele><time>2026-04-06T05:22:56.692Z</time></trkpt><trkpt lat="45.8152238" lon="11.7681444"><ele>399.5</ele><time>2026-04-06T05:22:57.701Z</time></trkpt><trkpt lat="45.8151721" lon="11.7676168"><ele>384.0</ele><time>2026-04-06T05:23:00.69Z</time></trkpt><trkpt lat="45.8151058" lon="11.767246"><ele>384.0</ele><time>2026-04-06T05:23:02.694Z</time></trkpt><trkpt lat="45.8150609" lon="11.7668836"><ele>384.0</ele><time>2026-04-06T05:23:04.684Z</time></trkpt><trkpt lat="45.8150159" lon="11.7665127"><ele>392.0</ele><time>2026-04-06T05:23:06.69Z</time></trkpt><trkpt lat="45.814964" lon="11.7663348"><ele>400.0</ele><time>2026-04-06T05:23:07.685Z</time></trkpt><trkpt lat="45.8144168" lon="11.7652774"><ele>403.5</ele><time>2026-04-06T05:23:09.544Z</time></trkpt><trkpt lat="45.8142459" lon="11.7649289"><ele>407.0</ele><time>2026-04-06T05:23:10.558Z</time></trkpt><trkpt lat="45.8139018" lon="11.7644092"><ele>398.66666666666663</ele><time>2026-04-06T05:23:11.715Z</time></trkpt><trkpt lat="45.8137578" lon="11.7642034"><ele>390.3333333333333</ele><time>2026-04-06T05:23:12.566Z</time></trkpt><trkpt lat="45.813597" lon="11.7640354"><ele>382.0</ele><time>2026-04-06T05:23:13.547Z</time></trkpt><trkpt lat="45.8134191" lon="11.7638243"><ele>382.0</ele><time>2026-04-06T05:23:14.551Z</time></trkpt><trkpt lat="45.8132724" lon="11.7636206"><ele>382.0</ele><time>2026-04-06T05:23:15.546Z</time></trkpt><trkpt lat="45.8131656" lon="11.7634327"><ele>382.0</ele><time>2026-04-06T05:23:16.549Z</time></trkpt><trkpt lat="45.8130639" lon="11.7632527"><ele>388.75</ele><time>2026-04-06T05:23:17.545Z</time></trkpt><trkpt lat="45.8129674" lon="11.7631003"><ele>395.5</ele><time>2026-04-06T05:23:18.535Z</time></trkpt><trkpt lat="45.8128852" lon="11.7629628"><ele>402.25</ele><time>2026-04-06T05:23:19.696Z</time></trkpt><trkpt lat="45.8128206" lon="11.7628787"><ele>409.0</ele><time>2026-04-06T05:23:20.861Z</time></trkpt><trkpt lat="45.812766" lon="11.762735"><ele>409.0</ele><time>2026-04-06T05:23:22.548Z</time></trkpt><trkpt lat="45.8127702" lon="11.7626382"><ele>409.0</ele><time>2026-04-06T05:23:24.701Z</time></trkpt><trkpt lat="45.8128745" lon="11.7627177"><ele>409.0</ele><time>2026-04-06T05:23:27.55Z</time></trkpt><trkpt lat="45.8129732" lon="11.7628692"><ele>409.0</ele><time>2026-04-06T05:23:28.568Z</time></trkpt><trkpt lat="45.8130589" lon="11.7629929"><ele>409.0</ele><time>2026-04-06T05:23:29.552Z</time></trkpt><trkpt lat="45.8131676" lon="11.7631372"><ele>409.0</ele><time>2026-04-06T05:23:30.546Z</time></trkpt><trkpt lat="45.8132652" lon="11.7632603"><ele>409.0</ele><time>2026-04-06T05:23:31.557Z</time></trkpt><trkpt lat="45.8133697" lon="11.7633604"><ele>409.0</ele><time>2026-04-06T05:23:32.547Z</time></trkpt><trkpt lat="45.8135202" lon="11.7635441"><ele>408.33333333333337</ele><time>2026-04-06T05:23:33.54Z</time></trkpt><trkpt lat="45.8136486" lon="11.7637398"><ele>407.66666666666663</ele><time>2026-04-06T05:23:34.539Z</time></trkpt><trkpt lat="45.8137731" lon="11.7640276"><ele>407.0</ele><time>2026-04-06T05:23:35.698Z</time></trkpt><trkpt lat="45.814032" lon="11.7645625"><ele>407.0</ele><time>2026-04-06T05:23:37.536Z</time></trkpt><trkpt lat="45.8141806" lon="11.7648309"><ele>407.0</ele><time>2026-04-06T05:23:38.555Z</time></trkpt><trkpt lat="45.8142753" lon="11.7650205"><ele>407.0</ele><time>2026-04-06T05:23:39.538Z</time></trkpt><trkpt lat="45.8144097" lon="11.7652434"><ele>410.3333333333333</ele><time>2026-04-06T05:23:40.553Z</time></trkpt><trkpt lat="45.8145443" lon="11.7653832"><ele>413.66666666666663</ele><time>2026-04-06T05:23:41.544Z</time></trkpt><trkpt lat="45.8146732" lon="11.7655176"><ele>417.0</ele><time>2026-04-06T05:23:42.54Z</time></trkpt><trkpt lat="45.8148145" lon="11.7656315"><ele>417.0</ele><time>2026-04-06T05:23:43.533Z</time></trkpt><trkpt lat="45.8149519" lon="11.7657548"><ele>417.0</ele><time>2026-04-06T05:23:44.54Z</time></trkpt><trkpt lat="45.8150991" lon="11.7658619"><ele>417.0</ele><time>2026-04-06T05:23:45.692Z</time></trkpt><trkpt lat="45.8153526" lon="11.766117"><ele>443.0</ele><time>2026-04-06T05:23:47.694Z</time></trkpt><trkpt lat="45.8154751" lon="11.7662462"><ele>469.0</ele><time>2026-04-06T05:23:48.852Z</time></trkpt><trkpt lat="45.815719" lon="11.7665075"><ele>469.0</ele><time>2026-04-06T05:23:50.529Z</time></trkpt><trkpt lat="45.8158046" lon="11.7666187"><ele>469.0</ele><time>2026-04-06T05:23:51.697Z</time></trkpt><trkpt lat="45.8056795" lon="11.7739958"><ele>677.0</ele><time>2026-04-06T05:24:22.894Z</time></trkpt><trkpt lat="45.8178411" lon="11.7634129"><ele>669.3333333333333</ele><time>2026-04-06T05:26:53.567Z</time></trkpt><trkpt lat="45.8179035" lon="11.7637212"><ele>661.6666666666666</ele><time>2026-04-06T05:26:54.556Z</time></trkpt><trkpt lat="45.8180109" lon="11.7638213"><ele>654.0</ele><time>2026-04-06T05:26:55.556Z</time></trkpt><trkpt lat="45.8181371" lon="11.7639252"><ele>654.0</ele><time>2026-04-06T05:26:56.554Z</time></trkpt><trkpt lat="45.818208" lon="11.7638884"><ele>654.0</ele><time>2026-04-06T05:26:57.57Z</time></trkpt><trkpt lat="45.8184145" lon="11.7641151"><ele>654.0</ele><time>2026-04-06T05:26:58.558Z</time></trkpt><trkpt lat="45.818532" lon="11.764211"><ele>661.25</ele><time>2026-04-06T05:26:59.569Z</time></trkpt><trkpt lat="45.818641" lon="11.7642881"><ele>668.5</ele><time>2026-04-06T05:27:00.584Z</time></trkpt><trkpt lat="45.8187365" lon="11.7644759"><ele>675.75</ele><time>2026-04-06T05:27:01.562Z</time></trkpt><trkpt lat="45.8187931" lon="11.7646958"><ele>683.0</ele><time>2026-04-06T05:27:02.562Z</time></trkpt><trkpt lat="45.8188424" lon="11.7649064"><ele>683.0</ele><time>2026-04-06T05:27:03.565Z</time></trkpt><trkpt lat="45.818879" lon="11.7651054"><ele>683.0</ele><time>2026-04-06T05:27:04.557Z</time></trkpt><trkpt lat="45.8189277" lon="11.7653386"><ele>683.0</ele><time>2026-04-06T05:27:05.553Z</time></trkpt><trkpt lat="45.8189149" lon="11.7655335"><ele>683.1666666666666</ele><time>2026-04-06T05:27:07.566Z</time></trkpt><trkpt lat="45.8189594" lon="11.7656049"><ele>683.3333333333333</ele><time>2026-04-06T05:27:08.567Z</time></trkpt><trkpt lat="45.8190284" lon="11.7656214"><ele>683.5</ele><time>2026-04-06T05:27:09.555Z</time></trkpt><trkpt lat="45.8191098" lon="11.7655979"><ele>683.6666666666666</ele><time>2026-04-06T05:27:10.547Z</time></trkpt><trkpt lat="45.8191851" lon="11.7655814"><ele>683.8333333333334</ele><time>2026-04-06T05:27:11.545Z</time></trkpt><trkpt lat="45.8192589" lon="11.7655822"><ele>684.0</ele><time>2026-04-06T05:27:12.55Z</time></trkpt><trkpt lat="45.8192588" lon="11.7654579"><ele>684.0</ele><time>2026-04-06T05:27:13.564Z</time></trkpt><trkpt lat="45.8192434" lon="11.7653534"><ele>684.0</ele><time>2026-04-06T05:27:14.554Z</time></trkpt><trkpt lat="45.8192223" lon="11.765234"><ele>684.0</ele><time>2026-04-06T05:27:15.562Z</time></trkpt><trkpt lat="45.8191664" lon="11.7649625"><ele>684.0</ele><time>2026-04-06T05:27:16.548Z</time></trkpt><trkpt lat="45.8191243" lon="11.7646993"><ele>683.6666666666666</ele><time>2026-04-06T05:27:17.546Z</time></trkpt><trkpt lat="45.8191065" lon="11.7644799"><ele>683.3333333333333</ele><time>2026-04-06T05:27:18.534Z</time></trkpt><trkpt lat="45.8190865" lon="11.7642621"><ele>683.0</ele><time>2026-04-06T05:27:19.539Z</time></trkpt><trkpt lat="45.8189766" lon="11.7640894"><ele>680.0</ele><time>2026-04-06T05:27:20.621Z</time></trkpt><trkpt lat="45.8186885" lon="11.7636682"><ele>677.0</ele><time>2026-04-06T05:27:21.697Z</time></trkpt><trkpt lat="45.8184009" lon="11.7632511"><ele>677.0</ele><time>2026-04-06T05:27:23.563Z</time></trkpt><trkpt lat="45.8182534" lon="11.7628586"><ele>677.0</ele><time>2026-04-06T05:27:24.721Z</time></trkpt><trkpt lat="45.8181758" lon="11.762159"><ele>682.0</ele><time>2026-04-06T05:27:26.564Z</time></trkpt><trkpt lat="45.8181782" lon="11.7619578"><ele>687.0</ele><time>2026-04-06T05:27:27.593Z</time></trkpt><trkpt lat="45.8182632" lon="11.7618262"><ele>692.0</ele><time>2026-04-06T05:27:28.715Z</time></trkpt><trkpt lat="45.8184339" lon="11.761554"><ele>692.5</ele><time>2026-04-06T05:27:30.549Z</time></trkpt><trkpt lat="45.8184917" lon="11.761393"><ele>693.0</ele><time>2026-04-06T05:27:31.562Z</time></trkpt><trkpt lat="45.8184679" lon="11.7611931"><ele>693.5</ele><time>2026-04-06T05:27:32.571Z</time></trkpt><trkpt lat="45.8184738" lon="11.7610344"><ele>694.0</ele><time>2026-04-06T05:27:33.571Z</time></trkpt><trkpt lat="45.8185305" lon="11.7609343"><ele>695.6666666666667</ele><time>2026-04-06T05:27:34.569Z</time></trkpt><trkpt lat="45.8186227" lon="11.7609037"><ele>697.3333333333334</ele><time>2026-04-06T05:27:35.734Z</time></trkpt><trkpt lat="45.8188756" lon="11.7611263"><ele>699.0</ele><time>2026-04-06T05:27:37.571Z</time></trkpt><trkpt lat="45.8188735" lon="11.7612295"><ele>702.0</ele><time>2026-04-06T05:27:38.614Z</time></trkpt><trkpt lat="45.818861" lon="11.7613418"><ele>705.0</ele><time>2026-04-06T05:27:39.592Z</time></trkpt><trkpt lat="45.8188489" lon="11.7614742"><ele>708.0</ele><time>2026-04-06T05:27:40.597Z</time></trkpt><trkpt lat="45.8188479" lon="11.761593"><ele>711.0</ele><time>2026-04-06T05:27:41.549Z</time></trkpt><trkpt lat="45.8188714" lon="11.7617204"><ele>714.0</ele><time>2026-04-06T05:27:42.539Z</time></trkpt><trkpt lat="45.8189266" lon="11.7618302"><ele>717.0</ele><time>2026-04-06T05:27:43.567Z</time></trkpt><trkpt lat="45.8189731" lon="11.7619268"><ele>717.0</ele><time>2026-04-06T05:27:44.552Z</time></trkpt><trkpt lat="45.8190192" lon="11.7620424"><ele>717.0</ele><time>2026-04-06T05:27:45.546Z</time></trkpt><trkpt lat="45.8190553" lon="11.7621774"><ele>717.0</ele><time>2026-04-06T05:27:46.546Z</time></trkpt><trkpt lat="45.8190848" lon="11.7623295"><ele>717.0</ele><time>2026-04-06T05:27:47.54Z</time></trkpt><trkpt lat="45.8191134" lon="11.7624721"><ele>717.0</ele><time>2026-04-06T05:27:48.562Z</time></trkpt><trkpt lat="45.8191501" lon="11.7625824"><ele>717.0</ele><time>2026-04-06T05:27:49.551Z</time></trkpt><trkpt lat="45.8192004" lon="11.7626791"><ele>717.0</ele><time>2026-04-06T05:27:50.562Z</time></trkpt><trkpt lat="45.8193381" lon="11.7628023"><ele>717.0</ele><time>2026-04-06T05:27:51.566Z</time></trkpt><trkpt lat="45.819414" lon="11.7629385"><ele>717.0</ele><time>2026-04-06T05:27:52.554Z</time></trkpt><trkpt lat="45.8195019" lon="11.763073"><ele>721.0</ele><time>2026-04-06T05:27:53.558Z</time></trkpt><trkpt lat="45.8196364" lon="11.7631876"><ele>725.0</ele><time>2026-04-06T05:27:54.574Z</time></trkpt><trkpt lat="45.8197953" lon="11.7632603"><ele>729.0</ele><time>2026-04-06T05:27:55.554Z</time></trkpt><trkpt lat="45.8200088" lon="11.76336"><ele>736.0</ele><time>2026-04-06T05:27:56.585Z</time></trkpt><trkpt lat="45.8201907" lon="11.7634629"><ele>743.0</ele><time>2026-04-06T05:27:57.553Z</time></trkpt><trkpt lat="45.8203023" lon="11.7636344"><ele>750.0</ele><time>2026-04-06T05:27:58.562Z</time></trkpt><trkpt lat="45.8204121" lon="11.7639131"><ele>750.3333333333334</ele><time>2026-04-06T05:27:59.551Z</time></trkpt><trkpt lat="45.820464" lon="11.7641673"><ele>750.6666666666667</ele><time>2026-04-06T05:28:00.567Z</time></trkpt><trkpt lat="45.8205238" lon="11.7644422"><ele>751.0</ele><time>2026-04-06T05:28:01.545Z</time></trkpt><trkpt lat="45.8205779" lon="11.7647247"><ele>748.3333333333334</ele><time>2026-04-06T05:28:02.569Z</time></trkpt><trkpt lat="45.820655" lon="11.7649628"><ele>745.6666666666666</ele><time>2026-04-06T05:28:03.554Z</time></trkpt><trkpt lat="45.8206786" lon="11.7651976"><ele>743.0</ele><time>2026-04-06T05:28:04.564Z</time></trkpt><trkpt lat="45.8207282" lon="11.7654084"><ele>741.2</ele><time>2026-04-06T05:28:05.553Z</time></trkpt><trkpt lat="45.8207674" lon="11.7655789"><ele>739.4</ele><time>2026-04-06T05:28:06.572Z</time></trkpt><trkpt lat="45.8208351" lon="11.7656531"><ele>737.6</ele><time>2026-04-06T05:28:07.569Z</time></trkpt><trkpt lat="45.8208918" lon="11.7657736"><ele>735.8000000000001</ele><time>2026-04-06T05:28:08.552Z</time></trkpt><trkpt lat="45.8210036" lon="11.7657808"><ele>734.0</ele><time>2026-04-06T05:28:10.552Z</time></trkpt><trkpt lat="45.8210517" lon="11.765684"><ele>734.0</ele><time>2026-04-06T05:28:11.645Z</time></trkpt><trkpt lat="45.8210331" lon="11.7655721"><ele>734.0</ele><time>2026-04-06T05:28:12.595Z</time></trkpt><trkpt lat="45.8209924" lon="11.7654401"><ele>734.0</ele><time>2026-04-06T05:28:13.58Z</time></trkpt><trkpt lat="45.8209114" lon="11.7652204"><ele>734.0</ele><time>2026-04-06T05:28:14.559Z</time></trkpt><trkpt lat="45.8208489" lon="11.7649981"><ele>737.0</ele><time>2026-04-06T05:28:15.551Z</time></trkpt><trkpt lat="45.8208161" lon="11.7647133"><ele>740.0</ele><time>2026-04-06T05:28:16.559Z</time></trkpt><trkpt lat="45.8208268" lon="11.7644768"><ele>743.0</ele><time>2026-04-06T05:28:17.588Z</time></trkpt><trkpt lat="45.8208749" lon="11.7642714"><ele>745.6666666666666</ele><time>2026-04-06T05:28:18.548Z</time></trkpt><trkpt lat="45.820957" lon="11.7640026"><ele>748.3333333333334</ele><time>2026-04-06T05:28:19.563Z</time></trkpt><trkpt lat="45.8210307" lon="11.7637807"><ele>751.0</ele><time>2026-04-06T05:28:20.55Z</time></trkpt><trkpt lat="45.8210914" lon="11.7635491"><ele>755.3333333333334</ele><time>2026-04-06T05:28:21.545Z</time></trkpt><trkpt lat="45.8211663" lon="11.763334"><ele>759.6666666666666</ele><time>2026-04-06T05:28:22.542Z</time></trkpt><trkpt lat="45.8212369" lon="11.7631014"><ele>764.0</ele><time>2026-04-06T05:28:23.558Z</time></trkpt><trkpt lat="45.821294" lon="11.7629251"><ele>764.0</ele><time>2026-04-06T05:28:24.556Z</time></trkpt><trkpt lat="45.8213115" lon="11.7627583"><ele>764.0</ele><time>2026-04-06T05:28:25.538Z</time></trkpt><trkpt lat="45.8213568" lon="11.7626954"><ele>764.0</ele><time>2026-04-06T05:28:28.549Z</time></trkpt><trkpt lat="45.8213959" lon="11.7628261"><ele>764.0</ele><time>2026-04-06T05:28:29.569Z</time></trkpt><trkpt lat="45.8213763" lon="11.7629498"><ele>764.0</ele><time>2026-04-06T05:28:30.556Z</time></trkpt><trkpt lat="45.8213643" lon="11.7631446"><ele>764.0</ele><time>2026-04-06T05:28:31.566Z</time></trkpt><trkpt lat="45.8214004" lon="11.7633178"><ele>764.0</ele><time>2026-04-06T05:28:32.557Z</time></trkpt><trkpt lat="45.8214489" lon="11.7634764"><ele>764.0</ele><time>2026-04-06T05:28:33.546Z</time></trkpt><trkpt lat="45.8215215" lon="11.7636225"><ele>764.0</ele><time>2026-04-06T05:28:34.565Z</time></trkpt><trkpt lat="45.8216027" lon="11.7637124"><ele>765.8000000000001</ele><time>2026-04-06T05:28:35.568Z</time></trkpt><trkpt lat="45.8216798" lon="11.7637813"><ele>767.6</ele><time>2026-04-06T05:28:36.568Z</time></trkpt><trkpt lat="45.8217698" lon="11.7637838"><ele>769.4</ele><time>2026-04-06T05:28:37.564Z</time></trkpt><trkpt lat="45.8218652" lon="11.7637911"><ele>771.2</ele><time>2026-04-06T05:28:38.552Z</time></trkpt><trkpt lat="45.8219525" lon="11.7637945"><ele>773.0</ele><time>2026-04-06T05:28:39.545Z</time></trkpt><trkpt lat="45.8220418" lon="11.76377"><ele>777.75</ele><time>2026-04-06T05:28:40.55Z</time></trkpt><trkpt lat="45.8221481" lon="11.7637561"><ele>782.5</ele><time>2026-04-06T05:28:41.545Z</time></trkpt><trkpt lat="45.8222578" lon="11.7637114"><ele>787.25</ele><time>2026-04-06T05:28:42.555Z</time></trkpt><trkpt lat="45.8223803" lon="11.7636902"><ele>792.0</ele><time>2026-04-06T05:28:43.546Z</time></trkpt><trkpt lat="45.8224805" lon="11.763619"><ele>792.0</ele><time>2026-04-06T05:28:44.554Z</time></trkpt><trkpt lat="45.8225944" lon="11.7635369"><ele>792.0</ele><time>2026-04-06T05:28:45.553Z</time></trkpt><trkpt lat="45.8226973" lon="11.7634567"><ele>792.0</ele><time>2026-04-06T05:28:46.547Z</time></trkpt><trkpt lat="45.8228039" lon="11.7633447"><ele>792.0</ele><time>2026-04-06T05:28:47.551Z</time></trkpt><trkpt lat="45.8229079" lon="11.7631963"><ele>797.4000000000001</ele><time>2026-04-06T05:28:48.547Z</time></trkpt><trkpt lat="45.8229744" lon="11.7630644"><ele>802.8000000000001</ele><time>2026-04-06T05:28:49.549Z</time></trkpt><trkpt lat="45.8230331" lon="11.7629113"><ele>808.2</ele><time>2026-04-06T05:28:50.552Z</time></trkpt><trkpt lat="45.8230758" lon="11.762798"><ele>813.6</ele><time>2026-04-06T05:28:51.545Z</time></trkpt><trkpt lat="45.8231009" lon="11.7626913"><ele>819.0</ele><time>2026-04-06T05:28:52.574Z</time></trkpt><trkpt lat="45.8231117" lon="11.7625728"><ele>819.0</ele><time>2026-04-06T05:28:53.572Z</time></trkpt><trkpt lat="45.8232294" lon="11.7625142"><ele>819.0</ele><time>2026-04-06T05:29:00.546Z</time></trkpt><trkpt lat="45.8232648" lon="11.7627078"><ele>819.0</ele><time>2026-04-06T05:29:02.542Z</time></trkpt><trkpt lat="45.8232828" lon="11.7628073"><ele>819.0</ele><time>2026-04-06T05:29:03.534Z</time></trkpt><trkpt lat="45.8233045" lon="11.7629114"><ele>819.0</ele><time>2026-04-06T05:29:04.533Z</time></trkpt><trkpt lat="45.8233236" lon="11.7630143"><ele>819.0</ele><time>2026-04-06T05:29:05.544Z</time></trkpt><trkpt lat="45.8233247" lon="11.7631345"><ele>819.0</ele><time>2026-04-06T05:29:06.546Z</time></trkpt><trkpt lat="45.8233257" lon="11.7633684"><ele>819.0</ele><time>2026-04-06T05:29:07.552Z</time></trkpt><trkpt lat="45.8233067" lon="11.7635483"><ele>819.0</ele><time>2026-04-06T05:29:08.551Z</time></trkpt><trkpt lat="45.823282" lon="11.7637099"><ele>820.0</ele><time>2026-04-06T05:29:09.573Z</time></trkpt><trkpt lat="45.8232801" lon="11.7638759"><ele>821.0</ele><time>2026-04-06T05:29:10.545Z</time></trkpt><trkpt lat="45.823291" lon="11.7640402"><ele>822.0</ele><time>2026-04-06T05:29:11.545Z</time></trkpt><trkpt lat="45.8232747" lon="11.7641923"><ele>823.0</ele><time>2026-04-06T05:29:12.553Z</time></trkpt><trkpt lat="45.8233169" lon="11.7643571"><ele>824.5</ele><time>2026-04-06T05:29:13.546Z</time></trkpt><trkpt lat="45.8233574" lon="11.7645183"><ele>826.0</ele><time>2026-04-06T05:29:14.545Z</time></trkpt><trkpt lat="45.8234002" lon="11.764682"><ele>827.5</ele><time>2026-04-06T05:29:15.564Z</time></trkpt><trkpt lat="45.8234362" lon="11.7648457"><ele>829.0</ele><time>2026-04-06T05:29:16.543Z</time></trkpt><trkpt lat="45.8234452" lon="11.7650597"><ele>829.0</ele><time>2026-04-06T05:29:17.552Z</time></trkpt><trkpt lat="45.8234388" lon="11.7652405"><ele>829.0</ele><time>2026-04-06T05:29:18.544Z</time></trkpt><trkpt lat="45.8234451" lon="11.7654115"><ele>829.0</ele><time>2026-04-06T05:29:19.553Z</time></trkpt><trkpt lat="45.8234272" lon="11.7655557"><ele>829.0</ele><time>2026-04-06T05:29:20.545Z</time></trkpt><trkpt lat="45.8234237" lon="11.7656961"><ele>829.0</ele><time>2026-04-06T05:29:21.545Z</time></trkpt><trkpt lat="45.8234498" lon="11.7658271"><ele>829.0</ele><time>2026-04-06T05:29:22.571Z</time></trkpt><trkpt lat="45.8234789" lon="11.7659468"><ele>829.0</ele><time>2026-04-06T05:29:23.555Z</time></trkpt><trkpt lat="45.8235047" lon="11.7660785"><ele>829.0</ele><time>2026-04-06T05:29:24.544Z</time></trkpt><trkpt lat="45.8235308" lon="11.7662072"><ele>829.0</ele><time>2026-04-06T05:29:25.548Z</time></trkpt><trkpt lat="45.8235755" lon="11.766371"><ele>829.0</ele><time>2026-04-06T05:29:26.553Z</time></trkpt><trkpt lat="45.8236087" lon="11.7665182"><ele>839.5</ele><time>2026-04-06T05:29:27.544Z</time></trkpt><trkpt lat="45.8236419" lon="11.7666705"><ele>850.0</ele><time>2026-04-06T05:29:28.544Z</time></trkpt><trkpt lat="45.8236901" lon="11.766819"><ele>860.5</ele><time>2026-04-06T05:29:29.584Z</time></trkpt><trkpt lat="45.8237429" lon="11.7669653"><ele>871.0</ele><time>2026-04-06T05:29:30.563Z</time></trkpt><trkpt lat="45.8237953" lon="11.7671153"><ele>870.75</ele><time>2026-04-06T05:29:31.552Z</time></trkpt><trkpt lat="45.8238443" lon="11.7672659"><ele>870.5</ele><time>2026-04-06T05:29:32.545Z</time></trkpt><trkpt lat="45.8238948" lon="11.7674185"><ele>870.25</ele><time>2026-04-06T05:29:33.546Z</time></trkpt><trkpt lat="45.8239342" lon="11.7675877"><ele>870.0</ele><time>2026-04-06T05:29:34.571Z</time></trkpt><trkpt lat="45.8239819" lon="11.7677722"><ele>870.0</ele><time>2026-04-06T05:29:35.551Z</time></trkpt><trkpt lat="45.824044" lon="11.7679246"><ele>870.0</ele><time>2026-04-06T05:29:36.547Z</time></trkpt><trkpt lat="45.8241057" lon="11.7680758"><ele>870.0</ele><time>2026-04-06T05:29:37.542Z</time></trkpt><trkpt lat="45.8241686" lon="11.7682279"><ele>870.0</ele><time>2026-04-06T05:29:38.549Z</time></trkpt><trkpt lat="45.8242314" lon="11.7683792"><ele>868.3333333333333</ele><time>2026-04-06T05:29:39.539Z</time></trkpt><trkpt lat="45.8242947" lon="11.76853"><ele>866.6666666666666</ele><time>2026-04-06T05:29:40.537Z</time></trkpt><trkpt lat="45.8243518" lon="11.7686821"><ele>865.0</ele><time>2026-04-06T05:29:41.545Z</time></trkpt><trkpt lat="45.8244659" lon="11.769033"><ele>870.5</ele><time>2026-04-06T05:29:43.56Z</time></trkpt><trkpt lat="45.8245243" lon="11.7692221"><ele>876.0</ele><time>2026-04-06T05:29:44.577Z</time></trkpt><trkpt lat="45.8245611" lon="11.769357"><ele>881.5</ele><time>2026-04-06T05:29:45.55Z</time></trkpt><trkpt lat="45.824606" lon="11.7695299"><ele>887.0</ele><time>2026-04-06T05:29:46.556Z</time></trkpt><trkpt lat="45.8246996" lon="11.7696899"><ele>887.0000000000001</ele><time>2026-04-06T05:29:48.551Z</time></trkpt><trkpt lat="45.824764" lon="11.7696994"><ele>887.0</ele><time>2026-04-06T05:29:49.565Z</time></trkpt><trkpt lat="45.8248292" lon="11.7696704"><ele>887.0</ele><time>2026-04-06T05:29:50.556Z</time></trkpt><trkpt lat="45.8248748" lon="11.7695817"><ele>887.0</ele><time>2026-04-06T05:29:51.558Z</time></trkpt><trkpt lat="45.8248959" lon="11.7694756"><ele>887.0000000000001</ele><time>2026-04-06T05:29:52.576Z</time></trkpt><trkpt lat="45.8249613" lon="11.7693678"><ele>887.0</ele><time>2026-04-06T05:29:53.559Z</time></trkpt><trkpt lat="45.8250001" lon="11.7692536"><ele>890.0</ele><time>2026-04-06T05:29:54.557Z</time></trkpt><trkpt lat="45.8250227" lon="11.7691495"><ele>893.0</ele><time>2026-04-06T05:29:55.542Z</time></trkpt><trkpt lat="45.8250436" lon="11.7690394"><ele>896.0</ele><time>2026-04-06T05:29:56.532Z</time></trkpt><trkpt lat="45.8250642" lon="11.7689379"><ele>899.0</ele><time>2026-04-06T05:29:57.532Z</time></trkpt><trkpt lat="45.8250789" lon="11.7688296"><ele>902.0</ele><time>2026-04-06T05:29:58.528Z</time></trkpt><trkpt lat="45.8252194" lon="11.7665933"><ele>903.2</ele><time>2026-04-06T05:30:19.563Z</time></trkpt><trkpt lat="45.8252486" lon="11.7667417"><ele>904.4000000000001</ele><time>2026-04-06T05:30:20.59Z</time></trkpt><trkpt lat="45.8252342" lon="11.7668689"><ele>905.5999999999999</ele><time>2026-04-06T05:30:21.557Z</time></trkpt><trkpt lat="45.8251962" lon="11.7670222"><ele>906.8</ele><time>2026-04-06T05:30:22.576Z</time></trkpt><trkpt lat="45.8251516" lon="11.7671749"><ele>908.0</ele><time>2026-04-06T05:30:23.554Z</time></trkpt><trkpt lat="45.8251025" lon="11.7673323"><ele>908.0</ele><time>2026-04-06T05:30:24.555Z</time></trkpt><trkpt lat="45.8250541" lon="11.7674973"><ele>908.0</ele><time>2026-04-06T05:30:25.554Z</time></trkpt><trkpt lat="45.8250257" lon="11.7676822"><ele>908.0</ele><time>2026-04-06T05:30:26.567Z</time></trkpt><trkpt lat="45.8250031" lon="11.7678457"><ele>908.0</ele><time>2026-04-06T05:30:27.575Z</time></trkpt><trkpt lat="45.8250167" lon="11.7680252"><ele>908.25</ele><time>2026-04-06T05:30:28.584Z</time></trkpt><trkpt lat="45.8250376" lon="11.7681983"><ele>908.5</ele><time>2026-04-06T05:30:29.566Z</time></trkpt><trkpt lat="45.8250739" lon="11.7684067"><ele>908.75</ele><time>2026-04-06T05:30:30.569Z</time></trkpt><trkpt lat="45.8251131" lon="11.7685876"><ele>909.0</ele><time>2026-04-06T05:30:31.576Z</time></trkpt><trkpt lat="45.8251651" lon="11.7687746"><ele>915.0</ele><time>2026-04-06T05:30:32.555Z</time></trkpt><trkpt lat="45.8252315" lon="11.7689658"><ele>921.0</ele><time>2026-04-06T05:30:33.559Z</time></trkpt><trkpt lat="45.8253247" lon="11.7691124"><ele>927.0</ele><time>2026-04-06T05:30:34.547Z</time></trkpt><trkpt lat="45.8253655" lon="11.7692621"><ele>933.0</ele><time>2026-04-06T05:30:35.561Z</time></trkpt><trkpt lat="45.8254747" lon="11.7693225"><ele>933.0</ele><time>2026-04-06T05:30:36.554Z</time></trkpt><trkpt lat="45.8255776" lon="11.7693197"><ele>933.0</ele><time>2026-04-06T05:30:37.542Z</time></trkpt><trkpt lat="45.8258082" lon="11.7694427"><ele>933.0</ele><time>2026-04-06T05:30:38.537Z</time></trkpt><trkpt lat="45.8259821" lon="11.7695159"><ele>931.0</ele><time>2026-04-06T05:30:39.536Z</time></trkpt><trkpt lat="45.8261335" lon="11.7695751"><ele>929.0</ele><time>2026-04-06T05:30:40.542Z</time></trkpt><trkpt lat="45.8262811" lon="11.769631"><ele>927.0</ele><time>2026-04-06T05:30:41.531Z</time></trkpt><trkpt lat="45.8264278" lon="11.7696892"><ele>927.0</ele><time>2026-04-06T05:30:42.537Z</time></trkpt><trkpt lat="45.8265515" lon="11.7697791"><ele>927.0</ele><time>2026-04-06T05:30:43.543Z</time></trkpt><trkpt lat="45.8266233" lon="11.7698426"><ele>927.0</ele><time>2026-04-06T05:30:44.592Z</time></trkpt><trkpt lat="45.8266758" lon="11.769911"><ele>927.0</ele><time>2026-04-06T05:30:45.551Z</time></trkpt><trkpt lat="45.8266948" lon="11.7697364"><ele>927.0</ele><time>2026-04-06T05:30:48.558Z</time></trkpt><trkpt lat="45.8266295" lon="11.7696097"><ele>927.0</ele><time>2026-04-06T05:30:49.541Z</time></trkpt><trkpt lat="45.8265363" lon="11.7695229"><ele>927.0</ele><time>2026-04-06T05:30:50.533Z</time></trkpt><trkpt lat="45.8264441" lon="11.769429"><ele>927.0</ele><time>2026-04-06T05:30:51.541Z</time></trkpt><trkpt lat="45.826345" lon="11.7693377"><ele>927.0</ele><time>2026-04-06T05:30:52.537Z</time></trkpt><trkpt lat="45.8262465" lon="11.7692472"><ele>929.0</ele><time>2026-04-06T05:30:53.537Z</time></trkpt><trkpt lat="45.8261372" lon="11.7690254"><ele>931.0</ele><time>2026-04-06T05:30:54.557Z</time></trkpt><trkpt lat="45.8260377" lon="11.7688684"><ele>933.0</ele><time>2026-04-06T05:30:55.546Z</time></trkpt><trkpt lat="45.8258711" lon="11.7685869"><ele>936.0</ele><time>2026-04-06T05:30:56.564Z</time></trkpt><trkpt lat="45.8258305" lon="11.7683986"><ele>939.0</ele><time>2026-04-06T05:30:57.545Z</time></trkpt><trkpt lat="45.8257677" lon="11.7682461"><ele>942.0</ele><time>2026-04-06T05:30:58.566Z</time></trkpt><trkpt lat="45.8256812" lon="11.7680897"><ele>945.0</ele><time>2026-04-06T05:30:59.577Z</time></trkpt><trkpt lat="45.8256254" lon="11.7679654"><ele>945.0</ele><time>2026-04-06T05:31:01.553Z</time></trkpt><trkpt lat="45.8256539" lon="11.7681083"><ele>945.0</ele><time>2026-04-06T05:31:03.568Z</time></trkpt><trkpt lat="45.8256421" lon="11.7683071"><ele>945.0</ele><time>2026-04-06T05:31:05.565Z</time></trkpt><trkpt lat="45.8256437" lon="11.7684678"><ele>945.0</ele><time>2026-04-06T05:31:06.574Z</time></trkpt><trkpt lat="45.8256504" lon="11.7685991"><ele>945.0</ele><time>2026-04-06T05:31:07.572Z</time></trkpt><trkpt lat="45.8256788" lon="11.7687123"><ele>946.4</ele><time>2026-04-06T05:31:08.572Z</time></trkpt><trkpt lat="45.825742" lon="11.7688231"><ele>947.8</ele><time>2026-04-06T05:31:09.566Z</time></trkpt><trkpt lat="45.8258207" lon="11.7689103"><ele>949.2</ele><time>2026-04-06T05:31:10.555Z</time></trkpt><trkpt lat="45.8259341" lon="11.7689926"><ele>950.6</ele><time>2026-04-06T05:31:11.569Z</time></trkpt><trkpt lat="45.8260487" lon="11.7690531"><ele>952.0</ele><time>2026-04-06T05:31:12.563Z</time></trkpt><trkpt lat="45.8261611" lon="11.7690969"><ele>952.0</ele><time>2026-04-06T05:31:13.557Z</time></trkpt><trkpt lat="45.8262756" lon="11.7691357"><ele>952.0</ele><time>2026-04-06T05:31:14.565Z</time></trkpt><trkpt lat="45.8264133" lon="11.7691712"><ele>952.0</ele><time>2026-04-06T05:31:15.57Z</time></trkpt><trkpt lat="45.8265413" lon="11.769175"><ele>952.0</ele><time>2026-04-06T05:31:16.557Z</time></trkpt><trkpt lat="45.8266815" lon="11.7691722"><ele>957.3333333333333</ele><time>2026-04-06T05:31:17.549Z</time></trkpt><trkpt lat="45.8268259" lon="11.7691466"><ele>962.6666666666667</ele><time>2026-04-06T05:31:18.564Z</time></trkpt><trkpt lat="45.8269751" lon="11.769115"><ele>968.0</ele><time>2026-04-06T05:31:19.55Z</time></trkpt><trkpt lat="45.8271312" lon="11.7690936"><ele>968.0</ele><time>2026-04-06T05:31:20.56Z</time></trkpt><trkpt lat="45.8272615" lon="11.7690425"><ele>968.0</ele><time>2026-04-06T05:31:21.555Z</time></trkpt><trkpt lat="45.8273397" lon="11.7690124"><ele>968.0</ele><time>2026-04-06T05:31:22.566Z</time></trkpt><trkpt lat="45.8274089" lon="11.7689779"><ele>968.0</ele><time>2026-04-06T05:31:24.564Z</time></trkpt><trkpt lat="45.8273867" lon="11.7688444"><ele>968.0</ele><time>2026-04-06T05:31:29.542Z</time></trkpt><trkpt lat="45.8272546" lon="11.7687795"><ele>968.0</ele><time>2026-04-06T05:31:31.548Z</time></trkpt><trkpt lat="45.8271493" lon="11.7687224"><ele>968.0</ele><time>2026-04-06T05:31:32.542Z</time></trkpt><trkpt lat="45.8270697" lon="11.7686457"><ele>968.0</ele><time>2026-04-06T05:31:33.537Z</time></trkpt><trkpt lat="45.8269771" lon="11.7685402"><ele>968.0</ele><time>2026-04-06T05:31:34.556Z</time></trkpt><trkpt lat="45.8268908" lon="11.7684495"><ele>968.0</ele><time>2026-04-06T05:31:35.564Z</time></trkpt><trkpt lat="45.8268434" lon="11.7683491"><ele>970.5999999999999</ele><time>2026-04-06T05:31:36.552Z</time></trkpt><trkpt lat="45.8268503" lon="11.7682471"><ele>973.1999999999999</ele><time>2026-04-06T05:31:38.562Z</time></trkpt><trkpt lat="45.8269586" lon="11.7682773"><ele>975.8</ele><time>2026-04-06T05:31:40.552Z</time></trkpt><trkpt lat="45.827035" lon="11.7683119"><ele>978.4</ele><time>2026-04-06T05:31:41.557Z</time></trkpt><trkpt lat="45.8271403" lon="11.7683309"><ele>981.0</ele><time>2026-04-06T05:31:42.561Z</time></trkpt><trkpt lat="45.8272745" lon="11.7683475"><ele>981.0</ele><time>2026-04-06T05:31:43.544Z</time></trkpt><trkpt lat="45.8274297" lon="11.7683984"><ele>981.0</ele><time>2026-04-06T05:31:44.56Z</time></trkpt><trkpt lat="45.8275934" lon="11.7684561"><ele>981.0</ele><time>2026-04-06T05:31:45.55Z</time></trkpt><trkpt lat="45.8277534" lon="11.7685169"><ele>985.6666666666667</ele><time>2026-04-06T05:31:46.567Z</time></trkpt><trkpt lat="45.8279176" lon="11.7686176"><ele>990.3333333333334</ele><time>2026-04-06T05:31:47.57Z</time></trkpt><trkpt lat="45.8280721" lon="11.7687181"><ele>995.0</ele><time>2026-04-06T05:31:48.56Z</time></trkpt><trkpt lat="45.8282022" lon="11.7687965"><ele>995.0</ele><time>2026-04-06T05:31:49.569Z</time></trkpt><trkpt lat="45.8283023" lon="11.7688226"><ele>995.0</ele><time>2026-04-06T05:31:50.595Z</time></trkpt><trkpt lat="45.828431" lon="11.7688853"><ele>995.0</ele><time>2026-04-06T05:31:51.553Z</time></trkpt><trkpt lat="45.8285381" lon="11.768931"><ele>995.0</ele><time>2026-04-06T05:31:52.577Z</time></trkpt><trkpt lat="45.8286758" lon="11.7689595"><ele>999.5</ele><time>2026-04-06T05:31:53.563Z</time></trkpt><trkpt lat="45.8287859" lon="11.7689134"><ele>1004.0</ele><time>2026-04-06T05:31:54.552Z</time></trkpt><trkpt lat="45.828933" lon="11.7688898"><ele>1008.5</ele><time>2026-04-06T05:31:55.544Z</time></trkpt><trkpt lat="45.829085" lon="11.7688124"><ele>1013.0</ele><time>2026-04-06T05:31:56.564Z</time></trkpt><trkpt lat="45.8292244" lon="11.7687548"><ele>1016.2</ele><time>2026-04-06T05:31:57.553Z</time></trkpt><trkpt lat="45.8293528" lon="11.7687103"><ele>1019.4</ele><time>2026-04-06T05:31:58.545Z</time></trkpt><trkpt lat="45.8294467" lon="11.7686368"><ele>1022.6000000000001</ele><time>2026-04-06T05:31:59.548Z</time></trkpt><trkpt lat="45.8294568" lon="11.7685311"><ele>1025.8</ele><time>2026-04-06T05:32:00.562Z</time></trkpt><trkpt lat="45.8295232" lon="11.7686165"><ele>1029.0</ele><time>2026-04-06T05:32:03.552Z</time></trkpt><trkpt lat="45.829527" lon="11.7687399"><ele>1029.0</ele><time>2026-04-06T05:32:04.553Z</time></trkpt><trkpt lat="45.8294819" lon="11.7688321"><ele>1029.0</ele><time>2026-04-06T05:32:05.567Z</time></trkpt><trkpt lat="45.8294676" lon="11.7689819"><ele>1029.0</ele><time>2026-04-06T05:32:06.553Z</time></trkpt><trkpt lat="45.8294314" lon="11.7691348"><ele>1029.0</ele><time>2026-04-06T05:32:07.546Z</time></trkpt><trkpt lat="45.8294046" lon="11.7692917"><ele>1029.0</ele><time>2026-04-06T05:32:08.568Z</time></trkpt><trkpt lat="45.8293772" lon="11.7694271"><ele>1030.8333333333333</ele><time>2026-04-06T05:32:09.559Z</time></trkpt><trkpt lat="45.8293446" lon="11.7695155"><ele>1032.6666666666667</ele><time>2026-04-06T05:32:10.554Z</time></trkpt><trkpt lat="45.8293631" lon="11.7696114"><ele>1034.5</ele><time>2026-04-06T05:32:12.559Z</time></trkpt><trkpt lat="45.8295009" lon="11.769604"><ele>1036.3333333333335</ele><time>2026-04-06T05:32:14.565Z</time></trkpt><trkpt lat="45.8295612" lon="11.7695572"><ele>1038.1666666666667</ele><time>2026-04-06T05:32:15.565Z</time></trkpt><trkpt lat="45.8296459" lon="11.7694794"><ele>1040.0</ele><time>2026-04-06T05:32:16.566Z</time></trkpt><trkpt lat="45.8297357" lon="11.7693742"><ele>1037.25</ele><time>2026-04-06T05:32:17.56Z</time></trkpt><trkpt lat="45.8298431" lon="11.7692287"><ele>1034.5</ele><time>2026-04-06T05:32:18.573Z</time></trkpt><trkpt lat="45.8299421" lon="11.7690998"><ele>1031.75</ele><time>2026-04-06T05:32:19.552Z</time></trkpt><trkpt lat="45.8300427" lon="11.7689778"><ele>1029.0</ele><time>2026-04-06T05:32:20.573Z</time></trkpt><trkpt lat="45.8301287" lon="11.7688913"><ele>1031.0</ele><time>2026-04-06T05:32:21.553Z</time></trkpt><trkpt lat="45.8302168" lon="11.7688076"><ele>1033.0</ele><time>2026-04-06T05:32:22.552Z</time></trkpt><trkpt lat="45.8303145" lon="11.7687031"><ele>1035.0</ele><time>2026-04-06T05:32:23.549Z</time></trkpt><trkpt lat="45.8304134" lon="11.7685999"><ele>1037.0</ele><time>2026-04-06T05:32:24.544Z</time></trkpt><trkpt lat="45.8305242" lon="11.7684861"><ele>1037.0</ele><time>2026-04-06T05:32:25.552Z</time></trkpt><trkpt lat="45.8306363" lon="11.7683943"><ele>1037.0</ele><time>2026-04-06T05:32:26.553Z</time></trkpt><trkpt lat="45.8307462" lon="11.7682963"><ele>1037.0</ele><time>2026-04-06T05:32:27.555Z</time></trkpt><trkpt lat="45.8308625" lon="11.7682315"><ele>1037.0</ele><time>2026-04-06T05:32:28.55Z</time></trkpt><trkpt lat="45.8309669" lon="11.7681768"><ele>1037.1666666666667</ele><time>2026-04-06T05:32:29.566Z</time></trkpt><trkpt lat="45.8310548" lon="11.7681525"><ele>1037.3333333333335</ele><time>2026-04-06T05:32:30.564Z</time></trkpt><trkpt lat="45.8311479" lon="11.76817"><ele>1037.5</ele><time>2026-04-06T05:32:31.569Z</time></trkpt><trkpt lat="45.8312216" lon="11.7681832"><ele>1037.6666666666667</ele><time>2026-04-06T05:32:32.567Z</time></trkpt><trkpt lat="45.83129" lon="11.7681914"><ele>1037.8333333333333</ele><time>2026-04-06T05:32:33.571Z</time></trkpt><trkpt lat="45.8313699" lon="11.7682309"><ele>1038.0</ele><time>2026-04-06T05:32:34.562Z</time></trkpt><trkpt lat="45.8314658" lon="11.7683431"><ele>1038.0</ele><time>2026-04-06T05:32:36.576Z</time></trkpt><trkpt lat="45.8314616" lon="11.7684934"><ele>1038.0</ele><time>2026-04-06T05:32:38.571Z</time></trkpt><trkpt lat="45.831435" lon="11.7685815"><ele>1038.0</ele><time>2026-04-06T05:32:39.602Z</time></trkpt><trkpt lat="45.8313965" lon="11.7686677"><ele>1038.0</ele><time>2026-04-06T05:32:40.573Z</time></trkpt><trkpt lat="45.8313369" lon="11.7687491"><ele>1038.0</ele><time>2026-04-06T05:32:41.573Z</time></trkpt><trkpt lat="45.8312662" lon="11.7688419"><ele>1038.0</ele><time>2026-04-06T05:32:42.578Z</time></trkpt><trkpt lat="45.831221" lon="11.7689355"><ele>1040.8333333333333</ele><time>2026-04-06T05:32:43.566Z</time></trkpt><trkpt lat="45.8311512" lon="11.7690356"><ele>1043.6666666666667</ele><time>2026-04-06T05:32:44.577Z</time></trkpt><trkpt lat="45.8310892" lon="11.7691215"><ele>1046.5</ele><time>2026-04-06T05:32:45.575Z</time></trkpt><trkpt lat="45.8311665" lon="11.769145"><ele>1049.3333333333335</ele><time>2026-04-06T05:32:51.572Z</time></trkpt><trkpt lat="45.8312415" lon="11.7691111"><ele>1052.1666666666667</ele><time>2026-04-06T05:32:52.56Z</time></trkpt><trkpt lat="45.8313275" lon="11.7690996"><ele>1055.0</ele><time>2026-04-06T05:32:53.568Z</time></trkpt><trkpt lat="45.831408" lon="11.7691002"><ele>1055.0</ele><time>2026-04-06T05:32:54.563Z</time></trkpt><trkpt lat="45.8314944" lon="11.7691233"><ele>1055.0</ele><time>2026-04-06T05:32:55.549Z</time></trkpt><trkpt lat="45.8315868" lon="11.7691556"><ele>1055.0</ele><time>2026-04-06T05:32:56.552Z</time></trkpt><trkpt lat="45.8316795" lon="11.769184"><ele>1055.0</ele><time>2026-04-06T05:32:57.554Z</time></trkpt><trkpt lat="45.8317919" lon="11.7692144"><ele>1055.0</ele><time>2026-04-06T05:32:58.555Z</time></trkpt><trkpt lat="45.8318773" lon="11.7692001"><ele>1058.0</ele><time>2026-04-06T05:32:59.545Z</time></trkpt><trkpt lat="45.8319603" lon="11.7691653"><ele>1061.0</ele><time>2026-04-06T05:33:00.55Z</time></trkpt><trkpt lat="45.8320392" lon="11.7690896"><ele>1064.0</ele><time>2026-04-06T05:33:01.555Z</time></trkpt><trkpt lat="45.8321142" lon="11.7690066"><ele>1067.0</ele><time>2026-04-06T05:33:02.548Z</time></trkpt><trkpt lat="45.8321865" lon="11.7689129"><ele>1070.0</ele><time>2026-04-06T05:33:03.558Z</time></trkpt><trkpt lat="45.8322633" lon="11.7688459"><ele>1070.0</ele><time>2026-04-06T05:33:04.545Z</time></trkpt><trkpt lat="45.8323559" lon="11.7687888"><ele>1070.0</ele><time>2026-04-06T05:33:05.549Z</time></trkpt><trkpt lat="45.8324601" lon="11.7687299"><ele>1070.0</ele><time>2026-04-06T05:33:06.554Z</time></trkpt><trkpt lat="45.8325839" lon="11.768682"><ele>1070.0</ele><time>2026-04-06T05:33:07.544Z</time></trkpt><trkpt lat="45.832709" lon="11.7686123"><ele>1070.2</ele><time>2026-04-06T05:33:08.555Z</time></trkpt><trkpt lat="45.8328303" lon="11.7685433"><ele>1070.4</ele><time>2026-04-06T05:33:09.545Z</time></trkpt><trkpt lat="45.8329409" lon="11.7684682"><ele>1070.6</ele><time>2026-04-06T05:33:10.547Z</time></trkpt><trkpt lat="45.8330167" lon="11.7683854"><ele>1070.8</ele><time>2026-04-06T05:33:11.557Z</time></trkpt><trkpt lat="45.833117" lon="11.7683684"><ele>1071.0</ele><time>2026-04-06T05:33:12.55Z</time></trkpt><trkpt lat="45.8333229" lon="11.7685608"><ele>1074.0</ele><time>2026-04-06T05:33:13.571Z</time></trkpt><trkpt lat="45.8333873" lon="11.7686425"><ele>1077.0</ele><time>2026-04-06T05:33:14.552Z</time></trkpt><trkpt lat="45.833439" lon="11.7687376"><ele>1080.0</ele><time>2026-04-06T05:33:15.572Z</time></trkpt><trkpt lat="45.8334963" lon="11.7687925"><ele>1083.0</ele><time>2026-04-06T05:33:16.719Z</time></trkpt><trkpt lat="45.8336015" lon="11.7688054"><ele>1086.0</ele><time>2026-04-06T05:33:18.559Z</time></trkpt><trkpt lat="45.8337228" lon="11.7686874"><ele>1086.0</ele><time>2026-04-06T05:33:20.547Z</time></trkpt><trkpt lat="45.8338272" lon="11.7686129"><ele>1086.0</ele><time>2026-04-06T05:33:21.546Z</time></trkpt><trkpt lat="45.8339341" lon="11.7685275"><ele>1086.0</ele><time>2026-04-06T05:33:22.555Z</time></trkpt><trkpt lat="45.8340314" lon="11.7684552"><ele>1086.0</ele><time>2026-04-06T05:33:23.541Z</time></trkpt><trkpt lat="45.8341239" lon="11.7683862"><ele>1084.5</ele><time>2026-04-06T05:33:24.545Z</time></trkpt><trkpt lat="45.8342143" lon="11.7683573"><ele>1083.0</ele><time>2026-04-06T05:33:25.543Z</time></trkpt><trkpt lat="45.8342998" lon="11.7683286"><ele>1081.5</ele><time>2026-04-06T05:33:26.541Z</time></trkpt><trkpt lat="45.8343744" lon="11.7683076"><ele>1080.0</ele><time>2026-04-06T05:33:27.552Z</time></trkpt><trkpt lat="45.8344385" lon="11.7683086"><ele>1078.5</ele><time>2026-04-06T05:33:28.548Z</time></trkpt><trkpt lat="45.8345514" lon="11.7683686"><ele>1077.0</ele><time>2026-04-06T05:33:29.557Z</time></trkpt><trkpt lat="45.8346131" lon="11.7684946"><ele>1076.8</ele><time>2026-04-06T05:33:31.575Z</time></trkpt><trkpt lat="45.8346126" lon="11.7686223"><ele>1076.6</ele><time>2026-04-06T05:33:33.575Z</time></trkpt><trkpt lat="45.8345472" lon="11.7687951"><ele>1076.3999999999999</ele><time>2026-04-06T05:33:35.581Z</time></trkpt><trkpt lat="45.8345034" lon="11.768906"><ele>1076.2</ele><time>2026-04-06T05:33:36.574Z</time></trkpt><trkpt lat="45.8344594" lon="11.7690263"><ele>1076.0</ele><time>2026-04-06T05:33:37.56Z</time></trkpt><trkpt lat="45.8343278" lon="11.7691622"><ele>1077.6666666666667</ele><time>2026-04-06T05:33:38.577Z</time></trkpt><trkpt lat="45.8342963" lon="11.7692709"><ele>1079.3333333333335</ele><time>2026-04-06T05:33:39.557Z</time></trkpt><trkpt lat="45.8342482" lon="11.7693917"><ele>1081.0</ele><time>2026-04-06T05:33:40.565Z</time></trkpt><trkpt lat="45.8342174" lon="11.7695149"><ele>1082.6666666666667</ele><time>2026-04-06T05:33:41.561Z</time></trkpt><trkpt lat="45.8341781" lon="11.7696324"><ele>1084.3333333333333</ele><time>2026-04-06T05:33:42.562Z</time></trkpt><trkpt lat="45.8341753" lon="11.769725"><ele>1086.0</ele><time>2026-04-06T05:33:43.575Z</time></trkpt><trkpt lat="45.8342078" lon="11.7698371"><ele>1086.0</ele><time>2026-04-06T05:33:45.574Z</time></trkpt><trkpt lat="45.834318" lon="11.7698722"><ele>1086.0</ele><time>2026-04-06T05:33:47.57Z</time></trkpt><trkpt lat="45.8343845" lon="11.7698654"><ele>1086.0</ele><time>2026-04-06T05:33:48.553Z</time></trkpt><trkpt lat="45.8344629" lon="11.7698411"><ele>1086.0</ele><time>2026-04-06T05:33:49.568Z</time></trkpt><trkpt lat="45.8345355" lon="11.76982"><ele>1086.0</ele><time>2026-04-06T05:33:50.551Z</time></trkpt><trkpt lat="45.8346194" lon="11.7697903"><ele>1086.0</ele><time>2026-04-06T05:33:51.547Z</time></trkpt><trkpt lat="45.8346946" lon="11.7697681"><ele>1086.0</ele><time>2026-04-06T05:33:52.551Z</time></trkpt><trkpt lat="45.8347727" lon="11.7697256"><ele>1086.0</ele><time>2026-04-06T05:33:53.553Z</time></trkpt><trkpt lat="45.8348427" lon="11.7697161"><ele>1086.0</ele><time>2026-04-06T05:33:54.54Z</time></trkpt><trkpt lat="45.8349133" lon="11.7696913"><ele>1086.0</ele><time>2026-04-06T05:33:55.554Z</time></trkpt><trkpt lat="45.8349813" lon="11.7696918"><ele>1086.0</ele><time>2026-04-06T05:33:56.545Z</time></trkpt><trkpt lat="45.8350501" lon="11.7696796"><ele>1086.0</ele><time>2026-04-06T05:33:57.552Z</time></trkpt><trkpt lat="45.8351567" lon="11.7697338"><ele>1086.0</ele><time>2026-04-06T05:33:59.648Z</time></trkpt><trkpt lat="45.8351951" lon="11.7698083"><ele>1086.0</ele><time>2026-04-06T05:34:01.569Z</time></trkpt><trkpt lat="45.8351488" lon="11.7698925"><ele>1086.0</ele><time>2026-04-06T05:34:03.58Z</time></trkpt><trkpt lat="45.8350957" lon="11.7699767"><ele>1086.0</ele><time>2026-04-06T05:34:05.553Z</time></trkpt><trkpt lat="45.8349862" lon="11.7700686"><ele>1086.0</ele><time>2026-04-06T05:34:07.571Z</time></trkpt><trkpt lat="45.8349284" lon="11.7701201"><ele>1086.0</ele><time>2026-04-06T05:34:08.565Z</time></trkpt><trkpt lat="45.8348744" lon="11.7701884"><ele>1086.0</ele><time>2026-04-06T05:34:09.713Z</time></trkpt><trkpt lat="45.8348373" lon="11.7702628"><ele>1086.0</ele><time>2026-04-06T05:34:10.731Z</time></trkpt><trkpt lat="45.8347818" lon="11.7704615"><ele>1086.0</ele><time>2026-04-06T05:34:12.589Z</time></trkpt><trkpt lat="45.8347569" lon="11.7706097"><ele>1086.0</ele><time>2026-04-06T05:34:13.572Z</time></trkpt><trkpt lat="45.8347397" lon="11.7707267"><ele>1086.0</ele><time>2026-04-06T05:34:14.573Z</time></trkpt><trkpt lat="45.8347032" lon="11.7708069"><ele>1086.0</ele><time>2026-04-06T05:34:15.578Z</time></trkpt><trkpt lat="45.8346016" lon="11.7709393"><ele>1086.0</ele><time>2026-04-06T05:34:17.573Z</time></trkpt><trkpt lat="45.8345147" lon="11.7710197"><ele>1086.0</ele><time>2026-04-06T05:34:18.578Z</time></trkpt><trkpt lat="45.8344559" lon="11.7711183"><ele>1086.0</ele><time>2026-04-06T05:34:19.577Z</time></trkpt><trkpt lat="45.8343971" lon="11.7712022"><ele>1086.0</ele><time>2026-04-06T05:34:20.561Z</time></trkpt><trkpt lat="45.834352" lon="11.7712875"><ele>1089.0</ele><time>2026-04-06T05:34:21.57Z</time></trkpt><trkpt lat="45.8342824" lon="11.7713668"><ele>1092.0</ele><time>2026-04-06T05:34:23.554Z</time></trkpt><trkpt lat="45.8342094" lon="11.7714297"><ele>1095.0</ele><time>2026-04-06T05:34:25.56Z</time></trkpt><trkpt lat="45.8341472" lon="11.7714847"><ele>1098.0</ele><time>2026-04-06T05:34:27.565Z</time></trkpt><trkpt lat="45.8340914" lon="11.7715614"><ele>1101.0</ele><time>2026-04-06T05:34:29.553Z</time></trkpt><trkpt lat="45.8340954" lon="11.7716576"><ele>1104.0</ele><time>2026-04-06T05:34:31.573Z</time></trkpt><trkpt lat="45.834165" lon="11.771744"><ele>1104.0</ele><time>2026-04-06T05:34:33.554Z</time></trkpt><trkpt lat="45.8342788" lon="11.7718277"><ele>1104.0</ele><time>2026-04-06T05:34:35.561Z</time></trkpt><trkpt lat="45.8343316" lon="11.7718927"><ele>1104.0</ele><time>2026-04-06T05:34:36.552Z</time></trkpt><trkpt lat="45.8344284" lon="11.7719736"><ele>1104.0</ele><time>2026-04-06T05:34:38.552Z</time></trkpt><trkpt lat="45.8345036" lon="11.7720719"><ele>1104.0</ele><time>2026-04-06T05:34:40.569Z</time></trkpt><trkpt lat="45.8345435" lon="11.7721533"><ele>1099.5</ele><time>2026-04-06T05:34:41.555Z</time></trkpt><trkpt lat="45.8346117" lon="11.7722773"><ele>1095.0</ele><time>2026-04-06T05:34:42.569Z</time></trkpt><trkpt lat="45.8346795" lon="11.7723838"><ele>1090.5</ele><time>2026-04-06T05:34:43.563Z</time></trkpt><trkpt lat="45.8347313" lon="11.7724744"><ele>1086.0</ele><time>2026-04-06T05:34:44.553Z</time></trkpt><trkpt lat="45.8347913" lon="11.7725479"><ele>1081.5</ele><time>2026-04-06T05:34:45.555Z</time></trkpt><trkpt lat="45.834842" lon="11.7726125"><ele>1077.0</ele><time>2026-04-06T05:34:46.543Z</time></trkpt><trkpt lat="45.8349055" lon="11.7726782"><ele>1078.8</ele><time>2026-04-06T05:34:47.564Z</time></trkpt><trkpt lat="45.8349727" lon="11.7727433"><ele>1080.6</ele><time>2026-04-06T05:34:48.568Z</time></trkpt><trkpt lat="45.8350385" lon="11.7728895"><ele>1082.3999999999999</ele><time>2026-04-06T05:34:50.578Z</time></trkpt><trkpt lat="45.8350471" lon="11.7729926"><ele>1084.2</ele><time>2026-04-06T05:34:51.583Z</time></trkpt><trkpt lat="45.8351165" lon="11.773148"><ele>1086.0</ele><time>2026-04-06T05:36:14.583Z</time></trkpt><trkpt lat="45.8351732" lon="11.7733419"><ele>1080.5</ele><time>2026-04-06T05:36:16.575Z</time></trkpt><trkpt lat="45.835222" lon="11.773452"><ele>1075.0</ele><time>2026-04-06T05:36:17.566Z</time></trkpt><trkpt lat="45.8352675" lon="11.7735769"><ele>1069.5</ele><time>2026-04-06T05:36:18.569Z</time></trkpt><trkpt lat="45.8352912" lon="11.773691"><ele>1064.0</ele><time>2026-04-06T05:36:19.601Z</time></trkpt><trkpt lat="45.8353199" lon="11.7737963"><ele>1058.5</ele><time>2026-04-06T05:36:20.598Z</time></trkpt><trkpt lat="45.8353352" lon="11.773904"><ele>1053.0</ele><time>2026-04-06T05:36:21.58Z</time></trkpt><trkpt lat="45.835333" lon="11.7740744"><ele>1053.0</ele><time>2026-04-06T05:36:23.584Z</time></trkpt><trkpt lat="45.8353039" lon="11.7742631"><ele>1053.0</ele><time>2026-04-06T05:36:25.578Z</time></trkpt><trkpt lat="45.8353007" lon="11.7743615"><ele>1053.0</ele><time>2026-04-06T05:36:26.583Z</time></trkpt><trkpt lat="45.835298" lon="11.7745586"><ele>1053.0</ele><time>2026-04-06T05:36:28.581Z</time></trkpt><trkpt lat="45.8353083" lon="11.7746929"><ele>1053.0</ele><time>2026-04-06T05:36:29.58Z</time></trkpt><trkpt lat="45.835304" lon="11.7748306"><ele>1053.8</ele><time>2026-04-06T05:36:30.576Z</time></trkpt><trkpt lat="45.8352921" lon="11.7749997"><ele>1054.6</ele><time>2026-04-06T05:36:31.583Z</time></trkpt><trkpt lat="45.8352847" lon="11.7751307"><ele>1055.4</ele><time>2026-04-06T05:36:32.58Z</time></trkpt><trkpt lat="45.8353006" lon="11.7752668"><ele>1056.2</ele><time>2026-04-06T05:36:33.577Z</time></trkpt><trkpt lat="45.8353257" lon="11.7754297"><ele>1057.0</ele><time>2026-04-06T05:36:34.582Z</time></trkpt><trkpt lat="45.8353445" lon="11.7755794"><ele>1057.0</ele><time>2026-04-06T05:36:35.584Z</time></trkpt><trkpt lat="45.8353459" lon="11.7757375"><ele>1057.0</ele><time>2026-04-06T05:36:36.605Z</time></trkpt><trkpt lat="45.8353788" lon="11.7758634"><ele>1057.0</ele><time>2026-04-06T05:36:37.58Z</time></trkpt><trkpt lat="45.835422" lon="11.7759826"><ele>1057.0</ele><time>2026-04-06T05:36:38.578Z</time></trkpt><trkpt lat="45.83549" lon="11.7760783"><ele>1057.0</ele><time>2026-04-06T05:36:39.577Z</time></trkpt><trkpt lat="45.835566" lon="11.7761826"><ele>1055.75</ele><time>2026-04-06T05:36:40.584Z</time></trkpt><trkpt lat="45.8356598" lon="11.7763216"><ele>1054.5</ele><time>2026-04-06T05:36:41.601Z</time></trkpt><trkpt lat="45.835743" lon="11.7764604"><ele>1053.25</ele><time>2026-04-06T05:36:42.603Z</time></trkpt><trkpt lat="45.8358267" lon="11.7765911"><ele>1052.0</ele><time>2026-04-06T05:36:43.584Z</time></trkpt><trkpt lat="45.8358938" lon="11.7766983"><ele>1052.0</ele><time>2026-04-06T05:36:44.577Z</time></trkpt><trkpt lat="45.8359507" lon="11.7768044"><ele>1052.0</ele><time>2026-04-06T05:36:45.583Z</time></trkpt><trkpt lat="45.8360019" lon="11.7769123"><ele>1052.0</ele><time>2026-04-06T05:36:46.602Z</time></trkpt><trkpt lat="45.836037" lon="11.7770192"><ele>1052.0</ele><time>2026-04-06T05:36:47.582Z</time></trkpt><trkpt lat="45.8360523" lon="11.7771168"><ele>1052.0</ele><time>2026-04-06T05:36:48.579Z</time></trkpt><trkpt lat="45.8360722" lon="11.7772229"><ele>1052.0</ele><time>2026-04-06T05:36:49.581Z</time></trkpt><trkpt lat="45.8361007" lon="11.7773041"><ele>1050.0</ele><time>2026-04-06T05:36:50.585Z</time></trkpt><trkpt lat="45.8362057" lon="11.7774014"><ele>1048.0</ele><time>2026-04-06T05:36:52.584Z</time></trkpt><trkpt lat="45.8362794" lon="11.7774564"><ele>1046.0</ele><time>2026-04-06T05:36:53.581Z</time></trkpt><trkpt lat="45.8363528" lon="11.7774828"><ele>1044.0</ele><time>2026-04-06T05:36:54.597Z</time></trkpt><trkpt lat="45.8364149" lon="11.7775196"><ele>1042.0</ele><time>2026-04-06T05:36:55.582Z</time></trkpt><trkpt lat="45.8364779" lon="11.7775608"><ele>1040.0</ele><time>2026-04-06T05:36:56.574Z</time></trkpt><trkpt lat="45.8365061" lon="11.7777118"><ele>1040.0</ele><time>2026-04-06T05:36:58.578Z</time></trkpt><trkpt lat="45.836477" lon="11.7778695"><ele>1040.0</ele><time>2026-04-06T05:36:59.577Z</time></trkpt><trkpt lat="45.8364783" lon="11.7780407"><ele>1040.0</ele><time>2026-04-06T05:37:00.574Z</time></trkpt><trkpt lat="45.8365181" lon="11.7782639"><ele>1040.0</ele><time>2026-04-06T05:37:01.578Z</time></trkpt><trkpt lat="45.8365469" lon="11.7784627"><ele>1040.0</ele><time>2026-04-06T05:37:02.579Z</time></trkpt><trkpt lat="45.8365735" lon="11.7786972"><ele>1040.0</ele><time>2026-04-06T05:37:03.583Z</time></trkpt><trkpt lat="45.8366152" lon="11.7790187"><ele>1040.0</ele><time>2026-04-06T05:37:04.583Z</time></trkpt><trkpt lat="45.8366683" lon="11.7793242"><ele>1042.3333333333335</ele><time>2026-04-06T05:37:05.582Z</time></trkpt><trkpt lat="45.8367342" lon="11.7795691"><ele>1044.6666666666667</ele><time>2026-04-06T05:37:06.583Z</time></trkpt><trkpt lat="45.8367997" lon="11.7797689"><ele>1047.0</ele><time>2026-04-06T05:37:07.578Z</time></trkpt><trkpt lat="45.836861" lon="11.7799736"><ele>1049.6</ele><time>2026-04-06T05:37:08.587Z</time></trkpt><trkpt lat="45.8368985" lon="11.7801443"><ele>1052.2</ele><time>2026-04-06T05:37:09.589Z</time></trkpt><trkpt lat="45.8369344" lon="11.7803211"><ele>1054.8</ele><time>2026-04-06T05:37:10.578Z</time></trkpt><trkpt lat="45.8369578" lon="11.7804401"><ele>1057.4</ele><time>2026-04-06T05:37:11.585Z</time></trkpt><trkpt lat="45.8370231" lon="11.7805357"><ele>1060.0</ele><time>2026-04-06T05:37:12.578Z</time></trkpt><trkpt lat="45.8370855" lon="11.78064"><ele>1061.4</ele><time>2026-04-06T05:37:13.58Z</time></trkpt><trkpt lat="45.8371841" lon="11.7806965"><ele>1062.8</ele><time>2026-04-06T05:37:15.585Z</time></trkpt><trkpt lat="45.8372542" lon="11.7806708"><ele>1064.2</ele><time>2026-04-06T05:37:16.579Z</time></trkpt><trkpt lat="45.8373272" lon="11.780617"><ele>1065.6</ele><time>2026-04-06T05:37:17.582Z</time></trkpt><trkpt lat="45.837417" lon="11.7804996"><ele>1067.0</ele><time>2026-04-06T05:37:18.583Z</time></trkpt><trkpt lat="45.8375128" lon="11.7804009"><ele>1067.0</ele><time>2026-04-06T05:37:19.579Z</time></trkpt><trkpt lat="45.8376304" lon="11.7802608"><ele>1067.0</ele><time>2026-04-06T05:37:20.563Z</time></trkpt><trkpt lat="45.8377545" lon="11.7801076"><ele>1067.0</ele><time>2026-04-06T05:37:21.57Z</time></trkpt><trkpt lat="45.8378795" lon="11.7798826"><ele>1074.6666666666667</ele><time>2026-04-06T05:37:22.584Z</time></trkpt><trkpt lat="45.8379724" lon="11.7796539"><ele>1082.3333333333333</ele><time>2026-04-06T05:37:23.56Z</time></trkpt><trkpt lat="45.8380589" lon="11.7794928"><ele>1090.0</ele><time>2026-04-06T05:37:24.572Z</time></trkpt><trkpt lat="45.8380846" lon="11.7792955"><ele>1090.25</ele><time>2026-04-06T05:37:25.579Z</time></trkpt><trkpt lat="45.8380419" lon="11.7791108"><ele>1090.5</ele><time>2026-04-06T05:37:26.56Z</time></trkpt><trkpt lat="45.8379994" lon="11.7789591"><ele>1090.75</ele><time>2026-04-06T05:37:27.551Z</time></trkpt><trkpt lat="45.8379343" lon="11.7787452"><ele>1091.0</ele><time>2026-04-06T05:37:28.553Z</time></trkpt><trkpt lat="45.837856" lon="11.778532"><ele>1090.0</ele><time>2026-04-06T05:37:29.629Z</time></trkpt><trkpt lat="45.8378673" lon="11.7783395"><ele>1089.0</ele><time>2026-04-06T05:37:30.566Z</time></trkpt><trkpt lat="45.8378697" lon="11.7780856"><ele>1088.0</ele><time>2026-04-06T05:37:31.559Z</time></trkpt><trkpt lat="45.8379055" lon="11.7778647"><ele>1083.6666666666667</ele><time>2026-04-06T05:37:32.568Z</time></trkpt><trkpt lat="45.8379481" lon="11.7776383"><ele>1079.3333333333333</ele><time>2026-04-06T05:37:33.548Z</time></trkpt><trkpt lat="45.8380854" lon="11.7774327"><ele>1075.0</ele><time>2026-04-06T05:37:34.631Z</time></trkpt><trkpt lat="45.838221" lon="11.7772547"><ele>1075.0</ele><time>2026-04-06T05:37:35.544Z</time></trkpt><trkpt lat="45.8383616" lon="11.7770768"><ele>1075.0</ele><time>2026-04-06T05:37:36.54Z</time></trkpt><trkpt lat="45.8384763" lon="11.7769242"><ele>1075.0</ele><time>2026-04-06T05:37:37.551Z</time></trkpt><trkpt lat="45.8385678" lon="11.7767458"><ele>1086.6666666666665</ele><time>2026-04-06T05:37:38.558Z</time></trkpt><trkpt lat="45.8386487" lon="11.7765282"><ele>1098.3333333333333</ele><time>2026-04-06T05:37:39.549Z</time></trkpt><trkpt lat="45.8387242" lon="11.7762911"><ele>1110.0</ele><time>2026-04-06T05:37:40.551Z</time></trkpt><trkpt lat="45.8388197" lon="11.7760586"><ele>1106.6666666666667</ele><time>2026-04-06T05:37:41.544Z</time></trkpt><trkpt lat="45.8388957" lon="11.7758108"><ele>1103.3333333333335</ele><time>2026-04-06T05:37:42.545Z</time></trkpt><trkpt lat="45.8389464" lon="11.7755756"><ele>1100.0</ele><time>2026-04-06T05:37:43.555Z</time></trkpt><trkpt lat="45.8390058" lon="11.7753904"><ele>1100.0</ele><time>2026-04-06T05:37:44.547Z</time></trkpt><trkpt lat="45.8390599" lon="11.7752432"><ele>1100.0</ele><time>2026-04-06T05:37:45.542Z</time></trkpt><trkpt lat="45.8390921" lon="11.7751086"><ele>1100.0</ele><time>2026-04-06T05:37:46.552Z</time></trkpt><trkpt lat="45.8391463" lon="11.7750241"><ele>1100.0</ele><time>2026-04-06T05:37:47.554Z</time></trkpt><trkpt lat="45.8392218" lon="11.7748741"><ele>1100.0</ele><time>2026-04-06T05:37:48.548Z</time></trkpt><trkpt lat="45.8393283" lon="11.7747845"><ele>1102.75</ele><time>2026-04-06T05:37:49.556Z</time></trkpt><trkpt lat="45.8394333" lon="11.7746542"><ele>1105.5</ele><time>2026-04-06T05:37:50.552Z</time></trkpt><trkpt lat="45.8395126" lon="11.7744824"><ele>1108.25</ele><time>2026-04-06T05:37:51.562Z</time></trkpt><trkpt lat="45.8395811" lon="11.7742987"><ele>1111.0</ele><time>2026-04-06T05:37:52.559Z</time></trkpt><trkpt lat="45.8396826" lon="11.7741583"><ele>1111.0</ele><time>2026-04-06T05:37:53.549Z</time></trkpt><trkpt lat="45.8397782" lon="11.7739904"><ele>1111.0</ele><time>2026-04-06T05:37:54.554Z</time></trkpt><trkpt lat="45.8398623" lon="11.7738597"><ele>1111.0</ele><time>2026-04-06T05:37:55.555Z</time></trkpt><trkpt lat="45.8399492" lon="11.7737021"><ele>1111.0</ele><time>2026-04-06T05:37:56.57Z</time></trkpt><trkpt lat="45.8400012" lon="11.7734805"><ele>1106.25</ele><time>2026-04-06T05:37:57.543Z</time></trkpt><trkpt lat="45.8400518" lon="11.773244"><ele>1101.5</ele><time>2026-04-06T05:37:58.556Z</time></trkpt><trkpt lat="45.8401325" lon="11.7730652"><ele>1096.75</ele><time>2026-04-06T05:37:59.549Z</time></trkpt><trkpt lat="45.8401847" lon="11.7729159"><ele>1092.0</ele><time>2026-04-06T05:38:00.555Z</time></trkpt><trkpt lat="45.8402163" lon="11.7727734"><ele>1100.25</ele><time>2026-04-06T05:38:01.557Z</time></trkpt><trkpt lat="45.8402652" lon="11.7726409"><ele>1108.5</ele><time>2026-04-06T05:38:02.554Z</time></trkpt><trkpt lat="45.8403025" lon="11.7724839"><ele>1116.75</ele><time>2026-04-06T05:38:03.552Z</time></trkpt><trkpt lat="45.8403078" lon="11.7722874"><ele>1125.0</ele><time>2026-04-06T05:38:04.557Z</time></trkpt><trkpt lat="45.840288" lon="11.7720305"><ele>1119.3333333333333</ele><time>2026-04-06T05:38:05.569Z</time></trkpt><trkpt lat="45.8402969" lon="11.7717883"><ele>1113.6666666666665</ele><time>2026-04-06T05:38:06.563Z</time></trkpt><trkpt lat="45.8404" lon="11.7716133"><ele>1108.0</ele><time>2026-04-06T05:38:07.556Z</time></trkpt><trkpt lat="45.840528" lon="11.7714603"><ele>1108.0</ele><time>2026-04-06T05:38:08.548Z</time></trkpt><trkpt lat="45.8406797" lon="11.7713713"><ele>1108.0</ele><time>2026-04-06T05:38:09.558Z</time></trkpt><trkpt lat="45.8407527" lon="11.7712164"><ele>1108.0</ele><time>2026-04-06T05:38:10.572Z</time></trkpt><trkpt lat="45.8407658" lon="11.7709921"><ele>1104.25</ele><time>2026-04-06T05:38:11.561Z</time></trkpt><trkpt lat="45.8408043" lon="11.7708023"><ele>1100.5</ele><time>2026-04-06T05:38:12.568Z</time></trkpt><trkpt lat="45.8408774" lon="11.7706477"><ele>1096.75</ele><time>2026-04-06T05:38:13.578Z</time></trkpt><trkpt lat="45.8409692" lon="11.7704669"><ele>1093.0</ele><time>2026-04-06T05:38:14.56Z</time></trkpt><trkpt lat="45.8410119" lon="11.7703229"><ele>1099.6</ele><time>2026-04-06T05:38:15.621Z</time></trkpt><trkpt lat="45.8410495" lon="11.7702174"><ele>1106.1999999999998</ele><time>2026-04-06T05:38:16.577Z</time></trkpt><trkpt lat="45.8410897" lon="11.7701404"><ele>1112.8</ele><time>2026-04-06T05:38:17.557Z</time></trkpt><trkpt lat="45.8412036" lon="11.7701865"><ele>1119.3999999999999</ele><time>2026-04-06T05:38:19.561Z</time></trkpt><trkpt lat="45.8412891" lon="11.7702547"><ele>1126.0</ele><time>2026-04-06T05:38:20.546Z</time></trkpt><trkpt lat="45.8413724" lon="11.77034"><ele>1127.75</ele><time>2026-04-06T05:38:21.549Z</time></trkpt><trkpt lat="45.8414701" lon="11.7704658"><ele>1129.5</ele><time>2026-04-06T05:38:22.556Z</time></trkpt><trkpt lat="45.841568" lon="11.7706672"><ele>1131.25</ele><time>2026-04-06T05:38:23.572Z</time></trkpt><trkpt lat="45.8416358" lon="11.7708447"><ele>1133.0</ele><time>2026-04-06T05:38:24.586Z</time></trkpt><trkpt lat="45.8417493" lon="11.7710622"><ele>1137.75</ele><time>2026-04-06T05:38:25.584Z</time></trkpt><trkpt lat="45.8418555" lon="11.7712376"><ele>1142.5</ele><time>2026-04-06T05:38:26.579Z</time></trkpt><trkpt lat="45.841938" lon="11.7713335"><ele>1147.25</ele><time>2026-04-06T05:38:27.581Z</time></trkpt><trkpt lat="45.8420183" lon="11.7713979"><ele>1152.0</ele><time>2026-04-06T05:38:28.605Z</time></trkpt><trkpt lat="45.842121" lon="11.771446"><ele>1152.0</ele><time>2026-04-06T05:38:29.579Z</time></trkpt><trkpt lat="45.8422239" lon="11.7714585"><ele>1152.0</ele><time>2026-04-06T05:38:30.584Z</time></trkpt><trkpt lat="45.8423224" lon="11.7714338"><ele>1152.0</ele><time>2026-04-06T05:38:31.562Z</time></trkpt><trkpt lat="45.8424512" lon="11.7713847"><ele>1152.0</ele><time>2026-04-06T05:38:32.574Z</time></trkpt><trkpt lat="45.8425547" lon="11.7713345"><ele>1152.0</ele><time>2026-04-06T05:38:33.566Z</time></trkpt><trkpt lat="45.8426662" lon="11.7713025"><ele>1151.4</ele><time>2026-04-06T05:38:34.571Z</time></trkpt><trkpt lat="45.8427493" lon="11.7712775"><ele>1150.8000000000002</ele><time>2026-04-06T05:38:35.554Z</time></trkpt><trkpt lat="45.8428502" lon="11.7713103"><ele>1150.2</ele><time>2026-04-06T05:38:36.575Z</time></trkpt><trkpt lat="45.8429354" lon="11.7713111"><ele>1149.6000000000001</ele><time>2026-04-06T05:38:37.552Z</time></trkpt><trkpt lat="45.8430416" lon="11.7713472"><ele>1149.0</ele><time>2026-04-06T05:38:38.561Z</time></trkpt><trkpt lat="45.8431226" lon="11.7713614"><ele>1149.0</ele><time>2026-04-06T05:38:39.549Z</time></trkpt><trkpt lat="45.8432349" lon="11.7714139"><ele>1149.0</ele><time>2026-04-06T05:38:40.562Z</time></trkpt><trkpt lat="45.8433201" lon="11.7714758"><ele>1149.0</ele><time>2026-04-06T05:38:41.574Z</time></trkpt><trkpt lat="45.8433991" lon="11.7715714"><ele>1149.0</ele><time>2026-04-06T05:38:42.573Z</time></trkpt><trkpt lat="45.8434758" lon="11.7716734"><ele>1149.0</ele><time>2026-04-06T05:38:43.581Z</time></trkpt><trkpt lat="45.8435419" lon="11.7717237"><ele>1149.0</ele><time>2026-04-06T05:38:44.578Z</time></trkpt><trkpt lat="45.8436193" lon="11.7718061"><ele>1149.0</ele><time>2026-04-06T05:38:45.584Z</time></trkpt><trkpt lat="45.8437075" lon="11.7718553"><ele>1149.0</ele><time>2026-04-06T05:38:46.563Z</time></trkpt><trkpt lat="45.8438001" lon="11.7719077"><ele>1149.0</ele><time>2026-04-06T05:38:47.557Z</time></trkpt><trkpt lat="45.8439137" lon="11.7719483"><ele>1149.0</ele><time>2026-04-06T05:38:48.557Z</time></trkpt><trkpt lat="45.8440261" lon="11.7719864"><ele>1149.0</ele><time>2026-04-06T05:38:49.559Z</time></trkpt><trkpt lat="45.8441205" lon="11.7719889"><ele>1149.0</ele><time>2026-04-06T05:38:50.557Z</time></trkpt><trkpt lat="45.8442247" lon="11.7720103"><ele>1149.0</ele><time>2026-04-06T05:38:51.549Z</time></trkpt><trkpt lat="45.84433" lon="11.7720333"><ele>1149.0</ele><time>2026-04-06T05:38:52.56Z</time></trkpt><trkpt lat="45.8444534" lon="11.7720831"><ele>1149.0</ele><time>2026-04-06T05:38:53.552Z</time></trkpt><trkpt lat="45.8445713" lon="11.7721116"><ele>1145.0</ele><time>2026-04-06T05:38:54.554Z</time></trkpt><trkpt lat="45.8446787" lon="11.772159"><ele>1141.0</ele><time>2026-04-06T05:38:55.556Z</time></trkpt><trkpt lat="45.84477" lon="11.7721923"><ele>1137.0</ele><time>2026-04-06T05:38:56.55Z</time></trkpt><trkpt lat="45.8448661" lon="11.7722306"><ele>1133.0</ele><time>2026-04-06T05:38:57.546Z</time></trkpt><trkpt lat="45.8449553" lon="11.7722676"><ele>1129.0</ele><time>2026-04-06T05:38:58.557Z</time></trkpt><trkpt lat="45.8450976" lon="11.7724043"><ele>1127.5</ele><time>2026-04-06T05:38:59.569Z</time></trkpt><trkpt lat="45.8451957" lon="11.7725199"><ele>1126.0</ele><time>2026-04-06T05:39:00.578Z</time></trkpt><trkpt lat="45.8452894" lon="11.7726439"><ele>1124.5</ele><time>2026-04-06T05:39:01.582Z</time></trkpt><trkpt lat="45.8453839" lon="11.7727392"><ele>1123.0</ele><time>2026-04-06T05:39:02.554Z</time></trkpt><trkpt lat="45.8454377" lon="11.7728396"><ele>1123.0</ele><time>2026-04-06T05:39:03.552Z</time></trkpt><trkpt lat="45.8454712" lon="11.7729371"><ele>1123.0</ele><time>2026-04-06T05:39:04.555Z</time></trkpt><trkpt lat="45.8454954" lon="11.7730495"><ele>1123.0</ele><time>2026-04-06T05:39:05.57Z</time></trkpt><trkpt lat="45.8455648" lon="11.7731748"><ele>1123.0</ele><time>2026-04-06T05:39:07.571Z</time></trkpt><trkpt lat="45.8455916" lon="11.7730109"><ele>1123.0</ele><time>2026-04-06T05:39:12.559Z</time></trkpt><trkpt lat="45.8456084" lon="11.7729128"><ele>1123.0</ele><time>2026-04-06T05:39:13.571Z</time></trkpt><trkpt lat="45.845622" lon="11.7728023"><ele>1123.0</ele><time>2026-04-06T05:39:14.562Z</time></trkpt><trkpt lat="45.8456347" lon="11.7727112"><ele>1123.0</ele><time>2026-04-06T05:39:15.575Z</time></trkpt><trkpt lat="45.845678" lon="11.7726023"><ele>1123.0</ele><time>2026-04-06T05:39:17.571Z</time></trkpt><trkpt lat="45.8455983" lon="11.7726932"><ele>1123.0</ele><time>2026-04-06T05:39:29.568Z</time></trkpt><trkpt lat="45.8455207" lon="11.7728057"><ele>1123.0</ele><time>2026-04-06T05:39:31.55Z</time></trkpt><trkpt lat="45.8454461" lon="11.7729369"><ele>1123.0</ele><time>2026-04-06T05:39:33.571Z</time></trkpt><trkpt lat="45.8454189" lon="11.7730515"><ele>1123.0</ele><time>2026-04-06T05:39:35.567Z</time></trkpt><trkpt lat="45.8454669" lon="11.7731427"><ele>1123.0</ele><time>2026-04-06T05:39:37.574Z</time></trkpt><trkpt lat="45.8455276" lon="11.773211"><ele>1123.0</ele><time>2026-04-06T05:39:42.563Z</time></trkpt><trkpt lat="45.8455853" lon="11.7732898"><ele>1123.0</ele><time>2026-04-06T05:39:46.574Z</time></trkpt><trkpt lat="45.8456456" lon="11.7732274"><ele>1123.0</ele><time>2026-04-06T05:40:02.546Z</time></trkpt><trkpt lat="45.8456845" lon="11.7730944"><ele>1123.0</ele><time>2026-04-06T05:40:04.553Z</time></trkpt><trkpt lat="45.8457465" lon="11.7729827"><ele>1123.0</ele><time>2026-04-06T05:40:06.555Z</time></trkpt><trkpt lat="45.8457935" lon="11.7729016"><ele>1123.0</ele><time>2026-04-06T05:40:07.565Z</time></trkpt><trkpt lat="45.8458978" lon="11.7728975"><ele>1123.0</ele><time>2026-04-06T05:40:08.573Z</time></trkpt><trkpt lat="45.8460302" lon="11.7729264"><ele>1123.0</ele><time>2026-04-06T05:40:10.571Z</time></trkpt><trkpt lat="45.8460956" lon="11.7729846"><ele>1122.3333333333333</ele><time>2026-04-06T05:40:11.575Z</time></trkpt><trkpt lat="45.8461578" lon="11.773103"><ele>1121.6666666666665</ele><time>2026-04-06T05:40:12.574Z</time></trkpt><trkpt lat="45.8461922" lon="11.7732045"><ele>1121.0</ele><time>2026-04-06T05:40:13.577Z</time></trkpt><trkpt lat="45.8462088" lon="11.7733111"><ele>1120.3333333333333</ele><time>2026-04-06T05:40:14.573Z</time></trkpt><trkpt lat="45.846249" lon="11.7734322"><ele>1119.6666666666667</ele><time>2026-04-06T05:40:15.602Z</time></trkpt><trkpt lat="45.8462811" lon="11.7735392"><ele>1119.0</ele><time>2026-04-06T05:40:16.57Z</time></trkpt><trkpt lat="45.8463068" lon="11.7736394"><ele>1119.0</ele><time>2026-04-06T05:40:17.557Z</time></trkpt><trkpt lat="45.8463515" lon="11.7737667"><ele>1119.0</ele><time>2026-04-06T05:40:18.567Z</time></trkpt><trkpt lat="45.8464082" lon="11.773831"><ele>1119.0</ele><time>2026-04-06T05:40:19.562Z</time></trkpt><trkpt lat="45.846479" lon="11.7738991"><ele>1119.0</ele><time>2026-04-06T05:40:20.557Z</time></trkpt><trkpt lat="45.8465397" lon="11.7739646"><ele>1119.0</ele><time>2026-04-06T05:40:21.545Z</time></trkpt><trkpt lat="45.8466367" lon="11.7740412"><ele>1119.0</ele><time>2026-04-06T05:40:22.579Z</time></trkpt><trkpt lat="45.8467314" lon="11.7741299"><ele>1118.75</ele><time>2026-04-06T05:40:23.577Z</time></trkpt><trkpt lat="45.8468499" lon="11.7742514"><ele>1118.5</ele><time>2026-04-06T05:40:24.58Z</time></trkpt><trkpt lat="45.8469319" lon="11.774376"><ele>1118.25</ele><time>2026-04-06T05:40:25.565Z</time></trkpt><trkpt lat="45.847062" lon="11.7745008"><ele>1118.0</ele><time>2026-04-06T05:40:26.571Z</time></trkpt><trkpt lat="45.8471667" lon="11.7746274"><ele>1118.0</ele><time>2026-04-06T05:40:27.583Z</time></trkpt><trkpt lat="45.8472519" lon="11.774742"><ele>1118.0</ele><time>2026-04-06T05:40:28.579Z</time></trkpt><trkpt lat="45.8473239" lon="11.774861"><ele>1118.0</ele><time>2026-04-06T05:40:29.577Z</time></trkpt><trkpt lat="45.8473916" lon="11.77497"><ele>1118.0</ele><time>2026-04-06T05:40:30.576Z</time></trkpt><trkpt lat="45.8474456" lon="11.7750492"><ele>1118.0</ele><time>2026-04-06T05:40:31.557Z</time></trkpt><trkpt lat="45.8474984" lon="11.7751199"><ele>1118.0</ele><time>2026-04-06T05:40:32.564Z</time></trkpt><trkpt lat="45.8475723" lon="11.7751834"><ele>1118.0</ele><time>2026-04-06T05:40:34.567Z</time></trkpt><trkpt lat="45.847635" lon="11.7752185"><ele>1118.0</ele><time>2026-04-06T05:40:50.589Z</time></trkpt><trkpt lat="45.8477132" lon="11.7753054"><ele>1118.0</ele><time>2026-04-06T05:40:53.582Z</time></trkpt><trkpt lat="45.8477901" lon="11.7753517"><ele>1118.0</ele><time>2026-04-06T05:40:55.578Z</time></trkpt><trkpt lat="45.8478472" lon="11.7754139"><ele>1118.0</ele><time>2026-04-06T05:40:57.583Z</time></trkpt><trkpt lat="45.8479081" lon="11.7755306"><ele>1120.5</ele><time>2026-04-06T05:40:59.566Z</time></trkpt><trkpt lat="45.8479379" lon="11.7756403"><ele>1123.0</ele><time>2026-04-06T05:41:01.556Z</time></trkpt><trkpt lat="45.8479627" lon="11.7757244"><ele>1125.5</ele><time>2026-04-06T05:41:44.584Z</time></trkpt><trkpt lat="45.8479939" lon="11.7758134"><ele>1128.0</ele><time>2026-04-06T05:41:49.579Z</time></trkpt><trkpt lat="45.8480719" lon="11.7758852"><ele>1130.5</ele><time>2026-04-06T05:41:53.569Z</time></trkpt><trkpt lat="45.8481339" lon="11.7758638"><ele>1133.0</ele><time>2026-04-06T05:41:54.579Z</time></trkpt><trkpt lat="45.8482368" lon="11.7759063"><ele>1133.0</ele><time>2026-04-06T05:41:56.577Z</time></trkpt><trkpt lat="45.8483012" lon="11.7759358"><ele>1133.0</ele><time>2026-04-06T05:41:57.576Z</time></trkpt><trkpt lat="45.8484719" lon="11.7759882"><ele>1133.0</ele><time>2026-04-06T05:42:06.576Z</time></trkpt><trkpt lat="45.8485311" lon="11.776045"><ele>1133.0</ele><time>2026-04-06T05:42:37.576Z</time></trkpt><trkpt lat="45.848543" lon="11.7759494"><ele>1133.0</ele><time>2026-04-06T05:43:37.586Z</time></trkpt><trkpt lat="45.8485161" lon="11.7758605"><ele>1133.0</ele><time>2026-04-06T05:43:39.592Z</time></trkpt><trkpt lat="45.8484924" lon="11.7757685"><ele>1133.0</ele><time>2026-04-06T05:43:41.604Z</time></trkpt><trkpt lat="45.8484137" lon="11.7756786"><ele>1133.0</ele><time>2026-04-06T05:43:44.563Z</time></trkpt><trkpt lat="45.8483293" lon="11.7755962"><ele>1133.0</ele><time>2026-04-06T05:43:46.737Z</time></trkpt><trkpt lat="45.8481856" lon="11.7755154"><ele>1133.0</ele><time>2026-04-06T05:43:49.583Z</time></trkpt><trkpt lat="45.8481189" lon="11.7754132"><ele>1133.0</ele><time>2026-04-06T05:43:51.585Z</time></trkpt><trkpt lat="45.8480963" lon="11.7753119"><ele>1133.0</ele><time>2026-04-06T05:43:52.59Z</time></trkpt><trkpt lat="45.8480952" lon="11.7752157"><ele>1133.0</ele><time>2026-04-06T05:43:53.744Z</time></trkpt><trkpt lat="45.8480743" lon="11.7750117"><ele>1133.0</ele><time>2026-04-06T05:43:55.579Z</time></trkpt><trkpt lat="45.8480766" lon="11.7748668"><ele>1133.0</ele><time>2026-04-06T05:43:56.748Z</time></trkpt><trkpt lat="45.8480704" lon="11.7747305"><ele>1135.0</ele><time>2026-04-06T05:43:57.74Z</time></trkpt><trkpt lat="45.8480558" lon="11.7746179"><ele>1137.0</ele><time>2026-04-06T05:43:58.746Z</time></trkpt><trkpt lat="45.8480344" lon="11.7745308"><ele>1139.0</ele><time>2026-04-06T05:44:01.579Z</time></trkpt><trkpt lat="45.8482198" lon="11.7746632"><ele>1141.0</ele><time>2026-04-06T05:44:16.585Z</time></trkpt><trkpt lat="45.8482406" lon="11.7747835"><ele>1143.0</ele><time>2026-04-06T05:44:17.586Z</time></trkpt><trkpt lat="45.848281" lon="11.7748893"><ele>1143.0</ele><time>2026-04-06T05:44:18.578Z</time></trkpt><trkpt lat="45.8483471" lon="11.775059"><ele>1143.0</ele><time>2026-04-06T05:44:20.585Z</time></trkpt><trkpt lat="45.8484091" lon="11.7751407"><ele>1143.0</ele><time>2026-04-06T05:44:21.587Z</time></trkpt><trkpt lat="45.8484612" lon="11.775209"><ele>1143.0</ele><time>2026-04-06T05:44:22.755Z</time></trkpt><trkpt lat="45.848556" lon="11.775357"><ele>1143.0</ele><time>2026-04-06T05:44:24.587Z</time></trkpt><trkpt lat="45.8486149" lon="11.7754533"><ele>1145.25</ele><time>2026-04-06T05:44:25.581Z</time></trkpt><trkpt lat="45.8486659" lon="11.7755585"><ele>1147.5</ele><time>2026-04-06T05:44:26.743Z</time></trkpt><trkpt lat="45.8487359" lon="11.7758043"><ele>1149.75</ele><time>2026-04-06T05:44:28.906Z</time></trkpt><trkpt lat="45.8487268" lon="11.7759969"><ele>1152.0</ele><time>2026-04-06T05:44:30.588Z</time></trkpt><trkpt lat="45.8487428" lon="11.7760956"><ele>1152.0</ele><time>2026-04-06T05:44:31.58Z</time></trkpt><trkpt lat="45.8488036" lon="11.7762491"><ele>1152.0</ele><time>2026-04-06T05:44:33.588Z</time></trkpt><trkpt lat="45.8488513" lon="11.7763594"><ele>1152.0</ele><time>2026-04-06T05:44:34.595Z</time></trkpt><trkpt lat="45.848899" lon="11.7764475"><ele>1152.0</ele><time>2026-04-06T05:44:35.585Z</time></trkpt><trkpt lat="45.8489385" lon="11.7765516"><ele>1152.0</ele><time>2026-04-06T05:44:36.586Z</time></trkpt><trkpt lat="45.8489842" lon="11.7766493"><ele>1152.0</ele><time>2026-04-06T05:44:37.58Z</time></trkpt><trkpt lat="45.8490188" lon="11.7767512"><ele>1152.0</ele><time>2026-04-06T05:44:38.583Z</time></trkpt><trkpt lat="45.8490656" lon="11.7768649"><ele>1152.0</ele><time>2026-04-06T05:44:39.582Z</time></trkpt><trkpt lat="45.8490981" lon="11.7769968"><ele>1152.0</ele><time>2026-04-06T05:44:40.58Z</time></trkpt><trkpt lat="45.8491139" lon="11.7771109"><ele>1152.0</ele><time>2026-04-06T05:44:41.588Z</time></trkpt><trkpt lat="45.8491526" lon="11.7772186"><ele>1152.0</ele><time>2026-04-06T05:44:42.567Z</time></trkpt><trkpt lat="45.8491684" lon="11.7773434"><ele>1151.0</ele><time>2026-04-06T05:44:43.573Z</time></trkpt><trkpt lat="45.8492078" lon="11.7774305"><ele>1150.0</ele><time>2026-04-06T05:44:44.58Z</time></trkpt><trkpt lat="45.8492504" lon="11.7774974"><ele>1149.0</ele><time>2026-04-06T05:44:45.577Z</time></trkpt><trkpt lat="45.8493081" lon="11.7775996"><ele>1148.0</ele><time>2026-04-06T05:44:46.576Z</time></trkpt><trkpt lat="45.8493779" lon="11.7777043"><ele>1147.0</ele><time>2026-04-06T05:44:47.603Z</time></trkpt><trkpt lat="45.8494538" lon="11.7777955"><ele>1146.0</ele><time>2026-04-06T05:44:48.743Z</time></trkpt><trkpt lat="45.8495969" lon="11.7779437"><ele>1152.25</ele><time>2026-04-06T05:44:50.586Z</time></trkpt><trkpt lat="45.849624" lon="11.7780664"><ele>1158.5</ele><time>2026-04-06T05:44:51.906Z</time></trkpt><trkpt lat="45.8496077" lon="11.7783096"><ele>1164.75</ele><time>2026-04-06T05:44:53.586Z</time></trkpt><trkpt lat="45.8495957" lon="11.7784028"><ele>1171.0</ele><time>2026-04-06T05:44:55.586Z</time></trkpt><trkpt lat="45.8496372" lon="11.7782244"><ele>1171.0</ele><time>2026-04-06T05:45:04.566Z</time></trkpt><trkpt lat="45.8496007" lon="11.7780352"><ele>1171.0</ele><time>2026-04-06T05:45:06.586Z</time></trkpt><trkpt lat="45.8495763" lon="11.7778936"><ele>1171.0</ele><time>2026-04-06T05:45:07.554Z</time></trkpt><trkpt lat="45.8495574" lon="11.777726"><ele>1171.0</ele><time>2026-04-06T05:45:08.571Z</time></trkpt><trkpt lat="45.8495285" lon="11.7775605"><ele>1174.5</ele><time>2026-04-06T05:45:09.574Z</time></trkpt><trkpt lat="45.849505" lon="11.777393"><ele>1178.0</ele><time>2026-04-06T05:45:10.576Z</time></trkpt><trkpt lat="45.8494817" lon="11.7772127"><ele>1181.5</ele><time>2026-04-06T05:45:11.58Z</time></trkpt><trkpt lat="45.8494462" lon="11.777001"><ele>1185.0</ele><time>2026-04-06T05:45:12.584Z</time></trkpt><trkpt lat="45.8494258" lon="11.7768368"><ele>1187.2</ele><time>2026-04-06T05:45:13.573Z</time></trkpt><trkpt lat="45.8494009" lon="11.7767111"><ele>1189.4</ele><time>2026-04-06T05:45:14.583Z</time></trkpt><trkpt lat="45.8493688" lon="11.7765714"><ele>1191.6</ele><time>2026-04-06T05:45:15.576Z</time></trkpt><trkpt lat="45.8493396" lon="11.7764459"><ele>1193.8</ele><time>2026-04-06T05:45:16.582Z</time></trkpt><trkpt lat="45.8493138" lon="11.7763124"><ele>1196.0</ele><time>2026-04-06T05:45:17.578Z</time></trkpt><trkpt lat="45.8493208" lon="11.7761943"><ele>1196.0</ele><time>2026-04-06T05:45:18.581Z</time></trkpt><trkpt lat="45.8493222" lon="11.7760704"><ele>1196.0</ele><time>2026-04-06T05:45:19.574Z</time></trkpt><trkpt lat="45.8493328" lon="11.7759462"><ele>1196.0</ele><time>2026-04-06T05:45:20.578Z</time></trkpt><trkpt lat="45.8493232" lon="11.7758159"><ele>1196.0</ele><time>2026-04-06T05:45:21.581Z</time></trkpt><trkpt lat="45.8493081" lon="11.7756906"><ele>1196.0</ele><time>2026-04-06T05:45:22.585Z</time></trkpt><trkpt lat="45.8492589" lon="11.7755731"><ele>1196.0</ele><time>2026-04-06T05:45:23.582Z</time></trkpt><trkpt lat="45.8492156" lon="11.7754548"><ele>1193.0</ele><time>2026-04-06T05:45:24.563Z</time></trkpt><trkpt lat="45.8491742" lon="11.7753154"><ele>1190.0</ele><time>2026-04-06T05:45:25.55Z</time></trkpt><trkpt lat="45.8491318" lon="11.775168"><ele>1187.0</ele><time>2026-04-06T05:45:26.553Z</time></trkpt><trkpt lat="45.8490907" lon="11.7750069"><ele>1184.0</ele><time>2026-04-06T05:45:27.557Z</time></trkpt><trkpt lat="45.8490524" lon="11.7748385"><ele>1184.0</ele><time>2026-04-06T05:45:28.551Z</time></trkpt><trkpt lat="45.8490205" lon="11.7746764"><ele>1184.0</ele><time>2026-04-06T05:45:29.555Z</time></trkpt><trkpt lat="45.8489816" lon="11.7745054"><ele>1184.0</ele><time>2026-04-06T05:45:30.556Z</time></trkpt><trkpt lat="45.8489417" lon="11.7743284"><ele>1184.0</ele><time>2026-04-06T05:45:31.549Z</time></trkpt><trkpt lat="45.8488962" lon="11.7741554"><ele>1186.2</ele><time>2026-04-06T05:45:32.649Z</time></trkpt><trkpt lat="45.8488642" lon="11.7740303"><ele>1188.4</ele><time>2026-04-06T05:45:33.57Z</time></trkpt><trkpt lat="45.848847" lon="11.7739108"><ele>1190.6</ele><time>2026-04-06T05:45:34.58Z</time></trkpt><trkpt lat="45.8488385" lon="11.7738172"><ele>1192.8</ele><time>2026-04-06T05:45:35.584Z</time></trkpt><trkpt lat="45.8488938" lon="11.7736505"><ele>1195.0</ele><time>2026-04-06T05:45:37.578Z</time></trkpt><trkpt lat="45.8489373" lon="11.773552"><ele>1195.75</ele><time>2026-04-06T05:45:38.571Z</time></trkpt><trkpt lat="45.8489693" lon="11.7734246"><ele>1196.5</ele><time>2026-04-06T05:45:39.575Z</time></trkpt><trkpt lat="45.8489994" lon="11.7732862"><ele>1197.25</ele><time>2026-04-06T05:45:40.736Z</time></trkpt><trkpt lat="45.8490344" lon="11.7730283"><ele>1198.0</ele><time>2026-04-06T05:45:42.578Z</time></trkpt><trkpt lat="45.849058" lon="11.7728804"><ele>1198.0</ele><time>2026-04-06T05:45:44.579Z</time></trkpt><trkpt lat="45.849069" lon="11.7727833"><ele>1198.0</ele><time>2026-04-06T05:45:46.581Z</time></trkpt><trkpt lat="45.849093" lon="11.7728831"><ele>1198.0</ele><time>2026-04-06T05:46:01.574Z</time></trkpt><trkpt lat="45.8491106" lon="11.7729942"><ele>1198.0</ele><time>2026-04-06T05:46:04.573Z</time></trkpt><trkpt lat="45.8491271" lon="11.7731406"><ele>1198.0</ele><time>2026-04-06T05:46:06.572Z</time></trkpt><trkpt lat="45.8491271" lon="11.773289"><ele>1198.0</ele><time>2026-04-06T05:46:08.563Z</time></trkpt><trkpt lat="45.8491362" lon="11.7734085"><ele>1197.4</ele><time>2026-04-06T05:46:09.587Z</time></trkpt><trkpt lat="45.8491955" lon="11.7735705"><ele>1196.8</ele><time>2026-04-06T05:46:11.585Z</time></trkpt><trkpt lat="45.849223" lon="11.7736618"><ele>1196.2</ele><time>2026-04-06T05:46:12.578Z</time></trkpt><trkpt lat="45.8492689" lon="11.7737766"><ele>1195.6</ele><time>2026-04-06T05:46:13.58Z</time></trkpt><trkpt lat="45.849335" lon="11.7739342"><ele>1195.0</ele><time>2026-04-06T05:46:15.585Z</time></trkpt><trkpt lat="45.8494106" lon="11.7740256"><ele>1201.2</ele><time>2026-04-06T05:46:16.584Z</time></trkpt><trkpt lat="45.849499" lon="11.7741074"><ele>1207.4</ele><time>2026-04-06T05:46:17.572Z</time></trkpt><trkpt lat="45.8495879" lon="11.7741668"><ele>1213.6</ele><time>2026-04-06T05:46:18.583Z</time></trkpt><trkpt lat="45.8496737" lon="11.7742369"><ele>1219.8</ele><time>2026-04-06T05:46:19.571Z</time></trkpt><trkpt lat="45.8497773" lon="11.7743071"><ele>1226.0</ele><time>2026-04-06T05:46:20.576Z</time></trkpt><trkpt lat="45.8498836" lon="11.7743662"><ele>1226.0</ele><time>2026-04-06T05:46:21.573Z</time></trkpt><trkpt lat="45.8499744" lon="11.7744329"><ele>1226.0</ele><time>2026-04-06T05:46:22.56Z</time></trkpt><trkpt lat="45.8500665" lon="11.7745108"><ele>1226.0</ele><time>2026-04-06T05:46:23.551Z</time></trkpt><trkpt lat="45.8501503" lon="11.7745896"><ele>1226.0</ele><time>2026-04-06T05:46:24.549Z</time></trkpt><trkpt lat="45.8502068" lon="11.7747028"><ele>1226.0</ele><time>2026-04-06T05:46:25.567Z</time></trkpt><trkpt lat="45.8502552" lon="11.7748244"><ele>1231.0</ele><time>2026-04-06T05:46:26.557Z</time></trkpt><trkpt lat="45.8503086" lon="11.7749516"><ele>1236.0</ele><time>2026-04-06T05:46:27.568Z</time></trkpt><trkpt lat="45.8503549" lon="11.7750571"><ele>1241.0</ele><time>2026-04-06T05:46:28.559Z</time></trkpt><trkpt lat="45.8503831" lon="11.7751514"><ele>1246.0</ele><time>2026-04-06T05:46:29.647Z</time></trkpt><trkpt lat="45.8504341" lon="11.7752332"><ele>1251.0</ele><time>2026-04-06T05:46:30.562Z</time></trkpt><trkpt lat="45.8504856" lon="11.7753157"><ele>1256.0</ele><time>2026-04-06T05:46:31.55Z</time></trkpt><trkpt lat="45.8505342" lon="11.7754062"><ele>1256.0</ele><time>2026-04-06T05:46:32.552Z</time></trkpt><trkpt lat="45.850583" lon="11.7755139"><ele>1256.0</ele><time>2026-04-06T05:46:33.571Z</time></trkpt><trkpt lat="45.8506201" lon="11.7756326"><ele>1256.0</ele><time>2026-04-06T05:46:34.549Z</time></trkpt><trkpt lat="45.8506522" lon="11.7757543"><ele>1256.0</ele><time>2026-04-06T05:46:35.547Z</time></trkpt><trkpt lat="45.8506817" lon="11.7758713"><ele>1256.0</ele><time>2026-04-06T05:46:36.555Z</time></trkpt><trkpt lat="45.8507152" lon="11.7759932"><ele>1256.0</ele><time>2026-04-06T05:46:37.57Z</time></trkpt><trkpt lat="45.8507562" lon="11.7760972"><ele>1254.0</ele><time>2026-04-06T05:46:38.584Z</time></trkpt><trkpt lat="45.8507521" lon="11.7762198"><ele>1252.0</ele><time>2026-04-06T05:46:39.582Z</time></trkpt><trkpt lat="45.8507764" lon="11.7763278"><ele>1250.0</ele><time>2026-04-06T05:46:40.588Z</time></trkpt><trkpt lat="45.8508092" lon="11.7764379"><ele>1248.0</ele><time>2026-04-06T05:46:41.583Z</time></trkpt><trkpt lat="45.8508892" lon="11.7765624"><ele>1246.0</ele><time>2026-04-06T05:46:43.587Z</time></trkpt><trkpt lat="45.850955" lon="11.7766249"><ele>1244.0</ele><time>2026-04-06T05:46:44.56Z</time></trkpt><trkpt lat="45.8510253" lon="11.7766965"><ele>1253.0</ele><time>2026-04-06T05:46:45.573Z</time></trkpt><trkpt lat="45.8510998" lon="11.7767674"><ele>1262.0</ele><time>2026-04-06T05:46:46.575Z</time></trkpt><trkpt lat="45.8511736" lon="11.7768493"><ele>1271.0</ele><time>2026-04-06T05:46:47.659Z</time></trkpt><trkpt lat="45.8512442" lon="11.7769346"><ele>1280.0</ele><time>2026-04-06T05:46:48.732Z</time></trkpt><trkpt lat="45.8513665" lon="11.7771552"><ele>1280.0</ele><time>2026-04-06T05:46:50.568Z</time></trkpt><trkpt lat="45.8514207" lon="11.7772675"><ele>1280.0</ele><time>2026-04-06T05:46:51.576Z</time></trkpt><trkpt lat="45.8514553" lon="11.7773881"><ele>1280.0</ele><time>2026-04-06T05:46:52.565Z</time></trkpt><trkpt lat="45.8514981" lon="11.7775409"><ele>1280.0</ele><time>2026-04-06T05:46:53.567Z</time></trkpt><trkpt lat="45.8515271" lon="11.7777105"><ele>1280.0</ele><time>2026-04-06T05:46:54.578Z</time></trkpt><trkpt lat="45.8515806" lon="11.7778232"><ele>1277.6</ele><time>2026-04-06T05:46:55.608Z</time></trkpt><trkpt lat="45.8516761" lon="11.7779546"><ele>1275.2</ele><time>2026-04-06T05:46:56.584Z</time></trkpt><trkpt lat="45.8517504" lon="11.7780604"><ele>1272.8</ele><time>2026-04-06T05:46:57.584Z</time></trkpt><trkpt lat="45.8517616" lon="11.7781667"><ele>1270.4</ele><time>2026-04-06T05:46:58.589Z</time></trkpt><trkpt lat="45.8518311" lon="11.7782703"><ele>1268.0</ele><time>2026-04-06T05:46:59.559Z</time></trkpt><trkpt lat="45.8518897" lon="11.7784175"><ele>1272.6666666666667</ele><time>2026-04-06T05:47:00.571Z</time></trkpt><trkpt lat="45.8519436" lon="11.7785298"><ele>1277.3333333333335</ele><time>2026-04-06T05:47:01.57Z</time></trkpt><trkpt lat="45.8519337" lon="11.7786688"><ele>1282.0</ele><time>2026-04-06T05:47:02.604Z</time></trkpt><trkpt lat="45.8519546" lon="11.7787565"><ele>1286.6666666666667</ele><time>2026-04-06T05:47:03.574Z</time></trkpt><trkpt lat="45.8519993" lon="11.7788658"><ele>1291.3333333333333</ele><time>2026-04-06T05:47:04.574Z</time></trkpt><trkpt lat="45.8520371" lon="11.778982"><ele>1296.0</ele><time>2026-04-06T05:47:05.663Z</time></trkpt><trkpt lat="45.8520737" lon="11.7790944"><ele>1296.0</ele><time>2026-04-06T05:47:06.589Z</time></trkpt><trkpt lat="45.8521284" lon="11.7791593"><ele>1296.0</ele><time>2026-04-06T05:47:07.583Z</time></trkpt><trkpt lat="45.8522553" lon="11.7792464"><ele>1296.0</ele><time>2026-04-06T05:47:09.585Z</time></trkpt><trkpt lat="45.8523147" lon="11.7793424"><ele>1296.0</ele><time>2026-04-06T05:47:10.59Z</time></trkpt><trkpt lat="45.8523685" lon="11.7794572"><ele>1296.0</ele><time>2026-04-06T05:47:11.586Z</time></trkpt><trkpt lat="45.8524" lon="11.7795977"><ele>1298.0</ele><time>2026-04-06T05:47:12.583Z</time></trkpt><trkpt lat="45.8523979" lon="11.7797328"><ele>1300.0</ele><time>2026-04-06T05:47:13.609Z</time></trkpt><trkpt lat="45.8524583" lon="11.7798061"><ele>1302.0</ele><time>2026-04-06T05:47:14.587Z</time></trkpt><trkpt lat="45.8525228" lon="11.7798825"><ele>1304.0</ele><time>2026-04-06T05:47:15.586Z</time></trkpt><trkpt lat="45.8525987" lon="11.7799491"><ele>1306.0</ele><time>2026-04-06T05:47:16.612Z</time></trkpt><trkpt lat="45.8526601" lon="11.7800309"><ele>1308.0</ele><time>2026-04-06T05:47:17.607Z</time></trkpt><trkpt lat="45.8527083" lon="11.7801214"><ele>1304.0</ele><time>2026-04-06T05:47:18.58Z</time></trkpt><trkpt lat="45.852725" lon="11.7802242"><ele>1300.0</ele><time>2026-04-06T05:47:19.586Z</time></trkpt><trkpt lat="45.8527606" lon="11.7803945"><ele>1296.0</ele><time>2026-04-06T05:47:21.577Z</time></trkpt><trkpt lat="45.8527528" lon="11.7804938"><ele>1292.0</ele><time>2026-04-06T05:47:22.589Z</time></trkpt><trkpt lat="45.8527454" lon="11.7806323"><ele>1288.0</ele><time>2026-04-06T05:47:23.593Z</time></trkpt><trkpt lat="45.8527183" lon="11.7807156"><ele>1284.0</ele><time>2026-04-06T05:47:24.591Z</time></trkpt><trkpt lat="45.852785" lon="11.7808655"><ele>1284.0</ele><time>2026-04-06T05:47:26.585Z</time></trkpt><trkpt lat="45.8529191" lon="11.781005"><ele>1284.0</ele><time>2026-04-06T05:47:28.59Z</time></trkpt><trkpt lat="45.8529904" lon="11.7810501"><ele>1284.0</ele><time>2026-04-06T05:47:29.592Z</time></trkpt><trkpt lat="45.8530657" lon="11.7810811"><ele>1284.0</ele><time>2026-04-06T05:47:30.586Z</time></trkpt><trkpt lat="45.8531911" lon="11.7811319"><ele>1286.0</ele><time>2026-04-06T05:47:32.567Z</time></trkpt><trkpt lat="45.8532426" lon="11.781323"><ele>1288.0</ele><time>2026-04-06T05:47:34.576Z</time></trkpt><trkpt lat="45.8532796" lon="11.7814343"><ele>1290.0</ele><time>2026-04-06T05:47:35.58Z</time></trkpt><trkpt lat="45.8533369" lon="11.7815441"><ele>1292.0</ele><time>2026-04-06T05:47:36.579Z</time></trkpt><trkpt lat="45.8534009" lon="11.7816527"><ele>1294.0</ele><time>2026-04-06T05:47:37.586Z</time></trkpt><trkpt lat="45.8534901" lon="11.7817554"><ele>1294.0</ele><time>2026-04-06T05:47:38.58Z</time></trkpt><trkpt lat="45.8535807" lon="11.7818326"><ele>1294.0</ele><time>2026-04-06T05:47:39.593Z</time></trkpt><trkpt lat="45.8536747" lon="11.7818859"><ele>1294.0</ele><time>2026-04-06T05:47:40.595Z</time></trkpt><trkpt lat="45.853792" lon="11.7819516"><ele>1294.0</ele><time>2026-04-06T05:47:41.589Z</time></trkpt><trkpt lat="45.8539087" lon="11.7820242"><ele>1296.25</ele><time>2026-04-06T05:47:42.617Z</time></trkpt><trkpt lat="45.854025" lon="11.7821035"><ele>1298.5</ele><time>2026-04-06T05:47:43.583Z</time></trkpt><trkpt lat="45.8541309" lon="11.7821955"><ele>1300.75</ele><time>2026-04-06T05:47:44.607Z</time></trkpt><trkpt lat="45.8542149" lon="11.7822894"><ele>1303.0</ele><time>2026-04-06T05:47:45.744Z</time></trkpt><trkpt lat="45.8543615" lon="11.7825123"><ele>1303.0</ele><time>2026-04-06T05:47:47.584Z</time></trkpt><trkpt lat="45.8544357" lon="11.7826165"><ele>1303.0</ele><time>2026-04-06T05:47:48.584Z</time></trkpt><trkpt lat="45.8545346" lon="11.7827019"><ele>1303.0</ele><time>2026-04-06T05:47:49.585Z</time></trkpt><trkpt lat="45.8546163" lon="11.7827575"><ele>1303.0</ele><time>2026-04-06T05:47:50.579Z</time></trkpt><trkpt lat="45.8547071" lon="11.7828333"><ele>1303.0</ele><time>2026-04-06T05:47:51.578Z</time></trkpt><trkpt lat="45.8547743" lon="11.7829249"><ele>1298.6000000000001</ele><time>2026-04-06T05:47:52.578Z</time></trkpt><trkpt lat="45.8548197" lon="11.7830427"><ele>1294.2</ele><time>2026-04-06T05:47:53.58Z</time></trkpt><trkpt lat="45.8548536" lon="11.7831945"><ele>1289.8</ele><time>2026-04-06T05:47:54.581Z</time></trkpt><trkpt lat="45.8548709" lon="11.783361"><ele>1285.4</ele><time>2026-04-06T05:47:55.582Z</time></trkpt><trkpt lat="45.8549121" lon="11.7835123"><ele>1281.0</ele><time>2026-04-06T05:47:56.583Z</time></trkpt><trkpt lat="45.8549526" lon="11.7836615"><ele>1282.5</ele><time>2026-04-06T05:47:57.588Z</time></trkpt><trkpt lat="45.8549836" lon="11.7837977"><ele>1284.0</ele><time>2026-04-06T05:47:58.589Z</time></trkpt><trkpt lat="45.8550209" lon="11.7839296"><ele>1285.5</ele><time>2026-04-06T05:47:59.588Z</time></trkpt><trkpt lat="45.8550618" lon="11.7840481"><ele>1287.0</ele><time>2026-04-06T05:48:00.622Z</time></trkpt><trkpt lat="45.8551153" lon="11.7841191"><ele>1288.5</ele><time>2026-04-06T05:48:01.592Z</time></trkpt><trkpt lat="45.8551941" lon="11.7840791"><ele>1290.0</ele><time>2026-04-06T05:48:04.588Z</time></trkpt><trkpt lat="45.8552444" lon="11.783952"><ele>1290.0</ele><time>2026-04-06T05:48:06.588Z</time></trkpt><trkpt lat="45.855264" lon="11.7838478"><ele>1290.0</ele><time>2026-04-06T05:48:07.589Z</time></trkpt><trkpt lat="45.8552827" lon="11.78373"><ele>1290.0</ele><time>2026-04-06T05:48:08.587Z</time></trkpt><trkpt lat="45.855305" lon="11.7836104"><ele>1290.0</ele><time>2026-04-06T05:48:09.593Z</time></trkpt><trkpt lat="45.855337" lon="11.7834938"><ele>1290.0</ele><time>2026-04-06T05:48:10.592Z</time></trkpt><trkpt lat="45.8553716" lon="11.7833896"><ele>1290.0</ele><time>2026-04-06T05:48:11.589Z</time></trkpt><trkpt lat="45.85541" lon="11.7833002"><ele>1291.8333333333333</ele><time>2026-04-06T05:48:12.584Z</time></trkpt><trkpt lat="45.8554399" lon="11.7832118"><ele>1293.6666666666667</ele><time>2026-04-06T05:48:13.593Z</time></trkpt><trkpt lat="45.8554796" lon="11.783136"><ele>1295.5</ele><time>2026-04-06T05:48:14.594Z</time></trkpt><trkpt lat="45.8555619" lon="11.7830636"><ele>1297.3333333333335</ele><time>2026-04-06T05:48:16.587Z</time></trkpt><trkpt lat="45.8556588" lon="11.7830868"><ele>1299.1666666666667</ele><time>2026-04-06T05:48:18.586Z</time></trkpt><trkpt lat="45.8557159" lon="11.783178"><ele>1301.0</ele><time>2026-04-06T05:48:19.584Z</time></trkpt><trkpt lat="45.8557685" lon="11.7833237"><ele>1301.0</ele><time>2026-04-06T05:48:20.587Z</time></trkpt><trkpt lat="45.8558324" lon="11.7834827"><ele>1301.0</ele><time>2026-04-06T05:48:21.587Z</time></trkpt><trkpt lat="45.8558817" lon="11.7836208"><ele>1301.0</ele><time>2026-04-06T05:48:22.591Z</time></trkpt><trkpt lat="45.8559395" lon="11.7837504"><ele>1301.0</ele><time>2026-04-06T05:48:23.59Z</time></trkpt><trkpt lat="45.8559865" lon="11.783874"><ele>1301.0</ele><time>2026-04-06T05:48:24.589Z</time></trkpt><trkpt lat="45.8560262" lon="11.7839985"><ele>1302.0</ele><time>2026-04-06T05:48:25.59Z</time></trkpt><trkpt lat="45.8560649" lon="11.7841407"><ele>1303.0</ele><time>2026-04-06T05:48:26.588Z</time></trkpt><trkpt lat="45.8561146" lon="11.784281"><ele>1304.0</ele><time>2026-04-06T05:48:27.608Z</time></trkpt><trkpt lat="45.8561693" lon="11.7844029"><ele>1305.0</ele><time>2026-04-06T05:48:28.59Z</time></trkpt><trkpt lat="45.8562135" lon="11.7844898"><ele>1306.0</ele><time>2026-04-06T05:48:29.581Z</time></trkpt><trkpt lat="45.8562913" lon="11.7846076"><ele>1306.0</ele><time>2026-04-06T05:48:31.583Z</time></trkpt><trkpt lat="45.8564028" lon="11.7846645"><ele>1306.0</ele><time>2026-04-06T05:48:33.581Z</time></trkpt><trkpt lat="45.856466" lon="11.7846759"><ele>1306.0</ele><time>2026-04-06T05:48:34.581Z</time></trkpt><trkpt lat="45.8565502" lon="11.7846664"><ele>1306.0</ele><time>2026-04-06T05:48:35.589Z</time></trkpt><trkpt lat="45.8566286" lon="11.7846684"><ele>1306.0</ele><time>2026-04-06T05:48:36.584Z</time></trkpt><trkpt lat="45.8567095" lon="11.7846766"><ele>1306.0</ele><time>2026-04-06T05:48:37.586Z</time></trkpt><trkpt lat="45.8568033" lon="11.7847078"><ele>1311.6</ele><time>2026-04-06T05:48:38.586Z</time></trkpt><trkpt lat="45.856889" lon="11.784766"><ele>1317.1999999999998</ele><time>2026-04-06T05:48:39.582Z</time></trkpt><trkpt lat="45.8569884" lon="11.7848383"><ele>1322.8000000000002</ele><time>2026-04-06T05:48:40.584Z</time></trkpt><trkpt lat="45.8570855" lon="11.7848967"><ele>1328.4</ele><time>2026-04-06T05:48:41.59Z</time></trkpt><trkpt lat="45.8571884" lon="11.7849688"><ele>1334.0</ele><time>2026-04-06T05:48:42.589Z</time></trkpt><trkpt lat="45.8572883" lon="11.7850431"><ele>1334.0</ele><time>2026-04-06T05:48:43.587Z</time></trkpt><trkpt lat="45.8573722" lon="11.7851264"><ele>1334.0</ele><time>2026-04-06T05:48:44.595Z</time></trkpt><trkpt lat="45.8574413" lon="11.7852027"><ele>1334.0</ele><time>2026-04-06T05:48:45.585Z</time></trkpt><trkpt lat="45.8574984" lon="11.7852857"><ele>1334.0</ele><time>2026-04-06T05:48:46.589Z</time></trkpt><trkpt lat="45.8575485" lon="11.785376"><ele>1334.0</ele><time>2026-04-06T05:48:47.575Z</time></trkpt><trkpt lat="45.8575629" lon="11.7854645"><ele>1334.0</ele><time>2026-04-06T05:48:48.576Z</time></trkpt><trkpt lat="45.8575646" lon="11.7855674"><ele>1333.4</ele><time>2026-04-06T05:48:49.573Z</time></trkpt><trkpt lat="45.8575458" lon="11.7856697"><ele>1332.8000000000002</ele><time>2026-04-06T05:48:50.58Z</time></trkpt><trkpt lat="45.857502" lon="11.7857768"><ele>1332.1999999999998</ele><time>2026-04-06T05:48:51.571Z</time></trkpt><trkpt lat="45.8574339" lon="11.7858684"><ele>1331.6</ele><time>2026-04-06T05:48:52.58Z</time></trkpt><trkpt lat="45.8573602" lon="11.785962"><ele>1331.0</ele><time>2026-04-06T05:48:53.679Z</time></trkpt><trkpt lat="45.8572236" lon="11.7861243"><ele>1332.4</ele><time>2026-04-06T05:48:55.581Z</time></trkpt><trkpt lat="45.857171" lon="11.7861821"><ele>1333.8</ele><time>2026-04-06T05:48:56.585Z</time></trkpt><trkpt lat="45.8571333" lon="11.786309"><ele>1335.2</ele><time>2026-04-06T05:48:58.583Z</time></trkpt><trkpt lat="45.8571727" lon="11.7864157"><ele>1336.6000000000001</ele><time>2026-04-06T05:49:00.584Z</time></trkpt><trkpt lat="45.8572488" lon="11.7865194"><ele>1338.0</ele><time>2026-04-06T05:49:02.593Z</time></trkpt><trkpt lat="45.8573536" lon="11.7865843"><ele>1338.0</ele><time>2026-04-06T05:49:04.583Z</time></trkpt><trkpt lat="45.8574437" lon="11.7866816"><ele>1338.0</ele><time>2026-04-06T05:49:06.587Z</time></trkpt><trkpt lat="45.8575156" lon="11.7868431"><ele>1338.0</ele><time>2026-04-06T05:49:08.583Z</time></trkpt><trkpt lat="45.8575226" lon="11.7869518"><ele>1338.0</ele><time>2026-04-06T05:49:09.584Z</time></trkpt><trkpt lat="45.8575144" lon="11.7870642"><ele>1338.0</ele><time>2026-04-06T05:49:10.584Z</time></trkpt><trkpt lat="45.8574927" lon="11.7871656"><ele>1339.0</ele><time>2026-04-06T05:49:11.585Z</time></trkpt><trkpt lat="45.8574773" lon="11.7872667"><ele>1340.0</ele><time>2026-04-06T05:49:12.59Z</time></trkpt><trkpt lat="45.8574737" lon="11.787367"><ele>1341.0</ele><time>2026-04-06T05:49:20.585Z</time></trkpt><trkpt lat="45.8575133" lon="11.7875023"><ele>1342.0</ele><time>2026-04-06T05:49:24.582Z</time></trkpt><trkpt lat="45.8575692" lon="11.7876838"><ele>1343.0</ele><time>2026-04-06T05:49:26.591Z</time></trkpt><trkpt lat="45.8575911" lon="11.7878161"><ele>1343.75</ele><time>2026-04-06T05:49:27.573Z</time></trkpt><trkpt lat="45.8576138" lon="11.7879818"><ele>1344.5</ele><time>2026-04-06T05:49:28.594Z</time></trkpt><trkpt lat="45.8576399" lon="11.7881547"><ele>1345.25</ele><time>2026-04-06T05:49:29.579Z</time></trkpt><trkpt lat="45.8576644" lon="11.7883241"><ele>1346.0</ele><time>2026-04-06T05:49:30.593Z</time></trkpt><trkpt lat="45.8576988" lon="11.7884667"><ele>1354.8</ele><time>2026-04-06T05:49:31.588Z</time></trkpt><trkpt lat="45.8577419" lon="11.7885942"><ele>1363.6</ele><time>2026-04-06T05:49:32.578Z</time></trkpt><trkpt lat="45.8577651" lon="11.7887169"><ele>1372.4</ele><time>2026-04-06T05:49:33.582Z</time></trkpt><trkpt lat="45.8577678" lon="11.788836"><ele>1381.2</ele><time>2026-04-06T05:49:34.588Z</time></trkpt><trkpt lat="45.8577205" lon="11.7889371"><ele>1390.0</ele><time>2026-04-06T05:49:35.582Z</time></trkpt><trkpt lat="45.8576572" lon="11.7890562"><ele>1384.75</ele><time>2026-04-06T05:49:36.59Z</time></trkpt><trkpt lat="45.8575828" lon="11.789201"><ele>1379.5</ele><time>2026-04-06T05:49:37.586Z</time></trkpt><trkpt lat="45.8575206" lon="11.7893698"><ele>1374.25</ele><time>2026-04-06T05:49:38.581Z</time></trkpt><trkpt lat="45.8574719" lon="11.7895287"><ele>1369.0</ele><time>2026-04-06T05:49:39.585Z</time></trkpt><trkpt lat="45.8574316" lon="11.7896755"><ele>1369.0</ele><time>2026-04-06T05:49:40.592Z</time></trkpt><trkpt lat="45.857412" lon="11.7898168"><ele>1369.0</ele><time>2026-04-06T05:49:41.578Z</time></trkpt><trkpt lat="45.8574011" lon="11.7899397"><ele>1369.0</ele><time>2026-04-06T05:49:42.589Z</time></trkpt><trkpt lat="45.857391" lon="11.7900353"><ele>1369.0</ele><time>2026-04-06T05:49:43.594Z</time></trkpt><trkpt lat="45.8573994" lon="11.7901271"><ele>1369.0</ele><time>2026-04-06T05:49:44.579Z</time></trkpt><trkpt lat="45.8573596" lon="11.7902653"><ele>1369.0</ele><time>2026-04-06T05:49:46.587Z</time></trkpt><trkpt lat="45.8572579" lon="11.7903037"><ele>1370.8333333333333</ele><time>2026-04-06T05:49:48.585Z</time></trkpt><trkpt lat="45.8571771" lon="11.7903305"><ele>1372.6666666666665</ele><time>2026-04-06T05:49:49.579Z</time></trkpt><trkpt lat="45.8570925" lon="11.7903664"><ele>1374.5</ele><time>2026-04-06T05:49:50.585Z</time></trkpt><trkpt lat="45.8570084" lon="11.7904223"><ele>1376.3333333333333</ele><time>2026-04-06T05:49:51.585Z</time></trkpt><trkpt lat="45.8569365" lon="11.7905012"><ele>1378.1666666666667</ele><time>2026-04-06T05:49:52.568Z</time></trkpt><trkpt lat="45.8568837" lon="11.7905788"><ele>1380.0</ele><time>2026-04-06T05:49:53.594Z</time></trkpt><trkpt lat="45.8568419" lon="11.7907476"><ele>1380.0</ele><time>2026-04-06T05:49:55.581Z</time></trkpt><trkpt lat="45.8568301" lon="11.7908589"><ele>1380.0</ele><time>2026-04-06T05:49:56.61Z</time></trkpt><trkpt lat="45.8568357" lon="11.7909962"><ele>1380.0</ele><time>2026-04-06T05:49:57.61Z</time></trkpt><trkpt lat="45.8568532" lon="11.7911215"><ele>1380.0</ele><time>2026-04-06T05:49:58.609Z</time></trkpt><trkpt lat="45.8568864" lon="11.7912604"><ele>1380.0</ele><time>2026-04-06T05:49:59.59Z</time></trkpt><trkpt lat="45.8569284" lon="11.7914121"><ele>1378.6</ele><time>2026-04-06T05:50:00.613Z</time></trkpt><trkpt lat="45.8569773" lon="11.7915726"><ele>1377.2</ele><time>2026-04-06T05:50:01.607Z</time></trkpt><trkpt lat="45.8570208" lon="11.7917246"><ele>1375.8000000000002</ele><time>2026-04-06T05:50:02.612Z</time></trkpt><trkpt lat="45.8570646" lon="11.7918608"><ele>1374.4</ele><time>2026-04-06T05:50:03.589Z</time></trkpt><trkpt lat="45.8571057" lon="11.7919656"><ele>1373.0</ele><time>2026-04-06T05:50:04.582Z</time></trkpt><trkpt lat="45.8572007" lon="11.792013"><ele>1373.0</ele><time>2026-04-06T05:50:07.578Z</time></trkpt><trkpt lat="45.8573182" lon="11.7919508"><ele>1373.0</ele><time>2026-04-06T05:50:09.582Z</time></trkpt><trkpt lat="45.8573554" lon="11.7918649"><ele>1373.0</ele><time>2026-04-06T05:50:10.587Z</time></trkpt><trkpt lat="45.857363" lon="11.791768"><ele>1373.0</ele><time>2026-04-06T05:50:11.586Z</time></trkpt><trkpt lat="45.8573746" lon="11.7916659"><ele>1373.0</ele><time>2026-04-06T05:50:14.59Z</time></trkpt><trkpt lat="45.8574334" lon="11.7915642"><ele>1373.0</ele><time>2026-04-06T05:50:18.587Z</time></trkpt><trkpt lat="45.8574687" lon="11.7914808"><ele>1373.0</ele><time>2026-04-06T05:50:19.586Z</time></trkpt><trkpt lat="45.8575278" lon="11.7913717"><ele>1373.0</ele><time>2026-04-06T05:50:20.585Z</time></trkpt><trkpt lat="45.8575948" lon="11.7912711"><ele>1373.0</ele><time>2026-04-06T05:50:21.577Z</time></trkpt><trkpt lat="45.857681" lon="11.7911721"><ele>1373.0</ele><time>2026-04-06T05:50:22.592Z</time></trkpt><trkpt lat="45.8577394" lon="11.7910796"><ele>1373.0</ele><time>2026-04-06T05:50:23.59Z</time></trkpt><trkpt lat="45.8578077" lon="11.7910265"><ele>1376.5</ele><time>2026-04-06T05:50:24.583Z</time></trkpt><trkpt lat="45.857884" lon="11.7910043"><ele>1380.0</ele><time>2026-04-06T05:50:25.588Z</time></trkpt><trkpt lat="45.857969" lon="11.7910012"><ele>1383.5</ele><time>2026-04-06T05:50:26.586Z</time></trkpt><trkpt lat="45.8580494" lon="11.7910169"><ele>1387.0</ele><time>2026-04-06T05:50:27.586Z</time></trkpt><trkpt lat="45.858118" lon="11.7910468"><ele>1390.5</ele><time>2026-04-06T05:50:28.591Z</time></trkpt><trkpt lat="45.8582127" lon="11.7911"><ele>1394.0</ele><time>2026-04-06T05:50:42.585Z</time></trkpt><trkpt lat="45.8582099" lon="11.7910005"><ele>1394.0</ele><time>2026-04-06T05:51:07.588Z</time></trkpt><trkpt lat="45.8581328" lon="11.7909837"><ele>1394.0</ele><time>2026-04-06T05:51:18.598Z</time></trkpt><trkpt lat="45.8580527" lon="11.791014"><ele>1394.0</ele><time>2026-04-06T05:51:22.583Z</time></trkpt><trkpt lat="45.8579686" lon="11.7910186"><ele>1394.0</ele><time>2026-04-06T05:51:25.578Z</time></trkpt><trkpt lat="45.8579175" lon="11.7911003"><ele>1394.0</ele><time>2026-04-06T05:51:29.592Z</time></trkpt><trkpt lat="45.8579647" lon="11.7911733"><ele>1394.0</ele><time>2026-04-06T05:51:35.588Z</time></trkpt><trkpt lat="45.858039" lon="11.7911801"><ele>1394.0</ele><time>2026-04-06T05:51:37.587Z</time></trkpt><trkpt lat="45.8581306" lon="11.7911935"><ele>1394.0</ele><time>2026-04-06T05:51:39.591Z</time></trkpt><trkpt lat="45.8581811" lon="11.7912609"><ele>1394.0</ele><time>2026-04-06T05:51:40.592Z</time></trkpt><trkpt lat="45.8582371" lon="11.791361"><ele>1394.0</ele><time>2026-04-06T05:51:41.586Z</time></trkpt><trkpt lat="45.8582969" lon="11.7914548"><ele>1394.0</ele><time>2026-04-06T05:51:42.586Z</time></trkpt><trkpt lat="45.8583611" lon="11.7915562"><ele>1394.0</ele><time>2026-04-06T05:51:43.591Z</time></trkpt><trkpt lat="45.8584325" lon="11.7916709"><ele>1401.0</ele><time>2026-04-06T05:51:44.586Z</time></trkpt><trkpt lat="45.8584996" lon="11.7917827"><ele>1408.0</ele><time>2026-04-06T05:51:45.589Z</time></trkpt><trkpt lat="45.8585703" lon="11.7918878"><ele>1415.0</ele><time>2026-04-06T05:51:46.589Z</time></trkpt><trkpt lat="45.8586303" lon="11.7919933"><ele>1422.0</ele><time>2026-04-06T05:51:47.592Z</time></trkpt><trkpt lat="45.8586928" lon="11.7921168"><ele>1429.0</ele><time>2026-04-06T05:51:48.585Z</time></trkpt><trkpt lat="45.8587576" lon="11.792232"><ele>1429.0</ele><time>2026-04-06T05:51:49.583Z</time></trkpt><trkpt lat="45.8588028" lon="11.7923214"><ele>1429.0</ele><time>2026-04-06T05:51:50.59Z</time></trkpt><trkpt lat="45.8588418" lon="11.7924108"><ele>1429.0</ele><time>2026-04-06T05:51:51.58Z</time></trkpt><trkpt lat="45.8588697" lon="11.7925166"><ele>1429.0</ele><time>2026-04-06T05:51:52.583Z</time></trkpt><trkpt lat="45.8588832" lon="11.7926225"><ele>1429.0</ele><time>2026-04-06T05:51:53.593Z</time></trkpt><trkpt lat="45.858859" lon="11.7927271"><ele>1429.0</ele><time>2026-04-06T05:51:54.583Z</time></trkpt><trkpt lat="45.8587992" lon="11.792819"><ele>1430.5</ele><time>2026-04-06T05:51:55.578Z</time></trkpt><trkpt lat="45.8587407" lon="11.792902"><ele>1432.0</ele><time>2026-04-06T05:51:56.585Z</time></trkpt><trkpt lat="45.8586761" lon="11.7929851"><ele>1433.5</ele><time>2026-04-06T05:51:57.584Z</time></trkpt><trkpt lat="45.858636" lon="11.793072"><ele>1435.0</ele><time>2026-04-06T05:51:58.581Z</time></trkpt><trkpt lat="45.8586066" lon="11.7931774"><ele>1436.5</ele><time>2026-04-06T05:51:59.585Z</time></trkpt><trkpt lat="45.8585779" lon="11.793311"><ele>1438.0</ele><time>2026-04-06T05:52:00.59Z</time></trkpt><trkpt lat="45.8585607" lon="11.7934581"><ele>1440.0</ele><time>2026-04-06T05:52:01.584Z</time></trkpt><trkpt lat="45.858538" lon="11.7936016"><ele>1442.0</ele><time>2026-04-06T05:52:02.596Z</time></trkpt><trkpt lat="45.8585351" lon="11.7937375"><ele>1444.0</ele><time>2026-04-06T05:52:03.589Z</time></trkpt><trkpt lat="45.8585372" lon="11.7938727"><ele>1446.0</ele><time>2026-04-06T05:52:04.594Z</time></trkpt><trkpt lat="45.8585349" lon="11.7939917"><ele>1448.0</ele><time>2026-04-06T05:52:05.594Z</time></trkpt><trkpt lat="45.8585261" lon="11.7940996"><ele>1448.0</ele><time>2026-04-06T05:52:06.583Z</time></trkpt><trkpt lat="45.8585124" lon="11.7941997"><ele>1448.0</ele><time>2026-04-06T05:52:07.589Z</time></trkpt><trkpt lat="45.858474" lon="11.7942815"><ele>1448.0</ele><time>2026-04-06T05:52:08.586Z</time></trkpt><trkpt lat="45.8584374" lon="11.794367"><ele>1448.0</ele><time>2026-04-06T05:52:09.586Z</time></trkpt><trkpt lat="45.8584153" lon="11.7944593"><ele>1448.0</ele><time>2026-04-06T05:52:10.588Z</time></trkpt><trkpt lat="45.8584183" lon="11.7945506"><ele>1448.0</ele><time>2026-04-06T05:52:11.675Z</time></trkpt><trkpt lat="45.8584453" lon="11.7946456"><ele>1448.0</ele><time>2026-04-06T05:52:12.617Z</time></trkpt><trkpt lat="45.8584829" lon="11.7947424"><ele>1448.8333333333335</ele><time>2026-04-06T05:52:13.605Z</time></trkpt><trkpt lat="45.8585343" lon="11.7948366"><ele>1449.6666666666667</ele><time>2026-04-06T05:52:14.588Z</time></trkpt><trkpt lat="45.858589" lon="11.7949229"><ele>1450.5</ele><time>2026-04-06T05:52:15.588Z</time></trkpt><trkpt lat="45.8586342" lon="11.7949882"><ele>1451.3333333333333</ele><time>2026-04-06T05:52:16.588Z</time></trkpt><trkpt lat="45.8587121" lon="11.7951316"><ele>1452.1666666666665</ele><time>2026-04-06T05:52:18.589Z</time></trkpt><trkpt lat="45.8587355" lon="11.7952189"><ele>1453.0</ele><time>2026-04-06T05:52:19.584Z</time></trkpt><trkpt lat="45.8587181" lon="11.795325"><ele>1454.4</ele><time>2026-04-06T05:52:20.588Z</time></trkpt><trkpt lat="45.8586683" lon="11.7954359"><ele>1455.8000000000002</ele><time>2026-04-06T05:52:21.58Z</time></trkpt><trkpt lat="45.8586013" lon="11.7955513"><ele>1457.2</ele><time>2026-04-06T05:52:22.589Z</time></trkpt><trkpt lat="45.8585303" lon="11.7956546"><ele>1458.6</ele><time>2026-04-06T05:52:23.586Z</time></trkpt><trkpt lat="45.8584667" lon="11.7957363"><ele>1460.0</ele><time>2026-04-06T05:52:24.583Z</time></trkpt><trkpt lat="45.8584066" lon="11.795809"><ele>1458.5</ele><time>2026-04-06T05:52:25.587Z</time></trkpt><trkpt lat="45.8583061" lon="11.7958979"><ele>1457.0</ele><time>2026-04-06T05:52:27.584Z</time></trkpt><trkpt lat="45.8582836" lon="11.7960982"><ele>1455.5</ele><time>2026-04-06T05:52:34.585Z</time></trkpt><trkpt lat="45.8583892" lon="11.7961788"><ele>1454.0</ele><time>2026-04-06T05:52:35.586Z</time></trkpt><trkpt lat="45.858464" lon="11.7962591"><ele>1454.0</ele><time>2026-04-06T05:52:36.593Z</time></trkpt><trkpt lat="45.8585697" lon="11.7963567"><ele>1454.0</ele><time>2026-04-06T05:52:37.589Z</time></trkpt><trkpt lat="45.8586593" lon="11.7964407"><ele>1454.0</ele><time>2026-04-06T05:52:38.591Z</time></trkpt><trkpt lat="45.8587231" lon="11.7965067"><ele>1454.0</ele><time>2026-04-06T05:52:39.589Z</time></trkpt><trkpt lat="45.8587697" lon="11.7965741"><ele>1454.0</ele><time>2026-04-06T05:52:40.585Z</time></trkpt><trkpt lat="45.8588112" lon="11.7966567"><ele>1454.0</ele><time>2026-04-06T05:52:41.587Z</time></trkpt><trkpt lat="45.8588371" lon="11.7967466"><ele>1454.6666666666667</ele><time>2026-04-06T05:52:42.589Z</time></trkpt><trkpt lat="45.8588336" lon="11.796838"><ele>1455.3333333333335</ele><time>2026-04-06T05:52:43.584Z</time></trkpt><trkpt lat="45.8587882" lon="11.7969036"><ele>1456.0</ele><time>2026-04-06T05:52:44.586Z</time></trkpt><trkpt lat="45.8587352" lon="11.7969585"><ele>1456.6666666666667</ele><time>2026-04-06T05:52:45.584Z</time></trkpt><trkpt lat="45.8586526" lon="11.7970078"><ele>1457.3333333333333</ele><time>2026-04-06T05:52:46.588Z</time></trkpt><trkpt lat="45.858561" lon="11.7970724"><ele>1458.0</ele><time>2026-04-06T05:52:47.581Z</time></trkpt><trkpt lat="45.8584658" lon="11.7971482"><ele>1454.2</ele><time>2026-04-06T05:52:48.589Z</time></trkpt><trkpt lat="45.8583983" lon="11.7972243"><ele>1450.4</ele><time>2026-04-06T05:52:49.588Z</time></trkpt><trkpt lat="45.8583278" lon="11.7973737"><ele>1446.6000000000001</ele><time>2026-04-06T05:52:51.584Z</time></trkpt><trkpt lat="45.8583192" lon="11.7975657"><ele>1442.8000000000002</ele><time>2026-04-06T05:52:53.595Z</time></trkpt><trkpt lat="45.8583565" lon="11.797671"><ele>1439.0</ele><time>2026-04-06T05:52:54.594Z</time></trkpt><trkpt lat="45.8583805" lon="11.7977858"><ele>1439.0</ele><time>2026-04-06T05:52:55.586Z</time></trkpt><trkpt lat="45.8584361" lon="11.7978877"><ele>1439.0</ele><time>2026-04-06T05:52:56.592Z</time></trkpt><trkpt lat="45.8584828" lon="11.7979888"><ele>1439.0</ele><time>2026-04-06T05:52:57.581Z</time></trkpt><trkpt lat="45.8585424" lon="11.7981065"><ele>1439.0</ele><time>2026-04-06T05:52:58.59Z</time></trkpt><trkpt lat="45.8586182" lon="11.7982298"><ele>1439.0</ele><time>2026-04-06T05:52:59.583Z</time></trkpt><trkpt lat="45.8586533" lon="11.798349"><ele>1446.2</ele><time>2026-04-06T05:53:00.583Z</time></trkpt><trkpt lat="45.8586417" lon="11.7984889"><ele>1453.4</ele><time>2026-04-06T05:53:01.589Z</time></trkpt><trkpt lat="45.8586141" lon="11.7986574"><ele>1460.6</ele><time>2026-04-06T05:53:02.588Z</time></trkpt><trkpt lat="45.8585804" lon="11.7988197"><ele>1467.8</ele><time>2026-04-06T05:53:03.587Z</time></trkpt><trkpt lat="45.8585437" lon="11.7989662"><ele>1475.0</ele><time>2026-04-06T05:53:04.582Z</time></trkpt><trkpt lat="45.8584878" lon="11.7990863"><ele>1477.0</ele><time>2026-04-06T05:53:05.591Z</time></trkpt><trkpt lat="45.8584493" lon="11.7991963"><ele>1479.0</ele><time>2026-04-06T05:53:06.577Z</time></trkpt><trkpt lat="45.858421" lon="11.7992975"><ele>1481.0</ele><time>2026-04-06T05:53:07.59Z</time></trkpt><trkpt lat="45.858417" lon="11.7994005"><ele>1483.0</ele><time>2026-04-06T05:53:08.585Z</time></trkpt><trkpt lat="45.85842" lon="11.7994996"><ele>1485.0</ele><time>2026-04-06T05:53:09.584Z</time></trkpt><trkpt lat="45.858463" lon="11.7996608"><ele>1487.0</ele><time>2026-04-06T05:53:11.591Z</time></trkpt><trkpt lat="45.8585045" lon="11.7997363"><ele>1487.0</ele><time>2026-04-06T05:53:12.592Z</time></trkpt><trkpt lat="45.8585628" lon="11.7998224"><ele>1487.0</ele><time>2026-04-06T05:53:13.587Z</time></trkpt><trkpt lat="45.8586518" lon="11.799921"><ele>1487.0</ele><time>2026-04-06T05:53:14.588Z</time></trkpt><trkpt lat="45.8587505" lon="11.8000303"><ele>1487.0</ele><time>2026-04-06T05:53:15.584Z</time></trkpt><trkpt lat="45.8588448" lon="11.8001317"><ele>1487.0</ele><time>2026-04-06T05:53:16.597Z</time></trkpt><trkpt lat="45.8589147" lon="11.8002162"><ele>1485.9999999999998</ele><time>2026-04-06T05:53:17.595Z</time></trkpt><trkpt lat="45.858986" lon="11.8002981"><ele>1485.0</ele><time>2026-04-06T05:53:18.585Z</time></trkpt><trkpt lat="45.8590348" lon="11.8003702"><ele>1484.0</ele><time>2026-04-06T05:53:19.589Z</time></trkpt><trkpt lat="45.859068" lon="11.8004594"><ele>1483.0</ele><time>2026-04-06T05:53:20.583Z</time></trkpt><trkpt lat="45.8590805" lon="11.8005644"><ele>1482.0</ele><time>2026-04-06T05:53:21.583Z</time></trkpt><trkpt lat="45.8590943" lon="11.8006726"><ele>1480.9999999999998</ele><time>2026-04-06T05:53:22.584Z</time></trkpt><trkpt lat="45.8591029" lon="11.8007642"><ele>1480.0</ele><time>2026-04-06T05:53:23.681Z</time></trkpt><trkpt lat="45.8591056" lon="11.8009097"><ele>1480.0</ele><time>2026-04-06T05:53:25.577Z</time></trkpt><trkpt lat="45.8591302" lon="11.8009933"><ele>1480.0</ele><time>2026-04-06T05:53:26.58Z</time></trkpt><trkpt lat="45.8591891" lon="11.8010778"><ele>1480.0</ele><time>2026-04-06T05:53:27.588Z</time></trkpt><trkpt lat="45.8592473" lon="11.8011728"><ele>1480.0</ele><time>2026-04-06T05:53:28.585Z</time></trkpt><trkpt lat="45.8593182" lon="11.8012711"><ele>1480.0</ele><time>2026-04-06T05:53:29.583Z</time></trkpt><trkpt lat="45.8593821" lon="11.8013623"><ele>1480.0</ele><time>2026-04-06T05:53:30.605Z</time></trkpt><trkpt lat="45.8594347" lon="11.8014505"><ele>1485.8</ele><time>2026-04-06T05:53:31.588Z</time></trkpt><trkpt lat="45.8594584" lon="11.8015346"><ele>1491.6</ele><time>2026-04-06T05:53:32.58Z</time></trkpt><trkpt lat="45.8594652" lon="11.8017103"><ele>1497.4</ele><time>2026-04-06T05:53:34.585Z</time></trkpt><trkpt lat="45.8594608" lon="11.8018834"><ele>1503.2</ele><time>2026-04-06T05:53:36.585Z</time></trkpt><trkpt lat="45.8594702" lon="11.8019731"><ele>1509.0</ele><time>2026-04-06T05:53:37.588Z</time></trkpt><trkpt lat="45.8594866" lon="11.8021162"><ele>1509.5</ele><time>2026-04-06T05:53:39.585Z</time></trkpt><trkpt lat="45.8594475" lon="11.8022363"><ele>1510.0</ele><time>2026-04-06T05:53:42.612Z</time></trkpt><trkpt lat="45.8594167" lon="11.8023189"><ele>1510.5</ele><time>2026-04-06T05:53:44.587Z</time></trkpt><trkpt lat="45.8593706" lon="11.8024008"><ele>1511.0</ele><time>2026-04-06T05:53:54.574Z</time></trkpt><trkpt lat="45.8592703" lon="11.8024629"><ele>1511.5</ele><time>2026-04-06T05:53:56.582Z</time></trkpt><trkpt lat="45.8591997" lon="11.8025165"><ele>1512.0</ele><time>2026-04-06T05:53:57.582Z</time></trkpt><trkpt lat="45.8591356" lon="11.8025833"><ele>1512.0</ele><time>2026-04-06T05:53:58.583Z</time></trkpt><trkpt lat="45.8590832" lon="11.8027048"><ele>1512.0</ele><time>2026-04-06T05:54:00.584Z</time></trkpt><trkpt lat="45.8591757" lon="11.8026815"><ele>1512.0</ele><time>2026-04-06T05:54:04.581Z</time></trkpt><trkpt lat="45.8592619" lon="11.8025237"><ele>1512.0</ele><time>2026-04-06T05:54:06.584Z</time></trkpt><trkpt lat="45.8593154" lon="11.8024549"><ele>1512.0</ele><time>2026-04-06T05:54:07.574Z</time></trkpt><trkpt lat="45.8594018" lon="11.8024077"><ele>1512.0</ele><time>2026-04-06T05:54:08.586Z</time></trkpt><trkpt lat="45.8595026" lon="11.8023734"><ele>1512.0</ele><time>2026-04-06T05:54:09.585Z</time></trkpt><trkpt lat="45.8596098" lon="11.8023631"><ele>1512.0</ele><time>2026-04-06T05:54:10.581Z</time></trkpt><trkpt lat="45.8597205" lon="11.802349"><ele>1512.0</ele><time>2026-04-06T05:54:11.582Z</time></trkpt><trkpt lat="45.8598286" lon="11.802335"><ele>1512.0</ele><time>2026-04-06T05:54:12.58Z</time></trkpt><trkpt lat="45.8599195" lon="11.8023213"><ele>1512.0</ele><time>2026-04-06T05:54:13.585Z</time></trkpt><trkpt lat="45.8599956" lon="11.8023081"><ele>1512.0</ele><time>2026-04-06T05:54:14.585Z</time></trkpt><trkpt lat="45.8600613" lon="11.8022609"><ele>1512.0</ele><time>2026-04-06T05:54:16.59Z</time></trkpt><trkpt lat="45.8600338" lon="11.8021348"><ele>1512.0</ele><time>2026-04-06T05:54:19.594Z</time></trkpt><trkpt lat="45.8600044" lon="11.8020456"><ele>1512.0</ele><time>2026-04-06T05:54:21.6Z</time></trkpt><trkpt lat="45.8599978" lon="11.8019473"><ele>1512.0</ele><time>2026-04-06T05:54:23.595Z</time></trkpt><trkpt lat="45.8600149" lon="11.8017824"><ele>1511.5</ele><time>2026-04-06T05:54:25.579Z</time></trkpt><trkpt lat="45.8600789" lon="11.8016399"><ele>1511.0</ele><time>2026-04-06T05:54:27.586Z</time></trkpt><trkpt lat="45.8601198" lon="11.8015701"><ele>1510.5</ele><time>2026-04-06T05:54:28.589Z</time></trkpt><trkpt lat="45.8601623" lon="11.8014988"><ele>1510.0</ele><time>2026-04-06T05:54:29.59Z</time></trkpt><trkpt lat="45.8601893" lon="11.8014084"><ele>1509.5</ele><time>2026-04-06T05:54:30.593Z</time></trkpt><trkpt lat="45.8602037" lon="11.8012772"><ele>1509.0</ele><time>2026-04-06T05:54:31.586Z</time></trkpt><trkpt lat="45.8602104" lon="11.8011582"><ele>1510.4</ele><time>2026-04-06T05:54:32.584Z</time></trkpt><trkpt lat="45.8601856" lon="11.8010304"><ele>1511.8000000000002</ele><time>2026-04-06T05:54:33.586Z</time></trkpt><trkpt lat="45.8601433" lon="11.8009157"><ele>1513.1999999999998</ele><time>2026-04-06T05:54:34.593Z</time></trkpt><trkpt lat="45.8601032" lon="11.8008295"><ele>1514.6</ele><time>2026-04-06T05:54:35.586Z</time></trkpt><trkpt lat="45.8600603" lon="11.8007011"><ele>1516.0</ele><time>2026-04-06T05:54:37.581Z</time></trkpt><trkpt lat="45.86006" lon="11.8005626"><ele>1516.0</ele><time>2026-04-06T05:54:39.583Z</time></trkpt><trkpt lat="45.8600935" lon="11.8004073"><ele>1516.0</ele><time>2026-04-06T05:54:41.595Z</time></trkpt><trkpt lat="45.8601763" lon="11.8002632"><ele>1516.0</ele><time>2026-04-06T05:54:43.586Z</time></trkpt><trkpt lat="45.8602321" lon="11.8001823"><ele>1516.0</ele><time>2026-04-06T05:54:44.586Z</time></trkpt><trkpt lat="45.8602968" lon="11.8000877"><ele>1516.0</ele><time>2026-04-06T05:54:45.581Z</time></trkpt><trkpt lat="45.8603519" lon="11.7999731"><ele>1519.5</ele><time>2026-04-06T05:54:46.584Z</time></trkpt><trkpt lat="45.8604014" lon="11.7998569"><ele>1523.0</ele><time>2026-04-06T05:54:47.591Z</time></trkpt><trkpt lat="45.8604478" lon="11.7997523"><ele>1526.5</ele><time>2026-04-06T05:54:48.577Z</time></trkpt><trkpt lat="45.8605039" lon="11.7996684"><ele>1530.0</ele><time>2026-04-06T05:54:49.581Z</time></trkpt><trkpt lat="45.8605704" lon="11.7996104"><ele>1533.5000000000002</ele><time>2026-04-06T05:54:50.585Z</time></trkpt><trkpt lat="45.8606625" lon="11.7995665"><ele>1537.0</ele><time>2026-04-06T05:54:51.572Z</time></trkpt><trkpt lat="45.8607605" lon="11.7995465"><ele>1537.0</ele><time>2026-04-06T05:54:52.581Z</time></trkpt><trkpt lat="45.8608536" lon="11.7995455"><ele>1537.0</ele><time>2026-04-06T05:54:53.586Z</time></trkpt><trkpt lat="45.8609237" lon="11.7995566"><ele>1537.0</ele><time>2026-04-06T05:54:54.576Z</time></trkpt><trkpt lat="45.8610356" lon="11.7995736"><ele>1537.0</ele><time>2026-04-06T05:54:56.578Z</time></trkpt><trkpt lat="45.8611349" lon="11.7993119"><ele>1536.25</ele><time>2026-04-06T05:55:06.583Z</time></trkpt><trkpt lat="45.8610837" lon="11.7992051"><ele>1535.5</ele><time>2026-04-06T05:55:07.587Z</time></trkpt><trkpt lat="45.8610012" lon="11.7990471"><ele>1534.75</ele><time>2026-04-06T05:55:08.58Z</time></trkpt><trkpt lat="45.8609439" lon="11.7988597"><ele>1534.0</ele><time>2026-04-06T05:55:09.584Z</time></trkpt><trkpt lat="45.8609039" lon="11.7986562"><ele>1535.4</ele><time>2026-04-06T05:55:10.575Z</time></trkpt><trkpt lat="45.8608583" lon="11.798417"><ele>1536.8000000000002</ele><time>2026-04-06T05:55:11.587Z</time></trkpt><trkpt lat="45.8608025" lon="11.7982969"><ele>1538.1999999999998</ele><time>2026-04-06T05:55:12.577Z</time></trkpt><trkpt lat="45.8607909" lon="11.798188"><ele>1539.6</ele><time>2026-04-06T05:55:13.575Z</time></trkpt><trkpt lat="45.860815" lon="11.7980512"><ele>1541.0</ele><time>2026-04-06T05:55:15.568Z</time></trkpt><trkpt lat="45.8609009" lon="11.7980871"><ele>1541.0</ele><time>2026-04-06T05:55:17.587Z</time></trkpt><trkpt lat="45.8609419" lon="11.7982413"><ele>1541.0</ele><time>2026-04-06T05:55:19.582Z</time></trkpt><trkpt lat="45.8609532" lon="11.7983506"><ele>1541.0</ele><time>2026-04-06T05:55:20.581Z</time></trkpt><trkpt lat="45.8609606" lon="11.7984632"><ele>1541.0</ele><time>2026-04-06T05:55:21.578Z</time></trkpt><trkpt lat="45.8609883" lon="11.7986021"><ele>1541.0</ele><time>2026-04-06T05:55:22.582Z</time></trkpt><trkpt lat="45.8610268" lon="11.7987658"><ele>1545.8</ele><time>2026-04-06T05:55:23.598Z</time></trkpt><trkpt lat="45.8610804" lon="11.7989135"><ele>1550.6</ele><time>2026-04-06T05:55:24.577Z</time></trkpt><trkpt lat="45.8611316" lon="11.7990566"><ele>1555.4</ele><time>2026-04-06T05:55:25.609Z</time></trkpt><trkpt lat="45.8611889" lon="11.7991551"><ele>1560.2</ele><time>2026-04-06T05:55:26.581Z</time></trkpt><trkpt lat="45.8612825" lon="11.7992298"><ele>1565.0</ele><time>2026-04-06T05:55:27.583Z</time></trkpt><trkpt lat="45.8613557" lon="11.7992965"><ele>1563.9999999999998</ele><time>2026-04-06T05:55:28.591Z</time></trkpt><trkpt lat="45.861406" lon="11.7993671"><ele>1563.0</ele><time>2026-04-06T05:55:29.586Z</time></trkpt><trkpt lat="45.8614687" lon="11.7994658"><ele>1562.0</ele><time>2026-04-06T05:55:31.583Z</time></trkpt><trkpt lat="45.861476" lon="11.7996189"><ele>1561.0</ele><time>2026-04-06T05:55:33.612Z</time></trkpt><trkpt lat="45.8614576" lon="11.7997278"><ele>1559.9999999999998</ele><time>2026-04-06T05:55:35.61Z</time></trkpt><trkpt lat="45.8614435" lon="11.7998187"><ele>1559.0</ele><time>2026-04-06T05:55:48.61Z</time></trkpt><trkpt lat="45.8614513" lon="11.79969"><ele>1558.9999999999998</ele><time>2026-04-06T05:56:07.581Z</time></trkpt><trkpt lat="45.8614679" lon="11.7995694"><ele>1559.0</ele><time>2026-04-06T05:56:10.59Z</time></trkpt><trkpt lat="45.8614613" lon="11.7994627"><ele>1559.0</ele><time>2026-04-06T05:56:14.59Z</time></trkpt><trkpt lat="45.8614931" lon="11.7993293"><ele>1559.0</ele><time>2026-04-06T05:56:40.595Z</time></trkpt><trkpt lat="45.861496" lon="11.7994275"><ele>1558.9999999999998</ele><time>2026-04-06T05:56:47.612Z</time></trkpt><trkpt lat="45.8614862" lon="11.7995244"><ele>1559.0</ele><time>2026-04-06T05:56:53.597Z</time></trkpt><trkpt lat="45.8614582" lon="11.7996122"><ele>1559.0</ele><time>2026-04-06T05:56:59.597Z</time></trkpt><trkpt lat="45.8614523" lon="11.7997085"><ele>1559.0</ele><time>2026-04-06T05:57:05.597Z</time></trkpt><trkpt lat="45.8614685" lon="11.7997977"><ele>1559.0</ele><time>2026-04-06T05:57:21.612Z</time></trkpt><trkpt lat="45.8614921" lon="11.7998933"><ele>1559.0</ele><time>2026-04-06T05:57:33.614Z</time></trkpt><trkpt lat="45.8615096" lon="11.7999812"><ele>1559.0</ele><time>2026-04-06T05:57:41.621Z</time></trkpt><trkpt lat="45.8615285" lon="11.8000687"><ele>1559.0</ele><time>2026-04-06T05:57:48.613Z</time></trkpt><trkpt lat="45.8615754" lon="11.8001508"><ele>1559.0</ele><time>2026-04-06T05:58:20.619Z</time></trkpt><trkpt lat="45.8616209" lon="11.8002161"><ele>1559.142857142857</ele><time>2026-04-06T05:58:26.62Z</time></trkpt><trkpt lat="45.8616626" lon="11.8002839"><ele>1559.2857142857144</ele><time>2026-04-06T05:58:34.612Z</time></trkpt><trkpt lat="45.8617221" lon="11.8003394"><ele>1559.4285714285716</ele><time>2026-04-06T05:58:40.612Z</time></trkpt><trkpt lat="45.8617672" lon="11.8004047"><ele>1559.5714285714284</ele><time>2026-04-06T05:58:49.607Z</time></trkpt><trkpt lat="45.8618321" lon="11.800433"><ele>1559.7142857142858</ele><time>2026-04-06T05:59:02.626Z</time></trkpt><trkpt lat="45.8618648" lon="11.8003446"><ele>1559.857142857143</ele><time>2026-04-06T06:01:19.606Z</time></trkpt><trkpt lat="45.8619142" lon="11.8002688"><ele>1560.0</ele><time>2026-04-06T06:01:29.633Z</time></trkpt><trkpt lat="45.8619529" lon="11.8001885"><ele>1562.2857142857142</ele><time>2026-04-06T06:01:38.627Z</time></trkpt><trkpt lat="45.8619329" lon="11.8000965"><ele>1564.5714285714284</ele><time>2026-04-06T06:02:21.622Z</time></trkpt><trkpt lat="45.8619993" lon="11.8000221"><ele>1566.857142857143</ele><time>2026-04-06T06:03:00.582Z</time></trkpt><trkpt lat="45.8619811" lon="11.8001107"><ele>1569.142857142857</ele><time>2026-04-06T06:03:21.619Z</time></trkpt><trkpt lat="45.8619379" lon="11.8001938"><ele>1571.4285714285716</ele><time>2026-04-06T06:03:27.628Z</time></trkpt><trkpt lat="45.8618924" lon="11.8002631"><ele>1573.7142857142858</ele><time>2026-04-06T06:03:33.621Z</time></trkpt><trkpt lat="45.8618669" lon="11.8003486"><ele>1576.0</ele><time>2026-04-06T06:03:48.622Z</time></trkpt><trkpt lat="45.8618049" lon="11.8003873"><ele>1573.7142857142858</ele><time>2026-04-06T06:03:56.631Z</time></trkpt><trkpt lat="45.8617378" lon="11.8003541"><ele>1571.4285714285716</ele><time>2026-04-06T06:04:02.625Z</time></trkpt><trkpt lat="45.861691" lon="11.8002798"><ele>1569.142857142857</ele><time>2026-04-06T06:04:08.604Z</time></trkpt><trkpt lat="45.8616565" lon="11.8002015"><ele>1566.857142857143</ele><time>2026-04-06T06:04:13.603Z</time></trkpt><trkpt lat="45.8616194" lon="11.8001146"><ele>1564.5714285714284</ele><time>2026-04-06T06:04:19.607Z</time></trkpt><trkpt lat="45.8615883" lon="11.8000159"><ele>1562.2857142857142</ele><time>2026-04-06T06:04:39.648Z</time></trkpt><trkpt lat="45.8615669" lon="11.7999264"><ele>1560.0</ele><time>2026-04-06T06:04:53.638Z</time></trkpt><trkpt lat="45.8615362" lon="11.7998395"><ele>1559.857142857143</ele><time>2026-04-06T06:05:00.638Z</time></trkpt><trkpt lat="45.8615198" lon="11.7997473"><ele>1559.7142857142858</ele><time>2026-04-06T06:05:08.643Z</time></trkpt><trkpt lat="45.8615087" lon="11.7996514"><ele>1559.5714285714284</ele><time>2026-04-06T06:05:15.642Z</time></trkpt><trkpt lat="45.8615041" lon="11.7995468"><ele>1559.4285714285716</ele><time>2026-04-06T06:05:20.637Z</time></trkpt><trkpt lat="45.8615057" lon="11.799453"><ele>1559.2857142857144</ele><time>2026-04-06T06:05:26.639Z</time></trkpt><trkpt lat="45.8614904" lon="11.7993566"><ele>1559.142857142857</ele><time>2026-04-06T06:05:32.639Z</time></trkpt><trkpt lat="45.8614731" lon="11.7992597"><ele>1559.0</ele><time>2026-04-06T06:05:38.631Z</time></trkpt><trkpt lat="45.8614367" lon="11.7991765"><ele>1559.9999999999998</ele><time>2026-04-06T06:16:44.652Z</time></trkpt><trkpt lat="45.8613448" lon="11.7991068"><ele>1561.0</ele><time>2026-04-06T06:16:47.657Z</time></trkpt><trkpt lat="45.8612387" lon="11.7990318"><ele>1562.0</ele><time>2026-04-06T06:16:49.666Z</time></trkpt><trkpt lat="45.8611864" lon="11.7989754"><ele>1563.0</ele><time>2026-04-06T06:16:50.659Z</time></trkpt><trkpt lat="45.8611397" lon="11.7989039"><ele>1563.9999999999998</ele><time>2026-04-06T06:16:51.632Z</time></trkpt><trkpt lat="45.8610944" lon="11.7988112"><ele>1565.0</ele><time>2026-04-06T06:16:52.653Z</time></trkpt><trkpt lat="45.8610482" lon="11.7987025"><ele>1564.9999999999998</ele><time>2026-04-06T06:16:53.658Z</time></trkpt><trkpt lat="45.860997" lon="11.7985927"><ele>1565.0</ele><time>2026-04-06T06:16:54.63Z</time></trkpt><trkpt lat="45.8609492" lon="11.7984872"><ele>1565.0</ele><time>2026-04-06T06:16:55.636Z</time></trkpt><trkpt lat="45.8609118" lon="11.7983871"><ele>1565.0</ele><time>2026-04-06T06:16:56.626Z</time></trkpt><trkpt lat="45.8608863" lon="11.7982957"><ele>1564.9999999999998</ele><time>2026-04-06T06:16:57.629Z</time></trkpt><trkpt lat="45.8608846" lon="11.7981477"><ele>1565.0</ele><time>2026-04-06T06:16:59.632Z</time></trkpt><trkpt lat="45.8608841" lon="11.7980516"><ele>1560.9999999999998</ele><time>2026-04-06T06:17:01.643Z</time></trkpt><trkpt lat="45.8608123" lon="11.7980953"><ele>1557.0</ele><time>2026-04-06T06:17:04.645Z</time></trkpt><trkpt lat="45.8608008" lon="11.7981979"><ele>1553.0</ele><time>2026-04-06T06:17:05.64Z</time></trkpt><trkpt lat="45.8608063" lon="11.7983281"><ele>1549.0</ele><time>2026-04-06T06:17:06.64Z</time></trkpt><trkpt lat="45.8608231" lon="11.7984774"><ele>1544.9999999999998</ele><time>2026-04-06T06:17:07.644Z</time></trkpt><trkpt lat="45.8608413" lon="11.7986172"><ele>1541.0</ele><time>2026-04-06T06:17:08.64Z</time></trkpt><trkpt lat="45.8608597" lon="11.798746"><ele>1539.8333333333333</ele><time>2026-04-06T06:17:09.642Z</time></trkpt><trkpt lat="45.8608793" lon="11.7988638"><ele>1538.6666666666665</ele><time>2026-04-06T06:17:10.646Z</time></trkpt><trkpt lat="45.860903" lon="11.7989716"><ele>1537.5</ele><time>2026-04-06T06:17:11.642Z</time></trkpt><trkpt lat="45.8609299" lon="11.7990706"><ele>1536.3333333333333</ele><time>2026-04-06T06:17:12.617Z</time></trkpt><trkpt lat="45.860957" lon="11.7991652"><ele>1535.1666666666665</ele><time>2026-04-06T06:17:13.638Z</time></trkpt><trkpt lat="45.8609805" lon="11.7992509"><ele>1534.0</ele><time>2026-04-06T06:17:14.612Z</time></trkpt><trkpt lat="45.8610254" lon="11.7994018"><ele>1534.5</ele><time>2026-04-06T06:17:16.613Z</time></trkpt><trkpt lat="45.8610506" lon="11.7995347"><ele>1535.0</ele><time>2026-04-06T06:17:18.635Z</time></trkpt><trkpt lat="45.8610116" lon="11.7996176"><ele>1535.5</ele><time>2026-04-06T06:17:24.645Z</time></trkpt><trkpt lat="45.8609482" lon="11.7997002"><ele>1536.0</ele><time>2026-04-06T06:17:34.623Z</time></trkpt><trkpt lat="45.8608724" lon="11.7997228"><ele>1536.5000000000002</ele><time>2026-04-06T06:17:37.623Z</time></trkpt><trkpt lat="45.8607972" lon="11.7997109"><ele>1537.0</ele><time>2026-04-06T06:17:39.651Z</time></trkpt><trkpt lat="45.8606748" lon="11.7997166"><ele>1537.0000000000002</ele><time>2026-04-06T06:17:41.623Z</time></trkpt><trkpt lat="45.860603" lon="11.7997328"><ele>1537.0</ele><time>2026-04-06T06:17:42.634Z</time></trkpt><trkpt lat="45.8605342" lon="11.7997573"><ele>1537.0</ele><time>2026-04-06T06:17:43.643Z</time></trkpt><trkpt lat="45.8604225" lon="11.7998277"><ele>1537.0</ele><time>2026-04-06T06:17:45.649Z</time></trkpt><trkpt lat="45.8603662" lon="11.7998801"><ele>1537.0000000000002</ele><time>2026-04-06T06:17:46.641Z</time></trkpt><trkpt lat="45.8603136" lon="11.7999685"><ele>1537.0</ele><time>2026-04-06T06:17:47.649Z</time></trkpt><trkpt lat="45.8602611" lon="11.8000671"><ele>1537.0000000000002</ele><time>2026-04-06T06:17:48.645Z</time></trkpt><trkpt lat="45.8602119" lon="11.8001484"><ele>1537.0</ele><time>2026-04-06T06:17:49.667Z</time></trkpt><trkpt lat="45.8601622" lon="11.8002521"><ele>1537.0</ele><time>2026-04-06T06:17:52.665Z</time></trkpt><trkpt lat="45.8601271" lon="11.8003409"><ele>1537.0</ele><time>2026-04-06T06:17:54.613Z</time></trkpt><trkpt lat="45.860063" lon="11.8004912"><ele>1537.0000000000002</ele><time>2026-04-06T06:17:56.649Z</time></trkpt><trkpt lat="45.8600326" lon="11.8006002"><ele>1537.0</ele><time>2026-04-06T06:17:57.65Z</time></trkpt><trkpt lat="45.8600158" lon="11.8007104"><ele>1536.5000000000002</ele><time>2026-04-06T06:17:58.647Z</time></trkpt><trkpt lat="45.8600103" lon="11.8008154"><ele>1536.0</ele><time>2026-04-06T06:17:59.631Z</time></trkpt><trkpt lat="45.8600089" lon="11.8009068"><ele>1535.5</ele><time>2026-04-06T06:18:00.613Z</time></trkpt><trkpt lat="45.8600435" lon="11.8010443"><ele>1535.0</ele><time>2026-04-06T06:18:02.647Z</time></trkpt><trkpt lat="45.86009" lon="11.8011712"><ele>1534.5</ele><time>2026-04-06T06:18:04.618Z</time></trkpt><trkpt lat="45.8601262" lon="11.8013097"><ele>1534.0</ele><time>2026-04-06T06:18:06.617Z</time></trkpt><trkpt lat="45.8601578" lon="11.8014557"><ele>1534.0</ele><time>2026-04-06T06:18:08.651Z</time></trkpt><trkpt lat="45.8601718" lon="11.8016091"><ele>1534.0</ele><time>2026-04-06T06:18:10.616Z</time></trkpt><trkpt lat="45.8601685" lon="11.8017141"><ele>1534.0</ele><time>2026-04-06T06:18:35.622Z</time></trkpt><trkpt lat="45.8601565" lon="11.8018032"><ele>1534.0</ele><time>2026-04-06T06:18:42.646Z</time></trkpt><trkpt lat="45.8601341" lon="11.8018919"><ele>1534.0</ele><time>2026-04-06T06:19:18.651Z</time></trkpt><trkpt lat="45.860123" lon="11.8019998"><ele>1534.0</ele><time>2026-04-06T06:19:21.645Z</time></trkpt><trkpt lat="45.8600834" lon="11.8020923"><ele>1530.3333333333333</ele><time>2026-04-06T06:19:23.643Z</time></trkpt><trkpt lat="45.8600352" lon="11.8022185"><ele>1526.6666666666665</ele><time>2026-04-06T06:19:25.644Z</time></trkpt><trkpt lat="45.8600313" lon="11.8023215"><ele>1523.0</ele><time>2026-04-06T06:19:28.651Z</time></trkpt><trkpt lat="45.8600355" lon="11.8024277"><ele>1519.3333333333333</ele><time>2026-04-06T06:19:32.648Z</time></trkpt><trkpt lat="45.8600315" lon="11.8025531"><ele>1515.6666666666667</ele><time>2026-04-06T06:19:35.633Z</time></trkpt><trkpt lat="45.8599348" lon="11.8025911"><ele>1512.0</ele><time>2026-04-06T06:19:39.642Z</time></trkpt><trkpt lat="45.8598653" lon="11.8025824"><ele>1512.0</ele><time>2026-04-06T06:19:40.647Z</time></trkpt><trkpt lat="45.8597892" lon="11.8025677"><ele>1512.0</ele><time>2026-04-06T06:19:41.638Z</time></trkpt><trkpt lat="45.8596983" lon="11.8025407"><ele>1512.0</ele><time>2026-04-06T06:19:42.639Z</time></trkpt><trkpt lat="45.859615" lon="11.8025132"><ele>1512.0</ele><time>2026-04-06T06:19:43.634Z</time></trkpt><trkpt lat="45.8595299" lon="11.802499"><ele>1512.0</ele><time>2026-04-06T06:19:44.628Z</time></trkpt><trkpt lat="45.8594413" lon="11.8024823"><ele>1512.0</ele><time>2026-04-06T06:19:45.637Z</time></trkpt><trkpt lat="45.8593484" lon="11.8024808"><ele>1510.3999999999999</ele><time>2026-04-06T06:19:46.605Z</time></trkpt><trkpt lat="45.8592588" lon="11.8024968"><ele>1508.8</ele><time>2026-04-06T06:19:47.79Z</time></trkpt><trkpt lat="45.8591333" lon="11.802574"><ele>1507.2</ele><time>2026-04-06T06:19:49.64Z</time></trkpt><trkpt lat="45.8590534" lon="11.8026379"><ele>1505.6</ele><time>2026-04-06T06:19:51.652Z</time></trkpt><trkpt lat="45.859" lon="11.8027306"><ele>1504.0</ele><time>2026-04-06T06:19:54.648Z</time></trkpt><trkpt lat="45.8589885" lon="11.8028738"><ele>1504.0</ele><time>2026-04-06T06:19:56.639Z</time></trkpt><trkpt lat="45.858978" lon="11.8029702"><ele>1504.0</ele><time>2026-04-06T06:19:57.625Z</time></trkpt><trkpt lat="45.8589787" lon="11.803099"><ele>1504.0</ele><time>2026-04-06T06:19:58.626Z</time></trkpt><trkpt lat="45.8589708" lon="11.8032285"><ele>1504.0</ele><time>2026-04-06T06:19:59.627Z</time></trkpt><trkpt lat="45.8589546" lon="11.8033661"><ele>1504.0</ele><time>2026-04-06T06:20:00.621Z</time></trkpt><trkpt lat="45.8589275" lon="11.8035101"><ele>1504.0</ele><time>2026-04-06T06:20:01.618Z</time></trkpt><trkpt lat="45.8588879" lon="11.8036591"><ele>1504.6666666666665</ele><time>2026-04-06T06:20:02.622Z</time></trkpt><trkpt lat="45.8588582" lon="11.803806"><ele>1505.3333333333333</ele><time>2026-04-06T06:20:03.626Z</time></trkpt><trkpt lat="45.8588454" lon="11.8039462"><ele>1506.0</ele><time>2026-04-06T06:20:04.631Z</time></trkpt><trkpt lat="45.8588619" lon="11.8040601"><ele>1506.6666666666667</ele><time>2026-04-06T06:20:05.652Z</time></trkpt><trkpt lat="45.8588865" lon="11.8041744"><ele>1507.3333333333335</ele><time>2026-04-06T06:20:06.65Z</time></trkpt><trkpt lat="45.8589044" lon="11.8042845"><ele>1508.0</ele><time>2026-04-06T06:20:07.655Z</time></trkpt><trkpt lat="45.8589155" lon="11.8043953"><ele>1504.8333333333335</ele><time>2026-04-06T06:20:08.643Z</time></trkpt><trkpt lat="45.8589115" lon="11.8044988"><ele>1501.6666666666667</ele><time>2026-04-06T06:20:09.651Z</time></trkpt><trkpt lat="45.8588969" lon="11.8046011"><ele>1498.5</ele><time>2026-04-06T06:20:10.649Z</time></trkpt><trkpt lat="45.8588799" lon="11.8047122"><ele>1495.3333333333333</ele><time>2026-04-06T06:20:11.65Z</time></trkpt><trkpt lat="45.8588739" lon="11.8048177"><ele>1492.1666666666665</ele><time>2026-04-06T06:20:12.648Z</time></trkpt><trkpt lat="45.8588798" lon="11.8049115"><ele>1489.0</ele><time>2026-04-06T06:20:13.655Z</time></trkpt><trkpt lat="45.8589311" lon="11.8050756"><ele>1489.0</ele><time>2026-04-06T06:20:15.641Z</time></trkpt><trkpt lat="45.858997" lon="11.805134"><ele>1489.0</ele><time>2026-04-06T06:20:16.642Z</time></trkpt><trkpt lat="45.8590674" lon="11.8051813"><ele>1489.0</ele><time>2026-04-06T06:20:17.639Z</time></trkpt><trkpt lat="45.859141" lon="11.8052163"><ele>1489.0</ele><time>2026-04-06T06:20:18.61Z</time></trkpt><trkpt lat="45.8592348" lon="11.8052176"><ele>1489.0</ele><time>2026-04-06T06:20:19.613Z</time></trkpt><trkpt lat="45.8593248" lon="11.8052016"><ele>1489.0</ele><time>2026-04-06T06:20:20.606Z</time></trkpt><trkpt lat="45.8594154" lon="11.8051726"><ele>1492.857142857143</ele><time>2026-04-06T06:20:21.6Z</time></trkpt><trkpt lat="45.859494" lon="11.8051359"><ele>1496.7142857142858</ele><time>2026-04-06T06:20:22.601Z</time></trkpt><trkpt lat="45.8595671" lon="11.8051167"><ele>1500.5714285714287</ele><time>2026-04-06T06:20:23.609Z</time></trkpt><trkpt lat="45.8596366" lon="11.8050972"><ele>1504.4285714285716</ele><time>2026-04-06T06:20:24.605Z</time></trkpt><trkpt lat="45.8597037" lon="11.8050837"><ele>1508.2857142857142</ele><time>2026-04-06T06:20:25.604Z</time></trkpt><trkpt lat="45.8597736" lon="11.8050924"><ele>1512.1428571428573</ele><time>2026-04-06T06:20:26.607Z</time></trkpt><trkpt lat="45.8598462" lon="11.8051074"><ele>1516.0</ele><time>2026-04-06T06:20:27.604Z</time></trkpt><trkpt lat="45.8599091" lon="11.8051295"><ele>1516.0</ele><time>2026-04-06T06:20:28.593Z</time></trkpt><trkpt lat="45.8600068" lon="11.8051559"><ele>1516.0</ele><time>2026-04-06T06:20:30.601Z</time></trkpt><trkpt lat="45.8599366" lon="11.8052221"><ele>1516.0</ele><time>2026-04-06T06:21:53.651Z</time></trkpt><trkpt lat="45.8598744" lon="11.8051807"><ele>1516.0</ele><time>2026-04-06T06:21:56.638Z</time></trkpt><trkpt lat="45.8597518" lon="11.8051267"><ele>1516.0</ele><time>2026-04-06T06:21:58.638Z</time></trkpt><trkpt lat="45.8596843" lon="11.8051039"><ele>1516.0</ele><time>2026-04-06T06:21:59.635Z</time></trkpt><trkpt lat="45.8596163" lon="11.8050809"><ele>1516.0</ele><time>2026-04-06T06:22:00.639Z</time></trkpt><trkpt lat="45.8595422" lon="11.8050581"><ele>1516.0</ele><time>2026-04-06T06:22:01.632Z</time></trkpt><trkpt lat="45.8594599" lon="11.8050564"><ele>1516.0</ele><time>2026-04-06T06:22:02.64Z</time></trkpt><trkpt lat="45.8593811" lon="11.8050757"><ele>1516.0</ele><time>2026-04-06T06:22:03.631Z</time></trkpt><trkpt lat="45.8593079" lon="11.8050941"><ele>1516.0</ele><time>2026-04-06T06:22:04.641Z</time></trkpt><trkpt lat="45.8592395" lon="11.8051023"><ele>1512.1428571428573</ele><time>2026-04-06T06:22:05.64Z</time></trkpt><trkpt lat="45.8591723" lon="11.8051074"><ele>1508.2857142857142</ele><time>2026-04-06T06:22:06.629Z</time></trkpt><trkpt lat="45.8591027" lon="11.8050978"><ele>1504.4285714285716</ele><time>2026-04-06T06:22:07.635Z</time></trkpt><trkpt lat="45.8590299" lon="11.8050654"><ele>1500.5714285714287</ele><time>2026-04-06T06:22:08.651Z</time></trkpt><trkpt lat="45.8589609" lon="11.8050271"><ele>1496.7142857142858</ele><time>2026-04-06T06:22:09.635Z</time></trkpt><trkpt lat="45.8589039" lon="11.8049706"><ele>1492.857142857143</ele><time>2026-04-06T06:22:10.619Z</time></trkpt><trkpt lat="45.8588624" lon="11.8048878"><ele>1489.0</ele><time>2026-04-06T06:22:11.635Z</time></trkpt><trkpt lat="45.8588507" lon="11.8047848"><ele>1489.0</ele><time>2026-04-06T06:22:12.655Z</time></trkpt><trkpt lat="45.8588615" lon="11.8046725"><ele>1489.0</ele><time>2026-04-06T06:22:13.642Z</time></trkpt><trkpt lat="45.8588829" lon="11.8045501"><ele>1489.0</ele><time>2026-04-06T06:22:14.64Z</time></trkpt><trkpt lat="45.8589065" lon="11.80442"><ele>1489.0</ele><time>2026-04-06T06:22:15.645Z</time></trkpt><trkpt lat="45.8589258" lon="11.8043018"><ele>1489.0</ele><time>2026-04-06T06:22:16.648Z</time></trkpt><trkpt lat="45.8589295" lon="11.8041969"><ele>1489.0</ele><time>2026-04-06T06:22:17.651Z</time></trkpt><trkpt lat="45.858924" lon="11.8041037"><ele>1492.0</ele><time>2026-04-06T06:22:18.626Z</time></trkpt><trkpt lat="45.8589033" lon="11.8039523"><ele>1495.0</ele><time>2026-04-06T06:22:20.651Z</time></trkpt><trkpt lat="45.8588926" lon="11.8038022"><ele>1498.0</ele><time>2026-04-06T06:22:22.651Z</time></trkpt><trkpt lat="45.8588993" lon="11.8037083"><ele>1501.0</ele><time>2026-04-06T06:22:23.648Z</time></trkpt><trkpt lat="45.8589133" lon="11.8035956"><ele>1504.0</ele><time>2026-04-06T06:22:24.646Z</time></trkpt><trkpt lat="45.8589453" lon="11.8034678"><ele>1504.0</ele><time>2026-04-06T06:22:25.648Z</time></trkpt><trkpt lat="45.8589826" lon="11.8033388"><ele>1504.0</ele><time>2026-04-06T06:22:26.643Z</time></trkpt><trkpt lat="45.8590167" lon="11.8032137"><ele>1504.0</ele><time>2026-04-06T06:22:27.642Z</time></trkpt><trkpt lat="45.8590364" lon="11.8030948"><ele>1504.0</ele><time>2026-04-06T06:22:28.636Z</time></trkpt><trkpt lat="45.8590428" lon="11.8029915"><ele>1504.0</ele><time>2026-04-06T06:22:29.646Z</time></trkpt><trkpt lat="45.8590475" lon="11.8028189"><ele>1504.0</ele><time>2026-04-06T06:22:31.644Z</time></trkpt><trkpt lat="45.8590607" lon="11.8026649"><ele>1504.0</ele><time>2026-04-06T06:22:33.641Z</time></trkpt><trkpt lat="45.8590702" lon="11.8025265"><ele>1504.0</ele><time>2026-04-06T06:22:35.622Z</time></trkpt><trkpt lat="45.859097" lon="11.8023902"><ele>1504.0</ele><time>2026-04-06T06:22:37.624Z</time></trkpt><trkpt lat="45.8591803" lon="11.8022774"><ele>1504.0</ele><time>2026-04-06T06:22:39.645Z</time></trkpt><trkpt lat="45.859248" lon="11.8022282"><ele>1505.3333333333333</ele><time>2026-04-06T06:22:40.641Z</time></trkpt><trkpt lat="45.8593164" lon="11.8021873"><ele>1506.6666666666665</ele><time>2026-04-06T06:22:41.64Z</time></trkpt><trkpt lat="45.8594181" lon="11.8021384"><ele>1508.0</ele><time>2026-04-06T06:22:43.609Z</time></trkpt><trkpt lat="45.8594598" lon="11.802061"><ele>1509.3333333333333</ele><time>2026-04-06T06:22:47.782Z</time></trkpt><trkpt lat="45.8593906" lon="11.8020045"><ele>1510.6666666666667</ele><time>2026-04-06T06:24:57.643Z</time></trkpt><trkpt lat="45.8593189" lon="11.8020744"><ele>1512.0</ele><time>2026-04-06T06:25:01.645Z</time></trkpt><trkpt lat="45.8592079" lon="11.8021553"><ele>1507.6</ele><time>2026-04-06T06:25:03.633Z</time></trkpt><trkpt lat="45.8591325" lon="11.8021921"><ele>1503.1999999999998</ele><time>2026-04-06T06:25:04.643Z</time></trkpt><trkpt lat="45.8590653" lon="11.8022516"><ele>1498.8</ele><time>2026-04-06T06:25:05.605Z</time></trkpt><trkpt lat="45.8589955" lon="11.8023343"><ele>1494.4</ele><time>2026-04-06T06:25:06.617Z</time></trkpt><trkpt lat="45.8589411" lon="11.8024585"><ele>1490.0</ele><time>2026-04-06T06:25:07.613Z</time></trkpt><trkpt lat="45.8588933" lon="11.8026246"><ele>1493.5</ele><time>2026-04-06T06:25:08.637Z</time></trkpt><trkpt lat="45.8588377" lon="11.8028051"><ele>1497.0</ele><time>2026-04-06T06:25:09.639Z</time></trkpt><trkpt lat="45.8587786" lon="11.8029739"><ele>1500.5</ele><time>2026-04-06T06:25:10.637Z</time></trkpt><trkpt lat="45.8587193" lon="11.8031306"><ele>1504.0</ele><time>2026-04-06T06:25:11.637Z</time></trkpt><trkpt lat="45.8586554" lon="11.8032737"><ele>1504.0</ele><time>2026-04-06T06:25:12.634Z</time></trkpt><trkpt lat="45.8585886" lon="11.803405"><ele>1504.0</ele><time>2026-04-06T06:25:13.637Z</time></trkpt><trkpt lat="45.8585196" lon="11.8035324"><ele>1504.0</ele><time>2026-04-06T06:25:14.616Z</time></trkpt><trkpt lat="45.8584539" lon="11.8036606"><ele>1504.0</ele><time>2026-04-06T06:25:15.613Z</time></trkpt><trkpt lat="45.858391" lon="11.8037818"><ele>1504.0</ele><time>2026-04-06T06:25:16.62Z</time></trkpt><trkpt lat="45.8583313" lon="11.8038913"><ele>1498.8333333333333</ele><time>2026-04-06T06:25:17.626Z</time></trkpt><trkpt lat="45.8582781" lon="11.8039983"><ele>1493.6666666666665</ele><time>2026-04-06T06:25:18.651Z</time></trkpt><trkpt lat="45.8582235" lon="11.8040878"><ele>1488.5</ele><time>2026-04-06T06:25:19.66Z</time></trkpt><trkpt lat="45.8581625" lon="11.8041373"><ele>1483.3333333333333</ele><time>2026-04-06T06:25:20.636Z</time></trkpt><trkpt lat="45.8580998" lon="11.804164"><ele>1478.1666666666667</ele><time>2026-04-06T06:25:21.642Z</time></trkpt><trkpt lat="45.8580303" lon="11.8041427"><ele>1473.0</ele><time>2026-04-06T06:25:22.628Z</time></trkpt><trkpt lat="45.8579665" lon="11.8040919"><ele>1473.0</ele><time>2026-04-06T06:25:23.612Z</time></trkpt><trkpt lat="45.8579056" lon="11.8040025"><ele>1473.0</ele><time>2026-04-06T06:25:24.638Z</time></trkpt><trkpt lat="45.8578637" lon="11.8039093"><ele>1473.0</ele><time>2026-04-06T06:25:25.616Z</time></trkpt><trkpt lat="45.8578297" lon="11.8038201"><ele>1473.0</ele><time>2026-04-06T06:25:26.621Z</time></trkpt><trkpt lat="45.8577295" lon="11.8037326"><ele>1473.0</ele><time>2026-04-06T06:25:28.623Z</time></trkpt><trkpt lat="45.8576646" lon="11.8037447"><ele>1473.0</ele><time>2026-04-06T06:25:29.612Z</time></trkpt><trkpt lat="45.8575898" lon="11.8038077"><ele>1467.5</ele><time>2026-04-06T06:25:30.608Z</time></trkpt><trkpt lat="45.8575113" lon="11.8039407"><ele>1462.0</ele><time>2026-04-06T06:25:31.604Z</time></trkpt><trkpt lat="45.8574315" lon="11.80409"><ele>1456.5</ele><time>2026-04-06T06:25:32.638Z</time></trkpt><trkpt lat="45.8573498" lon="11.8042212"><ele>1451.0</ele><time>2026-04-06T06:25:33.635Z</time></trkpt><trkpt lat="45.8572626" lon="11.8043256"><ele>1447.0</ele><time>2026-04-06T06:25:34.633Z</time></trkpt><trkpt lat="45.8571681" lon="11.8043906"><ele>1443.0</ele><time>2026-04-06T06:25:35.639Z</time></trkpt><trkpt lat="45.8570731" lon="11.8044285"><ele>1439.0</ele><time>2026-04-06T06:25:36.64Z</time></trkpt><trkpt lat="45.856985" lon="11.8044443"><ele>1435.0</ele><time>2026-04-06T06:25:37.634Z</time></trkpt><trkpt lat="45.8569086" lon="11.8044148"><ele>1431.0</ele><time>2026-04-06T06:25:38.628Z</time></trkpt><trkpt lat="45.8568472" lon="11.8043423"><ele>1428.25</ele><time>2026-04-06T06:25:39.644Z</time></trkpt><trkpt lat="45.8568022" lon="11.8042304"><ele>1425.5</ele><time>2026-04-06T06:25:40.641Z</time></trkpt><trkpt lat="45.8567647" lon="11.804076"><ele>1422.75</ele><time>2026-04-06T06:25:41.644Z</time></trkpt><trkpt lat="45.8567382" lon="11.8038928"><ele>1420.0</ele><time>2026-04-06T06:25:42.617Z</time></trkpt><trkpt lat="45.8567081" lon="11.8037043"><ele>1420.0</ele><time>2026-04-06T06:25:43.613Z</time></trkpt><trkpt lat="45.8566772" lon="11.8035186"><ele>1420.0</ele><time>2026-04-06T06:25:44.623Z</time></trkpt><trkpt lat="45.8566583" lon="11.8033459"><ele>1420.0</ele><time>2026-04-06T06:25:45.619Z</time></trkpt><trkpt lat="45.8566539" lon="11.8031894"><ele>1420.0</ele><time>2026-04-06T06:25:46.612Z</time></trkpt><trkpt lat="45.8566589" lon="11.8030512"><ele>1419.5</ele><time>2026-04-06T06:25:47.624Z</time></trkpt><trkpt lat="45.8566612" lon="11.8029277"><ele>1419.0</ele><time>2026-04-06T06:25:48.614Z</time></trkpt><trkpt lat="45.8566512" lon="11.8028132"><ele>1418.5</ele><time>2026-04-06T06:25:49.616Z</time></trkpt><trkpt lat="45.856626" lon="11.8027028"><ele>1418.0</ele><time>2026-04-06T06:25:50.618Z</time></trkpt><trkpt lat="45.8565837" lon="11.8026191"><ele>1417.5</ele><time>2026-04-06T06:25:51.638Z</time></trkpt><trkpt lat="45.8565272" lon="11.8025607"><ele>1417.0</ele><time>2026-04-06T06:25:52.64Z</time></trkpt><trkpt lat="45.8564602" lon="11.8025231"><ele>1416.6</ele><time>2026-04-06T06:25:53.642Z</time></trkpt><trkpt lat="45.8563944" lon="11.8024925"><ele>1416.1999999999998</ele><time>2026-04-06T06:25:54.614Z</time></trkpt><trkpt lat="45.8563359" lon="11.80245"><ele>1415.8</ele><time>2026-04-06T06:25:55.642Z</time></trkpt><trkpt lat="45.8562883" lon="11.8023875"><ele>1415.4</ele><time>2026-04-06T06:25:56.623Z</time></trkpt><trkpt lat="45.8562397" lon="11.8022141"><ele>1415.0</ele><time>2026-04-06T06:25:58.614Z</time></trkpt><trkpt lat="45.8562383" lon="11.8020292"><ele>1415.0</ele><time>2026-04-06T06:26:00.634Z</time></trkpt><trkpt lat="45.856236" lon="11.8019335"><ele>1415.0</ele><time>2026-04-06T06:26:01.62Z</time></trkpt><trkpt lat="45.8561807" lon="11.8017812"><ele>1415.0</ele><time>2026-04-06T06:26:03.615Z</time></trkpt><trkpt lat="45.8560881" lon="11.8017054"><ele>1415.0</ele><time>2026-04-06T06:26:05.635Z</time></trkpt><trkpt lat="45.8560328" lon="11.8016248"><ele>1415.0</ele><time>2026-04-06T06:26:07.623Z</time></trkpt><trkpt lat="45.856009" lon="11.8015137"><ele>1414.8333333333335</ele><time>2026-04-06T06:26:09.639Z</time></trkpt><trkpt lat="45.8560328" lon="11.8013536"><ele>1414.6666666666667</ele><time>2026-04-06T06:26:11.643Z</time></trkpt><trkpt lat="45.8560491" lon="11.8012626"><ele>1414.5</ele><time>2026-04-06T06:26:12.634Z</time></trkpt><trkpt lat="45.8560448" lon="11.801089"><ele>1414.3333333333333</ele><time>2026-04-06T06:26:14.634Z</time></trkpt><trkpt lat="45.8560064" lon="11.8010097"><ele>1414.1666666666665</ele><time>2026-04-06T06:26:15.634Z</time></trkpt><trkpt lat="45.85595" lon="11.8009249"><ele>1414.0</ele><time>2026-04-06T06:26:16.643Z</time></trkpt><trkpt lat="45.8558834" lon="11.8008246"><ele>1414.0</ele><time>2026-04-06T06:26:17.64Z</time></trkpt><trkpt lat="45.8558035" lon="11.8007109"><ele>1414.0</ele><time>2026-04-06T06:26:18.616Z</time></trkpt><trkpt lat="45.8557116" lon="11.8005809"><ele>1414.0</ele><time>2026-04-06T06:26:19.625Z</time></trkpt><trkpt lat="45.8556151" lon="11.8004538"><ele>1414.0</ele><time>2026-04-06T06:26:20.612Z</time></trkpt><trkpt lat="45.8554915" lon="11.8003234"><ele>1414.0</ele><time>2026-04-06T06:26:21.618Z</time></trkpt><trkpt lat="45.8553646" lon="11.8002057"><ele>1414.0</ele><time>2026-04-06T06:26:22.608Z</time></trkpt><trkpt lat="45.8552322" lon="11.8000937"><ele>1414.0</ele><time>2026-04-06T06:26:23.628Z</time></trkpt><trkpt lat="45.8551054" lon="11.7999912"><ele>1413.25</ele><time>2026-04-06T06:26:24.613Z</time></trkpt><trkpt lat="45.8549869" lon="11.7998933"><ele>1412.5</ele><time>2026-04-06T06:26:25.663Z</time></trkpt><trkpt lat="45.8548856" lon="11.7997958"><ele>1411.75</ele><time>2026-04-06T06:26:26.636Z</time></trkpt><trkpt lat="45.8547961" lon="11.7996841"><ele>1411.0</ele><time>2026-04-06T06:26:27.641Z</time></trkpt><trkpt lat="45.8547134" lon="11.7995527"><ele>1411.0</ele><time>2026-04-06T06:26:28.615Z</time></trkpt><trkpt lat="45.8546324" lon="11.7994021"><ele>1411.0</ele><time>2026-04-06T06:26:29.62Z</time></trkpt><trkpt lat="45.8545571" lon="11.7992378"><ele>1411.0</ele><time>2026-04-06T06:26:30.619Z</time></trkpt><trkpt lat="45.8544898" lon="11.7990716"><ele>1411.0</ele><time>2026-04-06T06:26:31.614Z</time></trkpt><trkpt lat="45.8544354" lon="11.7989141"><ele>1409.8333333333333</ele><time>2026-04-06T06:26:32.614Z</time></trkpt><trkpt lat="45.8543999" lon="11.7987722"><ele>1408.6666666666665</ele><time>2026-04-06T06:26:33.617Z</time></trkpt><trkpt lat="45.8543907" lon="11.7986442"><ele>1407.5</ele><time>2026-04-06T06:26:34.618Z</time></trkpt><trkpt lat="45.8543882" lon="11.7985225"><ele>1406.3333333333333</ele><time>2026-04-06T06:26:35.611Z</time></trkpt><trkpt lat="45.854395" lon="11.7984001"><ele>1405.1666666666667</ele><time>2026-04-06T06:26:36.64Z</time></trkpt><trkpt lat="45.8544415" lon="11.798305"><ele>1404.0</ele><time>2026-04-06T06:26:37.62Z</time></trkpt><trkpt lat="45.8545337" lon="11.7982087"><ele>1404.0</ele><time>2026-04-06T06:26:38.613Z</time></trkpt><trkpt lat="45.8546272" lon="11.7981085"><ele>1404.0</ele><time>2026-04-06T06:26:39.62Z</time></trkpt><trkpt lat="45.8547129" lon="11.7980089"><ele>1404.0</ele><time>2026-04-06T06:26:40.62Z</time></trkpt><trkpt lat="45.8547786" lon="11.7979065"><ele>1404.0</ele><time>2026-04-06T06:26:41.637Z</time></trkpt><trkpt lat="45.8548303" lon="11.7978004"><ele>1404.0</ele><time>2026-04-06T06:26:42.638Z</time></trkpt><trkpt lat="45.8548763" lon="11.7976918"><ele>1401.8333333333333</ele><time>2026-04-06T06:26:43.634Z</time></trkpt><trkpt lat="45.8549202" lon="11.7975868"><ele>1399.6666666666667</ele><time>2026-04-06T06:26:44.638Z</time></trkpt><trkpt lat="45.8549639" lon="11.7974852"><ele>1397.5</ele><time>2026-04-06T06:26:45.644Z</time></trkpt><trkpt lat="45.8549974" lon="11.7973818"><ele>1395.3333333333335</ele><time>2026-04-06T06:26:46.639Z</time></trkpt><trkpt lat="45.855023" lon="11.7972758"><ele>1393.1666666666667</ele><time>2026-04-06T06:26:47.641Z</time></trkpt><trkpt lat="45.855025" lon="11.7971765"><ele>1391.0</ele><time>2026-04-06T06:26:48.643Z</time></trkpt><trkpt lat="45.8550066" lon="11.7970875"><ele>1391.0</ele><time>2026-04-06T06:26:49.644Z</time></trkpt><trkpt lat="45.8549143" lon="11.7969628"><ele>1391.0</ele><time>2026-04-06T06:26:51.635Z</time></trkpt><trkpt lat="45.8548133" lon="11.7969407"><ele>1391.0</ele><time>2026-04-06T06:26:52.643Z</time></trkpt><trkpt lat="45.8546886" lon="11.7969324"><ele>1391.0</ele><time>2026-04-06T06:26:53.637Z</time></trkpt><trkpt lat="45.8545444" lon="11.7969379"><ele>1391.0</ele><time>2026-04-06T06:26:54.641Z</time></trkpt><trkpt lat="45.8544159" lon="11.7969281"><ele>1391.0</ele><time>2026-04-06T06:26:55.643Z</time></trkpt><trkpt lat="45.8542954" lon="11.7969056"><ele>1391.0</ele><time>2026-04-06T06:26:56.638Z</time></trkpt><trkpt lat="45.8541787" lon="11.7968694"><ele>1391.0</ele><time>2026-04-06T06:26:57.633Z</time></trkpt><trkpt lat="45.8540687" lon="11.7968232"><ele>1388.5</ele><time>2026-04-06T06:26:58.609Z</time></trkpt><trkpt lat="45.8539645" lon="11.7967683"><ele>1386.0</ele><time>2026-04-06T06:26:59.636Z</time></trkpt><trkpt lat="45.8538801" lon="11.7967184"><ele>1383.5</ele><time>2026-04-06T06:27:00.63Z</time></trkpt><trkpt lat="45.853815" lon="11.7966707"><ele>1381.0</ele><time>2026-04-06T06:27:01.606Z</time></trkpt><trkpt lat="45.8537259" lon="11.7966328"><ele>1378.5</ele><time>2026-04-06T06:27:03.633Z</time></trkpt><trkpt lat="45.8536909" lon="11.796732"><ele>1376.0</ele><time>2026-04-06T06:27:05.605Z</time></trkpt><trkpt lat="45.8537401" lon="11.7968893"><ele>1375.6</ele><time>2026-04-06T06:27:07.607Z</time></trkpt><trkpt lat="45.8538222" lon="11.7969898"><ele>1375.1999999999998</ele><time>2026-04-06T06:27:08.604Z</time></trkpt><trkpt lat="45.8539123" lon="11.7970866"><ele>1374.8000000000002</ele><time>2026-04-06T06:27:09.617Z</time></trkpt><trkpt lat="45.8539901" lon="11.797175"><ele>1374.4</ele><time>2026-04-06T06:27:10.62Z</time></trkpt><trkpt lat="45.8540511" lon="11.7972512"><ele>1374.0</ele><time>2026-04-06T06:27:11.607Z</time></trkpt><trkpt lat="45.8541014" lon="11.797335"><ele>1374.0</ele><time>2026-04-06T06:27:12.636Z</time></trkpt><trkpt lat="45.8541608" lon="11.7973782"><ele>1374.0</ele><time>2026-04-06T06:27:42.64Z</time></trkpt><trkpt lat="45.8541095" lon="11.7972966"><ele>1374.0</ele><time>2026-04-06T06:28:03.631Z</time></trkpt><trkpt lat="45.8540448" lon="11.7973118"><ele>1374.0</ele><time>2026-04-06T06:28:09.635Z</time></trkpt><trkpt lat="45.8540011" lon="11.7974094"><ele>1374.0</ele><time>2026-04-06T06:28:23.645Z</time></trkpt><trkpt lat="45.8539156" lon="11.7974001"><ele>1374.0</ele><time>2026-04-06T06:28:25.634Z</time></trkpt><trkpt lat="45.8538144" lon="11.7973766"><ele>1374.0</ele><time>2026-04-06T06:28:27.649Z</time></trkpt><trkpt lat="45.8537048" lon="11.797364"><ele>1374.0</ele><time>2026-04-06T06:28:29.632Z</time></trkpt><trkpt lat="45.8535908" lon="11.7972921"><ele>1374.0</ele><time>2026-04-06T06:28:31.647Z</time></trkpt><trkpt lat="45.8535339" lon="11.7972397"><ele>1374.0</ele><time>2026-04-06T06:28:32.635Z</time></trkpt><trkpt lat="45.8534337" lon="11.7971411"><ele>1374.0</ele><time>2026-04-06T06:28:34.643Z</time></trkpt><trkpt lat="45.8533784" lon="11.7970959"><ele>1370.0</ele><time>2026-04-06T06:28:35.646Z</time></trkpt><trkpt lat="45.8533205" lon="11.79706"><ele>1366.0</ele><time>2026-04-06T06:28:36.644Z</time></trkpt><trkpt lat="45.8532334" lon="11.7971068"><ele>1362.0</ele><time>2026-04-06T06:28:38.643Z</time></trkpt><trkpt lat="45.8532296" lon="11.7972744"><ele>1358.0</ele><time>2026-04-06T06:28:40.648Z</time></trkpt><trkpt lat="45.8532423" lon="11.7973813"><ele>1354.0</ele><time>2026-04-06T06:28:41.646Z</time></trkpt><trkpt lat="45.8532566" lon="11.7974889"><ele>1350.0</ele><time>2026-04-06T06:28:42.641Z</time></trkpt><trkpt lat="45.8532577" lon="11.7975979"><ele>1350.1666666666667</ele><time>2026-04-06T06:28:43.646Z</time></trkpt><trkpt lat="45.8532381" lon="11.7976909"><ele>1350.3333333333333</ele><time>2026-04-06T06:28:44.647Z</time></trkpt><trkpt lat="45.8531803" lon="11.7978249"><ele>1350.5</ele><time>2026-04-06T06:28:46.648Z</time></trkpt><trkpt lat="45.853132" lon="11.7979218"><ele>1350.6666666666665</ele><time>2026-04-06T06:28:48.648Z</time></trkpt><trkpt lat="45.8531129" lon="11.7980594"><ele>1350.8333333333333</ele><time>2026-04-06T06:28:50.641Z</time></trkpt><trkpt lat="45.8531186" lon="11.7981748"><ele>1351.0</ele><time>2026-04-06T06:28:52.642Z</time></trkpt><trkpt lat="45.8531526" lon="11.7982571"><ele>1351.0</ele><time>2026-04-06T06:28:54.644Z</time></trkpt><trkpt lat="45.8531744" lon="11.7981595"><ele>1351.0</ele><time>2026-04-06T06:29:17.618Z</time></trkpt><trkpt lat="45.8531327" lon="11.7980333"><ele>1351.0</ele><time>2026-04-06T06:29:20.622Z</time></trkpt><trkpt lat="45.8530911" lon="11.7979062"><ele>1351.0</ele><time>2026-04-06T06:29:22.611Z</time></trkpt><trkpt lat="45.8530167" lon="11.7977936"><ele>1351.0</ele><time>2026-04-06T06:29:24.616Z</time></trkpt><trkpt lat="45.8529606" lon="11.797677"><ele>1350.75</ele><time>2026-04-06T06:29:26.616Z</time></trkpt><trkpt lat="45.8529304" lon="11.7975245"><ele>1350.5</ele><time>2026-04-06T06:29:28.616Z</time></trkpt><trkpt lat="45.8529158" lon="11.7973576"><ele>1350.25</ele><time>2026-04-06T06:29:30.615Z</time></trkpt><trkpt lat="45.8529195" lon="11.7971928"><ele>1350.0</ele><time>2026-04-06T06:29:32.639Z</time></trkpt><trkpt lat="45.8529273" lon="11.7970327"><ele>1350.0</ele><time>2026-04-06T06:29:34.631Z</time></trkpt><trkpt lat="45.8529408" lon="11.796913"><ele>1350.0</ele><time>2026-04-06T06:29:36.615Z</time></trkpt><trkpt lat="45.8529486" lon="11.7967862"><ele>1350.0</ele><time>2026-04-06T06:29:38.647Z</time></trkpt><trkpt lat="45.8529645" lon="11.7966741"><ele>1350.0</ele><time>2026-04-06T06:29:40.627Z</time></trkpt><trkpt lat="45.8529933" lon="11.7965421"><ele>1350.0</ele><time>2026-04-06T06:29:42.63Z</time></trkpt><trkpt lat="45.8530001" lon="11.7964081"><ele>1350.0</ele><time>2026-04-06T06:29:44.619Z</time></trkpt><trkpt lat="45.8530029" lon="11.7962869"><ele>1350.0</ele><time>2026-04-06T06:29:46.626Z</time></trkpt><trkpt lat="45.8529951" lon="11.7961742"><ele>1350.0</ele><time>2026-04-06T06:29:48.621Z</time></trkpt><trkpt lat="45.8530047" lon="11.7960613"><ele>1350.0</ele><time>2026-04-06T06:29:50.623Z</time></trkpt><trkpt lat="45.8530476" lon="11.7959721"><ele>1350.0</ele><time>2026-04-06T06:29:52.624Z</time></trkpt><trkpt lat="45.8530993" lon="11.7958946"><ele>1350.0</ele><time>2026-04-06T06:29:54.615Z</time></trkpt><trkpt lat="45.8531127" lon="11.795782"><ele>1350.0</ele><time>2026-04-06T06:29:56.614Z</time></trkpt><trkpt lat="45.8531076" lon="11.7956492"><ele>1348.8</ele><time>2026-04-06T06:29:58.615Z</time></trkpt><trkpt lat="45.8530943" lon="11.7954708"><ele>1347.6</ele><time>2026-04-06T06:30:00.609Z</time></trkpt><trkpt lat="45.8530924" lon="11.7953585"><ele>1346.4</ele><time>2026-04-06T06:30:01.621Z</time></trkpt><trkpt lat="45.8531059" lon="11.7952497"><ele>1345.2</ele><time>2026-04-06T06:30:02.616Z</time></trkpt><trkpt lat="45.853134" lon="11.7951354"><ele>1344.0</ele><time>2026-04-06T06:30:03.621Z</time></trkpt><trkpt lat="45.8531613" lon="11.7950152"><ele>1342.0</ele><time>2026-04-06T06:30:04.619Z</time></trkpt><trkpt lat="45.8531897" lon="11.7948975"><ele>1340.0</ele><time>2026-04-06T06:30:05.612Z</time></trkpt><trkpt lat="45.8532251" lon="11.7947729"><ele>1338.0</ele><time>2026-04-06T06:30:06.623Z</time></trkpt><trkpt lat="45.8532559" lon="11.7946314"><ele>1336.0</ele><time>2026-04-06T06:30:07.613Z</time></trkpt><trkpt lat="45.8532836" lon="11.794496"><ele>1334.0</ele><time>2026-04-06T06:30:08.63Z</time></trkpt><trkpt lat="45.8533036" lon="11.7943677"><ele>1331.8000000000002</ele><time>2026-04-06T06:30:09.607Z</time></trkpt><trkpt lat="45.8533189" lon="11.7942683"><ele>1329.6000000000001</ele><time>2026-04-06T06:30:10.609Z</time></trkpt><trkpt lat="45.8533472" lon="11.794098"><ele>1327.4</ele><time>2026-04-06T06:30:12.614Z</time></trkpt><trkpt lat="45.8533634" lon="11.7939317"><ele>1325.2</ele><time>2026-04-06T06:30:14.618Z</time></trkpt><trkpt lat="45.8533674" lon="11.7938265"><ele>1323.0</ele><time>2026-04-06T06:30:15.613Z</time></trkpt><trkpt lat="45.8533778" lon="11.7937193"><ele>1323.0</ele><time>2026-04-06T06:30:16.616Z</time></trkpt><trkpt lat="45.8533782" lon="11.7936031"><ele>1323.0</ele><time>2026-04-06T06:30:17.612Z</time></trkpt><trkpt lat="45.8533766" lon="11.7934913"><ele>1323.0</ele><time>2026-04-06T06:30:18.621Z</time></trkpt><trkpt lat="45.8533792" lon="11.7933873"><ele>1323.0</ele><time>2026-04-06T06:30:19.611Z</time></trkpt><trkpt lat="45.8533813" lon="11.7932387"><ele>1323.0</ele><time>2026-04-06T06:30:21.618Z</time></trkpt><trkpt lat="45.853392" lon="11.7931158"><ele>1323.0</ele><time>2026-04-06T06:30:23.616Z</time></trkpt><trkpt lat="45.8534216" lon="11.7930022"><ele>1323.4</ele><time>2026-04-06T06:30:25.619Z</time></trkpt><trkpt lat="45.8534808" lon="11.7929168"><ele>1323.8000000000002</ele><time>2026-04-06T06:30:27.619Z</time></trkpt><trkpt lat="45.8535772" lon="11.7928423"><ele>1324.2</ele><time>2026-04-06T06:30:29.621Z</time></trkpt><trkpt lat="45.8536709" lon="11.7927658"><ele>1324.6</ele><time>2026-04-06T06:30:31.616Z</time></trkpt><trkpt lat="45.8537117" lon="11.7926733"><ele>1325.0</ele><time>2026-04-06T06:30:33.623Z</time></trkpt><trkpt lat="45.8536847" lon="11.7925579"><ele>1323.6</ele><time>2026-04-06T06:30:35.69Z</time></trkpt><trkpt lat="45.8536225" lon="11.7923655"><ele>1322.2</ele><time>2026-04-06T06:30:38.61Z</time></trkpt><trkpt lat="45.8536162" lon="11.7922374"><ele>1320.8000000000002</ele><time>2026-04-06T06:30:40.638Z</time></trkpt><trkpt lat="45.8536238" lon="11.7921196"><ele>1319.4</ele><time>2026-04-06T06:30:42.614Z</time></trkpt><trkpt lat="45.8536915" lon="11.792033"><ele>1318.0</ele><time>2026-04-06T06:30:44.616Z</time></trkpt><trkpt lat="45.85375" lon="11.7919977"><ele>1318.0</ele><time>2026-04-06T06:30:46.61Z</time></trkpt><trkpt lat="45.8538134" lon="11.7920233"><ele>1318.0</ele><time>2026-04-06T06:32:39.643Z</time></trkpt><trkpt lat="45.8538882" lon="11.7919629"><ele>1318.0</ele><time>2026-04-06T06:32:41.626Z</time></trkpt><trkpt lat="45.8539644" lon="11.7919237"><ele>1318.0</ele><time>2026-04-06T06:32:42.62Z</time></trkpt><trkpt lat="45.8540473" lon="11.7918887"><ele>1318.0</ele><time>2026-04-06T06:32:43.626Z</time></trkpt><trkpt lat="45.8541112" lon="11.7918397"><ele>1318.0</ele><time>2026-04-06T06:32:44.618Z</time></trkpt><trkpt lat="45.8541699" lon="11.791784"><ele>1316.4</ele><time>2026-04-06T06:32:45.62Z</time></trkpt><trkpt lat="45.8542746" lon="11.7917059"><ele>1314.8000000000002</ele><time>2026-04-06T06:32:47.645Z</time></trkpt><trkpt lat="45.8543872" lon="11.7916775"><ele>1313.2</ele><time>2026-04-06T06:32:49.619Z</time></trkpt><trkpt lat="45.8544581" lon="11.791727"><ele>1311.6</ele><time>2026-04-06T06:32:51.641Z</time></trkpt><trkpt lat="45.854521" lon="11.7918249"><ele>1310.0</ele><time>2026-04-06T06:32:54.647Z</time></trkpt><trkpt lat="45.8545711" lon="11.7919154"><ele>1310.0</ele><time>2026-04-06T06:32:56.647Z</time></trkpt><trkpt lat="45.8546393" lon="11.7919682"><ele>1310.0</ele><time>2026-04-06T06:32:58.652Z</time></trkpt><trkpt lat="45.854715" lon="11.791998"><ele>1310.0</ele><time>2026-04-06T06:33:00.639Z</time></trkpt><trkpt lat="45.8547888" lon="11.7920336"><ele>1310.0</ele><time>2026-04-06T06:33:02.619Z</time></trkpt><trkpt lat="45.8548446" lon="11.7920765"><ele>1310.0</ele><time>2026-04-06T06:33:04.619Z</time></trkpt><trkpt lat="45.8548941" lon="11.7922293"><ele>1310.0</ele><time>2026-04-06T06:33:07.641Z</time></trkpt><trkpt lat="45.8549422" lon="11.7924329"><ele>1310.0</ele><time>2026-04-06T06:33:10.64Z</time></trkpt><trkpt lat="45.8549348" lon="11.7925292"><ele>1310.0</ele><time>2026-04-06T06:33:12.639Z</time></trkpt><trkpt lat="45.8548856" lon="11.7926091"><ele>1310.0</ele><time>2026-04-06T06:33:14.963Z</time></trkpt><trkpt lat="45.8548434" lon="11.7926903"><ele>1310.0</ele><time>2026-04-06T06:33:16.616Z</time></trkpt><trkpt lat="45.8548363" lon="11.7928429"><ele>1310.0</ele><time>2026-04-06T06:33:19.666Z</time></trkpt><trkpt lat="45.8547976" lon="11.7929304"><ele>1310.0</ele><time>2026-04-06T06:33:21.639Z</time></trkpt><trkpt lat="45.8547314" lon="11.793004"><ele>1312.6</ele><time>2026-04-06T06:33:23.639Z</time></trkpt><trkpt lat="45.854652" lon="11.7930779"><ele>1315.2</ele><time>2026-04-06T06:33:25.64Z</time></trkpt><trkpt lat="45.85458" lon="11.7931693"><ele>1317.8000000000002</ele><time>2026-04-06T06:33:27.646Z</time></trkpt><trkpt lat="45.8545266" lon="11.7932603"><ele>1320.4</ele><time>2026-04-06T06:33:29.647Z</time></trkpt><trkpt lat="45.8544256" lon="11.7933619"><ele>1323.0</ele><time>2026-04-06T06:33:31.651Z</time></trkpt><trkpt lat="45.8543285" lon="11.7934207"><ele>1323.3333333333333</ele><time>2026-04-06T06:33:33.649Z</time></trkpt><trkpt lat="45.8542335" lon="11.7933931"><ele>1323.6666666666667</ele><time>2026-04-06T06:33:36.885Z</time></trkpt><trkpt lat="45.8541591" lon="11.7933423"><ele>1324.0</ele><time>2026-04-06T06:33:44.623Z</time></trkpt><trkpt lat="45.8540972" lon="11.7933195"><ele>1324.3333333333335</ele><time>2026-04-06T06:33:47.626Z</time></trkpt><trkpt lat="45.8541673" lon="11.7933245"><ele>1324.6666666666667</ele><time>2026-04-06T06:34:05.644Z</time></trkpt><trkpt lat="45.8542085" lon="11.7934169"><ele>1325.0</ele><time>2026-04-06T06:34:07.649Z</time></trkpt><trkpt lat="45.8542478" lon="11.7935607"><ele>1327.8333333333335</ele><time>2026-04-06T06:34:09.647Z</time></trkpt><trkpt lat="45.8542729" lon="11.7936916"><ele>1330.6666666666667</ele><time>2026-04-06T06:34:11.647Z</time></trkpt><trkpt lat="45.8543" lon="11.7938121"><ele>1333.5</ele><time>2026-04-06T06:34:13.639Z</time></trkpt><trkpt lat="45.8543342" lon="11.7938939"><ele>1336.3333333333333</ele><time>2026-04-06T06:34:15.646Z</time></trkpt><trkpt lat="45.8543955" lon="11.7939484"><ele>1339.1666666666665</ele><time>2026-04-06T06:35:44.656Z</time></trkpt><trkpt lat="45.8543881" lon="11.7940436"><ele>1342.0</ele><time>2026-04-06T06:35:50.639Z</time></trkpt><trkpt lat="45.8543718" lon="11.7941333"><ele>1342.0</ele><time>2026-04-06T06:36:49.613Z</time></trkpt><trkpt lat="45.8543571" lon="11.7942293"><ele>1342.0</ele><time>2026-04-06T06:37:03.613Z</time></trkpt><trkpt lat="45.8542862" lon="11.7941986"><ele>1342.0</ele><time>2026-04-06T06:37:13.632Z</time></trkpt><trkpt lat="45.8542351" lon="11.7941083"><ele>1342.0</ele><time>2026-04-06T06:37:17.615Z</time></trkpt><trkpt lat="45.8541948" lon="11.7940308"><ele>1342.0</ele><time>2026-04-06T06:37:20.619Z</time></trkpt><trkpt lat="45.8541741" lon="11.7939358"><ele>1342.0</ele><time>2026-04-06T06:37:23.625Z</time></trkpt><trkpt lat="45.8541084" lon="11.793868"><ele>1342.0</ele><time>2026-04-06T06:37:26.618Z</time></trkpt><trkpt lat="45.8541029" lon="11.7937519"><ele>1342.0</ele><time>2026-04-06T06:37:30.622Z</time></trkpt><trkpt lat="45.8541759" lon="11.7937498"><ele>1342.0</ele><time>2026-04-06T06:37:33.62Z</time></trkpt><trkpt lat="45.8542685" lon="11.7937927"><ele>1342.0</ele><time>2026-04-06T06:37:37.622Z</time></trkpt><trkpt lat="45.8543648" lon="11.7938225"><ele>1342.0</ele><time>2026-04-06T06:37:39.626Z</time></trkpt><trkpt lat="45.8544866" lon="11.7938234"><ele>1342.0</ele><time>2026-04-06T06:37:41.614Z</time></trkpt><trkpt lat="45.8545647" lon="11.7937862"><ele>1342.2857142857142</ele><time>2026-04-06T06:37:43.615Z</time></trkpt><trkpt lat="45.8546314" lon="11.7937249"><ele>1342.5714285714287</ele><time>2026-04-06T06:37:45.621Z</time></trkpt><trkpt lat="45.8546664" lon="11.7936126"><ele>1342.857142857143</ele><time>2026-04-06T06:37:50.618Z</time></trkpt><trkpt lat="45.8546744" lon="11.7935144"><ele>1343.142857142857</ele><time>2026-04-06T06:37:52.624Z</time></trkpt><trkpt lat="45.8546761" lon="11.7934225"><ele>1343.4285714285716</ele><time>2026-04-06T06:37:54.621Z</time></trkpt><trkpt lat="45.8546616" lon="11.7933316"><ele>1343.7142857142858</ele><time>2026-04-06T06:37:56.621Z</time></trkpt><trkpt lat="45.8546626" lon="11.7932141"><ele>1344.0</ele><time>2026-04-06T06:37:58.62Z</time></trkpt><trkpt lat="45.8547063" lon="11.7930386"><ele>1340.5</ele><time>2026-04-06T06:38:00.647Z</time></trkpt><trkpt lat="45.8547446" lon="11.7929472"><ele>1337.0</ele><time>2026-04-06T06:38:01.645Z</time></trkpt><trkpt lat="45.8547771" lon="11.7928576"><ele>1333.5</ele><time>2026-04-06T06:38:02.61Z</time></trkpt><trkpt lat="45.8548099" lon="11.792764"><ele>1330.0</ele><time>2026-04-06T06:38:03.624Z</time></trkpt><trkpt lat="45.854838" lon="11.7926809"><ele>1326.5</ele><time>2026-04-06T06:38:04.645Z</time></trkpt><trkpt lat="45.8548864" lon="11.7925148"><ele>1323.0</ele><time>2026-04-06T06:38:06.646Z</time></trkpt><trkpt lat="45.8549027" lon="11.7924219"><ele>1320.8333333333333</ele><time>2026-04-06T06:38:07.616Z</time></trkpt><trkpt lat="45.8549048" lon="11.7923233"><ele>1318.6666666666667</ele><time>2026-04-06T06:38:08.632Z</time></trkpt><trkpt lat="45.8548481" lon="11.7921747"><ele>1316.5</ele><time>2026-04-06T06:38:10.619Z</time></trkpt><trkpt lat="45.8548704" lon="11.7920861"><ele>1314.3333333333335</ele><time>2026-04-06T06:38:17.646Z</time></trkpt><trkpt lat="45.8549348" lon="11.7921012"><ele>1312.1666666666667</ele><time>2026-04-06T06:38:20.62Z</time></trkpt><trkpt lat="45.855022" lon="11.7921133"><ele>1310.0</ele><time>2026-04-06T06:38:23.616Z</time></trkpt><trkpt lat="45.8551029" lon="11.7921359"><ele>1311.2857142857142</ele><time>2026-04-06T06:38:26.622Z</time></trkpt><trkpt lat="45.8551644" lon="11.7921629"><ele>1312.5714285714284</ele><time>2026-04-06T06:38:28.617Z</time></trkpt><trkpt lat="45.8552396" lon="11.7921785"><ele>1313.8571428571427</ele><time>2026-04-06T06:38:30.647Z</time></trkpt><trkpt lat="45.8553207" lon="11.7922338"><ele>1315.142857142857</ele><time>2026-04-06T06:38:33.637Z</time></trkpt><trkpt lat="45.8553575" lon="11.7923289"><ele>1316.4285714285713</ele><time>2026-04-06T06:38:36.642Z</time></trkpt><trkpt lat="45.8553413" lon="11.7924231"><ele>1317.7142857142856</ele><time>2026-04-06T06:38:38.646Z</time></trkpt><trkpt lat="45.8553298" lon="11.7925301"><ele>1319.0</ele><time>2026-04-06T06:38:40.646Z</time></trkpt><trkpt lat="45.8553656" lon="11.7926755"><ele>1319.6666666666667</ele><time>2026-04-06T06:38:42.643Z</time></trkpt><trkpt lat="45.855382" lon="11.7927779"><ele>1320.3333333333335</ele><time>2026-04-06T06:38:43.636Z</time></trkpt><trkpt lat="45.855401" lon="11.7928832"><ele>1321.0</ele><time>2026-04-06T06:38:44.649Z</time></trkpt><trkpt lat="45.8554252" lon="11.7929979"><ele>1321.6666666666667</ele><time>2026-04-06T06:38:45.636Z</time></trkpt><trkpt lat="45.8554567" lon="11.793113"><ele>1322.3333333333333</ele><time>2026-04-06T06:38:46.641Z</time></trkpt><trkpt lat="45.8554818" lon="11.7932527"><ele>1323.0</ele><time>2026-04-06T06:38:48.629Z</time></trkpt><trkpt lat="45.8554991" lon="11.79335"><ele>1323.0</ele><time>2026-04-06T06:38:55.638Z</time></trkpt><trkpt lat="45.8555192" lon="11.7934625"><ele>1323.0</ele><time>2026-04-06T06:39:02.635Z</time></trkpt><trkpt lat="45.8555364" lon="11.7935635"><ele>1323.0</ele><time>2026-04-06T06:39:05.642Z</time></trkpt><trkpt lat="45.855631" lon="11.7935863"><ele>1323.0</ele><time>2026-04-06T06:39:09.611Z</time></trkpt><trkpt lat="45.8557073" lon="11.793514"><ele>1323.0</ele><time>2026-04-06T06:39:11.611Z</time></trkpt><trkpt lat="45.855771" lon="11.7934613"><ele>1323.0</ele><time>2026-04-06T06:39:19.619Z</time></trkpt><trkpt lat="45.8558621" lon="11.7934479"><ele>1323.0</ele><time>2026-04-06T06:39:24.617Z</time></trkpt><trkpt lat="45.8559371" lon="11.7934541"><ele>1323.0</ele><time>2026-04-06T06:39:27.619Z</time></trkpt><trkpt lat="45.8560097" lon="11.7934443"><ele>1323.0</ele><time>2026-04-06T06:39:29.643Z</time></trkpt><trkpt lat="45.8560792" lon="11.7934218"><ele>1323.0</ele><time>2026-04-06T06:39:38.614Z</time></trkpt><trkpt lat="45.8561054" lon="11.7933039"><ele>1323.0</ele><time>2026-04-06T06:39:55.634Z</time></trkpt><trkpt lat="45.8561359" lon="11.7931752"><ele>1323.0</ele><time>2026-04-06T06:39:58.613Z</time></trkpt><trkpt lat="45.8562089" lon="11.7931208"><ele>1325.0</ele><time>2026-04-06T06:40:01.64Z</time></trkpt><trkpt lat="45.8562595" lon="11.7931759"><ele>1327.0</ele><time>2026-04-06T06:40:04.637Z</time></trkpt><trkpt lat="45.8563149" lon="11.79327"><ele>1329.0</ele><time>2026-04-06T06:40:06.638Z</time></trkpt><trkpt lat="45.8563659" lon="11.7933739"><ele>1331.0</ele><time>2026-04-06T06:40:08.61Z</time></trkpt><trkpt lat="45.8564151" lon="11.7934405"><ele>1333.0</ele><time>2026-04-06T06:40:31.645Z</time></trkpt><trkpt lat="45.8564723" lon="11.7934864"><ele>1335.0</ele><time>2026-04-06T06:41:20.616Z</time></trkpt><trkpt lat="45.8565418" lon="11.7934575"><ele>1337.0</ele><time>2026-04-06T06:42:06.636Z</time></trkpt><trkpt lat="45.8565118" lon="11.7933543"><ele>1337.0</ele><time>2026-04-06T06:43:02.62Z</time></trkpt><trkpt lat="45.856442" lon="11.7932729"><ele>1337.0</ele><time>2026-04-06T06:43:04.626Z</time></trkpt><trkpt lat="45.856377" lon="11.7932479"><ele>1337.0</ele><time>2026-04-06T06:43:06.622Z</time></trkpt><trkpt lat="45.8562861" lon="11.7932465"><ele>1337.0</ele><time>2026-04-06T06:43:09.645Z</time></trkpt><trkpt lat="45.8562096" lon="11.7931995"><ele>1337.0</ele><time>2026-04-06T06:43:11.643Z</time></trkpt><trkpt lat="45.8561527" lon="11.7931527"><ele>1337.0</ele><time>2026-04-06T06:43:13.645Z</time></trkpt><trkpt lat="45.8560818" lon="11.7931222"><ele>1337.0</ele><time>2026-04-06T06:43:24.617Z</time></trkpt><trkpt lat="45.8560045" lon="11.7931363"><ele>1337.0</ele><time>2026-04-06T06:43:28.642Z</time></trkpt><trkpt lat="45.8559259" lon="11.793164"><ele>1337.0</ele><time>2026-04-06T06:43:30.621Z</time></trkpt><trkpt lat="45.8558399" lon="11.7932013"><ele>1337.0</ele><time>2026-04-06T06:43:32.649Z</time></trkpt><trkpt lat="45.8557517" lon="11.7932383"><ele>1337.0</ele><time>2026-04-06T06:43:34.643Z</time></trkpt><trkpt lat="45.8556555" lon="11.7932754"><ele>1337.0</ele><time>2026-04-06T06:43:36.646Z</time></trkpt><trkpt lat="45.8555787" lon="11.7933131"><ele>1334.6666666666667</ele><time>2026-04-06T06:43:39.647Z</time></trkpt><trkpt lat="45.8555386" lon="11.7932414"><ele>1332.3333333333335</ele><time>2026-04-06T06:43:43.644Z</time></trkpt><trkpt lat="45.8555029" lon="11.793127"><ele>1330.0</ele><time>2026-04-06T06:43:45.627Z</time></trkpt><trkpt lat="45.8554514" lon="11.7929938"><ele>1327.6666666666667</ele><time>2026-04-06T06:43:47.634Z</time></trkpt><trkpt lat="45.855414" lon="11.7928416"><ele>1325.3333333333333</ele><time>2026-04-06T06:43:49.634Z</time></trkpt><trkpt lat="45.855387" lon="11.7927467"><ele>1323.0</ele><time>2026-04-06T06:43:50.618Z</time></trkpt><trkpt lat="45.8553623" lon="11.7926442"><ele>1322.2</ele><time>2026-04-06T06:43:51.629Z</time></trkpt><trkpt lat="45.8553409" lon="11.7925376"><ele>1321.4</ele><time>2026-04-06T06:43:52.632Z</time></trkpt><trkpt lat="45.8553342" lon="11.7924003"><ele>1320.6000000000001</ele><time>2026-04-06T06:43:54.622Z</time></trkpt><trkpt lat="45.8553757" lon="11.7922608"><ele>1319.8000000000002</ele><time>2026-04-06T06:43:57.654Z</time></trkpt><trkpt lat="45.8554129" lon="11.7921357"><ele>1319.0</ele><time>2026-04-06T06:43:59.658Z</time></trkpt><trkpt lat="45.855399" lon="11.7920169"><ele>1319.0</ele><time>2026-04-06T06:44:01.653Z</time></trkpt><trkpt lat="45.8553331" lon="11.7919236"><ele>1319.0</ele><time>2026-04-06T06:44:03.62Z</time></trkpt><trkpt lat="45.8552421" lon="11.7918067"><ele>1319.0</ele><time>2026-04-06T06:44:05.632Z</time></trkpt><trkpt lat="45.8551935" lon="11.7917398"><ele>1319.0</ele><time>2026-04-06T06:44:06.621Z</time></trkpt><trkpt lat="45.8551097" lon="11.7915715"><ele>1319.0</ele><time>2026-04-06T06:44:09.626Z</time></trkpt><trkpt lat="45.855064" lon="11.7914757"><ele>1316.6666666666667</ele><time>2026-04-06T06:44:11.624Z</time></trkpt><trkpt lat="45.8550196" lon="11.7913772"><ele>1314.3333333333335</ele><time>2026-04-06T06:44:13.64Z</time></trkpt><trkpt lat="45.8549678" lon="11.7912801"><ele>1312.0</ele><time>2026-04-06T06:44:15.626Z</time></trkpt><trkpt lat="45.8549356" lon="11.7911974"><ele>1309.6666666666667</ele><time>2026-04-06T06:44:17.632Z</time></trkpt><trkpt lat="45.8548763" lon="11.7911235"><ele>1307.3333333333333</ele><time>2026-04-06T06:44:20.617Z</time></trkpt><trkpt lat="45.8548128" lon="11.7910565"><ele>1305.0</ele><time>2026-04-06T06:44:23.634Z</time></trkpt><trkpt lat="45.8547681" lon="11.7909881"><ele>1305.0</ele><time>2026-04-06T06:44:26.632Z</time></trkpt><trkpt lat="45.8547372" lon="11.7908894"><ele>1305.0</ele><time>2026-04-06T06:44:29.63Z</time></trkpt><trkpt lat="45.8546903" lon="11.7908019"><ele>1305.0</ele><time>2026-04-06T06:44:32.621Z</time></trkpt><trkpt lat="45.8546654" lon="11.7906939"><ele>1305.0</ele><time>2026-04-06T06:44:36.645Z</time></trkpt><trkpt lat="45.854669" lon="11.7907895"><ele>1305.0</ele><time>2026-04-06T06:44:48.642Z</time></trkpt><trkpt lat="45.8547192" lon="11.7909125"><ele>1305.0</ele><time>2026-04-06T06:44:50.64Z</time></trkpt><trkpt lat="45.8547561" lon="11.7910272"><ele>1305.0</ele><time>2026-04-06T06:44:52.633Z</time></trkpt><trkpt lat="45.8548068" lon="11.7911268"><ele>1305.0</ele><time>2026-04-06T06:44:58.647Z</time></trkpt><trkpt lat="45.8548596" lon="11.791218"><ele>1305.0</ele><time>2026-04-06T06:45:00.638Z</time></trkpt><trkpt lat="45.8549084" lon="11.7913408"><ele>1305.0</ele><time>2026-04-06T06:45:02.642Z</time></trkpt><trkpt lat="45.8549528" lon="11.7914738"><ele>1305.0</ele><time>2026-04-06T06:45:04.636Z</time></trkpt><trkpt lat="45.8550183" lon="11.7916139"><ele>1305.0</ele><time>2026-04-06T06:45:07.647Z</time></trkpt><trkpt lat="45.8550707" lon="11.7916964"><ele>1305.0</ele><time>2026-04-06T06:45:09.636Z</time></trkpt><trkpt lat="45.8551193" lon="11.7917846"><ele>1305.0</ele><time>2026-04-06T06:45:11.646Z</time></trkpt><trkpt lat="45.8551687" lon="11.7918919"><ele>1305.0</ele><time>2026-04-06T06:45:13.644Z</time></trkpt><trkpt lat="45.8552278" lon="11.7919904"><ele>1305.0</ele><time>2026-04-06T06:45:15.636Z</time></trkpt><trkpt lat="45.8552796" lon="11.7920961"><ele>1305.0</ele><time>2026-04-06T06:45:17.642Z</time></trkpt><trkpt lat="45.8553159" lon="11.792202"><ele>1305.8333333333333</ele><time>2026-04-06T06:45:19.637Z</time></trkpt><trkpt lat="45.8552404" lon="11.7921662"><ele>1306.6666666666667</ele><time>2026-04-06T06:45:29.653Z</time></trkpt><trkpt lat="45.8551583" lon="11.7921292"><ele>1307.5</ele><time>2026-04-06T06:45:32.635Z</time></trkpt><trkpt lat="45.8550846" lon="11.7920977"><ele>1308.3333333333335</ele><time>2026-04-06T06:45:34.638Z</time></trkpt><trkpt lat="45.8550098" lon="11.7920696"><ele>1309.1666666666667</ele><time>2026-04-06T06:45:36.638Z</time></trkpt><trkpt lat="45.8549262" lon="11.7920592"><ele>1310.0</ele><time>2026-04-06T06:45:43.621Z</time></trkpt><trkpt lat="45.854907" lon="11.7919419"><ele>1310.0</ele><time>2026-04-06T06:46:40.639Z</time></trkpt><trkpt lat="45.8548638" lon="11.7918734"><ele>1310.0</ele><time>2026-04-06T06:46:43.614Z</time></trkpt><trkpt lat="45.8547868" lon="11.791868"><ele>1310.0</ele><time>2026-04-06T06:46:47.622Z</time></trkpt><trkpt lat="45.8546982" lon="11.7918692"><ele>1310.0</ele><time>2026-04-06T06:46:49.616Z</time></trkpt><trkpt lat="45.8546058" lon="11.7918513"><ele>1310.0</ele><time>2026-04-06T06:46:52.628Z</time></trkpt><trkpt lat="45.8545183" lon="11.7918615"><ele>1310.0</ele><time>2026-04-06T06:47:34.62Z</time></trkpt><trkpt lat="45.8546086" lon="11.7918987"><ele>1310.0</ele><time>2026-04-06T06:47:54.645Z</time></trkpt><trkpt lat="45.8546029" lon="11.7918044"><ele>1310.0</ele><time>2026-04-06T06:47:57.611Z</time></trkpt><trkpt lat="45.8546161" lon="11.7919153"><ele>1310.0</ele><time>2026-04-06T06:48:07.642Z</time></trkpt><trkpt lat="45.8546573" lon="11.792018"><ele>1310.0</ele><time>2026-04-06T06:48:10.64Z</time></trkpt><trkpt lat="45.8546618" lon="11.7921262"><ele>1310.0</ele><time>2026-04-06T06:48:13.612Z</time></trkpt><trkpt lat="45.854594" lon="11.7921852"><ele>1310.0</ele><time>2026-04-06T06:48:17.777Z</time></trkpt><trkpt lat="45.8544799" lon="11.7921242"><ele>1310.0</ele><time>2026-04-06T06:48:20.637Z</time></trkpt><trkpt lat="45.8544403" lon="11.7920527"><ele>1310.0</ele><time>2026-04-06T06:48:21.641Z</time></trkpt><trkpt lat="45.8543851" lon="11.7919517"><ele>1310.0</ele><time>2026-04-06T06:48:23.613Z</time></trkpt><trkpt lat="45.854317" lon="11.7919099"><ele>1310.0</ele><time>2026-04-06T06:48:25.62Z</time></trkpt><trkpt lat="45.8542245" lon="11.791903"><ele>1310.0</ele><time>2026-04-06T06:48:27.616Z</time></trkpt><trkpt lat="45.8541115" lon="11.7919908"><ele>1310.0</ele><time>2026-04-06T06:48:29.634Z</time></trkpt><trkpt lat="45.8540542" lon="11.7920575"><ele>1311.6</ele><time>2026-04-06T06:48:30.632Z</time></trkpt><trkpt lat="45.8539996" lon="11.7921061"><ele>1313.2</ele><time>2026-04-06T06:48:31.644Z</time></trkpt><trkpt lat="45.8539365" lon="11.7921496"><ele>1314.8000000000002</ele><time>2026-04-06T06:48:32.634Z</time></trkpt><trkpt lat="45.8538699" lon="11.792182"><ele>1316.4</ele><time>2026-04-06T06:48:33.633Z</time></trkpt><trkpt lat="45.8538035" lon="11.7922115"><ele>1318.0</ele><time>2026-04-06T06:48:34.632Z</time></trkpt><trkpt lat="45.8536325" lon="11.7922858"><ele>1318.0</ele><time>2026-04-06T06:48:37.628Z</time></trkpt><trkpt lat="45.8535495" lon="11.7923766"><ele>1318.0</ele><time>2026-04-06T06:48:39.635Z</time></trkpt><trkpt lat="45.8535175" lon="11.792515"><ele>1318.0</ele><time>2026-04-06T06:48:41.603Z</time></trkpt><trkpt lat="45.8535427" lon="11.7927177"><ele>1318.0</ele><time>2026-04-06T06:48:43.64Z</time></trkpt><trkpt lat="45.8535771" lon="11.7928284"><ele>1318.0</ele><time>2026-04-06T06:48:44.61Z</time></trkpt><trkpt lat="45.8536107" lon="11.7929287"><ele>1317.8333333333333</ele><time>2026-04-06T06:48:45.615Z</time></trkpt><trkpt lat="45.8536344" lon="11.7930174"><ele>1317.6666666666665</ele><time>2026-04-06T06:48:46.611Z</time></trkpt><trkpt lat="45.8536167" lon="11.7931407"><ele>1317.5</ele><time>2026-04-06T06:48:48.633Z</time></trkpt><trkpt lat="45.8535328" lon="11.7932118"><ele>1317.3333333333333</ele><time>2026-04-06T06:48:50.614Z</time></trkpt><trkpt lat="45.8534481" lon="11.7932943"><ele>1317.1666666666667</ele><time>2026-04-06T06:48:52.611Z</time></trkpt><trkpt lat="45.8533779" lon="11.7932569"><ele>1317.0</ele><time>2026-04-06T06:48:57.612Z</time></trkpt><trkpt lat="45.8533425" lon="11.7931748"><ele>1317.0</ele><time>2026-04-06T06:48:59.611Z</time></trkpt><trkpt lat="45.8533093" lon="11.7930427"><ele>1317.0</ele><time>2026-04-06T06:49:01.615Z</time></trkpt><trkpt lat="45.8532561" lon="11.7928867"><ele>1317.0</ele><time>2026-04-06T06:49:03.617Z</time></trkpt><trkpt lat="45.8532065" lon="11.7927387"><ele>1317.0</ele><time>2026-04-06T06:49:05.625Z</time></trkpt><trkpt lat="45.8531845" lon="11.7926016"><ele>1317.0</ele><time>2026-04-06T06:49:07.622Z</time></trkpt><trkpt lat="45.8531974" lon="11.7924572"><ele>1316.3999999999999</ele><time>2026-04-06T06:49:09.645Z</time></trkpt><trkpt lat="45.853232" lon="11.7923146"><ele>1315.8</ele><time>2026-04-06T06:49:11.635Z</time></trkpt><trkpt lat="45.8532517" lon="11.7921899"><ele>1315.2</ele><time>2026-04-06T06:49:13.644Z</time></trkpt><trkpt lat="45.8532667" lon="11.7920658"><ele>1314.6</ele><time>2026-04-06T06:49:15.617Z</time></trkpt><trkpt lat="45.8532992" lon="11.791919"><ele>1314.0</ele><time>2026-04-06T06:49:17.614Z</time></trkpt><trkpt lat="45.8533392" lon="11.7917551"><ele>1312.4</ele><time>2026-04-06T06:49:19.625Z</time></trkpt><trkpt lat="45.8533745" lon="11.7916137"><ele>1310.8000000000002</ele><time>2026-04-06T06:49:21.615Z</time></trkpt><trkpt lat="45.8533943" lon="11.7914501"><ele>1309.1999999999998</ele><time>2026-04-06T06:49:23.616Z</time></trkpt><trkpt lat="45.8533973" lon="11.7913337"><ele>1307.6</ele><time>2026-04-06T06:49:24.619Z</time></trkpt><trkpt lat="45.8533832" lon="11.791196"><ele>1306.0</ele><time>2026-04-06T06:49:25.614Z</time></trkpt><trkpt lat="45.8533621" lon="11.7910414"><ele>1305.4</ele><time>2026-04-06T06:49:26.617Z</time></trkpt><trkpt lat="45.8533282" lon="11.7909043"><ele>1304.8</ele><time>2026-04-06T06:49:27.614Z</time></trkpt><trkpt lat="45.8532971" lon="11.7907966"><ele>1304.2</ele><time>2026-04-06T06:49:28.612Z</time></trkpt><trkpt lat="45.8532716" lon="11.7907051"><ele>1303.6000000000001</ele><time>2026-04-06T06:49:29.626Z</time></trkpt><trkpt lat="45.8532325" lon="11.7905412"><ele>1303.0</ele><time>2026-04-06T06:49:31.634Z</time></trkpt><trkpt lat="45.8532152" lon="11.7904267"><ele>1303.0</ele><time>2026-04-06T06:49:33.617Z</time></trkpt><trkpt lat="45.8532629" lon="11.7903156"><ele>1303.0</ele><time>2026-04-06T06:49:36.638Z</time></trkpt><trkpt lat="45.8533305" lon="11.7902452"><ele>1303.0</ele><time>2026-04-06T06:49:38.636Z</time></trkpt><trkpt lat="45.8534113" lon="11.7901347"><ele>1303.0</ele><time>2026-04-06T06:49:40.619Z</time></trkpt><trkpt lat="45.8534736" lon="11.7900038"><ele>1303.0</ele><time>2026-04-06T06:49:42.64Z</time></trkpt><trkpt lat="45.8535319" lon="11.7898931"><ele>1301.5</ele><time>2026-04-06T06:49:44.614Z</time></trkpt><trkpt lat="45.8535983" lon="11.7898171"><ele>1300.0</ele><time>2026-04-06T06:49:46.639Z</time></trkpt><trkpt lat="45.8536767" lon="11.7897469"><ele>1298.5</ele><time>2026-04-06T06:49:48.615Z</time></trkpt><trkpt lat="45.8537604" lon="11.7896857"><ele>1297.0</ele><time>2026-04-06T06:49:50.625Z</time></trkpt><trkpt lat="45.8538339" lon="11.7896293"><ele>1295.5</ele><time>2026-04-06T06:49:52.633Z</time></trkpt><trkpt lat="45.8539063" lon="11.7895643"><ele>1294.0</ele><time>2026-04-06T06:49:54.608Z</time></trkpt><trkpt lat="45.8539762" lon="11.7894804"><ele>1294.0</ele><time>2026-04-06T06:49:56.612Z</time></trkpt><trkpt lat="45.8540198" lon="11.7893912"><ele>1294.0</ele><time>2026-04-06T06:49:58.602Z</time></trkpt><trkpt lat="45.8540333" lon="11.789245"><ele>1294.0</ele><time>2026-04-06T06:50:00.604Z</time></trkpt><trkpt lat="45.8540542" lon="11.7890918"><ele>1294.0</ele><time>2026-04-06T06:50:02.608Z</time></trkpt><trkpt lat="45.8540836" lon="11.7889644"><ele>1294.0</ele><time>2026-04-06T06:50:04.607Z</time></trkpt><trkpt lat="45.8541027" lon="11.7888095"><ele>1292.7142857142858</ele><time>2026-04-06T06:50:06.615Z</time></trkpt><trkpt lat="45.8541026" lon="11.7886909"><ele>1291.4285714285716</ele><time>2026-04-06T06:50:07.6Z</time></trkpt><trkpt lat="45.8541059" lon="11.7885802"><ele>1290.1428571428573</ele><time>2026-04-06T06:50:08.613Z</time></trkpt><trkpt lat="45.8541061" lon="11.7884767"><ele>1288.857142857143</ele><time>2026-04-06T06:50:09.611Z</time></trkpt><trkpt lat="45.8541023" lon="11.7883774"><ele>1287.5714285714287</ele><time>2026-04-06T06:50:10.607Z</time></trkpt><trkpt lat="45.8540899" lon="11.7882743"><ele>1286.2857142857144</ele><time>2026-04-06T06:50:11.607Z</time></trkpt><trkpt lat="45.8540662" lon="11.7881732"><ele>1285.0</ele><time>2026-04-06T06:50:12.61Z</time></trkpt><trkpt lat="45.8540249" lon="11.7880833"><ele>1283.8333333333333</ele><time>2026-04-06T06:50:13.614Z</time></trkpt><trkpt lat="45.8539716" lon="11.7879966"><ele>1282.6666666666665</ele><time>2026-04-06T06:50:14.613Z</time></trkpt><trkpt lat="45.8539215" lon="11.7878933"><ele>1281.5</ele><time>2026-04-06T06:50:15.614Z</time></trkpt><trkpt lat="45.8538822" lon="11.7877802"><ele>1280.3333333333333</ele><time>2026-04-06T06:50:16.601Z</time></trkpt><trkpt lat="45.8538562" lon="11.7876604"><ele>1279.1666666666667</ele><time>2026-04-06T06:50:17.639Z</time></trkpt><trkpt lat="45.8538414" lon="11.7875446"><ele>1278.0</ele><time>2026-04-06T06:50:18.601Z</time></trkpt><trkpt lat="45.853842" lon="11.7874361"><ele>1277.3333333333333</ele><time>2026-04-06T06:50:19.61Z</time></trkpt><trkpt lat="45.8538517" lon="11.7873198"><ele>1276.6666666666667</ele><time>2026-04-06T06:50:20.602Z</time></trkpt><trkpt lat="45.853866" lon="11.7871904"><ele>1276.0</ele><time>2026-04-06T06:50:21.605Z</time></trkpt><trkpt lat="45.8538704" lon="11.7870653"><ele>1275.3333333333335</ele><time>2026-04-06T06:50:22.608Z</time></trkpt><trkpt lat="45.8538679" lon="11.7869363"><ele>1274.6666666666667</ele><time>2026-04-06T06:50:23.618Z</time></trkpt><trkpt lat="45.8538577" lon="11.7868154"><ele>1274.0</ele><time>2026-04-06T06:50:24.605Z</time></trkpt><trkpt lat="45.8538483" lon="11.78672"><ele>1272.6000000000001</ele><time>2026-04-06T06:50:25.602Z</time></trkpt><trkpt lat="45.8538257" lon="11.7865782"><ele>1271.2</ele><time>2026-04-06T06:50:27.613Z</time></trkpt><trkpt lat="45.8538021" lon="11.7864041"><ele>1269.8000000000002</ele><time>2026-04-06T06:50:29.606Z</time></trkpt><trkpt lat="45.8537885" lon="11.7862834"><ele>1268.4</ele><time>2026-04-06T06:50:30.61Z</time></trkpt><trkpt lat="45.8537771" lon="11.7861396"><ele>1267.0</ele><time>2026-04-06T06:50:31.614Z</time></trkpt><trkpt lat="45.8537571" lon="11.7860169"><ele>1266.3333333333333</ele><time>2026-04-06T06:50:32.608Z</time></trkpt><trkpt lat="45.8537422" lon="11.7859082"><ele>1265.6666666666665</ele><time>2026-04-06T06:50:33.613Z</time></trkpt><trkpt lat="45.8537409" lon="11.7857372"><ele>1265.0</ele><time>2026-04-06T06:50:35.601Z</time></trkpt><trkpt lat="45.8537394" lon="11.7856443"><ele>1264.3333333333333</ele><time>2026-04-06T06:50:36.612Z</time></trkpt><trkpt lat="45.8537531" lon="11.7855385"><ele>1263.6666666666667</ele><time>2026-04-06T06:50:37.616Z</time></trkpt><trkpt lat="45.8537766" lon="11.7854389"><ele>1263.0</ele><time>2026-04-06T06:50:38.606Z</time></trkpt><trkpt lat="45.8538114" lon="11.7853455"><ele>1263.0</ele><time>2026-04-06T06:50:39.612Z</time></trkpt><trkpt lat="45.853844" lon="11.7852582"><ele>1263.0</ele><time>2026-04-06T06:50:40.609Z</time></trkpt><trkpt lat="45.8538845" lon="11.785164"><ele>1263.0</ele><time>2026-04-06T06:50:41.611Z</time></trkpt><trkpt lat="45.8539261" lon="11.7850795"><ele>1263.0</ele><time>2026-04-06T06:50:42.61Z</time></trkpt><trkpt lat="45.8539705" lon="11.7850098"><ele>1263.0</ele><time>2026-04-06T06:50:43.612Z</time></trkpt><trkpt lat="45.8540678" lon="11.7849156"><ele>1263.0</ele><time>2026-04-06T06:50:45.607Z</time></trkpt><trkpt lat="45.8541731" lon="11.784858"><ele>1263.3333333333333</ele><time>2026-04-06T06:50:47.615Z</time></trkpt><trkpt lat="45.854269" lon="11.7848385"><ele>1263.6666666666667</ele><time>2026-04-06T06:50:49.621Z</time></trkpt><trkpt lat="45.8543254" lon="11.7848966"><ele>1264.0</ele><time>2026-04-06T06:50:51.604Z</time></trkpt><trkpt lat="45.8543939" lon="11.7850163"><ele>1264.3333333333335</ele><time>2026-04-06T06:50:53.631Z</time></trkpt><trkpt lat="45.8544278" lon="11.7850936"><ele>1264.6666666666667</ele><time>2026-04-06T06:50:54.629Z</time></trkpt><trkpt lat="45.8544578" lon="11.785178"><ele>1265.0</ele><time>2026-04-06T06:50:55.607Z</time></trkpt><trkpt lat="45.8545002" lon="11.7852528"><ele>1266.0</ele><time>2026-04-06T06:50:56.638Z</time></trkpt><trkpt lat="45.8545599" lon="11.7853357"><ele>1267.0</ele><time>2026-04-06T06:50:58.61Z</time></trkpt><trkpt lat="45.8546422" lon="11.7853864"><ele>1268.0</ele><time>2026-04-06T06:51:01.616Z</time></trkpt><trkpt lat="45.8547253" lon="11.7854084"><ele>1269.0</ele><time>2026-04-06T06:51:03.612Z</time></trkpt><trkpt lat="45.8547982" lon="11.7854047"><ele>1270.0</ele><time>2026-04-06T06:51:05.603Z</time></trkpt><trkpt lat="45.8549219" lon="11.7853343"><ele>1270.0</ele><time>2026-04-06T06:51:07.596Z</time></trkpt><trkpt lat="45.855004" lon="11.7852789"><ele>1270.0</ele><time>2026-04-06T06:51:08.607Z</time></trkpt><trkpt lat="45.8550933" lon="11.7852433"><ele>1270.0</ele><time>2026-04-06T06:51:09.604Z</time></trkpt><trkpt lat="45.8551931" lon="11.7852293"><ele>1270.0</ele><time>2026-04-06T06:51:10.608Z</time></trkpt><trkpt lat="45.8552876" lon="11.7852114"><ele>1270.0</ele><time>2026-04-06T06:51:11.608Z</time></trkpt><trkpt lat="45.8553676" lon="11.7852"><ele>1271.4</ele><time>2026-04-06T06:51:12.607Z</time></trkpt><trkpt lat="45.8554561" lon="11.7852073"><ele>1272.8</ele><time>2026-04-06T06:51:13.597Z</time></trkpt><trkpt lat="45.8555475" lon="11.7852441"><ele>1274.2</ele><time>2026-04-06T06:51:14.601Z</time></trkpt><trkpt lat="45.8556369" lon="11.7853068"><ele>1275.6</ele><time>2026-04-06T06:51:15.602Z</time></trkpt><trkpt lat="45.855727" lon="11.7853721"><ele>1277.0</ele><time>2026-04-06T06:51:16.608Z</time></trkpt><trkpt lat="45.8558024" lon="11.7854492"><ele>1277.0</ele><time>2026-04-06T06:51:17.599Z</time></trkpt><trkpt lat="45.8558482" lon="11.7855197"><ele>1277.0</ele><time>2026-04-06T06:51:18.608Z</time></trkpt><trkpt lat="45.8559287" lon="11.7856068"><ele>1277.0</ele><time>2026-04-06T06:51:20.616Z</time></trkpt><trkpt lat="45.8559958" lon="11.7855683"><ele>1277.0</ele><time>2026-04-06T06:51:22.611Z</time></trkpt><trkpt lat="45.8560051" lon="11.7854599"><ele>1277.0</ele><time>2026-04-06T06:51:24.61Z</time></trkpt><trkpt lat="45.8559483" lon="11.7852919"><ele>1277.0</ele><time>2026-04-06T06:51:26.616Z</time></trkpt><trkpt lat="45.8559111" lon="11.7851717"><ele>1277.75</ele><time>2026-04-06T06:51:27.626Z</time></trkpt><trkpt lat="45.8558753" lon="11.7850361"><ele>1278.5</ele><time>2026-04-06T06:51:28.607Z</time></trkpt><trkpt lat="45.8558381" lon="11.7848766"><ele>1279.25</ele><time>2026-04-06T06:51:29.606Z</time></trkpt><trkpt lat="45.8557993" lon="11.7846941"><ele>1280.0</ele><time>2026-04-06T06:51:30.604Z</time></trkpt><trkpt lat="45.8557685" lon="11.7845274"><ele>1280.0</ele><time>2026-04-06T06:51:31.598Z</time></trkpt><trkpt lat="45.8557359" lon="11.7843731"><ele>1280.0</ele><time>2026-04-06T06:51:32.609Z</time></trkpt><trkpt lat="45.8556911" lon="11.7842286"><ele>1280.0</ele><time>2026-04-06T06:51:33.606Z</time></trkpt><trkpt lat="45.8556406" lon="11.7840752"><ele>1280.0</ele><time>2026-04-06T06:51:34.608Z</time></trkpt><trkpt lat="45.8555906" lon="11.7839143"><ele>1282.0</ele><time>2026-04-06T06:51:35.602Z</time></trkpt><trkpt lat="45.855555" lon="11.7837756"><ele>1284.0</ele><time>2026-04-06T06:51:36.603Z</time></trkpt><trkpt lat="45.8555368" lon="11.7836532"><ele>1286.0</ele><time>2026-04-06T06:51:37.598Z</time></trkpt><trkpt lat="45.8555291" lon="11.7835343"><ele>1288.0</ele><time>2026-04-06T06:51:38.604Z</time></trkpt><trkpt lat="45.855535" lon="11.783422"><ele>1290.0</ele><time>2026-04-06T06:51:39.599Z</time></trkpt><trkpt lat="45.8555143" lon="11.7832562"><ele>1290.0</ele><time>2026-04-06T06:51:41.609Z</time></trkpt><trkpt lat="45.8554337" lon="11.7831532"><ele>1290.0</ele><time>2026-04-06T06:51:43.606Z</time></trkpt><trkpt lat="45.855371" lon="11.7831282"><ele>1290.0</ele><time>2026-04-06T06:51:45.634Z</time></trkpt><trkpt lat="45.8553049" lon="11.7832068"><ele>1290.0</ele><time>2026-04-06T06:51:48.615Z</time></trkpt><trkpt lat="45.8552853" lon="11.7833074"><ele>1290.0</ele><time>2026-04-06T06:51:50.633Z</time></trkpt><trkpt lat="45.8552398" lon="11.7834602"><ele>1290.0</ele><time>2026-04-06T06:51:52.633Z</time></trkpt><trkpt lat="45.8552091" lon="11.7835638"><ele>1290.0</ele><time>2026-04-06T06:51:53.642Z</time></trkpt><trkpt lat="45.8551875" lon="11.7836684"><ele>1290.0</ele><time>2026-04-06T06:51:54.632Z</time></trkpt><trkpt lat="45.8551774" lon="11.7837707"><ele>1290.0</ele><time>2026-04-06T06:51:55.614Z</time></trkpt><trkpt lat="45.8551557" lon="11.7839267"><ele>1290.0</ele><time>2026-04-06T06:51:57.61Z</time></trkpt><trkpt lat="45.855082" lon="11.7839283"><ele>1290.0</ele><time>2026-04-06T06:52:00.61Z</time></trkpt><trkpt lat="45.8550464" lon="11.7838369"><ele>1290.0</ele><time>2026-04-06T06:52:11.612Z</time></trkpt><trkpt lat="45.8551053" lon="11.7839016"><ele>1290.0</ele><time>2026-04-06T06:52:29.646Z</time></trkpt><trkpt lat="45.8551685" lon="11.7839184"><ele>1290.0</ele><time>2026-04-06T06:52:32.62Z</time></trkpt><trkpt lat="45.8552166" lon="11.7838356"><ele>1290.0</ele><time>2026-04-06T06:52:35.636Z</time></trkpt><trkpt lat="45.8552431" lon="11.7836921"><ele>1290.0</ele><time>2026-04-06T06:52:37.634Z</time></trkpt><trkpt lat="45.8552567" lon="11.7835906"><ele>1290.0</ele><time>2026-04-06T06:52:38.638Z</time></trkpt><trkpt lat="45.855278" lon="11.7834566"><ele>1290.0</ele><time>2026-04-06T06:52:39.614Z</time></trkpt><trkpt lat="45.8553149" lon="11.7833226"><ele>1292.2</ele><time>2026-04-06T06:52:40.608Z</time></trkpt><trkpt lat="45.8553526" lon="11.7831989"><ele>1294.4</ele><time>2026-04-06T06:52:41.615Z</time></trkpt><trkpt lat="45.8554007" lon="11.783099"><ele>1296.6</ele><time>2026-04-06T06:52:42.632Z</time></trkpt><trkpt lat="45.855481" lon="11.7830033"><ele>1298.8</ele><time>2026-04-06T06:52:44.613Z</time></trkpt><trkpt lat="45.8555984" lon="11.7830191"><ele>1301.0</ele><time>2026-04-06T06:52:46.607Z</time></trkpt><trkpt lat="45.8556763" lon="11.7830679"><ele>1301.0</ele><time>2026-04-06T06:52:47.609Z</time></trkpt><trkpt lat="45.8557549" lon="11.78314"><ele>1301.0</ele><time>2026-04-06T06:52:48.6Z</time></trkpt><trkpt lat="45.855832" lon="11.7832276"><ele>1301.0</ele><time>2026-04-06T06:52:49.619Z</time></trkpt><trkpt lat="45.8558941" lon="11.7833555"><ele>1301.0</ele><time>2026-04-06T06:52:50.601Z</time></trkpt><trkpt lat="45.8559541" lon="11.7835044"><ele>1301.0</ele><time>2026-04-06T06:52:51.601Z</time></trkpt><trkpt lat="45.8560034" lon="11.7836225"><ele>1305.8</ele><time>2026-04-06T06:52:52.597Z</time></trkpt><trkpt lat="45.8560411" lon="11.7837185"><ele>1310.6</ele><time>2026-04-06T06:52:53.609Z</time></trkpt><trkpt lat="45.8560876" lon="11.7838103"><ele>1315.4</ele><time>2026-04-06T06:52:54.759Z</time></trkpt><trkpt lat="45.8561626" lon="11.7839783"><ele>1320.2</ele><time>2026-04-06T06:52:56.77Z</time></trkpt><trkpt lat="45.8562042" lon="11.7840944"><ele>1325.0</ele><time>2026-04-06T06:52:57.821Z</time></trkpt><trkpt lat="45.8563068" lon="11.7843429"><ele>1321.2</ele><time>2026-04-06T06:52:59.629Z</time></trkpt><trkpt lat="45.8563538" lon="11.7844577"><ele>1317.4</ele><time>2026-04-06T06:53:00.633Z</time></trkpt><trkpt lat="45.8564019" lon="11.7845654"><ele>1313.6</ele><time>2026-04-06T06:53:01.611Z</time></trkpt><trkpt lat="45.8564451" lon="11.7846464"><ele>1309.8</ele><time>2026-04-06T06:53:02.603Z</time></trkpt><trkpt lat="45.8565261" lon="11.78475"><ele>1306.0</ele><time>2026-04-06T06:53:04.6Z</time></trkpt><trkpt lat="45.8566311" lon="11.7847788"><ele>1306.0</ele><time>2026-04-06T06:53:06.677Z</time></trkpt><trkpt lat="45.8567084" lon="11.7847787"><ele>1306.0</ele><time>2026-04-06T06:53:07.622Z</time></trkpt><trkpt lat="45.8567777" lon="11.7847844"><ele>1306.0</ele><time>2026-04-06T06:53:08.599Z</time></trkpt><trkpt lat="45.8568708" lon="11.784802"><ele>1306.0</ele><time>2026-04-06T06:53:09.597Z</time></trkpt><trkpt lat="45.856959" lon="11.7848478"><ele>1306.0</ele><time>2026-04-06T06:53:10.597Z</time></trkpt><trkpt lat="45.8570675" lon="11.7849056"><ele>1312.25</ele><time>2026-04-06T06:53:11.603Z</time></trkpt><trkpt lat="45.8571847" lon="11.784996"><ele>1318.5</ele><time>2026-04-06T06:53:12.631Z</time></trkpt><trkpt lat="45.857293" lon="11.7850833"><ele>1324.75</ele><time>2026-04-06T06:53:13.606Z</time></trkpt><trkpt lat="45.8573972" lon="11.7851598"><ele>1331.0</ele><time>2026-04-06T06:53:14.632Z</time></trkpt><trkpt lat="45.8574695" lon="11.785219"><ele>1331.0</ele><time>2026-04-06T06:53:15.607Z</time></trkpt><trkpt lat="45.8575327" lon="11.7852824"><ele>1331.0</ele><time>2026-04-06T06:53:16.629Z</time></trkpt><trkpt lat="45.8575707" lon="11.7853588"><ele>1331.0</ele><time>2026-04-06T06:53:17.638Z</time></trkpt><trkpt lat="45.8575896" lon="11.7855124"><ele>1331.0</ele><time>2026-04-06T06:53:19.612Z</time></trkpt><trkpt lat="45.8575666" lon="11.785683"><ele>1331.0</ele><time>2026-04-06T06:53:21.632Z</time></trkpt><trkpt lat="45.8575288" lon="11.785783"><ele>1331.0</ele><time>2026-04-06T06:53:22.634Z</time></trkpt><trkpt lat="45.8574814" lon="11.7858804"><ele>1331.0</ele><time>2026-04-06T06:53:23.859Z</time></trkpt><trkpt lat="45.8573435" lon="11.7860478"><ele>1331.0</ele><time>2026-04-06T06:53:25.636Z</time></trkpt><trkpt lat="45.8572777" lon="11.7861212"><ele>1331.0</ele><time>2026-04-06T06:53:26.644Z</time></trkpt><trkpt lat="45.8572142" lon="11.7862395"><ele>1332.4</ele><time>2026-04-06T06:53:28.618Z</time></trkpt><trkpt lat="45.8572176" lon="11.7863989"><ele>1333.8</ele><time>2026-04-06T06:53:30.61Z</time></trkpt><trkpt lat="45.8572829" lon="11.7864972"><ele>1335.2</ele><time>2026-04-06T06:53:32.617Z</time></trkpt><trkpt lat="45.8573846" lon="11.7865846"><ele>1336.6000000000001</ele><time>2026-04-06T06:53:34.614Z</time></trkpt><trkpt lat="45.8574319" lon="11.7866471"><ele>1338.0</ele><time>2026-04-06T06:53:35.619Z</time></trkpt><trkpt lat="45.8574865" lon="11.7868148"><ele>1338.8333333333333</ele><time>2026-04-06T06:53:37.638Z</time></trkpt><trkpt lat="45.8574866" lon="11.7869232"><ele>1339.6666666666667</ele><time>2026-04-06T06:53:38.646Z</time></trkpt><trkpt lat="45.8574716" lon="11.7870282"><ele>1340.5</ele><time>2026-04-06T06:53:39.611Z</time></trkpt><trkpt lat="45.8574667" lon="11.7871303"><ele>1341.3333333333335</ele><time>2026-04-06T06:53:40.631Z</time></trkpt><trkpt lat="45.8574701" lon="11.7873057"><ele>1342.1666666666667</ele><time>2026-04-06T06:53:43.635Z</time></trkpt><trkpt lat="45.8575131" lon="11.7874226"><ele>1343.0</ele><time>2026-04-06T06:53:45.614Z</time></trkpt><trkpt lat="45.8575421" lon="11.7875163"><ele>1343.0</ele><time>2026-04-06T06:53:46.615Z</time></trkpt><trkpt lat="45.8575712" lon="11.7876113"><ele>1343.0</ele><time>2026-04-06T06:53:47.62Z</time></trkpt><trkpt lat="45.8575957" lon="11.7876971"><ele>1343.0</ele><time>2026-04-06T06:53:48.611Z</time></trkpt><trkpt lat="45.8576169" lon="11.7877955"><ele>1343.0</ele><time>2026-04-06T06:53:50.613Z</time></trkpt><trkpt lat="45.8575801" lon="11.787694"><ele>1343.0</ele><time>2026-04-06T06:54:00.614Z</time></trkpt><trkpt lat="45.8575468" lon="11.7875626"><ele>1343.0</ele><time>2026-04-06T06:54:02.608Z</time></trkpt><trkpt lat="45.8575219" lon="11.7874698"><ele>1343.0</ele><time>2026-04-06T06:54:03.619Z</time></trkpt><trkpt lat="45.8575076" lon="11.787375"><ele>1343.0</ele><time>2026-04-06T06:54:04.635Z</time></trkpt><trkpt lat="45.8575119" lon="11.7872775"><ele>1343.0</ele><time>2026-04-06T06:54:05.634Z</time></trkpt><trkpt lat="45.8575168" lon="11.7871594"><ele>1343.0</ele><time>2026-04-06T06:54:06.637Z</time></trkpt><trkpt lat="45.8575431" lon="11.7870177"><ele>1343.0</ele><time>2026-04-06T06:54:07.638Z</time></trkpt><trkpt lat="45.8575584" lon="11.7868682"><ele>1343.0</ele><time>2026-04-06T06:54:08.638Z</time></trkpt><trkpt lat="45.8575611" lon="11.7867113"><ele>1342.1666666666667</ele><time>2026-04-06T06:54:09.629Z</time></trkpt><trkpt lat="45.8575663" lon="11.7865623"><ele>1341.3333333333335</ele><time>2026-04-06T06:54:10.63Z</time></trkpt><trkpt lat="45.8575747" lon="11.786432"><ele>1340.5</ele><time>2026-04-06T06:54:11.631Z</time></trkpt><trkpt lat="45.8575856" lon="11.7863381"><ele>1339.6666666666667</ele><time>2026-04-06T06:54:12.627Z</time></trkpt><trkpt lat="45.8575945" lon="11.7861852"><ele>1338.8333333333333</ele><time>2026-04-06T06:54:14.619Z</time></trkpt><trkpt lat="45.857628" lon="11.7860887"><ele>1338.0</ele><time>2026-04-06T06:54:16.609Z</time></trkpt><trkpt lat="45.8576735" lon="11.7860243"><ele>1345.8000000000002</ele><time>2026-04-06T06:54:17.689Z</time></trkpt><trkpt lat="45.8577271" lon="11.7859352"><ele>1353.6</ele><time>2026-04-06T06:54:18.611Z</time></trkpt><trkpt lat="45.857799" lon="11.7858315"><ele>1361.4</ele><time>2026-04-06T06:54:19.616Z</time></trkpt><trkpt lat="45.8578574" lon="11.7857342"><ele>1369.1999999999998</ele><time>2026-04-06T06:54:20.606Z</time></trkpt><trkpt lat="45.857912" lon="11.7856342"><ele>1377.0</ele><time>2026-04-06T06:54:21.608Z</time></trkpt><trkpt lat="45.8579738" lon="11.7855245"><ele>1377.0</ele><time>2026-04-06T06:54:22.61Z</time></trkpt><trkpt lat="45.8580068" lon="11.7853838"><ele>1377.0</ele><time>2026-04-06T06:54:23.645Z</time></trkpt><trkpt lat="45.8580435" lon="11.7852552"><ele>1377.0</ele><time>2026-04-06T06:54:24.617Z</time></trkpt><trkpt lat="45.8580806" lon="11.7851219"><ele>1377.0</ele><time>2026-04-06T06:54:25.637Z</time></trkpt><trkpt lat="45.8581155" lon="11.7850041"><ele>1377.0</ele><time>2026-04-06T06:54:26.636Z</time></trkpt><trkpt lat="45.8581374" lon="11.7848918"><ele>1376.0</ele><time>2026-04-06T06:54:27.646Z</time></trkpt><trkpt lat="45.8581225" lon="11.7847536"><ele>1375.0</ele><time>2026-04-06T06:54:28.632Z</time></trkpt><trkpt lat="45.8580968" lon="11.7846241"><ele>1374.0</ele><time>2026-04-06T06:54:29.628Z</time></trkpt><trkpt lat="45.8580538" lon="11.7844935"><ele>1373.0</ele><time>2026-04-06T06:54:30.641Z</time></trkpt><trkpt lat="45.8580022" lon="11.7843571"><ele>1372.0</ele><time>2026-04-06T06:54:31.609Z</time></trkpt><trkpt lat="45.8579421" lon="11.7842273"><ele>1373.0</ele><time>2026-04-06T06:54:32.609Z</time></trkpt><trkpt lat="45.857878" lon="11.7841067"><ele>1374.0</ele><time>2026-04-06T06:54:33.612Z</time></trkpt><trkpt lat="45.8578136" lon="11.7839816"><ele>1375.0</ele><time>2026-04-06T06:54:34.611Z</time></trkpt><trkpt lat="45.8577557" lon="11.7838482"><ele>1376.0</ele><time>2026-04-06T06:54:35.686Z</time></trkpt><trkpt lat="45.8577016" lon="11.7837199"><ele>1377.0</ele><time>2026-04-06T06:54:36.771Z</time></trkpt><trkpt lat="45.8575808" lon="11.7834331"><ele>1377.0</ele><time>2026-04-06T06:54:38.617Z</time></trkpt><trkpt lat="45.8575164" lon="11.7832945"><ele>1377.0</ele><time>2026-04-06T06:54:39.767Z</time></trkpt><trkpt lat="45.8573684" lon="11.7830485"><ele>1377.0</ele><time>2026-04-06T06:54:41.609Z</time></trkpt><trkpt lat="45.8573117" lon="11.7829604"><ele>1377.0</ele><time>2026-04-06T06:54:42.772Z</time></trkpt><trkpt lat="45.8572278" lon="11.7828241"><ele>1381.6</ele><time>2026-04-06T06:54:44.774Z</time></trkpt><trkpt lat="45.8571765" lon="11.7826107"><ele>1386.1999999999998</ele><time>2026-04-06T06:54:47.636Z</time></trkpt><trkpt lat="45.8571776" lon="11.7825079"><ele>1390.8</ele><time>2026-04-06T06:54:48.64Z</time></trkpt><trkpt lat="45.8571626" lon="11.7823954"><ele>1395.4</ele><time>2026-04-06T06:54:49.639Z</time></trkpt><trkpt lat="45.8571356" lon="11.7822853"><ele>1400.0</ele><time>2026-04-06T06:54:50.616Z</time></trkpt><trkpt lat="45.8571013" lon="11.7821715"><ele>1400.0</ele><time>2026-04-06T06:54:51.616Z</time></trkpt><trkpt lat="45.8570582" lon="11.782059"><ele>1400.0</ele><time>2026-04-06T06:54:52.612Z</time></trkpt><trkpt lat="45.8570127" lon="11.7819453"><ele>1400.0</ele><time>2026-04-06T06:54:53.616Z</time></trkpt><trkpt lat="45.8569727" lon="11.7818445"><ele>1400.0</ele><time>2026-04-06T06:54:54.605Z</time></trkpt><trkpt lat="45.8569273" lon="11.7817203"><ele>1400.0</ele><time>2026-04-06T06:54:56.615Z</time></trkpt><trkpt lat="45.8569606" lon="11.7816377"><ele>1400.0</ele><time>2026-04-06T06:55:02.619Z</time></trkpt><trkpt lat="45.8570313" lon="11.7817337"><ele>1400.0</ele><time>2026-04-06T06:55:05.639Z</time></trkpt><trkpt lat="45.8570926" lon="11.7818974"><ele>1400.0</ele><time>2026-04-06T06:55:07.619Z</time></trkpt><trkpt lat="45.8571401" lon="11.7819778"><ele>1400.0</ele><time>2026-04-06T06:55:08.601Z</time></trkpt><trkpt lat="45.8572087" lon="11.7820607"><ele>1400.0</ele><time>2026-04-06T06:55:09.61Z</time></trkpt><trkpt lat="45.8572657" lon="11.7821399"><ele>1400.0</ele><time>2026-04-06T06:55:10.603Z</time></trkpt><trkpt lat="45.8573261" lon="11.7822216"><ele>1400.0</ele><time>2026-04-06T06:55:11.611Z</time></trkpt><trkpt lat="45.857395" lon="11.7822929"><ele>1400.0</ele><time>2026-04-06T06:55:12.604Z</time></trkpt><trkpt lat="45.8574684" lon="11.7823742"><ele>1400.0</ele><time>2026-04-06T06:55:13.61Z</time></trkpt><trkpt lat="45.857523" lon="11.7824491"><ele>1400.0</ele><time>2026-04-06T06:55:14.765Z</time></trkpt><trkpt lat="45.8576147" lon="11.7825592"><ele>1400.0</ele><time>2026-04-06T06:55:16.601Z</time></trkpt><trkpt lat="45.8576695" lon="11.7826049"><ele>1400.0</ele><time>2026-04-06T06:55:17.66Z</time></trkpt><trkpt lat="45.8577412" lon="11.782637"><ele>1401.8333333333335</ele><time>2026-04-06T06:55:18.611Z</time></trkpt><trkpt lat="45.8578257" lon="11.7826747"><ele>1403.6666666666667</ele><time>2026-04-06T06:55:19.616Z</time></trkpt><trkpt lat="45.8578988" lon="11.7827287"><ele>1405.5</ele><time>2026-04-06T06:55:20.617Z</time></trkpt><trkpt lat="45.8579611" lon="11.7827889"><ele>1407.3333333333333</ele><time>2026-04-06T06:55:21.61Z</time></trkpt><trkpt lat="45.8580243" lon="11.7828664"><ele>1409.1666666666665</ele><time>2026-04-06T06:55:22.61Z</time></trkpt><trkpt lat="45.8580822" lon="11.7829714"><ele>1411.0</ele><time>2026-04-06T06:55:23.633Z</time></trkpt><trkpt lat="45.8581522" lon="11.7830751"><ele>1411.0</ele><time>2026-04-06T06:55:24.632Z</time></trkpt><trkpt lat="45.8582165" lon="11.7831815"><ele>1411.0</ele><time>2026-04-06T06:55:25.635Z</time></trkpt><trkpt lat="45.8582803" lon="11.7832862"><ele>1411.0</ele><time>2026-04-06T06:55:26.609Z</time></trkpt><trkpt lat="45.858342" lon="11.7833918"><ele>1411.0</ele><time>2026-04-06T06:55:27.622Z</time></trkpt><trkpt lat="45.8583945" lon="11.7835007"><ele>1411.0</ele><time>2026-04-06T06:55:28.613Z</time></trkpt><trkpt lat="45.8584474" lon="11.7835966"><ele>1411.0</ele><time>2026-04-06T06:55:29.632Z</time></trkpt><trkpt lat="45.8584803" lon="11.7836811"><ele>1411.0</ele><time>2026-04-06T06:55:30.613Z</time></trkpt><trkpt lat="45.8585243" lon="11.7837932"><ele>1411.0</ele><time>2026-04-06T06:55:32.61Z</time></trkpt><trkpt lat="45.8585794" lon="11.7838934"><ele>1411.0</ele><time>2026-04-06T06:55:35.62Z</time></trkpt><trkpt lat="45.8586402" lon="11.7838657"><ele>1411.0</ele><time>2026-04-06T06:55:37.607Z</time></trkpt><trkpt lat="45.8587116" lon="11.7837967"><ele>1411.0</ele><time>2026-04-06T06:55:39.615Z</time></trkpt><trkpt lat="45.8587869" lon="11.7837291"><ele>1411.0000000000002</ele><time>2026-04-06T06:55:42.605Z</time></trkpt><trkpt lat="45.8588317" lon="11.7836524"><ele>1411.0</ele><time>2026-04-06T06:55:44.625Z</time></trkpt><trkpt lat="45.8588721" lon="11.7835749"><ele>1411.0</ele><time>2026-04-06T06:56:04.6Z</time></trkpt><trkpt lat="45.8589303" lon="11.7835207"><ele>1411.0</ele><time>2026-04-06T06:57:58.658Z</time></trkpt><trkpt lat="45.8589872" lon="11.7834679"><ele>1411.0</ele><time>2026-04-06T06:58:53.644Z</time></trkpt><trkpt lat="45.8590436" lon="11.7833919"><ele>1411.0000000000002</ele><time>2026-04-06T07:02:50.634Z</time></trkpt><trkpt lat="45.8589645" lon="11.7833939"><ele>1411.0</ele><time>2026-04-06T07:07:31.608Z</time></trkpt><trkpt lat="45.8588851" lon="11.7833964"><ele>1414.8</ele><time>2026-04-06T07:07:33.61Z</time></trkpt><trkpt lat="45.8587982" lon="11.7833429"><ele>1418.6</ele><time>2026-04-06T07:07:35.613Z</time></trkpt><trkpt lat="45.8587093" lon="11.7832425"><ele>1422.4</ele><time>2026-04-06T07:07:37.604Z</time></trkpt><trkpt lat="45.8586518" lon="11.7831991"><ele>1426.2</ele><time>2026-04-06T07:07:38.605Z</time></trkpt><trkpt lat="45.8585632" lon="11.7831287"><ele>1430.0</ele><time>2026-04-06T07:07:40.606Z</time></trkpt><trkpt lat="45.8584692" lon="11.7830698"><ele>1426.2</ele><time>2026-04-06T07:07:42.606Z</time></trkpt><trkpt lat="45.8583534" lon="11.7830325"><ele>1422.4</ele><time>2026-04-06T07:07:44.616Z</time></trkpt><trkpt lat="45.8582901" lon="11.7829989"><ele>1418.6</ele><time>2026-04-06T07:07:45.616Z</time></trkpt><trkpt lat="45.8581983" lon="11.7829136"><ele>1414.8</ele><time>2026-04-06T07:07:47.62Z</time></trkpt><trkpt lat="45.8581022" lon="11.7828215"><ele>1411.0</ele><time>2026-04-06T07:07:49.611Z</time></trkpt><trkpt lat="45.8580458" lon="11.7827599"><ele>1408.8</ele><time>2026-04-06T07:07:50.778Z</time></trkpt><trkpt lat="45.8579502" lon="11.7826171"><ele>1406.6</ele><time>2026-04-06T07:07:52.618Z</time></trkpt><trkpt lat="45.8579002" lon="11.7825593"><ele>1404.4</ele><time>2026-04-06T07:07:53.617Z</time></trkpt><trkpt lat="45.8578413" lon="11.7825186"><ele>1402.2</ele><time>2026-04-06T07:07:54.616Z</time></trkpt><trkpt lat="45.8577268" lon="11.7824673"><ele>1400.0</ele><time>2026-04-06T07:07:56.61Z</time></trkpt><trkpt lat="45.8576039" lon="11.7824348"><ele>1400.0</ele><time>2026-04-06T07:07:58.611Z</time></trkpt><trkpt lat="45.8575018" lon="11.7823619"><ele>1400.0</ele><time>2026-04-06T07:08:00.614Z</time></trkpt><trkpt lat="45.8574406" lon="11.7822395"><ele>1400.0</ele><time>2026-04-06T07:08:02.605Z</time></trkpt><trkpt lat="45.8573727" lon="11.7821361"><ele>1400.0</ele><time>2026-04-06T07:08:04.604Z</time></trkpt><trkpt lat="45.8572962" lon="11.7820455"><ele>1400.0</ele><time>2026-04-06T07:08:06.602Z</time></trkpt><trkpt lat="45.8572152" lon="11.7819524"><ele>1402.4</ele><time>2026-04-06T07:08:08.614Z</time></trkpt><trkpt lat="45.8571673" lon="11.7818075"><ele>1404.8</ele><time>2026-04-06T07:08:10.603Z</time></trkpt><trkpt lat="45.8570944" lon="11.7816133"><ele>1407.1999999999998</ele><time>2026-04-06T07:08:13.613Z</time></trkpt><trkpt lat="45.8570532" lon="11.781533"><ele>1409.6</ele><time>2026-04-06T07:08:15.606Z</time></trkpt><trkpt lat="45.857002" lon="11.7814718"><ele>1412.0</ele><time>2026-04-06T07:08:17.612Z</time></trkpt><trkpt lat="45.8569942" lon="11.7815677"><ele>1412.0</ele><time>2026-04-06T07:08:28.623Z</time></trkpt><trkpt lat="45.8570268" lon="11.7816826"><ele>1412.0</ele><time>2026-04-06T07:08:31.618Z</time></trkpt><trkpt lat="45.8570821" lon="11.7818077"><ele>1412.0</ele><time>2026-04-06T07:08:34.614Z</time></trkpt><trkpt lat="45.8571215" lon="11.7819424"><ele>1412.0</ele><time>2026-04-06T07:08:36.618Z</time></trkpt><trkpt lat="45.8571562" lon="11.7820841"><ele>1412.0</ele><time>2026-04-06T07:08:38.621Z</time></trkpt><trkpt lat="45.8571804" lon="11.7822329"><ele>1409.6</ele><time>2026-04-06T07:08:40.614Z</time></trkpt><trkpt lat="45.8572303" lon="11.782376"><ele>1407.1999999999998</ele><time>2026-04-06T07:08:42.618Z</time></trkpt><trkpt lat="45.8572826" lon="11.7825257"><ele>1404.8</ele><time>2026-04-06T07:08:44.613Z</time></trkpt><trkpt lat="45.8572953" lon="11.7826657"><ele>1402.4</ele><time>2026-04-06T07:08:46.612Z</time></trkpt><trkpt lat="45.8572977" lon="11.7828145"><ele>1400.0</ele><time>2026-04-06T07:08:48.617Z</time></trkpt><trkpt lat="45.8573185" lon="11.7829477"><ele>1395.4</ele><time>2026-04-06T07:08:50.617Z</time></trkpt><trkpt lat="45.8573607" lon="11.783061"><ele>1390.8</ele><time>2026-04-06T07:08:52.615Z</time></trkpt><trkpt lat="45.8574267" lon="11.7831768"><ele>1386.1999999999998</ele><time>2026-04-06T07:08:54.607Z</time></trkpt><trkpt lat="45.8575033" lon="11.7832877"><ele>1381.6</ele><time>2026-04-06T07:08:56.614Z</time></trkpt><trkpt lat="45.8575637" lon="11.7834088"><ele>1377.0</ele><time>2026-04-06T07:08:58.613Z</time></trkpt><trkpt lat="45.8576144" lon="11.7835388"><ele>1379.3999999999999</ele><time>2026-04-06T07:09:00.607Z</time></trkpt><trkpt lat="45.8576523" lon="11.783657"><ele>1381.8</ele><time>2026-04-06T07:09:02.612Z</time></trkpt><trkpt lat="45.8576983" lon="11.783767"><ele>1384.2</ele><time>2026-04-06T07:09:04.614Z</time></trkpt><trkpt lat="45.8577488" lon="11.7838905"><ele>1386.6</ele><time>2026-04-06T07:09:06.61Z</time></trkpt><trkpt lat="45.8578119" lon="11.784058"><ele>1389.0</ele><time>2026-04-06T07:09:08.606Z</time></trkpt><trkpt lat="45.8578442" lon="11.7841532"><ele>1389.0</ele><time>2026-04-06T07:09:09.609Z</time></trkpt><trkpt lat="45.8578746" lon="11.7842368"><ele>1389.0</ele><time>2026-04-06T07:09:10.609Z</time></trkpt><trkpt lat="45.8579066" lon="11.7843227"><ele>1389.0</ele><time>2026-04-06T07:09:11.616Z</time></trkpt><trkpt lat="45.8579394" lon="11.7844173"><ele>1389.0</ele><time>2026-04-06T07:09:12.614Z</time></trkpt><trkpt lat="45.8579705" lon="11.784496"><ele>1389.0</ele><time>2026-04-06T07:09:13.614Z</time></trkpt><trkpt lat="45.8580331" lon="11.7846457"><ele>1389.0</ele><time>2026-04-06T07:09:15.616Z</time></trkpt><trkpt lat="45.8580928" lon="11.7847869"><ele>1386.6</ele><time>2026-04-06T07:09:17.625Z</time></trkpt><trkpt lat="45.8581362" lon="11.7849297"><ele>1384.2</ele><time>2026-04-06T07:09:19.607Z</time></trkpt><trkpt lat="45.8581576" lon="11.7850888"><ele>1381.8</ele><time>2026-04-06T07:09:21.689Z</time></trkpt><trkpt lat="45.8581537" lon="11.7852441"><ele>1379.3999999999999</ele><time>2026-04-06T07:09:23.776Z</time></trkpt><trkpt lat="45.8580976" lon="11.7853889"><ele>1377.0</ele><time>2026-04-06T07:09:25.619Z</time></trkpt><trkpt lat="45.8580561" lon="11.7854606"><ele>1377.0</ele><time>2026-04-06T07:09:26.614Z</time></trkpt><trkpt lat="45.8579908" lon="11.785603"><ele>1377.0</ele><time>2026-04-06T07:09:28.613Z</time></trkpt><trkpt lat="45.8579549" lon="11.7856783"><ele>1377.0</ele><time>2026-04-06T07:09:29.609Z</time></trkpt><trkpt lat="45.8578964" lon="11.7858152"><ele>1377.0</ele><time>2026-04-06T07:09:31.609Z</time></trkpt><trkpt lat="45.8578394" lon="11.7859284"><ele>1377.0</ele><time>2026-04-06T07:09:33.597Z</time></trkpt><trkpt lat="45.8577667" lon="11.7860257"><ele>1378.3999999999999</ele><time>2026-04-06T07:09:35.604Z</time></trkpt><trkpt lat="45.8576689" lon="11.7861038"><ele>1379.8</ele><time>2026-04-06T07:09:37.612Z</time></trkpt><trkpt lat="45.8575902" lon="11.786193"><ele>1381.2</ele><time>2026-04-06T07:09:39.61Z</time></trkpt><trkpt lat="45.857517" lon="11.7862518"><ele>1382.6</ele><time>2026-04-06T07:09:41.613Z</time></trkpt><trkpt lat="45.8574762" lon="11.7863536"><ele>1384.0</ele><time>2026-04-06T07:09:43.614Z</time></trkpt><trkpt lat="45.8574595" lon="11.7864858"><ele>1377.1666666666665</ele><time>2026-04-06T07:09:45.616Z</time></trkpt><trkpt lat="45.8574745" lon="11.7865809"><ele>1370.3333333333333</ele><time>2026-04-06T07:09:46.62Z</time></trkpt><trkpt lat="45.8574933" lon="11.786686"><ele>1363.5</ele><time>2026-04-06T07:09:47.614Z</time></trkpt><trkpt lat="45.8575098" lon="11.7867861"><ele>1356.6666666666667</ele><time>2026-04-06T07:09:48.624Z</time></trkpt><trkpt lat="45.8575252" lon="11.7868774"><ele>1349.8333333333335</ele><time>2026-04-06T07:09:49.63Z</time></trkpt><trkpt lat="45.8575269" lon="11.7870204"><ele>1343.0</ele><time>2026-04-06T07:09:51.633Z</time></trkpt><trkpt lat="45.8575383" lon="11.7871471"><ele>1343.0</ele><time>2026-04-06T07:09:53.631Z</time></trkpt><trkpt lat="45.8574894" lon="11.7870871"><ele>1343.0</ele><time>2026-04-06T07:10:10.624Z</time></trkpt><trkpt lat="45.8575021" lon="11.7869416"><ele>1343.0</ele><time>2026-04-06T07:10:12.622Z</time></trkpt><trkpt lat="45.8575026" lon="11.7867789"><ele>1343.0</ele><time>2026-04-06T07:10:14.616Z</time></trkpt><trkpt lat="45.8574768" lon="11.7866178"><ele>1343.0</ele><time>2026-04-06T07:10:16.621Z</time></trkpt><trkpt lat="45.8574145" lon="11.7864956"><ele>1342.0</ele><time>2026-04-06T07:10:18.622Z</time></trkpt><trkpt lat="45.857319" lon="11.7864089"><ele>1341.0</ele><time>2026-04-06T07:10:20.614Z</time></trkpt><trkpt lat="45.8572607" lon="11.7863615"><ele>1340.0</ele><time>2026-04-06T07:10:21.617Z</time></trkpt><trkpt lat="45.8571953" lon="11.7862513"><ele>1339.0</ele><time>2026-04-06T07:10:23.623Z</time></trkpt><trkpt lat="45.8572064" lon="11.7860965"><ele>1338.0</ele><time>2026-04-06T07:10:25.617Z</time></trkpt><trkpt lat="45.8572685" lon="11.7859519"><ele>1336.8333333333333</ele><time>2026-04-06T07:10:27.616Z</time></trkpt><trkpt lat="45.8573608" lon="11.7858226"><ele>1335.6666666666667</ele><time>2026-04-06T07:10:29.698Z</time></trkpt><trkpt lat="45.8574118" lon="11.7857452"><ele>1334.5</ele><time>2026-04-06T07:10:30.618Z</time></trkpt><trkpt lat="45.8574574" lon="11.7856781"><ele>1333.3333333333335</ele><time>2026-04-06T07:10:31.61Z</time></trkpt><trkpt lat="45.8574981" lon="11.7855943"><ele>1332.1666666666667</ele><time>2026-04-06T07:10:32.693Z</time></trkpt><trkpt lat="45.8575349" lon="11.7855103"><ele>1331.0</ele><time>2026-04-06T07:10:33.621Z</time></trkpt><trkpt lat="45.8575543" lon="11.7854117"><ele>1331.0</ele><time>2026-04-06T07:10:34.607Z</time></trkpt><trkpt lat="45.8575537" lon="11.7853072"><ele>1331.0</ele><time>2026-04-06T07:10:35.611Z</time></trkpt><trkpt lat="45.8575434" lon="11.7852133"><ele>1331.0</ele><time>2026-04-06T07:10:36.613Z</time></trkpt><trkpt lat="45.8575169" lon="11.7851186"><ele>1331.0</ele><time>2026-04-06T07:10:37.609Z</time></trkpt><trkpt lat="45.8574707" lon="11.7850415"><ele>1331.0</ele><time>2026-04-06T07:10:38.615Z</time></trkpt><trkpt lat="45.8573991" lon="11.784957"><ele>1331.0</ele><time>2026-04-06T07:10:39.62Z</time></trkpt><trkpt lat="45.8572971" lon="11.7848848"><ele>1331.75</ele><time>2026-04-06T07:10:40.615Z</time></trkpt><trkpt lat="45.8571961" lon="11.7848281"><ele>1332.5</ele><time>2026-04-06T07:10:41.638Z</time></trkpt><trkpt lat="45.857099" lon="11.7847768"><ele>1333.25</ele><time>2026-04-06T07:10:42.774Z</time></trkpt><trkpt lat="45.8569141" lon="11.7846866"><ele>1334.0</ele><time>2026-04-06T07:10:44.633Z</time></trkpt><trkpt lat="45.8568318" lon="11.7846564"><ele>1329.3333333333335</ele><time>2026-04-06T07:10:45.61Z</time></trkpt><trkpt lat="45.8567584" lon="11.7846148"><ele>1324.6666666666667</ele><time>2026-04-06T07:10:46.606Z</time></trkpt><trkpt lat="45.8566811" lon="11.7845791"><ele>1320.0</ele><time>2026-04-06T07:10:47.627Z</time></trkpt><trkpt lat="45.8566078" lon="11.7845682"><ele>1315.3333333333333</ele><time>2026-04-06T07:10:48.615Z</time></trkpt><trkpt lat="45.8565421" lon="11.7845713"><ele>1310.6666666666665</ele><time>2026-04-06T07:10:49.612Z</time></trkpt><trkpt lat="45.8564317" lon="11.784602"><ele>1306.0</ele><time>2026-04-06T07:10:51.642Z</time></trkpt><trkpt lat="45.8563226" lon="11.7846127"><ele>1306.0</ele><time>2026-04-06T07:10:53.621Z</time></trkpt><trkpt lat="45.8562206" lon="11.7845611"><ele>1306.0</ele><time>2026-04-06T07:10:55.612Z</time></trkpt><trkpt lat="45.8561425" lon="11.7844004"><ele>1306.0</ele><time>2026-04-06T07:10:57.617Z</time></trkpt><trkpt lat="45.8561086" lon="11.7842671"><ele>1306.0</ele><time>2026-04-06T07:10:58.608Z</time></trkpt><trkpt lat="45.8560654" lon="11.7841225"><ele>1305.1666666666665</ele><time>2026-04-06T07:10:59.626Z</time></trkpt><trkpt lat="45.8560193" lon="11.7839831"><ele>1304.3333333333333</ele><time>2026-04-06T07:11:00.608Z</time></trkpt><trkpt lat="45.8559792" lon="11.783863"><ele>1303.5</ele><time>2026-04-06T07:11:01.612Z</time></trkpt><trkpt lat="45.855947" lon="11.7837528"><ele>1302.6666666666667</ele><time>2026-04-06T07:11:02.613Z</time></trkpt><trkpt lat="45.8559097" lon="11.7836474"><ele>1301.8333333333335</ele><time>2026-04-06T07:11:03.614Z</time></trkpt><trkpt lat="45.855873" lon="11.7835448"><ele>1301.0</ele><time>2026-04-06T07:11:04.608Z</time></trkpt><trkpt lat="45.8558339" lon="11.7834443"><ele>1301.0</ele><time>2026-04-06T07:11:05.618Z</time></trkpt><trkpt lat="45.8557974" lon="11.783365"><ele>1301.0</ele><time>2026-04-06T07:11:06.616Z</time></trkpt><trkpt lat="45.8557389" lon="11.7832249"><ele>1301.0</ele><time>2026-04-06T07:11:08.619Z</time></trkpt><trkpt lat="45.855697" lon="11.7831497"><ele>1301.0</ele><time>2026-04-06T07:11:10.618Z</time></trkpt><trkpt lat="45.8556408" lon="11.7830959"><ele>1301.0</ele><time>2026-04-06T07:11:13.616Z</time></trkpt><trkpt lat="45.855558" lon="11.7830562"><ele>1301.0</ele><time>2026-04-06T07:11:15.616Z</time></trkpt><trkpt lat="45.8554843" lon="11.7830868"><ele>1301.0</ele><time>2026-04-06T07:11:18.615Z</time></trkpt><trkpt lat="45.8554221" lon="11.783122"><ele>1301.0</ele><time>2026-04-06T07:11:24.646Z</time></trkpt><trkpt lat="45.8554109" lon="11.7832285"><ele>1301.0</ele><time>2026-04-06T07:11:28.618Z</time></trkpt><trkpt lat="45.8553885" lon="11.7831305"><ele>1301.0</ele><time>2026-04-06T07:11:35.62Z</time></trkpt><trkpt lat="45.8554541" lon="11.783079"><ele>1301.0</ele><time>2026-04-06T07:11:37.621Z</time></trkpt><trkpt lat="45.8555478" lon="11.7831023"><ele>1301.0</ele><time>2026-04-06T07:11:39.616Z</time></trkpt><trkpt lat="45.8556166" lon="11.7831332"><ele>1301.0</ele><time>2026-04-06T07:11:40.62Z</time></trkpt><trkpt lat="45.8556852" lon="11.7832055"><ele>1301.0</ele><time>2026-04-06T07:11:41.615Z</time></trkpt><trkpt lat="45.8557465" lon="11.7832909"><ele>1301.0</ele><time>2026-04-06T07:11:42.628Z</time></trkpt><trkpt lat="45.8558093" lon="11.783388"><ele>1301.0</ele><time>2026-04-06T07:11:43.652Z</time></trkpt><trkpt lat="45.8558598" lon="11.7834862"><ele>1301.0</ele><time>2026-04-06T07:11:44.62Z</time></trkpt><trkpt lat="45.8558959" lon="11.7835786"><ele>1301.0</ele><time>2026-04-06T07:11:45.621Z</time></trkpt><trkpt lat="45.8559658" lon="11.783693"><ele>1301.0</ele><time>2026-04-06T07:11:47.613Z</time></trkpt><trkpt lat="45.8560505" lon="11.7836649"><ele>1301.0</ele><time>2026-04-06T07:11:50.613Z</time></trkpt><trkpt lat="45.8560457" lon="11.7835437"><ele>1301.0</ele><time>2026-04-06T07:11:53.614Z</time></trkpt><trkpt lat="45.8559704" lon="11.783449"><ele>1301.0</ele><time>2026-04-06T07:11:55.633Z</time></trkpt><trkpt lat="45.8559119" lon="11.783349"><ele>1301.0</ele><time>2026-04-06T07:11:57.628Z</time></trkpt><trkpt lat="45.8558883" lon="11.7832201"><ele>1301.0</ele><time>2026-04-06T07:11:59.634Z</time></trkpt><trkpt lat="45.8558671" lon="11.7830568"><ele>1301.0</ele><time>2026-04-06T07:12:01.613Z</time></trkpt><trkpt lat="45.85581" lon="11.7828979"><ele>1301.0</ele><time>2026-04-06T07:12:03.617Z</time></trkpt><trkpt lat="45.8557379" lon="11.7827635"><ele>1301.0</ele><time>2026-04-06T07:12:05.619Z</time></trkpt><trkpt lat="45.8556866" lon="11.7827082"><ele>1301.0</ele><time>2026-04-06T07:12:06.62Z</time></trkpt><trkpt lat="45.8556274" lon="11.7826547"><ele>1304.6666666666667</ele><time>2026-04-06T07:12:07.615Z</time></trkpt><trkpt lat="45.8555765" lon="11.7825904"><ele>1308.3333333333335</ele><time>2026-04-06T07:12:08.613Z</time></trkpt><trkpt lat="45.8554733" lon="11.7825171"><ele>1312.0</ele><time>2026-04-06T07:12:10.622Z</time></trkpt><trkpt lat="45.8554036" lon="11.7824899"><ele>1315.6666666666667</ele><time>2026-04-06T07:12:11.621Z</time></trkpt><trkpt lat="45.8553339" lon="11.7824754"><ele>1319.3333333333333</ele><time>2026-04-06T07:12:12.61Z</time></trkpt><trkpt lat="45.8552372" lon="11.7824493"><ele>1323.0</ele><time>2026-04-06T07:12:14.62Z</time></trkpt><trkpt lat="45.8551728" lon="11.7823775"><ele>1323.0</ele><time>2026-04-06T07:12:17.628Z</time></trkpt><trkpt lat="45.8551576" lon="11.7822591"><ele>1323.0</ele><time>2026-04-06T07:12:20.61Z</time></trkpt><trkpt lat="45.8551279" lon="11.78212"><ele>1323.0</ele><time>2026-04-06T07:12:22.617Z</time></trkpt><trkpt lat="45.8550823" lon="11.7819756"><ele>1323.0</ele><time>2026-04-06T07:12:24.616Z</time></trkpt><trkpt lat="45.8550129" lon="11.7818629"><ele>1323.0</ele><time>2026-04-06T07:12:26.615Z</time></trkpt><trkpt lat="45.854944" lon="11.7817539"><ele>1324.3333333333333</ele><time>2026-04-06T07:12:28.617Z</time></trkpt><trkpt lat="45.8548872" lon="11.7816346"><ele>1325.6666666666667</ele><time>2026-04-06T07:12:30.608Z</time></trkpt><trkpt lat="45.8548496" lon="11.7815557"><ele>1327.0</ele><time>2026-04-06T07:12:38.62Z</time></trkpt><trkpt lat="45.8548781" lon="11.7816617"><ele>1328.3333333333335</ele><time>2026-04-06T07:12:49.61Z</time></trkpt><trkpt lat="45.8549215" lon="11.7817547"><ele>1329.6666666666667</ele><time>2026-04-06T07:12:52.621Z</time></trkpt><trkpt lat="45.854977" lon="11.7818319"><ele>1331.0</ele><time>2026-04-06T07:12:55.617Z</time></trkpt><trkpt lat="45.8550329" lon="11.7819296"><ele>1329.6666666666667</ele><time>2026-04-06T07:12:58.607Z</time></trkpt><trkpt lat="45.8550889" lon="11.7820376"><ele>1328.3333333333335</ele><time>2026-04-06T07:13:01.606Z</time></trkpt><trkpt lat="45.8551243" lon="11.7821419"><ele>1327.0</ele><time>2026-04-06T07:13:03.615Z</time></trkpt><trkpt lat="45.8551438" lon="11.782244"><ele>1325.6666666666667</ele><time>2026-04-06T07:13:05.618Z</time></trkpt><trkpt lat="45.8551607" lon="11.7823436"><ele>1324.3333333333333</ele><time>2026-04-06T07:13:07.641Z</time></trkpt><trkpt lat="45.8551736" lon="11.7824528"><ele>1323.0</ele><time>2026-04-06T07:13:09.625Z</time></trkpt><trkpt lat="45.8552185" lon="11.7825462"><ele>1323.0</ele><time>2026-04-06T07:13:12.624Z</time></trkpt><trkpt lat="45.8552758" lon="11.7825894"><ele>1323.0</ele><time>2026-04-06T07:13:15.615Z</time></trkpt><trkpt lat="45.8553666" lon="11.7825952"><ele>1323.0</ele><time>2026-04-06T07:13:18.619Z</time></trkpt><trkpt lat="45.8554609" lon="11.7825994"><ele>1323.0</ele><time>2026-04-06T07:13:20.618Z</time></trkpt><trkpt lat="45.8555634" lon="11.7826486"><ele>1323.0</ele><time>2026-04-06T07:13:22.619Z</time></trkpt><trkpt lat="45.8556442" lon="11.782722"><ele>1318.6000000000001</ele><time>2026-04-06T07:13:24.622Z</time></trkpt><trkpt lat="45.8557243" lon="11.7827944"><ele>1314.2</ele><time>2026-04-06T07:13:26.623Z</time></trkpt><trkpt lat="45.855812" lon="11.7828712"><ele>1309.8</ele><time>2026-04-06T07:13:28.622Z</time></trkpt><trkpt lat="45.8558705" lon="11.7829714"><ele>1305.4</ele><time>2026-04-06T07:13:30.634Z</time></trkpt><trkpt lat="45.8559063" lon="11.7830842"><ele>1301.0</ele><time>2026-04-06T07:13:32.618Z</time></trkpt><trkpt lat="45.8559234" lon="11.7832186"><ele>1301.0</ele><time>2026-04-06T07:13:34.631Z</time></trkpt><trkpt lat="45.8559195" lon="11.7833459"><ele>1301.0</ele><time>2026-04-06T07:13:36.618Z</time></trkpt><trkpt lat="45.8559266" lon="11.7834556"><ele>1301.0</ele><time>2026-04-06T07:13:39.624Z</time></trkpt><trkpt lat="45.855973" lon="11.7835569"><ele>1301.0</ele><time>2026-04-06T07:13:42.619Z</time></trkpt><trkpt lat="45.856026" lon="11.7836651"><ele>1301.0</ele><time>2026-04-06T07:13:45.61Z</time></trkpt><trkpt lat="45.8559281" lon="11.783557"><ele>1301.0</ele><time>2026-04-06T07:13:53.647Z</time></trkpt><trkpt lat="45.8558781" lon="11.7834602"><ele>1301.0</ele><time>2026-04-06T07:13:54.608Z</time></trkpt><trkpt lat="45.8558208" lon="11.7833529"><ele>1301.0</ele><time>2026-04-06T07:13:55.619Z</time></trkpt><trkpt lat="45.855773" lon="11.7832349"><ele>1301.0</ele><time>2026-04-06T07:13:56.615Z</time></trkpt><trkpt lat="45.8557202" lon="11.7831406"><ele>1301.0</ele><time>2026-04-06T07:13:57.611Z</time></trkpt><trkpt lat="45.8556641" lon="11.7830692"><ele>1301.0</ele><time>2026-04-06T07:13:58.615Z</time></trkpt><trkpt lat="45.8555522" lon="11.7830305"><ele>1301.0</ele><time>2026-04-06T07:14:00.614Z</time></trkpt><trkpt lat="45.8554521" lon="11.7830491"><ele>1301.0</ele><time>2026-04-06T07:14:02.616Z</time></trkpt><trkpt lat="45.8553888" lon="11.783108"><ele>1301.0</ele><time>2026-04-06T07:14:04.628Z</time></trkpt><trkpt lat="45.855365" lon="11.7832118"><ele>1301.0</ele><time>2026-04-06T07:14:06.614Z</time></trkpt><trkpt lat="45.8553994" lon="11.7832989"><ele>1301.0</ele><time>2026-04-06T07:14:08.615Z</time></trkpt><trkpt lat="45.8554753" lon="11.7833607"><ele>1301.0</ele><time>2026-04-06T07:14:10.622Z</time></trkpt><trkpt lat="45.8555438" lon="11.7834537"><ele>1298.8</ele><time>2026-04-06T07:14:12.61Z</time></trkpt><trkpt lat="45.8555843" lon="11.7836032"><ele>1296.6</ele><time>2026-04-06T07:14:14.62Z</time></trkpt><trkpt lat="45.8555991" lon="11.7837545"><ele>1294.4</ele><time>2026-04-06T07:14:16.611Z</time></trkpt><trkpt lat="45.8556129" lon="11.7838517"><ele>1292.2</ele><time>2026-04-06T07:14:17.619Z</time></trkpt><trkpt lat="45.8556378" lon="11.7840385"><ele>1290.0</ele><time>2026-04-06T07:14:19.621Z</time></trkpt><trkpt lat="45.8556601" lon="11.7841625"><ele>1290.0</ele><time>2026-04-06T07:14:20.622Z</time></trkpt><trkpt lat="45.8556871" lon="11.7843015"><ele>1290.0</ele><time>2026-04-06T07:14:21.619Z</time></trkpt><trkpt lat="45.8557269" lon="11.784427"><ele>1290.0</ele><time>2026-04-06T07:14:22.626Z</time></trkpt><trkpt lat="45.8557724" lon="11.7845482"><ele>1290.0</ele><time>2026-04-06T07:14:23.624Z</time></trkpt><trkpt lat="45.8558143" lon="11.7846685"><ele>1290.0</ele><time>2026-04-06T07:14:24.628Z</time></trkpt><trkpt lat="45.8558457" lon="11.7847871"><ele>1290.857142857143</ele><time>2026-04-06T07:14:25.619Z</time></trkpt><trkpt lat="45.855886" lon="11.7849007"><ele>1291.7142857142856</ele><time>2026-04-06T07:14:26.617Z</time></trkpt><trkpt lat="45.8559166" lon="11.7850112"><ele>1292.5714285714284</ele><time>2026-04-06T07:14:27.626Z</time></trkpt><trkpt lat="45.8559435" lon="11.7851146"><ele>1293.4285714285716</ele><time>2026-04-06T07:14:28.628Z</time></trkpt><trkpt lat="45.8559635" lon="11.7852102"><ele>1294.2857142857142</ele><time>2026-04-06T07:14:29.617Z</time></trkpt><trkpt lat="45.8559831" lon="11.7852978"><ele>1295.142857142857</ele><time>2026-04-06T07:14:30.627Z</time></trkpt><trkpt lat="45.8560023" lon="11.785385"><ele>1296.0</ele><time>2026-04-06T07:14:31.613Z</time></trkpt><trkpt lat="45.856034" lon="11.7855131"><ele>1296.0</ele><time>2026-04-06T07:14:33.611Z</time></trkpt><trkpt lat="45.856054" lon="11.7856244"><ele>1296.0</ele><time>2026-04-06T07:14:35.622Z</time></trkpt><trkpt lat="45.8559737" lon="11.7856514"><ele>1296.0</ele><time>2026-04-06T07:14:38.618Z</time></trkpt><trkpt lat="45.8559066" lon="11.7856082"><ele>1296.0</ele><time>2026-04-06T07:14:40.617Z</time></trkpt><trkpt lat="45.8558451" lon="11.7855768"><ele>1296.0</ele><time>2026-04-06T07:14:42.621Z</time></trkpt><trkpt lat="45.8558755" lon="11.7856918"><ele>1296.0</ele><time>2026-04-06T07:14:50.628Z</time></trkpt><trkpt lat="45.8559376" lon="11.7857727"><ele>1296.0</ele><time>2026-04-06T07:14:52.622Z</time></trkpt><trkpt lat="45.8559795" lon="11.7858996"><ele>1296.0</ele><time>2026-04-06T07:14:54.629Z</time></trkpt><trkpt lat="45.8560271" lon="11.7860621"><ele>1296.0</ele><time>2026-04-06T07:14:56.627Z</time></trkpt><trkpt lat="45.8560542" lon="11.7862028"><ele>1296.0</ele><time>2026-04-06T07:14:58.627Z</time></trkpt><trkpt lat="45.8560655" lon="11.7863108"><ele>1296.0</ele><time>2026-04-06T07:15:00.621Z</time></trkpt><trkpt lat="45.856073" lon="11.7864027"><ele>1297.0</ele><time>2026-04-06T07:15:06.609Z</time></trkpt><trkpt lat="45.8561044" lon="11.7865015"><ele>1298.0</ele><time>2026-04-06T07:15:09.621Z</time></trkpt><trkpt lat="45.8561478" lon="11.7865885"><ele>1299.0</ele><time>2026-04-06T07:15:12.614Z</time></trkpt><trkpt lat="45.8562056" lon="11.7866316"><ele>1300.0</ele><time>2026-04-06T07:15:14.622Z</time></trkpt><trkpt lat="45.8562546" lon="11.7867025"><ele>1301.0</ele><time>2026-04-06T07:15:16.609Z</time></trkpt><trkpt lat="45.8563218" lon="11.7867843"><ele>1302.0</ele><time>2026-04-06T07:15:20.785Z</time></trkpt><trkpt lat="45.8563819" lon="11.7868916"><ele>1302.0</ele><time>2026-04-06T07:15:23.617Z</time></trkpt><trkpt lat="45.8564141" lon="11.7869754"><ele>1302.0</ele><time>2026-04-06T07:15:25.616Z</time></trkpt><trkpt lat="45.8564612" lon="11.7870547"><ele>1302.0</ele><time>2026-04-06T07:15:34.614Z</time></trkpt><trkpt lat="45.8564233" lon="11.7869662"><ele>1302.0</ele><time>2026-04-06T07:16:10.61Z</time></trkpt><trkpt lat="45.8563959" lon="11.7868659"><ele>1302.0</ele><time>2026-04-06T07:16:12.612Z</time></trkpt><trkpt lat="45.8563591" lon="11.7867536"><ele>1302.0</ele><time>2026-04-06T07:16:14.612Z</time></trkpt><trkpt lat="45.8563119" lon="11.7866487"><ele>1302.0</ele><time>2026-04-06T07:16:16.62Z</time></trkpt><trkpt lat="45.8562495" lon="11.7865729"><ele>1302.0</ele><time>2026-04-06T07:16:18.623Z</time></trkpt><trkpt lat="45.856154" lon="11.7865011"><ele>1302.0</ele><time>2026-04-06T07:16:20.62Z</time></trkpt><trkpt lat="45.8560801" lon="11.7864285"><ele>1302.0</ele><time>2026-04-06T07:16:22.612Z</time></trkpt><trkpt lat="45.8560365" lon="11.7863441"><ele>1302.0</ele><time>2026-04-06T07:16:24.616Z</time></trkpt><trkpt lat="45.8559936" lon="11.7862266"><ele>1302.0</ele><time>2026-04-06T07:16:26.614Z</time></trkpt><trkpt lat="45.85596" lon="11.7860879"><ele>1301.0</ele><time>2026-04-06T07:16:28.617Z</time></trkpt><trkpt lat="45.8559339" lon="11.7859291"><ele>1300.0</ele><time>2026-04-06T07:16:30.632Z</time></trkpt><trkpt lat="45.8559505" lon="11.7858202"><ele>1299.0</ele><time>2026-04-06T07:16:32.613Z</time></trkpt><trkpt lat="45.8560194" lon="11.7857695"><ele>1298.0</ele><time>2026-04-06T07:16:35.621Z</time></trkpt><trkpt lat="45.8560976" lon="11.7856888"><ele>1297.0</ele><time>2026-04-06T07:16:37.616Z</time></trkpt><trkpt lat="45.8561549" lon="11.7856084"><ele>1296.0</ele><time>2026-04-06T07:16:39.616Z</time></trkpt><trkpt lat="45.856232" lon="11.7855913"><ele>1296.0</ele><time>2026-04-06T07:16:41.622Z</time></trkpt><trkpt lat="45.8563014" lon="11.7855965"><ele>1296.0</ele><time>2026-04-06T07:16:43.618Z</time></trkpt><trkpt lat="45.8563694" lon="11.7855893"><ele>1296.0</ele><time>2026-04-06T07:16:45.612Z</time></trkpt><trkpt lat="45.8563219" lon="11.7855274"><ele>1296.0</ele><time>2026-04-06T07:17:07.612Z</time></trkpt><trkpt lat="45.8562784" lon="11.7856188"><ele>1296.0</ele><time>2026-04-06T07:17:13.617Z</time></trkpt><trkpt lat="45.8561885" lon="11.7856797"><ele>1296.0</ele><time>2026-04-06T07:17:16.614Z</time></trkpt><trkpt lat="45.8560965" lon="11.7856947"><ele>1296.0</ele><time>2026-04-06T07:17:18.61Z</time></trkpt><trkpt lat="45.8560051" lon="11.7856893"><ele>1296.0</ele><time>2026-04-06T07:17:20.618Z</time></trkpt><trkpt lat="45.8559109" lon="11.7856557"><ele>1296.0</ele><time>2026-04-06T07:17:22.608Z</time></trkpt><trkpt lat="45.8558434" lon="11.7855723"><ele>1296.0</ele><time>2026-04-06T07:17:24.61Z</time></trkpt><trkpt lat="45.8557534" lon="11.7854813"><ele>1296.0</ele><time>2026-04-06T07:17:26.629Z</time></trkpt><trkpt lat="45.8557064" lon="11.785414"><ele>1293.3333333333333</ele><time>2026-04-06T07:17:27.61Z</time></trkpt><trkpt lat="45.8556614" lon="11.7853314"><ele>1290.6666666666667</ele><time>2026-04-06T07:17:28.612Z</time></trkpt><trkpt lat="45.8556196" lon="11.7852568"><ele>1288.0</ele><time>2026-04-06T07:17:29.615Z</time></trkpt><trkpt lat="45.8555216" lon="11.7851567"><ele>1285.3333333333335</ele><time>2026-04-06T07:17:31.614Z</time></trkpt><trkpt lat="45.855423" lon="11.7851092"><ele>1282.6666666666667</ele><time>2026-04-06T07:17:33.623Z</time></trkpt><trkpt lat="45.8553439" lon="11.7850707"><ele>1280.0</ele><time>2026-04-06T07:17:35.614Z</time></trkpt><trkpt lat="45.8552515" lon="11.785061"><ele>1280.0</ele><time>2026-04-06T07:17:37.618Z</time></trkpt><trkpt lat="45.8551821" lon="11.7850738"><ele>1280.0</ele><time>2026-04-06T07:17:38.618Z</time></trkpt><trkpt lat="45.8551113" lon="11.7850916"><ele>1280.0</ele><time>2026-04-06T07:17:39.613Z</time></trkpt><trkpt lat="45.8550476" lon="11.7851157"><ele>1280.0</ele><time>2026-04-06T07:17:40.618Z</time></trkpt><trkpt lat="45.8549393" lon="11.7851736"><ele>1280.0</ele><time>2026-04-06T07:17:42.613Z</time></trkpt><trkpt lat="45.8548656" lon="11.7852525"><ele>1280.0</ele><time>2026-04-06T07:17:44.618Z</time></trkpt><trkpt lat="45.854864" lon="11.7853581"><ele>1278.0</ele><time>2026-04-06T07:17:46.615Z</time></trkpt><trkpt lat="45.854898" lon="11.7855344"><ele>1276.0</ele><time>2026-04-06T07:17:48.62Z</time></trkpt><trkpt lat="45.8548956" lon="11.7856268"><ele>1274.0</ele><time>2026-04-06T07:17:49.616Z</time></trkpt><trkpt lat="45.8548738" lon="11.7857712"><ele>1272.0</ele><time>2026-04-06T07:17:51.624Z</time></trkpt><trkpt lat="45.8548273" lon="11.78588"><ele>1270.0</ele><time>2026-04-06T07:17:53.614Z</time></trkpt><trkpt lat="45.8547809" lon="11.7859769"><ele>1272.0</ele><time>2026-04-06T07:17:55.609Z</time></trkpt><trkpt lat="45.8547092" lon="11.7860269"><ele>1274.0</ele><time>2026-04-06T07:17:58.613Z</time></trkpt><trkpt lat="45.8546444" lon="11.7860287"><ele>1276.0</ele><time>2026-04-06T07:18:00.616Z</time></trkpt><trkpt lat="45.8545512" lon="11.7860584"><ele>1278.0</ele><time>2026-04-06T07:18:02.615Z</time></trkpt><trkpt lat="45.8544723" lon="11.7861034"><ele>1280.0</ele><time>2026-04-06T07:18:04.639Z</time></trkpt><trkpt lat="45.8544108" lon="11.7861418"><ele>1282.0</ele><time>2026-04-06T07:18:10.614Z</time></trkpt><trkpt lat="45.8544793" lon="11.7860768"><ele>1280.0</ele><time>2026-04-06T07:18:24.636Z</time></trkpt><trkpt lat="45.8545419" lon="11.7859273"><ele>1278.0</ele><time>2026-04-06T07:18:26.635Z</time></trkpt><trkpt lat="45.854588" lon="11.7858208"><ele>1276.0</ele><time>2026-04-06T07:18:27.618Z</time></trkpt><trkpt lat="45.8546338" lon="11.7857384"><ele>1274.0</ele><time>2026-04-06T07:18:28.62Z</time></trkpt><trkpt lat="45.854674" lon="11.7856462"><ele>1272.0</ele><time>2026-04-06T07:18:29.638Z</time></trkpt><trkpt lat="45.8547093" lon="11.7855545"><ele>1270.0</ele><time>2026-04-06T07:18:30.639Z</time></trkpt><trkpt lat="45.85473" lon="11.7853981"><ele>1270.0</ele><time>2026-04-06T07:18:32.612Z</time></trkpt><trkpt lat="45.8547174" lon="11.7853031"><ele>1270.0</ele><time>2026-04-06T07:18:43.61Z</time></trkpt><trkpt lat="45.8546943" lon="11.7852085"><ele>1270.0</ele><time>2026-04-06T07:18:46.605Z</time></trkpt><trkpt lat="45.8546052" lon="11.7851649"><ele>1270.0</ele><time>2026-04-06T07:18:49.608Z</time></trkpt><trkpt lat="45.8545374" lon="11.7851322"><ele>1270.0</ele><time>2026-04-06T07:18:51.614Z</time></trkpt><trkpt lat="45.8544738" lon="11.785052"><ele>1270.0</ele><time>2026-04-06T07:18:53.622Z</time></trkpt><trkpt lat="45.8544095" lon="11.7849454"><ele>1269.0</ele><time>2026-04-06T07:18:55.605Z</time></trkpt><trkpt lat="45.854342" lon="11.7848531"><ele>1268.0</ele><time>2026-04-06T07:18:57.776Z</time></trkpt><trkpt lat="45.8542642" lon="11.7847912"><ele>1267.0</ele><time>2026-04-06T07:18:59.618Z</time></trkpt><trkpt lat="45.854145" lon="11.7848572"><ele>1266.0</ele><time>2026-04-06T07:19:01.608Z</time></trkpt><trkpt lat="45.8540814" lon="11.784935"><ele>1265.0</ele><time>2026-04-06T07:19:02.619Z</time></trkpt><trkpt lat="45.8540175" lon="11.7850279"><ele>1264.6</ele><time>2026-04-06T07:19:03.622Z</time></trkpt><trkpt lat="45.8539596" lon="11.7851423"><ele>1264.2</ele><time>2026-04-06T07:19:04.611Z</time></trkpt><trkpt lat="45.8539146" lon="11.7852729"><ele>1263.8</ele><time>2026-04-06T07:19:05.613Z</time></trkpt><trkpt lat="45.8538636" lon="11.7854199"><ele>1263.4</ele><time>2026-04-06T07:19:06.62Z</time></trkpt><trkpt lat="45.8538265" lon="11.7855471"><ele>1263.0</ele><time>2026-04-06T07:19:07.607Z</time></trkpt><trkpt lat="45.8538036" lon="11.7856595"><ele>1263.0</ele><time>2026-04-06T07:19:08.609Z</time></trkpt><trkpt lat="45.853807" lon="11.7857592"><ele>1263.0</ele><time>2026-04-06T07:19:09.609Z</time></trkpt><trkpt lat="45.8538048" lon="11.7858831"><ele>1263.0</ele><time>2026-04-06T07:19:10.613Z</time></trkpt><trkpt lat="45.853807" lon="11.7860238"><ele>1263.0</ele><time>2026-04-06T07:19:11.612Z</time></trkpt><trkpt lat="45.8538092" lon="11.7861655"><ele>1263.0</ele><time>2026-04-06T07:19:12.605Z</time></trkpt><trkpt lat="45.8538196" lon="11.7862913"><ele>1263.0</ele><time>2026-04-06T07:19:13.612Z</time></trkpt><trkpt lat="45.8538404" lon="11.7864146"><ele>1263.8</ele><time>2026-04-06T07:19:14.615Z</time></trkpt><trkpt lat="45.8538602" lon="11.7865503"><ele>1264.6</ele><time>2026-04-06T07:19:15.61Z</time></trkpt><trkpt lat="45.8538897" lon="11.7866873"><ele>1265.4</ele><time>2026-04-06T07:19:16.614Z</time></trkpt><trkpt lat="45.8539222" lon="11.7868309"><ele>1266.2</ele><time>2026-04-06T07:19:17.611Z</time></trkpt><trkpt lat="45.85395" lon="11.7869705"><ele>1267.0</ele><time>2026-04-06T07:19:18.61Z</time></trkpt><trkpt lat="45.8539761" lon="11.7871053"><ele>1268.4</ele><time>2026-04-06T07:19:19.609Z</time></trkpt><trkpt lat="45.853999" lon="11.78725"><ele>1269.8000000000002</ele><time>2026-04-06T07:19:20.608Z</time></trkpt><trkpt lat="45.8539998" lon="11.7873956"><ele>1271.2</ele><time>2026-04-06T07:19:21.611Z</time></trkpt><trkpt lat="45.8539984" lon="11.7875483"><ele>1272.6000000000001</ele><time>2026-04-06T07:19:22.609Z</time></trkpt><trkpt lat="45.853987" lon="11.7876906"><ele>1274.0</ele><time>2026-04-06T07:19:23.618Z</time></trkpt><trkpt lat="45.8539783" lon="11.7878135"><ele>1274.8</ele><time>2026-04-06T07:19:24.608Z</time></trkpt><trkpt lat="45.8539885" lon="11.7879291"><ele>1275.6000000000001</ele><time>2026-04-06T07:19:25.612Z</time></trkpt><trkpt lat="45.8540161" lon="11.7880498"><ele>1276.4</ele><time>2026-04-06T07:19:26.609Z</time></trkpt><trkpt lat="45.8540689" lon="11.7881723"><ele>1277.2</ele><time>2026-04-06T07:19:27.613Z</time></trkpt><trkpt lat="45.8541211" lon="11.788304"><ele>1278.0</ele><time>2026-04-06T07:19:28.613Z</time></trkpt><trkpt lat="45.8541712" lon="11.7884339"><ele>1279.4</ele><time>2026-04-06T07:19:29.626Z</time></trkpt><trkpt lat="45.8542073" lon="11.7885565"><ele>1280.8</ele><time>2026-04-06T07:19:30.607Z</time></trkpt><trkpt lat="45.8542179" lon="11.7886814"><ele>1282.2</ele><time>2026-04-06T07:19:31.616Z</time></trkpt><trkpt lat="45.8542147" lon="11.7888092"><ele>1283.6</ele><time>2026-04-06T07:19:32.611Z</time></trkpt><trkpt lat="45.8542063" lon="11.7889447"><ele>1285.0</ele><time>2026-04-06T07:19:33.614Z</time></trkpt><trkpt lat="45.8541823" lon="11.7890831"><ele>1285.0</ele><time>2026-04-06T07:19:34.618Z</time></trkpt><trkpt lat="45.8541422" lon="11.7892221"><ele>1285.0</ele><time>2026-04-06T07:19:35.609Z</time></trkpt><trkpt lat="45.8541026" lon="11.7893439"><ele>1285.0</ele><time>2026-04-06T07:19:36.612Z</time></trkpt><trkpt lat="45.8540662" lon="11.7894494"><ele>1285.0</ele><time>2026-04-06T07:19:37.609Z</time></trkpt><trkpt lat="45.8540354" lon="11.7895408"><ele>1285.0</ele><time>2026-04-06T07:19:38.613Z</time></trkpt><trkpt lat="45.8539819" lon="11.7896819"><ele>1286.5</ele><time>2026-04-06T07:19:40.606Z</time></trkpt><trkpt lat="45.8539029" lon="11.7897703"><ele>1288.0</ele><time>2026-04-06T07:19:42.611Z</time></trkpt><trkpt lat="45.8538374" lon="11.7898108"><ele>1289.5</ele><time>2026-04-06T07:19:43.608Z</time></trkpt><trkpt lat="45.8537424" lon="11.7898592"><ele>1291.0</ele><time>2026-04-06T07:19:44.61Z</time></trkpt><trkpt lat="45.8536624" lon="11.7899185"><ele>1292.5</ele><time>2026-04-06T07:19:45.604Z</time></trkpt><trkpt lat="45.8535831" lon="11.7899646"><ele>1294.0</ele><time>2026-04-06T07:19:46.611Z</time></trkpt><trkpt lat="45.8535257" lon="11.7900312"><ele>1294.0</ele><time>2026-04-06T07:19:47.613Z</time></trkpt><trkpt lat="45.8534714" lon="11.7901085"><ele>1294.0</ele><time>2026-04-06T07:19:48.642Z</time></trkpt><trkpt lat="45.8534063" lon="11.7902033"><ele>1294.0</ele><time>2026-04-06T07:19:49.635Z</time></trkpt><trkpt lat="45.8533591" lon="11.7903119"><ele>1294.0</ele><time>2026-04-06T07:19:50.604Z</time></trkpt><trkpt lat="45.8533077" lon="11.7904157"><ele>1294.0</ele><time>2026-04-06T07:19:51.618Z</time></trkpt><trkpt lat="45.8532644" lon="11.7905011"><ele>1294.0</ele><time>2026-04-06T07:19:52.611Z</time></trkpt><trkpt lat="45.8532373" lon="11.7905942"><ele>1295.8000000000002</ele><time>2026-04-06T07:19:53.627Z</time></trkpt><trkpt lat="45.8532319" lon="11.790688"><ele>1297.6000000000001</ele><time>2026-04-06T07:19:54.609Z</time></trkpt><trkpt lat="45.8532392" lon="11.7908092"><ele>1299.4</ele><time>2026-04-06T07:19:55.619Z</time></trkpt><trkpt lat="45.8532763" lon="11.7909654"><ele>1301.2</ele><time>2026-04-06T07:19:56.612Z</time></trkpt><trkpt lat="45.8533121" lon="11.7911509"><ele>1303.0</ele><time>2026-04-06T07:19:57.611Z</time></trkpt><trkpt lat="45.8533562" lon="11.791337"><ele>1303.6000000000001</ele><time>2026-04-06T07:19:58.614Z</time></trkpt><trkpt lat="45.8533971" lon="11.7915088"><ele>1304.2</ele><time>2026-04-06T07:19:59.62Z</time></trkpt><trkpt lat="45.8534372" lon="11.7916734"><ele>1304.8</ele><time>2026-04-06T07:20:00.611Z</time></trkpt><trkpt lat="45.8534581" lon="11.7917849"><ele>1305.4</ele><time>2026-04-06T07:20:01.601Z</time></trkpt><trkpt lat="45.8534639" lon="11.7919002"><ele>1306.0</ele><time>2026-04-06T07:20:02.612Z</time></trkpt><trkpt lat="45.8534257" lon="11.7920317"><ele>1307.3333333333333</ele><time>2026-04-06T07:20:03.617Z</time></trkpt><trkpt lat="45.8533767" lon="11.7921634"><ele>1308.6666666666665</ele><time>2026-04-06T07:20:04.611Z</time></trkpt><trkpt lat="45.8533332" lon="11.7922783"><ele>1310.0</ele><time>2026-04-06T07:20:05.615Z</time></trkpt><trkpt lat="45.8533002" lon="11.792373"><ele>1311.3333333333333</ele><time>2026-04-06T07:20:06.601Z</time></trkpt><trkpt lat="45.8532683" lon="11.7924564"><ele>1312.6666666666667</ele><time>2026-04-06T07:20:07.618Z</time></trkpt><trkpt lat="45.8532285" lon="11.7925758"><ele>1314.0</ele><time>2026-04-06T07:20:09.615Z</time></trkpt><trkpt lat="45.8532089" lon="11.7926895"><ele>1314.6</ele><time>2026-04-06T07:20:11.61Z</time></trkpt><trkpt lat="45.8532392" lon="11.7928195"><ele>1315.2</ele><time>2026-04-06T07:20:13.613Z</time></trkpt><trkpt lat="45.853304" lon="11.7929782"><ele>1315.8</ele><time>2026-04-06T07:20:15.618Z</time></trkpt><trkpt lat="45.8533496" lon="11.7930637"><ele>1316.3999999999999</ele><time>2026-04-06T07:20:16.611Z</time></trkpt><trkpt lat="45.8533961" lon="11.7931641"><ele>1317.0</ele><time>2026-04-06T07:20:17.609Z</time></trkpt><trkpt lat="45.8534348" lon="11.7932754"><ele>1317.0</ele><time>2026-04-06T07:20:18.613Z</time></trkpt><trkpt lat="45.8534536" lon="11.793385"><ele>1317.0</ele><time>2026-04-06T07:20:19.618Z</time></trkpt><trkpt lat="45.8534585" lon="11.7935014"><ele>1317.0</ele><time>2026-04-06T07:20:20.61Z</time></trkpt><trkpt lat="45.853451" lon="11.7936367"><ele>1317.0</ele><time>2026-04-06T07:20:21.614Z</time></trkpt><trkpt lat="45.8534392" lon="11.7937899"><ele>1317.0</ele><time>2026-04-06T07:20:22.614Z</time></trkpt><trkpt lat="45.8534235" lon="11.7939527"><ele>1318.5</ele><time>2026-04-06T07:20:23.631Z</time></trkpt><trkpt lat="45.8534072" lon="11.7941213"><ele>1320.0</ele><time>2026-04-06T07:20:24.617Z</time></trkpt><trkpt lat="45.8533911" lon="11.7942868"><ele>1321.5</ele><time>2026-04-06T07:20:25.615Z</time></trkpt><trkpt lat="45.8533692" lon="11.7944549"><ele>1323.0</ele><time>2026-04-06T07:20:26.616Z</time></trkpt><trkpt lat="45.8533454" lon="11.7946254"><ele>1326.6666666666667</ele><time>2026-04-06T07:20:27.638Z</time></trkpt><trkpt lat="45.853313" lon="11.7948087"><ele>1330.3333333333335</ele><time>2026-04-06T07:20:28.643Z</time></trkpt><trkpt lat="45.853262" lon="11.7950138"><ele>1334.0</ele><time>2026-04-06T07:20:29.617Z</time></trkpt><trkpt lat="45.8531916" lon="11.7952332"><ele>1336.5</ele><time>2026-04-06T07:20:30.61Z</time></trkpt><trkpt lat="45.8531394" lon="11.7954169"><ele>1339.0</ele><time>2026-04-06T07:20:31.605Z</time></trkpt><trkpt lat="45.8531268" lon="11.7956044"><ele>1341.5</ele><time>2026-04-06T07:20:32.612Z</time></trkpt><trkpt lat="45.8531205" lon="11.795794"><ele>1344.0</ele><time>2026-04-06T07:20:33.605Z</time></trkpt><trkpt lat="45.8531359" lon="11.7959346"><ele>1345.0</ele><time>2026-04-06T07:20:34.609Z</time></trkpt><trkpt lat="45.8531082" lon="11.7960805"><ele>1346.0</ele><time>2026-04-06T07:20:36.611Z</time></trkpt><trkpt lat="45.8530832" lon="11.7961756"><ele>1347.0</ele><time>2026-04-06T07:20:37.616Z</time></trkpt><trkpt lat="45.8530563" lon="11.7962784"><ele>1348.0</ele><time>2026-04-06T07:20:38.603Z</time></trkpt><trkpt lat="45.8530195" lon="11.7963915"><ele>1349.0</ele><time>2026-04-06T07:20:39.617Z</time></trkpt><trkpt lat="45.85299" lon="11.7964966"><ele>1350.0</ele><time>2026-04-06T07:20:40.613Z</time></trkpt><trkpt lat="45.8529636" lon="11.7966132"><ele>1350.0</ele><time>2026-04-06T07:20:41.613Z</time></trkpt><trkpt lat="45.8529586" lon="11.796738"><ele>1350.0</ele><time>2026-04-06T07:20:42.617Z</time></trkpt><trkpt lat="45.8529715" lon="11.7968777"><ele>1350.0</ele><time>2026-04-06T07:20:43.612Z</time></trkpt><trkpt lat="45.8529815" lon="11.7970299"><ele>1350.0</ele><time>2026-04-06T07:20:44.617Z</time></trkpt><trkpt lat="45.85299" lon="11.7971888"><ele>1350.0</ele><time>2026-04-06T07:20:45.616Z</time></trkpt><trkpt lat="45.8529921" lon="11.797366"><ele>1350.0</ele><time>2026-04-06T07:20:46.609Z</time></trkpt><trkpt lat="45.852986" lon="11.7975248"><ele>1350.0</ele><time>2026-04-06T07:20:47.603Z</time></trkpt><trkpt lat="45.8529799" lon="11.7976519"><ele>1350.0</ele><time>2026-04-06T07:20:48.613Z</time></trkpt><trkpt lat="45.8529536" lon="11.7977899"><ele>1350.0</ele><time>2026-04-06T07:20:50.616Z</time></trkpt><trkpt lat="45.852868" lon="11.7978132"><ele>1350.0</ele><time>2026-04-06T07:20:53.625Z</time></trkpt><trkpt lat="45.8527747" lon="11.797679"><ele>1350.0</ele><time>2026-04-06T07:20:55.616Z</time></trkpt><trkpt lat="45.8527479" lon="11.7975683"><ele>1350.0</ele><time>2026-04-06T07:20:56.613Z</time></trkpt><trkpt lat="45.852733" lon="11.7974652"><ele>1350.0</ele><time>2026-04-06T07:20:57.627Z</time></trkpt><trkpt lat="45.852724" lon="11.7973526"><ele>1350.0</ele><time>2026-04-06T07:20:58.622Z</time></trkpt><trkpt lat="45.8527178" lon="11.7971891"><ele>1350.0</ele><time>2026-04-06T07:20:59.62Z</time></trkpt><trkpt lat="45.8527012" lon="11.7969937"><ele>1350.0</ele><time>2026-04-06T07:21:00.614Z</time></trkpt><trkpt lat="45.8526957" lon="11.7968"><ele>1350.0</ele><time>2026-04-06T07:21:01.611Z</time></trkpt><trkpt lat="45.8526926" lon="11.7965927"><ele>1350.0</ele><time>2026-04-06T07:21:02.609Z</time></trkpt><trkpt lat="45.8527081" lon="11.7963975"><ele>1350.0</ele><time>2026-04-06T07:21:03.617Z</time></trkpt><trkpt lat="45.8527547" lon="11.7962391"><ele>1350.0</ele><time>2026-04-06T07:21:04.607Z</time></trkpt><trkpt lat="45.8528082" lon="11.7960903"><ele>1350.0</ele><time>2026-04-06T07:21:05.615Z</time></trkpt><trkpt lat="45.8528662" lon="11.7959526"><ele>1350.0</ele><time>2026-04-06T07:21:06.614Z</time></trkpt><trkpt lat="45.8528958" lon="11.7958229"><ele>1350.0</ele><time>2026-04-06T07:21:07.606Z</time></trkpt><trkpt lat="45.8529164" lon="11.7956869"><ele>1350.0</ele><time>2026-04-06T07:21:08.611Z</time></trkpt><trkpt lat="45.8529032" lon="11.795561"><ele>1349.0</ele><time>2026-04-06T07:21:09.613Z</time></trkpt><trkpt lat="45.8528771" lon="11.7954406"><ele>1348.0</ele><time>2026-04-06T07:21:10.602Z</time></trkpt><trkpt lat="45.8528203" lon="11.7953345"><ele>1347.0</ele><time>2026-04-06T07:21:11.614Z</time></trkpt><trkpt lat="45.8527622" lon="11.7952297"><ele>1346.0</ele><time>2026-04-06T07:21:12.616Z</time></trkpt><trkpt lat="45.8527113" lon="11.7951252"><ele>1345.0</ele><time>2026-04-06T07:21:13.609Z</time></trkpt><trkpt lat="45.8526697" lon="11.7950169"><ele>1344.0</ele><time>2026-04-06T07:21:14.611Z</time></trkpt><trkpt lat="45.85265" lon="11.7949017"><ele>1343.1666666666667</ele><time>2026-04-06T07:21:15.614Z</time></trkpt><trkpt lat="45.8526359" lon="11.7947881"><ele>1342.3333333333333</ele><time>2026-04-06T07:21:16.612Z</time></trkpt><trkpt lat="45.8526251" lon="11.7946851"><ele>1341.5</ele><time>2026-04-06T07:21:17.629Z</time></trkpt><trkpt lat="45.852553" lon="11.794562"><ele>1340.6666666666665</ele><time>2026-04-06T07:21:19.61Z</time></trkpt><trkpt lat="45.8524781" lon="11.7945654"><ele>1339.8333333333333</ele><time>2026-04-06T07:21:20.62Z</time></trkpt><trkpt lat="45.8523876" lon="11.7945942"><ele>1339.0</ele><time>2026-04-06T07:21:21.614Z</time></trkpt><trkpt lat="45.8522929" lon="11.7946152"><ele>1339.0</ele><time>2026-04-06T07:21:22.607Z</time></trkpt><trkpt lat="45.8521922" lon="11.7946304"><ele>1339.0</ele><time>2026-04-06T07:21:23.619Z</time></trkpt><trkpt lat="45.8521081" lon="11.7946456"><ele>1339.0</ele><time>2026-04-06T07:21:24.597Z</time></trkpt><trkpt lat="45.8520238" lon="11.7946133"><ele>1339.0</ele><time>2026-04-06T07:21:25.616Z</time></trkpt><trkpt lat="45.8519697" lon="11.7945344"><ele>1339.0</ele><time>2026-04-06T07:21:26.612Z</time></trkpt><trkpt lat="45.8519143" lon="11.7944611"><ele>1339.0</ele><time>2026-04-06T07:21:27.606Z</time></trkpt><trkpt lat="45.8518674" lon="11.7943593"><ele>1338.8333333333333</ele><time>2026-04-06T07:21:28.612Z</time></trkpt><trkpt lat="45.8517963" lon="11.7942858"><ele>1338.6666666666665</ele><time>2026-04-06T07:21:29.616Z</time></trkpt><trkpt lat="45.8517306" lon="11.7942266"><ele>1338.5</ele><time>2026-04-06T07:21:30.609Z</time></trkpt><trkpt lat="45.8516651" lon="11.7941786"><ele>1338.3333333333333</ele><time>2026-04-06T07:21:31.613Z</time></trkpt><trkpt lat="45.8515906" lon="11.7942042"><ele>1338.1666666666667</ele><time>2026-04-06T07:21:32.606Z</time></trkpt><trkpt lat="45.8515068" lon="11.7942722"><ele>1338.0</ele><time>2026-04-06T07:21:33.61Z</time></trkpt><trkpt lat="45.8514279" lon="11.7943042"><ele>1338.0</ele><time>2026-04-06T07:21:34.596Z</time></trkpt><trkpt lat="45.8513448" lon="11.7943336"><ele>1338.0</ele><time>2026-04-06T07:21:35.616Z</time></trkpt><trkpt lat="45.8512768" lon="11.7943082"><ele>1338.0</ele><time>2026-04-06T07:21:36.598Z</time></trkpt><trkpt lat="45.8512091" lon="11.7942477"><ele>1338.0</ele><time>2026-04-06T07:21:37.609Z</time></trkpt><trkpt lat="45.8511185" lon="11.7941855"><ele>1338.0</ele><time>2026-04-06T07:21:38.614Z</time></trkpt><trkpt lat="45.8510449" lon="11.794132"><ele>1338.0</ele><time>2026-04-06T07:21:39.603Z</time></trkpt><trkpt lat="45.8509761" lon="11.7941249"><ele>1338.0</ele><time>2026-04-06T07:21:40.615Z</time></trkpt><trkpt lat="45.8508693" lon="11.7941329"><ele>1338.0</ele><time>2026-04-06T07:21:42.635Z</time></trkpt><trkpt lat="45.8508069" lon="11.794162"><ele>1338.0</ele><time>2026-04-06T07:21:43.624Z</time></trkpt><trkpt lat="45.8507376" lon="11.7942015"><ele>1338.0</ele><time>2026-04-06T07:21:44.61Z</time></trkpt><trkpt lat="45.8506574" lon="11.7942579"><ele>1338.0</ele><time>2026-04-06T07:21:45.606Z</time></trkpt><trkpt lat="45.8505621" lon="11.7943267"><ele>1338.0</ele><time>2026-04-06T07:21:46.604Z</time></trkpt><trkpt lat="45.8504741" lon="11.7944028"><ele>1337.0</ele><time>2026-04-06T07:21:47.605Z</time></trkpt><trkpt lat="45.8503889" lon="11.7944621"><ele>1336.0</ele><time>2026-04-06T07:21:48.607Z</time></trkpt><trkpt lat="45.8502869" lon="11.7944895"><ele>1335.0</ele><time>2026-04-06T07:21:49.598Z</time></trkpt><trkpt lat="45.850189" lon="11.7944985"><ele>1334.0</ele><time>2026-04-06T07:21:50.602Z</time></trkpt><trkpt lat="45.8500919" lon="11.7945092"><ele>1333.0</ele><time>2026-04-06T07:21:51.593Z</time></trkpt><trkpt lat="45.849976" lon="11.7944738"><ele>1332.4</ele><time>2026-04-06T07:21:52.602Z</time></trkpt><trkpt lat="45.8498579" lon="11.7944303"><ele>1331.8000000000002</ele><time>2026-04-06T07:21:53.603Z</time></trkpt><trkpt lat="45.8497592" lon="11.7943794"><ele>1331.2</ele><time>2026-04-06T07:21:54.599Z</time></trkpt><trkpt lat="45.8496678" lon="11.794334"><ele>1330.6</ele><time>2026-04-06T07:21:55.612Z</time></trkpt><trkpt lat="45.8495914" lon="11.7942918"><ele>1330.0</ele><time>2026-04-06T07:21:56.61Z</time></trkpt><trkpt lat="45.849526" lon="11.7942254"><ele>1333.2</ele><time>2026-04-06T07:21:57.609Z</time></trkpt><trkpt lat="45.8494478" lon="11.7941678"><ele>1336.4</ele><time>2026-04-06T07:21:58.615Z</time></trkpt><trkpt lat="45.8493624" lon="11.7941211"><ele>1339.6</ele><time>2026-04-06T07:21:59.616Z</time></trkpt><trkpt lat="45.8492749" lon="11.794087"><ele>1342.8</ele><time>2026-04-06T07:22:00.612Z</time></trkpt><trkpt lat="45.8491997" lon="11.7940561"><ele>1346.0</ele><time>2026-04-06T07:22:01.609Z</time></trkpt><trkpt lat="45.849072" lon="11.7940169"><ele>1346.2857142857144</ele><time>2026-04-06T07:22:03.618Z</time></trkpt><trkpt lat="45.8490068" lon="11.7939742"><ele>1346.5714285714284</ele><time>2026-04-06T07:22:04.612Z</time></trkpt><trkpt lat="45.8489408" lon="11.7939366"><ele>1346.857142857143</ele><time>2026-04-06T07:22:05.613Z</time></trkpt><trkpt lat="45.8488785" lon="11.7939007"><ele>1347.1428571428573</ele><time>2026-04-06T07:22:06.607Z</time></trkpt><trkpt lat="45.848819" lon="11.7938641"><ele>1347.4285714285716</ele><time>2026-04-06T07:22:07.609Z</time></trkpt><trkpt lat="45.8487586" lon="11.7938208"><ele>1347.7142857142858</ele><time>2026-04-06T07:22:08.61Z</time></trkpt><trkpt lat="45.8487046" lon="11.7937583"><ele>1348.0</ele><time>2026-04-06T07:22:09.612Z</time></trkpt><trkpt lat="45.8486387" lon="11.7936904"><ele>1348.0</ele><time>2026-04-06T07:22:10.609Z</time></trkpt><trkpt lat="45.8485861" lon="11.7936124"><ele>1348.0</ele><time>2026-04-06T07:22:11.613Z</time></trkpt><trkpt lat="45.8485381" lon="11.7935455"><ele>1348.0</ele><time>2026-04-06T07:22:12.614Z</time></trkpt><trkpt lat="45.8484681" lon="11.7933901"><ele>1348.0</ele><time>2026-04-06T07:22:14.609Z</time></trkpt><trkpt lat="45.848403" lon="11.7932695"><ele>1348.0</ele><time>2026-04-06T07:22:16.602Z</time></trkpt><trkpt lat="45.8483419" lon="11.7932023"><ele>1348.0</ele><time>2026-04-06T07:22:18.609Z</time></trkpt><trkpt lat="45.8482659" lon="11.7931636"><ele>1348.0</ele><time>2026-04-06T07:22:20.612Z</time></trkpt><trkpt lat="45.8481511" lon="11.7931019"><ele>1348.0</ele><time>2026-04-06T07:22:22.603Z</time></trkpt><trkpt lat="45.8480878" lon="11.7930396"><ele>1348.0</ele><time>2026-04-06T07:22:23.607Z</time></trkpt><trkpt lat="45.8480199" lon="11.7929729"><ele>1348.0</ele><time>2026-04-06T07:22:24.611Z</time></trkpt><trkpt lat="45.8479557" lon="11.7929061"><ele>1348.0</ele><time>2026-04-06T07:22:25.611Z</time></trkpt><trkpt lat="45.8478901" lon="11.792833"><ele>1348.0</ele><time>2026-04-06T07:22:26.6Z</time></trkpt><trkpt lat="45.8478256" lon="11.7927679"><ele>1348.0</ele><time>2026-04-06T07:22:27.612Z</time></trkpt><trkpt lat="45.8477544" lon="11.7927061"><ele>1348.0</ele><time>2026-04-06T07:22:28.606Z</time></trkpt><trkpt lat="45.8476858" lon="11.7926634"><ele>1348.0</ele><time>2026-04-06T07:22:29.61Z</time></trkpt><trkpt lat="45.8475879" lon="11.7926241"><ele>1348.0</ele><time>2026-04-06T07:22:31.611Z</time></trkpt><trkpt lat="45.8475257" lon="11.7926563"><ele>1348.0</ele><time>2026-04-06T07:22:33.599Z</time></trkpt><trkpt lat="45.8475017" lon="11.7927401"><ele>1348.0</ele><time>2026-04-06T07:22:35.6Z</time></trkpt><trkpt lat="45.8475073" lon="11.7928658"><ele>1348.0</ele><time>2026-04-06T07:22:37.611Z</time></trkpt><trkpt lat="45.8475404" lon="11.7929732"><ele>1348.0</ele><time>2026-04-06T07:22:39.604Z</time></trkpt><trkpt lat="45.8475983" lon="11.7931017"><ele>1348.0</ele><time>2026-04-06T07:22:41.6Z</time></trkpt><trkpt lat="45.8476569" lon="11.793217"><ele>1348.0</ele><time>2026-04-06T07:22:43.607Z</time></trkpt><trkpt lat="45.847709" lon="11.7931539"><ele>1348.0</ele><time>2026-04-06T07:23:09.63Z</time></trkpt><trkpt lat="45.8477222" lon="11.7930569"><ele>1348.0</ele><time>2026-04-06T07:23:11.606Z</time></trkpt><trkpt lat="45.8477047" lon="11.7929118"><ele>1348.0</ele><time>2026-04-06T07:23:13.601Z</time></trkpt><trkpt lat="45.8476653" lon="11.7927818"><ele>1348.0</ele><time>2026-04-06T07:23:15.604Z</time></trkpt><trkpt lat="45.8476689" lon="11.7926548"><ele>1348.0</ele><time>2026-04-06T07:23:17.611Z</time></trkpt><trkpt lat="45.8477359" lon="11.7925856"><ele>1348.0</ele><time>2026-04-06T07:23:19.62Z</time></trkpt><trkpt lat="45.8478122" lon="11.7926435"><ele>1348.0</ele><time>2026-04-06T07:23:21.609Z</time></trkpt><trkpt lat="45.8479025" lon="11.7927276"><ele>1348.0</ele><time>2026-04-06T07:23:23.634Z</time></trkpt><trkpt lat="45.8479967" lon="11.7928242"><ele>1348.0</ele><time>2026-04-06T07:23:25.605Z</time></trkpt><trkpt lat="45.8480499" lon="11.7928952"><ele>1348.0</ele><time>2026-04-06T07:23:26.604Z</time></trkpt><trkpt lat="45.8480986" lon="11.792973"><ele>1348.0</ele><time>2026-04-06T07:23:27.601Z</time></trkpt><trkpt lat="45.8481414" lon="11.7930397"><ele>1348.0</ele><time>2026-04-06T07:23:28.606Z</time></trkpt><trkpt lat="45.8481898" lon="11.793098"><ele>1348.0</ele><time>2026-04-06T07:23:29.595Z</time></trkpt><trkpt lat="45.8482754" lon="11.7931975"><ele>1348.0</ele><time>2026-04-06T07:23:31.605Z</time></trkpt><trkpt lat="45.8483772" lon="11.793275"><ele>1348.0</ele><time>2026-04-06T07:23:33.601Z</time></trkpt><trkpt lat="45.8484364" lon="11.7933404"><ele>1348.0</ele><time>2026-04-06T07:23:34.607Z</time></trkpt><trkpt lat="45.8484913" lon="11.7934205"><ele>1348.0</ele><time>2026-04-06T07:23:35.602Z</time></trkpt><trkpt lat="45.8485635" lon="11.7935359"><ele>1348.0</ele><time>2026-04-06T07:23:36.595Z</time></trkpt><trkpt lat="45.8486377" lon="11.7936482"><ele>1348.0</ele><time>2026-04-06T07:23:37.61Z</time></trkpt><trkpt lat="45.8487099" lon="11.7937349"><ele>1348.0</ele><time>2026-04-06T07:23:38.603Z</time></trkpt><trkpt lat="45.8487738" lon="11.7938029"><ele>1348.0</ele><time>2026-04-06T07:23:39.602Z</time></trkpt><trkpt lat="45.8488383" lon="11.7938835"><ele>1348.0</ele><time>2026-04-06T07:23:40.598Z</time></trkpt><trkpt lat="45.8489288" lon="11.7939541"><ele>1348.0</ele><time>2026-04-06T07:23:42.766Z</time></trkpt><trkpt lat="45.8490613" lon="11.7940459"><ele>1348.0</ele><time>2026-04-06T07:23:45.606Z</time></trkpt><trkpt lat="45.8491225" lon="11.7940838"><ele>1348.0</ele><time>2026-04-06T07:23:49.601Z</time></trkpt><trkpt lat="45.8491335" lon="11.7939884"><ele>1348.0</ele><time>2026-04-06T07:23:57.613Z</time></trkpt><trkpt lat="45.8490628" lon="11.7939568"><ele>1348.0</ele><time>2026-04-06T07:23:59.61Z</time></trkpt><trkpt lat="45.8489621" lon="11.793908"><ele>1348.0</ele><time>2026-04-06T07:24:01.603Z</time></trkpt><trkpt lat="45.8488128" lon="11.7938424"><ele>1348.0</ele><time>2026-04-06T07:24:03.6Z</time></trkpt><trkpt lat="45.8487077" lon="11.7937432"><ele>1348.0</ele><time>2026-04-06T07:24:04.607Z</time></trkpt><trkpt lat="45.8485991" lon="11.7936417"><ele>1348.0</ele><time>2026-04-06T07:24:05.598Z</time></trkpt><trkpt lat="45.8485046" lon="11.7935374"><ele>1348.0</ele><time>2026-04-06T07:24:06.599Z</time></trkpt><trkpt lat="45.8484205" lon="11.7934151"><ele>1348.0</ele><time>2026-04-06T07:24:07.598Z</time></trkpt><trkpt lat="45.8483417" lon="11.793261"><ele>1348.0</ele><time>2026-04-06T07:24:08.597Z</time></trkpt><trkpt lat="45.8482944" lon="11.7930599"><ele>1348.0</ele><time>2026-04-06T07:24:09.602Z</time></trkpt><trkpt lat="45.8482533" lon="11.7928591"><ele>1344.75</ele><time>2026-04-06T07:24:10.599Z</time></trkpt><trkpt lat="45.8482304" lon="11.7926475"><ele>1341.5</ele><time>2026-04-06T07:24:11.598Z</time></trkpt><trkpt lat="45.8482245" lon="11.7924656"><ele>1338.25</ele><time>2026-04-06T07:24:12.6Z</time></trkpt><trkpt lat="45.8482089" lon="11.7922929"><ele>1335.0</ele><time>2026-04-06T07:24:13.598Z</time></trkpt><trkpt lat="45.8482119" lon="11.7921348"><ele>1335.0</ele><time>2026-04-06T07:24:14.591Z</time></trkpt><trkpt lat="45.84822" lon="11.7919947"><ele>1335.0</ele><time>2026-04-06T07:24:15.599Z</time></trkpt><trkpt lat="45.8482603" lon="11.7918722"><ele>1335.0</ele><time>2026-04-06T07:24:16.6Z</time></trkpt><trkpt lat="45.8482753" lon="11.7917327"><ele>1335.0</ele><time>2026-04-06T07:24:17.595Z</time></trkpt><trkpt lat="45.8482827" lon="11.7915878"><ele>1335.0</ele><time>2026-04-06T07:24:18.598Z</time></trkpt><trkpt lat="45.8482478" lon="11.7914513"><ele>1333.6666666666667</ele><time>2026-04-06T07:24:19.6Z</time></trkpt><trkpt lat="45.8481941" lon="11.791335"><ele>1332.3333333333333</ele><time>2026-04-06T07:24:20.603Z</time></trkpt><trkpt lat="45.8481249" lon="11.7912545"><ele>1331.0</ele><time>2026-04-06T07:24:21.601Z</time></trkpt><trkpt lat="45.8480588" lon="11.7911933"><ele>1329.6666666666665</ele><time>2026-04-06T07:24:22.608Z</time></trkpt><trkpt lat="45.8479871" lon="11.7911558"><ele>1328.3333333333333</ele><time>2026-04-06T07:24:23.603Z</time></trkpt><trkpt lat="45.8479483" lon="11.7910696"><ele>1327.0</ele><time>2026-04-06T07:24:25.599Z</time></trkpt><trkpt lat="45.8478638" lon="11.7910068"><ele>1327.0</ele><time>2026-04-06T07:24:27.601Z</time></trkpt><trkpt lat="45.8479326" lon="11.7910124"><ele>1327.0</ele><time>2026-04-06T07:24:37.603Z</time></trkpt><trkpt lat="45.8480256" lon="11.7910789"><ele>1327.0</ele><time>2026-04-06T07:24:39.617Z</time></trkpt><trkpt lat="45.848102" lon="11.7911469"><ele>1327.0</ele><time>2026-04-06T07:24:45.604Z</time></trkpt><trkpt lat="45.8481506" lon="11.791244"><ele>1327.0</ele><time>2026-04-06T07:25:02.605Z</time></trkpt><trkpt lat="45.8481439" lon="11.7911154"><ele>1327.0</ele><time>2026-04-06T07:25:07.604Z</time></trkpt><trkpt lat="45.8481693" lon="11.7909192"><ele>1324.1999999999998</ele><time>2026-04-06T07:25:09.602Z</time></trkpt><trkpt lat="45.8481797" lon="11.7908048"><ele>1321.4</ele><time>2026-04-06T07:25:10.602Z</time></trkpt><trkpt lat="45.8482074" lon="11.7906896"><ele>1318.6</ele><time>2026-04-06T07:25:11.595Z</time></trkpt><trkpt lat="45.8482534" lon="11.7905482"><ele>1315.8000000000002</ele><time>2026-04-06T07:25:12.599Z</time></trkpt><trkpt lat="45.8482722" lon="11.7904105"><ele>1313.0</ele><time>2026-04-06T07:25:13.761Z</time></trkpt><trkpt lat="45.8483188" lon="11.79014"><ele>1311.6000000000001</ele><time>2026-04-06T07:25:15.599Z</time></trkpt><trkpt lat="45.8483174" lon="11.7900413"><ele>1310.2</ele><time>2026-04-06T07:25:16.601Z</time></trkpt><trkpt lat="45.8483192" lon="11.789919"><ele>1308.8</ele><time>2026-04-06T07:25:17.598Z</time></trkpt><trkpt lat="45.8482915" lon="11.7897886"><ele>1307.4</ele><time>2026-04-06T07:25:18.599Z</time></trkpt><trkpt lat="45.8482527" lon="11.7896273"><ele>1306.0</ele><time>2026-04-06T07:25:19.624Z</time></trkpt><trkpt lat="45.8482331" lon="11.7894397"><ele>1306.0</ele><time>2026-04-06T07:25:20.603Z</time></trkpt><trkpt lat="45.8481978" lon="11.7892508"><ele>1306.0</ele><time>2026-04-06T07:25:21.597Z</time></trkpt><trkpt lat="45.848193" lon="11.7890824"><ele>1306.0</ele><time>2026-04-06T07:25:22.594Z</time></trkpt><trkpt lat="45.848163" lon="11.788839"><ele>1306.0</ele><time>2026-04-06T07:25:23.599Z</time></trkpt><trkpt lat="45.8480991" lon="11.7886238"><ele>1307.0</ele><time>2026-04-06T07:25:24.602Z</time></trkpt><trkpt lat="45.8480151" lon="11.7884445"><ele>1308.0</ele><time>2026-04-06T07:25:25.596Z</time></trkpt><trkpt lat="45.8479577" lon="11.7882982"><ele>1309.0</ele><time>2026-04-06T07:25:26.6Z</time></trkpt><trkpt lat="45.8478874" lon="11.7881856"><ele>1310.0</ele><time>2026-04-06T07:25:27.616Z</time></trkpt><trkpt lat="45.8478142" lon="11.7881013"><ele>1310.0</ele><time>2026-04-06T07:25:28.601Z</time></trkpt><trkpt lat="45.8476834" lon="11.7880471"><ele>1310.0</ele><time>2026-04-06T07:25:30.587Z</time></trkpt><trkpt lat="45.8476198" lon="11.7880536"><ele>1310.0</ele><time>2026-04-06T07:25:31.596Z</time></trkpt><trkpt lat="45.8475181" lon="11.7880327"><ele>1310.0</ele><time>2026-04-06T07:25:34.625Z</time></trkpt><trkpt lat="45.8473479" lon="11.787942"><ele>1305.75</ele><time>2026-04-06T07:25:50.839Z</time></trkpt><trkpt lat="45.8472003" lon="11.787817"><ele>1301.5</ele><time>2026-04-06T07:25:52.603Z</time></trkpt><trkpt lat="45.8471083" lon="11.7877377"><ele>1297.25</ele><time>2026-04-06T07:25:53.614Z</time></trkpt><trkpt lat="45.8469988" lon="11.7875944"><ele>1293.0</ele><time>2026-04-06T07:25:54.772Z</time></trkpt><trkpt lat="45.8468581" lon="11.7872687"><ele>1281.5</ele><time>2026-04-06T07:25:56.769Z</time></trkpt><trkpt lat="45.8467022" lon="11.7868563"><ele>1270.0</ele><time>2026-04-06T07:25:58.632Z</time></trkpt><trkpt lat="45.8466111" lon="11.7865989"><ele>1270.0</ele><time>2026-04-06T07:25:59.606Z</time></trkpt><trkpt lat="45.8465487" lon="11.7863592"><ele>1270.0</ele><time>2026-04-06T07:26:00.608Z</time></trkpt><trkpt lat="45.8464567" lon="11.7861456"><ele>1270.0</ele><time>2026-04-06T07:26:01.622Z</time></trkpt><trkpt lat="45.8463171" lon="11.7859412"><ele>1273.0</ele><time>2026-04-06T07:26:02.606Z</time></trkpt><trkpt lat="45.8461109" lon="11.7857687"><ele>1276.0</ele><time>2026-04-06T07:26:03.606Z</time></trkpt><trkpt lat="45.8459563" lon="11.7856248"><ele>1279.0</ele><time>2026-04-06T07:26:04.596Z</time></trkpt><trkpt lat="45.8458134" lon="11.7855124"><ele>1269.0</ele><time>2026-04-06T07:26:05.615Z</time></trkpt><trkpt lat="45.8456758" lon="11.7854139"><ele>1259.0</ele><time>2026-04-06T07:26:06.601Z</time></trkpt><trkpt lat="45.8455394" lon="11.7853014"><ele>1249.0</ele><time>2026-04-06T07:26:07.595Z</time></trkpt><trkpt lat="45.845416" lon="11.7851908"><ele>1252.0</ele><time>2026-04-06T07:26:08.605Z</time></trkpt><trkpt lat="45.8452905" lon="11.7850553"><ele>1255.0</ele><time>2026-04-06T07:26:09.6Z</time></trkpt><trkpt lat="45.8452607" lon="11.78488"><ele>1258.0</ele><time>2026-04-06T07:26:10.624Z</time></trkpt><trkpt lat="45.8451932" lon="11.7847032"><ele>1261.0</ele><time>2026-04-06T07:26:11.626Z</time></trkpt><trkpt lat="45.8451608" lon="11.7845526"><ele>1260.75</ele><time>2026-04-06T07:26:12.601Z</time></trkpt><trkpt lat="45.8451309" lon="11.7843455"><ele>1260.5</ele><time>2026-04-06T07:26:13.607Z</time></trkpt><trkpt lat="45.8451087" lon="11.7841625"><ele>1260.25</ele><time>2026-04-06T07:26:14.615Z</time></trkpt><trkpt lat="45.8450761" lon="11.7839938"><ele>1260.0</ele><time>2026-04-06T07:26:15.613Z</time></trkpt><trkpt lat="45.8450245" lon="11.7838682"><ele>1255.0</ele><time>2026-04-06T07:26:16.635Z</time></trkpt><trkpt lat="45.8449627" lon="11.7837716"><ele>1250.0</ele><time>2026-04-06T07:26:17.613Z</time></trkpt><trkpt lat="45.8448751" lon="11.7837138"><ele>1245.0</ele><time>2026-04-06T07:26:18.601Z</time></trkpt><trkpt lat="45.8447642" lon="11.7836644"><ele>1240.0</ele><time>2026-04-06T07:26:19.605Z</time></trkpt><trkpt lat="45.844664" lon="11.7836232"><ele>1235.0</ele><time>2026-04-06T07:26:20.606Z</time></trkpt><trkpt lat="45.8445409" lon="11.7835643"><ele>1235.6666666666667</ele><time>2026-04-06T07:26:21.595Z</time></trkpt><trkpt lat="45.8443963" lon="11.7835109"><ele>1236.3333333333333</ele><time>2026-04-06T07:26:22.611Z</time></trkpt><trkpt lat="45.8442376" lon="11.7835005"><ele>1237.0</ele><time>2026-04-06T07:26:23.608Z</time></trkpt><trkpt lat="45.8440978" lon="11.7834553"><ele>1237.0</ele><time>2026-04-06T07:26:24.604Z</time></trkpt><trkpt lat="45.8439495" lon="11.7833879"><ele>1237.0</ele><time>2026-04-06T07:26:25.605Z</time></trkpt><trkpt lat="45.8438119" lon="11.7833002"><ele>1237.0</ele><time>2026-04-06T07:26:26.602Z</time></trkpt><trkpt lat="45.8436471" lon="11.7832168"><ele>1237.0</ele><time>2026-04-06T07:26:27.599Z</time></trkpt><trkpt lat="45.8434952" lon="11.783111"><ele>1237.0</ele><time>2026-04-06T07:26:28.603Z</time></trkpt><trkpt lat="45.8433247" lon="11.7830136"><ele>1237.0</ele><time>2026-04-06T07:26:29.61Z</time></trkpt><trkpt lat="45.8431855" lon="11.782873"><ele>1234.5</ele><time>2026-04-06T07:26:30.603Z</time></trkpt><trkpt lat="45.8430692" lon="11.7827509"><ele>1232.0</ele><time>2026-04-06T07:26:31.606Z</time></trkpt><trkpt lat="45.8429501" lon="11.7826679"><ele>1229.5</ele><time>2026-04-06T07:26:32.602Z</time></trkpt><trkpt lat="45.8428415" lon="11.7825982"><ele>1227.0</ele><time>2026-04-06T07:26:33.599Z</time></trkpt><trkpt lat="45.842752" lon="11.7825478"><ele>1227.0</ele><time>2026-04-06T07:26:34.608Z</time></trkpt><trkpt lat="45.8426723" lon="11.7825581"><ele>1227.0</ele><time>2026-04-06T07:26:35.599Z</time></trkpt><trkpt lat="45.8426025" lon="11.7826577"><ele>1227.0</ele><time>2026-04-06T07:26:36.599Z</time></trkpt><trkpt lat="45.8425425" lon="11.7827555"><ele>1227.0</ele><time>2026-04-06T07:26:37.579Z</time></trkpt><trkpt lat="45.842492" lon="11.7828766"><ele>1227.0</ele><time>2026-04-06T07:26:38.596Z</time></trkpt><trkpt lat="45.8424223" lon="11.7830138"><ele>1222.8333333333333</ele><time>2026-04-06T07:26:39.603Z</time></trkpt><trkpt lat="45.8423543" lon="11.7831145"><ele>1218.6666666666667</ele><time>2026-04-06T07:26:40.606Z</time></trkpt><trkpt lat="45.8422877" lon="11.7832031"><ele>1214.5</ele><time>2026-04-06T07:26:41.613Z</time></trkpt><trkpt lat="45.8422209" lon="11.7832396"><ele>1210.3333333333335</ele><time>2026-04-06T07:26:42.606Z</time></trkpt><trkpt lat="45.8421113" lon="11.7832418"><ele>1206.1666666666667</ele><time>2026-04-06T07:26:44.605Z</time></trkpt><trkpt lat="45.8420366" lon="11.7832181"><ele>1202.0</ele><time>2026-04-06T07:26:46.608Z</time></trkpt><trkpt lat="45.8419614" lon="11.7831512"><ele>1202.0</ele><time>2026-04-06T07:26:48.61Z</time></trkpt><trkpt lat="45.8418646" lon="11.7830013"><ele>1202.0</ele><time>2026-04-06T07:26:50.602Z</time></trkpt><trkpt lat="45.8418112" lon="11.7829217"><ele>1202.0</ele><time>2026-04-06T07:26:51.604Z</time></trkpt><trkpt lat="45.8417634" lon="11.7828033"><ele>1202.0</ele><time>2026-04-06T07:26:52.611Z</time></trkpt><trkpt lat="45.8417023" lon="11.782657"><ele>1202.0</ele><time>2026-04-06T07:26:53.606Z</time></trkpt><trkpt lat="45.8416255" lon="11.7824809"><ele>1198.3333333333335</ele><time>2026-04-06T07:26:54.607Z</time></trkpt><trkpt lat="45.8415633" lon="11.7822498"><ele>1194.6666666666667</ele><time>2026-04-06T07:26:55.603Z</time></trkpt><trkpt lat="45.8415189" lon="11.7819465"><ele>1191.0</ele><time>2026-04-06T07:26:56.602Z</time></trkpt><trkpt lat="45.8414861" lon="11.7817135"><ele>1190.0</ele><time>2026-04-06T07:26:57.597Z</time></trkpt><trkpt lat="45.8414753" lon="11.7814811"><ele>1189.0</ele><time>2026-04-06T07:26:58.61Z</time></trkpt><trkpt lat="45.8414302" lon="11.781305"><ele>1188.0</ele><time>2026-04-06T07:26:59.611Z</time></trkpt><trkpt lat="45.8413675" lon="11.7811955"><ele>1187.0</ele><time>2026-04-06T07:27:00.601Z</time></trkpt><trkpt lat="45.8413116" lon="11.7810579"><ele>1187.6</ele><time>2026-04-06T07:27:01.599Z</time></trkpt><trkpt lat="45.8412446" lon="11.7809583"><ele>1188.2</ele><time>2026-04-06T07:27:02.601Z</time></trkpt><trkpt lat="45.8411549" lon="11.7809079"><ele>1188.8</ele><time>2026-04-06T07:27:03.609Z</time></trkpt><trkpt lat="45.8410383" lon="11.7808824"><ele>1189.4</ele><time>2026-04-06T07:27:04.574Z</time></trkpt><trkpt lat="45.8409323" lon="11.7808828"><ele>1190.0</ele><time>2026-04-06T07:27:05.587Z</time></trkpt><trkpt lat="45.8408236" lon="11.7808905"><ele>1186.6</ele><time>2026-04-06T07:27:06.605Z</time></trkpt><trkpt lat="45.8407144" lon="11.7809204"><ele>1183.2</ele><time>2026-04-06T07:27:07.62Z</time></trkpt><trkpt lat="45.8406188" lon="11.7809334"><ele>1179.8</ele><time>2026-04-06T07:27:08.599Z</time></trkpt><trkpt lat="45.8405115" lon="11.7809211"><ele>1176.4</ele><time>2026-04-06T07:27:09.604Z</time></trkpt><trkpt lat="45.8404161" lon="11.7808838"><ele>1173.0</ele><time>2026-04-06T07:27:10.598Z</time></trkpt><trkpt lat="45.8403365" lon="11.7807837"><ele>1173.0</ele><time>2026-04-06T07:27:11.598Z</time></trkpt><trkpt lat="45.8402278" lon="11.7807111"><ele>1173.0</ele><time>2026-04-06T07:27:12.604Z</time></trkpt><trkpt lat="45.8401249" lon="11.7805966"><ele>1173.0</ele><time>2026-04-06T07:27:13.599Z</time></trkpt><trkpt lat="45.840022" lon="11.7804498"><ele>1173.0</ele><time>2026-04-06T07:27:14.608Z</time></trkpt><trkpt lat="45.8399044" lon="11.7803481"><ele>1171.0</ele><time>2026-04-06T07:27:15.606Z</time></trkpt><trkpt lat="45.8397989" lon="11.7802197"><ele>1169.0</ele><time>2026-04-06T07:27:16.604Z</time></trkpt><trkpt lat="45.839701" lon="11.7800999"><ele>1167.0</ele><time>2026-04-06T07:27:17.683Z</time></trkpt><trkpt lat="45.8396059" lon="11.7799912"><ele>1165.0</ele><time>2026-04-06T07:27:18.769Z</time></trkpt><trkpt lat="45.8394677" lon="11.7797553"><ele>1165.0</ele><time>2026-04-06T07:27:20.597Z</time></trkpt><trkpt lat="45.8394199" lon="11.7796296"><ele>1165.0</ele><time>2026-04-06T07:27:21.768Z</time></trkpt><trkpt lat="45.839376" lon="11.7795159"><ele>1165.0</ele><time>2026-04-06T07:27:22.767Z</time></trkpt><trkpt lat="45.8392994" lon="11.7793038"><ele>1165.0</ele><time>2026-04-06T07:27:24.609Z</time></trkpt><trkpt lat="45.8392451" lon="11.7792287"><ele>1165.0</ele><time>2026-04-06T07:27:25.856Z</time></trkpt><trkpt lat="45.8391389" lon="11.7790849"><ele>1160.9999999999998</ele><time>2026-04-06T07:27:27.608Z</time></trkpt><trkpt lat="45.8390819" lon="11.7790252"><ele>1157.0</ele><time>2026-04-06T07:27:28.607Z</time></trkpt><trkpt lat="45.8390394" lon="11.7789575"><ele>1153.0</ele><time>2026-04-06T07:27:29.612Z</time></trkpt><trkpt lat="45.8389936" lon="11.7788904"><ele>1149.0</ele><time>2026-04-06T07:27:30.616Z</time></trkpt><trkpt lat="45.8389314" lon="11.7788186"><ele>1145.0</ele><time>2026-04-06T07:27:31.612Z</time></trkpt><trkpt lat="45.8388894" lon="11.7787512"><ele>1140.9999999999998</ele><time>2026-04-06T07:27:32.609Z</time></trkpt><trkpt lat="45.8388322" lon="11.7786872"><ele>1137.0</ele><time>2026-04-06T07:27:33.609Z</time></trkpt><trkpt lat="45.838788" lon="11.7786051"><ele>1137.0</ele><time>2026-04-06T07:27:34.607Z</time></trkpt><trkpt lat="45.8387431" lon="11.7785281"><ele>1137.0</ele><time>2026-04-06T07:27:35.687Z</time></trkpt><trkpt lat="45.8387488" lon="11.7783722"><ele>1137.0</ele><time>2026-04-06T07:27:37.602Z</time></trkpt><trkpt lat="45.8387861" lon="11.7782607"><ele>1137.0</ele><time>2026-04-06T07:27:38.607Z</time></trkpt><trkpt lat="45.8388297" lon="11.7781404"><ele>1137.0</ele><time>2026-04-06T07:27:39.628Z</time></trkpt><trkpt lat="45.8388711" lon="11.7780005"><ele>1136.6666666666667</ele><time>2026-04-06T07:27:40.599Z</time></trkpt><trkpt lat="45.8388882" lon="11.77789"><ele>1136.3333333333333</ele><time>2026-04-06T07:27:41.601Z</time></trkpt><trkpt lat="45.838909" lon="11.7777626"><ele>1136.0</ele><time>2026-04-06T07:27:42.595Z</time></trkpt><trkpt lat="45.8389292" lon="11.777636"><ele>1135.6666666666665</ele><time>2026-04-06T07:27:43.606Z</time></trkpt><trkpt lat="45.8389435" lon="11.7775391"><ele>1135.3333333333333</ele><time>2026-04-06T07:27:44.597Z</time></trkpt><trkpt lat="45.8389646" lon="11.7774407"><ele>1135.0</ele><time>2026-04-06T07:27:45.599Z</time></trkpt><trkpt lat="45.8389816" lon="11.7773482"><ele>1132.8</ele><time>2026-04-06T07:27:46.593Z</time></trkpt><trkpt lat="45.8389812" lon="11.7772555"><ele>1130.6</ele><time>2026-04-06T07:27:48.602Z</time></trkpt><trkpt lat="45.8389819" lon="11.7770259"><ele>1128.4</ele><time>2026-04-06T07:27:57.604Z</time></trkpt><trkpt lat="45.8389814" lon="11.7768822"><ele>1126.2</ele><time>2026-04-06T07:27:58.598Z</time></trkpt><trkpt lat="45.8390045" lon="11.7767204"><ele>1124.0</ele><time>2026-04-06T07:27:59.606Z</time></trkpt><trkpt lat="45.839009" lon="11.7765543"><ele>1120.5</ele><time>2026-04-06T07:28:00.603Z</time></trkpt><trkpt lat="45.8390131" lon="11.7763926"><ele>1117.0</ele><time>2026-04-06T07:28:01.602Z</time></trkpt><trkpt lat="45.8390144" lon="11.7762274"><ele>1113.5</ele><time>2026-04-06T07:28:02.599Z</time></trkpt><trkpt lat="45.8390137" lon="11.7760499"><ele>1110.0</ele><time>2026-04-06T07:28:03.603Z</time></trkpt><trkpt lat="45.8390199" lon="11.7759009"><ele>1108.3333333333333</ele><time>2026-04-06T07:28:04.598Z</time></trkpt><trkpt lat="45.8390381" lon="11.7757456"><ele>1106.6666666666667</ele><time>2026-04-06T07:28:05.59Z</time></trkpt><trkpt lat="45.8390736" lon="11.7756032"><ele>1105.0</ele><time>2026-04-06T07:28:06.599Z</time></trkpt><trkpt lat="45.8391161" lon="11.7755081"><ele>1103.3333333333335</ele><time>2026-04-06T07:28:07.588Z</time></trkpt><trkpt lat="45.8391662" lon="11.7754496"><ele>1101.6666666666667</ele><time>2026-04-06T07:28:08.594Z</time></trkpt><trkpt lat="45.8391653" lon="11.7753293"><ele>1100.0</ele><time>2026-04-06T07:28:15.6Z</time></trkpt><trkpt lat="45.8390953" lon="11.7753268"><ele>1100.0</ele><time>2026-04-06T07:28:19.595Z</time></trkpt><trkpt lat="45.8391795" lon="11.7753366"><ele>1100.0</ele><time>2026-04-06T07:31:30.609Z</time></trkpt><trkpt lat="45.8392502" lon="11.7753215"><ele>1100.0</ele><time>2026-04-06T07:32:10.607Z</time></trkpt><trkpt lat="45.8393155" lon="11.7753674"><ele>1100.0</ele><time>2026-04-06T07:32:59.621Z</time></trkpt><trkpt lat="45.8392857" lon="11.7754803"><ele>1100.0</ele><time>2026-04-06T07:33:06.615Z</time></trkpt><trkpt lat="45.8392461" lon="11.7756184"><ele>1100.0</ele><time>2026-04-06T07:33:11.611Z</time></trkpt><trkpt lat="45.8392359" lon="11.7757449"><ele>1100.0</ele><time>2026-04-06T07:33:14.605Z</time></trkpt><trkpt lat="45.8391971" lon="11.7758885"><ele>1100.0</ele><time>2026-04-06T07:33:16.598Z</time></trkpt><trkpt lat="45.8391768" lon="11.7759941"><ele>1100.0</ele><time>2026-04-06T07:33:17.61Z</time></trkpt><trkpt lat="45.839174" lon="11.7761103"><ele>1100.0</ele><time>2026-04-06T07:33:18.601Z</time></trkpt><trkpt lat="45.8391416" lon="11.7762452"><ele>1100.0</ele><time>2026-04-06T07:33:19.602Z</time></trkpt><trkpt lat="45.8391059" lon="11.7763636"><ele>1102.0</ele><time>2026-04-06T07:33:20.601Z</time></trkpt><trkpt lat="45.8390842" lon="11.7764977"><ele>1104.0</ele><time>2026-04-06T07:33:21.605Z</time></trkpt><trkpt lat="45.8390439" lon="11.7766121"><ele>1106.0</ele><time>2026-04-06T07:33:22.604Z</time></trkpt><trkpt lat="45.8389885" lon="11.7767512"><ele>1108.0</ele><time>2026-04-06T07:33:23.608Z</time></trkpt><trkpt lat="45.8389357" lon="11.7768979"><ele>1110.0</ele><time>2026-04-06T07:33:24.6Z</time></trkpt><trkpt lat="45.8388957" lon="11.7770434"><ele>1113.5</ele><time>2026-04-06T07:33:25.604Z</time></trkpt><trkpt lat="45.8388282" lon="11.7771854"><ele>1117.0</ele><time>2026-04-06T07:33:26.6Z</time></trkpt><trkpt lat="45.8387656" lon="11.7773482"><ele>1120.5</ele><time>2026-04-06T07:33:27.604Z</time></trkpt><trkpt lat="45.8386841" lon="11.7775379"><ele>1124.0</ele><time>2026-04-06T07:33:28.604Z</time></trkpt><trkpt lat="45.8385687" lon="11.777715"><ele>1127.6666666666667</ele><time>2026-04-06T07:33:29.602Z</time></trkpt><trkpt lat="45.8384683" lon="11.7778886"><ele>1131.3333333333333</ele><time>2026-04-06T07:33:30.603Z</time></trkpt><trkpt lat="45.8383636" lon="11.7780526"><ele>1135.0</ele><time>2026-04-06T07:33:31.601Z</time></trkpt><trkpt lat="45.8382445" lon="11.7782319"><ele>1124.0</ele><time>2026-04-06T07:33:32.609Z</time></trkpt><trkpt lat="45.8381627" lon="11.7784114"><ele>1113.0</ele><time>2026-04-06T07:33:33.604Z</time></trkpt><trkpt lat="45.8380961" lon="11.7785921"><ele>1102.0</ele><time>2026-04-06T07:33:34.599Z</time></trkpt><trkpt lat="45.8380096" lon="11.7787313"><ele>1091.0</ele><time>2026-04-06T07:33:35.61Z</time></trkpt><trkpt lat="45.8379332" lon="11.7788717"><ele>1091.0</ele><time>2026-04-06T07:33:36.608Z</time></trkpt><trkpt lat="45.8378598" lon="11.779018"><ele>1091.0</ele><time>2026-04-06T07:33:37.604Z</time></trkpt><trkpt lat="45.8378472" lon="11.7791643"><ele>1091.0</ele><time>2026-04-06T07:33:38.609Z</time></trkpt><trkpt lat="45.8378282" lon="11.7793114"><ele>1091.0</ele><time>2026-04-06T07:33:39.635Z</time></trkpt><trkpt lat="45.8378374" lon="11.7794678"><ele>1091.0</ele><time>2026-04-06T07:33:40.612Z</time></trkpt><trkpt lat="45.8378513" lon="11.7796086"><ele>1090.8333333333335</ele><time>2026-04-06T07:33:41.605Z</time></trkpt><trkpt lat="45.8378319" lon="11.7797508"><ele>1090.6666666666667</ele><time>2026-04-06T07:33:42.609Z</time></trkpt><trkpt lat="45.8378206" lon="11.7798618"><ele>1090.5</ele><time>2026-04-06T07:33:43.598Z</time></trkpt><trkpt lat="45.8377991" lon="11.7799574"><ele>1090.3333333333333</ele><time>2026-04-06T07:33:44.61Z</time></trkpt><trkpt lat="45.8377854" lon="11.7800611"><ele>1090.1666666666665</ele><time>2026-04-06T07:33:45.6Z</time></trkpt><trkpt lat="45.8377751" lon="11.780159"><ele>1090.0</ele><time>2026-04-06T07:33:46.604Z</time></trkpt><trkpt lat="45.8377406" lon="11.7802355"><ele>1091.0</ele><time>2026-04-06T07:33:47.604Z</time></trkpt><trkpt lat="45.8377004" lon="11.7803128"><ele>1092.0</ele><time>2026-04-06T07:33:48.606Z</time></trkpt><trkpt lat="45.8376561" lon="11.780378"><ele>1093.0</ele><time>2026-04-06T07:33:49.605Z</time></trkpt><trkpt lat="45.8375919" lon="11.78044"><ele>1094.0</ele><time>2026-04-06T07:33:50.602Z</time></trkpt><trkpt lat="45.8374935" lon="11.7804904"><ele>1095.0</ele><time>2026-04-06T07:33:51.61Z</time></trkpt><trkpt lat="45.8374231" lon="11.7805637"><ele>1096.0</ele><time>2026-04-06T07:33:52.611Z</time></trkpt><trkpt lat="45.8373486" lon="11.7806216"><ele>1091.1666666666665</ele><time>2026-04-06T07:33:53.641Z</time></trkpt><trkpt lat="45.8372676" lon="11.7806693"><ele>1086.3333333333333</ele><time>2026-04-06T07:33:54.617Z</time></trkpt><trkpt lat="45.8372069" lon="11.7806944"><ele>1081.5</ele><time>2026-04-06T07:33:55.618Z</time></trkpt><trkpt lat="45.8371209" lon="11.780706"><ele>1076.6666666666667</ele><time>2026-04-06T07:33:57.62Z</time></trkpt><trkpt lat="45.8370827" lon="11.7805982"><ele>1071.8333333333335</ele><time>2026-04-06T07:34:02.625Z</time></trkpt><trkpt lat="45.8370155" lon="11.7805778"><ele>1067.0</ele><time>2026-04-06T07:34:24.619Z</time></trkpt><trkpt lat="45.8369439" lon="11.7805875"><ele>1067.0</ele><time>2026-04-06T07:34:54.607Z</time></trkpt><trkpt lat="45.8368492" lon="11.7806058"><ele>1067.0</ele><time>2026-04-06T07:35:25.624Z</time></trkpt><trkpt lat="45.8367753" lon="11.780616"><ele>1067.0</ele><time>2026-04-06T07:35:36.61Z</time></trkpt><trkpt lat="45.836697" lon="11.7807528"><ele>1067.0</ele><time>2026-04-06T07:35:39.614Z</time></trkpt><trkpt lat="45.8366358" lon="11.7808186"><ele>1067.0</ele><time>2026-04-06T07:35:40.624Z</time></trkpt><trkpt lat="45.8365611" lon="11.7809034"><ele>1064.25</ele><time>2026-04-06T07:35:41.623Z</time></trkpt><trkpt lat="45.8364645" lon="11.7810309"><ele>1061.5</ele><time>2026-04-06T07:35:42.618Z</time></trkpt><trkpt lat="45.8363996" lon="11.7811768"><ele>1058.75</ele><time>2026-04-06T07:35:43.612Z</time></trkpt><trkpt lat="45.8363448" lon="11.781303"><ele>1056.0</ele><time>2026-04-06T07:35:44.615Z</time></trkpt><trkpt lat="45.836273" lon="11.7813905"><ele>1056.0</ele><time>2026-04-06T07:35:45.619Z</time></trkpt><trkpt lat="45.8362031" lon="11.7814853"><ele>1056.0</ele><time>2026-04-06T07:35:47.622Z</time></trkpt><trkpt lat="45.8361245" lon="11.7815313"><ele>1056.0</ele><time>2026-04-06T07:35:49.62Z</time></trkpt><trkpt lat="45.8360573" lon="11.7815949"><ele>1056.0</ele><time>2026-04-06T07:35:51.617Z</time></trkpt><trkpt lat="45.8359803" lon="11.7816695"><ele>1056.0</ele><time>2026-04-06T07:35:53.625Z</time></trkpt><trkpt lat="45.8359201" lon="11.7817173"><ele>1056.0</ele><time>2026-04-06T07:35:55.621Z</time></trkpt><trkpt lat="45.83587" lon="11.7817758"><ele>1056.0</ele><time>2026-04-06T07:36:23.609Z</time></trkpt><trkpt lat="45.8358068" lon="11.781829"><ele>1056.0</ele><time>2026-04-06T07:36:44.606Z</time></trkpt><trkpt lat="45.8358357" lon="11.7817401"><ele>1056.0</ele><time>2026-04-06T07:37:54.615Z</time></trkpt><trkpt lat="45.8358964" lon="11.781769"><ele>1056.0</ele><time>2026-04-06T07:39:17.626Z</time></trkpt><trkpt lat="45.835939" lon="11.7818463"><ele>1056.0</ele><time>2026-04-06T07:40:00.605Z</time></trkpt><trkpt lat="45.8360005" lon="11.7818024"><ele>1056.0</ele><time>2026-04-06T07:43:14.618Z</time></trkpt><trkpt lat="45.835916" lon="11.7818193"><ele>1056.0</ele><time>2026-04-06T07:46:27.632Z</time></trkpt><trkpt lat="45.8358023" lon="11.7819036"><ele>1053.8</ele><time>2026-04-06T07:46:29.624Z</time></trkpt><trkpt lat="45.8357316" lon="11.7819579"><ele>1051.6</ele><time>2026-04-06T07:46:30.628Z</time></trkpt><trkpt lat="45.8356547" lon="11.7820034"><ele>1049.4</ele><time>2026-04-06T07:46:31.618Z</time></trkpt><trkpt lat="45.8355476" lon="11.7820443"><ele>1047.2</ele><time>2026-04-06T07:46:32.621Z</time></trkpt><trkpt lat="45.8354508" lon="11.7820939"><ele>1045.0</ele><time>2026-04-06T07:46:33.622Z</time></trkpt><trkpt lat="45.8353654" lon="11.782147"><ele>1045.0</ele><time>2026-04-06T07:46:34.617Z</time></trkpt><trkpt lat="45.8352923" lon="11.7822107"><ele>1045.0</ele><time>2026-04-06T07:46:35.626Z</time></trkpt><trkpt lat="45.8352204" lon="11.7822718"><ele>1045.0</ele><time>2026-04-06T07:46:36.616Z</time></trkpt><trkpt lat="45.8351332" lon="11.7823391"><ele>1045.0</ele><time>2026-04-06T07:46:37.619Z</time></trkpt><trkpt lat="45.8350401" lon="11.7824018"><ele>1045.0</ele><time>2026-04-06T07:46:38.622Z</time></trkpt><trkpt lat="45.8349396" lon="11.7824906"><ele>1045.0</ele><time>2026-04-06T07:46:39.619Z</time></trkpt><trkpt lat="45.8348325" lon="11.7825774"><ele>1045.0</ele><time>2026-04-06T07:46:40.619Z</time></trkpt><trkpt lat="45.8347273" lon="11.7826858"><ele>1045.0</ele><time>2026-04-06T07:46:41.623Z</time></trkpt><trkpt lat="45.8346178" lon="11.7827805"><ele>1045.0</ele><time>2026-04-06T07:46:42.62Z</time></trkpt><trkpt lat="45.8345157" lon="11.7828821"><ele>1045.0</ele><time>2026-04-06T07:46:43.617Z</time></trkpt><trkpt lat="45.8344278" lon="11.7829719"><ele>1045.0</ele><time>2026-04-06T07:46:44.626Z</time></trkpt><trkpt lat="45.8343585" lon="11.7830445"><ele>1045.0</ele><time>2026-04-06T07:46:45.618Z</time></trkpt><trkpt lat="45.8342788" lon="11.7831069"><ele>1045.0</ele><time>2026-04-06T07:46:46.626Z</time></trkpt><trkpt lat="45.8341998" lon="11.783157"><ele>1045.0</ele><time>2026-04-06T07:46:47.62Z</time></trkpt><trkpt lat="45.8341106" lon="11.7831728"><ele>1045.2</ele><time>2026-04-06T07:46:48.626Z</time></trkpt><trkpt lat="45.834021" lon="11.7831643"><ele>1045.4</ele><time>2026-04-06T07:46:49.629Z</time></trkpt><trkpt lat="45.8339113" lon="11.7831435"><ele>1045.6</ele><time>2026-04-06T07:46:50.623Z</time></trkpt><trkpt lat="45.8338301" lon="11.7830975"><ele>1045.8</ele><time>2026-04-06T07:46:51.623Z</time></trkpt><trkpt lat="45.8337447" lon="11.7830272"><ele>1046.0</ele><time>2026-04-06T07:46:52.628Z</time></trkpt><trkpt lat="45.8336692" lon="11.7829502"><ele>1046.0</ele><time>2026-04-06T07:46:53.62Z</time></trkpt><trkpt lat="45.8335924" lon="11.7828746"><ele>1046.0</ele><time>2026-04-06T07:46:54.614Z</time></trkpt><trkpt lat="45.8335208" lon="11.7827903"><ele>1046.0</ele><time>2026-04-06T07:46:55.626Z</time></trkpt><trkpt lat="45.8334843" lon="11.7827163"><ele>1046.0</ele><time>2026-04-06T07:46:56.618Z</time></trkpt><trkpt lat="45.8334323" lon="11.7826432"><ele>1046.0</ele><time>2026-04-06T07:46:57.615Z</time></trkpt><trkpt lat="45.8333403" lon="11.7825622"><ele>1046.0</ele><time>2026-04-06T07:46:58.618Z</time></trkpt><trkpt lat="45.8332519" lon="11.7824731"><ele>1045.75</ele><time>2026-04-06T07:46:59.626Z</time></trkpt><trkpt lat="45.8331605" lon="11.7823629"><ele>1045.5</ele><time>2026-04-06T07:47:00.619Z</time></trkpt><trkpt lat="45.8330755" lon="11.7822678"><ele>1045.25</ele><time>2026-04-06T07:47:01.62Z</time></trkpt><trkpt lat="45.8329933" lon="11.7821364"><ele>1045.0</ele><time>2026-04-06T07:47:02.616Z</time></trkpt><trkpt lat="45.832908" lon="11.7819719"><ele>1043.3333333333333</ele><time>2026-04-06T07:47:03.619Z</time></trkpt><trkpt lat="45.8328054" lon="11.7818174"><ele>1041.6666666666667</ele><time>2026-04-06T07:47:04.617Z</time></trkpt><trkpt lat="45.8326651" lon="11.7816599"><ele>1040.0</ele><time>2026-04-06T07:47:05.614Z</time></trkpt><trkpt lat="45.8325558" lon="11.7814959"><ele>1040.0</ele><time>2026-04-06T07:47:06.628Z</time></trkpt><trkpt lat="45.8324148" lon="11.7813632"><ele>1040.0</ele><time>2026-04-06T07:47:07.616Z</time></trkpt><trkpt lat="45.8322804" lon="11.7812828"><ele>1040.0</ele><time>2026-04-06T07:47:08.614Z</time></trkpt><trkpt lat="45.8321894" lon="11.7812196"><ele>1040.0</ele><time>2026-04-06T07:47:09.614Z</time></trkpt><trkpt lat="45.8321236" lon="11.7811633"><ele>1040.0</ele><time>2026-04-06T07:47:10.614Z</time></trkpt><trkpt lat="45.8320747" lon="11.7810421"><ele>1040.0</ele><time>2026-04-06T07:47:11.609Z</time></trkpt><trkpt lat="45.8320498" lon="11.78091"><ele>1040.0</ele><time>2026-04-06T07:47:12.628Z</time></trkpt><trkpt lat="45.8320854" lon="11.7808166"><ele>1040.0</ele><time>2026-04-06T07:47:13.624Z</time></trkpt><trkpt lat="45.8321732" lon="11.7806674"><ele>1040.0</ele><time>2026-04-06T07:47:14.625Z</time></trkpt><trkpt lat="45.8322993" lon="11.7805745"><ele>1038.6</ele><time>2026-04-06T07:47:15.626Z</time></trkpt><trkpt lat="45.8323858" lon="11.7804678"><ele>1037.2</ele><time>2026-04-06T07:47:16.613Z</time></trkpt><trkpt lat="45.832415" lon="11.7803536"><ele>1035.8</ele><time>2026-04-06T07:47:17.623Z</time></trkpt><trkpt lat="45.8324481" lon="11.7802639"><ele>1034.4</ele><time>2026-04-06T07:47:18.608Z</time></trkpt><trkpt lat="45.8324886" lon="11.7801554"><ele>1033.0</ele><time>2026-04-06T07:47:20.606Z</time></trkpt><trkpt lat="45.8325591" lon="11.7800243"><ele>1033.0000000000002</ele><time>2026-04-06T07:47:22.603Z</time></trkpt><trkpt lat="45.8325877" lon="11.7799319"><ele>1033.0</ele><time>2026-04-06T07:47:23.606Z</time></trkpt><trkpt lat="45.8326171" lon="11.7798366"><ele>1033.0</ele><time>2026-04-06T07:47:24.599Z</time></trkpt><trkpt lat="45.832643" lon="11.7797486"><ele>1033.0</ele><time>2026-04-06T07:47:25.602Z</time></trkpt><trkpt lat="45.8326653" lon="11.7796614"><ele>1033.0</ele><time>2026-04-06T07:47:26.605Z</time></trkpt><trkpt lat="45.8326563" lon="11.7795506"><ele>1033.0000000000002</ele><time>2026-04-06T07:47:27.596Z</time></trkpt><trkpt lat="45.8326339" lon="11.779445"><ele>1033.0</ele><time>2026-04-06T07:47:28.773Z</time></trkpt><trkpt lat="45.832616" lon="11.779327"><ele>1029.75</ele><time>2026-04-06T07:47:29.774Z</time></trkpt><trkpt lat="45.8325323" lon="11.7791284"><ele>1026.5</ele><time>2026-04-06T07:47:31.617Z</time></trkpt><trkpt lat="45.8325173" lon="11.7790337"><ele>1023.25</ele><time>2026-04-06T07:47:32.617Z</time></trkpt><trkpt lat="45.832584" lon="11.7789076"><ele>1020.0</ele><time>2026-04-06T07:47:33.619Z</time></trkpt><trkpt lat="45.8326531" lon="11.7787773"><ele>1028.4</ele><time>2026-04-06T07:47:34.641Z</time></trkpt><trkpt lat="45.8327288" lon="11.7786972"><ele>1036.8</ele><time>2026-04-06T07:47:35.619Z</time></trkpt><trkpt lat="45.832787" lon="11.7785801"><ele>1045.2</ele><time>2026-04-06T07:47:36.633Z</time></trkpt><trkpt lat="45.8328478" lon="11.7784903"><ele>1053.6</ele><time>2026-04-06T07:47:37.617Z</time></trkpt><trkpt lat="45.8328889" lon="11.7784155"><ele>1062.0</ele><time>2026-04-06T07:47:38.606Z</time></trkpt><trkpt lat="45.8329797" lon="11.778316"><ele>1062.0</ele><time>2026-04-06T07:47:40.614Z</time></trkpt><trkpt lat="45.8330474" lon="11.7782427"><ele>1062.0</ele><time>2026-04-06T07:47:41.613Z</time></trkpt><trkpt lat="45.8331159" lon="11.7781678"><ele>1062.0</ele><time>2026-04-06T07:47:42.612Z</time></trkpt><trkpt lat="45.8331828" lon="11.7781075"><ele>1062.0</ele><time>2026-04-06T07:47:43.61Z</time></trkpt><trkpt lat="45.8331967" lon="11.7780016"><ele>1062.0</ele><time>2026-04-06T07:47:44.616Z</time></trkpt><trkpt lat="45.833189" lon="11.777856"><ele>1062.0</ele><time>2026-04-06T07:47:45.617Z</time></trkpt><trkpt lat="45.8331647" lon="11.7777223"><ele>1060.6666666666667</ele><time>2026-04-06T07:47:46.621Z</time></trkpt><trkpt lat="45.8331493" lon="11.7775894"><ele>1059.3333333333333</ele><time>2026-04-06T07:47:47.607Z</time></trkpt><trkpt lat="45.8331342" lon="11.7774593"><ele>1058.0</ele><time>2026-04-06T07:47:48.611Z</time></trkpt><trkpt lat="45.8331179" lon="11.7773441"><ele>1056.6666666666665</ele><time>2026-04-06T07:47:49.616Z</time></trkpt><trkpt lat="45.8331026" lon="11.7772362"><ele>1055.3333333333333</ele><time>2026-04-06T07:47:50.616Z</time></trkpt><trkpt lat="45.8330856" lon="11.7771271"><ele>1054.0</ele><time>2026-04-06T07:47:51.617Z</time></trkpt><trkpt lat="45.8330683" lon="11.7770356"><ele>1054.0000000000002</ele><time>2026-04-06T07:47:52.624Z</time></trkpt><trkpt lat="45.8330483" lon="11.7769434"><ele>1054.0</ele><time>2026-04-06T07:47:53.622Z</time></trkpt><trkpt lat="45.8330156" lon="11.7768599"><ele>1054.0</ele><time>2026-04-06T07:47:54.623Z</time></trkpt><trkpt lat="45.8329758" lon="11.776768"><ele>1054.0</ele><time>2026-04-06T07:47:55.622Z</time></trkpt><trkpt lat="45.8329301" lon="11.7766948"><ele>1054.0</ele><time>2026-04-06T07:47:56.64Z</time></trkpt><trkpt lat="45.8328749" lon="11.7766317"><ele>1054.0000000000002</ele><time>2026-04-06T07:47:57.641Z</time></trkpt><trkpt lat="45.8328261" lon="11.7765721"><ele>1054.0</ele><time>2026-04-06T07:47:58.614Z</time></trkpt><trkpt lat="45.8327206" lon="11.7765067"><ele>1056.8333333333333</ele><time>2026-04-06T07:48:00.616Z</time></trkpt><trkpt lat="45.8326535" lon="11.7764981"><ele>1059.6666666666665</ele><time>2026-04-06T07:48:01.618Z</time></trkpt><trkpt lat="45.8325856" lon="11.776477"><ele>1062.5</ele><time>2026-04-06T07:48:02.643Z</time></trkpt><trkpt lat="45.8325329" lon="11.7764184"><ele>1065.3333333333333</ele><time>2026-04-06T07:48:03.641Z</time></trkpt><trkpt lat="45.8324959" lon="11.7763125"><ele>1068.1666666666667</ele><time>2026-04-06T07:48:04.623Z</time></trkpt><trkpt lat="45.8324639" lon="11.7762021"><ele>1071.0</ele><time>2026-04-06T07:48:05.618Z</time></trkpt><trkpt lat="45.8324238" lon="11.776094"><ele>1064.6</ele><time>2026-04-06T07:48:06.624Z</time></trkpt><trkpt lat="45.8324154" lon="11.7759503"><ele>1058.1999999999998</ele><time>2026-04-06T07:48:07.622Z</time></trkpt><trkpt lat="45.8324168" lon="11.7757897"><ele>1051.8000000000002</ele><time>2026-04-06T07:48:08.623Z</time></trkpt><trkpt lat="45.8324246" lon="11.7756431"><ele>1045.4</ele><time>2026-04-06T07:48:09.618Z</time></trkpt><trkpt lat="45.8324252" lon="11.7755102"><ele>1039.0</ele><time>2026-04-06T07:48:10.619Z</time></trkpt><trkpt lat="45.8324202" lon="11.7753943"><ele>1039.0</ele><time>2026-04-06T07:48:11.617Z</time></trkpt><trkpt lat="45.8323992" lon="11.7752849"><ele>1039.0</ele><time>2026-04-06T07:48:12.619Z</time></trkpt><trkpt lat="45.8323675" lon="11.7751826"><ele>1039.0</ele><time>2026-04-06T07:48:13.606Z</time></trkpt><trkpt lat="45.8323199" lon="11.775084"><ele>1039.0</ele><time>2026-04-06T07:48:14.611Z</time></trkpt><trkpt lat="45.832252" lon="11.774959"><ele>1039.0</ele><time>2026-04-06T07:48:15.615Z</time></trkpt><trkpt lat="45.8321905" lon="11.7748184"><ele>1044.6000000000001</ele><time>2026-04-06T07:48:16.612Z</time></trkpt><trkpt lat="45.8321321" lon="11.7746764"><ele>1050.2</ele><time>2026-04-06T07:48:17.605Z</time></trkpt><trkpt lat="45.8320776" lon="11.7745306"><ele>1055.8000000000002</ele><time>2026-04-06T07:48:18.611Z</time></trkpt><trkpt lat="45.8320173" lon="11.7743878"><ele>1061.4</ele><time>2026-04-06T07:48:19.604Z</time></trkpt><trkpt lat="45.8319923" lon="11.7742982"><ele>1067.0</ele><time>2026-04-06T07:48:20.604Z</time></trkpt><trkpt lat="45.8319295" lon="11.7742005"><ele>1069.8333333333335</ele><time>2026-04-06T07:48:22.637Z</time></trkpt><trkpt lat="45.8319021" lon="11.7740338"><ele>1072.6666666666667</ele><time>2026-04-06T07:48:24.613Z</time></trkpt><trkpt lat="45.8318937" lon="11.7739315"><ele>1075.5</ele><time>2026-04-06T07:48:25.61Z</time></trkpt><trkpt lat="45.8318613" lon="11.7738268"><ele>1078.3333333333333</ele><time>2026-04-06T07:48:26.613Z</time></trkpt><trkpt lat="45.831799" lon="11.773778"><ele>1081.1666666666665</ele><time>2026-04-06T07:48:27.619Z</time></trkpt><trkpt lat="45.8317229" lon="11.7737372"><ele>1084.0</ele><time>2026-04-06T07:48:28.62Z</time></trkpt><trkpt lat="45.8316261" lon="11.7737096"><ele>1074.0</ele><time>2026-04-06T07:48:29.627Z</time></trkpt><trkpt lat="45.8315669" lon="11.7736571"><ele>1064.0</ele><time>2026-04-06T07:48:30.618Z</time></trkpt><trkpt lat="45.8315219" lon="11.77358"><ele>1054.0</ele><time>2026-04-06T07:48:31.636Z</time></trkpt><trkpt lat="45.8315188" lon="11.7734857"><ele>1044.0</ele><time>2026-04-06T07:48:32.643Z</time></trkpt><trkpt lat="45.8315435" lon="11.7733933"><ele>1034.0</ele><time>2026-04-06T07:48:33.612Z</time></trkpt><trkpt lat="45.8315369" lon="11.7732604"><ele>1024.0</ele><time>2026-04-06T07:48:34.624Z</time></trkpt><trkpt lat="45.8315874" lon="11.7730868"><ele>1024.0</ele><time>2026-04-06T07:48:35.621Z</time></trkpt><trkpt lat="45.8316238" lon="11.7729399"><ele>1024.0</ele><time>2026-04-06T07:48:36.612Z</time></trkpt><trkpt lat="45.8316561" lon="11.772801"><ele>1024.0</ele><time>2026-04-06T07:48:37.61Z</time></trkpt><trkpt lat="45.8316868" lon="11.7726686"><ele>1024.0</ele><time>2026-04-06T07:48:38.61Z</time></trkpt><trkpt lat="45.8317024" lon="11.772562"><ele>1024.0</ele><time>2026-04-06T07:48:39.605Z</time></trkpt><trkpt lat="45.831744" lon="11.7724749"><ele>1027.8333333333333</ele><time>2026-04-06T07:48:40.62Z</time></trkpt><trkpt lat="45.8317336" lon="11.7723517"><ele>1031.6666666666665</ele><time>2026-04-06T07:48:41.616Z</time></trkpt><trkpt lat="45.831691" lon="11.7722327"><ele>1035.5</ele><time>2026-04-06T07:48:42.608Z</time></trkpt><trkpt lat="45.8316379" lon="11.7721323"><ele>1039.3333333333333</ele><time>2026-04-06T07:48:43.612Z</time></trkpt><trkpt lat="45.8315867" lon="11.7720301"><ele>1043.1666666666667</ele><time>2026-04-06T07:48:44.617Z</time></trkpt><trkpt lat="45.831545" lon="11.7719385"><ele>1047.0</ele><time>2026-04-06T07:48:45.608Z</time></trkpt><trkpt lat="45.8314958" lon="11.7718527"><ele>1056.2</ele><time>2026-04-06T07:48:46.608Z</time></trkpt><trkpt lat="45.8314493" lon="11.7717645"><ele>1065.4</ele><time>2026-04-06T07:48:47.6Z</time></trkpt><trkpt lat="45.8313807" lon="11.771701"><ele>1074.6</ele><time>2026-04-06T07:48:48.617Z</time></trkpt><trkpt lat="45.831264" lon="11.7716443"><ele>1083.8</ele><time>2026-04-06T07:48:49.606Z</time></trkpt><trkpt lat="45.8311345" lon="11.7715948"><ele>1093.0</ele><time>2026-04-06T07:48:50.608Z</time></trkpt><trkpt lat="45.8309888" lon="11.7715468"><ele>1079.5</ele><time>2026-04-06T07:48:51.61Z</time></trkpt><trkpt lat="45.8308645" lon="11.771486"><ele>1066.0</ele><time>2026-04-06T07:48:52.609Z</time></trkpt><trkpt lat="45.8307145" lon="11.7714505"><ele>1052.5</ele><time>2026-04-06T07:48:53.702Z</time></trkpt><trkpt lat="45.8306018" lon="11.7713744"><ele>1039.0</ele><time>2026-04-06T07:48:54.695Z</time></trkpt><trkpt lat="45.8304737" lon="11.7712837"><ele>1039.0</ele><time>2026-04-06T07:48:55.633Z</time></trkpt><trkpt lat="45.8303118" lon="11.7712248"><ele>1039.0</ele><time>2026-04-06T07:48:56.784Z</time></trkpt><trkpt lat="45.8300917" lon="11.7709732"><ele>1039.0</ele><time>2026-04-06T07:48:58.638Z</time></trkpt><trkpt lat="45.8299917" lon="11.7708542"><ele>1039.0</ele><time>2026-04-06T07:48:59.627Z</time></trkpt><trkpt lat="45.8298884" lon="11.7707759"><ele>1039.0</ele><time>2026-04-06T07:49:00.61Z</time></trkpt><trkpt lat="45.8297862" lon="11.7707142"><ele>1039.0</ele><time>2026-04-06T07:49:01.613Z</time></trkpt><trkpt lat="45.8296801" lon="11.7707119"><ele>1039.0</ele><time>2026-04-06T07:49:02.619Z</time></trkpt><trkpt lat="45.8295198" lon="11.7707593"><ele>1039.0</ele><time>2026-04-06T07:49:03.609Z</time></trkpt><trkpt lat="45.8294063" lon="11.770794"><ele>1039.0</ele><time>2026-04-06T07:49:04.613Z</time></trkpt><trkpt lat="45.8292826" lon="11.7708371"><ele>1039.0</ele><time>2026-04-06T07:49:05.615Z</time></trkpt><trkpt lat="45.8291677" lon="11.7708618"><ele>1039.0</ele><time>2026-04-06T07:49:06.612Z</time></trkpt><trkpt lat="45.829053" lon="11.7708797"><ele>1032.2</ele><time>2026-04-06T07:49:07.616Z</time></trkpt><trkpt lat="45.828929" lon="11.7708653"><ele>1025.4</ele><time>2026-04-06T07:49:08.613Z</time></trkpt><trkpt lat="45.8288383" lon="11.7708079"><ele>1018.6</ele><time>2026-04-06T07:49:09.612Z</time></trkpt><trkpt lat="45.8287488" lon="11.7707242"><ele>1011.8</ele><time>2026-04-06T07:49:10.61Z</time></trkpt><trkpt lat="45.8286681" lon="11.7706378"><ele>1005.0</ele><time>2026-04-06T07:49:11.612Z</time></trkpt><trkpt lat="45.8286235" lon="11.7705155"><ele>1005.0</ele><time>2026-04-06T07:49:12.615Z</time></trkpt><trkpt lat="45.8286085" lon="11.7703875"><ele>1005.0</ele><time>2026-04-06T07:49:13.608Z</time></trkpt><trkpt lat="45.8285773" lon="11.7702335"><ele>1005.0</ele><time>2026-04-06T07:49:14.779Z</time></trkpt><trkpt lat="45.8285185" lon="11.7699666"><ele>1005.0</ele><time>2026-04-06T07:49:16.612Z</time></trkpt><trkpt lat="45.8284712" lon="11.7698554"><ele>1003.0</ele><time>2026-04-06T07:49:17.617Z</time></trkpt><trkpt lat="45.8284269" lon="11.7697393"><ele>1001.0</ele><time>2026-04-06T07:49:18.617Z</time></trkpt><trkpt lat="45.828384" lon="11.7696261"><ele>999.0</ele><time>2026-04-06T07:49:19.606Z</time></trkpt><trkpt lat="45.8283481" lon="11.7695192"><ele>997.0</ele><time>2026-04-06T07:49:20.607Z</time></trkpt><trkpt lat="45.8282847" lon="11.7694274"><ele>995.0</ele><time>2026-04-06T07:49:21.617Z</time></trkpt><trkpt lat="45.8282023" lon="11.769316"><ele>995.0</ele><time>2026-04-06T07:49:22.609Z</time></trkpt><trkpt lat="45.8281075" lon="11.769205"><ele>995.0</ele><time>2026-04-06T07:49:23.622Z</time></trkpt><trkpt lat="45.828001" lon="11.7691203"><ele>995.0</ele><time>2026-04-06T07:49:24.612Z</time></trkpt><trkpt lat="45.8278862" lon="11.7690543"><ele>995.0</ele><time>2026-04-06T07:49:25.623Z</time></trkpt><trkpt lat="45.827781" lon="11.7690119"><ele>995.0</ele><time>2026-04-06T07:49:26.619Z</time></trkpt><trkpt lat="45.8276746" lon="11.7689777"><ele>995.0</ele><time>2026-04-06T07:49:27.621Z</time></trkpt><trkpt lat="45.8275716" lon="11.7689513"><ele>995.0</ele><time>2026-04-06T07:49:28.622Z</time></trkpt><trkpt lat="45.827471" lon="11.7689502"><ele>995.0</ele><time>2026-04-06T07:49:29.626Z</time></trkpt><trkpt lat="45.8273502" lon="11.7689809"><ele>995.0</ele><time>2026-04-06T07:49:30.616Z</time></trkpt><trkpt lat="45.8272376" lon="11.7689684"><ele>990.5000000000001</ele><time>2026-04-06T07:49:31.62Z</time></trkpt><trkpt lat="45.8271933" lon="11.7689026"><ele>986.0</ele><time>2026-04-06T07:49:33.617Z</time></trkpt><trkpt lat="45.8271399" lon="11.7688423"><ele>981.5</ele><time>2026-04-06T07:50:09.631Z</time></trkpt><trkpt lat="45.8270714" lon="11.7688138"><ele>977.0</ele><time>2026-04-06T07:50:11.653Z</time></trkpt><trkpt lat="45.8269907" lon="11.7688227"><ele>972.5000000000001</ele><time>2026-04-06T07:50:12.634Z</time></trkpt><trkpt lat="45.826877" lon="11.7688441"><ele>968.0</ele><time>2026-04-06T07:50:13.629Z</time></trkpt><trkpt lat="45.8267568" lon="11.7688745"><ele>964.8</ele><time>2026-04-06T07:50:14.627Z</time></trkpt><trkpt lat="45.8266337" lon="11.7689067"><ele>961.5999999999999</ele><time>2026-04-06T07:50:15.627Z</time></trkpt><trkpt lat="45.8265198" lon="11.7689297"><ele>958.4000000000001</ele><time>2026-04-06T07:50:16.64Z</time></trkpt><trkpt lat="45.8264143" lon="11.7689359"><ele>955.2</ele><time>2026-04-06T07:50:17.637Z</time></trkpt><trkpt lat="45.8263234" lon="11.7689367"><ele>952.0</ele><time>2026-04-06T07:50:18.635Z</time></trkpt><trkpt lat="45.8262394" lon="11.768924"><ele>951.9999999999999</ele><time>2026-04-06T07:50:19.646Z</time></trkpt><trkpt lat="45.8261554" lon="11.7689065"><ele>952.0</ele><time>2026-04-06T07:50:20.644Z</time></trkpt><trkpt lat="45.8260748" lon="11.7688898"><ele>952.0</ele><time>2026-04-06T07:50:21.638Z</time></trkpt><trkpt lat="45.8259973" lon="11.7688654"><ele>952.0</ele><time>2026-04-06T07:50:22.644Z</time></trkpt><trkpt lat="45.8259278" lon="11.768827"><ele>951.9999999999999</ele><time>2026-04-06T07:50:23.64Z</time></trkpt><trkpt lat="45.8258626" lon="11.7687735"><ele>952.0</ele><time>2026-04-06T07:50:24.641Z</time></trkpt><trkpt lat="45.8257963" lon="11.7686973"><ele>950.8333333333333</ele><time>2026-04-06T07:50:25.641Z</time></trkpt><trkpt lat="45.8257332" lon="11.7686102"><ele>949.6666666666666</ele><time>2026-04-06T07:50:26.627Z</time></trkpt><trkpt lat="45.8256905" lon="11.7684949"><ele>948.5</ele><time>2026-04-06T07:50:27.64Z</time></trkpt><trkpt lat="45.825665" lon="11.768369"><ele>947.3333333333333</ele><time>2026-04-06T07:50:28.634Z</time></trkpt><trkpt lat="45.8256607" lon="11.7682589"><ele>946.1666666666666</ele><time>2026-04-06T07:50:29.638Z</time></trkpt><trkpt lat="45.8256741" lon="11.7681484"><ele>945.0</ele><time>2026-04-06T07:50:30.632Z</time></trkpt><trkpt lat="45.8256842" lon="11.768057"><ele>945.0</ele><time>2026-04-06T07:50:31.638Z</time></trkpt><trkpt lat="45.8256669" lon="11.7679201"><ele>945.0</ele><time>2026-04-06T07:50:33.622Z</time></trkpt><trkpt lat="45.8255799" lon="11.7679916"><ele>945.0</ele><time>2026-04-06T07:50:35.636Z</time></trkpt><trkpt lat="45.8255604" lon="11.7681166"><ele>945.0</ele><time>2026-04-06T07:50:36.632Z</time></trkpt><trkpt lat="45.825557" lon="11.768283"><ele>945.0</ele><time>2026-04-06T07:50:37.625Z</time></trkpt><trkpt lat="45.8255615" lon="11.768444"><ele>942.0</ele><time>2026-04-06T07:50:38.622Z</time></trkpt><trkpt lat="45.8255805" lon="11.7685901"><ele>939.0</ele><time>2026-04-06T07:50:39.636Z</time></trkpt><trkpt lat="45.8256115" lon="11.7687295"><ele>936.0</ele><time>2026-04-06T07:50:40.62Z</time></trkpt><trkpt lat="45.8256656" lon="11.7688835"><ele>933.0</ele><time>2026-04-06T07:50:41.625Z</time></trkpt><trkpt lat="45.8257355" lon="11.7690329"><ele>933.0</ele><time>2026-04-06T07:50:42.659Z</time></trkpt><trkpt lat="45.8258318" lon="11.7691758"><ele>933.0</ele><time>2026-04-06T07:50:43.623Z</time></trkpt><trkpt lat="45.8259351" lon="11.7693212"><ele>933.0</ele><time>2026-04-06T07:50:44.624Z</time></trkpt><trkpt lat="45.826027" lon="11.769441"><ele>933.0</ele><time>2026-04-06T07:50:45.618Z</time></trkpt><trkpt lat="45.8261195" lon="11.7695388"><ele>932.0</ele><time>2026-04-06T07:50:46.623Z</time></trkpt><trkpt lat="45.8262126" lon="11.7696043"><ele>931.0</ele><time>2026-04-06T07:50:47.621Z</time></trkpt><trkpt lat="45.8263037" lon="11.7696612"><ele>930.0</ele><time>2026-04-06T07:50:48.623Z</time></trkpt><trkpt lat="45.8263615" lon="11.7697243"><ele>929.0</ele><time>2026-04-06T07:50:49.632Z</time></trkpt><trkpt lat="45.8264337" lon="11.7698216"><ele>928.0</ele><time>2026-04-06T07:50:51.616Z</time></trkpt><trkpt lat="45.8264058" lon="11.7699068"><ele>927.0</ele><time>2026-04-06T07:50:53.62Z</time></trkpt><trkpt lat="45.8262598" lon="11.7698302"><ele>927.0</ele><time>2026-04-06T07:50:55.611Z</time></trkpt><trkpt lat="45.8261689" lon="11.769754"><ele>927.0</ele><time>2026-04-06T07:50:56.617Z</time></trkpt><trkpt lat="45.8260739" lon="11.769688"><ele>927.0</ele><time>2026-04-06T07:50:57.611Z</time></trkpt><trkpt lat="45.8259539" lon="11.7696415"><ele>927.0</ele><time>2026-04-06T07:50:58.622Z</time></trkpt><trkpt lat="45.8258108" lon="11.7695682"><ele>929.0</ele><time>2026-04-06T07:50:59.612Z</time></trkpt><trkpt lat="45.8256516" lon="11.7694693"><ele>931.0</ele><time>2026-04-06T07:51:00.616Z</time></trkpt><trkpt lat="45.8255054" lon="11.7693673"><ele>933.0</ele><time>2026-04-06T07:51:01.78Z</time></trkpt><trkpt lat="45.8252591" lon="11.7691372"><ele>933.0</ele><time>2026-04-06T07:51:03.62Z</time></trkpt><trkpt lat="45.8251475" lon="11.7690125"><ele>933.0</ele><time>2026-04-06T07:51:04.612Z</time></trkpt><trkpt lat="45.8250502" lon="11.7689137"><ele>933.0</ele><time>2026-04-06T07:51:05.643Z</time></trkpt><trkpt lat="45.8249845" lon="11.7688234"><ele>933.0</ele><time>2026-04-06T07:51:06.64Z</time></trkpt><trkpt lat="45.8249182" lon="11.7686868"><ele>927.0</ele><time>2026-04-06T07:51:07.645Z</time></trkpt><trkpt lat="45.8248527" lon="11.7685104"><ele>921.0</ele><time>2026-04-06T07:51:08.627Z</time></trkpt><trkpt lat="45.8247894" lon="11.7683492"><ele>915.0</ele><time>2026-04-06T07:51:09.654Z</time></trkpt><trkpt lat="45.824748" lon="11.7681864"><ele>909.0</ele><time>2026-04-06T07:51:10.625Z</time></trkpt><trkpt lat="45.8247172" lon="11.7680365"><ele>909.0</ele><time>2026-04-06T07:51:11.647Z</time></trkpt><trkpt lat="45.8246998" lon="11.7678994"><ele>909.0000000000001</ele><time>2026-04-06T07:51:12.634Z</time></trkpt><trkpt lat="45.8246929" lon="11.7677644"><ele>909.0000000000001</ele><time>2026-04-06T07:51:13.624Z</time></trkpt><trkpt lat="45.8246936" lon="11.7676311"><ele>909.0</ele><time>2026-04-06T07:51:14.621Z</time></trkpt><trkpt lat="45.8246972" lon="11.7675049"><ele>909.0</ele><time>2026-04-06T07:51:15.62Z</time></trkpt><trkpt lat="45.824713" lon="11.7673851"><ele>908.8333333333334</ele><time>2026-04-06T07:51:16.61Z</time></trkpt><trkpt lat="45.8247358" lon="11.7672707"><ele>908.6666666666667</ele><time>2026-04-06T07:51:17.627Z</time></trkpt><trkpt lat="45.8247684" lon="11.7671664"><ele>908.5</ele><time>2026-04-06T07:51:18.621Z</time></trkpt><trkpt lat="45.8248084" lon="11.7670663"><ele>908.3333333333334</ele><time>2026-04-06T07:51:19.619Z</time></trkpt><trkpt lat="45.8248601" lon="11.7669665"><ele>908.1666666666667</ele><time>2026-04-06T07:51:20.623Z</time></trkpt><trkpt lat="45.8249198" lon="11.7668682"><ele>908.0</ele><time>2026-04-06T07:51:21.641Z</time></trkpt><trkpt lat="45.8249709" lon="11.7667807"><ele>905.5000000000001</ele><time>2026-04-06T07:51:22.619Z</time></trkpt><trkpt lat="45.8250114" lon="11.7666946"><ele>903.0</ele><time>2026-04-06T07:51:23.625Z</time></trkpt><trkpt lat="45.8250417" lon="11.7666088"><ele>900.5</ele><time>2026-04-06T07:51:24.619Z</time></trkpt><trkpt lat="45.8250698" lon="11.7664641"><ele>898.0</ele><time>2026-04-06T07:51:26.625Z</time></trkpt><trkpt lat="45.8250024" lon="11.7663851"><ele>895.5000000000001</ele><time>2026-04-06T07:51:28.626Z</time></trkpt><trkpt lat="45.824913" lon="11.7664491"><ele>893.0</ele><time>2026-04-06T07:51:30.634Z</time></trkpt><trkpt lat="45.8248413" lon="11.7665671"><ele>893.0</ele><time>2026-04-06T07:51:32.636Z</time></trkpt><trkpt lat="45.8247848" lon="11.766711"><ele>893.0</ele><time>2026-04-06T07:51:34.637Z</time></trkpt><trkpt lat="45.8247448" lon="11.7668011"><ele>893.0</ele><time>2026-04-06T07:51:35.632Z</time></trkpt><trkpt lat="45.8246905" lon="11.7668942"><ele>893.0</ele><time>2026-04-06T07:51:36.62Z</time></trkpt><trkpt lat="45.8246164" lon="11.7669834"><ele>893.0</ele><time>2026-04-06T07:51:37.622Z</time></trkpt><trkpt lat="45.8245485" lon="11.7670656"><ele>895.5000000000001</ele><time>2026-04-06T07:51:38.628Z</time></trkpt><trkpt lat="45.8244944" lon="11.7671489"><ele>898.0</ele><time>2026-04-06T07:51:39.619Z</time></trkpt><trkpt lat="45.8244565" lon="11.7672432"><ele>900.5</ele><time>2026-04-06T07:51:40.652Z</time></trkpt><trkpt lat="45.8244234" lon="11.7673521"><ele>903.0</ele><time>2026-04-06T07:51:41.653Z</time></trkpt><trkpt lat="45.8244012" lon="11.7674666"><ele>905.5000000000001</ele><time>2026-04-06T07:51:42.642Z</time></trkpt><trkpt lat="45.8243775" lon="11.7675799"><ele>908.0</ele><time>2026-04-06T07:51:43.645Z</time></trkpt><trkpt lat="45.8243552" lon="11.7677223"><ele>908.25</ele><time>2026-04-06T07:51:44.645Z</time></trkpt><trkpt lat="45.8243317" lon="11.7678796"><ele>908.5</ele><time>2026-04-06T07:51:45.641Z</time></trkpt><trkpt lat="45.8243114" lon="11.7680502"><ele>908.75</ele><time>2026-04-06T07:51:46.617Z</time></trkpt><trkpt lat="45.8242842" lon="11.7682315"><ele>909.0</ele><time>2026-04-06T07:51:47.62Z</time></trkpt><trkpt lat="45.8242655" lon="11.768402"><ele>898.0</ele><time>2026-04-06T07:51:48.625Z</time></trkpt><trkpt lat="45.8242424" lon="11.7685678"><ele>887.0</ele><time>2026-04-06T07:51:49.624Z</time></trkpt><trkpt lat="45.8242314" lon="11.7687329"><ele>876.0</ele><time>2026-04-06T07:51:50.623Z</time></trkpt><trkpt lat="45.8242218" lon="11.7688952"><ele>865.0</ele><time>2026-04-06T07:51:51.619Z</time></trkpt><trkpt lat="45.8242196" lon="11.7690624"><ele>865.0</ele><time>2026-04-06T07:51:52.621Z</time></trkpt><trkpt lat="45.8242219" lon="11.7692217"><ele>865.0</ele><time>2026-04-06T07:51:53.623Z</time></trkpt><trkpt lat="45.8242581" lon="11.7693848"><ele>865.0</ele><time>2026-04-06T07:51:54.625Z</time></trkpt><trkpt lat="45.8243016" lon="11.7695433"><ele>865.0</ele><time>2026-04-06T07:51:55.638Z</time></trkpt><trkpt lat="45.8243566" lon="11.769698"><ele>868.0</ele><time>2026-04-06T07:51:56.622Z</time></trkpt><trkpt lat="45.8244227" lon="11.7698286"><ele>871.0</ele><time>2026-04-06T07:51:57.624Z</time></trkpt><trkpt lat="45.8244935" lon="11.7699429"><ele>874.0</ele><time>2026-04-06T07:51:58.62Z</time></trkpt><trkpt lat="45.8245556" lon="11.7700527"><ele>877.0</ele><time>2026-04-06T07:51:59.615Z</time></trkpt><trkpt lat="45.8246075" lon="11.7701677"><ele>880.0</ele><time>2026-04-06T07:52:00.616Z</time></trkpt><trkpt lat="45.824642" lon="11.7702838"><ele>879.9999999999999</ele><time>2026-04-06T07:52:01.616Z</time></trkpt><trkpt lat="45.8246677" lon="11.7703929"><ele>880.0</ele><time>2026-04-06T07:52:02.621Z</time></trkpt><trkpt lat="45.8246747" lon="11.7704866"><ele>880.0</ele><time>2026-04-06T07:52:03.621Z</time></trkpt><trkpt lat="45.824668" lon="11.7705869"><ele>880.0</ele><time>2026-04-06T07:52:04.637Z</time></trkpt><trkpt lat="45.8246475" lon="11.7706843"><ele>880.0</ele><time>2026-04-06T07:52:05.62Z</time></trkpt><trkpt lat="45.8246114" lon="11.77077"><ele>879.9999999999999</ele><time>2026-04-06T07:52:06.618Z</time></trkpt><trkpt lat="45.8245578" lon="11.7708316"><ele>880.0</ele><time>2026-04-06T07:52:07.626Z</time></trkpt><trkpt lat="45.8244827" lon="11.7708676"><ele>880.0</ele><time>2026-04-06T07:52:08.616Z</time></trkpt><trkpt lat="45.8243929" lon="11.7708585"><ele>880.0</ele><time>2026-04-06T07:52:09.627Z</time></trkpt><trkpt lat="45.8243082" lon="11.7707584"><ele>880.0</ele><time>2026-04-06T07:52:10.625Z</time></trkpt><trkpt lat="45.8242378" lon="11.770626"><ele>880.0</ele><time>2026-04-06T07:52:11.622Z</time></trkpt><trkpt lat="45.8241668" lon="11.7704901"><ele>880.0</ele><time>2026-04-06T07:52:12.615Z</time></trkpt><trkpt lat="45.8241115" lon="11.7703384"><ele>875.9999999999999</ele><time>2026-04-06T07:52:13.62Z</time></trkpt><trkpt lat="45.8240803" lon="11.7701834"><ele>872.0</ele><time>2026-04-06T07:52:14.641Z</time></trkpt><trkpt lat="45.8240737" lon="11.7700434"><ele>868.0</ele><time>2026-04-06T07:52:15.614Z</time></trkpt><trkpt lat="45.8240842" lon="11.7699224"><ele>864.0</ele><time>2026-04-06T07:52:16.634Z</time></trkpt><trkpt lat="45.8240889" lon="11.7698183"><ele>859.9999999999999</ele><time>2026-04-06T07:52:17.632Z</time></trkpt><trkpt lat="45.8240845" lon="11.7697136"><ele>856.0</ele><time>2026-04-06T07:52:18.629Z</time></trkpt><trkpt lat="45.8240284" lon="11.7695741"><ele>856.0</ele><time>2026-04-06T07:52:20.628Z</time></trkpt><trkpt lat="45.823924" lon="11.7694868"><ele>855.9999999999999</ele><time>2026-04-06T07:52:22.622Z</time></trkpt><trkpt lat="45.8238828" lon="11.7694097"><ele>855.9999999999999</ele><time>2026-04-06T07:52:23.64Z</time></trkpt><trkpt lat="45.8238493" lon="11.7692702"><ele>856.0</ele><time>2026-04-06T07:52:24.611Z</time></trkpt><trkpt lat="45.8238247" lon="11.7691182"><ele>856.0</ele><time>2026-04-06T07:52:25.631Z</time></trkpt><trkpt lat="45.8237977" lon="11.7689324"><ele>859.0</ele><time>2026-04-06T07:52:26.634Z</time></trkpt><trkpt lat="45.8237755" lon="11.7687188"><ele>862.0</ele><time>2026-04-06T07:52:27.607Z</time></trkpt><trkpt lat="45.8237452" lon="11.7685036"><ele>865.0</ele><time>2026-04-06T07:52:28.619Z</time></trkpt><trkpt lat="45.8237085" lon="11.7682388"><ele>866.25</ele><time>2026-04-06T07:52:29.618Z</time></trkpt><trkpt lat="45.8236637" lon="11.7680153"><ele>867.5</ele><time>2026-04-06T07:52:30.607Z</time></trkpt><trkpt lat="45.8235878" lon="11.7678486"><ele>868.75</ele><time>2026-04-06T07:52:31.628Z</time></trkpt><trkpt lat="45.8235179" lon="11.7676904"><ele>870.0</ele><time>2026-04-06T07:52:32.608Z</time></trkpt><trkpt lat="45.8234339" lon="11.7675429"><ele>863.0</ele><time>2026-04-06T07:52:33.607Z</time></trkpt><trkpt lat="45.8233726" lon="11.7674019"><ele>856.0</ele><time>2026-04-06T07:52:34.615Z</time></trkpt><trkpt lat="45.8233452" lon="11.7672515"><ele>849.0</ele><time>2026-04-06T07:52:35.61Z</time></trkpt><trkpt lat="45.8233158" lon="11.7671168"><ele>842.0</ele><time>2026-04-06T07:52:36.611Z</time></trkpt><trkpt lat="45.8232803" lon="11.7669586"><ele>835.0</ele><time>2026-04-06T07:52:37.636Z</time></trkpt><trkpt lat="45.8232255" lon="11.7667914"><ele>835.0</ele><time>2026-04-06T07:52:38.638Z</time></trkpt><trkpt lat="45.8231667" lon="11.7666345"><ele>835.0</ele><time>2026-04-06T07:52:39.607Z</time></trkpt><trkpt lat="45.823109" lon="11.7664836"><ele>835.0</ele><time>2026-04-06T07:52:40.614Z</time></trkpt><trkpt lat="45.8230667" lon="11.7663388"><ele>835.0</ele><time>2026-04-06T07:52:41.612Z</time></trkpt><trkpt lat="45.8230407" lon="11.7661994"><ele>835.0</ele><time>2026-04-06T07:52:42.621Z</time></trkpt><trkpt lat="45.8230248" lon="11.7660552"><ele>835.0</ele><time>2026-04-06T07:52:43.613Z</time></trkpt><trkpt lat="45.8230431" lon="11.7659066"><ele>835.0</ele><time>2026-04-06T07:52:44.627Z</time></trkpt><trkpt lat="45.8230718" lon="11.7657558"><ele>835.0</ele><time>2026-04-06T07:52:45.616Z</time></trkpt><trkpt lat="45.8231099" lon="11.7656057"><ele>835.0</ele><time>2026-04-06T07:52:46.609Z</time></trkpt><trkpt lat="45.8231295" lon="11.765474"><ele>833.9999999999999</ele><time>2026-04-06T07:52:47.695Z</time></trkpt><trkpt lat="45.8231407" lon="11.7653526"><ele>833.0</ele><time>2026-04-06T07:52:48.62Z</time></trkpt><trkpt lat="45.8231358" lon="11.7652357"><ele>832.0</ele><time>2026-04-06T07:52:49.634Z</time></trkpt><trkpt lat="45.8231233" lon="11.7651349"><ele>831.0</ele><time>2026-04-06T07:52:50.663Z</time></trkpt><trkpt lat="45.823093" lon="11.7650445"><ele>829.9999999999999</ele><time>2026-04-06T07:52:51.612Z</time></trkpt><trkpt lat="45.8230356" lon="11.7649564"><ele>829.0</ele><time>2026-04-06T07:52:52.618Z</time></trkpt><trkpt lat="45.8229856" lon="11.7648758"><ele>829.0</ele><time>2026-04-06T07:52:53.618Z</time></trkpt><trkpt lat="45.8229393" lon="11.7647987"><ele>829.0</ele><time>2026-04-06T07:52:54.614Z</time></trkpt><trkpt lat="45.8229063" lon="11.7646246"><ele>829.0</ele><time>2026-04-06T07:52:56.616Z</time></trkpt><trkpt lat="45.822921" lon="11.764504"><ele>829.0</ele><time>2026-04-06T07:52:57.609Z</time></trkpt><trkpt lat="45.8229489" lon="11.7643652"><ele>829.0</ele><time>2026-04-06T07:52:58.611Z</time></trkpt><trkpt lat="45.822994" lon="11.764201"><ele>827.5</ele><time>2026-04-06T07:52:59.621Z</time></trkpt><trkpt lat="45.8230422" lon="11.7640267"><ele>826.0</ele><time>2026-04-06T07:53:00.628Z</time></trkpt><trkpt lat="45.8231038" lon="11.763882"><ele>824.5</ele><time>2026-04-06T07:53:01.633Z</time></trkpt><trkpt lat="45.8231292" lon="11.7637343"><ele>823.0</ele><time>2026-04-06T07:53:02.61Z</time></trkpt><trkpt lat="45.8231254" lon="11.7635938"><ele>822.2</ele><time>2026-04-06T07:53:03.624Z</time></trkpt><trkpt lat="45.8230849" lon="11.7634508"><ele>821.4</ele><time>2026-04-06T07:53:04.637Z</time></trkpt><trkpt lat="45.8230234" lon="11.7633296"><ele>820.6</ele><time>2026-04-06T07:53:05.612Z</time></trkpt><trkpt lat="45.8229449" lon="11.7632227"><ele>819.8000000000001</ele><time>2026-04-06T07:53:06.636Z</time></trkpt><trkpt lat="45.8228711" lon="11.7630804"><ele>819.0</ele><time>2026-04-06T07:53:07.635Z</time></trkpt><trkpt lat="45.8228146" lon="11.7629177"><ele>819.0</ele><time>2026-04-06T07:53:08.609Z</time></trkpt><trkpt lat="45.8227777" lon="11.7627603"><ele>819.0</ele><time>2026-04-06T07:53:09.605Z</time></trkpt><trkpt lat="45.8227577" lon="11.762598"><ele>819.0</ele><time>2026-04-06T07:53:10.612Z</time></trkpt><trkpt lat="45.8227328" lon="11.7624456"><ele>819.0</ele><time>2026-04-06T07:53:11.612Z</time></trkpt><trkpt lat="45.8227084" lon="11.7623028"><ele>819.0</ele><time>2026-04-06T07:53:12.617Z</time></trkpt><trkpt lat="45.8226947" lon="11.7621645"><ele>819.0</ele><time>2026-04-06T07:53:13.615Z</time></trkpt><trkpt lat="45.8226952" lon="11.7620322"><ele>819.0</ele><time>2026-04-06T07:53:14.615Z</time></trkpt><trkpt lat="45.8227043" lon="11.761934"><ele>819.0</ele><time>2026-04-06T07:53:15.612Z</time></trkpt><trkpt lat="45.822671" lon="11.761843"><ele>819.0</ele><time>2026-04-06T07:53:17.604Z</time></trkpt><trkpt lat="45.8226043" lon="11.7619058"><ele>819.0</ele><time>2026-04-06T07:53:19.616Z</time></trkpt><trkpt lat="45.8225579" lon="11.7620956"><ele>810.5</ele><time>2026-04-06T07:53:21.646Z</time></trkpt><trkpt lat="45.8225709" lon="11.7622876"><ele>802.0</ele><time>2026-04-06T07:53:22.617Z</time></trkpt><trkpt lat="45.8225782" lon="11.7625176"><ele>793.5</ele><time>2026-04-06T07:53:23.617Z</time></trkpt><trkpt lat="45.8225822" lon="11.762729"><ele>785.0</ele><time>2026-04-06T07:53:24.651Z</time></trkpt><trkpt lat="45.8225746" lon="11.762922"><ele>785.0</ele><time>2026-04-06T07:53:25.661Z</time></trkpt><trkpt lat="45.8225474" lon="11.7630911"><ele>785.0</ele><time>2026-04-06T07:53:26.664Z</time></trkpt><trkpt lat="45.8225143" lon="11.7632465"><ele>785.0</ele><time>2026-04-06T07:53:27.634Z</time></trkpt><trkpt lat="45.8224829" lon="11.7634095"><ele>785.0</ele><time>2026-04-06T07:53:28.638Z</time></trkpt><trkpt lat="45.8224488" lon="11.7635641"><ele>786.4</ele><time>2026-04-06T07:53:29.663Z</time></trkpt><trkpt lat="45.8224117" lon="11.7637239"><ele>787.8</ele><time>2026-04-06T07:53:30.664Z</time></trkpt><trkpt lat="45.8223467" lon="11.7637864"><ele>789.2</ele><time>2026-04-06T07:53:31.611Z</time></trkpt><trkpt lat="45.8222535" lon="11.7638207"><ele>790.6</ele><time>2026-04-06T07:53:32.614Z</time></trkpt><trkpt lat="45.8221593" lon="11.7638418"><ele>792.0</ele><time>2026-04-06T07:53:33.611Z</time></trkpt><trkpt lat="45.8220467" lon="11.7638327"><ele>792.0</ele><time>2026-04-06T07:53:34.615Z</time></trkpt><trkpt lat="45.821933" lon="11.7638179"><ele>792.0</ele><time>2026-04-06T07:53:35.622Z</time></trkpt><trkpt lat="45.8218247" lon="11.7637829"><ele>792.0</ele><time>2026-04-06T07:53:36.619Z</time></trkpt><trkpt lat="45.8217236" lon="11.7637243"><ele>792.0</ele><time>2026-04-06T07:53:37.61Z</time></trkpt><trkpt lat="45.8216396" lon="11.7636091"><ele>786.4000000000001</ele><time>2026-04-06T07:53:38.62Z</time></trkpt><trkpt lat="45.821579" lon="11.7634623"><ele>780.8000000000001</ele><time>2026-04-06T07:53:39.624Z</time></trkpt><trkpt lat="45.8215437" lon="11.7633104"><ele>775.2</ele><time>2026-04-06T07:53:40.625Z</time></trkpt><trkpt lat="45.8215295" lon="11.7631797"><ele>769.6</ele><time>2026-04-06T07:53:41.617Z</time></trkpt><trkpt lat="45.8215154" lon="11.7630884"><ele>764.0</ele><time>2026-04-06T07:53:42.613Z</time></trkpt><trkpt lat="45.8214751" lon="11.7630101"><ele>764.0</ele><time>2026-04-06T07:53:43.62Z</time></trkpt><trkpt lat="45.8214" lon="11.7629742"><ele>764.0</ele><time>2026-04-06T07:53:45.61Z</time></trkpt><trkpt lat="45.8213486" lon="11.7631352"><ele>764.0</ele><time>2026-04-06T07:53:47.611Z</time></trkpt><trkpt lat="45.8212973" lon="11.763271"><ele>764.0</ele><time>2026-04-06T07:53:48.617Z</time></trkpt><trkpt lat="45.8212287" lon="11.7634071"><ele>764.0</ele><time>2026-04-06T07:53:49.615Z</time></trkpt><trkpt lat="45.8211755" lon="11.7635613"><ele>766.25</ele><time>2026-04-06T07:53:50.628Z</time></trkpt><trkpt lat="45.8211167" lon="11.7637307"><ele>768.5</ele><time>2026-04-06T07:53:51.62Z</time></trkpt><trkpt lat="45.821018" lon="11.7638883"><ele>770.75</ele><time>2026-04-06T07:53:52.62Z</time></trkpt><trkpt lat="45.8209729" lon="11.7640499"><ele>773.0</ele><time>2026-04-06T07:53:53.622Z</time></trkpt><trkpt lat="45.8209041" lon="11.7642346"><ele>765.5</ele><time>2026-04-06T07:53:54.625Z</time></trkpt><trkpt lat="45.8208664" lon="11.7644086"><ele>758.0</ele><time>2026-04-06T07:53:55.622Z</time></trkpt><trkpt lat="45.8208296" lon="11.7645917"><ele>750.5</ele><time>2026-04-06T07:53:56.613Z</time></trkpt><trkpt lat="45.8208423" lon="11.7647769"><ele>743.0</ele><time>2026-04-06T07:53:57.62Z</time></trkpt><trkpt lat="45.8208982" lon="11.7649546"><ele>743.0</ele><time>2026-04-06T07:53:58.632Z</time></trkpt><trkpt lat="45.8209416" lon="11.7651151"><ele>743.0</ele><time>2026-04-06T07:53:59.629Z</time></trkpt><trkpt lat="45.8209797" lon="11.7652633"><ele>743.0</ele><time>2026-04-06T07:54:00.617Z</time></trkpt><trkpt lat="45.8210101" lon="11.7653951"><ele>743.0</ele><time>2026-04-06T07:54:01.621Z</time></trkpt><trkpt lat="45.8210337" lon="11.7654909"><ele>743.0</ele><time>2026-04-06T07:54:02.63Z</time></trkpt><trkpt lat="45.8210382" lon="11.7656227"><ele>741.2</ele><time>2026-04-06T07:54:04.63Z</time></trkpt><trkpt lat="45.8209689" lon="11.7656954"><ele>739.4</ele><time>2026-04-06T07:54:06.632Z</time></trkpt><trkpt lat="45.8208869" lon="11.7656635"><ele>737.6</ele><time>2026-04-06T07:54:07.63Z</time></trkpt><trkpt lat="45.8207935" lon="11.7655767"><ele>735.8000000000001</ele><time>2026-04-06T07:54:08.626Z</time></trkpt><trkpt lat="45.8207175" lon="11.7654543"><ele>734.0</ele><time>2026-04-06T07:54:09.623Z</time></trkpt><trkpt lat="45.8206442" lon="11.7653424"><ele>734.0</ele><time>2026-04-06T07:54:10.629Z</time></trkpt><trkpt lat="45.8205813" lon="11.7652268"><ele>734.0</ele><time>2026-04-06T07:54:11.627Z</time></trkpt><trkpt lat="45.8205211" lon="11.765102"><ele>734.0</ele><time>2026-04-06T07:54:12.613Z</time></trkpt><trkpt lat="45.8204759" lon="11.7649318"><ele>734.0</ele><time>2026-04-06T07:54:13.625Z</time></trkpt><trkpt lat="45.8204395" lon="11.7647594"><ele>736.25</ele><time>2026-04-06T07:54:14.624Z</time></trkpt><trkpt lat="45.8203959" lon="11.7645914"><ele>738.5</ele><time>2026-04-06T07:54:15.622Z</time></trkpt><trkpt lat="45.8203512" lon="11.7644394"><ele>740.75</ele><time>2026-04-06T07:54:16.635Z</time></trkpt><trkpt lat="45.820304" lon="11.7642832"><ele>743.0</ele><time>2026-04-06T07:54:17.635Z</time></trkpt><trkpt lat="45.8202727" lon="11.7641256"><ele>744.75</ele><time>2026-04-06T07:54:18.617Z</time></trkpt><trkpt lat="45.8202516" lon="11.7639471"><ele>746.5</ele><time>2026-04-06T07:54:19.651Z</time></trkpt><trkpt lat="45.8202313" lon="11.7637586"><ele>748.25</ele><time>2026-04-06T07:54:20.622Z</time></trkpt><trkpt lat="45.8202059" lon="11.7635831"><ele>750.0</ele><time>2026-04-06T07:54:21.621Z</time></trkpt><trkpt lat="45.8201746" lon="11.7634211"><ele>746.5</ele><time>2026-04-06T07:54:22.62Z</time></trkpt><trkpt lat="45.820133" lon="11.7632979"><ele>743.0</ele><time>2026-04-06T07:54:23.619Z</time></trkpt><trkpt lat="45.820074" lon="11.7632122"><ele>739.5</ele><time>2026-04-06T07:54:24.627Z</time></trkpt><trkpt lat="45.8200249" lon="11.7631391"><ele>736.0</ele><time>2026-04-06T07:54:25.62Z</time></trkpt><trkpt lat="45.8199718" lon="11.7630827"><ele>732.5</ele><time>2026-04-06T07:54:26.636Z</time></trkpt><trkpt lat="45.819871" lon="11.7630352"><ele>729.0</ele><time>2026-04-06T07:54:28.654Z</time></trkpt><trkpt lat="45.8197864" lon="11.7630137"><ele>729.0</ele><time>2026-04-06T07:54:30.634Z</time></trkpt><trkpt lat="45.8197252" lon="11.76297"><ele>729.0</ele><time>2026-04-06T07:54:32.628Z</time></trkpt><trkpt lat="45.8196503" lon="11.7629034"><ele>729.0</ele><time>2026-04-06T07:54:34.622Z</time></trkpt><trkpt lat="45.8195678" lon="11.7628205"><ele>729.0</ele><time>2026-04-06T07:54:36.635Z</time></trkpt><trkpt lat="45.8195125" lon="11.7627666"><ele>729.0</ele><time>2026-04-06T07:54:37.621Z</time></trkpt><trkpt lat="45.8194374" lon="11.7626931"><ele>729.0</ele><time>2026-04-06T07:54:38.623Z</time></trkpt><trkpt lat="45.819344" lon="11.762609"><ele>726.6</ele><time>2026-04-06T07:54:39.636Z</time></trkpt><trkpt lat="45.8192465" lon="11.7625252"><ele>724.2</ele><time>2026-04-06T07:54:40.63Z</time></trkpt><trkpt lat="45.8191564" lon="11.7624558"><ele>721.8000000000001</ele><time>2026-04-06T07:54:41.621Z</time></trkpt><trkpt lat="45.8190824" lon="11.762388"><ele>719.4000000000001</ele><time>2026-04-06T07:54:42.623Z</time></trkpt><trkpt lat="45.8190241" lon="11.7623067"><ele>717.0</ele><time>2026-04-06T07:54:43.616Z</time></trkpt><trkpt lat="45.8189826" lon="11.7622118"><ele>717.0</ele><time>2026-04-06T07:54:44.616Z</time></trkpt><trkpt lat="45.8189862" lon="11.7621008"><ele>717.0</ele><time>2026-04-06T07:54:45.615Z</time></trkpt><trkpt lat="45.8190077" lon="11.7619924"><ele>717.0</ele><time>2026-04-06T07:54:46.615Z</time></trkpt><trkpt lat="45.8190132" lon="11.7618938"><ele>717.0</ele><time>2026-04-06T07:54:47.619Z</time></trkpt><trkpt lat="45.8189645" lon="11.7617411"><ele>717.0</ele><time>2026-04-06T07:54:49.623Z</time></trkpt><trkpt lat="45.8188651" lon="11.7616343"><ele>717.1666666666666</ele><time>2026-04-06T07:54:51.63Z</time></trkpt><trkpt lat="45.8187572" lon="11.7615368"><ele>717.3333333333334</ele><time>2026-04-06T07:54:53.625Z</time></trkpt><trkpt lat="45.8187124" lon="11.7614591"><ele>717.5</ele><time>2026-04-06T07:54:54.627Z</time></trkpt><trkpt lat="45.8186861" lon="11.7613637"><ele>717.6666666666667</ele><time>2026-04-06T07:54:55.639Z</time></trkpt><trkpt lat="45.8186789" lon="11.7612634"><ele>717.8333333333334</ele><time>2026-04-06T07:54:56.616Z</time></trkpt><trkpt lat="45.8186759" lon="11.7611647"><ele>718.0</ele><time>2026-04-06T07:54:57.616Z</time></trkpt><trkpt lat="45.8186795" lon="11.761073"><ele>718.0</ele><time>2026-04-06T07:54:58.622Z</time></trkpt><trkpt lat="45.8186346" lon="11.760959"><ele>718.0</ele><time>2026-04-06T07:55:00.621Z</time></trkpt><trkpt lat="45.8185237" lon="11.7610488"><ele>718.0</ele><time>2026-04-06T07:55:02.628Z</time></trkpt><trkpt lat="45.8184858" lon="11.7611848"><ele>718.0</ele><time>2026-04-06T07:55:03.618Z</time></trkpt><trkpt lat="45.8184649" lon="11.7613868"><ele>712.0</ele><time>2026-04-06T07:55:04.621Z</time></trkpt><trkpt lat="45.8184463" lon="11.7616055"><ele>706.0</ele><time>2026-04-06T07:55:05.624Z</time></trkpt><trkpt lat="45.8184226" lon="11.7618006"><ele>700.0</ele><time>2026-04-06T07:55:06.619Z</time></trkpt><trkpt lat="45.8183844" lon="11.7619599"><ele>694.0</ele><time>2026-04-06T07:55:07.612Z</time></trkpt><trkpt lat="45.8183378" lon="11.7620935"><ele>693.6</ele><time>2026-04-06T07:55:08.618Z</time></trkpt><trkpt lat="45.818242" lon="11.7621789"><ele>693.2</ele><time>2026-04-06T07:55:09.616Z</time></trkpt><trkpt lat="45.8181605" lon="11.762269"><ele>692.8000000000001</ele><time>2026-04-06T07:55:10.616Z</time></trkpt><trkpt lat="45.8180968" lon="11.7623786"><ele>692.4000000000001</ele><time>2026-04-06T07:55:11.624Z</time></trkpt><trkpt lat="45.8180709" lon="11.7625118"><ele>692.0</ele><time>2026-04-06T07:55:12.618Z</time></trkpt><trkpt lat="45.8180656" lon="11.7626503"><ele>688.25</ele><time>2026-04-06T07:55:13.615Z</time></trkpt><trkpt lat="45.8180693" lon="11.7627742"><ele>684.5</ele><time>2026-04-06T07:55:14.623Z</time></trkpt><trkpt lat="45.8181125" lon="11.7628988"><ele>680.75</ele><time>2026-04-06T07:55:15.612Z</time></trkpt><trkpt lat="45.8181971" lon="11.763031"><ele>677.0</ele><time>2026-04-06T07:55:16.616Z</time></trkpt><trkpt lat="45.818319" lon="11.7631731"><ele>677.0</ele><time>2026-04-06T07:55:17.615Z</time></trkpt><trkpt lat="45.8184509" lon="11.7633352"><ele>677.0</ele><time>2026-04-06T07:55:18.611Z</time></trkpt><trkpt lat="45.8185278" lon="11.7635111"><ele>677.0</ele><time>2026-04-06T07:55:19.611Z</time></trkpt><trkpt lat="45.8186101" lon="11.7637098"><ele>678.5</ele><time>2026-04-06T07:55:20.609Z</time></trkpt><trkpt lat="45.8186347" lon="11.763954"><ele>680.0</ele><time>2026-04-06T07:55:21.622Z</time></trkpt><trkpt lat="45.8186782" lon="11.7641393"><ele>681.5</ele><time>2026-04-06T07:55:22.617Z</time></trkpt><trkpt lat="45.8186967" lon="11.7643048"><ele>683.0</ele><time>2026-04-06T07:55:23.622Z</time></trkpt><trkpt lat="45.8187496" lon="11.7644993"><ele>683.0</ele><time>2026-04-06T07:55:24.621Z</time></trkpt><trkpt lat="45.8187961" lon="11.7646649"><ele>683.0</ele><time>2026-04-06T07:55:25.619Z</time></trkpt><trkpt lat="45.8188344" lon="11.7648089"><ele>683.0</ele><time>2026-04-06T07:55:26.621Z</time></trkpt><trkpt lat="45.8188732" lon="11.764952"><ele>683.0</ele><time>2026-04-06T07:55:27.621Z</time></trkpt><trkpt lat="45.818901" lon="11.7650729"><ele>683.0</ele><time>2026-04-06T07:55:28.612Z</time></trkpt><trkpt lat="45.8189271" lon="11.7651573"><ele>683.0</ele><time>2026-04-06T07:55:29.621Z</time></trkpt><trkpt lat="45.8189548" lon="11.7652452"><ele>683.0</ele><time>2026-04-06T07:55:30.633Z</time></trkpt><trkpt lat="45.8189827" lon="11.7653738"><ele>683.0</ele><time>2026-04-06T07:55:32.625Z</time></trkpt><trkpt lat="45.8189012" lon="11.7652752"><ele>683.0</ele><time>2026-04-06T07:55:35.628Z</time></trkpt><trkpt lat="45.8188841" lon="11.7651669"><ele>683.0</ele><time>2026-04-06T07:55:36.613Z</time></trkpt><trkpt lat="45.8188706" lon="11.7650618"><ele>683.0</ele><time>2026-04-06T07:55:37.615Z</time></trkpt><trkpt lat="45.8188405" lon="11.7649499"><ele>683.0</ele><time>2026-04-06T07:55:38.619Z</time></trkpt><trkpt lat="45.8187955" lon="11.764831"><ele>683.0</ele><time>2026-04-06T07:55:39.617Z</time></trkpt><trkpt lat="45.8187297" lon="11.7646509"><ele>683.0</ele><time>2026-04-06T07:55:40.614Z</time></trkpt><trkpt lat="45.8186467" lon="11.7644728"><ele>683.0</ele><time>2026-04-06T07:55:41.619Z</time></trkpt><trkpt lat="45.8185664" lon="11.7642743"><ele>675.75</ele><time>2026-04-06T07:55:42.613Z</time></trkpt><trkpt lat="45.8184781" lon="11.7640932"><ele>668.5</ele><time>2026-04-06T07:55:43.612Z</time></trkpt><trkpt lat="45.8184077" lon="11.7639365"><ele>661.25</ele><time>2026-04-06T07:55:44.614Z</time></trkpt><trkpt lat="45.8183341" lon="11.7637957"><ele>654.0</ele><time>2026-04-06T07:55:45.608Z</time></trkpt><trkpt lat="45.8182682" lon="11.7636583"><ele>654.0</ele><time>2026-04-06T07:55:46.615Z</time></trkpt><trkpt lat="45.8181852" lon="11.7635391"><ele>654.0</ele><time>2026-04-06T07:55:47.616Z</time></trkpt><trkpt lat="45.8180757" lon="11.7634368"><ele>654.0</ele><time>2026-04-06T07:55:48.633Z</time></trkpt><trkpt lat="45.8179487" lon="11.7633514"><ele>654.0</ele><time>2026-04-06T07:55:49.607Z</time></trkpt><trkpt lat="45.817789" lon="11.7632545"><ele>649.75</ele><time>2026-04-06T07:55:50.608Z</time></trkpt><trkpt lat="45.8176526" lon="11.7631241"><ele>645.5</ele><time>2026-04-06T07:55:51.623Z</time></trkpt><trkpt lat="45.8175448" lon="11.7630012"><ele>641.25</ele><time>2026-04-06T07:55:52.612Z</time></trkpt><trkpt lat="45.8174483" lon="11.7629052"><ele>637.0</ele><time>2026-04-06T07:55:53.612Z</time></trkpt><trkpt lat="45.81739" lon="11.7627561"><ele>642.6666666666667</ele><time>2026-04-06T07:55:54.621Z</time></trkpt><trkpt lat="45.8173535" lon="11.762578"><ele>648.3333333333334</ele><time>2026-04-06T07:55:55.616Z</time></trkpt><trkpt lat="45.8173154" lon="11.762337"><ele>654.0</ele><time>2026-04-06T07:55:56.617Z</time></trkpt><trkpt lat="45.8172411" lon="11.7621136"><ele>654.0</ele><time>2026-04-06T07:55:57.617Z</time></trkpt><trkpt lat="45.8171414" lon="11.7618801"><ele>654.0</ele><time>2026-04-06T07:55:58.619Z</time></trkpt><trkpt lat="45.8170565" lon="11.7616591"><ele>654.0</ele><time>2026-04-06T07:55:59.623Z</time></trkpt><trkpt lat="45.816968" lon="11.7614954"><ele>654.5</ele><time>2026-04-06T07:56:00.618Z</time></trkpt><trkpt lat="45.8168928" lon="11.7613589"><ele>655.0</ele><time>2026-04-06T07:56:01.614Z</time></trkpt><trkpt lat="45.8168083" lon="11.7612192"><ele>655.5</ele><time>2026-04-06T07:56:02.619Z</time></trkpt><trkpt lat="45.8167336" lon="11.7610838"><ele>656.0</ele><time>2026-04-06T07:56:03.616Z</time></trkpt><trkpt lat="45.8167233" lon="11.7609443"><ele>648.5999999999999</ele><time>2026-04-06T07:56:04.618Z</time></trkpt><trkpt lat="45.8167049" lon="11.7608443"><ele>641.1999999999999</ele><time>2026-04-06T07:56:05.614Z</time></trkpt><trkpt lat="45.8166419" lon="11.7608401"><ele>633.8</ele><time>2026-04-06T07:56:07.633Z</time></trkpt><trkpt lat="45.8166229" lon="11.7609536"><ele>626.4</ele><time>2026-04-06T07:56:09.615Z</time></trkpt><trkpt lat="45.8166745" lon="11.761171"><ele>619.0</ele><time>2026-04-06T07:56:11.625Z</time></trkpt><trkpt lat="45.8167365" lon="11.7613312"><ele>619.0</ele><time>2026-04-06T07:56:12.616Z</time></trkpt><trkpt lat="45.8167697" lon="11.7615009"><ele>619.0</ele><time>2026-04-06T07:56:13.623Z</time></trkpt><trkpt lat="45.8168101" lon="11.7617052"><ele>619.0</ele><time>2026-04-06T07:56:14.625Z</time></trkpt><trkpt lat="45.8168364" lon="11.7618991"><ele>619.0</ele><time>2026-04-06T07:56:15.622Z</time></trkpt><trkpt lat="45.8168712" lon="11.762103"><ele>625.0</ele><time>2026-04-06T07:56:16.625Z</time></trkpt><trkpt lat="45.8169003" lon="11.7623413"><ele>631.0</ele><time>2026-04-06T07:56:17.622Z</time></trkpt><trkpt lat="45.8169388" lon="11.7625597"><ele>637.0</ele><time>2026-04-06T07:56:18.613Z</time></trkpt><trkpt lat="45.8169483" lon="11.7627422"><ele>637.0</ele><time>2026-04-06T07:56:19.622Z</time></trkpt><trkpt lat="45.8169473" lon="11.7629181"><ele>637.0</ele><time>2026-04-06T07:56:20.624Z</time></trkpt><trkpt lat="45.8169767" lon="11.7630964"><ele>637.0</ele><time>2026-04-06T07:56:21.61Z</time></trkpt><trkpt lat="45.8170359" lon="11.7632551"><ele>637.0</ele><time>2026-04-06T07:56:22.62Z</time></trkpt><trkpt lat="45.8171048" lon="11.7633272"><ele>637.0</ele><time>2026-04-06T07:56:23.619Z</time></trkpt><trkpt lat="45.8171686" lon="11.7634378"><ele>637.0</ele><time>2026-04-06T07:56:24.609Z</time></trkpt><trkpt lat="45.8172265" lon="11.763538"><ele>637.0</ele><time>2026-04-06T07:56:25.622Z</time></trkpt><trkpt lat="45.8172773" lon="11.7636215"><ele>637.0</ele><time>2026-04-06T07:56:26.613Z</time></trkpt><trkpt lat="45.8173237" lon="11.7637092"><ele>637.0</ele><time>2026-04-06T07:56:27.609Z</time></trkpt><trkpt lat="45.8173664" lon="11.76379"><ele>637.0</ele><time>2026-04-06T07:56:28.616Z</time></trkpt><trkpt lat="45.817411" lon="11.7638657"><ele>632.6666666666667</ele><time>2026-04-06T07:56:29.622Z</time></trkpt><trkpt lat="45.8174642" lon="11.7639304"><ele>628.3333333333334</ele><time>2026-04-06T07:56:30.62Z</time></trkpt><trkpt lat="45.8175198" lon="11.7639762"><ele>624.0</ele><time>2026-04-06T07:56:31.614Z</time></trkpt><trkpt lat="45.8176089" lon="11.7640444"><ele>619.6666666666666</ele><time>2026-04-06T07:56:33.619Z</time></trkpt><trkpt lat="45.8176358" lon="11.7641351"><ele>615.3333333333333</ele><time>2026-04-06T07:56:36.613Z</time></trkpt><trkpt lat="45.8175493" lon="11.7640307"><ele>611.0</ele><time>2026-04-06T07:56:38.618Z</time></trkpt><trkpt lat="45.8174878" lon="11.7639323"><ele>611.0</ele><time>2026-04-06T07:56:39.617Z</time></trkpt><trkpt lat="45.8174127" lon="11.7638104"><ele>611.0</ele><time>2026-04-06T07:56:40.618Z</time></trkpt><trkpt lat="45.8173303" lon="11.76368"><ele>611.0</ele><time>2026-04-06T07:56:41.616Z</time></trkpt><trkpt lat="45.8172446" lon="11.7635636"><ele>611.0</ele><time>2026-04-06T07:56:42.658Z</time></trkpt><trkpt lat="45.8171564" lon="11.7634684"><ele>608.2</ele><time>2026-04-06T07:56:43.637Z</time></trkpt><trkpt lat="45.8170688" lon="11.7633812"><ele>605.4000000000001</ele><time>2026-04-06T07:56:44.616Z</time></trkpt><trkpt lat="45.8169805" lon="11.7633145"><ele>602.6</ele><time>2026-04-06T07:56:45.608Z</time></trkpt><trkpt lat="45.8168896" lon="11.7632525"><ele>599.8000000000001</ele><time>2026-04-06T07:56:46.634Z</time></trkpt><trkpt lat="45.8167994" lon="11.7631726"><ele>597.0</ele><time>2026-04-06T07:56:47.63Z</time></trkpt><trkpt lat="45.8167046" lon="11.763088"><ele>597.0</ele><time>2026-04-06T07:56:48.604Z</time></trkpt><trkpt lat="45.8166248" lon="11.7629802"><ele>597.0</ele><time>2026-04-06T07:56:49.614Z</time></trkpt><trkpt lat="45.8165556" lon="11.7628467"><ele>597.0</ele><time>2026-04-06T07:56:50.613Z</time></trkpt><trkpt lat="45.816503" lon="11.7626969"><ele>597.0</ele><time>2026-04-06T07:56:51.611Z</time></trkpt><trkpt lat="45.8164612" lon="11.7625291"><ele>600.0</ele><time>2026-04-06T07:56:52.615Z</time></trkpt><trkpt lat="45.8164382" lon="11.7623361"><ele>603.0</ele><time>2026-04-06T07:56:53.635Z</time></trkpt><trkpt lat="45.8163974" lon="11.7621547"><ele>606.0</ele><time>2026-04-06T07:56:54.635Z</time></trkpt><trkpt lat="45.816358" lon="11.7620151"><ele>609.0</ele><time>2026-04-06T07:56:55.619Z</time></trkpt><trkpt lat="45.8163329" lon="11.7619145"><ele>612.0</ele><time>2026-04-06T07:56:56.604Z</time></trkpt><trkpt lat="45.8162747" lon="11.7618089"><ele>612.0</ele><time>2026-04-06T07:56:58.616Z</time></trkpt><trkpt lat="45.8161999" lon="11.7617934"><ele>612.0</ele><time>2026-04-06T07:57:00.64Z</time></trkpt><trkpt lat="45.8161342" lon="11.7618453"><ele>612.0</ele><time>2026-04-06T07:57:02.629Z</time></trkpt><trkpt lat="45.8161038" lon="11.7619317"><ele>612.0</ele><time>2026-04-06T07:57:04.631Z</time></trkpt><trkpt lat="45.8161134" lon="11.7620318"><ele>612.0</ele><time>2026-04-06T07:57:05.646Z</time></trkpt><trkpt lat="45.8161402" lon="11.7621548"><ele>612.0</ele><time>2026-04-06T07:57:06.626Z</time></trkpt><trkpt lat="45.8161699" lon="11.7622862"><ele>612.0</ele><time>2026-04-06T07:57:07.625Z</time></trkpt><trkpt lat="45.8161888" lon="11.7624472"><ele>612.0</ele><time>2026-04-06T07:57:08.614Z</time></trkpt><trkpt lat="45.816202" lon="11.7626146"><ele>612.0</ele><time>2026-04-06T07:57:09.616Z</time></trkpt><trkpt lat="45.816186" lon="11.7627624"><ele>612.0</ele><time>2026-04-06T07:57:10.613Z</time></trkpt><trkpt lat="45.8161667" lon="11.7629081"><ele>612.0</ele><time>2026-04-06T07:57:11.62Z</time></trkpt><trkpt lat="45.8161407" lon="11.763071"><ele>608.25</ele><time>2026-04-06T07:57:12.61Z</time></trkpt><trkpt lat="45.8161268" lon="11.7632287"><ele>604.5</ele><time>2026-04-06T07:57:13.613Z</time></trkpt><trkpt lat="45.8161453" lon="11.7634046"><ele>600.75</ele><time>2026-04-06T07:57:14.62Z</time></trkpt><trkpt lat="45.8161835" lon="11.7635728"><ele>597.0</ele><time>2026-04-06T07:57:15.62Z</time></trkpt><trkpt lat="45.8162806" lon="11.7637278"><ele>587.3333333333334</ele><time>2026-04-06T07:57:16.61Z</time></trkpt><trkpt lat="45.8164446" lon="11.7639094"><ele>577.6666666666667</ele><time>2026-04-06T07:57:17.616Z</time></trkpt><trkpt lat="45.8165926" lon="11.7640697"><ele>568.0</ele><time>2026-04-06T07:57:18.612Z</time></trkpt><trkpt lat="45.8167353" lon="11.7641803"><ele>575.25</ele><time>2026-04-06T07:57:19.638Z</time></trkpt><trkpt lat="45.8168951" lon="11.7642768"><ele>582.5</ele><time>2026-04-06T07:57:20.639Z</time></trkpt><trkpt lat="45.816973" lon="11.7643557"><ele>589.75</ele><time>2026-04-06T07:57:21.641Z</time></trkpt><trkpt lat="45.8170764" lon="11.7644523"><ele>597.0</ele><time>2026-04-06T07:57:23.633Z</time></trkpt><trkpt lat="45.8171198" lon="11.7645717"><ele>597.0</ele><time>2026-04-06T07:57:25.616Z</time></trkpt><trkpt lat="45.8170128" lon="11.7644736"><ele>597.0</ele><time>2026-04-06T07:57:28.614Z</time></trkpt><trkpt lat="45.8169456" lon="11.7643516"><ele>597.0</ele><time>2026-04-06T07:57:29.606Z</time></trkpt><trkpt lat="45.8168524" lon="11.7642417"><ele>597.0</ele><time>2026-04-06T07:57:30.61Z</time></trkpt><trkpt lat="45.8167483" lon="11.7641292"><ele>587.3333333333334</ele><time>2026-04-06T07:57:31.611Z</time></trkpt><trkpt lat="45.8166371" lon="11.7639919"><ele>577.6666666666667</ele><time>2026-04-06T07:57:32.617Z</time></trkpt><trkpt lat="45.8165001" lon="11.7638538"><ele>568.0</ele><time>2026-04-06T07:57:33.615Z</time></trkpt><trkpt lat="45.816301" lon="11.7637815"><ele>568.0</ele><time>2026-04-06T07:57:34.613Z</time></trkpt><trkpt lat="45.8161085" lon="11.7637081"><ele>568.0</ele><time>2026-04-06T07:57:35.607Z</time></trkpt><trkpt lat="45.8159459" lon="11.7635966"><ele>568.0</ele><time>2026-04-06T07:57:36.613Z</time></trkpt><trkpt lat="45.8158168" lon="11.7634937"><ele>566.5</ele><time>2026-04-06T07:57:37.607Z</time></trkpt><trkpt lat="45.8157279" lon="11.7633667"><ele>565.0</ele><time>2026-04-06T07:57:38.63Z</time></trkpt><trkpt lat="45.815608" lon="11.7632726"><ele>563.5</ele><time>2026-04-06T07:57:39.603Z</time></trkpt><trkpt lat="45.8155279" lon="11.7631725"><ele>562.0</ele><time>2026-04-06T07:57:40.609Z</time></trkpt><trkpt lat="45.8154642" lon="11.7630295"><ele>562.0</ele><time>2026-04-06T07:57:41.608Z</time></trkpt><trkpt lat="45.8154249" lon="11.7628497"><ele>562.0</ele><time>2026-04-06T07:57:42.606Z</time></trkpt><trkpt lat="45.8153893" lon="11.762709"><ele>562.0</ele><time>2026-04-06T07:57:43.602Z</time></trkpt><trkpt lat="45.8153626" lon="11.7625896"><ele>562.0</ele><time>2026-04-06T07:57:44.612Z</time></trkpt><trkpt lat="45.8153193" lon="11.7624686"><ele>562.0</ele><time>2026-04-06T07:57:45.61Z</time></trkpt><trkpt lat="45.8152678" lon="11.762359"><ele>565.0</ele><time>2026-04-06T07:57:46.605Z</time></trkpt><trkpt lat="45.8152008" lon="11.7622642"><ele>568.0</ele><time>2026-04-06T07:57:47.62Z</time></trkpt><trkpt lat="45.8151266" lon="11.7621708"><ele>571.0</ele><time>2026-04-06T07:57:48.613Z</time></trkpt><trkpt lat="45.8150404" lon="11.7620881"><ele>574.0</ele><time>2026-04-06T07:57:49.615Z</time></trkpt><trkpt lat="45.8149635" lon="11.7620035"><ele>577.0</ele><time>2026-04-06T07:57:50.619Z</time></trkpt><trkpt lat="45.814883" lon="11.7619331"><ele>573.0</ele><time>2026-04-06T07:57:51.615Z</time></trkpt><trkpt lat="45.8148037" lon="11.7618638"><ele>569.0</ele><time>2026-04-06T07:57:52.61Z</time></trkpt><trkpt lat="45.8147265" lon="11.7618031"><ele>565.0</ele><time>2026-04-06T07:57:53.615Z</time></trkpt><trkpt lat="45.8146523" lon="11.7617464"><ele>561.0</ele><time>2026-04-06T07:57:54.644Z</time></trkpt><trkpt lat="45.8145861" lon="11.7616902"><ele>557.0</ele><time>2026-04-06T07:57:55.636Z</time></trkpt><trkpt lat="45.8145185" lon="11.7616455"><ele>553.0</ele><time>2026-04-06T07:57:56.639Z</time></trkpt><trkpt lat="45.8144264" lon="11.7615273"><ele>553.0</ele><time>2026-04-06T07:57:58.622Z</time></trkpt><trkpt lat="45.8143515" lon="11.7613898"><ele>553.0</ele><time>2026-04-06T07:58:00.639Z</time></trkpt><trkpt lat="45.8142761" lon="11.7613484"><ele>553.0</ele><time>2026-04-06T07:58:02.651Z</time></trkpt><trkpt lat="45.8142617" lon="11.7614577"><ele>553.0</ele><time>2026-04-06T07:58:04.646Z</time></trkpt><trkpt lat="45.8142843" lon="11.7615507"><ele>553.0</ele><time>2026-04-06T07:58:05.625Z</time></trkpt><trkpt lat="45.8143413" lon="11.7616427"><ele>553.0</ele><time>2026-04-06T07:58:06.629Z</time></trkpt><trkpt lat="45.8144194" lon="11.7617552"><ele>548.75</ele><time>2026-04-06T07:58:07.625Z</time></trkpt><trkpt lat="45.8144896" lon="11.7618766"><ele>544.5</ele><time>2026-04-06T07:58:08.611Z</time></trkpt><trkpt lat="45.8145732" lon="11.7619933"><ele>540.25</ele><time>2026-04-06T07:58:09.61Z</time></trkpt><trkpt lat="45.8146514" lon="11.7621261"><ele>536.0</ele><time>2026-04-06T07:58:10.615Z</time></trkpt><trkpt lat="45.8147514" lon="11.7622828"><ele>536.0</ele><time>2026-04-06T07:58:11.629Z</time></trkpt><trkpt lat="45.8148393" lon="11.7624489"><ele>536.0</ele><time>2026-04-06T07:58:12.639Z</time></trkpt><trkpt lat="45.8149108" lon="11.7626005"><ele>536.0</ele><time>2026-04-06T07:58:13.618Z</time></trkpt><trkpt lat="45.8149611" lon="11.7627724"><ele>536.0</ele><time>2026-04-06T07:58:14.643Z</time></trkpt><trkpt lat="45.8150025" lon="11.7629396"><ele>530.75</ele><time>2026-04-06T07:58:15.643Z</time></trkpt><trkpt lat="45.8150276" lon="11.7631036"><ele>525.5</ele><time>2026-04-06T07:58:16.641Z</time></trkpt><trkpt lat="45.8150424" lon="11.7632718"><ele>520.25</ele><time>2026-04-06T07:58:17.644Z</time></trkpt><trkpt lat="45.8150612" lon="11.7634457"><ele>515.0</ele><time>2026-04-06T07:58:18.661Z</time></trkpt><trkpt lat="45.815086" lon="11.7636098"><ele>520.0</ele><time>2026-04-06T07:58:19.66Z</time></trkpt><trkpt lat="45.8151167" lon="11.7637678"><ele>525.0</ele><time>2026-04-06T07:58:20.657Z</time></trkpt><trkpt lat="45.815158" lon="11.7639229"><ele>530.0</ele><time>2026-04-06T07:58:21.662Z</time></trkpt><trkpt lat="45.8152134" lon="11.764065"><ele>535.0</ele><time>2026-04-06T07:58:22.61Z</time></trkpt><trkpt lat="45.815295" lon="11.7642054"><ele>535.0</ele><time>2026-04-06T07:58:23.622Z</time></trkpt><trkpt lat="45.8154046" lon="11.7643315"><ele>535.0</ele><time>2026-04-06T07:58:24.613Z</time></trkpt><trkpt lat="45.8155106" lon="11.7644499"><ele>535.0</ele><time>2026-04-06T07:58:25.629Z</time></trkpt><trkpt lat="45.8156042" lon="11.7645446"><ele>535.0</ele><time>2026-04-06T07:58:26.614Z</time></trkpt><trkpt lat="45.815713" lon="11.7646287"><ele>536.2</ele><time>2026-04-06T07:58:27.613Z</time></trkpt><trkpt lat="45.8158128" lon="11.7647158"><ele>537.4</ele><time>2026-04-06T07:58:28.617Z</time></trkpt><trkpt lat="45.8159075" lon="11.7647877"><ele>538.6</ele><time>2026-04-06T07:58:29.619Z</time></trkpt><trkpt lat="45.8160023" lon="11.7648563"><ele>539.8</ele><time>2026-04-06T07:58:30.642Z</time></trkpt><trkpt lat="45.8160874" lon="11.7649186"><ele>541.0</ele><time>2026-04-06T07:58:31.639Z</time></trkpt><trkpt lat="45.8161577" lon="11.7649752"><ele>541.0</ele><time>2026-04-06T07:58:32.612Z</time></trkpt><trkpt lat="45.8162605" lon="11.765058"><ele>541.0</ele><time>2026-04-06T07:58:34.65Z</time></trkpt><trkpt lat="45.8162628" lon="11.765171"><ele>541.0</ele><time>2026-04-06T07:58:36.61Z</time></trkpt><trkpt lat="45.8161821" lon="11.7651281"><ele>541.0</ele><time>2026-04-06T07:58:38.613Z</time></trkpt><trkpt lat="45.8161096" lon="11.7649907"><ele>541.0</ele><time>2026-04-06T07:58:40.607Z</time></trkpt><trkpt lat="45.8160507" lon="11.7649097"><ele>529.25</ele><time>2026-04-06T07:58:41.605Z</time></trkpt><trkpt lat="45.8159714" lon="11.7648205"><ele>517.5</ele><time>2026-04-06T07:58:42.609Z</time></trkpt><trkpt lat="45.8158729" lon="11.7647301"><ele>505.75</ele><time>2026-04-06T07:58:43.603Z</time></trkpt><trkpt lat="45.8157506" lon="11.7646223"><ele>494.0</ele><time>2026-04-06T07:58:44.612Z</time></trkpt><trkpt lat="45.8156192" lon="11.764508"><ele>494.0</ele><time>2026-04-06T07:58:45.61Z</time></trkpt><trkpt lat="45.815466" lon="11.7644025"><ele>494.0</ele><time>2026-04-06T07:58:46.611Z</time></trkpt><trkpt lat="45.815302" lon="11.7642772"><ele>494.0</ele><time>2026-04-06T07:58:47.608Z</time></trkpt><trkpt lat="45.8151142" lon="11.7641609"><ele>491.3333333333333</ele><time>2026-04-06T07:58:48.621Z</time></trkpt><trkpt lat="45.814947" lon="11.7640519"><ele>488.66666666666663</ele><time>2026-04-06T07:58:49.61Z</time></trkpt><trkpt lat="45.8148033" lon="11.7639477"><ele>486.0</ele><time>2026-04-06T07:58:50.607Z</time></trkpt><trkpt lat="45.8147066" lon="11.7638207"><ele>486.0</ele><time>2026-04-06T07:58:51.612Z</time></trkpt><trkpt lat="45.8146747" lon="11.7636596"><ele>486.0</ele><time>2026-04-06T07:58:52.618Z</time></trkpt><trkpt lat="45.81462" lon="11.7634945"><ele>486.0</ele><time>2026-04-06T07:58:53.621Z</time></trkpt><trkpt lat="45.8145603" lon="11.7633576"><ele>486.0</ele><time>2026-04-06T07:58:54.617Z</time></trkpt><trkpt lat="45.8145265" lon="11.7632761"><ele>486.0</ele><time>2026-04-06T07:58:55.625Z</time></trkpt><trkpt lat="45.8144495" lon="11.763149"><ele>477.33333333333337</ele><time>2026-04-06T07:58:56.606Z</time></trkpt><trkpt lat="45.8143483" lon="11.7629884"><ele>468.6666666666667</ele><time>2026-04-06T07:58:57.617Z</time></trkpt><trkpt lat="45.8142146" lon="11.7628304"><ele>460.0</ele><time>2026-04-06T07:58:58.614Z</time></trkpt><trkpt lat="45.8140684" lon="11.7627329"><ele>471.0</ele><time>2026-04-06T07:58:59.611Z</time></trkpt><trkpt lat="45.8139298" lon="11.7626142"><ele>482.0</ele><time>2026-04-06T07:59:00.613Z</time></trkpt><trkpt lat="45.8138008" lon="11.7625193"><ele>493.0</ele><time>2026-04-06T07:59:01.6Z</time></trkpt><trkpt lat="45.8136608" lon="11.7624033"><ele>493.0</ele><time>2026-04-06T07:59:02.612Z</time></trkpt><trkpt lat="45.8135522" lon="11.7622525"><ele>493.0</ele><time>2026-04-06T07:59:03.607Z</time></trkpt><trkpt lat="45.813451" lon="11.762162"><ele>493.0</ele><time>2026-04-06T07:59:04.631Z</time></trkpt><trkpt lat="45.8133799" lon="11.7620491"><ele>493.0</ele><time>2026-04-06T07:59:05.612Z</time></trkpt><trkpt lat="45.8133264" lon="11.7619067"><ele>486.83333333333337</ele><time>2026-04-06T07:59:06.61Z</time></trkpt><trkpt lat="45.8132774" lon="11.7618281"><ele>480.6666666666667</ele><time>2026-04-06T07:59:07.641Z</time></trkpt><trkpt lat="45.8132735" lon="11.7617172"><ele>474.5</ele><time>2026-04-06T07:59:09.614Z</time></trkpt><trkpt lat="45.8132275" lon="11.7616102"><ele>468.33333333333337</ele><time>2026-04-06T07:59:11.623Z</time></trkpt><trkpt lat="45.8131663" lon="11.7616509"><ele>462.1666666666667</ele><time>2026-04-06T07:59:13.639Z</time></trkpt><trkpt lat="45.8132246" lon="11.7617655"><ele>456.0</ele><time>2026-04-06T07:59:15.624Z</time></trkpt><trkpt lat="45.8132779" lon="11.7618316"><ele>452.20000000000005</ele><time>2026-04-06T07:59:16.628Z</time></trkpt><trkpt lat="45.8133393" lon="11.7619029"><ele>448.40000000000003</ele><time>2026-04-06T07:59:17.621Z</time></trkpt><trkpt lat="45.8134021" lon="11.7620245"><ele>444.6</ele><time>2026-04-06T07:59:18.62Z</time></trkpt><trkpt lat="45.8134574" lon="11.7621693"><ele>440.8</ele><time>2026-04-06T07:59:19.612Z</time></trkpt><trkpt lat="45.81351" lon="11.7623197"><ele>437.0</ele><time>2026-04-06T07:59:20.618Z</time></trkpt><trkpt lat="45.8135739" lon="11.7624871"><ele>444.66666666666663</ele><time>2026-04-06T07:59:21.612Z</time></trkpt><trkpt lat="45.8136428" lon="11.7626628"><ele>452.33333333333337</ele><time>2026-04-06T07:59:22.618Z</time></trkpt><trkpt lat="45.8137345" lon="11.7628516"><ele>460.0</ele><time>2026-04-06T07:59:23.614Z</time></trkpt><trkpt lat="45.8138477" lon="11.7631314"><ele>460.0</ele><time>2026-04-06T07:59:24.655Z</time></trkpt><trkpt lat="45.8139561" lon="11.7633253"><ele>460.0</ele><time>2026-04-06T07:59:25.649Z</time></trkpt><trkpt lat="45.8140352" lon="11.7634773"><ele>460.0</ele><time>2026-04-06T07:59:26.65Z</time></trkpt><trkpt lat="45.8141385" lon="11.7635923"><ele>460.0</ele><time>2026-04-06T07:59:27.621Z</time></trkpt><trkpt lat="45.8142208" lon="11.7637233"><ele>454.25</ele><time>2026-04-06T07:59:28.62Z</time></trkpt><trkpt lat="45.8142718" lon="11.7638461"><ele>448.5</ele><time>2026-04-06T07:59:29.624Z</time></trkpt><trkpt lat="45.8142832" lon="11.7640019"><ele>442.75</ele><time>2026-04-06T07:59:30.649Z</time></trkpt><trkpt lat="45.8142891" lon="11.7641765"><ele>437.0</ele><time>2026-04-06T07:59:31.638Z</time></trkpt><trkpt lat="45.8143149" lon="11.7643605"><ele>442.75</ele><time>2026-04-06T07:59:32.648Z</time></trkpt><trkpt lat="45.8144007" lon="11.7645784"><ele>448.5</ele><time>2026-04-06T07:59:33.642Z</time></trkpt><trkpt lat="45.8144679" lon="11.7647512"><ele>454.25</ele><time>2026-04-06T07:59:34.644Z</time></trkpt><trkpt lat="45.8145423" lon="11.7649058"><ele>460.0</ele><time>2026-04-06T07:59:35.643Z</time></trkpt><trkpt lat="45.8146357" lon="11.7650491"><ele>460.0</ele><time>2026-04-06T07:59:36.616Z</time></trkpt><trkpt lat="45.8147317" lon="11.7651842"><ele>460.0</ele><time>2026-04-06T07:59:37.624Z</time></trkpt><trkpt lat="45.8148244" lon="11.7653064"><ele>460.0</ele><time>2026-04-06T07:59:38.619Z</time></trkpt><trkpt lat="45.8149223" lon="11.7653998"><ele>460.0</ele><time>2026-04-06T07:59:39.623Z</time></trkpt><trkpt lat="45.815026" lon="11.7654788"><ele>462.2</ele><time>2026-04-06T07:59:40.619Z</time></trkpt><trkpt lat="45.8151201" lon="11.7655631"><ele>464.4</ele><time>2026-04-06T07:59:41.62Z</time></trkpt><trkpt lat="45.8152009" lon="11.7656452"><ele>466.6</ele><time>2026-04-06T07:59:42.64Z</time></trkpt><trkpt lat="45.8152764" lon="11.7657105"><ele>468.8</ele><time>2026-04-06T07:59:43.636Z</time></trkpt><trkpt lat="45.8153843" lon="11.7657745"><ele>471.0</ele><time>2026-04-06T07:59:45.655Z</time></trkpt><trkpt lat="45.8152818" lon="11.7657044"><ele>471.0</ele><time>2026-04-06T07:59:50.625Z</time></trkpt><trkpt lat="45.815199" lon="11.7656153"><ele>471.0</ele><time>2026-04-06T07:59:51.604Z</time></trkpt><trkpt lat="45.8150915" lon="11.7655282"><ele>471.0</ele><time>2026-04-06T07:59:52.635Z</time></trkpt><trkpt lat="45.8149935" lon="11.7654547"><ele>471.0</ele><time>2026-04-06T07:59:53.629Z</time></trkpt><trkpt lat="45.8148886" lon="11.7653735"><ele>468.25</ele><time>2026-04-06T07:59:54.608Z</time></trkpt><trkpt lat="45.8147828" lon="11.7652941"><ele>465.5</ele><time>2026-04-06T07:59:55.613Z</time></trkpt><trkpt lat="45.8146722" lon="11.7652128"><ele>462.75</ele><time>2026-04-06T07:59:56.614Z</time></trkpt><trkpt lat="45.8145449" lon="11.7651256"><ele>460.0</ele><time>2026-04-06T07:59:57.597Z</time></trkpt><trkpt lat="45.8144364" lon="11.7650147"><ele>460.0</ele><time>2026-04-06T07:59:58.613Z</time></trkpt><trkpt lat="45.8143321" lon="11.7648874"><ele>460.0</ele><time>2026-04-06T07:59:59.6Z</time></trkpt><trkpt lat="45.8142373" lon="11.7647476"><ele>460.0</ele><time>2026-04-06T08:00:00.623Z</time></trkpt><trkpt lat="45.8141583" lon="11.7645921"><ele>460.0</ele><time>2026-04-06T08:00:01.602Z</time></trkpt><trkpt lat="45.8140846" lon="11.7644123"><ele>452.33333333333337</ele><time>2026-04-06T08:00:02.595Z</time></trkpt><trkpt lat="45.8139931" lon="11.7641766"><ele>444.66666666666663</ele><time>2026-04-06T08:00:03.63Z</time></trkpt><trkpt lat="45.8138524" lon="11.7640128"><ele>437.0</ele><time>2026-04-06T08:00:04.625Z</time></trkpt><trkpt lat="45.8137191" lon="11.7638847"><ele>437.0</ele><time>2026-04-06T08:00:05.605Z</time></trkpt><trkpt lat="45.813622" lon="11.7637456"><ele>437.0</ele><time>2026-04-06T08:00:06.607Z</time></trkpt><trkpt lat="45.8135402" lon="11.7636139"><ele>437.0</ele><time>2026-04-06T08:00:07.598Z</time></trkpt><trkpt lat="45.8134375" lon="11.763494"><ele>437.0</ele><time>2026-04-06T08:00:08.626Z</time></trkpt><trkpt lat="45.8133467" lon="11.7633916"><ele>430.0</ele><time>2026-04-06T08:00:09.629Z</time></trkpt><trkpt lat="45.813257" lon="11.7632746"><ele>423.0</ele><time>2026-04-06T08:00:10.624Z</time></trkpt><trkpt lat="45.8131614" lon="11.7631742"><ele>416.0</ele><time>2026-04-06T08:00:11.6Z</time></trkpt><trkpt lat="45.8130715" lon="11.7630745"><ele>409.0</ele><time>2026-04-06T08:00:12.598Z</time></trkpt><trkpt lat="45.8129891" lon="11.7629765"><ele>409.00000000000006</ele><time>2026-04-06T08:00:13.625Z</time></trkpt><trkpt lat="45.8129209" lon="11.7628715"><ele>409.0</ele><time>2026-04-06T08:00:14.599Z</time></trkpt><trkpt lat="45.8128676" lon="11.7627643"><ele>409.0</ele><time>2026-04-06T08:00:15.6Z</time></trkpt><trkpt lat="45.8128166" lon="11.7626867"><ele>409.0</ele><time>2026-04-06T08:00:16.606Z</time></trkpt><trkpt lat="45.8127509" lon="11.7626935"><ele>409.00000000000006</ele><time>2026-04-06T08:00:18.641Z</time></trkpt><trkpt lat="45.8127239" lon="11.7628563"><ele>409.0</ele><time>2026-04-06T08:00:20.604Z</time></trkpt><trkpt lat="45.8128054" lon="11.7630153"><ele>409.0</ele><time>2026-04-06T08:00:22.61Z</time></trkpt><trkpt lat="45.8128914" lon="11.7631408"><ele>409.0</ele><time>2026-04-06T08:00:23.596Z</time></trkpt><trkpt lat="45.8129832" lon="11.7632815"><ele>409.0</ele><time>2026-04-06T08:00:24.599Z</time></trkpt><trkpt lat="45.8130596" lon="11.763425"><ele>409.0</ele><time>2026-04-06T08:00:25.606Z</time></trkpt><trkpt lat="45.8131353" lon="11.7635547"><ele>402.25</ele><time>2026-04-06T08:00:26.603Z</time></trkpt><trkpt lat="45.8132058" lon="11.7636886"><ele>395.5</ele><time>2026-04-06T08:00:27.599Z</time></trkpt><trkpt lat="45.8132776" lon="11.763823"><ele>388.75</ele><time>2026-04-06T08:00:28.601Z</time></trkpt><trkpt lat="45.8133459" lon="11.7639525"><ele>382.0</ele><time>2026-04-06T08:00:29.604Z</time></trkpt><trkpt lat="45.813412" lon="11.7640804"><ele>382.0</ele><time>2026-04-06T08:00:30.602Z</time></trkpt><trkpt lat="45.8134736" lon="11.7641992"><ele>382.0</ele><time>2026-04-06T08:00:31.61Z</time></trkpt><trkpt lat="45.8135318" lon="11.7643178"><ele>382.0</ele><time>2026-04-06T08:00:32.61Z</time></trkpt><trkpt lat="45.8135836" lon="11.7644292"><ele>382.0</ele><time>2026-04-06T08:00:33.604Z</time></trkpt><trkpt lat="45.8136357" lon="11.7645406"><ele>382.0</ele><time>2026-04-06T08:00:34.611Z</time></trkpt><trkpt lat="45.8136813" lon="11.7646553"><ele>380.25</ele><time>2026-04-06T08:00:35.615Z</time></trkpt><trkpt lat="45.8137155" lon="11.7647836"><ele>378.5</ele><time>2026-04-06T08:00:36.648Z</time></trkpt><trkpt lat="45.8137526" lon="11.7649313"><ele>376.75</ele><time>2026-04-06T08:00:37.63Z</time></trkpt><trkpt lat="45.8137936" lon="11.7650887"><ele>375.0</ele><time>2026-04-06T08:00:38.603Z</time></trkpt><trkpt lat="45.8138509" lon="11.7652541"><ele>375.0</ele><time>2026-04-06T08:00:39.611Z</time></trkpt><trkpt lat="45.8139111" lon="11.7654233"><ele>375.0</ele><time>2026-04-06T08:00:40.614Z</time></trkpt><trkpt lat="45.8139749" lon="11.7655921"><ele>375.0</ele><time>2026-04-06T08:00:41.606Z</time></trkpt><trkpt lat="45.8140356" lon="11.7657512"><ele>375.0</ele><time>2026-04-06T08:00:42.617Z</time></trkpt><trkpt lat="45.814105" lon="11.7658863"><ele>375.0</ele><time>2026-04-06T08:00:43.613Z</time></trkpt><trkpt lat="45.8141802" lon="11.7660071"><ele>375.0</ele><time>2026-04-06T08:00:44.611Z</time></trkpt><trkpt lat="45.8142624" lon="11.7661238"><ele>375.0</ele><time>2026-04-06T08:00:45.61Z</time></trkpt><trkpt lat="45.8143578" lon="11.766229"><ele>375.0</ele><time>2026-04-06T08:00:46.607Z</time></trkpt><trkpt lat="45.8144584" lon="11.7663243"><ele>376.8</ele><time>2026-04-06T08:00:47.611Z</time></trkpt><trkpt lat="45.8145468" lon="11.7664159"><ele>378.6</ele><time>2026-04-06T08:00:48.605Z</time></trkpt><trkpt lat="45.8146215" lon="11.7664997"><ele>380.4</ele><time>2026-04-06T08:00:49.61Z</time></trkpt><trkpt lat="45.8146796" lon="11.7665968"><ele>382.2</ele><time>2026-04-06T08:00:50.597Z</time></trkpt><trkpt lat="45.814727" lon="11.7667236"><ele>384.0</ele><time>2026-04-06T08:00:51.589Z</time></trkpt><trkpt lat="45.814761" lon="11.7668905"><ele>384.0</ele><time>2026-04-06T08:00:52.598Z</time></trkpt><trkpt lat="45.8147875" lon="11.7670657"><ele>384.0</ele><time>2026-04-06T08:00:53.598Z</time></trkpt><trkpt lat="45.8148131" lon="11.7672853"><ele>384.0</ele><time>2026-04-06T08:00:54.604Z</time></trkpt><trkpt lat="45.8148151" lon="11.7675661"><ele>378.0</ele><time>2026-04-06T08:00:55.627Z</time></trkpt><trkpt lat="45.8148311" lon="11.7677847"><ele>372.0</ele><time>2026-04-06T08:00:56.606Z</time></trkpt><trkpt lat="45.8148707" lon="11.7680031"><ele>366.0</ele><time>2026-04-06T08:00:57.625Z</time></trkpt><trkpt lat="45.8149028" lon="11.768206"><ele>366.0</ele><time>2026-04-06T08:00:58.637Z</time></trkpt><trkpt lat="45.8149418" lon="11.7683939"><ele>366.0</ele><time>2026-04-06T08:00:59.624Z</time></trkpt><trkpt lat="45.8149767" lon="11.7685433"><ele>366.0</ele><time>2026-04-06T08:01:00.629Z</time></trkpt><trkpt lat="45.8150192" lon="11.7687124"><ele>366.0</ele><time>2026-04-06T08:01:01.61Z</time></trkpt><trkpt lat="45.8150572" lon="11.7688842"><ele>370.20000000000005</ele><time>2026-04-06T08:01:02.606Z</time></trkpt><trkpt lat="45.8151102" lon="11.7690239"><ele>374.40000000000003</ele><time>2026-04-06T08:01:03.606Z</time></trkpt><trkpt lat="45.8151483" lon="11.769147"><ele>378.6</ele><time>2026-04-06T08:01:04.609Z</time></trkpt><trkpt lat="45.8151889" lon="11.769274"><ele>382.8</ele><time>2026-04-06T08:01:05.611Z</time></trkpt><trkpt lat="45.815234" lon="11.7693661"><ele>387.0</ele><time>2026-04-06T08:01:06.61Z</time></trkpt><trkpt lat="45.8153087" lon="11.769482"><ele>387.0</ele><time>2026-04-06T08:01:08.609Z</time></trkpt><trkpt lat="45.8153833" lon="11.7695765"><ele>387.0</ele><time>2026-04-06T08:01:10.613Z</time></trkpt><trkpt lat="45.8153013" lon="11.7695082"><ele>387.0</ele><time>2026-04-06T08:01:15.609Z</time></trkpt><trkpt lat="45.8152508" lon="11.7693777"><ele>387.0</ele><time>2026-04-06T08:01:16.601Z</time></trkpt><trkpt lat="45.8151912" lon="11.7692183"><ele>387.0</ele><time>2026-04-06T08:01:17.594Z</time></trkpt><trkpt lat="45.8151314" lon="11.7690248"><ele>380.0</ele><time>2026-04-06T08:01:18.604Z</time></trkpt><trkpt lat="45.8150713" lon="11.7688198"><ele>373.0</ele><time>2026-04-06T08:01:19.6Z</time></trkpt><trkpt lat="45.8149559" lon="11.7685679"><ele>366.0</ele><time>2026-04-06T08:01:20.598Z</time></trkpt><trkpt lat="45.8148434" lon="11.7683532"><ele>366.0</ele><time>2026-04-06T08:01:21.604Z</time></trkpt><trkpt lat="45.8147429" lon="11.7681785"><ele>366.0</ele><time>2026-04-06T08:01:22.594Z</time></trkpt><trkpt lat="45.814674" lon="11.7680065"><ele>366.0</ele><time>2026-04-06T08:01:23.598Z</time></trkpt><trkpt lat="45.8145963" lon="11.7678364"><ele>366.0</ele><time>2026-04-06T08:01:24.596Z</time></trkpt><trkpt lat="45.81453" lon="11.7677122"><ele>370.5</ele><time>2026-04-06T08:01:25.603Z</time></trkpt><trkpt lat="45.8144713" lon="11.7675393"><ele>375.0</ele><time>2026-04-06T08:01:26.6Z</time></trkpt><trkpt lat="45.8144145" lon="11.7673773"><ele>379.5</ele><time>2026-04-06T08:01:27.598Z</time></trkpt><trkpt lat="45.8143729" lon="11.7672262"><ele>384.0</ele><time>2026-04-06T08:01:28.598Z</time></trkpt><trkpt lat="45.8143376" lon="11.7670794"><ele>376.0</ele><time>2026-04-06T08:01:29.596Z</time></trkpt><trkpt lat="45.8143051" lon="11.7669313"><ele>368.0</ele><time>2026-04-06T08:01:30.618Z</time></trkpt><trkpt lat="45.8142748" lon="11.766798"><ele>360.0</ele><time>2026-04-06T08:01:31.615Z</time></trkpt><trkpt lat="45.8142358" lon="11.7667074"><ele>352.0</ele><time>2026-04-06T08:01:32.609Z</time></trkpt><trkpt lat="45.8141756" lon="11.766644"><ele>344.0</ele><time>2026-04-06T08:01:33.603Z</time></trkpt><trkpt lat="45.8140887" lon="11.7665734"><ele>344.0</ele><time>2026-04-06T08:01:34.596Z</time></trkpt><trkpt lat="45.8139881" lon="11.7664937"><ele>344.0</ele><time>2026-04-06T08:01:35.596Z</time></trkpt><trkpt lat="45.8138864" lon="11.7664104"><ele>344.0</ele><time>2026-04-06T08:01:36.597Z</time></trkpt><trkpt lat="45.8137638" lon="11.766352"><ele>344.0</ele><time>2026-04-06T08:01:37.6Z</time></trkpt><trkpt lat="45.8136464" lon="11.7662944"><ele>344.0</ele><time>2026-04-06T08:01:38.601Z</time></trkpt><trkpt lat="45.8135282" lon="11.7662147"><ele>344.0</ele><time>2026-04-06T08:01:39.6Z</time></trkpt><trkpt lat="45.813418" lon="11.766126"><ele>344.0</ele><time>2026-04-06T08:01:40.597Z</time></trkpt><trkpt lat="45.8133092" lon="11.7660239"><ele>344.0</ele><time>2026-04-06T08:01:41.6Z</time></trkpt><trkpt lat="45.8132162" lon="11.7658985"><ele>339.0</ele><time>2026-04-06T08:01:42.597Z</time></trkpt><trkpt lat="45.8131315" lon="11.7657654"><ele>334.0</ele><time>2026-04-06T08:01:43.601Z</time></trkpt><trkpt lat="45.8130549" lon="11.7656292"><ele>329.0</ele><time>2026-04-06T08:01:44.605Z</time></trkpt><trkpt lat="45.8129905" lon="11.7654897"><ele>324.0</ele><time>2026-04-06T08:01:45.6Z</time></trkpt><trkpt lat="45.8129335" lon="11.7653554"><ele>324.0</ele><time>2026-04-06T08:01:46.61Z</time></trkpt><trkpt lat="45.8128709" lon="11.7652297"><ele>324.0</ele><time>2026-04-06T08:01:47.6Z</time></trkpt><trkpt lat="45.8127835" lon="11.7651224"><ele>324.0</ele><time>2026-04-06T08:01:48.594Z</time></trkpt><trkpt lat="45.8126769" lon="11.7650127"><ele>324.0</ele><time>2026-04-06T08:01:49.598Z</time></trkpt><trkpt lat="45.8125467" lon="11.7648953"><ele>318.25</ele><time>2026-04-06T08:01:50.6Z</time></trkpt><trkpt lat="45.8124237" lon="11.7647592"><ele>312.5</ele><time>2026-04-06T08:01:51.593Z</time></trkpt><trkpt lat="45.8123645" lon="11.7646472"><ele>306.75</ele><time>2026-04-06T08:01:52.623Z</time></trkpt><trkpt lat="45.8122861" lon="11.7645324"><ele>301.0</ele><time>2026-04-06T08:01:53.628Z</time></trkpt><trkpt lat="45.8121773" lon="11.7644359"><ele>296.0</ele><time>2026-04-06T08:01:54.601Z</time></trkpt><trkpt lat="45.8120723" lon="11.7643184"><ele>291.0</ele><time>2026-04-06T08:01:55.605Z</time></trkpt><trkpt lat="45.8119696" lon="11.7641797"><ele>286.0</ele><time>2026-04-06T08:01:56.629Z</time></trkpt><trkpt lat="45.8118796" lon="11.7640352"><ele>281.0</ele><time>2026-04-06T08:01:57.603Z</time></trkpt><trkpt lat="45.8118011" lon="11.7639154"><ele>281.0</ele><time>2026-04-06T08:01:58.608Z</time></trkpt><trkpt lat="45.8117232" lon="11.763788"><ele>281.0</ele><time>2026-04-06T08:01:59.606Z</time></trkpt><trkpt lat="45.8116339" lon="11.7636505"><ele>281.0</ele><time>2026-04-06T08:02:00.601Z</time></trkpt><trkpt lat="45.8115615" lon="11.763515"><ele>281.0</ele><time>2026-04-06T08:02:01.605Z</time></trkpt><trkpt lat="45.8114946" lon="11.7633872"><ele>284.83333333333337</ele><time>2026-04-06T08:02:02.606Z</time></trkpt><trkpt lat="45.8114337" lon="11.763276"><ele>288.6666666666667</ele><time>2026-04-06T08:02:03.607Z</time></trkpt><trkpt lat="45.8113813" lon="11.76318"><ele>292.5</ele><time>2026-04-06T08:02:04.609Z</time></trkpt><trkpt lat="45.8113377" lon="11.7630814"><ele>296.3333333333333</ele><time>2026-04-06T08:02:05.605Z</time></trkpt><trkpt lat="45.8112976" lon="11.7629711"><ele>300.16666666666663</ele><time>2026-04-06T08:02:06.649Z</time></trkpt><trkpt lat="45.8112639" lon="11.7628433"><ele>304.0</ele><time>2026-04-06T08:02:07.604Z</time></trkpt><trkpt lat="45.8112351" lon="11.7626906"><ele>307.0</ele><time>2026-04-06T08:02:08.605Z</time></trkpt><trkpt lat="45.8112193" lon="11.7625393"><ele>310.0</ele><time>2026-04-06T08:02:09.599Z</time></trkpt><trkpt lat="45.8112097" lon="11.7623994"><ele>313.0</ele><time>2026-04-06T08:02:10.606Z</time></trkpt><trkpt lat="45.8111948" lon="11.7622678"><ele>316.0</ele><time>2026-04-06T08:02:11.6Z</time></trkpt><trkpt lat="45.8111764" lon="11.7621424"><ele>319.0</ele><time>2026-04-06T08:02:12.597Z</time></trkpt><trkpt lat="45.8111731" lon="11.7620189"><ele>319.0</ele><time>2026-04-06T08:02:13.605Z</time></trkpt><trkpt lat="45.811181" lon="11.7619042"><ele>319.0</ele><time>2026-04-06T08:02:14.608Z</time></trkpt><trkpt lat="45.8112001" lon="11.7618002"><ele>319.0</ele><time>2026-04-06T08:02:15.604Z</time></trkpt><trkpt lat="45.811225" lon="11.7617083"><ele>319.0</ele><time>2026-04-06T08:02:16.604Z</time></trkpt><trkpt lat="45.8112335" lon="11.7615677"><ele>319.0</ele><time>2026-04-06T08:02:18.603Z</time></trkpt><trkpt lat="45.8111591" lon="11.7615689"><ele>319.0</ele><time>2026-04-06T08:02:20.597Z</time></trkpt><trkpt lat="45.8111024" lon="11.7617203"><ele>319.0</ele><time>2026-04-06T08:02:22.615Z</time></trkpt><trkpt lat="45.8111126" lon="11.7618686"><ele>319.0</ele><time>2026-04-06T08:02:23.607Z</time></trkpt><trkpt lat="45.8111235" lon="11.7620688"><ele>319.0</ele><time>2026-04-06T08:02:24.649Z</time></trkpt><trkpt lat="45.811119" lon="11.7622929"><ele>319.0</ele><time>2026-04-06T08:02:25.651Z</time></trkpt><trkpt lat="45.811075" lon="11.7625599"><ele>315.25</ele><time>2026-04-06T08:02:26.641Z</time></trkpt><trkpt lat="45.811047" lon="11.7627906"><ele>311.5</ele><time>2026-04-06T08:02:27.609Z</time></trkpt><trkpt lat="45.811059" lon="11.7629924"><ele>307.75</ele><time>2026-04-06T08:02:28.609Z</time></trkpt><trkpt lat="45.8110576" lon="11.7631779"><ele>304.0</ele><time>2026-04-06T08:02:29.605Z</time></trkpt><trkpt lat="45.8110592" lon="11.7633517"><ele>304.0</ele><time>2026-04-06T08:02:30.608Z</time></trkpt><trkpt lat="45.8110925" lon="11.7635091"><ele>304.0</ele><time>2026-04-06T08:02:31.626Z</time></trkpt><trkpt lat="45.811176" lon="11.7636976"><ele>304.0</ele><time>2026-04-06T08:02:32.627Z</time></trkpt><trkpt lat="45.8112522" lon="11.7638588"><ele>304.0</ele><time>2026-04-06T08:02:33.604Z</time></trkpt><trkpt lat="45.8113151" lon="11.7640105"><ele>298.25</ele><time>2026-04-06T08:02:34.604Z</time></trkpt><trkpt lat="45.8113752" lon="11.7641678"><ele>292.5</ele><time>2026-04-06T08:02:35.6Z</time></trkpt><trkpt lat="45.8114454" lon="11.7643589"><ele>286.75</ele><time>2026-04-06T08:02:36.608Z</time></trkpt><trkpt lat="45.8115309" lon="11.7645735"><ele>281.0</ele><time>2026-04-06T08:02:37.598Z</time></trkpt><trkpt lat="45.811612" lon="11.7647641"><ele>280.0</ele><time>2026-04-06T08:02:38.599Z</time></trkpt><trkpt lat="45.8116875" lon="11.7649557"><ele>279.0</ele><time>2026-04-06T08:02:39.595Z</time></trkpt><trkpt lat="45.8117635" lon="11.7651356"><ele>278.0</ele><time>2026-04-06T08:02:40.611Z</time></trkpt><trkpt lat="45.8118229" lon="11.7653142"><ele>277.0</ele><time>2026-04-06T08:02:41.597Z</time></trkpt><trkpt lat="45.8118841" lon="11.7654996"><ele>277.0</ele><time>2026-04-06T08:02:42.643Z</time></trkpt><trkpt lat="45.8119391" lon="11.7656676"><ele>277.0</ele><time>2026-04-06T08:02:43.622Z</time></trkpt><trkpt lat="45.812026" lon="11.7658173"><ele>277.0</ele><time>2026-04-06T08:02:44.643Z</time></trkpt><trkpt lat="45.8121064" lon="11.7659519"><ele>277.0</ele><time>2026-04-06T08:02:45.595Z</time></trkpt><trkpt lat="45.8121835" lon="11.7660644"><ele>273.2</ele><time>2026-04-06T08:02:46.592Z</time></trkpt><trkpt lat="45.8122096" lon="11.766169"><ele>269.4</ele><time>2026-04-06T08:02:47.618Z</time></trkpt><trkpt lat="45.8122352" lon="11.7663029"><ele>265.6</ele><time>2026-04-06T08:02:48.622Z</time></trkpt><trkpt lat="45.8122497" lon="11.7664599"><ele>261.8</ele><time>2026-04-06T08:02:49.596Z</time></trkpt><trkpt lat="45.8122725" lon="11.7666371"><ele>258.0</ele><time>2026-04-06T08:02:50.605Z</time></trkpt><trkpt lat="45.8122962" lon="11.7667971"><ele>253.60000000000002</ele><time>2026-04-06T08:02:51.598Z</time></trkpt><trkpt lat="45.8123283" lon="11.7669293"><ele>249.20000000000002</ele><time>2026-04-06T08:02:52.6Z</time></trkpt><trkpt lat="45.8123576" lon="11.767049"><ele>244.8</ele><time>2026-04-06T08:02:53.615Z</time></trkpt><trkpt lat="45.8123875" lon="11.7671742"><ele>240.4</ele><time>2026-04-06T08:02:54.604Z</time></trkpt><trkpt lat="45.8124159" lon="11.7672983"><ele>236.0</ele><time>2026-04-06T08:02:55.591Z</time></trkpt><trkpt lat="45.8124432" lon="11.767411"><ele>236.0</ele><time>2026-04-06T08:02:56.599Z</time></trkpt><trkpt lat="45.8124739" lon="11.7675309"><ele>236.00000000000003</ele><time>2026-04-06T08:02:57.596Z</time></trkpt><trkpt lat="45.8125022" lon="11.7676629"><ele>236.00000000000003</ele><time>2026-04-06T08:02:58.597Z</time></trkpt><trkpt lat="45.8125279" lon="11.7677937"><ele>236.0</ele><time>2026-04-06T08:02:59.607Z</time></trkpt><trkpt lat="45.8125602" lon="11.7679184"><ele>236.0</ele><time>2026-04-06T08:03:00.606Z</time></trkpt><trkpt lat="45.8125889" lon="11.7680392"><ele>236.66666666666669</ele><time>2026-04-06T08:03:01.608Z</time></trkpt><trkpt lat="45.8126071" lon="11.7681581"><ele>237.33333333333334</ele><time>2026-04-06T08:03:02.602Z</time></trkpt><trkpt lat="45.8126232" lon="11.7682739"><ele>238.0</ele><time>2026-04-06T08:03:03.603Z</time></trkpt><trkpt lat="45.8126472" lon="11.7683727"><ele>238.66666666666669</ele><time>2026-04-06T08:03:04.604Z</time></trkpt><trkpt lat="45.8126829" lon="11.7684581"><ele>239.33333333333334</ele><time>2026-04-06T08:03:05.624Z</time></trkpt><trkpt lat="45.8127411" lon="11.7685376"><ele>240.0</ele><time>2026-04-06T08:03:06.601Z</time></trkpt><trkpt lat="45.8128177" lon="11.7686195"><ele>240.0</ele><time>2026-04-06T08:03:07.604Z</time></trkpt><trkpt lat="45.8128749" lon="11.7687137"><ele>240.0</ele><time>2026-04-06T08:03:08.599Z</time></trkpt><trkpt lat="45.8129285" lon="11.7688125"><ele>240.0</ele><time>2026-04-06T08:03:09.592Z</time></trkpt><trkpt lat="45.8129814" lon="11.7689212"><ele>240.0</ele><time>2026-04-06T08:03:10.601Z</time></trkpt><trkpt lat="45.813025" lon="11.7690282"><ele>240.0</ele><time>2026-04-06T08:03:11.621Z</time></trkpt><trkpt lat="45.813066" lon="11.7691401"><ele>240.0</ele><time>2026-04-06T08:03:12.589Z</time></trkpt><trkpt lat="45.8130817" lon="11.7692486"><ele>237.0</ele><time>2026-04-06T08:03:13.598Z</time></trkpt><trkpt lat="45.8131022" lon="11.7693596"><ele>234.0</ele><time>2026-04-06T08:03:14.602Z</time></trkpt><trkpt lat="45.8131502" lon="11.7694945"><ele>231.0</ele><time>2026-04-06T08:03:15.597Z</time></trkpt><trkpt lat="45.8132104" lon="11.7696632"><ele>228.0</ele><time>2026-04-06T08:03:16.597Z</time></trkpt><trkpt lat="45.8132798" lon="11.7698632"><ele>228.0</ele><time>2026-04-06T08:03:17.609Z</time></trkpt><trkpt lat="45.8133302" lon="11.7701392"><ele>228.0</ele><time>2026-04-06T08:03:18.622Z</time></trkpt><trkpt lat="45.8134255" lon="11.7703739"><ele>228.0</ele><time>2026-04-06T08:03:19.606Z</time></trkpt><trkpt lat="45.8135163" lon="11.770575"><ele>230.8</ele><time>2026-04-06T08:03:20.597Z</time></trkpt><trkpt lat="45.813567" lon="11.7707556"><ele>233.60000000000002</ele><time>2026-04-06T08:03:21.598Z</time></trkpt><trkpt lat="45.8136275" lon="11.7708964"><ele>236.39999999999998</ele><time>2026-04-06T08:03:22.601Z</time></trkpt><trkpt lat="45.8136887" lon="11.7709888"><ele>239.2</ele><time>2026-04-06T08:03:23.603Z</time></trkpt><trkpt lat="45.8137171" lon="11.771078"><ele>242.0</ele><time>2026-04-06T08:03:24.629Z</time></trkpt><trkpt lat="45.8137542" lon="11.7711622"><ele>242.0</ele><time>2026-04-06T08:03:25.609Z</time></trkpt><trkpt lat="45.8138096" lon="11.7712684"><ele>242.0</ele><time>2026-04-06T08:03:27.612Z</time></trkpt><trkpt lat="45.8138597" lon="11.7713674"><ele>242.0</ele><time>2026-04-06T08:03:29.602Z</time></trkpt><trkpt lat="45.8139329" lon="11.7714664"><ele>242.0</ele><time>2026-04-06T08:03:31.607Z</time></trkpt><trkpt lat="45.814029" lon="11.771555"><ele>242.0</ele><time>2026-04-06T08:03:33.601Z</time></trkpt><trkpt lat="45.8141161" lon="11.7716421"><ele>242.0</ele><time>2026-04-06T08:03:35.6Z</time></trkpt><trkpt lat="45.8141834" lon="11.7717445"><ele>242.0</ele><time>2026-04-06T08:03:37.623Z</time></trkpt><trkpt lat="45.8141416" lon="11.7716467"><ele>242.0</ele><time>2026-04-06T08:03:55.917Z</time></trkpt><trkpt lat="45.814038" lon="11.7715638"><ele>242.0</ele><time>2026-04-06T08:03:58.077Z</time></trkpt><trkpt lat="45.8139047" lon="11.771356"><ele>242.0</ele><time>2026-04-06T08:04:00.903Z</time></trkpt><trkpt lat="45.813818" lon="11.7712468"><ele>242.0</ele><time>2026-04-06T08:04:02.918Z</time></trkpt><trkpt lat="45.8138947" lon="11.7712782"><ele>242.0</ele><time>2026-04-06T08:04:10.625Z</time></trkpt><trkpt lat="45.8140036" lon="11.7714052"><ele>242.0</ele><time>2026-04-06T08:04:13.16Z</time></trkpt><trkpt lat="45.8140823" lon="11.7714828"><ele>242.0</ele><time>2026-04-06T08:04:14.236Z</time></trkpt><trkpt lat="45.8141818" lon="11.7716184"><ele>242.0</ele><time>2026-04-06T08:04:15.389Z</time></trkpt><trkpt lat="45.8142291" lon="11.7717303"><ele>242.0</ele><time>2026-04-06T08:04:16.574Z</time></trkpt><trkpt lat="45.8142823" lon="11.7718475"><ele>242.0</ele><time>2026-04-06T08:04:17.563Z</time></trkpt><trkpt lat="45.8143435" lon="11.7719531"><ele>242.0</ele><time>2026-04-06T08:04:18.585Z</time></trkpt><trkpt lat="45.8144648" lon="11.7720776"><ele>242.0</ele><time>2026-04-06T08:04:19.601Z</time></trkpt><trkpt lat="45.8145737" lon="11.7721864"><ele>244.8</ele><time>2026-04-06T08:04:20.606Z</time></trkpt><trkpt lat="45.8146527" lon="11.7722786"><ele>247.6</ele><time>2026-04-06T08:04:21.601Z</time></trkpt><trkpt lat="45.8147209" lon="11.7723492"><ele>250.40000000000003</ele><time>2026-04-06T08:04:22.598Z</time></trkpt><trkpt lat="45.8147922" lon="11.7723976"><ele>253.20000000000002</ele><time>2026-04-06T08:04:23.599Z</time></trkpt><trkpt lat="45.814869" lon="11.7724217"><ele>256.0</ele><time>2026-04-06T08:04:24.597Z</time></trkpt><trkpt lat="45.8150015" lon="11.7724645"><ele>256.0</ele><time>2026-04-06T08:04:26.605Z</time></trkpt><trkpt lat="45.8150593" lon="11.772519"><ele>256.0</ele><time>2026-04-06T08:04:27.599Z</time></trkpt><trkpt lat="45.8150982" lon="11.7726227"><ele>256.0</ele><time>2026-04-06T08:04:28.602Z</time></trkpt><trkpt lat="45.8151246" lon="11.7727729"><ele>256.0</ele><time>2026-04-06T08:04:29.767Z</time></trkpt><trkpt lat="45.8151595" lon="11.7730505"><ele>261.25</ele><time>2026-04-06T08:04:31.646Z</time></trkpt><trkpt lat="45.8151946" lon="11.7731795"><ele>266.5</ele><time>2026-04-06T08:04:32.646Z</time></trkpt><trkpt lat="45.8152455" lon="11.7733177"><ele>271.75</ele><time>2026-04-06T08:04:33.621Z</time></trkpt><trkpt lat="45.8153171" lon="11.7734819"><ele>277.0</ele><time>2026-04-06T08:04:34.604Z</time></trkpt><trkpt lat="45.8153925" lon="11.7736486"><ele>277.0</ele><time>2026-04-06T08:04:35.603Z</time></trkpt><trkpt lat="45.8154834" lon="11.773838"><ele>277.0</ele><time>2026-04-06T08:04:36.603Z</time></trkpt><trkpt lat="45.8155485" lon="11.7740803"><ele>277.0</ele><time>2026-04-06T08:04:37.606Z</time></trkpt><trkpt lat="45.8156298" lon="11.7742833"><ele>276.4</ele><time>2026-04-06T08:04:38.606Z</time></trkpt><trkpt lat="45.8156734" lon="11.7744384"><ele>275.79999999999995</ele><time>2026-04-06T08:04:39.624Z</time></trkpt><trkpt lat="45.8157007" lon="11.7745476"><ele>275.2</ele><time>2026-04-06T08:04:40.602Z</time></trkpt><trkpt lat="45.8157768" lon="11.7746319"><ele>274.59999999999997</ele><time>2026-04-06T08:04:41.625Z</time></trkpt><trkpt lat="45.8158331" lon="11.7747756"><ele>274.0</ele><time>2026-04-06T08:04:43.606Z</time></trkpt><trkpt lat="45.8159252" lon="11.7748125"><ele>279.4</ele><time>2026-04-06T08:04:46.607Z</time></trkpt><trkpt lat="45.816" lon="11.7747696"><ele>284.79999999999995</ele><time>2026-04-06T08:04:47.595Z</time></trkpt><trkpt lat="45.8160826" lon="11.7747181"><ele>290.20000000000005</ele><time>2026-04-06T08:04:48.624Z</time></trkpt><trkpt lat="45.8161586" lon="11.7747269"><ele>295.6</ele><time>2026-04-06T08:04:49.642Z</time></trkpt><trkpt lat="45.8162506" lon="11.774792"><ele>301.0</ele><time>2026-04-06T08:04:50.622Z</time></trkpt><trkpt lat="45.8163502" lon="11.7748606"><ele>301.0</ele><time>2026-04-06T08:04:51.6Z</time></trkpt><trkpt lat="45.8164457" lon="11.7749704"><ele>301.0</ele><time>2026-04-06T08:04:52.63Z</time></trkpt><trkpt lat="45.8165274" lon="11.7750991"><ele>301.0</ele><time>2026-04-06T08:04:53.618Z</time></trkpt><trkpt lat="45.8165923" lon="11.7752225"><ele>301.0</ele><time>2026-04-06T08:04:54.603Z</time></trkpt><trkpt lat="45.8166475" lon="11.77533"><ele>301.0</ele><time>2026-04-06T08:04:55.598Z</time></trkpt><trkpt lat="45.8166916" lon="11.7753973"><ele>298.8</ele><time>2026-04-06T08:04:56.604Z</time></trkpt><trkpt lat="45.8167523" lon="11.7755167"><ele>296.6</ele><time>2026-04-06T08:04:58.605Z</time></trkpt><trkpt lat="45.8167964" lon="11.7755978"><ele>294.4</ele><time>2026-04-06T08:05:00.599Z</time></trkpt><trkpt lat="45.8168805" lon="11.7756513"><ele>292.2</ele><time>2026-04-06T08:05:02.605Z</time></trkpt><trkpt lat="45.8169763" lon="11.7757346"><ele>290.0</ele><time>2026-04-06T08:05:04.599Z</time></trkpt><trkpt lat="45.8169938" lon="11.7759418"><ele>293.33333333333337</ele><time>2026-04-06T08:05:06.62Z</time></trkpt><trkpt lat="45.8169783" lon="11.7760692"><ele>296.6666666666667</ele><time>2026-04-06T08:05:07.619Z</time></trkpt><trkpt lat="45.8169635" lon="11.7761698"><ele>300.0</ele><time>2026-04-06T08:05:08.621Z</time></trkpt><trkpt lat="45.8169276" lon="11.7762559"><ele>303.3333333333333</ele><time>2026-04-06T08:05:09.621Z</time></trkpt><trkpt lat="45.8169026" lon="11.7763519"><ele>306.66666666666663</ele><time>2026-04-06T08:05:10.623Z</time></trkpt><trkpt lat="45.8168896" lon="11.7764689"><ele>310.0</ele><time>2026-04-06T08:05:11.653Z</time></trkpt><trkpt lat="45.8168972" lon="11.7766124"><ele>310.0</ele><time>2026-04-06T08:05:12.627Z</time></trkpt><trkpt lat="45.8169171" lon="11.776751"><ele>310.0</ele><time>2026-04-06T08:05:13.61Z</time></trkpt><trkpt lat="45.8169608" lon="11.7768648"><ele>310.0</ele><time>2026-04-06T08:05:14.605Z</time></trkpt><trkpt lat="45.8170231" lon="11.7769479"><ele>310.0</ele><time>2026-04-06T08:05:15.606Z</time></trkpt><trkpt lat="45.8170925" lon="11.7770171"><ele>310.0</ele><time>2026-04-06T08:05:16.609Z</time></trkpt><trkpt lat="45.8171753" lon="11.7770769"><ele>310.0</ele><time>2026-04-06T08:05:17.614Z</time></trkpt><trkpt lat="45.8172635" lon="11.7771551"><ele>310.0</ele><time>2026-04-06T08:05:18.606Z</time></trkpt><trkpt lat="45.8173571" lon="11.7772383"><ele>310.0</ele><time>2026-04-06T08:05:19.615Z</time></trkpt><trkpt lat="45.8174373" lon="11.7773147"><ele>310.0</ele><time>2026-04-06T08:05:20.61Z</time></trkpt><trkpt lat="45.8174994" lon="11.7773912"><ele>310.0</ele><time>2026-04-06T08:05:21.606Z</time></trkpt><trkpt lat="45.8175425" lon="11.7774972"><ele>310.0</ele><time>2026-04-06T08:05:22.62Z</time></trkpt><trkpt lat="45.8175694" lon="11.7776026"><ele>310.0</ele><time>2026-04-06T08:05:23.616Z</time></trkpt><trkpt lat="45.8175248" lon="11.7774654"><ele>310.0</ele><time>2026-04-06T08:05:36.604Z</time></trkpt><trkpt lat="45.8174784" lon="11.7773391"><ele>310.0</ele><time>2026-04-06T08:05:38.613Z</time></trkpt><trkpt lat="45.8173935" lon="11.7772313"><ele>310.0</ele><time>2026-04-06T08:05:40.616Z</time></trkpt><trkpt lat="45.8173302" lon="11.7771766"><ele>310.0</ele><time>2026-04-06T08:05:42.614Z</time></trkpt><trkpt lat="45.8172631" lon="11.7772519"><ele>310.0</ele><time>2026-04-06T08:05:45.608Z</time></trkpt><trkpt lat="45.8172569" lon="11.7773549"><ele>310.0</ele><time>2026-04-06T08:05:47.615Z</time></trkpt><trkpt lat="45.8172767" lon="11.7774744"><ele>310.0</ele><time>2026-04-06T08:05:49.611Z</time></trkpt><trkpt lat="45.8172969" lon="11.7775893"><ele>310.0</ele><time>2026-04-06T08:05:51.609Z</time></trkpt><trkpt lat="45.8173233" lon="11.777751"><ele>310.0</ele><time>2026-04-06T08:05:53.613Z</time></trkpt><trkpt lat="45.8173506" lon="11.7779117"><ele>309.66666666666663</ele><time>2026-04-06T08:05:55.613Z</time></trkpt><trkpt lat="45.8173656" lon="11.7780264"><ele>309.3333333333333</ele><time>2026-04-06T08:05:57.608Z</time></trkpt><trkpt lat="45.8173705" lon="11.7781328"><ele>309.0</ele><time>2026-04-06T08:05:59.616Z</time></trkpt><trkpt lat="45.8173805" lon="11.778259"><ele>308.6666666666667</ele><time>2026-04-06T08:06:01.617Z</time></trkpt><trkpt lat="45.8173861" lon="11.7783793"><ele>308.33333333333337</ele><time>2026-04-06T08:06:03.609Z</time></trkpt><trkpt lat="45.8173866" lon="11.7784991"><ele>308.0</ele><time>2026-04-06T08:06:05.619Z</time></trkpt><trkpt lat="45.8173879" lon="11.778608"><ele>308.0</ele><time>2026-04-06T08:06:07.616Z</time></trkpt><trkpt lat="45.8173787" lon="11.7787139"><ele>308.0</ele><time>2026-04-06T08:06:14.609Z</time></trkpt><trkpt lat="45.8173616" lon="11.7786158"><ele>308.0</ele><time>2026-04-06T08:06:23.606Z</time></trkpt><trkpt lat="45.8173606" lon="11.7784092"><ele>308.0</ele><time>2026-04-06T08:06:25.612Z</time></trkpt><trkpt lat="45.8173567" lon="11.778232"><ele>308.0</ele><time>2026-04-06T08:06:26.635Z</time></trkpt><trkpt lat="45.8173437" lon="11.7780743"><ele>307.8</ele><time>2026-04-06T08:06:27.603Z</time></trkpt><trkpt lat="45.8173297" lon="11.7779338"><ele>307.6</ele><time>2026-04-06T08:06:28.612Z</time></trkpt><trkpt lat="45.817302" lon="11.7777932"><ele>307.4</ele><time>2026-04-06T08:06:29.608Z</time></trkpt><trkpt lat="45.8172788" lon="11.7776536"><ele>307.2</ele><time>2026-04-06T08:06:30.612Z</time></trkpt><trkpt lat="45.8172618" lon="11.777542"><ele>307.0</ele><time>2026-04-06T08:06:31.606Z</time></trkpt><trkpt lat="45.8172421" lon="11.7773709"><ele>307.6</ele><time>2026-04-06T08:06:33.613Z</time></trkpt><trkpt lat="45.8172284" lon="11.7771977"><ele>308.2</ele><time>2026-04-06T08:06:35.608Z</time></trkpt><trkpt lat="45.8172309" lon="11.777048"><ele>308.8</ele><time>2026-04-06T08:06:37.599Z</time></trkpt><trkpt lat="45.817169" lon="11.7769784"><ele>309.4</ele><time>2026-04-06T08:06:39.611Z</time></trkpt><trkpt lat="45.8170677" lon="11.776939"><ele>310.0</ele><time>2026-04-06T08:06:41.611Z</time></trkpt><trkpt lat="45.8171521" lon="11.7768998"><ele>310.0</ele><time>2026-04-06T08:06:46.617Z</time></trkpt><trkpt lat="45.8172182" lon="11.7769439"><ele>310.0</ele><time>2026-04-06T08:06:47.605Z</time></trkpt><trkpt lat="45.8173007" lon="11.7769935"><ele>310.0</ele><time>2026-04-06T08:06:48.612Z</time></trkpt><trkpt lat="45.8173819" lon="11.7770317"><ele>310.0</ele><time>2026-04-06T08:06:49.609Z</time></trkpt><trkpt lat="45.8174533" lon="11.7770492"><ele>310.0</ele><time>2026-04-06T08:06:50.616Z</time></trkpt><trkpt lat="45.8175292" lon="11.7770561"><ele>310.0</ele><time>2026-04-06T08:06:51.614Z</time></trkpt><trkpt lat="45.8176017" lon="11.7770579"><ele>313.6</ele><time>2026-04-06T08:06:52.617Z</time></trkpt><trkpt lat="45.8177096" lon="11.7770255"><ele>317.2</ele><time>2026-04-06T08:06:54.609Z</time></trkpt><trkpt lat="45.8177915" lon="11.7769151"><ele>320.79999999999995</ele><time>2026-04-06T08:06:56.647Z</time></trkpt><trkpt lat="45.8178766" lon="11.7769057"><ele>324.4</ele><time>2026-04-06T08:06:59.604Z</time></trkpt><trkpt lat="45.8179167" lon="11.7770269"><ele>328.0</ele><time>2026-04-06T08:07:01.608Z</time></trkpt><trkpt lat="45.8179334" lon="11.7771509"><ele>328.0</ele><time>2026-04-06T08:07:03.607Z</time></trkpt><trkpt lat="45.8179658" lon="11.7772506"><ele>328.0</ele><time>2026-04-06T08:07:06.61Z</time></trkpt><trkpt lat="45.8180583" lon="11.7772105"><ele>328.0</ele><time>2026-04-06T08:07:09.595Z</time></trkpt><trkpt lat="45.8181653" lon="11.7772451"><ele>328.0</ele><time>2026-04-06T08:07:11.607Z</time></trkpt><trkpt lat="45.8182282" lon="11.7772528"><ele>328.0</ele><time>2026-04-06T08:07:12.661Z</time></trkpt><trkpt lat="45.8183337" lon="11.7773048"><ele>328.0</ele><time>2026-04-06T08:07:14.602Z</time></trkpt><trkpt lat="45.8184072" lon="11.7773651"><ele>328.0</ele><time>2026-04-06T08:07:16.606Z</time></trkpt><trkpt lat="45.8184603" lon="11.777423"><ele>328.0</ele><time>2026-04-06T08:07:18.63Z</time></trkpt><trkpt lat="45.8185314" lon="11.7774838"><ele>328.0</ele><time>2026-04-06T08:09:23.625Z</time></trkpt><trkpt lat="45.8186058" lon="11.7775273"><ele>328.0</ele><time>2026-04-06T08:09:26.633Z</time></trkpt><trkpt lat="45.8186716" lon="11.7775337"><ele>328.0</ele><time>2026-04-06T08:09:30.633Z</time></trkpt><trkpt lat="45.8187403" lon="11.777597"><ele>333.0</ele><time>2026-04-06T08:09:33.632Z</time></trkpt><trkpt lat="45.8187853" lon="11.7777156"><ele>338.0</ele><time>2026-04-06T08:09:35.788Z</time></trkpt><trkpt lat="45.818841" lon="11.7778206"><ele>343.0</ele><time>2026-04-06T08:09:37.625Z</time></trkpt><trkpt lat="45.8189134" lon="11.7779137"><ele>348.0</ele><time>2026-04-06T08:09:39.619Z</time></trkpt><trkpt lat="45.8189836" lon="11.7780339"><ele>353.0</ele><time>2026-04-06T08:09:41.622Z</time></trkpt><trkpt lat="45.8190232" lon="11.7781059"><ele>353.0</ele><time>2026-04-06T08:09:44.625Z</time></trkpt><trkpt lat="45.819072" lon="11.7781947"><ele>353.0</ele><time>2026-04-06T08:09:47.627Z</time></trkpt><trkpt lat="45.8191144" lon="11.7783245"><ele>353.0</ele><time>2026-04-06T08:09:49.642Z</time></trkpt><trkpt lat="45.8191539" lon="11.7784847"><ele>353.0</ele><time>2026-04-06T08:09:51.636Z</time></trkpt><trkpt lat="45.8191976" lon="11.7786304"><ele>353.0</ele><time>2026-04-06T08:09:53.63Z</time></trkpt><trkpt lat="45.8192375" lon="11.778767"><ele>352.0</ele><time>2026-04-06T08:09:55.628Z</time></trkpt><trkpt lat="45.819285" lon="11.7789237"><ele>351.0</ele><time>2026-04-06T08:09:57.626Z</time></trkpt><trkpt lat="45.8193334" lon="11.7790682"><ele>350.0</ele><time>2026-04-06T08:09:59.629Z</time></trkpt><trkpt lat="45.819369" lon="11.7791943"><ele>349.0</ele><time>2026-04-06T08:10:01.633Z</time></trkpt><trkpt lat="45.8194163" lon="11.7793151"><ele>348.0</ele><time>2026-04-06T08:10:03.628Z</time></trkpt><trkpt lat="45.8194739" lon="11.7794563"><ele>350.1666666666667</ele><time>2026-04-06T08:10:05.636Z</time></trkpt><trkpt lat="45.8195309" lon="11.7795736"><ele>352.3333333333333</ele><time>2026-04-06T08:10:07.634Z</time></trkpt><trkpt lat="45.8196014" lon="11.7796727"><ele>354.5</ele><time>2026-04-06T08:10:09.62Z</time></trkpt><trkpt lat="45.8196399" lon="11.779782"><ele>356.66666666666663</ele><time>2026-04-06T08:10:11.63Z</time></trkpt><trkpt lat="45.8196697" lon="11.7798735"><ele>358.8333333333333</ele><time>2026-04-06T08:10:16.627Z</time></trkpt><trkpt lat="45.8196034" lon="11.7798707"><ele>361.0</ele><time>2026-04-06T08:11:35.62Z</time></trkpt><trkpt lat="45.8196491" lon="11.7799775"><ele>361.0</ele><time>2026-04-06T08:11:41.609Z</time></trkpt><trkpt lat="45.819672" lon="11.7800707"><ele>361.0</ele><time>2026-04-06T08:12:12.629Z</time></trkpt><trkpt lat="45.8197237" lon="11.7801574"><ele>361.0</ele><time>2026-04-06T08:12:16.631Z</time></trkpt><trkpt lat="45.8196762" lon="11.7800854"><ele>361.0</ele><time>2026-04-06T08:12:18.641Z</time></trkpt><trkpt lat="45.8195951" lon="11.7799455"><ele>361.0</ele><time>2026-04-06T08:12:20.638Z</time></trkpt><trkpt lat="45.8195211" lon="11.7798076"><ele>361.0</ele><time>2026-04-06T08:12:22.634Z</time></trkpt><trkpt lat="45.819444" lon="11.7796703"><ele>361.0</ele><time>2026-04-06T08:12:24.64Z</time></trkpt><trkpt lat="45.8194045" lon="11.7795952"><ele>361.0</ele><time>2026-04-06T08:12:25.634Z</time></trkpt><trkpt lat="45.8193669" lon="11.7795171"><ele>361.0</ele><time>2026-04-06T08:12:26.643Z</time></trkpt><trkpt lat="45.8193249" lon="11.7794425"><ele>361.0</ele><time>2026-04-06T08:12:27.64Z</time></trkpt><trkpt lat="45.8192796" lon="11.7793737"><ele>361.0</ele><time>2026-04-06T08:12:28.634Z</time></trkpt><trkpt lat="45.8191926" lon="11.7792365"><ele>358.8333333333333</ele><time>2026-04-06T08:12:30.631Z</time></trkpt><trkpt lat="45.8191506" lon="11.7791498"><ele>356.66666666666663</ele><time>2026-04-06T08:12:31.636Z</time></trkpt><trkpt lat="45.8191076" lon="11.7790682"><ele>354.5</ele><time>2026-04-06T08:12:32.64Z</time></trkpt><trkpt lat="45.8190694" lon="11.778971"><ele>352.3333333333333</ele><time>2026-04-06T08:12:33.628Z</time></trkpt><trkpt lat="45.8190318" lon="11.7788639"><ele>350.1666666666667</ele><time>2026-04-06T08:12:34.654Z</time></trkpt><trkpt lat="45.819008" lon="11.7787737"><ele>348.0</ele><time>2026-04-06T08:12:35.86Z</time></trkpt><trkpt lat="45.8189518" lon="11.7785879"><ele>349.25</ele><time>2026-04-06T08:12:37.677Z</time></trkpt><trkpt lat="45.818913" lon="11.7785118"><ele>350.5</ele><time>2026-04-06T08:12:38.658Z</time></trkpt><trkpt lat="45.8188674" lon="11.7784269"><ele>351.75</ele><time>2026-04-06T08:12:39.677Z</time></trkpt><trkpt lat="45.8188116" lon="11.7783181"><ele>353.0</ele><time>2026-04-06T08:12:40.672Z</time></trkpt><trkpt lat="45.8188195" lon="11.7777273"><ele>354.33333333333337</ele><time>2026-04-06T08:12:41.671Z</time></trkpt><trkpt lat="45.8187824" lon="11.7776311"><ele>355.6666666666667</ele><time>2026-04-06T08:12:42.683Z</time></trkpt><trkpt lat="45.818742" lon="11.7775455"><ele>357.0</ele><time>2026-04-06T08:12:43.665Z</time></trkpt><trkpt lat="45.8186854" lon="11.777464"><ele>358.3333333333333</ele><time>2026-04-06T08:12:44.675Z</time></trkpt><trkpt lat="45.818602" lon="11.7774173"><ele>359.66666666666663</ele><time>2026-04-06T08:12:45.637Z</time></trkpt><trkpt lat="45.8185267" lon="11.7773824"><ele>361.0</ele><time>2026-04-06T08:12:46.672Z</time></trkpt><trkpt lat="45.8184556" lon="11.7774055"><ele>355.5</ele><time>2026-04-06T08:12:47.662Z</time></trkpt><trkpt lat="45.8183796" lon="11.7774534"><ele>350.0</ele><time>2026-04-06T08:12:48.655Z</time></trkpt><trkpt lat="45.8183164" lon="11.7774443"><ele>344.5</ele><time>2026-04-06T08:12:49.635Z</time></trkpt><trkpt lat="45.8182551" lon="11.7774154"><ele>339.0</ele><time>2026-04-06T08:12:50.634Z</time></trkpt><trkpt lat="45.8181946" lon="11.7773763"><ele>333.5</ele><time>2026-04-06T08:12:51.632Z</time></trkpt><trkpt lat="45.8180894" lon="11.7773186"><ele>328.0</ele><time>2026-04-06T08:12:53.633Z</time></trkpt><trkpt lat="45.8180247" lon="11.7772897"><ele>327.99999999999994</ele><time>2026-04-06T08:13:09.632Z</time></trkpt><trkpt lat="45.8179571" lon="11.7772673"><ele>328.0</ele><time>2026-04-06T08:13:16.622Z</time></trkpt><trkpt lat="45.8179063" lon="11.7771968"><ele>328.0</ele><time>2026-04-06T08:13:23.631Z</time></trkpt><trkpt lat="45.8178949" lon="11.7771077"><ele>328.0</ele><time>2026-04-06T08:13:26.638Z</time></trkpt><trkpt lat="45.817887" lon="11.7770171"><ele>328.0</ele><time>2026-04-06T08:13:28.649Z</time></trkpt><trkpt lat="45.8178775" lon="11.7769257"><ele>327.99999999999994</ele><time>2026-04-06T08:13:30.656Z</time></trkpt><trkpt lat="45.8178165" lon="11.7768669"><ele>328.0</ele><time>2026-04-06T08:13:33.634Z</time></trkpt><trkpt lat="45.8177592" lon="11.7769421"><ele>328.0</ele><time>2026-04-06T08:13:35.639Z</time></trkpt><trkpt lat="45.817684" lon="11.7770247"><ele>328.0</ele><time>2026-04-06T08:13:37.641Z</time></trkpt><trkpt lat="45.8175711" lon="11.7770283"><ele>328.0</ele><time>2026-04-06T08:13:39.639Z</time></trkpt><trkpt lat="45.8175082" lon="11.7770182"><ele>328.0</ele><time>2026-04-06T08:13:40.641Z</time></trkpt><trkpt lat="45.8173955" lon="11.7769776"><ele>328.0</ele><time>2026-04-06T08:13:42.642Z</time></trkpt><trkpt lat="45.8172797" lon="11.7769351"><ele>324.4</ele><time>2026-04-06T08:13:44.627Z</time></trkpt><trkpt lat="45.8171807" lon="11.776908"><ele>320.79999999999995</ele><time>2026-04-06T08:13:46.639Z</time></trkpt><trkpt lat="45.8170777" lon="11.7769316"><ele>317.2</ele><time>2026-04-06T08:13:48.664Z</time></trkpt><trkpt lat="45.8169853" lon="11.7768728"><ele>313.6</ele><time>2026-04-06T08:13:50.638Z</time></trkpt><trkpt lat="45.8169153" lon="11.7767374"><ele>310.0</ele><time>2026-04-06T08:13:52.641Z</time></trkpt><trkpt lat="45.8168898" lon="11.7766397"><ele>310.0</ele><time>2026-04-06T08:13:53.637Z</time></trkpt><trkpt lat="45.8168797" lon="11.7765342"><ele>310.0</ele><time>2026-04-06T08:13:54.639Z</time></trkpt><trkpt lat="45.8168791" lon="11.776442"><ele>310.0</ele><time>2026-04-06T08:13:55.638Z</time></trkpt><trkpt lat="45.8169001" lon="11.776287"><ele>310.0</ele><time>2026-04-06T08:13:57.63Z</time></trkpt><trkpt lat="45.8169445" lon="11.776157"><ele>310.0</ele><time>2026-04-06T08:13:59.632Z</time></trkpt><trkpt lat="45.8169935" lon="11.7760132"><ele>311.0</ele><time>2026-04-06T08:14:01.633Z</time></trkpt><trkpt lat="45.8170104" lon="11.7759235"><ele>312.0</ele><time>2026-04-06T08:14:02.62Z</time></trkpt><trkpt lat="45.8170137" lon="11.7758266"><ele>313.0</ele><time>2026-04-06T08:14:03.63Z</time></trkpt><trkpt lat="45.8170143" lon="11.7757304"><ele>314.0</ele><time>2026-04-06T08:14:04.623Z</time></trkpt><trkpt lat="45.8169519" lon="11.7755826"><ele>315.0</ele><time>2026-04-06T08:14:06.642Z</time></trkpt><trkpt lat="45.8168759" lon="11.7755475"><ele>316.0</ele><time>2026-04-06T08:14:07.644Z</time></trkpt><trkpt lat="45.8168037" lon="11.7755254"><ele>313.8571428571429</ele><time>2026-04-06T08:14:08.625Z</time></trkpt><trkpt lat="45.8167375" lon="11.7754925"><ele>311.7142857142857</ele><time>2026-04-06T08:14:09.622Z</time></trkpt><trkpt lat="45.8166812" lon="11.775443"><ele>309.57142857142856</ele><time>2026-04-06T08:14:10.621Z</time></trkpt><trkpt lat="45.8166365" lon="11.7753573"><ele>307.42857142857144</ele><time>2026-04-06T08:14:11.635Z</time></trkpt><trkpt lat="45.8165855" lon="11.7752773"><ele>305.2857142857143</ele><time>2026-04-06T08:14:12.631Z</time></trkpt><trkpt lat="45.8165368" lon="11.7751947"><ele>303.14285714285717</ele><time>2026-04-06T08:14:13.625Z</time></trkpt><trkpt lat="45.8164894" lon="11.7751095"><ele>301.0</ele><time>2026-04-06T08:14:14.635Z</time></trkpt><trkpt lat="45.8164436" lon="11.7750281"><ele>301.0</ele><time>2026-04-06T08:14:15.628Z</time></trkpt><trkpt lat="45.8163906" lon="11.7749461"><ele>301.0</ele><time>2026-04-06T08:14:16.628Z</time></trkpt><trkpt lat="45.8163356" lon="11.7748768"><ele>301.0</ele><time>2026-04-06T08:14:17.633Z</time></trkpt><trkpt lat="45.8162852" lon="11.7748083"><ele>301.0</ele><time>2026-04-06T08:14:18.629Z</time></trkpt><trkpt lat="45.8162396" lon="11.7747456"><ele>301.0</ele><time>2026-04-06T08:14:19.633Z</time></trkpt><trkpt lat="45.8161814" lon="11.7746898"><ele>301.0</ele><time>2026-04-06T08:14:20.628Z</time></trkpt><trkpt lat="45.816113" lon="11.7746591"><ele>301.0</ele><time>2026-04-06T08:14:21.626Z</time></trkpt><trkpt lat="45.8160394" lon="11.7746543"><ele>295.6</ele><time>2026-04-06T08:14:22.638Z</time></trkpt><trkpt lat="45.815969" lon="11.7746778"><ele>290.20000000000005</ele><time>2026-04-06T08:14:23.635Z</time></trkpt><trkpt lat="45.8158913" lon="11.7746832"><ele>284.79999999999995</ele><time>2026-04-06T08:14:24.65Z</time></trkpt><trkpt lat="45.8158224" lon="11.7746789"><ele>279.4</ele><time>2026-04-06T08:14:25.671Z</time></trkpt><trkpt lat="45.8156946" lon="11.7745761"><ele>274.0</ele><time>2026-04-06T08:14:27.617Z</time></trkpt><trkpt lat="45.8156207" lon="11.7744456"><ele>275.0</ele><time>2026-04-06T08:14:28.628Z</time></trkpt><trkpt lat="45.815549" lon="11.7742778"><ele>276.0</ele><time>2026-04-06T08:14:29.621Z</time></trkpt><trkpt lat="45.8154789" lon="11.7740632"><ele>277.0</ele><time>2026-04-06T08:14:30.62Z</time></trkpt><trkpt lat="45.8153583" lon="11.7738317"><ele>277.0</ele><time>2026-04-06T08:14:31.624Z</time></trkpt><trkpt lat="45.8152657" lon="11.7736642"><ele>277.0</ele><time>2026-04-06T08:14:32.621Z</time></trkpt><trkpt lat="45.8151778" lon="11.7735021"><ele>277.0</ele><time>2026-04-06T08:14:33.626Z</time></trkpt><trkpt lat="45.8151374" lon="11.7734048"><ele>277.0</ele><time>2026-04-06T08:14:34.625Z</time></trkpt><trkpt lat="45.8150934" lon="11.7732437"><ele>271.75</ele><time>2026-04-06T08:14:35.647Z</time></trkpt><trkpt lat="45.8150744" lon="11.7730635"><ele>266.5</ele><time>2026-04-06T08:14:36.647Z</time></trkpt><trkpt lat="45.8150599" lon="11.7728306"><ele>261.25</ele><time>2026-04-06T08:14:37.639Z</time></trkpt><trkpt lat="45.815045" lon="11.7726438"><ele>256.0</ele><time>2026-04-06T08:14:38.647Z</time></trkpt><trkpt lat="45.8150381" lon="11.7724948"><ele>256.0</ele><time>2026-04-06T08:14:39.616Z</time></trkpt><trkpt lat="45.8150178" lon="11.7723754"><ele>256.0</ele><time>2026-04-06T08:14:40.631Z</time></trkpt><trkpt lat="45.8149664" lon="11.7722858"><ele>256.0</ele><time>2026-04-06T08:14:41.615Z</time></trkpt><trkpt lat="45.8148821" lon="11.7722231"><ele>256.0</ele><time>2026-04-06T08:14:42.62Z</time></trkpt><trkpt lat="45.8147815" lon="11.7721685"><ele>256.0</ele><time>2026-04-06T08:14:43.615Z</time></trkpt><trkpt lat="45.8146866" lon="11.7721184"><ele>256.0</ele><time>2026-04-06T08:14:44.623Z</time></trkpt><trkpt lat="45.8145781" lon="11.7720592"><ele>256.0</ele><time>2026-04-06T08:14:45.646Z</time></trkpt><trkpt lat="45.8144687" lon="11.7719931"><ele>256.0</ele><time>2026-04-06T08:14:46.639Z</time></trkpt><trkpt lat="45.8143625" lon="11.7718948"><ele>256.0</ele><time>2026-04-06T08:14:47.641Z</time></trkpt><trkpt lat="45.8142671" lon="11.7717896"><ele>252.5</ele><time>2026-04-06T08:14:48.621Z</time></trkpt><trkpt lat="45.8141716" lon="11.7716807"><ele>249.0</ele><time>2026-04-06T08:14:49.619Z</time></trkpt><trkpt lat="45.8140836" lon="11.7715525"><ele>245.5</ele><time>2026-04-06T08:14:50.618Z</time></trkpt><trkpt lat="45.8139992" lon="11.7714043"><ele>242.0</ele><time>2026-04-06T08:14:51.618Z</time></trkpt><trkpt lat="45.8139129" lon="11.7712592"><ele>242.0</ele><time>2026-04-06T08:14:52.609Z</time></trkpt><trkpt lat="45.8138289" lon="11.771111"><ele>242.0</ele><time>2026-04-06T08:14:53.616Z</time></trkpt><trkpt lat="45.8137217" lon="11.770993"><ele>242.0</ele><time>2026-04-06T08:14:54.618Z</time></trkpt><trkpt lat="45.8136274" lon="11.7708794"><ele>242.0</ele><time>2026-04-06T08:14:55.624Z</time></trkpt><trkpt lat="45.8135565" lon="11.7707965"><ele>238.5</ele><time>2026-04-06T08:14:56.619Z</time></trkpt><trkpt lat="45.8134478" lon="11.7705679"><ele>235.0</ele><time>2026-04-06T08:14:58.609Z</time></trkpt><trkpt lat="45.8133931" lon="11.7704198"><ele>231.5</ele><time>2026-04-06T08:14:59.618Z</time></trkpt><trkpt lat="45.8133313" lon="11.7702552"><ele>228.0</ele><time>2026-04-06T08:15:00.613Z</time></trkpt><trkpt lat="45.8132726" lon="11.7700811"><ele>228.0</ele><time>2026-04-06T08:15:01.607Z</time></trkpt><trkpt lat="45.8132069" lon="11.7699077"><ele>228.0</ele><time>2026-04-06T08:15:02.616Z</time></trkpt><trkpt lat="45.8131701" lon="11.7697743"><ele>228.0</ele><time>2026-04-06T08:15:03.613Z</time></trkpt><trkpt lat="45.8131276" lon="11.7696503"><ele>228.0</ele><time>2026-04-06T08:15:04.62Z</time></trkpt><trkpt lat="45.8130899" lon="11.7695309"><ele>228.0</ele><time>2026-04-06T08:15:05.623Z</time></trkpt><trkpt lat="45.8130552" lon="11.7694208"><ele>228.0</ele><time>2026-04-06T08:15:06.627Z</time></trkpt><trkpt lat="45.8130379" lon="11.769313"><ele>228.0</ele><time>2026-04-06T08:15:07.623Z</time></trkpt><trkpt lat="45.8130269" lon="11.7691704"><ele>228.0</ele><time>2026-04-06T08:15:09.648Z</time></trkpt><trkpt lat="45.813011" lon="11.7692634"><ele>228.0</ele><time>2026-04-06T08:17:08.615Z</time></trkpt><trkpt lat="45.8130043" lon="11.7693646"><ele>228.0</ele><time>2026-04-06T08:18:00.617Z</time></trkpt><trkpt lat="45.8129782" lon="11.7694493"><ele>228.0</ele><time>2026-04-06T08:18:07.614Z</time></trkpt><trkpt lat="45.8130067" lon="11.7695992"><ele>228.0</ele><time>2026-04-06T08:20:27.646Z</time></trkpt><trkpt lat="45.8130384" lon="11.7697296"><ele>228.0</ele><time>2026-04-06T08:20:28.642Z</time></trkpt><trkpt lat="45.8130668" lon="11.7698941"><ele>228.0</ele><time>2026-04-06T08:20:29.783Z</time></trkpt><trkpt lat="45.8131066" lon="11.7701896"><ele>228.0</ele><time>2026-04-06T08:20:31.651Z</time></trkpt><trkpt lat="45.8131035" lon="11.7703252"><ele>226.60000000000002</ele><time>2026-04-06T08:20:32.65Z</time></trkpt><trkpt lat="45.8130807" lon="11.7704631"><ele>225.20000000000002</ele><time>2026-04-06T08:20:33.619Z</time></trkpt><trkpt lat="45.8130517" lon="11.7706295"><ele>223.8</ele><time>2026-04-06T08:20:34.628Z</time></trkpt><trkpt lat="45.8130091" lon="11.7707662"><ele>222.4</ele><time>2026-04-06T08:20:35.621Z</time></trkpt><trkpt lat="45.8129792" lon="11.7708851"><ele>221.0</ele><time>2026-04-06T08:20:36.629Z</time></trkpt><trkpt lat="45.8129663" lon="11.7710051"><ele>220.20000000000002</ele><time>2026-04-06T08:20:37.627Z</time></trkpt><trkpt lat="45.8129534" lon="11.7711354"><ele>219.40000000000003</ele><time>2026-04-06T08:20:38.626Z</time></trkpt><trkpt lat="45.8129503" lon="11.7712745"><ele>218.6</ele><time>2026-04-06T08:20:39.634Z</time></trkpt><trkpt lat="45.8129443" lon="11.7714034"><ele>217.8</ele><time>2026-04-06T08:20:40.626Z</time></trkpt><trkpt lat="45.8129236" lon="11.771534"><ele>217.0</ele><time>2026-04-06T08:20:41.638Z</time></trkpt><trkpt lat="45.8128871" lon="11.7716552"><ele>216.99999999999997</ele><time>2026-04-06T08:20:42.654Z</time></trkpt><trkpt lat="45.8128498" lon="11.7717699"><ele>217.0</ele><time>2026-04-06T08:20:43.65Z</time></trkpt><trkpt lat="45.8128253" lon="11.7718695"><ele>217.0</ele><time>2026-04-06T08:20:44.658Z</time></trkpt><trkpt lat="45.8127947" lon="11.7719606"><ele>217.0</ele><time>2026-04-06T08:20:45.661Z</time></trkpt><trkpt lat="45.8127271" lon="11.7721093"><ele>216.99999999999997</ele><time>2026-04-06T08:20:47.659Z</time></trkpt><trkpt lat="45.8126781" lon="11.7721856"><ele>217.0</ele><time>2026-04-06T08:20:48.625Z</time></trkpt><trkpt lat="45.8126159" lon="11.7722562"><ele>214.8</ele><time>2026-04-06T08:20:49.628Z</time></trkpt><trkpt lat="45.8125486" lon="11.7723305"><ele>212.6</ele><time>2026-04-06T08:20:50.639Z</time></trkpt><trkpt lat="45.812475" lon="11.7724122"><ele>210.4</ele><time>2026-04-06T08:20:51.633Z</time></trkpt><trkpt lat="45.8124105" lon="11.7724922"><ele>208.20000000000002</ele><time>2026-04-06T08:20:52.627Z</time></trkpt><trkpt lat="45.8123404" lon="11.772575"><ele>206.0</ele><time>2026-04-06T08:20:53.637Z</time></trkpt><trkpt lat="45.8122621" lon="11.7726772"><ele>206.20000000000002</ele><time>2026-04-06T08:20:54.637Z</time></trkpt><trkpt lat="45.8121854" lon="11.7727735"><ele>206.4</ele><time>2026-04-06T08:20:55.621Z</time></trkpt><trkpt lat="45.8121145" lon="11.7728591"><ele>206.6</ele><time>2026-04-06T08:20:56.639Z</time></trkpt><trkpt lat="45.8120467" lon="11.7729441"><ele>206.8</ele><time>2026-04-06T08:20:57.632Z</time></trkpt><trkpt lat="45.8119697" lon="11.7730281"><ele>207.0</ele><time>2026-04-06T08:20:58.637Z</time></trkpt><trkpt lat="45.8119027" lon="11.7731077"><ele>207.0</ele><time>2026-04-06T08:20:59.713Z</time></trkpt><trkpt lat="45.8118415" lon="11.7731889"><ele>207.0</ele><time>2026-04-06T08:21:00.676Z</time></trkpt><trkpt lat="45.8117832" lon="11.7732726"><ele>207.0</ele><time>2026-04-06T08:21:01.649Z</time></trkpt><trkpt lat="45.8117205" lon="11.7733488"><ele>207.0</ele><time>2026-04-06T08:21:02.627Z</time></trkpt><trkpt lat="45.8116532" lon="11.7734079"><ele>207.0</ele><time>2026-04-06T08:21:03.649Z</time></trkpt><trkpt lat="45.8115896" lon="11.7734428"><ele>207.0</ele><time>2026-04-06T08:21:04.632Z</time></trkpt><trkpt lat="45.8115097" lon="11.7734406"><ele>205.66666666666666</ele><time>2026-04-06T08:21:05.628Z</time></trkpt><trkpt lat="45.8114224" lon="11.7734236"><ele>204.33333333333331</ele><time>2026-04-06T08:21:06.656Z</time></trkpt><trkpt lat="45.8113353" lon="11.7733958"><ele>203.0</ele><time>2026-04-06T08:21:07.628Z</time></trkpt><trkpt lat="45.8112547" lon="11.7733525"><ele>201.66666666666666</ele><time>2026-04-06T08:21:08.635Z</time></trkpt><trkpt lat="45.8111784" lon="11.7733018"><ele>200.33333333333331</ele><time>2026-04-06T08:21:09.637Z</time></trkpt><trkpt lat="45.8111003" lon="11.7732546"><ele>199.0</ele><time>2026-04-06T08:21:10.634Z</time></trkpt><trkpt lat="45.8110227" lon="11.7732148"><ele>197.49999999999997</ele><time>2026-04-06T08:21:11.634Z</time></trkpt><trkpt lat="45.8109483" lon="11.7731718"><ele>196.0</ele><time>2026-04-06T08:21:12.641Z</time></trkpt><trkpt lat="45.81088" lon="11.7731327"><ele>194.5</ele><time>2026-04-06T08:21:13.635Z</time></trkpt><trkpt lat="45.8108206" lon="11.7730995"><ele>193.0</ele><time>2026-04-06T08:21:14.644Z</time></trkpt><trkpt lat="45.8107382" lon="11.7730448"><ele>191.5</ele><time>2026-04-06T08:21:16.645Z</time></trkpt><trkpt lat="45.8106663" lon="11.7729997"><ele>190.0</ele><time>2026-04-06T08:21:19.644Z</time></trkpt><trkpt lat="45.8105993" lon="11.7729752"><ele>190.0</ele><time>2026-04-06T08:21:21.669Z</time></trkpt><trkpt lat="45.8105192" lon="11.7729422"><ele>190.0</ele><time>2026-04-06T08:21:23.646Z</time></trkpt><trkpt lat="45.8104228" lon="11.7728887"><ele>190.0</ele><time>2026-04-06T08:21:25.644Z</time></trkpt><trkpt lat="45.8103071" lon="11.7728164"><ele>190.0</ele><time>2026-04-06T08:21:27.644Z</time></trkpt><trkpt lat="45.8102466" lon="11.7727811"><ele>190.0</ele><time>2026-04-06T08:21:28.645Z</time></trkpt><trkpt lat="45.8101426" lon="11.7727249"><ele>189.16666666666669</ele><time>2026-04-06T08:21:30.637Z</time></trkpt><trkpt lat="45.8100581" lon="11.7726892"><ele>188.33333333333334</ele><time>2026-04-06T08:21:32.645Z</time></trkpt><trkpt lat="45.8099789" lon="11.7726636"><ele>187.5</ele><time>2026-04-06T08:21:34.649Z</time></trkpt><trkpt lat="45.8099162" lon="11.7726526"><ele>186.66666666666666</ele><time>2026-04-06T08:21:36.669Z</time></trkpt><trkpt lat="45.8098521" lon="11.7726554"><ele>185.83333333333331</ele><time>2026-04-06T08:21:38.662Z</time></trkpt><trkpt lat="45.8097871" lon="11.7726774"><ele>185.0</ele><time>2026-04-06T08:21:40.636Z</time></trkpt><trkpt lat="45.8096738" lon="11.7727351"><ele>185.0</ele><time>2026-04-06T08:21:42.638Z</time></trkpt><trkpt lat="45.8096047" lon="11.7727818"><ele>185.0</ele><time>2026-04-06T08:21:43.645Z</time></trkpt><trkpt lat="45.8095361" lon="11.7728139"><ele>185.0</ele><time>2026-04-06T08:21:44.662Z</time></trkpt><trkpt lat="45.8094128" lon="11.7728581"><ele>185.0</ele><time>2026-04-06T08:21:46.668Z</time></trkpt><trkpt lat="45.8093241" lon="11.7728966"><ele>185.0</ele><time>2026-04-06T08:21:47.646Z</time></trkpt><trkpt lat="45.8092093" lon="11.7729551"><ele>184.0</ele><time>2026-04-06T08:21:48.652Z</time></trkpt><trkpt lat="45.8090869" lon="11.7730056"><ele>183.0</ele><time>2026-04-06T08:21:49.64Z</time></trkpt><trkpt lat="45.8089844" lon="11.7730543"><ele>182.0</ele><time>2026-04-06T08:21:50.645Z</time></trkpt><trkpt lat="45.8088884" lon="11.7731058"><ele>181.0</ele><time>2026-04-06T08:21:51.649Z</time></trkpt><trkpt lat="45.8087962" lon="11.773152"><ele>180.0</ele><time>2026-04-06T08:21:52.647Z</time></trkpt><trkpt lat="45.8087102" lon="11.7731985"><ele>180.0</ele><time>2026-04-06T08:21:53.647Z</time></trkpt><trkpt lat="45.8086276" lon="11.7732362"><ele>180.0</ele><time>2026-04-06T08:21:54.642Z</time></trkpt><trkpt lat="45.8085456" lon="11.7732774"><ele>180.0</ele><time>2026-04-06T08:21:55.648Z</time></trkpt><trkpt lat="45.8084572" lon="11.7733268"><ele>180.0</ele><time>2026-04-06T08:21:56.637Z</time></trkpt><trkpt lat="45.8083555" lon="11.7733867"><ele>180.0</ele><time>2026-04-06T08:21:57.633Z</time></trkpt><trkpt lat="45.8082345" lon="11.7734511"><ele>179.75</ele><time>2026-04-06T08:21:58.646Z</time></trkpt><trkpt lat="45.8080968" lon="11.7735261"><ele>179.5</ele><time>2026-04-06T08:21:59.64Z</time></trkpt><trkpt lat="45.8079589" lon="11.7736281"><ele>179.25</ele><time>2026-04-06T08:22:00.644Z</time></trkpt><trkpt lat="45.8078366" lon="11.7736764"><ele>179.0</ele><time>2026-04-06T08:22:01.673Z</time></trkpt><trkpt lat="45.8077403" lon="11.7737075"><ele>178.6</ele><time>2026-04-06T08:22:02.668Z</time></trkpt><trkpt lat="45.8076493" lon="11.7737418"><ele>178.2</ele><time>2026-04-06T08:22:03.633Z</time></trkpt><trkpt lat="45.8075589" lon="11.7737911"><ele>177.79999999999998</ele><time>2026-04-06T08:22:04.65Z</time></trkpt><trkpt lat="45.8074586" lon="11.7738481"><ele>177.39999999999998</ele><time>2026-04-06T08:22:05.64Z</time></trkpt><trkpt lat="45.8073666" lon="11.7739108"><ele>177.0</ele><time>2026-04-06T08:22:06.641Z</time></trkpt><trkpt lat="45.8072784" lon="11.7739604"><ele>177.0</ele><time>2026-04-06T08:22:07.645Z</time></trkpt><trkpt lat="45.8072049" lon="11.7740015"><ele>177.0</ele><time>2026-04-06T08:22:08.643Z</time></trkpt><trkpt lat="45.8071316" lon="11.7740429"><ele>177.0</ele><time>2026-04-06T08:22:09.659Z</time></trkpt><trkpt lat="45.8070516" lon="11.7740711"><ele>177.0</ele><time>2026-04-06T08:22:10.672Z</time></trkpt><trkpt lat="45.8069639" lon="11.7741114"><ele>177.0</ele><time>2026-04-06T08:22:11.662Z</time></trkpt><trkpt lat="45.8068754" lon="11.7741635"><ele>177.0</ele><time>2026-04-06T08:22:12.66Z</time></trkpt><trkpt lat="45.8068008" lon="11.7742044"><ele>177.0</ele><time>2026-04-06T08:22:13.641Z</time></trkpt><trkpt lat="45.8067329" lon="11.7742392"><ele>177.0</ele><time>2026-04-06T08:22:14.631Z</time></trkpt><trkpt lat="45.8066204" lon="11.7743011"><ele>177.0</ele><time>2026-04-06T08:22:16.631Z</time></trkpt><trkpt lat="45.8065601" lon="11.774329"><ele>177.0</ele><time>2026-04-06T08:22:17.638Z</time></trkpt><trkpt lat="45.8064957" lon="11.7743604"><ele>177.0</ele><time>2026-04-06T08:22:18.644Z</time></trkpt><trkpt lat="45.8064336" lon="11.774396"><ele>177.0</ele><time>2026-04-06T08:22:19.638Z</time></trkpt><trkpt lat="45.8063314" lon="11.7744507"><ele>176.8</ele><time>2026-04-06T08:22:21.643Z</time></trkpt><trkpt lat="45.8062252" lon="11.7744999"><ele>176.6</ele><time>2026-04-06T08:22:23.64Z</time></trkpt><trkpt lat="45.8061246" lon="11.7745457"><ele>176.4</ele><time>2026-04-06T08:22:25.651Z</time></trkpt><trkpt lat="45.8060238" lon="11.7746181"><ele>176.20000000000002</ele><time>2026-04-06T08:22:27.643Z</time></trkpt><trkpt lat="45.8059649" lon="11.7746657"><ele>176.0</ele><time>2026-04-06T08:22:29.655Z</time></trkpt><trkpt lat="45.8059056" lon="11.7747048"><ele>176.0</ele><time>2026-04-06T08:22:32.656Z</time></trkpt><trkpt lat="45.8058253" lon="11.7745819"><ele>176.0</ele><time>2026-04-06T08:22:43.649Z</time></trkpt><trkpt lat="45.8057794" lon="11.7744937"><ele>176.0</ele><time>2026-04-06T08:22:44.646Z</time></trkpt><trkpt lat="45.8057168" lon="11.7743281"><ele>176.0</ele><time>2026-04-06T08:22:45.646Z</time></trkpt><trkpt lat="45.8056652" lon="11.7741453"><ele>176.0</ele><time>2026-04-06T08:22:46.638Z</time></trkpt><trkpt lat="45.8056157" lon="11.7739792"><ele>176.0</ele><time>2026-04-06T08:22:47.644Z</time></trkpt><trkpt lat="45.8055624" lon="11.7738238"><ele>176.0</ele><time>2026-04-06T08:22:48.649Z</time></trkpt><trkpt lat="45.8055121" lon="11.7736773"><ele>176.0</ele><time>2026-04-06T08:22:49.642Z</time></trkpt><trkpt lat="45.8054626" lon="11.7735495"><ele>176.0</ele><time>2026-04-06T08:22:50.648Z</time></trkpt><trkpt lat="45.8054162" lon="11.7734291"><ele>176.0</ele><time>2026-04-06T08:22:51.646Z</time></trkpt><trkpt lat="45.8053719" lon="11.7733144"><ele>176.0</ele><time>2026-04-06T08:22:52.639Z</time></trkpt><trkpt lat="45.805328" lon="11.7732045"><ele>176.0</ele><time>2026-04-06T08:22:53.651Z</time></trkpt><trkpt lat="45.8052791" lon="11.7730595"><ele>176.0</ele><time>2026-04-06T08:22:54.638Z</time></trkpt><trkpt lat="45.8052174" lon="11.7728826"><ele>176.66666666666666</ele><time>2026-04-06T08:22:55.637Z</time></trkpt><trkpt lat="45.805139" lon="11.7726705"><ele>177.33333333333334</ele><time>2026-04-06T08:22:56.646Z</time></trkpt><trkpt lat="45.8050462" lon="11.7723426"><ele>178.0</ele><time>2026-04-06T08:22:57.652Z</time></trkpt><trkpt lat="45.8049552" lon="11.77201"><ele>179.5</ele><time>2026-04-06T08:22:58.634Z</time></trkpt><trkpt lat="45.8048317" lon="11.7717095"><ele>181.0</ele><time>2026-04-06T08:22:59.647Z</time></trkpt><trkpt lat="45.8047177" lon="11.7713941"><ele>181.0</ele><time>2026-04-06T08:23:00.639Z</time></trkpt><trkpt lat="45.8046367" lon="11.7711067"><ele>181.0</ele><time>2026-04-06T08:23:01.642Z</time></trkpt><trkpt lat="45.8045479" lon="11.7708447"><ele>181.0</ele><time>2026-04-06T08:23:02.644Z</time></trkpt><trkpt lat="45.8044696" lon="11.7705789"><ele>181.5</ele><time>2026-04-06T08:23:03.64Z</time></trkpt><trkpt lat="45.8044144" lon="11.7703493"><ele>182.0</ele><time>2026-04-06T08:23:04.64Z</time></trkpt><trkpt lat="45.8043546" lon="11.7702051"><ele>182.5</ele><time>2026-04-06T08:23:05.643Z</time></trkpt><trkpt lat="45.8043034" lon="11.7700738"><ele>183.0</ele><time>2026-04-06T08:23:06.646Z</time></trkpt><trkpt lat="45.8042317" lon="11.7699329"><ele>183.33333333333334</ele><time>2026-04-06T08:23:07.687Z</time></trkpt><trkpt lat="45.8041687" lon="11.7697633"><ele>183.66666666666669</ele><time>2026-04-06T08:23:08.671Z</time></trkpt><trkpt lat="45.8041092" lon="11.7695483"><ele>184.0</ele><time>2026-04-06T08:23:09.661Z</time></trkpt><trkpt lat="45.8040427" lon="11.7693358"><ele>184.66666666666669</ele><time>2026-04-06T08:23:10.644Z</time></trkpt><trkpt lat="45.8039522" lon="11.769139"><ele>185.33333333333334</ele><time>2026-04-06T08:23:11.643Z</time></trkpt><trkpt lat="45.8038793" lon="11.768947"><ele>186.0</ele><time>2026-04-06T08:23:12.647Z</time></trkpt><trkpt lat="45.8038042" lon="11.7687722"><ele>186.0</ele><time>2026-04-06T08:23:13.643Z</time></trkpt><trkpt lat="45.8037352" lon="11.7685777"><ele>186.0</ele><time>2026-04-06T08:23:14.64Z</time></trkpt><trkpt lat="45.8036445" lon="11.7683822"><ele>186.0</ele><time>2026-04-06T08:23:15.644Z</time></trkpt><trkpt lat="45.8035608" lon="11.7681458"><ele>186.0</ele><time>2026-04-06T08:23:16.651Z</time></trkpt><trkpt lat="45.8034789" lon="11.76792"><ele>186.0</ele><time>2026-04-06T08:23:17.64Z</time></trkpt><trkpt lat="45.8033781" lon="11.7677156"><ele>186.0</ele><time>2026-04-06T08:23:18.646Z</time></trkpt><trkpt lat="45.8032635" lon="11.7675503"><ele>187.33333333333334</ele><time>2026-04-06T08:23:19.645Z</time></trkpt><trkpt lat="45.8031564" lon="11.7673625"><ele>188.66666666666669</ele><time>2026-04-06T08:23:20.648Z</time></trkpt><trkpt lat="45.8030828" lon="11.7671627"><ele>190.0</ele><time>2026-04-06T08:23:21.641Z</time></trkpt><trkpt lat="45.80303" lon="11.7669713"><ele>190.33333333333334</ele><time>2026-04-06T08:23:22.644Z</time></trkpt><trkpt lat="45.8029907" lon="11.7667398"><ele>190.66666666666666</ele><time>2026-04-06T08:23:23.641Z</time></trkpt><trkpt lat="45.8029621" lon="11.7664701"><ele>191.0</ele><time>2026-04-06T08:23:24.638Z</time></trkpt><trkpt lat="45.8029519" lon="11.7662114"><ele>191.66666666666666</ele><time>2026-04-06T08:23:25.647Z</time></trkpt><trkpt lat="45.8029333" lon="11.7660038"><ele>192.33333333333331</ele><time>2026-04-06T08:23:26.645Z</time></trkpt><trkpt lat="45.8028677" lon="11.7657985"><ele>193.0</ele><time>2026-04-06T08:23:27.64Z</time></trkpt><trkpt lat="45.8027564" lon="11.7655916"><ele>195.66666666666666</ele><time>2026-04-06T08:23:28.645Z</time></trkpt><trkpt lat="45.8026274" lon="11.7653741"><ele>198.33333333333331</ele><time>2026-04-06T08:23:29.647Z</time></trkpt><trkpt lat="45.8024961" lon="11.7651717"><ele>201.0</ele><time>2026-04-06T08:23:30.637Z</time></trkpt><trkpt lat="45.8023797" lon="11.7649812"><ele>201.0</ele><time>2026-04-06T08:23:31.637Z</time></trkpt><trkpt lat="45.8023034" lon="11.7647993"><ele>201.0</ele><time>2026-04-06T08:23:32.64Z</time></trkpt><trkpt lat="45.8021832" lon="11.764619"><ele>201.0</ele><time>2026-04-06T08:23:33.631Z</time></trkpt><trkpt lat="45.8020691" lon="11.7644315"><ele>200.33333333333331</ele><time>2026-04-06T08:23:34.649Z</time></trkpt><trkpt lat="45.8019544" lon="11.7642613"><ele>199.66666666666666</ele><time>2026-04-06T08:23:35.64Z</time></trkpt><trkpt lat="45.8018468" lon="11.7640946"><ele>199.0</ele><time>2026-04-06T08:23:36.655Z</time></trkpt><trkpt lat="45.8017337" lon="11.7639807"><ele>198.33333333333331</ele><time>2026-04-06T08:23:37.65Z</time></trkpt><trkpt lat="45.8015977" lon="11.7639002"><ele>197.66666666666669</ele><time>2026-04-06T08:23:38.643Z</time></trkpt><trkpt lat="45.8014343" lon="11.7638413"><ele>197.0</ele><time>2026-04-06T08:23:39.647Z</time></trkpt><trkpt lat="45.8012399" lon="11.7637918"><ele>197.0</ele><time>2026-04-06T08:23:40.648Z</time></trkpt><trkpt lat="45.8010519" lon="11.7637212"><ele>197.0</ele><time>2026-04-06T08:23:41.647Z</time></trkpt><trkpt lat="45.800887" lon="11.7636316"><ele>197.0</ele><time>2026-04-06T08:23:42.654Z</time></trkpt><trkpt lat="45.8006919" lon="11.7635247"><ele>194.66666666666669</ele><time>2026-04-06T08:23:43.645Z</time></trkpt><trkpt lat="45.8004849" lon="11.7634238"><ele>192.33333333333334</ele><time>2026-04-06T08:23:44.661Z</time></trkpt><trkpt lat="45.8002768" lon="11.7633439"><ele>190.0</ele><time>2026-04-06T08:23:45.654Z</time></trkpt><trkpt lat="45.800102" lon="11.7632617"><ele>190.0</ele><time>2026-04-06T08:23:46.649Z</time></trkpt><trkpt lat="45.7999495" lon="11.7631922"><ele>190.0</ele><time>2026-04-06T08:23:47.645Z</time></trkpt><trkpt lat="45.7998046" lon="11.7631005"><ele>190.0</ele><time>2026-04-06T08:23:48.645Z</time></trkpt><trkpt lat="45.7996759" lon="11.7630458"><ele>190.0</ele><time>2026-04-06T08:23:49.643Z</time></trkpt><trkpt lat="45.7995373" lon="11.76297"><ele>190.0</ele><time>2026-04-06T08:23:50.643Z</time></trkpt><trkpt lat="45.7994103" lon="11.7629133"><ele>190.0</ele><time>2026-04-06T08:23:51.655Z</time></trkpt><trkpt lat="45.799283" lon="11.7628555"><ele>190.0</ele><time>2026-04-06T08:23:52.634Z</time></trkpt><trkpt lat="45.7991494" lon="11.7627579"><ele>188.0</ele><time>2026-04-06T08:23:53.645Z</time></trkpt><trkpt lat="45.7990354" lon="11.7626127"><ele>186.0</ele><time>2026-04-06T08:23:54.651Z</time></trkpt><trkpt lat="45.7988989" lon="11.7624065"><ele>184.0</ele><time>2026-04-06T08:23:55.643Z</time></trkpt><trkpt lat="45.7987676" lon="11.7621736"><ele>184.0</ele><time>2026-04-06T08:23:56.64Z</time></trkpt><trkpt lat="45.7986225" lon="11.7619329"><ele>184.0</ele><time>2026-04-06T08:23:57.645Z</time></trkpt><trkpt lat="45.7984712" lon="11.7617496"><ele>184.0</ele><time>2026-04-06T08:23:58.652Z</time></trkpt><trkpt lat="45.7983465" lon="11.7615966"><ele>182.66666666666669</ele><time>2026-04-06T08:23:59.641Z</time></trkpt><trkpt lat="45.7982258" lon="11.7614264"><ele>181.33333333333334</ele><time>2026-04-06T08:24:00.64Z</time></trkpt><trkpt lat="45.7981095" lon="11.7612544"><ele>180.0</ele><time>2026-04-06T08:24:01.632Z</time></trkpt><trkpt lat="45.7980128" lon="11.761092"><ele>179.75</ele><time>2026-04-06T08:24:02.634Z</time></trkpt><trkpt lat="45.7979184" lon="11.7609392"><ele>179.5</ele><time>2026-04-06T08:24:03.644Z</time></trkpt><trkpt lat="45.7978558" lon="11.7608005"><ele>179.25</ele><time>2026-04-06T08:24:04.65Z</time></trkpt><trkpt lat="45.7977492" lon="11.7606419"><ele>179.0</ele><time>2026-04-06T08:24:05.655Z</time></trkpt><trkpt lat="45.7976491" lon="11.7605102"><ele>179.0</ele><time>2026-04-06T08:24:06.65Z</time></trkpt><trkpt lat="45.7975753" lon="11.7603641"><ele>179.0</ele><time>2026-04-06T08:24:07.652Z</time></trkpt><trkpt lat="45.7974838" lon="11.7602261"><ele>179.0</ele><time>2026-04-06T08:24:08.642Z</time></trkpt><trkpt lat="45.7973959" lon="11.7601055"><ele>179.0</ele><time>2026-04-06T08:24:09.639Z</time></trkpt><trkpt lat="45.7973158" lon="11.7599936"><ele>177.83333333333331</ele><time>2026-04-06T08:24:10.658Z</time></trkpt><trkpt lat="45.7972521" lon="11.7598922"><ele>176.66666666666666</ele><time>2026-04-06T08:24:11.633Z</time></trkpt><trkpt lat="45.7971936" lon="11.7598021"><ele>175.5</ele><time>2026-04-06T08:24:12.635Z</time></trkpt><trkpt lat="45.7971278" lon="11.759713"><ele>174.33333333333334</ele><time>2026-04-06T08:24:13.635Z</time></trkpt><trkpt lat="45.7970692" lon="11.7596306"><ele>173.16666666666669</ele><time>2026-04-06T08:24:14.652Z</time></trkpt><trkpt lat="45.7970137" lon="11.7595472"><ele>172.0</ele><time>2026-04-06T08:24:15.638Z</time></trkpt><trkpt lat="45.7969563" lon="11.7594573"><ele>171.8</ele><time>2026-04-06T08:24:16.644Z</time></trkpt><trkpt lat="45.796882" lon="11.7593648"><ele>171.6</ele><time>2026-04-06T08:24:18.642Z</time></trkpt><trkpt lat="45.7968028" lon="11.7592577"><ele>171.4</ele><time>2026-04-06T08:24:23.65Z</time></trkpt><trkpt lat="45.7967047" lon="11.7591497"><ele>171.20000000000002</ele><time>2026-04-06T08:24:25.646Z</time></trkpt><trkpt lat="45.7966567" lon="11.759074"><ele>171.0</ele><time>2026-04-06T08:24:26.667Z</time></trkpt><trkpt lat="45.7966112" lon="11.7590038"><ele>171.0</ele><time>2026-04-06T08:24:27.649Z</time></trkpt><trkpt lat="45.7965662" lon="11.7589368"><ele>171.0</ele><time>2026-04-06T08:24:28.642Z</time></trkpt><trkpt lat="45.7964994" lon="11.7588263"><ele>171.0</ele><time>2026-04-06T08:24:30.645Z</time></trkpt><trkpt lat="45.7964432" lon="11.7587312"><ele>171.0</ele><time>2026-04-06T08:24:32.646Z</time></trkpt><trkpt lat="45.7963809" lon="11.7586447"><ele>171.0</ele><time>2026-04-06T08:24:34.641Z</time></trkpt><trkpt lat="45.7963323" lon="11.758526"><ele>171.0</ele><time>2026-04-06T08:24:36.662Z</time></trkpt><trkpt lat="45.7963191" lon="11.7584356"><ele>170.60000000000002</ele><time>2026-04-06T08:24:37.642Z</time></trkpt><trkpt lat="45.7962824" lon="11.758276"><ele>170.2</ele><time>2026-04-06T08:24:39.634Z</time></trkpt><trkpt lat="45.7961718" lon="11.7581929"><ele>169.8</ele><time>2026-04-06T08:24:41.646Z</time></trkpt><trkpt lat="45.7960942" lon="11.7581708"><ele>169.39999999999998</ele><time>2026-04-06T08:24:42.634Z</time></trkpt><trkpt lat="45.7960166" lon="11.7581402"><ele>169.0</ele><time>2026-04-06T08:24:43.643Z</time></trkpt><trkpt lat="45.7959393" lon="11.7580962"><ele>168.79999999999998</ele><time>2026-04-06T08:24:44.64Z</time></trkpt><trkpt lat="45.7958543" lon="11.7580397"><ele>168.6</ele><time>2026-04-06T08:24:45.636Z</time></trkpt><trkpt lat="45.7957618" lon="11.7579893"><ele>168.4</ele><time>2026-04-06T08:24:46.647Z</time></trkpt><trkpt lat="45.7956703" lon="11.7579439"><ele>168.2</ele><time>2026-04-06T08:24:47.641Z</time></trkpt><trkpt lat="45.795583" lon="11.7578999"><ele>168.0</ele><time>2026-04-06T08:24:48.643Z</time></trkpt><trkpt lat="45.7954854" lon="11.7578457"><ele>168.0</ele><time>2026-04-06T08:24:49.641Z</time></trkpt><trkpt lat="45.7953796" lon="11.7577843"><ele>168.0</ele><time>2026-04-06T08:24:50.648Z</time></trkpt><trkpt lat="45.7952802" lon="11.7577279"><ele>168.0</ele><time>2026-04-06T08:24:51.647Z</time></trkpt><trkpt lat="45.7951874" lon="11.757677"><ele>168.0</ele><time>2026-04-06T08:24:52.654Z</time></trkpt><trkpt lat="45.7950907" lon="11.7576321"><ele>168.0</ele><time>2026-04-06T08:24:53.644Z</time></trkpt><trkpt lat="45.794993" lon="11.7575862"><ele>167.25</ele><time>2026-04-06T08:24:54.651Z</time></trkpt><trkpt lat="45.7948855" lon="11.7575441"><ele>166.5</ele><time>2026-04-06T08:24:55.641Z</time></trkpt><trkpt lat="45.794773" lon="11.7574967"><ele>165.75</ele><time>2026-04-06T08:24:56.66Z</time></trkpt><trkpt lat="45.7946587" lon="11.7574491"><ele>165.0</ele><time>2026-04-06T08:24:57.655Z</time></trkpt><trkpt lat="45.7945405" lon="11.7573918"><ele>165.0</ele><time>2026-04-06T08:24:58.649Z</time></trkpt><trkpt lat="45.7944305" lon="11.7573365"><ele>165.0</ele><time>2026-04-06T08:24:59.648Z</time></trkpt><trkpt lat="45.7943292" lon="11.7572893"><ele>165.0</ele><time>2026-04-06T08:25:00.647Z</time></trkpt><trkpt lat="45.7942406" lon="11.7572367"><ele>165.0</ele><time>2026-04-06T08:25:01.655Z</time></trkpt><trkpt lat="45.7941501" lon="11.7571825"><ele>165.0</ele><time>2026-04-06T08:25:02.649Z</time></trkpt><trkpt lat="45.7940429" lon="11.7571309"><ele>164.6</ele><time>2026-04-06T08:25:03.654Z</time></trkpt><trkpt lat="45.7939349" lon="11.7570835"><ele>164.2</ele><time>2026-04-06T08:25:04.653Z</time></trkpt><trkpt lat="45.7938389" lon="11.7570375"><ele>163.8</ele><time>2026-04-06T08:25:05.653Z</time></trkpt><trkpt lat="45.793743" lon="11.7569874"><ele>163.4</ele><time>2026-04-06T08:25:06.65Z</time></trkpt><trkpt lat="45.7936388" lon="11.7569376"><ele>163.0</ele><time>2026-04-06T08:25:07.646Z</time></trkpt><trkpt lat="45.7935307" lon="11.7568831"><ele>162.25</ele><time>2026-04-06T08:25:08.645Z</time></trkpt><trkpt lat="45.7934057" lon="11.7568209"><ele>161.5</ele><time>2026-04-06T08:25:09.64Z</time></trkpt><trkpt lat="45.7932754" lon="11.7567446"><ele>160.75</ele><time>2026-04-06T08:25:10.652Z</time></trkpt><trkpt lat="45.7931471" lon="11.7566738"><ele>160.0</ele><time>2026-04-06T08:25:11.643Z</time></trkpt><trkpt lat="45.7930519" lon="11.7566379"><ele>160.0</ele><time>2026-04-06T08:25:12.647Z</time></trkpt><trkpt lat="45.7929679" lon="11.7565963"><ele>160.0</ele><time>2026-04-06T08:25:13.657Z</time></trkpt><trkpt lat="45.7928957" lon="11.7565557"><ele>160.0</ele><time>2026-04-06T08:25:14.653Z</time></trkpt><trkpt lat="45.792827" lon="11.7565254"><ele>160.0</ele><time>2026-04-06T08:25:15.651Z</time></trkpt><trkpt lat="45.7927544" lon="11.7565002"><ele>160.0</ele><time>2026-04-06T08:25:16.651Z</time></trkpt><trkpt lat="45.7926749" lon="11.7564249"><ele>160.0</ele><time>2026-04-06T08:25:18.651Z</time></trkpt><trkpt lat="45.7926118" lon="11.7563001"><ele>159.8</ele><time>2026-04-06T08:25:22.652Z</time></trkpt><trkpt lat="45.7925648" lon="11.7562373"><ele>159.6</ele><time>2026-04-06T08:25:35.665Z</time></trkpt><trkpt lat="45.7925187" lon="11.7561645"><ele>159.4</ele><time>2026-04-06T08:29:25.672Z</time></trkpt><trkpt lat="45.7924538" lon="11.756131"><ele>159.2</ele><time>2026-04-06T08:29:29.661Z</time></trkpt><trkpt lat="45.7922929" lon="11.7560713"><ele>159.0</ele><time>2026-04-06T08:29:31.673Z</time></trkpt><trkpt lat="45.7921654" lon="11.7560112"><ele>158.66666666666666</ele><time>2026-04-06T08:29:32.664Z</time></trkpt><trkpt lat="45.7920085" lon="11.7559395"><ele>158.33333333333331</ele><time>2026-04-06T08:29:33.67Z</time></trkpt><trkpt lat="45.7917994" lon="11.7558715"><ele>158.0</ele><time>2026-04-06T08:29:34.658Z</time></trkpt><trkpt lat="45.7916128" lon="11.7558157"><ele>157.5</ele><time>2026-04-06T08:29:35.67Z</time></trkpt><trkpt lat="45.7914625" lon="11.755764"><ele>157.0</ele><time>2026-04-06T08:29:36.664Z</time></trkpt><trkpt lat="45.7913328" lon="11.7557189"><ele>156.5</ele><time>2026-04-06T08:29:37.66Z</time></trkpt><trkpt lat="45.7911791" lon="11.7556617"><ele>156.0</ele><time>2026-04-06T08:29:38.665Z</time></trkpt><trkpt lat="45.7910496" lon="11.7556005"><ele>156.0</ele><time>2026-04-06T08:29:39.663Z</time></trkpt><trkpt lat="45.7909458" lon="11.755528"><ele>156.0</ele><time>2026-04-06T08:29:40.669Z</time></trkpt><trkpt lat="45.7908379" lon="11.7554792"><ele>156.0</ele><time>2026-04-06T08:29:41.673Z</time></trkpt><trkpt lat="45.7907298" lon="11.7554276"><ele>156.0</ele><time>2026-04-06T08:29:42.668Z</time></trkpt><trkpt lat="45.7906183" lon="11.7553697"><ele>156.0</ele><time>2026-04-06T08:29:43.668Z</time></trkpt><trkpt lat="45.7905062" lon="11.7553059"><ele>156.0</ele><time>2026-04-06T08:29:44.663Z</time></trkpt><trkpt lat="45.7903944" lon="11.7552457"><ele>156.0</ele><time>2026-04-06T08:29:45.666Z</time></trkpt><trkpt lat="45.7902895" lon="11.7552033"><ele>156.0</ele><time>2026-04-06T08:29:46.663Z</time></trkpt><trkpt lat="45.7901955" lon="11.7551767"><ele>156.0</ele><time>2026-04-06T08:29:47.669Z</time></trkpt><trkpt lat="45.7900999" lon="11.7551543"><ele>155.6</ele><time>2026-04-06T08:29:48.678Z</time></trkpt><trkpt lat="45.7900055" lon="11.7551281"><ele>155.2</ele><time>2026-04-06T08:29:49.674Z</time></trkpt><trkpt lat="45.7899083" lon="11.7551018"><ele>154.8</ele><time>2026-04-06T08:29:50.664Z</time></trkpt><trkpt lat="45.7898122" lon="11.7550697"><ele>154.4</ele><time>2026-04-06T08:29:51.675Z</time></trkpt><trkpt lat="45.7897128" lon="11.7550547"><ele>154.0</ele><time>2026-04-06T08:29:52.679Z</time></trkpt><trkpt lat="45.7896107" lon="11.7550594"><ele>154.0</ele><time>2026-04-06T08:29:53.66Z</time></trkpt><trkpt lat="45.7895057" lon="11.7550602"><ele>154.0</ele><time>2026-04-06T08:29:54.679Z</time></trkpt><trkpt lat="45.7893989" lon="11.7550393"><ele>154.0</ele><time>2026-04-06T08:29:55.674Z</time></trkpt><trkpt lat="45.7892941" lon="11.7550163"><ele>154.0</ele><time>2026-04-06T08:29:56.671Z</time></trkpt><trkpt lat="45.7891897" lon="11.7549994"><ele>154.0</ele><time>2026-04-06T08:29:57.669Z</time></trkpt><trkpt lat="45.7890843" lon="11.7549886"><ele>154.0</ele><time>2026-04-06T08:29:58.661Z</time></trkpt><trkpt lat="45.7889835" lon="11.7549724"><ele>154.0</ele><time>2026-04-06T08:29:59.681Z</time></trkpt><trkpt lat="45.7888819" lon="11.7549356"><ele>154.0</ele><time>2026-04-06T08:30:00.676Z</time></trkpt><trkpt lat="45.7887696" lon="11.754897"><ele>154.0</ele><time>2026-04-06T08:30:01.68Z</time></trkpt><trkpt lat="45.7886574" lon="11.7548666"><ele>154.0</ele><time>2026-04-06T08:30:02.673Z</time></trkpt><trkpt lat="45.7885591" lon="11.754847"><ele>153.25</ele><time>2026-04-06T08:30:03.67Z</time></trkpt><trkpt lat="45.7884572" lon="11.754817"><ele>152.5</ele><time>2026-04-06T08:30:04.668Z</time></trkpt><trkpt lat="45.7883446" lon="11.7547792"><ele>151.75</ele><time>2026-04-06T08:30:05.675Z</time></trkpt><trkpt lat="45.7882227" lon="11.7547472"><ele>151.0</ele><time>2026-04-06T08:30:06.677Z</time></trkpt><trkpt lat="45.7880953" lon="11.7547198"><ele>151.0</ele><time>2026-04-06T08:30:07.661Z</time></trkpt><trkpt lat="45.7879802" lon="11.7546859"><ele>151.0</ele><time>2026-04-06T08:30:08.674Z</time></trkpt><trkpt lat="45.7878806" lon="11.75465"><ele>151.0</ele><time>2026-04-06T08:30:09.673Z</time></trkpt><trkpt lat="45.787777" lon="11.7546151"><ele>151.0</ele><time>2026-04-06T08:30:10.677Z</time></trkpt><trkpt lat="45.7876708" lon="11.7545802"><ele>151.0</ele><time>2026-04-06T08:30:11.664Z</time></trkpt><trkpt lat="45.7875525" lon="11.7545407"><ele>151.25</ele><time>2026-04-06T08:30:12.664Z</time></trkpt><trkpt lat="45.7874388" lon="11.7545077"><ele>151.5</ele><time>2026-04-06T08:30:13.675Z</time></trkpt><trkpt lat="45.7873326" lon="11.7544834"><ele>151.75</ele><time>2026-04-06T08:30:14.661Z</time></trkpt><trkpt lat="45.7872182" lon="11.7544476"><ele>152.0</ele><time>2026-04-06T08:30:15.665Z</time></trkpt><trkpt lat="45.7870835" lon="11.7543869"><ele>152.33333333333331</ele><time>2026-04-06T08:30:16.666Z</time></trkpt><trkpt lat="45.786923" lon="11.754278"><ele>152.66666666666666</ele><time>2026-04-06T08:30:17.677Z</time></trkpt><trkpt lat="45.7867422" lon="11.7540984"><ele>153.0</ele><time>2026-04-06T08:30:18.668Z</time></trkpt><trkpt lat="45.7865861" lon="11.7539284"><ele>151.66666666666666</ele><time>2026-04-06T08:30:19.662Z</time></trkpt><trkpt lat="45.7864404" lon="11.7537864"><ele>150.33333333333331</ele><time>2026-04-06T08:30:20.657Z</time></trkpt><trkpt lat="45.786304" lon="11.7536401"><ele>149.0</ele><time>2026-04-06T08:30:21.666Z</time></trkpt><trkpt lat="45.7861792" lon="11.7534967"><ele>148.8</ele><time>2026-04-06T08:30:22.661Z</time></trkpt><trkpt lat="45.7860774" lon="11.7534061"><ele>148.60000000000002</ele><time>2026-04-06T08:30:23.667Z</time></trkpt><trkpt lat="45.7860084" lon="11.7533152"><ele>148.4</ele><time>2026-04-06T08:30:24.67Z</time></trkpt><trkpt lat="45.7859366" lon="11.7532346"><ele>148.20000000000002</ele><time>2026-04-06T08:30:25.673Z</time></trkpt><trkpt lat="45.7858704" lon="11.753151"><ele>148.0</ele><time>2026-04-06T08:30:26.673Z</time></trkpt><trkpt lat="45.7857965" lon="11.7530512"><ele>146.5</ele><time>2026-04-06T08:30:27.673Z</time></trkpt><trkpt lat="45.7857005" lon="11.7529313"><ele>145.0</ele><time>2026-04-06T08:30:28.674Z</time></trkpt><trkpt lat="45.7856023" lon="11.7528319"><ele>143.5</ele><time>2026-04-06T08:30:29.677Z</time></trkpt><trkpt lat="45.7855058" lon="11.7527424"><ele>142.0</ele><time>2026-04-06T08:30:30.662Z</time></trkpt><trkpt lat="45.7854211" lon="11.7526557"><ele>142.0</ele><time>2026-04-06T08:30:31.669Z</time></trkpt><trkpt lat="45.7853281" lon="11.7525543"><ele>142.0</ele><time>2026-04-06T08:30:32.661Z</time></trkpt><trkpt lat="45.7852259" lon="11.7524429"><ele>142.0</ele><time>2026-04-06T08:30:33.667Z</time></trkpt><trkpt lat="45.7851043" lon="11.7523132"><ele>142.0</ele><time>2026-04-06T08:30:34.661Z</time></trkpt><trkpt lat="45.7849602" lon="11.7521478"><ele>141.66666666666669</ele><time>2026-04-06T08:30:35.667Z</time></trkpt><trkpt lat="45.7848189" lon="11.7520141"><ele>141.33333333333334</ele><time>2026-04-06T08:30:36.666Z</time></trkpt><trkpt lat="45.7846906" lon="11.7518816"><ele>141.0</ele><time>2026-04-06T08:30:37.655Z</time></trkpt><trkpt lat="45.7845555" lon="11.7517503"><ele>140.66666666666666</ele><time>2026-04-06T08:30:38.67Z</time></trkpt><trkpt lat="45.7844213" lon="11.7516266"><ele>140.33333333333331</ele><time>2026-04-06T08:30:39.658Z</time></trkpt><trkpt lat="45.7842931" lon="11.7514861"><ele>140.0</ele><time>2026-04-06T08:30:40.664Z</time></trkpt><trkpt lat="45.7841778" lon="11.7513441"><ele>140.66666666666666</ele><time>2026-04-06T08:30:41.664Z</time></trkpt><trkpt lat="45.7840488" lon="11.7512054"><ele>141.33333333333334</ele><time>2026-04-06T08:30:42.671Z</time></trkpt><trkpt lat="45.7839326" lon="11.7510718"><ele>142.0</ele><time>2026-04-06T08:30:43.66Z</time></trkpt><trkpt lat="45.7838182" lon="11.7509174"><ele>142.25</ele><time>2026-04-06T08:30:44.668Z</time></trkpt><trkpt lat="45.7837338" lon="11.7507601"><ele>142.5</ele><time>2026-04-06T08:30:45.672Z</time></trkpt><trkpt lat="45.7836483" lon="11.7506191"><ele>142.75</ele><time>2026-04-06T08:30:46.661Z</time></trkpt><trkpt lat="45.7835641" lon="11.7504781"><ele>143.0</ele><time>2026-04-06T08:30:47.665Z</time></trkpt><trkpt lat="45.7834835" lon="11.7503359"><ele>143.0</ele><time>2026-04-06T08:30:48.673Z</time></trkpt><trkpt lat="45.7834041" lon="11.7501794"><ele>143.0</ele><time>2026-04-06T08:30:49.666Z</time></trkpt><trkpt lat="45.7833171" lon="11.7500333"><ele>143.0</ele><time>2026-04-06T08:30:50.667Z</time></trkpt><trkpt lat="45.7832274" lon="11.74989"><ele>143.0</ele><time>2026-04-06T08:30:51.664Z</time></trkpt><trkpt lat="45.7831262" lon="11.7497347"><ele>143.0</ele><time>2026-04-06T08:30:52.666Z</time></trkpt><trkpt lat="45.7830306" lon="11.7495804"><ele>143.0</ele><time>2026-04-06T08:30:53.665Z</time></trkpt><trkpt lat="45.7829373" lon="11.7494175"><ele>143.0</ele><time>2026-04-06T08:30:54.669Z</time></trkpt><trkpt lat="45.7828422" lon="11.7492471"><ele>143.0</ele><time>2026-04-06T08:30:55.664Z</time></trkpt><trkpt lat="45.7827555" lon="11.7490797"><ele>142.5</ele><time>2026-04-06T08:30:56.666Z</time></trkpt><trkpt lat="45.7826663" lon="11.7489158"><ele>142.0</ele><time>2026-04-06T08:30:57.674Z</time></trkpt><trkpt lat="45.7825617" lon="11.74876"><ele>141.5</ele><time>2026-04-06T08:30:58.665Z</time></trkpt><trkpt lat="45.7824638" lon="11.7486216"><ele>141.0</ele><time>2026-04-06T08:30:59.668Z</time></trkpt><trkpt lat="45.7823537" lon="11.7484692"><ele>141.0</ele><time>2026-04-06T08:31:00.666Z</time></trkpt><trkpt lat="45.7822426" lon="11.7483119"><ele>141.0</ele><time>2026-04-06T08:31:01.67Z</time></trkpt><trkpt lat="45.7821468" lon="11.7481612"><ele>141.0</ele><time>2026-04-06T08:31:02.665Z</time></trkpt><trkpt lat="45.7820443" lon="11.7479918"><ele>141.0</ele><time>2026-04-06T08:31:03.668Z</time></trkpt><trkpt lat="45.7819297" lon="11.7478232"><ele>141.0</ele><time>2026-04-06T08:31:04.661Z</time></trkpt><trkpt lat="45.781834" lon="11.7476705"><ele>141.0</ele><time>2026-04-06T08:31:05.663Z</time></trkpt><trkpt lat="45.7817592" lon="11.7475232"><ele>141.0</ele><time>2026-04-06T08:31:06.661Z</time></trkpt><trkpt lat="45.7817018" lon="11.7473862"><ele>140.2</ele><time>2026-04-06T08:31:07.664Z</time></trkpt><trkpt lat="45.7816434" lon="11.7472555"><ele>139.39999999999998</ele><time>2026-04-06T08:31:08.664Z</time></trkpt><trkpt lat="45.7815859" lon="11.7471361"><ele>138.6</ele><time>2026-04-06T08:31:09.662Z</time></trkpt><trkpt lat="45.7815141" lon="11.7470236"><ele>137.79999999999998</ele><time>2026-04-06T08:31:10.665Z</time></trkpt><trkpt lat="45.7814445" lon="11.7468802"><ele>137.0</ele><time>2026-04-06T08:31:11.66Z</time></trkpt><trkpt lat="45.7813682" lon="11.7467441"><ele>136.83333333333331</ele><time>2026-04-06T08:31:12.661Z</time></trkpt><trkpt lat="45.7813247" lon="11.7466268"><ele>136.66666666666666</ele><time>2026-04-06T08:31:13.664Z</time></trkpt><trkpt lat="45.7812726" lon="11.7465185"><ele>136.5</ele><time>2026-04-06T08:31:14.667Z</time></trkpt><trkpt lat="45.7812289" lon="11.7464194"><ele>136.33333333333334</ele><time>2026-04-06T08:31:15.659Z</time></trkpt><trkpt lat="45.7811818" lon="11.7463116"><ele>136.16666666666669</ele><time>2026-04-06T08:31:17.682Z</time></trkpt><trkpt lat="45.7810984" lon="11.7463111"><ele>136.0</ele><time>2026-04-06T08:31:19.678Z</time></trkpt><trkpt lat="45.7810092" lon="11.7463904"><ele>136.0</ele><time>2026-04-06T08:31:20.668Z</time></trkpt><trkpt lat="45.7808826" lon="11.7465216"><ele>136.0</ele><time>2026-04-06T08:31:21.662Z</time></trkpt><trkpt lat="45.7807413" lon="11.7466563"><ele>136.0</ele><time>2026-04-06T08:31:22.664Z</time></trkpt><trkpt lat="45.7805495" lon="11.7468602"><ele>137.5</ele><time>2026-04-06T08:31:23.668Z</time></trkpt><trkpt lat="45.7803317" lon="11.7470555"><ele>139.0</ele><time>2026-04-06T08:31:24.666Z</time></trkpt><trkpt lat="45.7801347" lon="11.7472459"><ele>139.33333333333334</ele><time>2026-04-06T08:31:25.66Z</time></trkpt><trkpt lat="45.7799713" lon="11.7473846"><ele>139.66666666666666</ele><time>2026-04-06T08:31:26.672Z</time></trkpt><trkpt lat="45.7798285" lon="11.747496"><ele>140.0</ele><time>2026-04-06T08:31:27.663Z</time></trkpt><trkpt lat="45.7797088" lon="11.7475996"><ele>140.0</ele><time>2026-04-06T08:31:28.668Z</time></trkpt><trkpt lat="45.7795847" lon="11.7477086"><ele>140.0</ele><time>2026-04-06T08:31:29.663Z</time></trkpt><trkpt lat="45.7794596" lon="11.7477812"><ele>140.0</ele><time>2026-04-06T08:31:30.667Z</time></trkpt><trkpt lat="45.7793323" lon="11.7478541"><ele>140.0</ele><time>2026-04-06T08:31:31.667Z</time></trkpt><trkpt lat="45.7792357" lon="11.7479316"><ele>139.0</ele><time>2026-04-06T08:31:32.665Z</time></trkpt><trkpt lat="45.7791315" lon="11.7479827"><ele>138.0</ele><time>2026-04-06T08:31:33.664Z</time></trkpt><trkpt lat="45.7790348" lon="11.7480613"><ele>137.0</ele><time>2026-04-06T08:31:34.664Z</time></trkpt><trkpt lat="45.7789334" lon="11.748132"><ele>136.0</ele><time>2026-04-06T08:31:35.661Z</time></trkpt><trkpt lat="45.7788505" lon="11.7481713"><ele>135.0</ele><time>2026-04-06T08:31:36.669Z</time></trkpt><trkpt lat="45.7787704" lon="11.748205"><ele>135.0</ele><time>2026-04-06T08:31:37.656Z</time></trkpt><trkpt lat="45.7786818" lon="11.7482137"><ele>135.0</ele><time>2026-04-06T08:31:38.67Z</time></trkpt><trkpt lat="45.7785734" lon="11.7482361"><ele>135.0</ele><time>2026-04-06T08:31:39.658Z</time></trkpt><trkpt lat="45.7784489" lon="11.7482701"><ele>135.0</ele><time>2026-04-06T08:31:40.661Z</time></trkpt><trkpt lat="45.778312" lon="11.7483043"><ele>134.33333333333334</ele><time>2026-04-06T08:31:41.66Z</time></trkpt><trkpt lat="45.7781534" lon="11.7483365"><ele>133.66666666666669</ele><time>2026-04-06T08:31:42.651Z</time></trkpt><trkpt lat="45.7779385" lon="11.7483674"><ele>133.0</ele><time>2026-04-06T08:31:43.663Z</time></trkpt><trkpt lat="45.7777231" lon="11.748382"><ele>133.33333333333334</ele><time>2026-04-06T08:31:44.662Z</time></trkpt><trkpt lat="45.777551" lon="11.748412"><ele>133.66666666666666</ele><time>2026-04-06T08:31:45.655Z</time></trkpt><trkpt lat="45.7773629" lon="11.7484741"><ele>134.0</ele><time>2026-04-06T08:31:46.659Z</time></trkpt><trkpt lat="45.7771767" lon="11.7485954"><ele>134.33333333333331</ele><time>2026-04-06T08:31:47.662Z</time></trkpt><trkpt lat="45.7769988" lon="11.7487363"><ele>134.66666666666666</ele><time>2026-04-06T08:31:48.664Z</time></trkpt><trkpt lat="45.7768468" lon="11.748876"><ele>135.0</ele><time>2026-04-06T08:31:49.664Z</time></trkpt><trkpt lat="45.7767208" lon="11.7489546"><ele>135.33333333333334</ele><time>2026-04-06T08:31:50.662Z</time></trkpt><trkpt lat="45.7765856" lon="11.7490399"><ele>135.66666666666669</ele><time>2026-04-06T08:31:51.668Z</time></trkpt><trkpt lat="45.7764519" lon="11.7491418"><ele>136.0</ele><time>2026-04-06T08:31:52.665Z</time></trkpt><trkpt lat="45.7762966" lon="11.7492126"><ele>136.0</ele><time>2026-04-06T08:31:53.669Z</time></trkpt><trkpt lat="45.7761523" lon="11.7492811"><ele>136.0</ele><time>2026-04-06T08:31:54.65Z</time></trkpt><trkpt lat="45.7760399" lon="11.7493627"><ele>136.0</ele><time>2026-04-06T08:31:55.662Z</time></trkpt><trkpt lat="45.7759235" lon="11.7493779"><ele>136.0</ele><time>2026-04-06T08:31:56.665Z</time></trkpt><trkpt lat="45.7758011" lon="11.7493382"><ele>135.66666666666669</ele><time>2026-04-06T08:31:57.657Z</time></trkpt><trkpt lat="45.7756715" lon="11.7492658"><ele>135.33333333333334</ele><time>2026-04-06T08:31:58.66Z</time></trkpt><trkpt lat="45.7755208" lon="11.7491909"><ele>135.0</ele><time>2026-04-06T08:31:59.642Z</time></trkpt><trkpt lat="45.7753469" lon="11.749105"><ele>134.75</ele><time>2026-04-06T08:32:00.659Z</time></trkpt><trkpt lat="45.7751807" lon="11.7490265"><ele>134.5</ele><time>2026-04-06T08:32:01.654Z</time></trkpt><trkpt lat="45.7750514" lon="11.7489568"><ele>134.25</ele><time>2026-04-06T08:32:02.658Z</time></trkpt><trkpt lat="45.774924" lon="11.7488942"><ele>134.0</ele><time>2026-04-06T08:32:03.652Z</time></trkpt><trkpt lat="45.7747928" lon="11.7488302"><ele>134.0</ele><time>2026-04-06T08:32:04.664Z</time></trkpt><trkpt lat="45.7746754" lon="11.7487718"><ele>134.0</ele><time>2026-04-06T08:32:05.667Z</time></trkpt><trkpt lat="45.7745673" lon="11.7487104"><ele>134.0</ele><time>2026-04-06T08:32:06.654Z</time></trkpt><trkpt lat="45.7744644" lon="11.7486831"><ele>134.0</ele><time>2026-04-06T08:32:07.671Z</time></trkpt><trkpt lat="45.7743882" lon="11.7486155"><ele>134.0</ele><time>2026-04-06T08:32:08.659Z</time></trkpt><trkpt lat="45.7743266" lon="11.7484827"><ele>133.8</ele><time>2026-04-06T08:32:10.66Z</time></trkpt><trkpt lat="45.7742724" lon="11.7484348"><ele>133.60000000000002</ele><time>2026-04-06T08:32:11.672Z</time></trkpt><trkpt lat="45.7742003" lon="11.7484177"><ele>133.4</ele><time>2026-04-06T08:32:12.661Z</time></trkpt><trkpt lat="45.7740982" lon="11.7484423"><ele>133.20000000000002</ele><time>2026-04-06T08:32:13.66Z</time></trkpt><trkpt lat="45.7739767" lon="11.748504"><ele>133.0</ele><time>2026-04-06T08:32:14.657Z</time></trkpt><trkpt lat="45.7738508" lon="11.7485624"><ele>133.0</ele><time>2026-04-06T08:32:15.655Z</time></trkpt><trkpt lat="45.7736919" lon="11.7486046"><ele>133.0</ele><time>2026-04-06T08:32:16.661Z</time></trkpt><trkpt lat="45.7735038" lon="11.7486481"><ele>133.0</ele><time>2026-04-06T08:32:17.663Z</time></trkpt><trkpt lat="45.7733389" lon="11.7486912"><ele>133.0</ele><time>2026-04-06T08:32:18.655Z</time></trkpt><trkpt lat="45.7731903" lon="11.7487741"><ele>133.0</ele><time>2026-04-06T08:32:19.655Z</time></trkpt><trkpt lat="45.773032" lon="11.7488232"><ele>133.0</ele><time>2026-04-06T08:32:20.659Z</time></trkpt><trkpt lat="45.7728548" lon="11.7488718"><ele>132.33333333333334</ele><time>2026-04-06T08:32:21.655Z</time></trkpt><trkpt lat="45.7726755" lon="11.748938"><ele>131.66666666666666</ele><time>2026-04-06T08:32:22.656Z</time></trkpt><trkpt lat="45.7725257" lon="11.7489514"><ele>131.0</ele><time>2026-04-06T08:32:23.659Z</time></trkpt><trkpt lat="45.7723979" lon="11.7489568"><ele>131.0</ele><time>2026-04-06T08:32:24.664Z</time></trkpt><trkpt lat="45.7722849" lon="11.7489595"><ele>131.0</ele><time>2026-04-06T08:32:25.659Z</time></trkpt><trkpt lat="45.7721522" lon="11.7489906"><ele>131.0</ele><time>2026-04-06T08:32:26.647Z</time></trkpt><trkpt lat="45.7719907" lon="11.7490345"><ele>131.0</ele><time>2026-04-06T08:32:27.669Z</time></trkpt><trkpt lat="45.7717849" lon="11.7490342"><ele>131.0</ele><time>2026-04-06T08:32:28.67Z</time></trkpt><trkpt lat="45.7715966" lon="11.7491024"><ele>131.0</ele><time>2026-04-06T08:32:29.659Z</time></trkpt><trkpt lat="45.7714104" lon="11.749154"><ele>131.0</ele><time>2026-04-06T08:32:30.658Z</time></trkpt><trkpt lat="45.7712099" lon="11.7492275"><ele>131.0</ele><time>2026-04-06T08:32:31.67Z</time></trkpt><trkpt lat="45.7710478" lon="11.7492373"><ele>131.0</ele><time>2026-04-06T08:32:32.658Z</time></trkpt><trkpt lat="45.770908" lon="11.7492811"><ele>131.0</ele><time>2026-04-06T08:32:33.66Z</time></trkpt><trkpt lat="45.7707708" lon="11.7493349"><ele>131.0</ele><time>2026-04-06T08:32:34.652Z</time></trkpt><trkpt lat="45.7706511" lon="11.749396"><ele>131.0</ele><time>2026-04-06T08:32:35.657Z</time></trkpt><trkpt lat="45.7705484" lon="11.7494438"><ele>131.0</ele><time>2026-04-06T08:32:36.663Z</time></trkpt><trkpt lat="45.7704435" lon="11.749474"><ele>131.0</ele><time>2026-04-06T08:32:37.651Z</time></trkpt><trkpt lat="45.7703451" lon="11.7495182"><ele>131.0</ele><time>2026-04-06T08:32:38.662Z</time></trkpt><trkpt lat="45.7702599" lon="11.7495814"><ele>131.0</ele><time>2026-04-06T08:32:39.654Z</time></trkpt><trkpt lat="45.7701827" lon="11.7496423"><ele>131.0</ele><time>2026-04-06T08:32:40.66Z</time></trkpt><trkpt lat="45.7700846" lon="11.7496273"><ele>131.0</ele><time>2026-04-06T08:32:42.666Z</time></trkpt><trkpt lat="45.7700062" lon="11.7496401"><ele>131.0</ele><time>2026-04-06T08:32:44.663Z</time></trkpt><trkpt lat="45.7699347" lon="11.7496361"><ele>131.0</ele><time>2026-04-06T08:32:46.667Z</time></trkpt><trkpt lat="45.7698614" lon="11.7496465"><ele>131.0</ele><time>2026-04-06T08:33:45.675Z</time></trkpt><trkpt lat="45.7697729" lon="11.7496947"><ele>131.0</ele><time>2026-04-06T08:33:48.673Z</time></trkpt><trkpt lat="45.7696882" lon="11.749724"><ele>131.0</ele><time>2026-04-06T08:33:49.66Z</time></trkpt><trkpt lat="45.7695586" lon="11.7497527"><ele>131.0</ele><time>2026-04-06T08:33:50.66Z</time></trkpt><trkpt lat="45.7694098" lon="11.7497912"><ele>131.0</ele><time>2026-04-06T08:33:51.665Z</time></trkpt><trkpt lat="45.7691912" lon="11.7498852"><ele>130.0</ele><time>2026-04-06T08:33:52.672Z</time></trkpt><trkpt lat="45.7689969" lon="11.7499864"><ele>129.0</ele><time>2026-04-06T08:33:53.659Z</time></trkpt><trkpt lat="45.7686675" lon="11.7501694"><ele>129.0</ele><time>2026-04-06T08:33:55.659Z</time></trkpt><trkpt lat="45.7685053" lon="11.750238"><ele>129.0</ele><time>2026-04-06T08:33:56.666Z</time></trkpt><trkpt lat="45.7683529" lon="11.7502711"><ele>129.0</ele><time>2026-04-06T08:33:57.662Z</time></trkpt><trkpt lat="45.7682" lon="11.7503388"><ele>129.0</ele><time>2026-04-06T08:33:58.656Z</time></trkpt><trkpt lat="45.7680514" lon="11.750378"><ele>129.0</ele><time>2026-04-06T08:33:59.669Z</time></trkpt><trkpt lat="45.7679294" lon="11.7504516"><ele>129.0</ele><time>2026-04-06T08:34:00.667Z</time></trkpt><trkpt lat="45.7677962" lon="11.7505214"><ele>129.0</ele><time>2026-04-06T08:34:01.657Z</time></trkpt><trkpt lat="45.7676814" lon="11.7505775"><ele>128.5</ele><time>2026-04-06T08:34:02.67Z</time></trkpt><trkpt lat="45.7675601" lon="11.7506488"><ele>128.0</ele><time>2026-04-06T08:34:03.667Z</time></trkpt><trkpt lat="45.7674329" lon="11.7507088"><ele>127.5</ele><time>2026-04-06T08:34:04.661Z</time></trkpt><trkpt lat="45.7672906" lon="11.7507866"><ele>127.0</ele><time>2026-04-06T08:34:05.665Z</time></trkpt><trkpt lat="45.767159" lon="11.750863"><ele>127.0</ele><time>2026-04-06T08:34:06.666Z</time></trkpt><trkpt lat="45.7670184" lon="11.7509167"><ele>127.0</ele><time>2026-04-06T08:34:07.664Z</time></trkpt><trkpt lat="45.7668974" lon="11.7509339"><ele>127.0</ele><time>2026-04-06T08:34:08.658Z</time></trkpt><trkpt lat="45.7667655" lon="11.7509635"><ele>127.0</ele><time>2026-04-06T08:34:09.653Z</time></trkpt><trkpt lat="45.7666317" lon="11.750984"><ele>127.5</ele><time>2026-04-06T08:34:10.67Z</time></trkpt><trkpt lat="45.7665175" lon="11.7510392"><ele>128.0</ele><time>2026-04-06T08:34:11.664Z</time></trkpt><trkpt lat="45.766419" lon="11.7510866"><ele>128.5</ele><time>2026-04-06T08:34:12.663Z</time></trkpt><trkpt lat="45.7663092" lon="11.7511406"><ele>129.0</ele><time>2026-04-06T08:34:13.657Z</time></trkpt><trkpt lat="45.7661971" lon="11.7511764"><ele>129.0</ele><time>2026-04-06T08:34:14.67Z</time></trkpt><trkpt lat="45.7660815" lon="11.7512125"><ele>129.0</ele><time>2026-04-06T08:34:15.671Z</time></trkpt><trkpt lat="45.7659502" lon="11.7512474"><ele>129.0</ele><time>2026-04-06T08:34:16.658Z</time></trkpt><trkpt lat="45.7658048" lon="11.7512977"><ele>129.0</ele><time>2026-04-06T08:34:17.67Z</time></trkpt><trkpt lat="45.765638" lon="11.7513552"><ele>129.0</ele><time>2026-04-06T08:34:18.663Z</time></trkpt><trkpt lat="45.7654782" lon="11.7514232"><ele>129.0</ele><time>2026-04-06T08:34:19.668Z</time></trkpt><trkpt lat="45.7653501" lon="11.7515006"><ele>129.0</ele><time>2026-04-06T08:34:20.667Z</time></trkpt><trkpt lat="45.7652163" lon="11.7515932"><ele>128.5</ele><time>2026-04-06T08:34:21.666Z</time></trkpt><trkpt lat="45.7651091" lon="11.7516437"><ele>128.0</ele><time>2026-04-06T08:34:22.674Z</time></trkpt><trkpt lat="45.7649761" lon="11.7516966"><ele>127.5</ele><time>2026-04-06T08:34:23.676Z</time></trkpt><trkpt lat="45.7648372" lon="11.7517597"><ele>127.0</ele><time>2026-04-06T08:34:24.67Z</time></trkpt><trkpt lat="45.7646814" lon="11.7518262"><ele>126.66666666666667</ele><time>2026-04-06T08:34:25.662Z</time></trkpt><trkpt lat="45.7645236" lon="11.7518864"><ele>126.33333333333334</ele><time>2026-04-06T08:34:26.666Z</time></trkpt><trkpt lat="45.7643873" lon="11.7519632"><ele>126.0</ele><time>2026-04-06T08:34:27.672Z</time></trkpt><trkpt lat="45.7642391" lon="11.7519949"><ele>126.0</ele><time>2026-04-06T08:34:28.653Z</time></trkpt><trkpt lat="45.7640866" lon="11.7520267"><ele>126.0</ele><time>2026-04-06T08:34:29.673Z</time></trkpt><trkpt lat="45.7639331" lon="11.7520585"><ele>126.0</ele><time>2026-04-06T08:34:30.669Z</time></trkpt><trkpt lat="45.7637906" lon="11.7521226"><ele>126.0</ele><time>2026-04-06T08:34:31.66Z</time></trkpt><trkpt lat="45.7636561" lon="11.7521895"><ele>126.0</ele><time>2026-04-06T08:34:32.669Z</time></trkpt><trkpt lat="45.7635042" lon="11.7522798"><ele>126.0</ele><time>2026-04-06T08:34:33.668Z</time></trkpt><trkpt lat="45.7633748" lon="11.7523265"><ele>126.0</ele><time>2026-04-06T08:34:34.677Z</time></trkpt><trkpt lat="45.7632447" lon="11.752377"><ele>125.25</ele><time>2026-04-06T08:34:35.671Z</time></trkpt><trkpt lat="45.7631292" lon="11.7524246"><ele>124.5</ele><time>2026-04-06T08:34:36.675Z</time></trkpt><trkpt lat="45.7630151" lon="11.7524941"><ele>123.75</ele><time>2026-04-06T08:34:37.68Z</time></trkpt><trkpt lat="45.7628857" lon="11.7525319"><ele>123.0</ele><time>2026-04-06T08:34:38.675Z</time></trkpt><trkpt lat="45.7627725" lon="11.7525883"><ele>123.2</ele><time>2026-04-06T08:34:39.677Z</time></trkpt><trkpt lat="45.7626621" lon="11.7526368"><ele>123.4</ele><time>2026-04-06T08:34:40.677Z</time></trkpt><trkpt lat="45.7625598" lon="11.7526796"><ele>123.60000000000001</ele><time>2026-04-06T08:34:41.674Z</time></trkpt><trkpt lat="45.7624632" lon="11.7527263"><ele>123.80000000000001</ele><time>2026-04-06T08:34:42.677Z</time></trkpt><trkpt lat="45.7623758" lon="11.752769"><ele>124.0</ele><time>2026-04-06T08:34:43.677Z</time></trkpt><trkpt lat="45.7622753" lon="11.7528049"><ele>124.0</ele><time>2026-04-06T08:34:44.671Z</time></trkpt><trkpt lat="45.7621594" lon="11.7528526"><ele>124.0</ele><time>2026-04-06T08:34:45.668Z</time></trkpt><trkpt lat="45.7620277" lon="11.7529097"><ele>124.0</ele><time>2026-04-06T08:34:46.666Z</time></trkpt><trkpt lat="45.7618888" lon="11.7529646"><ele>124.0</ele><time>2026-04-06T08:34:47.67Z</time></trkpt><trkpt lat="45.7617343" lon="11.7529829"><ele>124.0</ele><time>2026-04-06T08:34:48.665Z</time></trkpt><trkpt lat="45.7615968" lon="11.7529733"><ele>124.0</ele><time>2026-04-06T08:34:49.676Z</time></trkpt><trkpt lat="45.7614967" lon="11.7529807"><ele>124.0</ele><time>2026-04-06T08:34:50.675Z</time></trkpt><trkpt lat="45.7614204" lon="11.7530073"><ele>124.0</ele><time>2026-04-06T08:34:51.674Z</time></trkpt><trkpt lat="45.761343" lon="11.7530152"><ele>124.0</ele><time>2026-04-06T08:34:52.657Z</time></trkpt><trkpt lat="45.7612792" lon="11.7530487"><ele>124.0</ele><time>2026-04-06T08:34:53.674Z</time></trkpt><trkpt lat="45.7612149" lon="11.7529227"><ele>124.0</ele><time>2026-04-06T08:34:55.668Z</time></trkpt><trkpt lat="45.7611976" lon="11.752809"><ele>124.0</ele><time>2026-04-06T08:34:56.67Z</time></trkpt><trkpt lat="45.761191" lon="11.7526517"><ele>124.0</ele><time>2026-04-06T08:34:57.665Z</time></trkpt><trkpt lat="45.7611848" lon="11.7524805"><ele>124.0</ele><time>2026-04-06T08:34:58.666Z</time></trkpt><trkpt lat="45.7611634" lon="11.7523024"><ele>123.75</ele><time>2026-04-06T08:34:59.666Z</time></trkpt><trkpt lat="45.7611452" lon="11.7521127"><ele>123.5</ele><time>2026-04-06T08:35:00.67Z</time></trkpt><trkpt lat="45.7611312" lon="11.7519406"><ele>123.25</ele><time>2026-04-06T08:35:01.66Z</time></trkpt><trkpt lat="45.7611222" lon="11.7517651"><ele>123.0</ele><time>2026-04-06T08:35:02.669Z</time></trkpt><trkpt lat="45.7611126" lon="11.751588"><ele>123.0</ele><time>2026-04-06T08:35:03.671Z</time></trkpt><trkpt lat="45.7610971" lon="11.7513852"><ele>123.0</ele><time>2026-04-06T08:35:04.671Z</time></trkpt><trkpt lat="45.76108" lon="11.7511384"><ele>123.0</ele><time>2026-04-06T08:35:05.664Z</time></trkpt><trkpt lat="45.7610693" lon="11.7509129"><ele>123.0</ele><time>2026-04-06T08:35:06.694Z</time></trkpt><trkpt lat="45.7610724" lon="11.7507517"><ele>123.00000000000001</ele><time>2026-04-06T08:35:07.656Z</time></trkpt><trkpt lat="45.7610499" lon="11.750649"><ele>123.00000000000001</ele><time>2026-04-06T08:35:08.665Z</time></trkpt><trkpt lat="45.7610078" lon="11.7505778"><ele>123.0</ele><time>2026-04-06T08:35:09.669Z</time></trkpt><trkpt lat="45.7609262" lon="11.750574"><ele>123.0</ele><time>2026-04-06T08:35:10.669Z</time></trkpt><trkpt lat="45.7608123" lon="11.7506027"><ele>122.75</ele><time>2026-04-06T08:35:11.665Z</time></trkpt><trkpt lat="45.7606971" lon="11.7506579"><ele>122.5</ele><time>2026-04-06T08:35:12.664Z</time></trkpt><trkpt lat="45.7605757" lon="11.7507168"><ele>122.25</ele><time>2026-04-06T08:35:13.669Z</time></trkpt><trkpt lat="45.7604339" lon="11.7507871"><ele>122.0</ele><time>2026-04-06T08:35:14.677Z</time></trkpt><trkpt lat="45.7603017" lon="11.7508908"><ele>121.5</ele><time>2026-04-06T08:35:15.667Z</time></trkpt><trkpt lat="45.7601822" lon="11.7509848"><ele>121.0</ele><time>2026-04-06T08:35:16.676Z</time></trkpt><trkpt lat="45.760066" lon="11.7510534"><ele>120.5</ele><time>2026-04-06T08:35:17.677Z</time></trkpt><trkpt lat="45.7599549" lon="11.7511097"><ele>120.0</ele><time>2026-04-06T08:35:18.671Z</time></trkpt><trkpt lat="45.7598356" lon="11.7511598"><ele>120.0</ele><time>2026-04-06T08:35:19.676Z</time></trkpt><trkpt lat="45.7597428" lon="11.7511947"><ele>120.0</ele><time>2026-04-06T08:35:20.664Z</time></trkpt><trkpt lat="45.7596462" lon="11.7512178"><ele>120.0</ele><time>2026-04-06T08:35:21.673Z</time></trkpt><trkpt lat="45.7595683" lon="11.7512682"><ele>120.0</ele><time>2026-04-06T08:35:22.67Z</time></trkpt><trkpt lat="45.7595048" lon="11.7512781"><ele>120.0</ele><time>2026-04-06T08:35:23.666Z</time></trkpt><trkpt lat="45.7594367" lon="11.7512195"><ele>120.0</ele><time>2026-04-06T08:35:26.666Z</time></trkpt><trkpt lat="45.7593771" lon="11.7510406"><ele>120.0</ele><time>2026-04-06T08:35:28.675Z</time></trkpt><trkpt lat="45.7593599" lon="11.7508967"><ele>120.0</ele><time>2026-04-06T08:35:29.665Z</time></trkpt><trkpt lat="45.7593373" lon="11.7507271"><ele>120.0</ele><time>2026-04-06T08:35:30.67Z</time></trkpt><trkpt lat="45.7593076" lon="11.7505694"><ele>120.0</ele><time>2026-04-06T08:35:31.67Z</time></trkpt><trkpt lat="45.7592837" lon="11.7504284"><ele>120.0</ele><time>2026-04-06T08:35:32.656Z</time></trkpt><trkpt lat="45.759257" lon="11.7503117"><ele>120.0</ele><time>2026-04-06T08:35:33.663Z</time></trkpt><trkpt lat="45.7591279" lon="11.7503024"><ele>120.0</ele><time>2026-04-06T08:35:35.66Z</time></trkpt><trkpt lat="45.7590404" lon="11.7503364"><ele>120.0</ele><time>2026-04-06T08:35:36.665Z</time></trkpt><trkpt lat="45.7589188" lon="11.7503929"><ele>120.0</ele><time>2026-04-06T08:35:37.655Z</time></trkpt><trkpt lat="45.7587788" lon="11.7504643"><ele>120.0</ele><time>2026-04-06T08:35:38.66Z</time></trkpt><trkpt lat="45.7586195" lon="11.750574"><ele>120.0</ele><time>2026-04-06T08:35:39.661Z</time></trkpt><trkpt lat="45.75848" lon="11.7506171"><ele>120.0</ele><time>2026-04-06T08:35:40.671Z</time></trkpt><trkpt lat="45.7583494" lon="11.7506396"><ele>119.83333333333333</ele><time>2026-04-06T08:35:41.67Z</time></trkpt><trkpt lat="45.7582261" lon="11.7506671"><ele>119.66666666666666</ele><time>2026-04-06T08:35:42.662Z</time></trkpt><trkpt lat="45.7581294" lon="11.750713"><ele>119.5</ele><time>2026-04-06T08:35:43.678Z</time></trkpt><trkpt lat="45.7580404" lon="11.7507231"><ele>119.33333333333333</ele><time>2026-04-06T08:35:44.671Z</time></trkpt><trkpt lat="45.7579835" lon="11.7506776"><ele>119.16666666666666</ele><time>2026-04-06T08:35:45.667Z</time></trkpt><trkpt lat="45.7579533" lon="11.750592"><ele>119.0</ele><time>2026-04-06T08:35:46.661Z</time></trkpt><trkpt lat="45.757933" lon="11.7504774"><ele>119.0</ele><time>2026-04-06T08:35:47.675Z</time></trkpt><trkpt lat="45.7579285" lon="11.7503075"><ele>119.0</ele><time>2026-04-06T08:35:48.656Z</time></trkpt><trkpt lat="45.7579296" lon="11.7501023"><ele>119.0</ele><time>2026-04-06T08:35:49.663Z</time></trkpt><trkpt lat="45.7579121" lon="11.749884"><ele>119.0</ele><time>2026-04-06T08:35:50.661Z</time></trkpt><trkpt lat="45.7578919" lon="11.7495845"><ele>119.33333333333333</ele><time>2026-04-06T08:35:51.659Z</time></trkpt><trkpt lat="45.7578739" lon="11.7493437"><ele>119.66666666666666</ele><time>2026-04-06T08:35:52.669Z</time></trkpt><trkpt lat="45.7578431" lon="11.7491229"><ele>120.0</ele><time>2026-04-06T08:35:53.673Z</time></trkpt><trkpt lat="45.7578179" lon="11.748942"><ele>120.0</ele><time>2026-04-06T08:35:54.664Z</time></trkpt><trkpt lat="45.7577876" lon="11.7487837"><ele>120.0</ele><time>2026-04-06T08:35:55.673Z</time></trkpt><trkpt lat="45.7577603" lon="11.7486516"><ele>120.0</ele><time>2026-04-06T08:35:56.673Z</time></trkpt><trkpt lat="45.7576973" lon="11.7485923"><ele>120.0</ele><time>2026-04-06T08:35:57.666Z</time></trkpt><trkpt lat="45.7576262" lon="11.7485842"><ele>120.0</ele><time>2026-04-06T08:35:58.684Z</time></trkpt><trkpt lat="45.7575723" lon="11.7486427"><ele>120.0</ele><time>2026-04-06T08:35:59.676Z</time></trkpt><trkpt lat="45.75749" lon="11.7487139"><ele>119.8</ele><time>2026-04-06T08:36:00.673Z</time></trkpt><trkpt lat="45.7573805" lon="11.7487664"><ele>119.6</ele><time>2026-04-06T08:36:01.668Z</time></trkpt><trkpt lat="45.7572852" lon="11.7487441"><ele>119.4</ele><time>2026-04-06T08:36:02.675Z</time></trkpt><trkpt lat="45.7571835" lon="11.7486799"><ele>119.2</ele><time>2026-04-06T08:36:03.671Z</time></trkpt><trkpt lat="45.7570903" lon="11.7485789"><ele>119.0</ele><time>2026-04-06T08:36:04.671Z</time></trkpt><trkpt lat="45.7569987" lon="11.7484753"><ele>119.0</ele><time>2026-04-06T08:36:05.667Z</time></trkpt><trkpt lat="45.7568932" lon="11.7483836"><ele>119.0</ele><time>2026-04-06T08:36:06.659Z</time></trkpt><trkpt lat="45.7567902" lon="11.7482983"><ele>119.0</ele><time>2026-04-06T08:36:07.666Z</time></trkpt><trkpt lat="45.7566952" lon="11.7482317"><ele>119.0</ele><time>2026-04-06T08:36:08.659Z</time></trkpt><trkpt lat="45.756613" lon="11.7481732"><ele>119.0</ele><time>2026-04-06T08:36:09.661Z</time></trkpt><trkpt lat="45.7565522" lon="11.7481175"><ele>119.2</ele><time>2026-04-06T08:36:10.665Z</time></trkpt><trkpt lat="45.7564904" lon="11.7480824"><ele>119.4</ele><time>2026-04-06T08:36:13.667Z</time></trkpt><trkpt lat="45.7564131" lon="11.7482022"><ele>119.6</ele><time>2026-04-06T08:36:17.667Z</time></trkpt><trkpt lat="45.7563709" lon="11.7482854"><ele>119.8</ele><time>2026-04-06T08:36:18.675Z</time></trkpt><trkpt lat="45.7563213" lon="11.7484073"><ele>120.0</ele><time>2026-04-06T08:36:19.695Z</time></trkpt><trkpt lat="45.7562678" lon="11.7485808"><ele>119.5</ele><time>2026-04-06T08:36:20.653Z</time></trkpt><trkpt lat="45.7562132" lon="11.7487436"><ele>119.0</ele><time>2026-04-06T08:36:21.652Z</time></trkpt><trkpt lat="45.7561547" lon="11.7489067"><ele>118.5</ele><time>2026-04-06T08:36:22.671Z</time></trkpt><trkpt lat="45.7560917" lon="11.7490767"><ele>118.0</ele><time>2026-04-06T08:36:23.666Z</time></trkpt><trkpt lat="45.7560254" lon="11.7492514"><ele>118.0</ele><time>2026-04-06T08:36:24.665Z</time></trkpt><trkpt lat="45.7559331" lon="11.749441"><ele>118.0</ele><time>2026-04-06T08:36:25.659Z</time></trkpt><trkpt lat="45.7558353" lon="11.7495865"><ele>118.0</ele><time>2026-04-06T08:36:26.66Z</time></trkpt><trkpt lat="45.755756" lon="11.7497117"><ele>118.0</ele><time>2026-04-06T08:36:27.67Z</time></trkpt><trkpt lat="45.7556745" lon="11.7498171"><ele>118.0</ele><time>2026-04-06T08:36:28.664Z</time></trkpt><trkpt lat="45.7555996" lon="11.7499254"><ele>118.0</ele><time>2026-04-06T08:36:29.668Z</time></trkpt><trkpt lat="45.7555089" lon="11.7500257"><ele>118.0</ele><time>2026-04-06T08:36:30.664Z</time></trkpt><trkpt lat="45.7553788" lon="11.7501045"><ele>118.0</ele><time>2026-04-06T08:36:31.671Z</time></trkpt><trkpt lat="45.7552452" lon="11.7501463"><ele>118.0</ele><time>2026-04-06T08:36:32.658Z</time></trkpt><trkpt lat="45.7550976" lon="11.7501987"><ele>118.0</ele><time>2026-04-06T08:36:33.663Z</time></trkpt><trkpt lat="45.754961" lon="11.750261"><ele>118.0</ele><time>2026-04-06T08:36:34.659Z</time></trkpt><trkpt lat="45.7548242" lon="11.7502936"><ele>118.0</ele><time>2026-04-06T08:36:35.746Z</time></trkpt><trkpt lat="45.7546939" lon="11.7503245"><ele>118.16666666666667</ele><time>2026-04-06T08:36:36.669Z</time></trkpt><trkpt lat="45.7545815" lon="11.7503173"><ele>118.33333333333334</ele><time>2026-04-06T08:36:37.658Z</time></trkpt><trkpt lat="45.7544896" lon="11.7503473"><ele>118.5</ele><time>2026-04-06T08:36:38.652Z</time></trkpt><trkpt lat="45.7544635" lon="11.7504346"><ele>118.66666666666666</ele><time>2026-04-06T08:36:39.664Z</time></trkpt><trkpt lat="45.7544448" lon="11.750531"><ele>118.83333333333333</ele><time>2026-04-06T08:36:40.662Z</time></trkpt><trkpt lat="45.7544519" lon="11.7506543"><ele>119.0</ele><time>2026-04-06T08:36:41.658Z</time></trkpt><trkpt lat="45.7544677" lon="11.7507688"><ele>119.0</ele><time>2026-04-06T08:36:42.667Z</time></trkpt><trkpt lat="45.75447" lon="11.7508662"><ele>119.0</ele><time>2026-04-06T08:36:43.665Z</time></trkpt><trkpt lat="45.7544251" lon="11.7509401"><ele>119.0</ele><time>2026-04-06T08:36:44.668Z</time></trkpt><trkpt lat="45.7543441" lon="11.750991"><ele>119.0</ele><time>2026-04-06T08:36:45.672Z</time></trkpt><trkpt lat="45.7542234" lon="11.7510105"><ele>119.0</ele><time>2026-04-06T08:36:46.66Z</time></trkpt><trkpt lat="45.7540912" lon="11.7510337"><ele>117.66666666666666</ele><time>2026-04-06T08:36:47.676Z</time></trkpt><trkpt lat="45.7539553" lon="11.7510704"><ele>116.33333333333334</ele><time>2026-04-06T08:36:48.657Z</time></trkpt><trkpt lat="45.7537793" lon="11.751157"><ele>115.0</ele><time>2026-04-06T08:36:49.67Z</time></trkpt><trkpt lat="45.7536214" lon="11.7511988"><ele>115.25</ele><time>2026-04-06T08:36:50.678Z</time></trkpt><trkpt lat="45.7534874" lon="11.751237"><ele>115.5</ele><time>2026-04-06T08:36:51.66Z</time></trkpt><trkpt lat="45.7533634" lon="11.7512502"><ele>115.75</ele><time>2026-04-06T08:36:52.668Z</time></trkpt><trkpt lat="45.7532466" lon="11.7512693"><ele>116.0</ele><time>2026-04-06T08:36:53.668Z</time></trkpt><trkpt lat="45.7531523" lon="11.7512647"><ele>116.0</ele><time>2026-04-06T08:36:54.659Z</time></trkpt><trkpt lat="45.7530741" lon="11.7513112"><ele>116.0</ele><time>2026-04-06T08:36:55.678Z</time></trkpt><trkpt lat="45.7529694" lon="11.7513094"><ele>116.0</ele><time>2026-04-06T08:36:57.667Z</time></trkpt><trkpt lat="45.7528894" lon="11.7511645"><ele>116.0</ele><time>2026-04-06T08:36:59.675Z</time></trkpt><trkpt lat="45.7528653" lon="11.7510248"><ele>116.0</ele><time>2026-04-06T08:37:00.654Z</time></trkpt><trkpt lat="45.7528441" lon="11.75086"><ele>116.0</ele><time>2026-04-06T08:37:01.671Z</time></trkpt><trkpt lat="45.752817" lon="11.7506692"><ele>116.0</ele><time>2026-04-06T08:37:02.675Z</time></trkpt><trkpt lat="45.7527889" lon="11.7504716"><ele>116.0</ele><time>2026-04-06T08:37:03.665Z</time></trkpt><trkpt lat="45.7527722" lon="11.7502725"><ele>116.0</ele><time>2026-04-06T08:37:04.669Z</time></trkpt><trkpt lat="45.7527714" lon="11.7500848"><ele>116.0</ele><time>2026-04-06T08:37:05.661Z</time></trkpt><trkpt lat="45.7527807" lon="11.7499037"><ele>116.0</ele><time>2026-04-06T08:37:06.668Z</time></trkpt><trkpt lat="45.7527867" lon="11.7497382"><ele>116.0</ele><time>2026-04-06T08:37:07.671Z</time></trkpt><trkpt lat="45.7527704" lon="11.749586"><ele>116.0</ele><time>2026-04-06T08:37:08.661Z</time></trkpt><trkpt lat="45.7527378" lon="11.7494238"><ele>116.33333333333333</ele><time>2026-04-06T08:37:09.665Z</time></trkpt><trkpt lat="45.7527009" lon="11.7492384"><ele>116.66666666666666</ele><time>2026-04-06T08:37:10.665Z</time></trkpt><trkpt lat="45.75266" lon="11.7490281"><ele>117.0</ele><time>2026-04-06T08:37:11.671Z</time></trkpt><trkpt lat="45.7525972" lon="11.7487649"><ele>117.33333333333334</ele><time>2026-04-06T08:37:12.688Z</time></trkpt><trkpt lat="45.7525461" lon="11.7485087"><ele>117.66666666666667</ele><time>2026-04-06T08:37:13.69Z</time></trkpt><trkpt lat="45.7524989" lon="11.7482827"><ele>118.0</ele><time>2026-04-06T08:37:14.697Z</time></trkpt><trkpt lat="45.7524391" lon="11.7480629"><ele>118.0</ele><time>2026-04-06T08:37:15.665Z</time></trkpt><trkpt lat="45.7523791" lon="11.7478521"><ele>118.00000000000001</ele><time>2026-04-06T08:37:16.669Z</time></trkpt><trkpt lat="45.7523619" lon="11.7476812"><ele>118.00000000000001</ele><time>2026-04-06T08:37:17.672Z</time></trkpt><trkpt lat="45.7523337" lon="11.747541"><ele>118.0</ele><time>2026-04-06T08:37:18.661Z</time></trkpt><trkpt lat="45.7523337" lon="11.7474492"><ele>118.0</ele><time>2026-04-06T08:37:19.666Z</time></trkpt><trkpt lat="45.7522885" lon="11.7473725"><ele>118.16666666666667</ele><time>2026-04-06T08:37:21.662Z</time></trkpt><trkpt lat="45.7522717" lon="11.7472768"><ele>118.33333333333334</ele><time>2026-04-06T08:37:25.676Z</time></trkpt><trkpt lat="45.7522543" lon="11.7471797"><ele>118.5</ele><time>2026-04-06T08:37:27.677Z</time></trkpt><trkpt lat="45.7522519" lon="11.7470618"><ele>118.66666666666666</ele><time>2026-04-06T08:37:28.675Z</time></trkpt><trkpt lat="45.7522343" lon="11.7469204"><ele>118.83333333333333</ele><time>2026-04-06T08:37:29.661Z</time></trkpt><trkpt lat="45.7521981" lon="11.7467525"><ele>119.0</ele><time>2026-04-06T08:37:30.673Z</time></trkpt><trkpt lat="45.7521692" lon="11.7465889"><ele>118.5</ele><time>2026-04-06T08:37:31.669Z</time></trkpt><trkpt lat="45.7521531" lon="11.7464256"><ele>118.0</ele><time>2026-04-06T08:37:32.673Z</time></trkpt><trkpt lat="45.752135" lon="11.7462441"><ele>117.5</ele><time>2026-04-06T08:37:33.672Z</time></trkpt><trkpt lat="45.7521198" lon="11.7460582"><ele>117.0</ele><time>2026-04-06T08:37:34.667Z</time></trkpt><trkpt lat="45.7521039" lon="11.7458823"><ele>117.0</ele><time>2026-04-06T08:37:35.668Z</time></trkpt><trkpt lat="45.7520812" lon="11.7457081"><ele>117.0</ele><time>2026-04-06T08:37:36.665Z</time></trkpt><trkpt lat="45.7520578" lon="11.7455254"><ele>117.0</ele><time>2026-04-06T08:37:37.671Z</time></trkpt><trkpt lat="45.7520347" lon="11.7453308"><ele>117.0</ele><time>2026-04-06T08:37:38.669Z</time></trkpt><trkpt lat="45.7520145" lon="11.7451452"><ele>117.0</ele><time>2026-04-06T08:37:39.671Z</time></trkpt><trkpt lat="45.7519917" lon="11.7449677"><ele>117.0</ele><time>2026-04-06T08:37:40.66Z</time></trkpt><trkpt lat="45.7519809" lon="11.7447849"><ele>117.0</ele><time>2026-04-06T08:37:41.669Z</time></trkpt><trkpt lat="45.7519873" lon="11.7445816"><ele>117.0</ele><time>2026-04-06T08:37:42.66Z</time></trkpt><trkpt lat="45.7520111" lon="11.7443735"><ele>117.66666666666666</ele><time>2026-04-06T08:37:43.664Z</time></trkpt><trkpt lat="45.7520478" lon="11.7441543"><ele>118.33333333333333</ele><time>2026-04-06T08:37:44.664Z</time></trkpt><trkpt lat="45.7520814" lon="11.7439172"><ele>119.0</ele><time>2026-04-06T08:37:45.66Z</time></trkpt><trkpt lat="45.7521178" lon="11.7436835"><ele>118.33333333333333</ele><time>2026-04-06T08:37:46.666Z</time></trkpt><trkpt lat="45.7521677" lon="11.7434727"><ele>117.66666666666666</ele><time>2026-04-06T08:37:47.657Z</time></trkpt><trkpt lat="45.7521894" lon="11.743247"><ele>117.0</ele><time>2026-04-06T08:37:48.661Z</time></trkpt><trkpt lat="45.7522223" lon="11.7430398"><ele>117.0</ele><time>2026-04-06T08:37:49.661Z</time></trkpt><trkpt lat="45.7522541" lon="11.7428269"><ele>117.0</ele><time>2026-04-06T08:37:50.662Z</time></trkpt><trkpt lat="45.7522737" lon="11.7426481"><ele>117.0</ele><time>2026-04-06T08:37:51.663Z</time></trkpt><trkpt lat="45.7523015" lon="11.7424739"><ele>117.0</ele><time>2026-04-06T08:37:52.665Z</time></trkpt><trkpt lat="45.7523436" lon="11.7423028"><ele>117.25</ele><time>2026-04-06T08:37:53.666Z</time></trkpt><trkpt lat="45.7523995" lon="11.742174"><ele>117.5</ele><time>2026-04-06T08:37:54.667Z</time></trkpt><trkpt lat="45.7524503" lon="11.7420337"><ele>117.75</ele><time>2026-04-06T08:37:55.664Z</time></trkpt><trkpt lat="45.7525194" lon="11.7418753"><ele>118.0</ele><time>2026-04-06T08:37:56.657Z</time></trkpt><trkpt lat="45.7526052" lon="11.74174"><ele>118.0</ele><time>2026-04-06T08:37:57.663Z</time></trkpt><trkpt lat="45.7526886" lon="11.741608"><ele>118.0</ele><time>2026-04-06T08:37:58.651Z</time></trkpt><trkpt lat="45.7527739" lon="11.741497"><ele>118.0</ele><time>2026-04-06T08:37:59.66Z</time></trkpt><trkpt lat="45.7528623" lon="11.7414113"><ele>118.0</ele><time>2026-04-06T08:38:00.655Z</time></trkpt><trkpt lat="45.7529636" lon="11.7413636"><ele>117.80000000000001</ele><time>2026-04-06T08:38:01.657Z</time></trkpt><trkpt lat="45.7530661" lon="11.7413164"><ele>117.60000000000001</ele><time>2026-04-06T08:38:02.648Z</time></trkpt><trkpt lat="45.7531662" lon="11.7412785"><ele>117.39999999999999</ele><time>2026-04-06T08:38:03.651Z</time></trkpt><trkpt lat="45.7532426" lon="11.7412616"><ele>117.19999999999999</ele><time>2026-04-06T08:38:04.653Z</time></trkpt><trkpt lat="45.7533498" lon="11.7412767"><ele>117.0</ele><time>2026-04-06T08:38:06.66Z</time></trkpt><trkpt lat="45.7534702" lon="11.7413065"><ele>117.0</ele><time>2026-04-06T08:38:08.65Z</time></trkpt><trkpt lat="45.7535506" lon="11.7412554"><ele>116.99999999999999</ele><time>2026-04-06T08:38:10.663Z</time></trkpt><trkpt lat="45.7535167" lon="11.7410975"><ele>116.99999999999999</ele><time>2026-04-06T08:38:12.657Z</time></trkpt><trkpt lat="45.7534713" lon="11.7409784"><ele>117.0</ele><time>2026-04-06T08:38:13.658Z</time></trkpt><trkpt lat="45.7534363" lon="11.7408751"><ele>117.0</ele><time>2026-04-06T08:38:14.659Z</time></trkpt><trkpt lat="45.7534148" lon="11.7407643"><ele>116.5</ele><time>2026-04-06T08:38:15.664Z</time></trkpt><trkpt lat="45.7533775" lon="11.7406529"><ele>116.0</ele><time>2026-04-06T08:38:16.654Z</time></trkpt><trkpt lat="45.7533432" lon="11.7405414"><ele>115.5</ele><time>2026-04-06T08:38:17.672Z</time></trkpt><trkpt lat="45.7533132" lon="11.7404316"><ele>115.0</ele><time>2026-04-06T08:38:18.664Z</time></trkpt><trkpt lat="45.7532858" lon="11.7403279"><ele>114.5</ele><time>2026-04-06T08:38:19.664Z</time></trkpt><trkpt lat="45.7532605" lon="11.7402334"><ele>114.0</ele><time>2026-04-06T08:38:20.666Z</time></trkpt><trkpt lat="45.7532332" lon="11.7401472"><ele>113.5</ele><time>2026-04-06T08:38:21.656Z</time></trkpt><trkpt lat="45.7531895" lon="11.7400019"><ele>113.0</ele><time>2026-04-06T08:38:23.758Z</time></trkpt><trkpt lat="45.7531612" lon="11.7398572"><ele>112.5</ele><time>2026-04-06T08:38:25.67Z</time></trkpt><trkpt lat="45.753151" lon="11.7396279"><ele>112.0</ele><time>2026-04-06T08:38:28.674Z</time></trkpt><trkpt lat="45.7531731" lon="11.7394776"><ele>111.83333333333334</ele><time>2026-04-06T08:38:30.662Z</time></trkpt><trkpt lat="45.7532056" lon="11.7393661"><ele>111.66666666666667</ele><time>2026-04-06T08:38:34.666Z</time></trkpt><trkpt lat="45.7532534" lon="11.7392538"><ele>111.5</ele><time>2026-04-06T08:38:36.659Z</time></trkpt><trkpt lat="45.7533163" lon="11.7392144"><ele>111.33333333333334</ele><time>2026-04-06T08:38:37.659Z</time></trkpt><trkpt lat="45.7533983" lon="11.7392089"><ele>111.16666666666667</ele><time>2026-04-06T08:38:38.656Z</time></trkpt><trkpt lat="45.7534972" lon="11.7392466"><ele>111.0</ele><time>2026-04-06T08:38:39.659Z</time></trkpt><trkpt lat="45.7536089" lon="11.7392843"><ele>111.4</ele><time>2026-04-06T08:38:40.658Z</time></trkpt><trkpt lat="45.7537021" lon="11.7393148"><ele>111.8</ele><time>2026-04-06T08:38:41.652Z</time></trkpt><trkpt lat="45.753801" lon="11.7393142"><ele>112.20000000000002</ele><time>2026-04-06T08:38:42.671Z</time></trkpt><trkpt lat="45.7539075" lon="11.7392621"><ele>112.60000000000001</ele><time>2026-04-06T08:38:43.669Z</time></trkpt><trkpt lat="45.754002" lon="11.7391824"><ele>113.0</ele><time>2026-04-06T08:38:44.662Z</time></trkpt><trkpt lat="45.7541049" lon="11.7390712"><ele>113.0</ele><time>2026-04-06T08:38:45.669Z</time></trkpt><trkpt lat="45.7542214" lon="11.7389518"><ele>113.0</ele><time>2026-04-06T08:38:46.663Z</time></trkpt><trkpt lat="45.7543304" lon="11.7388422"><ele>113.0</ele><time>2026-04-06T08:38:47.661Z</time></trkpt><trkpt lat="45.7544263" lon="11.7387286"><ele>113.0</ele><time>2026-04-06T08:38:48.67Z</time></trkpt><trkpt lat="45.7544788" lon="11.7385898"><ele>112.5</ele><time>2026-04-06T08:38:49.664Z</time></trkpt><trkpt lat="45.7544954" lon="11.7384078"><ele>112.0</ele><time>2026-04-06T08:38:50.664Z</time></trkpt><trkpt lat="45.7544864" lon="11.7381916"><ele>111.5</ele><time>2026-04-06T08:38:51.668Z</time></trkpt><trkpt lat="45.7544792" lon="11.7379504"><ele>111.0</ele><time>2026-04-06T08:38:52.668Z</time></trkpt><trkpt lat="45.75444" lon="11.7376425"><ele>111.0</ele><time>2026-04-06T08:38:53.671Z</time></trkpt><trkpt lat="45.7543841" lon="11.7374056"><ele>111.0</ele><time>2026-04-06T08:38:54.673Z</time></trkpt><trkpt lat="45.7543406" lon="11.7372451"><ele>111.0</ele><time>2026-04-06T08:38:55.678Z</time></trkpt><trkpt lat="45.7543031" lon="11.7370746"><ele>111.0</ele><time>2026-04-06T08:38:56.67Z</time></trkpt><trkpt lat="45.7542983" lon="11.7369342"><ele>111.0</ele><time>2026-04-06T08:38:57.671Z</time></trkpt><trkpt lat="45.7542882" lon="11.7367804"><ele>111.0</ele><time>2026-04-06T08:38:58.657Z</time></trkpt><trkpt lat="45.7542852" lon="11.7366619"><ele>111.0</ele><time>2026-04-06T08:38:59.669Z</time></trkpt><trkpt lat="45.7542844" lon="11.7365462"><ele>111.0</ele><time>2026-04-06T08:39:00.684Z</time></trkpt><trkpt lat="45.75429" lon="11.736434"><ele>111.0</ele><time>2026-04-06T08:39:02.665Z</time></trkpt><trkpt lat="45.7542941" lon="11.7363356"><ele>111.0</ele><time>2026-04-06T08:39:05.667Z</time></trkpt><trkpt lat="45.7542282" lon="11.7363201"><ele>111.0</ele><time>2026-04-06T08:39:07.664Z</time></trkpt><trkpt lat="45.7541554" lon="11.736347"><ele>111.0</ele><time>2026-04-06T08:39:08.666Z</time></trkpt><trkpt lat="45.7540833" lon="11.7364054"><ele>111.0</ele><time>2026-04-06T08:39:09.662Z</time></trkpt><trkpt lat="45.7539922" lon="11.7364834"><ele>111.0</ele><time>2026-04-06T08:39:10.666Z</time></trkpt><trkpt lat="45.7538723" lon="11.7365695"><ele>111.0</ele><time>2026-04-06T08:39:11.661Z</time></trkpt><trkpt lat="45.7537262" lon="11.736646"><ele>111.0</ele><time>2026-04-06T08:39:12.666Z</time></trkpt><trkpt lat="45.7535396" lon="11.7367543"><ele>111.0</ele><time>2026-04-06T08:39:13.668Z</time></trkpt><trkpt lat="45.7533266" lon="11.7368264"><ele>111.0</ele><time>2026-04-06T08:39:14.667Z</time></trkpt><trkpt lat="45.7531175" lon="11.7368404"><ele>110.33333333333334</ele><time>2026-04-06T08:39:15.67Z</time></trkpt><trkpt lat="45.7528872" lon="11.7368349"><ele>109.66666666666667</ele><time>2026-04-06T08:39:16.657Z</time></trkpt><trkpt lat="45.7526781" lon="11.7367993"><ele>109.0</ele><time>2026-04-06T08:39:17.673Z</time></trkpt><trkpt lat="45.7524927" lon="11.7367797"><ele>109.0</ele><time>2026-04-06T08:39:18.664Z</time></trkpt><trkpt lat="45.7523177" lon="11.7367601"><ele>109.0</ele><time>2026-04-06T08:39:19.66Z</time></trkpt><trkpt lat="45.7521663" lon="11.7367578"><ele>109.0</ele><time>2026-04-06T08:39:20.661Z</time></trkpt><trkpt lat="45.7520202" lon="11.7367509"><ele>109.0</ele><time>2026-04-06T08:39:21.666Z</time></trkpt><trkpt lat="45.7518854" lon="11.7367394"><ele>109.0</ele><time>2026-04-06T08:39:22.67Z</time></trkpt><trkpt lat="45.7517803" lon="11.7367388"><ele>109.0</ele><time>2026-04-06T08:39:23.661Z</time></trkpt><trkpt lat="45.7516975" lon="11.7367327"><ele>109.0</ele><time>2026-04-06T08:39:24.667Z</time></trkpt><trkpt lat="45.7516272" lon="11.7367262"><ele>109.0</ele><time>2026-04-06T08:39:25.665Z</time></trkpt><trkpt lat="45.7515669" lon="11.7366253"><ele>109.0</ele><time>2026-04-06T08:39:27.673Z</time></trkpt><trkpt lat="45.75156" lon="11.736433"><ele>109.0</ele><time>2026-04-06T08:39:29.673Z</time></trkpt><trkpt lat="45.7515942" lon="11.7362866"><ele>109.0</ele><time>2026-04-06T08:39:30.664Z</time></trkpt><trkpt lat="45.7516287" lon="11.7361259"><ele>109.0</ele><time>2026-04-06T08:39:31.673Z</time></trkpt><trkpt lat="45.7516573" lon="11.735966"><ele>108.75</ele><time>2026-04-06T08:39:32.67Z</time></trkpt><trkpt lat="45.7516783" lon="11.7357954"><ele>108.5</ele><time>2026-04-06T08:39:33.668Z</time></trkpt><trkpt lat="45.7516926" lon="11.7356122"><ele>108.25</ele><time>2026-04-06T08:39:34.67Z</time></trkpt><trkpt lat="45.7517052" lon="11.735426"><ele>108.0</ele><time>2026-04-06T08:39:35.671Z</time></trkpt><trkpt lat="45.7517196" lon="11.7352543"><ele>107.2</ele><time>2026-04-06T08:39:36.67Z</time></trkpt><trkpt lat="45.7517294" lon="11.7350986"><ele>106.4</ele><time>2026-04-06T08:39:37.669Z</time></trkpt><trkpt lat="45.7517364" lon="11.7349565"><ele>105.60000000000001</ele><time>2026-04-06T08:39:38.67Z</time></trkpt><trkpt lat="45.7517419" lon="11.7348246"><ele>104.80000000000001</ele><time>2026-04-06T08:39:39.678Z</time></trkpt><trkpt lat="45.7517425" lon="11.7347048"><ele>104.0</ele><time>2026-04-06T08:39:40.669Z</time></trkpt><trkpt lat="45.751747" lon="11.7345982"><ele>103.99999999999999</ele><time>2026-04-06T08:39:41.672Z</time></trkpt><trkpt lat="45.7517727" lon="11.7344893"><ele>104.0</ele><time>2026-04-06T08:39:42.673Z</time></trkpt><trkpt lat="45.7517928" lon="11.7343729"><ele>104.0</ele><time>2026-04-06T08:39:43.659Z</time></trkpt><trkpt lat="45.7517948" lon="11.734255"><ele>104.0</ele><time>2026-04-06T08:39:44.667Z</time></trkpt><trkpt lat="45.751756" lon="11.7341392"><ele>103.99999999999999</ele><time>2026-04-06T08:39:45.662Z</time></trkpt><trkpt lat="45.7517153" lon="11.7340251"><ele>104.0</ele><time>2026-04-06T08:39:46.669Z</time></trkpt><trkpt lat="45.7516922" lon="11.7338956"><ele>104.80000000000001</ele><time>2026-04-06T08:39:47.675Z</time></trkpt><trkpt lat="45.7516758" lon="11.7337624"><ele>105.60000000000001</ele><time>2026-04-06T08:39:48.67Z</time></trkpt><trkpt lat="45.7516546" lon="11.7336151"><ele>106.4</ele><time>2026-04-06T08:39:49.674Z</time></trkpt><trkpt lat="45.7516335" lon="11.7334543"><ele>107.2</ele><time>2026-04-06T08:39:50.676Z</time></trkpt><trkpt lat="45.7516103" lon="11.7332725"><ele>108.0</ele><time>2026-04-06T08:39:51.674Z</time></trkpt><trkpt lat="45.7515909" lon="11.7330562"><ele>108.33333333333334</ele><time>2026-04-06T08:39:52.668Z</time></trkpt><trkpt lat="45.7515478" lon="11.7327805"><ele>108.66666666666667</ele><time>2026-04-06T08:39:53.68Z</time></trkpt><trkpt lat="45.7514994" lon="11.7324976"><ele>109.0</ele><time>2026-04-06T08:39:54.698Z</time></trkpt><trkpt lat="45.7514728" lon="11.7322254"><ele>109.0</ele><time>2026-04-06T08:39:55.692Z</time></trkpt><trkpt lat="45.7514613" lon="11.73196"><ele>109.0</ele><time>2026-04-06T08:39:56.672Z</time></trkpt><trkpt lat="45.7514482" lon="11.7317353"><ele>109.0</ele><time>2026-04-06T08:39:57.673Z</time></trkpt><trkpt lat="45.7514264" lon="11.7315273"><ele>109.0</ele><time>2026-04-06T08:39:58.672Z</time></trkpt><trkpt lat="45.7514032" lon="11.7313191"><ele>109.0</ele><time>2026-04-06T08:39:59.675Z</time></trkpt><trkpt lat="45.7514042" lon="11.7311447"><ele>109.0</ele><time>2026-04-06T08:40:00.674Z</time></trkpt><trkpt lat="45.751428" lon="11.7309701"><ele>109.0</ele><time>2026-04-06T08:40:01.678Z</time></trkpt><trkpt lat="45.7514875" lon="11.7307946"><ele>109.0</ele><time>2026-04-06T08:40:02.659Z</time></trkpt><trkpt lat="45.7515198" lon="11.7306176"><ele>109.0</ele><time>2026-04-06T08:40:03.678Z</time></trkpt><trkpt lat="45.7515784" lon="11.7304577"><ele>109.0</ele><time>2026-04-06T08:40:04.668Z</time></trkpt><trkpt lat="45.7516335" lon="11.7302923"><ele>109.0</ele><time>2026-04-06T08:40:05.669Z</time></trkpt><trkpt lat="45.7517054" lon="11.7301284"><ele>109.0</ele><time>2026-04-06T08:40:06.668Z</time></trkpt><trkpt lat="45.7517921" lon="11.7299545"><ele>109.0</ele><time>2026-04-06T08:40:07.668Z</time></trkpt><trkpt lat="45.7518907" lon="11.729757"><ele>109.0</ele><time>2026-04-06T08:40:08.661Z</time></trkpt><trkpt lat="45.7519927" lon="11.7295392"><ele>109.0</ele><time>2026-04-06T08:40:09.662Z</time></trkpt><trkpt lat="45.7521002" lon="11.7293282"><ele>109.0</ele><time>2026-04-06T08:40:10.671Z</time></trkpt><trkpt lat="45.7522198" lon="11.7291438"><ele>109.0</ele><time>2026-04-06T08:40:11.669Z</time></trkpt><trkpt lat="45.7523328" lon="11.7289593"><ele>109.0</ele><time>2026-04-06T08:40:12.664Z</time></trkpt><trkpt lat="45.7524284" lon="11.7287656"><ele>109.0</ele><time>2026-04-06T08:40:13.666Z</time></trkpt><trkpt lat="45.7525233" lon="11.7285802"><ele>109.0</ele><time>2026-04-06T08:40:14.67Z</time></trkpt><trkpt lat="45.7526125" lon="11.7284122"><ele>109.0</ele><time>2026-04-06T08:40:15.662Z</time></trkpt><trkpt lat="45.7526942" lon="11.7282584"><ele>109.0</ele><time>2026-04-06T08:40:16.666Z</time></trkpt><trkpt lat="45.7527867" lon="11.7281176"><ele>109.0</ele><time>2026-04-06T08:40:17.667Z</time></trkpt><trkpt lat="45.7528658" lon="11.7279679"><ele>109.0</ele><time>2026-04-06T08:40:18.674Z</time></trkpt><trkpt lat="45.7529369" lon="11.7278395"><ele>108.80000000000001</ele><time>2026-04-06T08:40:19.662Z</time></trkpt><trkpt lat="45.7529945" lon="11.7277309"><ele>108.60000000000001</ele><time>2026-04-06T08:40:20.672Z</time></trkpt><trkpt lat="45.7530475" lon="11.7276515"><ele>108.4</ele><time>2026-04-06T08:40:21.672Z</time></trkpt><trkpt lat="45.7530837" lon="11.7275679"><ele>108.2</ele><time>2026-04-06T08:40:22.665Z</time></trkpt><trkpt lat="45.7531935" lon="11.7274433"><ele>108.0</ele><time>2026-04-06T08:40:24.662Z</time></trkpt><trkpt lat="45.7532688" lon="11.7273643"><ele>107.5</ele><time>2026-04-06T08:40:25.661Z</time></trkpt><trkpt lat="45.753324" lon="11.7272514"><ele>107.0</ele><time>2026-04-06T08:40:26.673Z</time></trkpt><trkpt lat="45.753342" lon="11.7270956"><ele>106.5</ele><time>2026-04-06T08:40:27.67Z</time></trkpt><trkpt lat="45.7533539" lon="11.7269087"><ele>106.0</ele><time>2026-04-06T08:40:28.664Z</time></trkpt><trkpt lat="45.7533626" lon="11.7267204"><ele>105.5</ele><time>2026-04-06T08:40:29.669Z</time></trkpt><trkpt lat="45.7533905" lon="11.726556"><ele>105.0</ele><time>2026-04-06T08:40:30.668Z</time></trkpt><trkpt lat="45.7534285" lon="11.7263869"><ele>104.5</ele><time>2026-04-06T08:40:31.662Z</time></trkpt><trkpt lat="45.7534555" lon="11.7261845"><ele>104.0</ele><time>2026-04-06T08:40:32.663Z</time></trkpt><trkpt lat="45.7534735" lon="11.7259417"><ele>104.0</ele><time>2026-04-06T08:40:33.659Z</time></trkpt><trkpt lat="45.7534959" lon="11.7256493"><ele>104.0</ele><time>2026-04-06T08:40:34.663Z</time></trkpt><trkpt lat="45.7535231" lon="11.7253682"><ele>104.0</ele><time>2026-04-06T08:40:35.673Z</time></trkpt><trkpt lat="45.7535332" lon="11.7250912"><ele>103.66666666666666</ele><time>2026-04-06T08:40:36.67Z</time></trkpt><trkpt lat="45.753518" lon="11.7248024"><ele>103.33333333333334</ele><time>2026-04-06T08:40:37.669Z</time></trkpt><trkpt lat="45.7534756" lon="11.7244987"><ele>103.0</ele><time>2026-04-06T08:40:38.669Z</time></trkpt><trkpt lat="45.7534371" lon="11.7242121"><ele>103.0</ele><time>2026-04-06T08:40:39.668Z</time></trkpt><trkpt lat="45.7533852" lon="11.7239664"><ele>103.0</ele><time>2026-04-06T08:40:40.67Z</time></trkpt><trkpt lat="45.7533287" lon="11.7237091"><ele>103.0</ele><time>2026-04-06T08:40:41.673Z</time></trkpt><trkpt lat="45.7532716" lon="11.7234527"><ele>103.66666666666667</ele><time>2026-04-06T08:40:42.674Z</time></trkpt><trkpt lat="45.753194" lon="11.7231852"><ele>104.33333333333334</ele><time>2026-04-06T08:40:43.663Z</time></trkpt><trkpt lat="45.7531141" lon="11.7229391"><ele>105.0</ele><time>2026-04-06T08:40:44.671Z</time></trkpt><trkpt lat="45.7530253" lon="11.7227049"><ele>105.0</ele><time>2026-04-06T08:40:45.672Z</time></trkpt><trkpt lat="45.7529681" lon="11.7224947"><ele>105.0</ele><time>2026-04-06T08:40:46.667Z</time></trkpt><trkpt lat="45.752943" lon="11.7223025"><ele>105.0</ele><time>2026-04-06T08:40:47.677Z</time></trkpt><trkpt lat="45.7529233" lon="11.7221235"><ele>105.0</ele><time>2026-04-06T08:40:48.673Z</time></trkpt><trkpt lat="45.7529053" lon="11.7219812"><ele>104.2</ele><time>2026-04-06T08:40:49.656Z</time></trkpt><trkpt lat="45.7529186" lon="11.7218459"><ele>103.4</ele><time>2026-04-06T08:40:50.666Z</time></trkpt><trkpt lat="45.7529562" lon="11.7217126"><ele>102.6</ele><time>2026-04-06T08:40:51.667Z</time></trkpt><trkpt lat="45.7529813" lon="11.7215486"><ele>101.8</ele><time>2026-04-06T08:40:52.665Z</time></trkpt><trkpt lat="45.7530055" lon="11.7213899"><ele>101.0</ele><time>2026-04-06T08:40:53.676Z</time></trkpt><trkpt lat="45.7530397" lon="11.7212407"><ele>101.0</ele><time>2026-04-06T08:40:54.667Z</time></trkpt><trkpt lat="45.7530865" lon="11.7210868"><ele>101.0</ele><time>2026-04-06T08:40:55.661Z</time></trkpt><trkpt lat="45.7531469" lon="11.7209149"><ele>101.0</ele><time>2026-04-06T08:40:56.668Z</time></trkpt><trkpt lat="45.7532151" lon="11.7207247"><ele>101.0</ele><time>2026-04-06T08:40:57.672Z</time></trkpt><trkpt lat="45.7533371" lon="11.7204947"><ele>100.66666666666666</ele><time>2026-04-06T08:40:58.668Z</time></trkpt><trkpt lat="45.7534588" lon="11.7202728"><ele>100.33333333333334</ele><time>2026-04-06T08:40:59.678Z</time></trkpt><trkpt lat="45.7536005" lon="11.7200784"><ele>100.0</ele><time>2026-04-06T08:41:00.668Z</time></trkpt><trkpt lat="45.7537719" lon="11.7199036"><ele>100.0</ele><time>2026-04-06T08:41:01.671Z</time></trkpt><trkpt lat="45.7539521" lon="11.7197492"><ele>100.0</ele><time>2026-04-06T08:41:02.668Z</time></trkpt><trkpt lat="45.7541422" lon="11.7196474"><ele>100.0</ele><time>2026-04-06T08:41:03.659Z</time></trkpt><trkpt lat="45.7543534" lon="11.7195794"><ele>100.66666666666667</ele><time>2026-04-06T08:41:04.661Z</time></trkpt><trkpt lat="45.7545181" lon="11.7194942"><ele>101.33333333333334</ele><time>2026-04-06T08:41:05.676Z</time></trkpt><trkpt lat="45.7546529" lon="11.7193955"><ele>102.0</ele><time>2026-04-06T08:41:06.659Z</time></trkpt><trkpt lat="45.7547616" lon="11.71931"><ele>102.0</ele><time>2026-04-06T08:41:07.662Z</time></trkpt><trkpt lat="45.7548766" lon="11.7192411"><ele>102.0</ele><time>2026-04-06T08:41:08.671Z</time></trkpt><trkpt lat="45.754988" lon="11.7192154"><ele>102.0</ele><time>2026-04-06T08:41:09.657Z</time></trkpt><trkpt lat="45.7550848" lon="11.7191639"><ele>102.0</ele><time>2026-04-06T08:41:10.663Z</time></trkpt><trkpt lat="45.7552138" lon="11.719066"><ele>103.0</ele><time>2026-04-06T08:41:11.678Z</time></trkpt><trkpt lat="45.7553031" lon="11.7189551"><ele>104.0</ele><time>2026-04-06T08:41:12.656Z</time></trkpt><trkpt lat="45.755438" lon="11.7188361"><ele>105.0</ele><time>2026-04-06T08:41:13.675Z</time></trkpt><trkpt lat="45.7556111" lon="11.7187236"><ele>105.0</ele><time>2026-04-06T08:41:14.671Z</time></trkpt><trkpt lat="45.7558255" lon="11.7186088"><ele>105.0</ele><time>2026-04-06T08:41:15.66Z</time></trkpt><trkpt lat="45.756037" lon="11.7184574"><ele>104.5</ele><time>2026-04-06T08:41:16.666Z</time></trkpt><trkpt lat="45.7562668" lon="11.7182726"><ele>104.0</ele><time>2026-04-06T08:41:17.672Z</time></trkpt><trkpt lat="45.7565113" lon="11.7180742"><ele>104.0</ele><time>2026-04-06T08:41:18.66Z</time></trkpt><trkpt lat="45.7567662" lon="11.7179161"><ele>104.0</ele><time>2026-04-06T08:41:19.671Z</time></trkpt><trkpt lat="45.7570093" lon="11.7177357"><ele>102.5</ele><time>2026-04-06T08:41:20.675Z</time></trkpt><trkpt lat="45.7572693" lon="11.7175396"><ele>101.0</ele><time>2026-04-06T08:41:21.67Z</time></trkpt><trkpt lat="45.7575042" lon="11.7173762"><ele>101.66666666666666</ele><time>2026-04-06T08:41:22.679Z</time></trkpt><trkpt lat="45.7577166" lon="11.7172272"><ele>102.33333333333334</ele><time>2026-04-06T08:41:23.678Z</time></trkpt><trkpt lat="45.7578974" lon="11.717102"><ele>103.0</ele><time>2026-04-06T08:41:24.672Z</time></trkpt><trkpt lat="45.7580841" lon="11.7169565"><ele>103.33333333333334</ele><time>2026-04-06T08:41:25.662Z</time></trkpt><trkpt lat="45.7582629" lon="11.7168296"><ele>103.66666666666666</ele><time>2026-04-06T08:41:26.677Z</time></trkpt><trkpt lat="45.7584214" lon="11.7167185"><ele>104.0</ele><time>2026-04-06T08:41:27.671Z</time></trkpt><trkpt lat="45.7585769" lon="11.7165843"><ele>104.66666666666666</ele><time>2026-04-06T08:41:28.673Z</time></trkpt><trkpt lat="45.7587456" lon="11.716487"><ele>105.33333333333334</ele><time>2026-04-06T08:41:29.678Z</time></trkpt><trkpt lat="45.7589014" lon="11.7163863"><ele>106.0</ele><time>2026-04-06T08:41:30.67Z</time></trkpt><trkpt lat="45.7590504" lon="11.7162897"><ele>106.0</ele><time>2026-04-06T08:41:31.678Z</time></trkpt><trkpt lat="45.7591751" lon="11.7162146"><ele>106.0</ele><time>2026-04-06T08:41:32.677Z</time></trkpt><trkpt lat="45.7593023" lon="11.7161253"><ele>106.0</ele><time>2026-04-06T08:41:33.662Z</time></trkpt><trkpt lat="45.7594064" lon="11.7160401"><ele>106.0</ele><time>2026-04-06T08:41:34.671Z</time></trkpt><trkpt lat="45.7595048" lon="11.7159798"><ele>106.4</ele><time>2026-04-06T08:41:35.664Z</time></trkpt><trkpt lat="45.7595971" lon="11.7159544"><ele>106.8</ele><time>2026-04-06T08:41:36.677Z</time></trkpt><trkpt lat="45.7596911" lon="11.7160073"><ele>107.20000000000002</ele><time>2026-04-06T08:41:37.665Z</time></trkpt><trkpt lat="45.759763" lon="11.7160878"><ele>107.60000000000001</ele><time>2026-04-06T08:41:38.672Z</time></trkpt><trkpt lat="45.7598525" lon="11.7162255"><ele>108.0</ele><time>2026-04-06T08:41:39.667Z</time></trkpt><trkpt lat="45.7599604" lon="11.7163279"><ele>108.0</ele><time>2026-04-06T08:41:40.656Z</time></trkpt><trkpt lat="45.7600898" lon="11.7163677"><ele>108.0</ele><time>2026-04-06T08:41:41.661Z</time></trkpt><trkpt lat="45.7602108" lon="11.7164249"><ele>108.0</ele><time>2026-04-06T08:41:42.673Z</time></trkpt><trkpt lat="45.760322" lon="11.7164941"><ele>108.0</ele><time>2026-04-06T08:41:43.667Z</time></trkpt><trkpt lat="45.7604119" lon="11.7165626"><ele>108.0</ele><time>2026-04-06T08:41:44.668Z</time></trkpt><trkpt lat="45.7604897" lon="11.7166215"><ele>108.0</ele><time>2026-04-06T08:41:45.698Z</time></trkpt><trkpt lat="45.7605495" lon="11.7166749"><ele>108.0</ele><time>2026-04-06T08:41:46.666Z</time></trkpt><trkpt lat="45.7606007" lon="11.7167351"><ele>108.0</ele><time>2026-04-06T08:41:47.674Z</time></trkpt><trkpt lat="45.7606579" lon="11.7167935"><ele>108.0</ele><time>2026-04-06T08:41:48.667Z</time></trkpt><trkpt lat="45.7607249" lon="11.7168536"><ele>108.0</ele><time>2026-04-06T08:41:49.666Z</time></trkpt><trkpt lat="45.7607931" lon="11.7169085"><ele>108.0</ele><time>2026-04-06T08:41:50.673Z</time></trkpt><trkpt lat="45.7608624" lon="11.7169615"><ele>108.00000000000001</ele><time>2026-04-06T08:41:51.662Z</time></trkpt><trkpt lat="45.7609369" lon="11.7170185"><ele>108.00000000000001</ele><time>2026-04-06T08:41:52.668Z</time></trkpt><trkpt lat="45.7610156" lon="11.7170841"><ele>108.0</ele><time>2026-04-06T08:41:53.671Z</time></trkpt><trkpt lat="45.7610956" lon="11.7171518"><ele>108.0</ele><time>2026-04-06T08:41:54.673Z</time></trkpt><trkpt lat="45.7611851" lon="11.7172259"><ele>108.60000000000001</ele><time>2026-04-06T08:41:55.668Z</time></trkpt><trkpt lat="45.7612779" lon="11.7173039"><ele>109.20000000000002</ele><time>2026-04-06T08:41:56.675Z</time></trkpt><trkpt lat="45.7613658" lon="11.71738"><ele>109.8</ele><time>2026-04-06T08:41:57.679Z</time></trkpt><trkpt lat="45.7614563" lon="11.7174561"><ele>110.4</ele><time>2026-04-06T08:41:58.669Z</time></trkpt><trkpt lat="45.7615486" lon="11.7175301"><ele>111.0</ele><time>2026-04-06T08:41:59.682Z</time></trkpt><trkpt lat="45.7616424" lon="11.7176002"><ele>111.0</ele><time>2026-04-06T08:42:00.669Z</time></trkpt><trkpt lat="45.7617346" lon="11.7176708"><ele>111.0</ele><time>2026-04-06T08:42:01.668Z</time></trkpt><trkpt lat="45.7618287" lon="11.7177364"><ele>111.0</ele><time>2026-04-06T08:42:02.679Z</time></trkpt><trkpt lat="45.7619221" lon="11.7178058"><ele>111.0</ele><time>2026-04-06T08:42:03.67Z</time></trkpt><trkpt lat="45.7620118" lon="11.7178697"><ele>111.0</ele><time>2026-04-06T08:42:04.67Z</time></trkpt><trkpt lat="45.7621036" lon="11.7179105"><ele>110.66666666666667</ele><time>2026-04-06T08:42:05.675Z</time></trkpt><trkpt lat="45.7621924" lon="11.7179356"><ele>110.33333333333334</ele><time>2026-04-06T08:42:06.674Z</time></trkpt><trkpt lat="45.7622886" lon="11.717945"><ele>110.0</ele><time>2026-04-06T08:42:07.674Z</time></trkpt><trkpt lat="45.7623837" lon="11.7179481"><ele>109.66666666666667</ele><time>2026-04-06T08:42:08.659Z</time></trkpt><trkpt lat="45.7624677" lon="11.7179497"><ele>109.33333333333334</ele><time>2026-04-06T08:42:09.666Z</time></trkpt><trkpt lat="45.7625311" lon="11.7179476"><ele>109.0</ele><time>2026-04-06T08:42:10.646Z</time></trkpt><trkpt lat="45.7625988" lon="11.7178561"><ele>109.2</ele><time>2026-04-06T08:42:12.662Z</time></trkpt><trkpt lat="45.7626193" lon="11.7176817"><ele>109.4</ele><time>2026-04-06T08:42:14.667Z</time></trkpt><trkpt lat="45.7626153" lon="11.7175637"><ele>109.6</ele><time>2026-04-06T08:42:15.661Z</time></trkpt><trkpt lat="45.7625988" lon="11.7174204"><ele>109.8</ele><time>2026-04-06T08:42:16.661Z</time></trkpt><trkpt lat="45.7625887" lon="11.7172498"><ele>110.0</ele><time>2026-04-06T08:42:17.739Z</time></trkpt><trkpt lat="45.7626078" lon="11.7171001"><ele>109.99999999999999</ele><time>2026-04-06T08:42:18.656Z</time></trkpt><trkpt lat="45.7626175" lon="11.7169756"><ele>110.0</ele><time>2026-04-06T08:42:19.664Z</time></trkpt><trkpt lat="45.7626227" lon="11.7168733"><ele>110.0</ele><time>2026-04-06T08:42:20.669Z</time></trkpt><trkpt lat="45.7626144" lon="11.7167801"><ele>110.0</ele><time>2026-04-06T08:42:21.663Z</time></trkpt><trkpt lat="45.7626895" lon="11.7166985"><ele>109.99999999999999</ele><time>2026-04-06T08:42:24.656Z</time></trkpt><trkpt lat="45.7627617" lon="11.7167146"><ele>110.0</ele><time>2026-04-06T08:42:25.654Z</time></trkpt><trkpt lat="45.7628807" lon="11.7167494"><ele>110.2</ele><time>2026-04-06T08:42:26.656Z</time></trkpt><trkpt lat="45.7629966" lon="11.7167663"><ele>110.4</ele><time>2026-04-06T08:42:27.652Z</time></trkpt><trkpt lat="45.7631013" lon="11.716762"><ele>110.6</ele><time>2026-04-06T08:42:28.662Z</time></trkpt><trkpt lat="45.7631887" lon="11.7167732"><ele>110.8</ele><time>2026-04-06T08:42:29.652Z</time></trkpt><trkpt lat="45.7632543" lon="11.7167901"><ele>111.0</ele><time>2026-04-06T08:42:30.65Z</time></trkpt><trkpt lat="45.7633324" lon="11.716801"><ele>111.0</ele><time>2026-04-06T08:42:32.66Z</time></trkpt><trkpt lat="45.7633525" lon="11.7167144"><ele>111.0</ele><time>2026-04-06T08:48:11.665Z</time></trkpt><trkpt lat="45.7634076" lon="11.7166665"><ele>111.0</ele><time>2026-04-06T08:50:33.656Z</time></trkpt><trkpt lat="45.7633641" lon="11.7165918"><ele>111.0</ele><time>2026-04-06T08:51:10.658Z</time></trkpt><trkpt lat="45.7633663" lon="11.7166914"><ele>111.0</ele><time>2026-04-06T08:51:28.655Z</time></trkpt><trkpt lat="45.7634191" lon="11.7166396"><ele>111.0</ele><time>2026-04-06T08:53:57.66Z</time></trkpt></trkseg></trk></gpx>